<?xml version='1.0' encoding='UTF-8'?><gpx version="1.1" creator="JPX - https://github.com/jenetics/jpx" xmlns="http://www.topografix.com/GPX/1/1"><trk><trkseg><trkpt lat="37.72929" lon="15.1844933"><ele>76.0</ele><time>2026-04-18T06:47:21.128Z</time></trkpt><trkpt lat="37.7293817" lon="15.1845017"><ele>76.0</ele><time>2026-04-18T06:47:22.127Z</time></trkpt><trkpt lat="37.7294567" lon="15.18452"><ele>76.0</ele><time>2026-04-18T06:47:23.128Z</time></trkpt><trkpt lat="37.729545" lon="15.1845217"><ele>76.0</ele><time>2026-04-18T06:47:24.128Z</time></trkpt><trkpt lat="37.7296267" lon="15.1845333"><ele>76.0</ele><time>2026-04-18T06:47:25.128Z</time></trkpt><trkpt lat="37.729715" lon="15.18455"><ele>76.0</ele><time>2026-04-18T06:47:26.127Z</time></trkpt><trkpt lat="37.729795" lon="15.1845767"><ele>75.33333333333333</ele><time>2026-04-18T06:47:27.128Z</time></trkpt><trkpt lat="37.7298783" lon="15.184605"><ele>74.66666666666666</ele><time>2026-04-18T06:47:28.128Z</time></trkpt><trkpt lat="37.7299583" lon="15.1846383"><ele>74.0</ele><time>2026-04-18T06:47:29.128Z</time></trkpt><trkpt lat="37.7300333" lon="15.1846417"><ele>73.33333333333333</ele><time>2026-04-18T06:47:30.128Z</time></trkpt><trkpt lat="37.7301067" lon="15.18465"><ele>72.66666666666667</ele><time>2026-04-18T06:47:31.128Z</time></trkpt><trkpt lat="37.7301917" lon="15.1846617"><ele>72.0</ele><time>2026-04-18T06:47:32.128Z</time></trkpt><trkpt lat="37.7302783" lon="15.1846783"><ele>71.2</ele><time>2026-04-18T06:47:33.128Z</time></trkpt><trkpt lat="37.7303667" lon="15.1847"><ele>70.4</ele><time>2026-04-18T06:47:34.128Z</time></trkpt><trkpt lat="37.7304567" lon="15.1847117"><ele>69.6</ele><time>2026-04-18T06:47:35.128Z</time></trkpt><trkpt lat="37.7305483" lon="15.18472"><ele>68.8</ele><time>2026-04-18T06:47:36.128Z</time></trkpt><trkpt lat="37.7306383" lon="15.1847317"><ele>68.0</ele><time>2026-04-18T06:47:37.128Z</time></trkpt><trkpt lat="37.7307267" lon="15.1847517"><ele>68.0</ele><time>2026-04-18T06:47:38.128Z</time></trkpt><trkpt lat="37.7308133" lon="15.1847667"><ele>68.0</ele><time>2026-04-18T06:47:39.128Z</time></trkpt><trkpt lat="37.7308983" lon="15.1847817"><ele>68.0</ele><time>2026-04-18T06:47:40.127Z</time></trkpt><trkpt lat="37.730975" lon="15.18479"><ele>68.0</ele><time>2026-04-18T06:47:41.128Z</time></trkpt><trkpt lat="37.7310517" lon="15.1848"><ele>68.0</ele><time>2026-04-18T06:47:42.128Z</time></trkpt><trkpt lat="37.731125" lon="15.1848167"><ele>68.0</ele><time>2026-04-18T06:47:43.128Z</time></trkpt><trkpt lat="37.7312033" lon="15.184835"><ele>67.5</ele><time>2026-04-18T06:47:44.128Z</time></trkpt><trkpt lat="37.73128" lon="15.1848467"><ele>67.0</ele><time>2026-04-18T06:47:45.128Z</time></trkpt><trkpt lat="37.73136" lon="15.18486"><ele>66.5</ele><time>2026-04-18T06:47:46.128Z</time></trkpt><trkpt lat="37.7314517" lon="15.1848767"><ele>66.0</ele><time>2026-04-18T06:47:47.128Z</time></trkpt><trkpt lat="37.731545" lon="15.1848933"><ele>65.5</ele><time>2026-04-18T06:47:48.128Z</time></trkpt><trkpt lat="37.73164" lon="15.18491"><ele>65.0</ele><time>2026-04-18T06:47:49.128Z</time></trkpt><trkpt lat="37.7317433" lon="15.1849333"><ele>65.0</ele><time>2026-04-18T06:47:50.128Z</time></trkpt><trkpt lat="37.7318483" lon="15.18496"><ele>65.0</ele><time>2026-04-18T06:47:51.128Z</time></trkpt><trkpt lat="37.7319483" lon="15.1849883"><ele>65.0</ele><time>2026-04-18T06:47:52.128Z</time></trkpt><trkpt lat="37.73205" lon="15.1850067"><ele>65.0</ele><time>2026-04-18T06:47:53.128Z</time></trkpt><trkpt lat="37.732155" lon="15.1850233"><ele>65.0</ele><time>2026-04-18T06:47:54.127Z</time></trkpt><trkpt lat="37.732255" lon="15.1850383"><ele>63.6</ele><time>2026-04-18T06:47:55.128Z</time></trkpt><trkpt lat="37.7323567" lon="15.1850567"><ele>62.2</ele><time>2026-04-18T06:47:56.128Z</time></trkpt><trkpt lat="37.732465" lon="15.185075"><ele>60.8</ele><time>2026-04-18T06:47:57.128Z</time></trkpt><trkpt lat="37.7325717" lon="15.1850967"><ele>59.4</ele><time>2026-04-18T06:47:58.128Z</time></trkpt><trkpt lat="37.732675" lon="15.18512"><ele>58.0</ele><time>2026-04-18T06:47:59.128Z</time></trkpt><trkpt lat="37.7327717" lon="15.1851417"><ele>58.0</ele><time>2026-04-18T06:48:00.128Z</time></trkpt><trkpt lat="37.7328667" lon="15.18516"><ele>58.0</ele><time>2026-04-18T06:48:01.128Z</time></trkpt><trkpt lat="37.73296" lon="15.18518"><ele>58.0</ele><time>2026-04-18T06:48:02.128Z</time></trkpt><trkpt lat="37.7330483" lon="15.1851883"><ele>58.0</ele><time>2026-04-18T06:48:03.128Z</time></trkpt><trkpt lat="37.7331383" lon="15.1852017"><ele>58.0</ele><time>2026-04-18T06:48:04.128Z</time></trkpt><trkpt lat="37.7332283" lon="15.1852183"><ele>58.0</ele><time>2026-04-18T06:48:05.128Z</time></trkpt><trkpt lat="37.733335" lon="15.1852317"><ele>58.0</ele><time>2026-04-18T06:48:06.128Z</time></trkpt><trkpt lat="37.73347" lon="15.1852417"><ele>58.0</ele><time>2026-04-18T06:48:07.128Z</time></trkpt><trkpt lat="37.73362" lon="15.1852817"><ele>58.0</ele><time>2026-04-18T06:48:08.128Z</time></trkpt><trkpt lat="37.7337733" lon="15.1853083"><ele>57.0</ele><time>2026-04-18T06:48:09.128Z</time></trkpt><trkpt lat="37.733915" lon="15.18533"><ele>56.0</ele><time>2026-04-18T06:48:10.128Z</time></trkpt><trkpt lat="37.7340617" lon="15.185365"><ele>55.0</ele><time>2026-04-18T06:48:11.128Z</time></trkpt><trkpt lat="37.7342" lon="15.1853983"><ele>54.0</ele><time>2026-04-18T06:48:12.128Z</time></trkpt><trkpt lat="37.7343517" lon="15.1854217"><ele>52.25</ele><time>2026-04-18T06:48:13.128Z</time></trkpt><trkpt lat="37.7345" lon="15.1854483"><ele>50.5</ele><time>2026-04-18T06:48:14.128Z</time></trkpt><trkpt lat="37.7346417" lon="15.18547"><ele>48.75</ele><time>2026-04-18T06:48:15.128Z</time></trkpt><trkpt lat="37.734785" lon="15.1855017"><ele>47.0</ele><time>2026-04-18T06:48:16.128Z</time></trkpt><trkpt lat="37.7349267" lon="15.1855317"><ele>47.0</ele><time>2026-04-18T06:48:17.127Z</time></trkpt><trkpt lat="37.73508" lon="15.18555"><ele>47.0</ele><time>2026-04-18T06:48:18.128Z</time></trkpt><trkpt lat="37.7352083" lon="15.18557"><ele>47.0</ele><time>2026-04-18T06:48:19.128Z</time></trkpt><trkpt lat="37.7353417" lon="15.1855967"><ele>47.0</ele><time>2026-04-18T06:48:20.128Z</time></trkpt><trkpt lat="37.7354583" lon="15.1856433"><ele>47.25</ele><time>2026-04-18T06:48:21.128Z</time></trkpt><trkpt lat="37.7355583" lon="15.1857233"><ele>47.5</ele><time>2026-04-18T06:48:22.128Z</time></trkpt><trkpt lat="37.7356517" lon="15.1858217"><ele>47.75</ele><time>2026-04-18T06:48:23.128Z</time></trkpt><trkpt lat="37.7357367" lon="15.185925"><ele>48.0</ele><time>2026-04-18T06:48:24.128Z</time></trkpt><trkpt lat="37.735815" lon="15.186025"><ele>48.0</ele><time>2026-04-18T06:48:25.128Z</time></trkpt><trkpt lat="37.7358867" lon="15.18612"><ele>48.0</ele><time>2026-04-18T06:48:26.128Z</time></trkpt><trkpt lat="37.73595" lon="15.18621"><ele>48.0</ele><time>2026-04-18T06:48:27.128Z</time></trkpt><trkpt lat="37.7360183" lon="15.1862883"><ele>48.0</ele><time>2026-04-18T06:48:28.128Z</time></trkpt><trkpt lat="37.7360917" lon="15.1863583"><ele>48.0</ele><time>2026-04-18T06:48:29.127Z</time></trkpt><trkpt lat="37.7361733" lon="15.186425"><ele>46.8</ele><time>2026-04-18T06:48:30.128Z</time></trkpt><trkpt lat="37.736245" lon="15.186485"><ele>45.599999999999994</ele><time>2026-04-18T06:48:31.128Z</time></trkpt><trkpt lat="37.7363233" lon="15.186525"><ele>44.400000000000006</ele><time>2026-04-18T06:48:32.128Z</time></trkpt><trkpt lat="37.7364033" lon="15.18653"><ele>43.2</ele><time>2026-04-18T06:48:33.128Z</time></trkpt><trkpt lat="37.736495" lon="15.1865"><ele>42.0</ele><time>2026-04-18T06:48:34.128Z</time></trkpt><trkpt lat="37.7365817" lon="15.1864267"><ele>42.0</ele><time>2026-04-18T06:48:35.128Z</time></trkpt><trkpt lat="37.7366783" lon="15.186305"><ele>42.0</ele><time>2026-04-18T06:48:36.128Z</time></trkpt><trkpt lat="37.736785" lon="15.18615"><ele>42.0</ele><time>2026-04-18T06:48:37.128Z</time></trkpt><trkpt lat="37.736895" lon="15.1859867"><ele>42.0</ele><time>2026-04-18T06:48:38.128Z</time></trkpt><trkpt lat="37.73699" lon="15.18585"><ele>42.0</ele><time>2026-04-18T06:48:39.128Z</time></trkpt><trkpt lat="37.7370767" lon="15.1857267"><ele>42.0</ele><time>2026-04-18T06:48:40.128Z</time></trkpt><trkpt lat="37.7371683" lon="15.185625"><ele>42.0</ele><time>2026-04-18T06:48:41.128Z</time></trkpt><trkpt lat="37.7372617" lon="15.1855633"><ele>42.5</ele><time>2026-04-18T06:48:42.128Z</time></trkpt><trkpt lat="37.73737" lon="15.1855483"><ele>43.0</ele><time>2026-04-18T06:48:43.128Z</time></trkpt><trkpt lat="37.73748" lon="15.1855833"><ele>43.5</ele><time>2026-04-18T06:48:44.128Z</time></trkpt><trkpt lat="37.7375983" lon="15.18564"><ele>44.0</ele><time>2026-04-18T06:48:45.128Z</time></trkpt><trkpt lat="37.73773" lon="15.1857083"><ele>42.666666666666664</ele><time>2026-04-18T06:48:46.128Z</time></trkpt><trkpt lat="37.7378767" lon="15.1857783"><ele>41.333333333333336</ele><time>2026-04-18T06:48:47.128Z</time></trkpt><trkpt lat="37.73803" lon="15.185835"><ele>40.0</ele><time>2026-04-18T06:48:48.128Z</time></trkpt><trkpt lat="37.738165" lon="15.1858917"><ele>40.0</ele><time>2026-04-18T06:48:49.128Z</time></trkpt><trkpt lat="37.7382917" lon="15.1859433"><ele>40.0</ele><time>2026-04-18T06:48:50.128Z</time></trkpt><trkpt lat="37.7384117" lon="15.1859867"><ele>40.0</ele><time>2026-04-18T06:48:51.128Z</time></trkpt><trkpt lat="37.73853" lon="15.1860317"><ele>40.0</ele><time>2026-04-18T06:48:52.128Z</time></trkpt><trkpt lat="37.7386383" lon="15.186065"><ele>39.8</ele><time>2026-04-18T06:48:53.128Z</time></trkpt><trkpt lat="37.738745" lon="15.1860933"><ele>39.6</ele><time>2026-04-18T06:48:54.128Z</time></trkpt><trkpt lat="37.73884" lon="15.1861217"><ele>39.4</ele><time>2026-04-18T06:48:55.128Z</time></trkpt><trkpt lat="37.7389367" lon="15.1861467"><ele>39.2</ele><time>2026-04-18T06:48:56.128Z</time></trkpt><trkpt lat="37.7390267" lon="15.186175"><ele>39.0</ele><time>2026-04-18T06:48:57.128Z</time></trkpt><trkpt lat="37.7391067" lon="15.1861967"><ele>39.0</ele><time>2026-04-18T06:48:58.128Z</time></trkpt><trkpt lat="37.73918" lon="15.18621"><ele>39.0</ele><time>2026-04-18T06:48:59.128Z</time></trkpt><trkpt lat="37.7392433" lon="15.1862267"><ele>39.0</ele><time>2026-04-18T06:49:00.128Z</time></trkpt><trkpt lat="37.73936" lon="15.1862617"><ele>39.0</ele><time>2026-04-18T06:49:02.128Z</time></trkpt><trkpt lat="37.7394233" lon="15.18628"><ele>39.0</ele><time>2026-04-18T06:49:03.128Z</time></trkpt><trkpt lat="37.739535" lon="15.1863033"><ele>39.0</ele><time>2026-04-18T06:49:05.128Z</time></trkpt><trkpt lat="37.73965" lon="15.1863233"><ele>38.5</ele><time>2026-04-18T06:49:07.128Z</time></trkpt><trkpt lat="37.7397217" lon="15.1863367"><ele>38.0</ele><time>2026-04-18T06:49:08.128Z</time></trkpt><trkpt lat="37.7398017" lon="15.1863483"><ele>37.5</ele><time>2026-04-18T06:49:09.128Z</time></trkpt><trkpt lat="37.7398917" lon="15.1863633"><ele>37.0</ele><time>2026-04-18T06:49:10.127Z</time></trkpt><trkpt lat="37.7399917" lon="15.1863817"><ele>36.5</ele><time>2026-04-18T06:49:11.127Z</time></trkpt><trkpt lat="37.7400733" lon="15.1863933"><ele>36.0</ele><time>2026-04-18T06:49:12.127Z</time></trkpt><trkpt lat="37.7401367" lon="15.186405"><ele>36.0</ele><time>2026-04-18T06:49:13.127Z</time></trkpt><trkpt lat="37.7402533" lon="15.1864183"><ele>36.0</ele><time>2026-04-18T06:49:15.127Z</time></trkpt><trkpt lat="37.740345" lon="15.1864417"><ele>36.0</ele><time>2026-04-18T06:49:17.127Z</time></trkpt><trkpt lat="37.7404467" lon="15.1864667"><ele>36.0</ele><time>2026-04-18T06:49:19.127Z</time></trkpt><trkpt lat="37.7405567" lon="15.1864867"><ele>36.0</ele><time>2026-04-18T06:49:21.127Z</time></trkpt><trkpt lat="37.74062" lon="15.1865"><ele>36.0</ele><time>2026-04-18T06:49:22.127Z</time></trkpt><trkpt lat="37.7406983" lon="15.1865033"><ele>36.0</ele><time>2026-04-18T06:49:23.126Z</time></trkpt><trkpt lat="37.7407817" lon="15.186515"><ele>36.0</ele><time>2026-04-18T06:49:24.127Z</time></trkpt><trkpt lat="37.74087" lon="15.1865383"><ele>36.0</ele><time>2026-04-18T06:49:25.127Z</time></trkpt><trkpt lat="37.74096" lon="15.1865583"><ele>36.0</ele><time>2026-04-18T06:49:26.127Z</time></trkpt><trkpt lat="37.7410517" lon="15.1865733"><ele>36.0</ele><time>2026-04-18T06:49:27.127Z</time></trkpt><trkpt lat="37.7411383" lon="15.18659"><ele>35.5</ele><time>2026-04-18T06:49:28.126Z</time></trkpt><trkpt lat="37.741225" lon="15.1866017"><ele>35.0</ele><time>2026-04-18T06:49:29.127Z</time></trkpt><trkpt lat="37.7413133" lon="15.1866133"><ele>34.5</ele><time>2026-04-18T06:49:30.127Z</time></trkpt><trkpt lat="37.7413967" lon="15.1866267"><ele>34.0</ele><time>2026-04-18T06:49:31.127Z</time></trkpt><trkpt lat="37.7414733" lon="15.1866383"><ele>33.5</ele><time>2026-04-18T06:49:32.127Z</time></trkpt><trkpt lat="37.7415433" lon="15.18665"><ele>33.0</ele><time>2026-04-18T06:49:33.127Z</time></trkpt><trkpt lat="37.7416067" lon="15.1866583"><ele>33.0</ele><time>2026-04-18T06:49:34.127Z</time></trkpt><trkpt lat="37.7416683" lon="15.1866767"><ele>33.0</ele><time>2026-04-18T06:49:35.127Z</time></trkpt><trkpt lat="37.7417767" lon="15.1866983"><ele>33.0</ele><time>2026-04-18T06:49:37.127Z</time></trkpt><trkpt lat="37.7418833" lon="15.1867017"><ele>33.0</ele><time>2026-04-18T06:49:39.126Z</time></trkpt><trkpt lat="37.7419867" lon="15.1867083"><ele>33.0</ele><time>2026-04-18T06:49:41.127Z</time></trkpt><trkpt lat="37.7421033" lon="15.1867167"><ele>32.666666666666664</ele><time>2026-04-18T06:49:43.127Z</time></trkpt><trkpt lat="37.742165" lon="15.1867417"><ele>32.333333333333336</ele><time>2026-04-18T06:49:44.127Z</time></trkpt><trkpt lat="37.7422333" lon="15.18676"><ele>32.0</ele><time>2026-04-18T06:49:45.127Z</time></trkpt><trkpt lat="37.7423067" lon="15.1867867"><ele>31.666666666666668</ele><time>2026-04-18T06:49:46.127Z</time></trkpt><trkpt lat="37.7423883" lon="15.1868167"><ele>31.333333333333336</ele><time>2026-04-18T06:49:47.127Z</time></trkpt><trkpt lat="37.7424683" lon="15.18686"><ele>31.0</ele><time>2026-04-18T06:49:48.127Z</time></trkpt><trkpt lat="37.7425567" lon="15.1869017"><ele>31.0</ele><time>2026-04-18T06:49:49.127Z</time></trkpt><trkpt lat="37.7426433" lon="15.1869567"><ele>31.0</ele><time>2026-04-18T06:49:50.127Z</time></trkpt><trkpt lat="37.7427333" lon="15.187005"><ele>31.0</ele><time>2026-04-18T06:49:51.127Z</time></trkpt><trkpt lat="37.7428317" lon="15.1870533"><ele>31.0</ele><time>2026-04-18T06:49:52.127Z</time></trkpt><trkpt lat="37.7429267" lon="15.1871"><ele>31.0</ele><time>2026-04-18T06:49:53.127Z</time></trkpt><trkpt lat="37.74302" lon="15.1871283"><ele>31.166666666666668</ele><time>2026-04-18T06:49:54.127Z</time></trkpt><trkpt lat="37.743105" lon="15.187155"><ele>31.333333333333336</ele><time>2026-04-18T06:49:55.127Z</time></trkpt><trkpt lat="37.74318" lon="15.18719"><ele>31.5</ele><time>2026-04-18T06:49:56.127Z</time></trkpt><trkpt lat="37.7432583" lon="15.18722"><ele>31.666666666666664</ele><time>2026-04-18T06:49:57.127Z</time></trkpt><trkpt lat="37.7433317" lon="15.1872583"><ele>31.833333333333332</ele><time>2026-04-18T06:49:58.127Z</time></trkpt><trkpt lat="37.74339" lon="15.1872967"><ele>32.0</ele><time>2026-04-18T06:49:59.127Z</time></trkpt><trkpt lat="37.7434917" lon="15.187325"><ele>31.999999999999996</ele><time>2026-04-18T06:50:01.127Z</time></trkpt><trkpt lat="37.7435567" lon="15.1873467"><ele>32.0</ele><time>2026-04-18T06:50:04.127Z</time></trkpt><trkpt lat="37.7436183" lon="15.1873067"><ele>32.0</ele><time>2026-04-18T06:50:19.127Z</time></trkpt><trkpt lat="37.743655" lon="15.1871917"><ele>32.0</ele><time>2026-04-18T06:50:21.127Z</time></trkpt><trkpt lat="37.74374" lon="15.1870733"><ele>31.999999999999996</ele><time>2026-04-18T06:50:23.126Z</time></trkpt><trkpt lat="37.7438033" lon="15.18704"><ele>32.0</ele><time>2026-04-18T06:50:24.127Z</time></trkpt><trkpt lat="37.7438917" lon="15.1870367"><ele>32.0</ele><time>2026-04-18T06:50:25.126Z</time></trkpt><trkpt lat="37.74399" lon="15.18705"><ele>32.0</ele><time>2026-04-18T06:50:26.127Z</time></trkpt><trkpt lat="37.74412" lon="15.1870933"><ele>32.0</ele><time>2026-04-18T06:50:27.127Z</time></trkpt><trkpt lat="37.7442867" lon="15.187145"><ele>32.0</ele><time>2026-04-18T06:50:28.127Z</time></trkpt><trkpt lat="37.7445033" lon="15.1872017"><ele>31.5</ele><time>2026-04-18T06:50:29.127Z</time></trkpt><trkpt lat="37.7447433" lon="15.1872617"><ele>31.0</ele><time>2026-04-18T06:50:30.127Z</time></trkpt><trkpt lat="37.74501" lon="15.1872833"><ele>32.5</ele><time>2026-04-18T06:50:31.127Z</time></trkpt><trkpt lat="37.74529" lon="15.1873167"><ele>34.0</ele><time>2026-04-18T06:50:32.127Z</time></trkpt><trkpt lat="37.7455517" lon="15.187335"><ele>33.5</ele><time>2026-04-18T06:50:33.127Z</time></trkpt><trkpt lat="37.74579" lon="15.1873483"><ele>33.0</ele><time>2026-04-18T06:50:34.127Z</time></trkpt><trkpt lat="37.746005" lon="15.18737"><ele>33.666666666666664</ele><time>2026-04-18T06:50:35.127Z</time></trkpt><trkpt lat="37.7462117" lon="15.1873867"><ele>34.33333333333333</ele><time>2026-04-18T06:50:36.127Z</time></trkpt><trkpt lat="37.7464" lon="15.1873983"><ele>35.0</ele><time>2026-04-18T06:50:37.127Z</time></trkpt><trkpt lat="37.7465617" lon="15.1874183"><ele>35.0</ele><time>2026-04-18T06:50:38.127Z</time></trkpt><trkpt lat="37.7467033" lon="15.1874283"><ele>35.0</ele><time>2026-04-18T06:50:39.127Z</time></trkpt><trkpt lat="37.7468233" lon="15.1874367"><ele>35.0</ele><time>2026-04-18T06:50:40.126Z</time></trkpt><trkpt lat="37.7469317" lon="15.1874117"><ele>35.0</ele><time>2026-04-18T06:50:41.127Z</time></trkpt><trkpt lat="37.7470233" lon="15.1873483"><ele>37.25</ele><time>2026-04-18T06:50:42.127Z</time></trkpt><trkpt lat="37.74709" lon="15.187235"><ele>39.5</ele><time>2026-04-18T06:50:43.126Z</time></trkpt><trkpt lat="37.7471267" lon="15.1871033"><ele>41.75</ele><time>2026-04-18T06:50:44.127Z</time></trkpt><trkpt lat="37.7471367" lon="15.1869633"><ele>44.0</ele><time>2026-04-18T06:50:45.126Z</time></trkpt><trkpt lat="37.7471417" lon="15.1868083"><ele>44.0</ele><time>2026-04-18T06:50:46.127Z</time></trkpt><trkpt lat="37.7471767" lon="15.18667"><ele>44.0</ele><time>2026-04-18T06:50:47.127Z</time></trkpt><trkpt lat="37.7472483" lon="15.1865483"><ele>44.0</ele><time>2026-04-18T06:50:48.127Z</time></trkpt><trkpt lat="37.747345" lon="15.1864417"><ele>44.0</ele><time>2026-04-18T06:50:49.127Z</time></trkpt><trkpt lat="37.7474517" lon="15.1863417"><ele>43.25</ele><time>2026-04-18T06:50:50.127Z</time></trkpt><trkpt lat="37.747575" lon="15.186255"><ele>42.5</ele><time>2026-04-18T06:50:51.127Z</time></trkpt><trkpt lat="37.74771" lon="15.1862117"><ele>41.75</ele><time>2026-04-18T06:50:52.127Z</time></trkpt><trkpt lat="37.74786" lon="15.1862067"><ele>41.0</ele><time>2026-04-18T06:50:53.127Z</time></trkpt><trkpt lat="37.7480167" lon="15.186195"><ele>44.0</ele><time>2026-04-18T06:50:54.127Z</time></trkpt><trkpt lat="37.7481883" lon="15.1861783"><ele>47.0</ele><time>2026-04-18T06:50:55.127Z</time></trkpt><trkpt lat="37.74837" lon="15.1861667"><ele>50.0</ele><time>2026-04-18T06:50:56.127Z</time></trkpt><trkpt lat="37.7485533" lon="15.1861533"><ele>52.0</ele><time>2026-04-18T06:50:57.127Z</time></trkpt><trkpt lat="37.7487383" lon="15.1861367"><ele>54.0</ele><time>2026-04-18T06:50:58.127Z</time></trkpt><trkpt lat="37.7489317" lon="15.1861083"><ele>56.0</ele><time>2026-04-18T06:50:59.127Z</time></trkpt><trkpt lat="37.7491117" lon="15.1860867"><ele>56.0</ele><time>2026-04-18T06:51:00.127Z</time></trkpt><trkpt lat="37.7492783" lon="15.1860767"><ele>56.0</ele><time>2026-04-18T06:51:01.127Z</time></trkpt><trkpt lat="37.74944" lon="15.186055"><ele>56.0</ele><time>2026-04-18T06:51:02.127Z</time></trkpt><trkpt lat="37.7495967" lon="15.1860233"><ele>57.0</ele><time>2026-04-18T06:51:03.127Z</time></trkpt><trkpt lat="37.7497483" lon="15.18598"><ele>58.0</ele><time>2026-04-18T06:51:04.127Z</time></trkpt><trkpt lat="37.7498883" lon="15.1858933"><ele>59.0</ele><time>2026-04-18T06:51:05.127Z</time></trkpt><trkpt lat="37.75003" lon="15.185775"><ele>58.66666666666667</ele><time>2026-04-18T06:51:06.126Z</time></trkpt><trkpt lat="37.7501783" lon="15.1856233"><ele>58.33333333333333</ele><time>2026-04-18T06:51:07.127Z</time></trkpt><trkpt lat="37.75035" lon="15.1854617"><ele>58.0</ele><time>2026-04-18T06:51:08.127Z</time></trkpt><trkpt lat="37.750545" lon="15.1853"><ele>60.5</ele><time>2026-04-18T06:51:09.127Z</time></trkpt><trkpt lat="37.75076" lon="15.1851117"><ele>63.0</ele><time>2026-04-18T06:51:10.127Z</time></trkpt><trkpt lat="37.7509817" lon="15.1849483"><ele>66.5</ele><time>2026-04-18T06:51:11.127Z</time></trkpt><trkpt lat="37.7511767" lon="15.1847783"><ele>70.0</ele><time>2026-04-18T06:51:12.127Z</time></trkpt><trkpt lat="37.7513733" lon="15.1846033"><ele>70.0</ele><time>2026-04-18T06:51:13.127Z</time></trkpt><trkpt lat="37.7515683" lon="15.18441"><ele>70.0</ele><time>2026-04-18T06:51:14.127Z</time></trkpt><trkpt lat="37.7517533" lon="15.18419"><ele>72.5</ele><time>2026-04-18T06:51:15.127Z</time></trkpt><trkpt lat="37.7519433" lon="15.1839633"><ele>75.0</ele><time>2026-04-18T06:51:16.127Z</time></trkpt><trkpt lat="37.75213" lon="15.1837283"><ele>75.0</ele><time>2026-04-18T06:51:17.127Z</time></trkpt><trkpt lat="37.75231" lon="15.1834983"><ele>75.0</ele><time>2026-04-18T06:51:18.127Z</time></trkpt><trkpt lat="37.75247" lon="15.1832817"><ele>73.5</ele><time>2026-04-18T06:51:19.127Z</time></trkpt><trkpt lat="37.752635" lon="15.1830817"><ele>72.0</ele><time>2026-04-18T06:51:20.127Z</time></trkpt><trkpt lat="37.75279" lon="15.1828767"><ele>74.0</ele><time>2026-04-18T06:51:21.127Z</time></trkpt><trkpt lat="37.7529433" lon="15.1826917"><ele>76.0</ele><time>2026-04-18T06:51:22.127Z</time></trkpt><trkpt lat="37.75309" lon="15.1825267"><ele>78.0</ele><time>2026-04-18T06:51:23.126Z</time></trkpt><trkpt lat="37.7532383" lon="15.1823767"><ele>78.33333333333333</ele><time>2026-04-18T06:51:24.127Z</time></trkpt><trkpt lat="37.7534033" lon="15.1822533"><ele>78.66666666666666</ele><time>2026-04-18T06:51:25.127Z</time></trkpt><trkpt lat="37.7535833" lon="15.1821517"><ele>79.0</ele><time>2026-04-18T06:51:26.127Z</time></trkpt><trkpt lat="37.753755" lon="15.1820617"><ele>81.33333333333333</ele><time>2026-04-18T06:51:27.127Z</time></trkpt><trkpt lat="37.7539167" lon="15.18198"><ele>83.66666666666667</ele><time>2026-04-18T06:51:28.127Z</time></trkpt><trkpt lat="37.7540567" lon="15.181905"><ele>86.0</ele><time>2026-04-18T06:51:29.127Z</time></trkpt><trkpt lat="37.7541733" lon="15.181815"><ele>86.0</ele><time>2026-04-18T06:51:30.127Z</time></trkpt><trkpt lat="37.7542567" lon="15.18171"><ele>86.0</ele><time>2026-04-18T06:51:31.127Z</time></trkpt><trkpt lat="37.75431" lon="15.1815883"><ele>86.0</ele><time>2026-04-18T06:51:32.127Z</time></trkpt><trkpt lat="37.7543417" lon="15.1814567"><ele>86.0</ele><time>2026-04-18T06:51:33.127Z</time></trkpt><trkpt lat="37.754335" lon="15.1813083"><ele>87.5</ele><time>2026-04-18T06:51:34.126Z</time></trkpt><trkpt lat="37.7543033" lon="15.1811467"><ele>89.0</ele><time>2026-04-18T06:51:35.127Z</time></trkpt><trkpt lat="37.7542817" lon="15.1809883"><ele>90.5</ele><time>2026-04-18T06:51:36.126Z</time></trkpt><trkpt lat="37.7543" lon="15.180845"><ele>92.0</ele><time>2026-04-18T06:51:37.127Z</time></trkpt><trkpt lat="37.754355" lon="15.1806983"><ele>96.33333333333334</ele><time>2026-04-18T06:51:38.126Z</time></trkpt><trkpt lat="37.754435" lon="15.1805417"><ele>100.66666666666667</ele><time>2026-04-18T06:51:39.126Z</time></trkpt><trkpt lat="37.7545383" lon="15.1803633"><ele>105.0</ele><time>2026-04-18T06:51:40.127Z</time></trkpt><trkpt lat="37.7546667" lon="15.1801617"><ele>105.0</ele><time>2026-04-18T06:51:41.127Z</time></trkpt><trkpt lat="37.7547983" lon="15.1799367"><ele>105.0</ele><time>2026-04-18T06:51:42.127Z</time></trkpt><trkpt lat="37.754925" lon="15.17972"><ele>105.0</ele><time>2026-04-18T06:51:43.126Z</time></trkpt><trkpt lat="37.7550433" lon="15.1795283"><ele>107.33333333333334</ele><time>2026-04-18T06:51:44.127Z</time></trkpt><trkpt lat="37.7551683" lon="15.17935"><ele>109.66666666666667</ele><time>2026-04-18T06:51:45.126Z</time></trkpt><trkpt lat="37.7553083" lon="15.1791833"><ele>112.0</ele><time>2026-04-18T06:51:46.127Z</time></trkpt><trkpt lat="37.7554767" lon="15.1790267"><ele>116.66666666666667</ele><time>2026-04-18T06:51:47.127Z</time></trkpt><trkpt lat="37.7556383" lon="15.1788767"><ele>121.33333333333334</ele><time>2026-04-18T06:51:48.127Z</time></trkpt><trkpt lat="37.755785" lon="15.1787417"><ele>126.0</ele><time>2026-04-18T06:51:49.127Z</time></trkpt><trkpt lat="37.7559217" lon="15.1786183"><ele>127.5</ele><time>2026-04-18T06:51:50.127Z</time></trkpt><trkpt lat="37.7560567" lon="15.178525"><ele>129.0</ele><time>2026-04-18T06:51:51.127Z</time></trkpt><trkpt lat="37.756205" lon="15.1784667"><ele>130.5</ele><time>2026-04-18T06:51:52.127Z</time></trkpt><trkpt lat="37.75634" lon="15.178445"><ele>132.0</ele><time>2026-04-18T06:51:53.127Z</time></trkpt><trkpt lat="37.7564767" lon="15.1784533"><ele>132.0</ele><time>2026-04-18T06:51:54.127Z</time></trkpt><trkpt lat="37.7566183" lon="15.178495"><ele>132.0</ele><time>2026-04-18T06:51:55.127Z</time></trkpt><trkpt lat="37.7567667" lon="15.1785467"><ele>132.0</ele><time>2026-04-18T06:51:56.127Z</time></trkpt><trkpt lat="37.75692" lon="15.17859"><ele>132.0</ele><time>2026-04-18T06:51:57.127Z</time></trkpt><trkpt lat="37.757075" lon="15.1786317"><ele>132.0</ele><time>2026-04-18T06:51:58.127Z</time></trkpt><trkpt lat="37.7572233" lon="15.1786567"><ele>132.0</ele><time>2026-04-18T06:51:59.127Z</time></trkpt><trkpt lat="37.757365" lon="15.1786617"><ele>132.0</ele><time>2026-04-18T06:52:00.127Z</time></trkpt><trkpt lat="37.7574983" lon="15.1786333"><ele>132.0</ele><time>2026-04-18T06:52:01.127Z</time></trkpt><trkpt lat="37.75762" lon="15.1785633"><ele>132.0</ele><time>2026-04-18T06:52:02.127Z</time></trkpt><trkpt lat="37.7577183" lon="15.17846"><ele>132.0</ele><time>2026-04-18T06:52:03.127Z</time></trkpt><trkpt lat="37.7578017" lon="15.1783217"><ele>134.0</ele><time>2026-04-18T06:52:04.127Z</time></trkpt><trkpt lat="37.757885" lon="15.178175"><ele>136.0</ele><time>2026-04-18T06:52:05.127Z</time></trkpt><trkpt lat="37.7579683" lon="15.1780067"><ele>138.0</ele><time>2026-04-18T06:52:06.127Z</time></trkpt><trkpt lat="37.75802" lon="15.1778733"><ele>140.0</ele><time>2026-04-18T06:52:07.127Z</time></trkpt><trkpt lat="37.7580333" lon="15.1777467"><ele>140.0</ele><time>2026-04-18T06:52:08.127Z</time></trkpt><trkpt lat="37.7580067" lon="15.177615"><ele>140.0</ele><time>2026-04-18T06:52:09.127Z</time></trkpt><trkpt lat="37.757935" lon="15.1774983"><ele>140.0</ele><time>2026-04-18T06:52:10.127Z</time></trkpt><trkpt lat="37.75783" lon="15.1773917"><ele>140.0</ele><time>2026-04-18T06:52:11.127Z</time></trkpt><trkpt lat="37.7576933" lon="15.1772817"><ele>141.5</ele><time>2026-04-18T06:52:12.127Z</time></trkpt><trkpt lat="37.7575533" lon="15.1771633"><ele>143.0</ele><time>2026-04-18T06:52:13.127Z</time></trkpt><trkpt lat="37.7574267" lon="15.1770583"><ele>144.5</ele><time>2026-04-18T06:52:14.127Z</time></trkpt><trkpt lat="37.7573183" lon="15.1769683"><ele>146.0</ele><time>2026-04-18T06:52:15.127Z</time></trkpt><trkpt lat="37.7572367" lon="15.1768767"><ele>146.0</ele><time>2026-04-18T06:52:16.127Z</time></trkpt><trkpt lat="37.7571833" lon="15.1767917"><ele>146.0</ele><time>2026-04-18T06:52:17.127Z</time></trkpt><trkpt lat="37.75715" lon="15.1766883"><ele>146.0</ele><time>2026-04-18T06:52:18.127Z</time></trkpt><trkpt lat="37.7571717" lon="15.176575"><ele>146.0</ele><time>2026-04-18T06:52:19.127Z</time></trkpt><trkpt lat="37.7572367" lon="15.1764517"><ele>146.0</ele><time>2026-04-18T06:52:20.127Z</time></trkpt><trkpt lat="37.75732" lon="15.176315"><ele>147.75</ele><time>2026-04-18T06:52:21.127Z</time></trkpt><trkpt lat="37.757415" lon="15.176185"><ele>149.5</ele><time>2026-04-18T06:52:22.127Z</time></trkpt><trkpt lat="37.7575233" lon="15.1760583"><ele>151.25</ele><time>2026-04-18T06:52:23.127Z</time></trkpt><trkpt lat="37.757635" lon="15.1759217"><ele>153.0</ele><time>2026-04-18T06:52:24.126Z</time></trkpt><trkpt lat="37.7577467" lon="15.1757733"><ele>154.33333333333334</ele><time>2026-04-18T06:52:25.127Z</time></trkpt><trkpt lat="37.7578683" lon="15.1756217"><ele>155.66666666666669</ele><time>2026-04-18T06:52:26.126Z</time></trkpt><trkpt lat="37.7580017" lon="15.1754667"><ele>157.0</ele><time>2026-04-18T06:52:27.127Z</time></trkpt><trkpt lat="37.75814" lon="15.1752983"><ele>157.0</ele><time>2026-04-18T06:52:28.127Z</time></trkpt><trkpt lat="37.7582717" lon="15.1751267"><ele>157.0</ele><time>2026-04-18T06:52:29.127Z</time></trkpt><trkpt lat="37.7584017" lon="15.174975"><ele>157.0</ele><time>2026-04-18T06:52:30.127Z</time></trkpt><trkpt lat="37.75853" lon="15.1748333"><ele>161.0</ele><time>2026-04-18T06:52:31.126Z</time></trkpt><trkpt lat="37.7586633" lon="15.1747017"><ele>165.0</ele><time>2026-04-18T06:52:32.127Z</time></trkpt><trkpt lat="37.75879" lon="15.1745933"><ele>169.0</ele><time>2026-04-18T06:52:33.127Z</time></trkpt><trkpt lat="37.7589167" lon="15.1745033"><ele>169.0</ele><time>2026-04-18T06:52:34.127Z</time></trkpt><trkpt lat="37.7590333" lon="15.17442"><ele>169.0</ele><time>2026-04-18T06:52:35.127Z</time></trkpt><trkpt lat="37.7591567" lon="15.1743467"><ele>169.0</ele><time>2026-04-18T06:52:36.127Z</time></trkpt><trkpt lat="37.7592817" lon="15.1743167"><ele>169.0</ele><time>2026-04-18T06:52:37.127Z</time></trkpt><trkpt lat="37.759405" lon="15.174315"><ele>169.5</ele><time>2026-04-18T06:52:38.127Z</time></trkpt><trkpt lat="37.7595333" lon="15.1743333"><ele>170.0</ele><time>2026-04-18T06:52:39.127Z</time></trkpt><trkpt lat="37.7596567" lon="15.1743717"><ele>170.5</ele><time>2026-04-18T06:52:40.127Z</time></trkpt><trkpt lat="37.7597767" lon="15.17442"><ele>171.0</ele><time>2026-04-18T06:52:41.126Z</time></trkpt><trkpt lat="37.7598917" lon="15.1744783"><ele>171.0</ele><time>2026-04-18T06:52:42.127Z</time></trkpt><trkpt lat="37.7599833" lon="15.1745583"><ele>171.0</ele><time>2026-04-18T06:52:43.127Z</time></trkpt><trkpt lat="37.7600583" lon="15.1746433"><ele>171.0</ele><time>2026-04-18T06:52:44.127Z</time></trkpt><trkpt lat="37.7601233" lon="15.1747133"><ele>171.0</ele><time>2026-04-18T06:52:45.127Z</time></trkpt><trkpt lat="37.7601767" lon="15.174765"><ele>171.0</ele><time>2026-04-18T06:52:46.127Z</time></trkpt><trkpt lat="37.76027" lon="15.17477"><ele>170.5</ele><time>2026-04-18T06:52:48.127Z</time></trkpt><trkpt lat="37.7603183" lon="15.17471"><ele>170.0</ele><time>2026-04-18T06:52:49.126Z</time></trkpt><trkpt lat="37.7603683" lon="15.17464"><ele>169.5</ele><time>2026-04-18T06:52:50.127Z</time></trkpt><trkpt lat="37.7604167" lon="15.1745717"><ele>169.0</ele><time>2026-04-18T06:52:51.126Z</time></trkpt><trkpt lat="37.760475" lon="15.17445"><ele>168.5</ele><time>2026-04-18T06:52:53.127Z</time></trkpt><trkpt lat="37.76054" lon="15.1743317"><ele>168.0</ele><time>2026-04-18T06:52:55.127Z</time></trkpt><trkpt lat="37.7605967" lon="15.1742767"><ele>168.0</ele><time>2026-04-18T06:52:56.127Z</time></trkpt><trkpt lat="37.760645" lon="15.174205"><ele>168.0</ele><time>2026-04-18T06:52:57.127Z</time></trkpt><trkpt lat="37.7607067" lon="15.174135"><ele>168.0</ele><time>2026-04-18T06:52:58.127Z</time></trkpt><trkpt lat="37.7607667" lon="15.1740583"><ele>168.0</ele><time>2026-04-18T06:52:59.127Z</time></trkpt><trkpt lat="37.7608233" lon="15.17398"><ele>168.0</ele><time>2026-04-18T06:53:00.127Z</time></trkpt><trkpt lat="37.7608617" lon="15.1739017"><ele>168.0</ele><time>2026-04-18T06:53:01.127Z</time></trkpt><trkpt lat="37.7609283" lon="15.1738033"><ele>167.8</ele><time>2026-04-18T06:53:03.127Z</time></trkpt><trkpt lat="37.7609917" lon="15.1737517"><ele>167.60000000000002</ele><time>2026-04-18T06:53:07.127Z</time></trkpt><trkpt lat="37.761075" lon="15.1738267"><ele>167.39999999999998</ele><time>2026-04-18T06:53:09.126Z</time></trkpt><trkpt lat="37.7611683" lon="15.1739083"><ele>167.2</ele><time>2026-04-18T06:53:10.127Z</time></trkpt><trkpt lat="37.761265" lon="15.1740367"><ele>167.0</ele><time>2026-04-18T06:53:11.127Z</time></trkpt><trkpt lat="37.76138" lon="15.1741983"><ele>167.0</ele><time>2026-04-18T06:53:12.127Z</time></trkpt><trkpt lat="37.7615" lon="15.1743583"><ele>167.0</ele><time>2026-04-18T06:53:13.126Z</time></trkpt><trkpt lat="37.7616183" lon="15.1745183"><ele>167.0</ele><time>2026-04-18T06:53:14.127Z</time></trkpt><trkpt lat="37.76174" lon="15.174665"><ele>167.0</ele><time>2026-04-18T06:53:15.127Z</time></trkpt><trkpt lat="37.761855" lon="15.1748033"><ele>167.0</ele><time>2026-04-18T06:53:16.127Z</time></trkpt><trkpt lat="37.7619617" lon="15.1749333"><ele>167.0</ele><time>2026-04-18T06:53:17.127Z</time></trkpt><trkpt lat="37.7620617" lon="15.17505"><ele>167.0</ele><time>2026-04-18T06:53:18.127Z</time></trkpt><trkpt lat="37.7621617" lon="15.17515"><ele>166.8</ele><time>2026-04-18T06:53:19.127Z</time></trkpt><trkpt lat="37.7622583" lon="15.1752283"><ele>166.6</ele><time>2026-04-18T06:53:20.127Z</time></trkpt><trkpt lat="37.7623583" lon="15.175295"><ele>166.4</ele><time>2026-04-18T06:53:21.127Z</time></trkpt><trkpt lat="37.762465" lon="15.1753267"><ele>166.20000000000002</ele><time>2026-04-18T06:53:22.127Z</time></trkpt><trkpt lat="37.7625683" lon="15.17535"><ele>166.0</ele><time>2026-04-18T06:53:23.127Z</time></trkpt><trkpt lat="37.7626767" lon="15.1753583"><ele>167.0</ele><time>2026-04-18T06:53:24.126Z</time></trkpt><trkpt lat="37.7627917" lon="15.17536"><ele>168.0</ele><time>2026-04-18T06:53:25.127Z</time></trkpt><trkpt lat="37.7629083" lon="15.1753817"><ele>169.0</ele><time>2026-04-18T06:53:26.127Z</time></trkpt><trkpt lat="37.76302" lon="15.1754317"><ele>170.0</ele><time>2026-04-18T06:53:27.127Z</time></trkpt><trkpt lat="37.7631417" lon="15.1754883"><ele>170.0</ele><time>2026-04-18T06:53:28.127Z</time></trkpt><trkpt lat="37.7632667" lon="15.17555"><ele>170.0</ele><time>2026-04-18T06:53:29.127Z</time></trkpt><trkpt lat="37.7633867" lon="15.1756267"><ele>170.0</ele><time>2026-04-18T06:53:30.127Z</time></trkpt><trkpt lat="37.7634983" lon="15.1757217"><ele>170.0</ele><time>2026-04-18T06:53:31.127Z</time></trkpt><trkpt lat="37.7635967" lon="15.1758283"><ele>170.75</ele><time>2026-04-18T06:53:32.127Z</time></trkpt><trkpt lat="37.7637033" lon="15.1759367"><ele>171.5</ele><time>2026-04-18T06:53:33.127Z</time></trkpt><trkpt lat="37.7638117" lon="15.17603"><ele>172.25</ele><time>2026-04-18T06:53:34.127Z</time></trkpt><trkpt lat="37.763925" lon="15.1761133"><ele>173.0</ele><time>2026-04-18T06:53:35.127Z</time></trkpt><trkpt lat="37.7640433" lon="15.17618"><ele>173.0</ele><time>2026-04-18T06:53:36.127Z</time></trkpt><trkpt lat="37.7641583" lon="15.1762467"><ele>173.0</ele><time>2026-04-18T06:53:37.127Z</time></trkpt><trkpt lat="37.7642683" lon="15.1763167"><ele>173.0</ele><time>2026-04-18T06:53:38.127Z</time></trkpt><trkpt lat="37.764365" lon="15.1763933"><ele>173.0</ele><time>2026-04-18T06:53:39.127Z</time></trkpt><trkpt lat="37.76446" lon="15.1764767"><ele>171.2</ele><time>2026-04-18T06:53:40.126Z</time></trkpt><trkpt lat="37.7645483" lon="15.176555"><ele>169.4</ele><time>2026-04-18T06:53:41.127Z</time></trkpt><trkpt lat="37.764635" lon="15.176615"><ele>167.6</ele><time>2026-04-18T06:53:42.127Z</time></trkpt><trkpt lat="37.7647117" lon="15.1766533"><ele>165.79999999999998</ele><time>2026-04-18T06:53:43.127Z</time></trkpt><trkpt lat="37.7647933" lon="15.1766517"><ele>164.0</ele><time>2026-04-18T06:53:44.127Z</time></trkpt><trkpt lat="37.764885" lon="15.1766183"><ele>164.0</ele><time>2026-04-18T06:53:45.127Z</time></trkpt><trkpt lat="37.76499" lon="15.1765667"><ele>164.0</ele><time>2026-04-18T06:53:46.127Z</time></trkpt><trkpt lat="37.765115" lon="15.1764967"><ele>164.0</ele><time>2026-04-18T06:53:47.127Z</time></trkpt><trkpt lat="37.7652633" lon="15.17641"><ele>164.0</ele><time>2026-04-18T06:53:48.127Z</time></trkpt><trkpt lat="37.765425" lon="15.1763083"><ele>167.0</ele><time>2026-04-18T06:53:49.126Z</time></trkpt><trkpt lat="37.765595" lon="15.176215"><ele>170.0</ele><time>2026-04-18T06:53:50.127Z</time></trkpt><trkpt lat="37.76577" lon="15.1761083"><ele>173.0</ele><time>2026-04-18T06:53:51.127Z</time></trkpt><trkpt lat="37.76594" lon="15.1760217"><ele>171.66666666666666</ele><time>2026-04-18T06:53:52.127Z</time></trkpt><trkpt lat="37.76611" lon="15.1759567"><ele>170.33333333333334</ele><time>2026-04-18T06:53:53.127Z</time></trkpt><trkpt lat="37.766295" lon="15.1759133"><ele>169.0</ele><time>2026-04-18T06:53:54.126Z</time></trkpt><trkpt lat="37.7664683" lon="15.1758783"><ele>169.0</ele><time>2026-04-18T06:53:55.127Z</time></trkpt><trkpt lat="37.7666233" lon="15.1758433"><ele>169.0</ele><time>2026-04-18T06:53:56.127Z</time></trkpt><trkpt lat="37.766775" lon="15.175785"><ele>169.0</ele><time>2026-04-18T06:53:57.126Z</time></trkpt><trkpt lat="37.766915" lon="15.1756933"><ele>172.25</ele><time>2026-04-18T06:53:58.127Z</time></trkpt><trkpt lat="37.7670333" lon="15.1755867"><ele>175.5</ele><time>2026-04-18T06:53:59.126Z</time></trkpt><trkpt lat="37.76715" lon="15.175485"><ele>178.75</ele><time>2026-04-18T06:54:00.127Z</time></trkpt><trkpt lat="37.7672667" lon="15.175405"><ele>182.0</ele><time>2026-04-18T06:54:01.127Z</time></trkpt><trkpt lat="37.76739" lon="15.17534"><ele>182.0</ele><time>2026-04-18T06:54:02.127Z</time></trkpt><trkpt lat="37.7675367" lon="15.17531"><ele>182.0</ele><time>2026-04-18T06:54:03.127Z</time></trkpt><trkpt lat="37.7676983" lon="15.1752783"><ele>182.0</ele><time>2026-04-18T06:54:04.126Z</time></trkpt><trkpt lat="37.7678717" lon="15.175245"><ele>183.0</ele><time>2026-04-18T06:54:05.127Z</time></trkpt><trkpt lat="37.7680367" lon="15.1752067"><ele>184.0</ele><time>2026-04-18T06:54:06.127Z</time></trkpt><trkpt lat="37.7682017" lon="15.1751683"><ele>185.0</ele><time>2026-04-18T06:54:07.126Z</time></trkpt><trkpt lat="37.768365" lon="15.17514"><ele>187.0</ele><time>2026-04-18T06:54:08.127Z</time></trkpt><trkpt lat="37.7685283" lon="15.1751333"><ele>189.0</ele><time>2026-04-18T06:54:09.127Z</time></trkpt><trkpt lat="37.768705" lon="15.1751267"><ele>191.0</ele><time>2026-04-18T06:54:10.126Z</time></trkpt><trkpt lat="37.7689" lon="15.1751083"><ele>191.0</ele><time>2026-04-18T06:54:11.127Z</time></trkpt><trkpt lat="37.7691233" lon="15.1751033"><ele>191.0</ele><time>2026-04-18T06:54:12.126Z</time></trkpt><trkpt lat="37.7693333" lon="15.1750883"><ele>191.0</ele><time>2026-04-18T06:54:13.127Z</time></trkpt><trkpt lat="37.7695283" lon="15.17508"><ele>190.66666666666666</ele><time>2026-04-18T06:54:14.127Z</time></trkpt><trkpt lat="37.76972" lon="15.1750783"><ele>190.33333333333334</ele><time>2026-04-18T06:54:15.127Z</time></trkpt><trkpt lat="37.76991" lon="15.1750767"><ele>190.0</ele><time>2026-04-18T06:54:16.127Z</time></trkpt><trkpt lat="37.770085" lon="15.1750617"><ele>190.0</ele><time>2026-04-18T06:54:17.127Z</time></trkpt><trkpt lat="37.7702517" lon="15.17507"><ele>190.0</ele><time>2026-04-18T06:54:18.127Z</time></trkpt><trkpt lat="37.7704083" lon="15.1750833"><ele>190.0</ele><time>2026-04-18T06:54:19.126Z</time></trkpt><trkpt lat="37.7705433" lon="15.1750833"><ele>190.0</ele><time>2026-04-18T06:54:20.127Z</time></trkpt><trkpt lat="37.770665" lon="15.1750617"><ele>190.0</ele><time>2026-04-18T06:54:21.127Z</time></trkpt><trkpt lat="37.7707683" lon="15.1750067"><ele>190.0</ele><time>2026-04-18T06:54:22.127Z</time></trkpt><trkpt lat="37.770845" lon="15.1749217"><ele>190.0</ele><time>2026-04-18T06:54:23.127Z</time></trkpt><trkpt lat="37.7709033" lon="15.1747933"><ele>191.0</ele><time>2026-04-18T06:54:24.127Z</time></trkpt><trkpt lat="37.7709617" lon="15.1746417"><ele>192.0</ele><time>2026-04-18T06:54:25.127Z</time></trkpt><trkpt lat="37.7710217" lon="15.1744967"><ele>193.0</ele><time>2026-04-18T06:54:26.127Z</time></trkpt><trkpt lat="37.7711" lon="15.1743767"><ele>194.0</ele><time>2026-04-18T06:54:27.127Z</time></trkpt><trkpt lat="37.7711933" lon="15.1742867"><ele>194.0</ele><time>2026-04-18T06:54:28.127Z</time></trkpt><trkpt lat="37.7713067" lon="15.1742417"><ele>194.0</ele><time>2026-04-18T06:54:29.126Z</time></trkpt><trkpt lat="37.77143" lon="15.1742183"><ele>194.0</ele><time>2026-04-18T06:54:30.127Z</time></trkpt><trkpt lat="37.771565" lon="15.1742067"><ele>194.0</ele><time>2026-04-18T06:54:31.127Z</time></trkpt><trkpt lat="37.7717133" lon="15.1741867"><ele>195.0</ele><time>2026-04-18T06:54:32.127Z</time></trkpt><trkpt lat="37.7718717" lon="15.1741683"><ele>196.0</ele><time>2026-04-18T06:54:33.127Z</time></trkpt><trkpt lat="37.7720317" lon="15.174155"><ele>197.0</ele><time>2026-04-18T06:54:34.127Z</time></trkpt><trkpt lat="37.7721933" lon="15.1741633"><ele>197.0</ele><time>2026-04-18T06:54:35.127Z</time></trkpt><trkpt lat="37.7723417" lon="15.1741983"><ele>197.0</ele><time>2026-04-18T06:54:36.127Z</time></trkpt><trkpt lat="37.7724733" lon="15.1742533"><ele>197.0</ele><time>2026-04-18T06:54:37.126Z</time></trkpt><trkpt lat="37.77259" lon="15.1743067"><ele>197.0</ele><time>2026-04-18T06:54:38.127Z</time></trkpt><trkpt lat="37.7726933" lon="15.1743667"><ele>197.5</ele><time>2026-04-18T06:54:39.126Z</time></trkpt><trkpt lat="37.772805" lon="15.174385"><ele>198.0</ele><time>2026-04-18T06:54:40.127Z</time></trkpt><trkpt lat="37.7729183" lon="15.174355"><ele>198.5</ele><time>2026-04-18T06:54:41.127Z</time></trkpt><trkpt lat="37.7730283" lon="15.1742833"><ele>199.0</ele><time>2026-04-18T06:54:42.127Z</time></trkpt><trkpt lat="37.7731317" lon="15.1742017"><ele>199.0</ele><time>2026-04-18T06:54:43.127Z</time></trkpt><trkpt lat="37.7732383" lon="15.1741117"><ele>199.0</ele><time>2026-04-18T06:54:44.127Z</time></trkpt><trkpt lat="37.7733417" lon="15.174005"><ele>199.0</ele><time>2026-04-18T06:54:45.127Z</time></trkpt><trkpt lat="37.7734517" lon="15.1739117"><ele>199.0</ele><time>2026-04-18T06:54:46.127Z</time></trkpt><trkpt lat="37.7735667" lon="15.1738133"><ele>200.0</ele><time>2026-04-18T06:54:47.127Z</time></trkpt><trkpt lat="37.7736667" lon="15.173685"><ele>201.0</ele><time>2026-04-18T06:54:48.127Z</time></trkpt><trkpt lat="37.7737417" lon="15.1735367"><ele>202.0</ele><time>2026-04-18T06:54:49.127Z</time></trkpt><trkpt lat="37.77381" lon="15.1733767"><ele>203.0</ele><time>2026-04-18T06:54:50.127Z</time></trkpt><trkpt lat="37.7738567" lon="15.1732317"><ele>204.5</ele><time>2026-04-18T06:54:51.127Z</time></trkpt><trkpt lat="37.773915" lon="15.1730833"><ele>206.0</ele><time>2026-04-18T06:54:52.127Z</time></trkpt><trkpt lat="37.7739833" lon="15.1729583"><ele>207.5</ele><time>2026-04-18T06:54:53.127Z</time></trkpt><trkpt lat="37.7740717" lon="15.1728567"><ele>209.0</ele><time>2026-04-18T06:54:54.127Z</time></trkpt><trkpt lat="37.7741683" lon="15.1728033"><ele>209.0</ele><time>2026-04-18T06:54:55.127Z</time></trkpt><trkpt lat="37.7742833" lon="15.1727917"><ele>209.0</ele><time>2026-04-18T06:54:56.127Z</time></trkpt><trkpt lat="37.774415" lon="15.172825"><ele>209.0</ele><time>2026-04-18T06:54:57.126Z</time></trkpt><trkpt lat="37.77455" lon="15.1728783"><ele>209.0</ele><time>2026-04-18T06:54:58.127Z</time></trkpt><trkpt lat="37.7747017" lon="15.1729333"><ele>209.66666666666669</ele><time>2026-04-18T06:54:59.127Z</time></trkpt><trkpt lat="37.77487" lon="15.17299"><ele>210.33333333333331</ele><time>2026-04-18T06:55:00.127Z</time></trkpt><trkpt lat="37.7750517" lon="15.1730567"><ele>211.0</ele><time>2026-04-18T06:55:01.127Z</time></trkpt><trkpt lat="37.7752367" lon="15.1731117"><ele>213.0</ele><time>2026-04-18T06:55:02.127Z</time></trkpt><trkpt lat="37.7754283" lon="15.1731617"><ele>215.0</ele><time>2026-04-18T06:55:03.127Z</time></trkpt><trkpt lat="37.7756083" lon="15.1732133"><ele>217.0</ele><time>2026-04-18T06:55:04.126Z</time></trkpt><trkpt lat="37.7757767" lon="15.1732717"><ele>214.75</ele><time>2026-04-18T06:55:05.127Z</time></trkpt><trkpt lat="37.7759267" lon="15.1733267"><ele>212.5</ele><time>2026-04-18T06:55:06.127Z</time></trkpt><trkpt lat="37.776065" lon="15.1733783"><ele>210.25</ele><time>2026-04-18T06:55:07.127Z</time></trkpt><trkpt lat="37.7761917" lon="15.1734083"><ele>208.0</ele><time>2026-04-18T06:55:08.127Z</time></trkpt><trkpt lat="37.7763033" lon="15.1734217"><ele>207.99999999999997</ele><time>2026-04-18T06:55:09.127Z</time></trkpt><trkpt lat="37.7763983" lon="15.1733883"><ele>208.0</ele><time>2026-04-18T06:55:10.127Z</time></trkpt><trkpt lat="37.7764867" lon="15.1733283"><ele>208.0</ele><time>2026-04-18T06:55:11.127Z</time></trkpt><trkpt lat="37.7765633" lon="15.173265"><ele>208.0</ele><time>2026-04-18T06:55:12.127Z</time></trkpt><trkpt lat="37.7766267" lon="15.173205"><ele>207.99999999999997</ele><time>2026-04-18T06:55:13.127Z</time></trkpt><trkpt lat="37.7766833" lon="15.1731517"><ele>208.0</ele><time>2026-04-18T06:55:14.127Z</time></trkpt><trkpt lat="37.7767883" lon="15.1730533"><ele>209.49999999999997</ele><time>2026-04-18T06:55:16.127Z</time></trkpt><trkpt lat="37.7768433" lon="15.173005"><ele>211.0</ele><time>2026-04-18T06:55:17.127Z</time></trkpt><trkpt lat="37.7769017" lon="15.17296"><ele>212.5</ele><time>2026-04-18T06:55:18.126Z</time></trkpt><trkpt lat="37.7769533" lon="15.17291"><ele>214.0</ele><time>2026-04-18T06:55:19.127Z</time></trkpt><trkpt lat="37.7770533" lon="15.17282"><ele>215.49999999999997</ele><time>2026-04-18T06:55:21.126Z</time></trkpt><trkpt lat="37.7771133" lon="15.172775"><ele>217.0</ele><time>2026-04-18T06:55:22.127Z</time></trkpt><trkpt lat="37.7771717" lon="15.1727233"><ele>217.0</ele><time>2026-04-18T06:55:23.127Z</time></trkpt><trkpt lat="37.7772317" lon="15.1726733"><ele>217.0</ele><time>2026-04-18T06:55:24.127Z</time></trkpt><trkpt lat="37.7772983" lon="15.1726367"><ele>217.0</ele><time>2026-04-18T06:55:25.126Z</time></trkpt><trkpt lat="37.777365" lon="15.172605"><ele>217.0</ele><time>2026-04-18T06:55:26.127Z</time></trkpt><trkpt lat="37.7774333" lon="15.1725833"><ele>217.0</ele><time>2026-04-18T06:55:27.127Z</time></trkpt><trkpt lat="37.7775067" lon="15.172575"><ele>217.0</ele><time>2026-04-18T06:55:28.126Z</time></trkpt><trkpt lat="37.7775783" lon="15.1725667"><ele>217.0</ele><time>2026-04-18T06:55:29.127Z</time></trkpt><trkpt lat="37.7776533" lon="15.1725633"><ele>217.16666666666666</ele><time>2026-04-18T06:55:30.127Z</time></trkpt><trkpt lat="37.7777283" lon="15.1725533"><ele>217.33333333333331</ele><time>2026-04-18T06:55:31.127Z</time></trkpt><trkpt lat="37.777805" lon="15.1725483"><ele>217.5</ele><time>2026-04-18T06:55:32.127Z</time></trkpt><trkpt lat="37.777895" lon="15.1725467"><ele>217.66666666666669</ele><time>2026-04-18T06:55:33.127Z</time></trkpt><trkpt lat="37.77798" lon="15.1725283"><ele>217.83333333333334</ele><time>2026-04-18T06:55:34.127Z</time></trkpt><trkpt lat="37.7780683" lon="15.17252"><ele>218.0</ele><time>2026-04-18T06:55:35.127Z</time></trkpt><trkpt lat="37.7781583" lon="15.172505"><ele>218.0</ele><time>2026-04-18T06:55:36.127Z</time></trkpt><trkpt lat="37.7782483" lon="15.1724917"><ele>218.0</ele><time>2026-04-18T06:55:37.127Z</time></trkpt><trkpt lat="37.7783433" lon="15.1724833"><ele>218.0</ele><time>2026-04-18T06:55:38.127Z</time></trkpt><trkpt lat="37.7784417" lon="15.1724733"><ele>218.0</ele><time>2026-04-18T06:55:39.127Z</time></trkpt><trkpt lat="37.7785333" lon="15.1724567"><ele>218.0</ele><time>2026-04-18T06:55:40.127Z</time></trkpt><trkpt lat="37.7786283" lon="15.1724467"><ele>217.25</ele><time>2026-04-18T06:55:41.127Z</time></trkpt><trkpt lat="37.7787283" lon="15.172435"><ele>216.5</ele><time>2026-04-18T06:55:42.127Z</time></trkpt><trkpt lat="37.7788467" lon="15.1724117"><ele>215.75</ele><time>2026-04-18T06:55:43.127Z</time></trkpt><trkpt lat="37.7789867" lon="15.172385"><ele>215.0</ele><time>2026-04-18T06:55:44.127Z</time></trkpt><trkpt lat="37.7791617" lon="15.1723733"><ele>220.33333333333334</ele><time>2026-04-18T06:55:45.127Z</time></trkpt><trkpt lat="37.7793667" lon="15.17235"><ele>225.66666666666669</ele><time>2026-04-18T06:55:46.127Z</time></trkpt><trkpt lat="37.779585" lon="15.172335"><ele>231.0</ele><time>2026-04-18T06:55:47.127Z</time></trkpt><trkpt lat="37.7797767" lon="15.17232"><ele>231.0</ele><time>2026-04-18T06:55:48.127Z</time></trkpt><trkpt lat="37.779955" lon="15.1723033"><ele>231.0</ele><time>2026-04-18T06:55:49.126Z</time></trkpt><trkpt lat="37.780105" lon="15.1723017"><ele>231.0</ele><time>2026-04-18T06:55:50.127Z</time></trkpt><trkpt lat="37.7802333" lon="15.1722817"><ele>230.60000000000002</ele><time>2026-04-18T06:55:51.127Z</time></trkpt><trkpt lat="37.7803683" lon="15.1722517"><ele>230.20000000000002</ele><time>2026-04-18T06:55:52.127Z</time></trkpt><trkpt lat="37.780475" lon="15.17222"><ele>229.79999999999998</ele><time>2026-04-18T06:55:53.127Z</time></trkpt><trkpt lat="37.7805567" lon="15.172175"><ele>229.39999999999998</ele><time>2026-04-18T06:55:54.127Z</time></trkpt><trkpt lat="37.780615" lon="15.1721017"><ele>229.0</ele><time>2026-04-18T06:55:55.127Z</time></trkpt><trkpt lat="37.780655" lon="15.1719883"><ele>229.0</ele><time>2026-04-18T06:55:56.127Z</time></trkpt><trkpt lat="37.7807133" lon="15.1718683"><ele>229.0</ele><time>2026-04-18T06:55:57.127Z</time></trkpt><trkpt lat="37.7807917" lon="15.1717583"><ele>229.0</ele><time>2026-04-18T06:55:58.127Z</time></trkpt><trkpt lat="37.7808983" lon="15.1716583"><ele>229.0</ele><time>2026-04-18T06:55:59.127Z</time></trkpt><trkpt lat="37.7810217" lon="15.17157"><ele>233.0</ele><time>2026-04-18T06:56:00.127Z</time></trkpt><trkpt lat="37.7811517" lon="15.1715067"><ele>237.0</ele><time>2026-04-18T06:56:01.127Z</time></trkpt><trkpt lat="37.78128" lon="15.1714717"><ele>241.0</ele><time>2026-04-18T06:56:02.127Z</time></trkpt><trkpt lat="37.781405" lon="15.1714717"><ele>245.0</ele><time>2026-04-18T06:56:03.127Z</time></trkpt><trkpt lat="37.7815467" lon="15.1715083"><ele>244.25</ele><time>2026-04-18T06:56:04.127Z</time></trkpt><trkpt lat="37.7816783" lon="15.17154"><ele>243.5</ele><time>2026-04-18T06:56:05.126Z</time></trkpt><trkpt lat="37.78181" lon="15.1715367"><ele>242.75</ele><time>2026-04-18T06:56:06.127Z</time></trkpt><trkpt lat="37.78193" lon="15.1714983"><ele>242.0</ele><time>2026-04-18T06:56:07.127Z</time></trkpt><trkpt lat="37.7820583" lon="15.17143"><ele>242.0</ele><time>2026-04-18T06:56:08.126Z</time></trkpt><trkpt lat="37.7821683" lon="15.1713533"><ele>242.0</ele><time>2026-04-18T06:56:09.127Z</time></trkpt><trkpt lat="37.7822817" lon="15.1713117"><ele>242.0</ele><time>2026-04-18T06:56:10.127Z</time></trkpt><trkpt lat="37.7824017" lon="15.1713133"><ele>242.0</ele><time>2026-04-18T06:56:11.127Z</time></trkpt><trkpt lat="37.7825167" lon="15.1713533"><ele>242.0</ele><time>2026-04-18T06:56:12.127Z</time></trkpt><trkpt lat="37.7826433" lon="15.1714317"><ele>242.0</ele><time>2026-04-18T06:56:13.127Z</time></trkpt><trkpt lat="37.7827867" lon="15.1715267"><ele>242.0</ele><time>2026-04-18T06:56:14.127Z</time></trkpt><trkpt lat="37.7829417" lon="15.1716217"><ele>238.66666666666669</ele><time>2026-04-18T06:56:15.127Z</time></trkpt><trkpt lat="37.783095" lon="15.1717233"><ele>235.33333333333331</ele><time>2026-04-18T06:56:16.127Z</time></trkpt><trkpt lat="37.7832417" lon="15.17184"><ele>232.0</ele><time>2026-04-18T06:56:17.127Z</time></trkpt><trkpt lat="37.7833733" lon="15.1719733"><ele>232.0</ele><time>2026-04-18T06:56:18.126Z</time></trkpt><trkpt lat="37.7835033" lon="15.1721267"><ele>232.0</ele><time>2026-04-18T06:56:19.127Z</time></trkpt><trkpt lat="37.7836317" lon="15.172295"><ele>232.0</ele><time>2026-04-18T06:56:20.127Z</time></trkpt><trkpt lat="37.7837533" lon="15.172445"><ele>232.25</ele><time>2026-04-18T06:56:21.127Z</time></trkpt><trkpt lat="37.7838717" lon="15.1725833"><ele>232.5</ele><time>2026-04-18T06:56:22.127Z</time></trkpt><trkpt lat="37.78397" lon="15.172705"><ele>232.75</ele><time>2026-04-18T06:56:23.127Z</time></trkpt><trkpt lat="37.7840617" lon="15.1728183"><ele>233.0</ele><time>2026-04-18T06:56:24.127Z</time></trkpt><trkpt lat="37.7841383" lon="15.1729083"><ele>233.0</ele><time>2026-04-18T06:56:25.127Z</time></trkpt><trkpt lat="37.784215" lon="15.172965"><ele>233.0</ele><time>2026-04-18T06:56:26.127Z</time></trkpt><trkpt lat="37.7843083" lon="15.17298"><ele>233.0</ele><time>2026-04-18T06:56:27.127Z</time></trkpt><trkpt lat="37.7844117" lon="15.1729717"><ele>233.0</ele><time>2026-04-18T06:56:28.127Z</time></trkpt><trkpt lat="37.78452" lon="15.17298"><ele>233.0</ele><time>2026-04-18T06:56:29.127Z</time></trkpt><trkpt lat="37.784625" lon="15.1730267"><ele>235.2</ele><time>2026-04-18T06:56:30.127Z</time></trkpt><trkpt lat="37.78472" lon="15.173085"><ele>237.4</ele><time>2026-04-18T06:56:31.127Z</time></trkpt><trkpt lat="37.7848117" lon="15.1731333"><ele>239.59999999999997</ele><time>2026-04-18T06:56:32.127Z</time></trkpt><trkpt lat="37.7849183" lon="15.173125"><ele>241.79999999999998</ele><time>2026-04-18T06:56:33.127Z</time></trkpt><trkpt lat="37.7850317" lon="15.173075"><ele>244.0</ele><time>2026-04-18T06:56:34.126Z</time></trkpt><trkpt lat="37.785145" lon="15.173005"><ele>245.5</ele><time>2026-04-18T06:56:35.127Z</time></trkpt><trkpt lat="37.785245" lon="15.1729367"><ele>247.0</ele><time>2026-04-18T06:56:36.127Z</time></trkpt><trkpt lat="37.7853567" lon="15.1729017"><ele>248.5</ele><time>2026-04-18T06:56:37.127Z</time></trkpt><trkpt lat="37.7854733" lon="15.1729017"><ele>250.0</ele><time>2026-04-18T06:56:38.127Z</time></trkpt><trkpt lat="37.785595" lon="15.17293"><ele>250.0</ele><time>2026-04-18T06:56:39.127Z</time></trkpt><trkpt lat="37.78573" lon="15.1729883"><ele>250.0</ele><time>2026-04-18T06:56:40.127Z</time></trkpt><trkpt lat="37.7858633" lon="15.1730567"><ele>250.0</ele><time>2026-04-18T06:56:41.127Z</time></trkpt><trkpt lat="37.7860267" lon="15.1731033"><ele>249.66666666666666</ele><time>2026-04-18T06:56:42.127Z</time></trkpt><trkpt lat="37.7862017" lon="15.1731367"><ele>249.33333333333331</ele><time>2026-04-18T06:56:43.127Z</time></trkpt><trkpt lat="37.78639" lon="15.1731633"><ele>249.0</ele><time>2026-04-18T06:56:44.127Z</time></trkpt><trkpt lat="37.78659" lon="15.1731917"><ele>245.0</ele><time>2026-04-18T06:56:45.127Z</time></trkpt><trkpt lat="37.7867767" lon="15.1732217"><ele>241.0</ele><time>2026-04-18T06:56:46.127Z</time></trkpt><trkpt lat="37.78695" lon="15.1732617"><ele>237.0</ele><time>2026-04-18T06:56:47.127Z</time></trkpt><trkpt lat="37.78711" lon="15.1733017"><ele>237.0</ele><time>2026-04-18T06:56:48.127Z</time></trkpt><trkpt lat="37.7872633" lon="15.1733417"><ele>237.0</ele><time>2026-04-18T06:56:49.127Z</time></trkpt><trkpt lat="37.7874117" lon="15.1733817"><ele>237.0</ele><time>2026-04-18T06:56:50.126Z</time></trkpt><trkpt lat="37.7875633" lon="15.17343"><ele>238.5</ele><time>2026-04-18T06:56:51.127Z</time></trkpt><trkpt lat="37.78771" lon="15.1734817"><ele>240.0</ele><time>2026-04-18T06:56:52.127Z</time></trkpt><trkpt lat="37.78785" lon="15.1735417"><ele>241.5</ele><time>2026-04-18T06:56:53.126Z</time></trkpt><trkpt lat="37.7879867" lon="15.1735817"><ele>243.0</ele><time>2026-04-18T06:56:54.127Z</time></trkpt><trkpt lat="37.7881217" lon="15.1736383"><ele>243.0</ele><time>2026-04-18T06:56:55.126Z</time></trkpt><trkpt lat="37.78825" lon="15.1736983"><ele>243.0</ele><time>2026-04-18T06:56:56.127Z</time></trkpt><trkpt lat="37.7883833" lon="15.173785"><ele>243.0</ele><time>2026-04-18T06:56:57.127Z</time></trkpt><trkpt lat="37.78851" lon="15.1738883"><ele>243.0</ele><time>2026-04-18T06:56:58.126Z</time></trkpt><trkpt lat="37.7886133" lon="15.1739983"><ele>242.75</ele><time>2026-04-18T06:56:59.127Z</time></trkpt><trkpt lat="37.7887017" lon="15.1741333"><ele>242.5</ele><time>2026-04-18T06:57:00.127Z</time></trkpt><trkpt lat="37.7887783" lon="15.1742767"><ele>242.25</ele><time>2026-04-18T06:57:01.127Z</time></trkpt><trkpt lat="37.7888483" lon="15.1744383"><ele>242.0</ele><time>2026-04-18T06:57:02.127Z</time></trkpt><trkpt lat="37.7889183" lon="15.1746033"><ele>242.0</ele><time>2026-04-18T06:57:03.127Z</time></trkpt><trkpt lat="37.789" lon="15.1747483"><ele>242.0</ele><time>2026-04-18T06:57:04.127Z</time></trkpt><trkpt lat="37.7891017" lon="15.174855"><ele>242.0</ele><time>2026-04-18T06:57:05.126Z</time></trkpt><trkpt lat="37.7892167" lon="15.1749367"><ele>242.0</ele><time>2026-04-18T06:57:06.127Z</time></trkpt><trkpt lat="37.789345" lon="15.1749917"><ele>241.5</ele><time>2026-04-18T06:57:07.126Z</time></trkpt><trkpt lat="37.78948" lon="15.175025"><ele>241.0</ele><time>2026-04-18T06:57:08.127Z</time></trkpt><trkpt lat="37.7896117" lon="15.1750717"><ele>240.5</ele><time>2026-04-18T06:57:09.127Z</time></trkpt><trkpt lat="37.7897417" lon="15.1751283"><ele>240.0</ele><time>2026-04-18T06:57:10.126Z</time></trkpt><trkpt lat="37.7898767" lon="15.17519"><ele>240.0</ele><time>2026-04-18T06:57:11.127Z</time></trkpt><trkpt lat="37.7900033" lon="15.1752567"><ele>240.0</ele><time>2026-04-18T06:57:12.127Z</time></trkpt><trkpt lat="37.790125" lon="15.1753233"><ele>240.0</ele><time>2026-04-18T06:57:13.127Z</time></trkpt><trkpt lat="37.7902433" lon="15.1754133"><ele>240.0</ele><time>2026-04-18T06:57:14.127Z</time></trkpt><trkpt lat="37.79035" lon="15.175525"><ele>239.5</ele><time>2026-04-18T06:57:15.127Z</time></trkpt><trkpt lat="37.7904267" lon="15.1756617"><ele>239.0</ele><time>2026-04-18T06:57:16.127Z</time></trkpt><trkpt lat="37.7905" lon="15.17579"><ele>238.5</ele><time>2026-04-18T06:57:17.126Z</time></trkpt><trkpt lat="37.79057" lon="15.175925"><ele>238.0</ele><time>2026-04-18T06:57:18.127Z</time></trkpt><trkpt lat="37.7906417" lon="15.1760433"><ele>238.0</ele><time>2026-04-18T06:57:19.126Z</time></trkpt><trkpt lat="37.790695" lon="15.176165"><ele>238.0</ele><time>2026-04-18T06:57:20.127Z</time></trkpt><trkpt lat="37.7907267" lon="15.1763017"><ele>238.0</ele><time>2026-04-18T06:57:21.127Z</time></trkpt><trkpt lat="37.7907517" lon="15.1764133"><ele>238.0</ele><time>2026-04-18T06:57:22.127Z</time></trkpt><trkpt lat="37.7907517" lon="15.1765167"><ele>238.0</ele><time>2026-04-18T06:57:23.127Z</time></trkpt><trkpt lat="37.7907283" lon="15.1766067"><ele>236.16666666666666</ele><time>2026-04-18T06:57:24.127Z</time></trkpt><trkpt lat="37.7906683" lon="15.176675"><ele>234.33333333333331</ele><time>2026-04-18T06:57:25.127Z</time></trkpt><trkpt lat="37.7906017" lon="15.1767367"><ele>232.5</ele><time>2026-04-18T06:57:26.127Z</time></trkpt><trkpt lat="37.7905517" lon="15.1768167"><ele>230.66666666666669</ele><time>2026-04-18T06:57:27.127Z</time></trkpt><trkpt lat="37.79053" lon="15.1769117"><ele>228.83333333333334</ele><time>2026-04-18T06:57:28.126Z</time></trkpt><trkpt lat="37.790535" lon="15.1770217"><ele>227.0</ele><time>2026-04-18T06:57:29.127Z</time></trkpt><trkpt lat="37.7905733" lon="15.17715"><ele>227.0</ele><time>2026-04-18T06:57:30.127Z</time></trkpt><trkpt lat="37.79062" lon="15.1772817"><ele>227.0</ele><time>2026-04-18T06:57:31.127Z</time></trkpt><trkpt lat="37.79068" lon="15.1774"><ele>227.0</ele><time>2026-04-18T06:57:32.127Z</time></trkpt><trkpt lat="37.7907617" lon="15.1775017"><ele>227.0</ele><time>2026-04-18T06:57:33.127Z</time></trkpt><trkpt lat="37.790845" lon="15.1775917"><ele>227.0</ele><time>2026-04-18T06:57:34.127Z</time></trkpt><trkpt lat="37.7909317" lon="15.17767"><ele>227.83333333333334</ele><time>2026-04-18T06:57:35.127Z</time></trkpt><trkpt lat="37.7910067" lon="15.1777417"><ele>228.66666666666669</ele><time>2026-04-18T06:57:36.126Z</time></trkpt><trkpt lat="37.7910767" lon="15.1777917"><ele>229.5</ele><time>2026-04-18T06:57:37.127Z</time></trkpt><trkpt lat="37.7911567" lon="15.1778267"><ele>230.33333333333331</ele><time>2026-04-18T06:57:38.127Z</time></trkpt><trkpt lat="37.7912417" lon="15.1778167"><ele>231.16666666666666</ele><time>2026-04-18T06:57:39.127Z</time></trkpt><trkpt lat="37.7913233" lon="15.177765"><ele>232.0</ele><time>2026-04-18T06:57:40.127Z</time></trkpt><trkpt lat="37.791405" lon="15.1777"><ele>234.2</ele><time>2026-04-18T06:57:41.126Z</time></trkpt><trkpt lat="37.7914867" lon="15.1776333"><ele>236.39999999999998</ele><time>2026-04-18T06:57:42.127Z</time></trkpt><trkpt lat="37.7915683" lon="15.1775783"><ele>238.60000000000002</ele><time>2026-04-18T06:57:43.127Z</time></trkpt><trkpt lat="37.7916567" lon="15.1775233"><ele>240.8</ele><time>2026-04-18T06:57:44.127Z</time></trkpt><trkpt lat="37.79175" lon="15.1774733"><ele>243.0</ele><time>2026-04-18T06:57:45.127Z</time></trkpt><trkpt lat="37.7918483" lon="15.1774333"><ele>244.25</ele><time>2026-04-18T06:57:46.127Z</time></trkpt><trkpt lat="37.7919533" lon="15.177405"><ele>245.5</ele><time>2026-04-18T06:57:47.127Z</time></trkpt><trkpt lat="37.7920683" lon="15.17737"><ele>246.75</ele><time>2026-04-18T06:57:48.127Z</time></trkpt><trkpt lat="37.7921867" lon="15.1773317"><ele>248.0</ele><time>2026-04-18T06:57:49.127Z</time></trkpt><trkpt lat="37.79231" lon="15.1772933"><ele>248.75</ele><time>2026-04-18T06:57:50.127Z</time></trkpt><trkpt lat="37.7924283" lon="15.1772567"><ele>249.5</ele><time>2026-04-18T06:57:51.127Z</time></trkpt><trkpt lat="37.792545" lon="15.1772217"><ele>250.25</ele><time>2026-04-18T06:57:52.127Z</time></trkpt><trkpt lat="37.7926617" lon="15.1771833"><ele>251.0</ele><time>2026-04-18T06:57:53.127Z</time></trkpt><trkpt lat="37.79278" lon="15.1771433"><ele>251.5</ele><time>2026-04-18T06:57:54.127Z</time></trkpt><trkpt lat="37.7929" lon="15.1770983"><ele>252.0</ele><time>2026-04-18T06:57:55.127Z</time></trkpt><trkpt lat="37.7930233" lon="15.177035"><ele>252.5</ele><time>2026-04-18T06:57:56.127Z</time></trkpt><trkpt lat="37.7931417" lon="15.1769567"><ele>253.0</ele><time>2026-04-18T06:57:57.127Z</time></trkpt><trkpt lat="37.7932567" lon="15.1768983"><ele>253.0</ele><time>2026-04-18T06:57:58.127Z</time></trkpt><trkpt lat="37.7933817" lon="15.1768633"><ele>253.0</ele><time>2026-04-18T06:57:59.126Z</time></trkpt><trkpt lat="37.7935083" lon="15.176855"><ele>253.0</ele><time>2026-04-18T06:58:00.127Z</time></trkpt><trkpt lat="37.79364" lon="15.176865"><ele>253.0</ele><time>2026-04-18T06:58:01.127Z</time></trkpt><trkpt lat="37.7937683" lon="15.176895"><ele>254.75</ele><time>2026-04-18T06:58:02.127Z</time></trkpt><trkpt lat="37.7938967" lon="15.176945"><ele>256.5</ele><time>2026-04-18T06:58:03.127Z</time></trkpt><trkpt lat="37.794025" lon="15.17701"><ele>258.25</ele><time>2026-04-18T06:58:04.127Z</time></trkpt><trkpt lat="37.794155" lon="15.1770817"><ele>260.0</ele><time>2026-04-18T06:58:05.127Z</time></trkpt><trkpt lat="37.794295" lon="15.17716"><ele>261.25</ele><time>2026-04-18T06:58:06.127Z</time></trkpt><trkpt lat="37.79442" lon="15.1772317"><ele>262.5</ele><time>2026-04-18T06:58:07.127Z</time></trkpt><trkpt lat="37.7945467" lon="15.1773033"><ele>263.75</ele><time>2026-04-18T06:58:08.127Z</time></trkpt><trkpt lat="37.7946667" lon="15.1773783"><ele>265.0</ele><time>2026-04-18T06:58:09.127Z</time></trkpt><trkpt lat="37.79478" lon="15.1774533"><ele>265.0</ele><time>2026-04-18T06:58:10.127Z</time></trkpt><trkpt lat="37.7948867" lon="15.1775167"><ele>265.0</ele><time>2026-04-18T06:58:11.127Z</time></trkpt><trkpt lat="37.7949917" lon="15.1775567"><ele>265.0</ele><time>2026-04-18T06:58:12.127Z</time></trkpt><trkpt lat="37.7951083" lon="15.1775733"><ele>265.0</ele><time>2026-04-18T06:58:13.127Z</time></trkpt><trkpt lat="37.7952217" lon="15.1775683"><ele>267.2</ele><time>2026-04-18T06:58:14.126Z</time></trkpt><trkpt lat="37.7953283" lon="15.17756"><ele>269.4</ele><time>2026-04-18T06:58:15.127Z</time></trkpt><trkpt lat="37.79542" lon="15.17756"><ele>271.6</ele><time>2026-04-18T06:58:16.127Z</time></trkpt><trkpt lat="37.79552" lon="15.1775433"><ele>273.8</ele><time>2026-04-18T06:58:17.127Z</time></trkpt><trkpt lat="37.7956183" lon="15.1775333"><ele>276.0</ele><time>2026-04-18T06:58:18.127Z</time></trkpt><trkpt lat="37.7957183" lon="15.177515"><ele>276.0</ele><time>2026-04-18T06:58:19.127Z</time></trkpt><trkpt lat="37.7958183" lon="15.17747"><ele>276.0</ele><time>2026-04-18T06:58:20.127Z</time></trkpt><trkpt lat="37.7959017" lon="15.1773883"><ele>276.0</ele><time>2026-04-18T06:58:21.126Z</time></trkpt><trkpt lat="37.795985" lon="15.1772633"><ele>276.0</ele><time>2026-04-18T06:58:22.127Z</time></trkpt><trkpt lat="37.7960567" lon="15.1771133"><ele>280.0</ele><time>2026-04-18T06:58:23.127Z</time></trkpt><trkpt lat="37.7961367" lon="15.176925"><ele>284.0</ele><time>2026-04-18T06:58:24.127Z</time></trkpt><trkpt lat="37.7962417" lon="15.17671"><ele>288.0</ele><time>2026-04-18T06:58:25.127Z</time></trkpt><trkpt lat="37.796345" lon="15.17651"><ele>288.25</ele><time>2026-04-18T06:58:26.127Z</time></trkpt><trkpt lat="37.7964417" lon="15.1763417"><ele>288.5</ele><time>2026-04-18T06:58:27.127Z</time></trkpt><trkpt lat="37.7965183" lon="15.176195"><ele>288.75</ele><time>2026-04-18T06:58:28.127Z</time></trkpt><trkpt lat="37.7965833" lon="15.1760767"><ele>289.0</ele><time>2026-04-18T06:58:29.127Z</time></trkpt><trkpt lat="37.7966417" lon="15.1759933"><ele>289.0</ele><time>2026-04-18T06:58:30.127Z</time></trkpt><trkpt lat="37.7967083" lon="15.175945"><ele>289.0</ele><time>2026-04-18T06:58:31.127Z</time></trkpt><trkpt lat="37.7967783" lon="15.1759333"><ele>289.0</ele><time>2026-04-18T06:58:32.126Z</time></trkpt><trkpt lat="37.79684" lon="15.1759533"><ele>289.0</ele><time>2026-04-18T06:58:33.127Z</time></trkpt><trkpt lat="37.7969" lon="15.1760283"><ele>289.0</ele><time>2026-04-18T06:58:34.127Z</time></trkpt><trkpt lat="37.796965" lon="15.1761583"><ele>289.0</ele><time>2026-04-18T06:58:35.127Z</time></trkpt><trkpt lat="37.7970333" lon="15.1763367"><ele>292.66666666666663</ele><time>2026-04-18T06:58:36.127Z</time></trkpt><trkpt lat="37.79712" lon="15.1765683"><ele>296.3333333333333</ele><time>2026-04-18T06:58:37.127Z</time></trkpt><trkpt lat="37.7972067" lon="15.176785"><ele>300.0</ele><time>2026-04-18T06:58:38.127Z</time></trkpt><trkpt lat="37.7972833" lon="15.1769533"><ele>300.0</ele><time>2026-04-18T06:58:39.127Z</time></trkpt><trkpt lat="37.79735" lon="15.1770917"><ele>300.0</ele><time>2026-04-18T06:58:40.127Z</time></trkpt><trkpt lat="37.7974233" lon="15.17718"><ele>300.0</ele><time>2026-04-18T06:58:41.126Z</time></trkpt><trkpt lat="37.7975133" lon="15.17721"><ele>300.0</ele><time>2026-04-18T06:58:42.126Z</time></trkpt><trkpt lat="37.7976233" lon="15.1771833"><ele>300.0</ele><time>2026-04-18T06:58:43.127Z</time></trkpt><trkpt lat="37.7977467" lon="15.1771183"><ele>301.0</ele><time>2026-04-18T06:58:44.127Z</time></trkpt><trkpt lat="37.7978783" lon="15.1770167"><ele>302.0</ele><time>2026-04-18T06:58:45.127Z</time></trkpt><trkpt lat="37.7980367" lon="15.1769033"><ele>303.0</ele><time>2026-04-18T06:58:46.127Z</time></trkpt><trkpt lat="37.7982167" lon="15.1768"><ele>303.0</ele><time>2026-04-18T06:58:47.127Z</time></trkpt><trkpt lat="37.7983717" lon="15.1767067"><ele>303.0</ele><time>2026-04-18T06:58:48.127Z</time></trkpt><trkpt lat="37.7985083" lon="15.1766233"><ele>303.0</ele><time>2026-04-18T06:58:49.127Z</time></trkpt><trkpt lat="37.7986283" lon="15.1765467"><ele>307.75</ele><time>2026-04-18T06:58:50.127Z</time></trkpt><trkpt lat="37.79875" lon="15.176505"><ele>312.5</ele><time>2026-04-18T06:58:51.127Z</time></trkpt><trkpt lat="37.798865" lon="15.17648"><ele>317.25</ele><time>2026-04-18T06:58:52.127Z</time></trkpt><trkpt lat="37.7989767" lon="15.1764633"><ele>322.0</ele><time>2026-04-18T06:58:53.127Z</time></trkpt><trkpt lat="37.7990817" lon="15.1764017"><ele>322.0</ele><time>2026-04-18T06:58:54.127Z</time></trkpt><trkpt lat="37.7991783" lon="15.1762933"><ele>322.0</ele><time>2026-04-18T06:58:55.127Z</time></trkpt><trkpt lat="37.7992767" lon="15.17618"><ele>322.0</ele><time>2026-04-18T06:58:56.127Z</time></trkpt><trkpt lat="37.7993833" lon="15.1760967"><ele>322.0</ele><time>2026-04-18T06:58:57.127Z</time></trkpt><trkpt lat="37.799515" lon="15.1760483"><ele>323.66666666666663</ele><time>2026-04-18T06:58:58.127Z</time></trkpt><trkpt lat="37.7996683" lon="15.1759917"><ele>325.3333333333333</ele><time>2026-04-18T06:58:59.127Z</time></trkpt><trkpt lat="37.79984" lon="15.17593"><ele>327.0</ele><time>2026-04-18T06:59:00.127Z</time></trkpt><trkpt lat="37.8000133" lon="15.1758733"><ele>328.0</ele><time>2026-04-18T06:59:01.127Z</time></trkpt><trkpt lat="37.80017" lon="15.1758267"><ele>329.0</ele><time>2026-04-18T06:59:02.127Z</time></trkpt><trkpt lat="37.8003233" lon="15.17578"><ele>330.0</ele><time>2026-04-18T06:59:03.127Z</time></trkpt><trkpt lat="37.800465" lon="15.1757217"><ele>330.0</ele><time>2026-04-18T06:59:04.127Z</time></trkpt><trkpt lat="37.8005867" lon="15.1756833"><ele>330.0</ele><time>2026-04-18T06:59:05.127Z</time></trkpt><trkpt lat="37.8007117" lon="15.1756583"><ele>330.0</ele><time>2026-04-18T06:59:06.127Z</time></trkpt><trkpt lat="37.8008317" lon="15.1756567"><ele>330.0</ele><time>2026-04-18T06:59:07.127Z</time></trkpt><trkpt lat="37.8009517" lon="15.1756883"><ele>331.0</ele><time>2026-04-18T06:59:08.127Z</time></trkpt><trkpt lat="37.8010667" lon="15.1757333"><ele>332.0</ele><time>2026-04-18T06:59:09.127Z</time></trkpt><trkpt lat="37.8011783" lon="15.1757733"><ele>333.0</ele><time>2026-04-18T06:59:10.127Z</time></trkpt><trkpt lat="37.8012867" lon="15.1758317"><ele>334.0</ele><time>2026-04-18T06:59:11.127Z</time></trkpt><trkpt lat="37.8013883" lon="15.17591"><ele>334.0</ele><time>2026-04-18T06:59:12.127Z</time></trkpt><trkpt lat="37.80149" lon="15.1760033"><ele>334.0</ele><time>2026-04-18T06:59:13.127Z</time></trkpt><trkpt lat="37.8015833" lon="15.1760883"><ele>334.0</ele><time>2026-04-18T06:59:14.127Z</time></trkpt><trkpt lat="37.8016633" lon="15.1761617"><ele>334.0</ele><time>2026-04-18T06:59:15.127Z</time></trkpt><trkpt lat="37.80173" lon="15.1762217"><ele>334.0</ele><time>2026-04-18T06:59:16.127Z</time></trkpt><trkpt lat="37.80179" lon="15.176255"><ele>333.66666666666663</ele><time>2026-04-18T06:59:17.127Z</time></trkpt><trkpt lat="37.801855" lon="15.1762583"><ele>333.3333333333333</ele><time>2026-04-18T06:59:18.127Z</time></trkpt><trkpt lat="37.8019217" lon="15.1762433"><ele>333.0</ele><time>2026-04-18T06:59:19.127Z</time></trkpt><trkpt lat="37.801985" lon="15.1762183"><ele>332.6666666666667</ele><time>2026-04-18T06:59:20.127Z</time></trkpt><trkpt lat="37.8020483" lon="15.17621"><ele>332.33333333333337</ele><time>2026-04-18T06:59:21.127Z</time></trkpt><trkpt lat="37.8021633" lon="15.17621"><ele>332.0</ele><time>2026-04-18T06:59:23.127Z</time></trkpt><trkpt lat="37.8022467" lon="15.1761933"><ele>332.0</ele><time>2026-04-18T06:59:24.127Z</time></trkpt><trkpt lat="37.802345" lon="15.176175"><ele>332.0</ele><time>2026-04-18T06:59:25.127Z</time></trkpt><trkpt lat="37.80245" lon="15.176155"><ele>332.0</ele><time>2026-04-18T06:59:26.127Z</time></trkpt><trkpt lat="37.8025617" lon="15.17613"><ele>332.0</ele><time>2026-04-18T06:59:27.127Z</time></trkpt><trkpt lat="37.80268" lon="15.176105"><ele>332.0</ele><time>2026-04-18T06:59:28.127Z</time></trkpt><trkpt lat="37.8028017" lon="15.1760783"><ele>332.25</ele><time>2026-04-18T06:59:29.127Z</time></trkpt><trkpt lat="37.8029267" lon="15.17605"><ele>332.5</ele><time>2026-04-18T06:59:30.127Z</time></trkpt><trkpt lat="37.8030533" lon="15.1760217"><ele>332.75</ele><time>2026-04-18T06:59:31.127Z</time></trkpt><trkpt lat="37.80319" lon="15.1760017"><ele>333.0</ele><time>2026-04-18T06:59:32.127Z</time></trkpt><trkpt lat="37.80333" lon="15.1759833"><ele>333.0</ele><time>2026-04-18T06:59:33.127Z</time></trkpt><trkpt lat="37.8034667" lon="15.175965"><ele>333.0</ele><time>2026-04-18T06:59:34.127Z</time></trkpt><trkpt lat="37.803595" lon="15.1759433"><ele>333.0</ele><time>2026-04-18T06:59:35.127Z</time></trkpt><trkpt lat="37.8037267" lon="15.1759133"><ele>333.0</ele><time>2026-04-18T06:59:36.127Z</time></trkpt><trkpt lat="37.80386" lon="15.1758817"><ele>333.75</ele><time>2026-04-18T06:59:37.127Z</time></trkpt><trkpt lat="37.8039917" lon="15.1758483"><ele>334.5</ele><time>2026-04-18T06:59:38.127Z</time></trkpt><trkpt lat="37.804125" lon="15.1758133"><ele>335.25</ele><time>2026-04-18T06:59:39.127Z</time></trkpt><trkpt lat="37.8042567" lon="15.17578"><ele>336.0</ele><time>2026-04-18T06:59:40.127Z</time></trkpt><trkpt lat="37.80438" lon="15.175745"><ele>337.5</ele><time>2026-04-18T06:59:41.127Z</time></trkpt><trkpt lat="37.8045183" lon="15.1757167"><ele>339.0</ele><time>2026-04-18T06:59:42.127Z</time></trkpt><trkpt lat="37.804655" lon="15.1756867"><ele>340.5</ele><time>2026-04-18T06:59:43.127Z</time></trkpt><trkpt lat="37.8047983" lon="15.17565"><ele>342.0</ele><time>2026-04-18T06:59:44.127Z</time></trkpt><trkpt lat="37.8049317" lon="15.1756317"><ele>342.0</ele><time>2026-04-18T06:59:45.127Z</time></trkpt><trkpt lat="37.805065" lon="15.1756117"><ele>342.0</ele><time>2026-04-18T06:59:46.127Z</time></trkpt><trkpt lat="37.8051917" lon="15.175585"><ele>342.0</ele><time>2026-04-18T06:59:47.127Z</time></trkpt><trkpt lat="37.805315" lon="15.1755583"><ele>342.0</ele><time>2026-04-18T06:59:48.127Z</time></trkpt><trkpt lat="37.8054333" lon="15.1755317"><ele>342.75</ele><time>2026-04-18T06:59:49.127Z</time></trkpt><trkpt lat="37.805555" lon="15.175505"><ele>343.5</ele><time>2026-04-18T06:59:50.127Z</time></trkpt><trkpt lat="37.80567" lon="15.175485"><ele>344.25</ele><time>2026-04-18T06:59:51.127Z</time></trkpt><trkpt lat="37.8057867" lon="15.1754617"><ele>345.0</ele><time>2026-04-18T06:59:52.127Z</time></trkpt><trkpt lat="37.8058883" lon="15.1754433"><ele>345.0</ele><time>2026-04-18T06:59:53.127Z</time></trkpt><trkpt lat="37.805995" lon="15.17542"><ele>345.0</ele><time>2026-04-18T06:59:54.126Z</time></trkpt><trkpt lat="37.8060983" lon="15.1753917"><ele>345.0</ele><time>2026-04-18T06:59:55.127Z</time></trkpt><trkpt lat="37.8062067" lon="15.1753817"><ele>345.0</ele><time>2026-04-18T06:59:56.127Z</time></trkpt><trkpt lat="37.8063117" lon="15.1753617"><ele>345.0</ele><time>2026-04-18T06:59:57.127Z</time></trkpt><trkpt lat="37.8064117" lon="15.1753333"><ele>346.3333333333333</ele><time>2026-04-18T06:59:58.127Z</time></trkpt><trkpt lat="37.80651" lon="15.1753083"><ele>347.6666666666667</ele><time>2026-04-18T06:59:59.127Z</time></trkpt><trkpt lat="37.8066133" lon="15.1752933"><ele>349.0</ele><time>2026-04-18T07:00:00.127Z</time></trkpt><trkpt lat="37.8066983" lon="15.1752767"><ele>350.33333333333337</ele><time>2026-04-18T07:00:01.126Z</time></trkpt><trkpt lat="37.8067717" lon="15.175265"><ele>351.6666666666667</ele><time>2026-04-18T07:00:02.127Z</time></trkpt><trkpt lat="37.8068483" lon="15.1752483"><ele>353.0</ele><time>2026-04-18T07:00:03.127Z</time></trkpt><trkpt lat="37.8069217" lon="15.17524"><ele>354.0</ele><time>2026-04-18T07:00:04.126Z</time></trkpt><trkpt lat="37.8070083" lon="15.1752367"><ele>355.0</ele><time>2026-04-18T07:00:05.126Z</time></trkpt><trkpt lat="37.8071083" lon="15.17521"><ele>356.0</ele><time>2026-04-18T07:00:06.127Z</time></trkpt><trkpt lat="37.8072083" lon="15.1751867"><ele>357.0</ele><time>2026-04-18T07:00:07.127Z</time></trkpt><trkpt lat="37.8072817" lon="15.1751617"><ele>358.0</ele><time>2026-04-18T07:00:08.127Z</time></trkpt><trkpt lat="37.807395" lon="15.1751783"><ele>358.0</ele><time>2026-04-18T07:00:10.127Z</time></trkpt><trkpt lat="37.8074483" lon="15.1752783"><ele>358.0</ele><time>2026-04-18T07:00:12.126Z</time></trkpt><trkpt lat="37.80745" lon="15.1753767"><ele>358.0</ele><time>2026-04-18T07:00:13.127Z</time></trkpt><trkpt lat="37.807445" lon="15.1754767"><ele>358.0</ele><time>2026-04-18T07:00:14.127Z</time></trkpt><trkpt lat="37.807425" lon="15.17558"><ele>358.0</ele><time>2026-04-18T07:00:15.127Z</time></trkpt><trkpt lat="37.8074033" lon="15.175685"><ele>358.0</ele><time>2026-04-18T07:00:16.127Z</time></trkpt><trkpt lat="37.8074033" lon="15.1757783"><ele>357.8333333333333</ele><time>2026-04-18T07:00:17.127Z</time></trkpt><trkpt lat="37.80742" lon="15.1758583"><ele>357.66666666666663</ele><time>2026-04-18T07:00:18.127Z</time></trkpt><trkpt lat="37.80746" lon="15.1759733"><ele>357.5</ele><time>2026-04-18T07:00:20.127Z</time></trkpt><trkpt lat="37.8075033" lon="15.176035"><ele>357.3333333333333</ele><time>2026-04-18T07:00:22.127Z</time></trkpt><trkpt lat="37.8076" lon="15.17601"><ele>357.1666666666667</ele><time>2026-04-18T07:00:24.127Z</time></trkpt><trkpt lat="37.8076667" lon="15.17597"><ele>357.0</ele><time>2026-04-18T07:00:25.127Z</time></trkpt><trkpt lat="37.8077383" lon="15.175935"><ele>357.0</ele><time>2026-04-18T07:00:26.127Z</time></trkpt><trkpt lat="37.8078033" lon="15.1758983"><ele>357.0</ele><time>2026-04-18T07:00:27.126Z</time></trkpt><trkpt lat="37.8078817" lon="15.1758583"><ele>357.0</ele><time>2026-04-18T07:00:28.126Z</time></trkpt><trkpt lat="37.8079567" lon="15.1758267"><ele>357.0</ele><time>2026-04-18T07:00:29.127Z</time></trkpt><trkpt lat="37.8080267" lon="15.1758017"><ele>357.0</ele><time>2026-04-18T07:00:30.127Z</time></trkpt><trkpt lat="37.8080933" lon="15.17577"><ele>357.0</ele><time>2026-04-18T07:00:31.127Z</time></trkpt><trkpt lat="37.8082083" lon="15.175725"><ele>357.0</ele><time>2026-04-18T07:00:33.127Z</time></trkpt><trkpt lat="37.8082867" lon="15.1756983"><ele>357.0</ele><time>2026-04-18T07:00:35.126Z</time></trkpt><trkpt lat="37.8083583" lon="15.1757033"><ele>357.0</ele><time>2026-04-18T07:00:38.127Z</time></trkpt><trkpt lat="37.8084283" lon="15.1757917"><ele>357.0</ele><time>2026-04-18T07:00:41.127Z</time></trkpt><trkpt lat="37.80847" lon="15.1759083"><ele>357.0</ele><time>2026-04-18T07:00:43.127Z</time></trkpt><trkpt lat="37.8085067" lon="15.176045"><ele>357.0</ele><time>2026-04-18T07:00:45.127Z</time></trkpt><trkpt lat="37.80854" lon="15.1761917"><ele>357.0</ele><time>2026-04-18T07:00:47.126Z</time></trkpt><trkpt lat="37.8085617" lon="15.1762683"><ele>357.0</ele><time>2026-04-18T07:00:48.127Z</time></trkpt><trkpt lat="37.8086" lon="15.1764117"><ele>357.0</ele><time>2026-04-18T07:00:50.127Z</time></trkpt><trkpt lat="37.808635" lon="15.1765383"><ele>357.0</ele><time>2026-04-18T07:00:52.126Z</time></trkpt><trkpt lat="37.8086633" lon="15.17666"><ele>357.0</ele><time>2026-04-18T07:00:54.126Z</time></trkpt><trkpt lat="37.8086883" lon="15.176745"><ele>357.0</ele><time>2026-04-18T07:00:56.127Z</time></trkpt><trkpt lat="37.80872" lon="15.1768183"><ele>357.0</ele><time>2026-04-18T07:01:01.127Z</time></trkpt><trkpt lat="37.808805" lon="15.1768217"><ele>357.0</ele><time>2026-04-18T07:01:05.127Z</time></trkpt><trkpt lat="37.8089133" lon="15.176715"><ele>357.0</ele><time>2026-04-18T07:01:07.127Z</time></trkpt><trkpt lat="37.80898" lon="15.1766467"><ele>357.0</ele><time>2026-04-18T07:01:08.126Z</time></trkpt><trkpt lat="37.80905" lon="15.17657"><ele>357.6</ele><time>2026-04-18T07:01:09.127Z</time></trkpt><trkpt lat="37.8091267" lon="15.1764933"><ele>358.20000000000005</ele><time>2026-04-18T07:01:10.127Z</time></trkpt><trkpt lat="37.8092017" lon="15.1764183"><ele>358.8</ele><time>2026-04-18T07:01:11.126Z</time></trkpt><trkpt lat="37.8092833" lon="15.176345"><ele>359.4</ele><time>2026-04-18T07:01:12.127Z</time></trkpt><trkpt lat="37.8093567" lon="15.176255"><ele>360.0</ele><time>2026-04-18T07:01:13.127Z</time></trkpt><trkpt lat="37.80944" lon="15.1761733"><ele>360.0</ele><time>2026-04-18T07:01:14.127Z</time></trkpt><trkpt lat="37.8095233" lon="15.1760867"><ele>360.0</ele><time>2026-04-18T07:01:15.127Z</time></trkpt><trkpt lat="37.80961" lon="15.1759983"><ele>360.0</ele><time>2026-04-18T07:01:16.127Z</time></trkpt><trkpt lat="37.809695" lon="15.17591"><ele>360.0</ele><time>2026-04-18T07:01:17.127Z</time></trkpt><trkpt lat="37.8097767" lon="15.1758133"><ele>360.0</ele><time>2026-04-18T07:01:18.127Z</time></trkpt><trkpt lat="37.8098617" lon="15.17573"><ele>360.4</ele><time>2026-04-18T07:01:19.127Z</time></trkpt><trkpt lat="37.8099417" lon="15.175645"><ele>360.8</ele><time>2026-04-18T07:01:20.127Z</time></trkpt><trkpt lat="37.810025" lon="15.1755567"><ele>361.20000000000005</ele><time>2026-04-18T07:01:21.126Z</time></trkpt><trkpt lat="37.810105" lon="15.175455"><ele>361.6</ele><time>2026-04-18T07:01:22.126Z</time></trkpt><trkpt lat="37.8101783" lon="15.1753333"><ele>362.0</ele><time>2026-04-18T07:01:23.127Z</time></trkpt><trkpt lat="37.81025" lon="15.1752033"><ele>362.0</ele><time>2026-04-18T07:01:24.127Z</time></trkpt><trkpt lat="37.8103233" lon="15.175065"><ele>362.0</ele><time>2026-04-18T07:01:25.127Z</time></trkpt><trkpt lat="37.810405" lon="15.1749283"><ele>362.0</ele><time>2026-04-18T07:01:26.127Z</time></trkpt><trkpt lat="37.8104817" lon="15.1747983"><ele>362.0</ele><time>2026-04-18T07:01:27.127Z</time></trkpt><trkpt lat="37.8105517" lon="15.1746567"><ele>363.0</ele><time>2026-04-18T07:01:28.126Z</time></trkpt><trkpt lat="37.810625" lon="15.1745167"><ele>364.0</ele><time>2026-04-18T07:01:29.127Z</time></trkpt><trkpt lat="37.8106833" lon="15.1743533"><ele>365.0</ele><time>2026-04-18T07:01:30.127Z</time></trkpt><trkpt lat="37.810745" lon="15.1742033"><ele>366.0</ele><time>2026-04-18T07:01:31.127Z</time></trkpt><trkpt lat="37.8108167" lon="15.1740667"><ele>367.25</ele><time>2026-04-18T07:01:32.127Z</time></trkpt><trkpt lat="37.8108883" lon="15.1739283"><ele>368.5</ele><time>2026-04-18T07:01:33.127Z</time></trkpt><trkpt lat="37.810945" lon="15.1737933"><ele>369.75</ele><time>2026-04-18T07:01:34.127Z</time></trkpt><trkpt lat="37.8110133" lon="15.1736533"><ele>371.0</ele><time>2026-04-18T07:01:35.126Z</time></trkpt><trkpt lat="37.81108" lon="15.1734817"><ele>371.0</ele><time>2026-04-18T07:01:36.127Z</time></trkpt><trkpt lat="37.8111817" lon="15.1733267"><ele>371.0</ele><time>2026-04-18T07:01:37.127Z</time></trkpt><trkpt lat="37.8112883" lon="15.173175"><ele>371.0</ele><time>2026-04-18T07:01:38.126Z</time></trkpt><trkpt lat="37.8113783" lon="15.17302"><ele>372.6666666666667</ele><time>2026-04-18T07:01:39.127Z</time></trkpt><trkpt lat="37.8114667" lon="15.172855"><ele>374.3333333333333</ele><time>2026-04-18T07:01:40.127Z</time></trkpt><trkpt lat="37.8115533" lon="15.1726883"><ele>376.0</ele><time>2026-04-18T07:01:41.127Z</time></trkpt><trkpt lat="37.811635" lon="15.17252"><ele>376.0</ele><time>2026-04-18T07:01:42.126Z</time></trkpt><trkpt lat="37.8117083" lon="15.17236"><ele>376.0</ele><time>2026-04-18T07:01:43.127Z</time></trkpt><trkpt lat="37.8117683" lon="15.172215"><ele>376.0</ele><time>2026-04-18T07:01:44.126Z</time></trkpt><trkpt lat="37.811835" lon="15.172075"><ele>376.0</ele><time>2026-04-18T07:01:45.127Z</time></trkpt><trkpt lat="37.81188" lon="15.1719367"><ele>377.0</ele><time>2026-04-18T07:01:46.127Z</time></trkpt><trkpt lat="37.8119333" lon="15.1718133"><ele>378.0</ele><time>2026-04-18T07:01:47.127Z</time></trkpt><trkpt lat="37.8119933" lon="15.171725"><ele>379.0</ele><time>2026-04-18T07:01:48.127Z</time></trkpt><trkpt lat="37.8120617" lon="15.17167"><ele>380.0</ele><time>2026-04-18T07:01:49.127Z</time></trkpt><trkpt lat="37.81214" lon="15.1716583"><ele>381.0</ele><time>2026-04-18T07:01:50.127Z</time></trkpt><trkpt lat="37.812235" lon="15.1716533"><ele>381.0</ele><time>2026-04-18T07:01:51.126Z</time></trkpt><trkpt lat="37.8123283" lon="15.1716367"><ele>381.0</ele><time>2026-04-18T07:01:52.127Z</time></trkpt><trkpt lat="37.812405" lon="15.1715867"><ele>381.0</ele><time>2026-04-18T07:01:53.126Z</time></trkpt><trkpt lat="37.8124633" lon="15.1714933"><ele>381.0</ele><time>2026-04-18T07:01:54.126Z</time></trkpt><trkpt lat="37.812505" lon="15.1713617"><ele>381.0</ele><time>2026-04-18T07:01:55.127Z</time></trkpt><trkpt lat="37.8125483" lon="15.171195"><ele>381.6666666666667</ele><time>2026-04-18T07:01:56.127Z</time></trkpt><trkpt lat="37.81261" lon="15.1710117"><ele>382.33333333333337</ele><time>2026-04-18T07:01:57.127Z</time></trkpt><trkpt lat="37.8126883" lon="15.17081"><ele>383.0</ele><time>2026-04-18T07:01:58.127Z</time></trkpt><trkpt lat="37.8128" lon="15.1706083"><ele>385.6666666666667</ele><time>2026-04-18T07:01:59.126Z</time></trkpt><trkpt lat="37.8129183" lon="15.1704083"><ele>388.33333333333337</ele><time>2026-04-18T07:02:00.127Z</time></trkpt><trkpt lat="37.8130283" lon="15.1702283"><ele>391.0</ele><time>2026-04-18T07:02:01.127Z</time></trkpt><trkpt lat="37.813125" lon="15.17006"><ele>391.0</ele><time>2026-04-18T07:02:02.127Z</time></trkpt><trkpt lat="37.8131967" lon="15.1698817"><ele>391.0</ele><time>2026-04-18T07:02:03.127Z</time></trkpt><trkpt lat="37.813255" lon="15.169705"><ele>391.0</ele><time>2026-04-18T07:02:04.127Z</time></trkpt><trkpt lat="37.8133033" lon="15.1695417"><ele>391.0</ele><time>2026-04-18T07:02:05.127Z</time></trkpt><trkpt lat="37.8133433" lon="15.1693583"><ele>392.33333333333337</ele><time>2026-04-18T07:02:06.127Z</time></trkpt><trkpt lat="37.8133533" lon="15.1691517"><ele>393.66666666666663</ele><time>2026-04-18T07:02:07.127Z</time></trkpt><trkpt lat="37.8133567" lon="15.168965"><ele>395.0</ele><time>2026-04-18T07:02:08.127Z</time></trkpt><trkpt lat="37.81337" lon="15.1687817"><ele>395.0</ele><time>2026-04-18T07:02:09.127Z</time></trkpt><trkpt lat="37.8133767" lon="15.1685983"><ele>395.0</ele><time>2026-04-18T07:02:10.126Z</time></trkpt><trkpt lat="37.813395" lon="15.16841"><ele>395.0</ele><time>2026-04-18T07:02:11.127Z</time></trkpt><trkpt lat="37.8134067" lon="15.1682133"><ele>396.3333333333333</ele><time>2026-04-18T07:02:12.127Z</time></trkpt><trkpt lat="37.813415" lon="15.1680133"><ele>397.66666666666663</ele><time>2026-04-18T07:02:13.127Z</time></trkpt><trkpt lat="37.81343" lon="15.1678067"><ele>399.0</ele><time>2026-04-18T07:02:14.127Z</time></trkpt><trkpt lat="37.8134417" lon="15.16761"><ele>399.0</ele><time>2026-04-18T07:02:15.127Z</time></trkpt><trkpt lat="37.8134467" lon="15.1674067"><ele>399.0</ele><time>2026-04-18T07:02:16.127Z</time></trkpt><trkpt lat="37.8134567" lon="15.1672033"><ele>399.0</ele><time>2026-04-18T07:02:17.127Z</time></trkpt><trkpt lat="37.8134667" lon="15.167"><ele>400.0</ele><time>2026-04-18T07:02:18.127Z</time></trkpt><trkpt lat="37.8134817" lon="15.1667933"><ele>401.0</ele><time>2026-04-18T07:02:19.127Z</time></trkpt><trkpt lat="37.8134917" lon="15.16658"><ele>402.0</ele><time>2026-04-18T07:02:20.127Z</time></trkpt><trkpt lat="37.813505" lon="15.1663683"><ele>405.33333333333337</ele><time>2026-04-18T07:02:21.127Z</time></trkpt><trkpt lat="37.8135233" lon="15.1661467"><ele>408.6666666666667</ele><time>2026-04-18T07:02:22.126Z</time></trkpt><trkpt lat="37.8135267" lon="15.165945"><ele>412.0</ele><time>2026-04-18T07:02:23.127Z</time></trkpt><trkpt lat="37.8135467" lon="15.165725"><ele>412.33333333333337</ele><time>2026-04-18T07:02:24.127Z</time></trkpt><trkpt lat="37.81356" lon="15.1655067"><ele>412.66666666666663</ele><time>2026-04-18T07:02:25.127Z</time></trkpt><trkpt lat="37.8135733" lon="15.1652867"><ele>413.0</ele><time>2026-04-18T07:02:26.127Z</time></trkpt><trkpt lat="37.813585" lon="15.16507"><ele>414.66666666666663</ele><time>2026-04-18T07:02:27.127Z</time></trkpt><trkpt lat="37.8136" lon="15.1648433"><ele>416.33333333333337</ele><time>2026-04-18T07:02:28.127Z</time></trkpt><trkpt lat="37.8136133" lon="15.1646267"><ele>418.0</ele><time>2026-04-18T07:02:29.127Z</time></trkpt><trkpt lat="37.8136267" lon="15.1644217"><ele>418.0</ele><time>2026-04-18T07:02:30.127Z</time></trkpt><trkpt lat="37.8136433" lon="15.164245"><ele>418.0</ele><time>2026-04-18T07:02:31.127Z</time></trkpt><trkpt lat="37.81367" lon="15.1640783"><ele>418.0</ele><time>2026-04-18T07:02:32.126Z</time></trkpt><trkpt lat="37.81372" lon="15.1638967"><ele>418.0</ele><time>2026-04-18T07:02:33.127Z</time></trkpt><trkpt lat="37.81378" lon="15.16373"><ele>418.25</ele><time>2026-04-18T07:02:34.127Z</time></trkpt><trkpt lat="37.8138467" lon="15.1635783"><ele>418.5</ele><time>2026-04-18T07:02:35.127Z</time></trkpt><trkpt lat="37.8139033" lon="15.1634317"><ele>418.75</ele><time>2026-04-18T07:02:36.127Z</time></trkpt><trkpt lat="37.8139517" lon="15.1632883"><ele>419.0</ele><time>2026-04-18T07:02:37.126Z</time></trkpt><trkpt lat="37.8139917" lon="15.1631483"><ele>419.4</ele><time>2026-04-18T07:02:38.127Z</time></trkpt><trkpt lat="37.8140283" lon="15.1630083"><ele>419.79999999999995</ele><time>2026-04-18T07:02:39.127Z</time></trkpt><trkpt lat="37.8140567" lon="15.16287"><ele>420.20000000000005</ele><time>2026-04-18T07:02:40.127Z</time></trkpt><trkpt lat="37.81409" lon="15.1627567"><ele>420.6</ele><time>2026-04-18T07:02:41.127Z</time></trkpt><trkpt lat="37.8141183" lon="15.1626517"><ele>421.0</ele><time>2026-04-18T07:02:42.127Z</time></trkpt><trkpt lat="37.8141433" lon="15.162545"><ele>421.0</ele><time>2026-04-18T07:02:43.127Z</time></trkpt><trkpt lat="37.8141717" lon="15.1624383"><ele>421.0</ele><time>2026-04-18T07:02:44.126Z</time></trkpt><trkpt lat="37.8142133" lon="15.162335"><ele>421.0</ele><time>2026-04-18T07:02:45.127Z</time></trkpt><trkpt lat="37.8142783" lon="15.1622383"><ele>421.0</ele><time>2026-04-18T07:02:46.127Z</time></trkpt><trkpt lat="37.814355" lon="15.1621533"><ele>421.0</ele><time>2026-04-18T07:02:47.127Z</time></trkpt><trkpt lat="37.814445" lon="15.162075"><ele>424.5</ele><time>2026-04-18T07:02:48.127Z</time></trkpt><trkpt lat="37.81454" lon="15.1619933"><ele>428.0</ele><time>2026-04-18T07:02:49.127Z</time></trkpt><trkpt lat="37.8146383" lon="15.16191"><ele>431.5</ele><time>2026-04-18T07:02:50.127Z</time></trkpt><trkpt lat="37.814745" lon="15.1618283"><ele>435.0</ele><time>2026-04-18T07:02:51.127Z</time></trkpt><trkpt lat="37.8148533" lon="15.1617617"><ele>435.0</ele><time>2026-04-18T07:02:52.127Z</time></trkpt><trkpt lat="37.8149617" lon="15.1617083"><ele>435.0</ele><time>2026-04-18T07:02:53.126Z</time></trkpt><trkpt lat="37.81507" lon="15.1616717"><ele>435.0</ele><time>2026-04-18T07:02:54.127Z</time></trkpt><trkpt lat="37.8151633" lon="15.1616417"><ele>435.0</ele><time>2026-04-18T07:02:55.127Z</time></trkpt><trkpt lat="37.8152467" lon="15.16161"><ele>435.0</ele><time>2026-04-18T07:02:56.127Z</time></trkpt><trkpt lat="37.8153367" lon="15.1615883"><ele>436.2</ele><time>2026-04-18T07:02:57.127Z</time></trkpt><trkpt lat="37.815435" lon="15.161575"><ele>437.4</ele><time>2026-04-18T07:02:58.127Z</time></trkpt><trkpt lat="37.815535" lon="15.16159"><ele>438.6</ele><time>2026-04-18T07:02:59.127Z</time></trkpt><trkpt lat="37.8156417" lon="15.16163"><ele>439.8</ele><time>2026-04-18T07:03:00.127Z</time></trkpt><trkpt lat="37.8157567" lon="15.1616783"><ele>441.0</ele><time>2026-04-18T07:03:01.127Z</time></trkpt><trkpt lat="37.8158767" lon="15.1617433"><ele>441.75</ele><time>2026-04-18T07:03:02.127Z</time></trkpt><trkpt lat="37.8159983" lon="15.1617917"><ele>442.5</ele><time>2026-04-18T07:03:03.127Z</time></trkpt><trkpt lat="37.8161267" lon="15.1618283"><ele>443.25</ele><time>2026-04-18T07:03:04.127Z</time></trkpt><trkpt lat="37.8162567" lon="15.1618317"><ele>444.0</ele><time>2026-04-18T07:03:05.127Z</time></trkpt><trkpt lat="37.8163767" lon="15.1618067"><ele>444.0</ele><time>2026-04-18T07:03:06.127Z</time></trkpt><trkpt lat="37.8164867" lon="15.1617767"><ele>444.0</ele><time>2026-04-18T07:03:07.127Z</time></trkpt><trkpt lat="37.8165833" lon="15.1617467"><ele>444.0</ele><time>2026-04-18T07:03:08.126Z</time></trkpt><trkpt lat="37.816685" lon="15.1617217"><ele>444.0</ele><time>2026-04-18T07:03:09.127Z</time></trkpt><trkpt lat="37.8167767" lon="15.161695"><ele>444.0</ele><time>2026-04-18T07:03:10.127Z</time></trkpt><trkpt lat="37.8168633" lon="15.1616583"><ele>444.0</ele><time>2026-04-18T07:03:11.127Z</time></trkpt><trkpt lat="37.816945" lon="15.1615967"><ele>444.0</ele><time>2026-04-18T07:03:12.127Z</time></trkpt><trkpt lat="37.8170183" lon="15.161515"><ele>444.0</ele><time>2026-04-18T07:03:13.127Z</time></trkpt><trkpt lat="37.81708" lon="15.16141"><ele>444.0</ele><time>2026-04-18T07:03:14.127Z</time></trkpt><trkpt lat="37.817125" lon="15.1612933"><ele>444.0</ele><time>2026-04-18T07:03:15.126Z</time></trkpt><trkpt lat="37.8171733" lon="15.1611717"><ele>445.0</ele><time>2026-04-18T07:03:16.127Z</time></trkpt><trkpt lat="37.8172267" lon="15.1610617"><ele>446.0</ele><time>2026-04-18T07:03:17.126Z</time></trkpt><trkpt lat="37.817275" lon="15.1609467"><ele>447.0</ele><time>2026-04-18T07:03:18.127Z</time></trkpt><trkpt lat="37.817335" lon="15.1608283"><ele>448.0</ele><time>2026-04-18T07:03:19.126Z</time></trkpt><trkpt lat="37.817395" lon="15.1607083"><ele>449.0</ele><time>2026-04-18T07:03:20.127Z</time></trkpt><trkpt lat="37.8174617" lon="15.1605833"><ele>450.5</ele><time>2026-04-18T07:03:21.127Z</time></trkpt><trkpt lat="37.817535" lon="15.160455"><ele>452.0</ele><time>2026-04-18T07:03:22.127Z</time></trkpt><trkpt lat="37.8176083" lon="15.1603267"><ele>453.5</ele><time>2026-04-18T07:03:23.126Z</time></trkpt><trkpt lat="37.8176883" lon="15.160195"><ele>455.0</ele><time>2026-04-18T07:03:24.127Z</time></trkpt><trkpt lat="37.817765" lon="15.16006"><ele>456.0</ele><time>2026-04-18T07:03:25.127Z</time></trkpt><trkpt lat="37.8178417" lon="15.1599283"><ele>457.0</ele><time>2026-04-18T07:03:26.127Z</time></trkpt><trkpt lat="37.81792" lon="15.1598"><ele>458.0</ele><time>2026-04-18T07:03:27.127Z</time></trkpt><trkpt lat="37.8179967" lon="15.1596717"><ele>459.0</ele><time>2026-04-18T07:03:28.126Z</time></trkpt><trkpt lat="37.81807" lon="15.1595383"><ele>459.25</ele><time>2026-04-18T07:03:29.127Z</time></trkpt><trkpt lat="37.8181583" lon="15.159415"><ele>459.5</ele><time>2026-04-18T07:03:30.127Z</time></trkpt><trkpt lat="37.8182633" lon="15.159305"><ele>459.75</ele><time>2026-04-18T07:03:31.127Z</time></trkpt><trkpt lat="37.818385" lon="15.1592283"><ele>460.0</ele><time>2026-04-18T07:03:32.127Z</time></trkpt><trkpt lat="37.8185133" lon="15.159175"><ele>460.25</ele><time>2026-04-18T07:03:33.127Z</time></trkpt><trkpt lat="37.8186417" lon="15.159145"><ele>460.5</ele><time>2026-04-18T07:03:34.127Z</time></trkpt><trkpt lat="37.8187833" lon="15.1591133"><ele>460.75</ele><time>2026-04-18T07:03:35.127Z</time></trkpt><trkpt lat="37.8189233" lon="15.159075"><ele>461.0</ele><time>2026-04-18T07:03:36.127Z</time></trkpt><trkpt lat="37.819075" lon="15.1590317"><ele>461.0</ele><time>2026-04-18T07:03:37.127Z</time></trkpt><trkpt lat="37.8192267" lon="15.1589783"><ele>461.0</ele><time>2026-04-18T07:03:38.127Z</time></trkpt><trkpt lat="37.8193783" lon="15.1589283"><ele>461.0</ele><time>2026-04-18T07:03:39.127Z</time></trkpt><trkpt lat="37.8195333" lon="15.15888"><ele>463.0</ele><time>2026-04-18T07:03:40.127Z</time></trkpt><trkpt lat="37.819675" lon="15.1588333"><ele>465.0</ele><time>2026-04-18T07:03:41.127Z</time></trkpt><trkpt lat="37.81981" lon="15.1587867"><ele>467.0</ele><time>2026-04-18T07:03:42.127Z</time></trkpt><trkpt lat="37.81994" lon="15.1587333"><ele>469.0</ele><time>2026-04-18T07:03:43.127Z</time></trkpt><trkpt lat="37.82006" lon="15.1586767"><ele>469.75</ele><time>2026-04-18T07:03:44.127Z</time></trkpt><trkpt lat="37.8201683" lon="15.1586117"><ele>470.5</ele><time>2026-04-18T07:03:45.127Z</time></trkpt><trkpt lat="37.8202783" lon="15.1585333"><ele>471.25</ele><time>2026-04-18T07:03:46.127Z</time></trkpt><trkpt lat="37.8203817" lon="15.1584567"><ele>472.0</ele><time>2026-04-18T07:03:47.127Z</time></trkpt><trkpt lat="37.8204783" lon="15.1583833"><ele>472.0</ele><time>2026-04-18T07:03:48.127Z</time></trkpt><trkpt lat="37.8205733" lon="15.1583167"><ele>472.00000000000006</ele><time>2026-04-18T07:03:49.127Z</time></trkpt><trkpt lat="37.8206667" lon="15.158245"><ele>472.00000000000006</ele><time>2026-04-18T07:03:50.126Z</time></trkpt><trkpt lat="37.8207583" lon="15.158175"><ele>472.0</ele><time>2026-04-18T07:03:51.127Z</time></trkpt><trkpt lat="37.8208533" lon="15.1580967"><ele>472.0</ele><time>2026-04-18T07:03:52.127Z</time></trkpt><trkpt lat="37.820965" lon="15.15801"><ele>474.0</ele><time>2026-04-18T07:03:53.127Z</time></trkpt><trkpt lat="37.82109" lon="15.1579033"><ele>476.0</ele><time>2026-04-18T07:03:54.127Z</time></trkpt><trkpt lat="37.8212333" lon="15.1578067"><ele>478.0</ele><time>2026-04-18T07:03:55.127Z</time></trkpt><trkpt lat="37.8213783" lon="15.1577033"><ele>478.0</ele><time>2026-04-18T07:03:56.127Z</time></trkpt><trkpt lat="37.82152" lon="15.1576117"><ele>478.0</ele><time>2026-04-18T07:03:57.127Z</time></trkpt><trkpt lat="37.8216583" lon="15.1575367"><ele>478.0</ele><time>2026-04-18T07:03:58.127Z</time></trkpt><trkpt lat="37.821795" lon="15.1574533"><ele>479.0</ele><time>2026-04-18T07:03:59.127Z</time></trkpt><trkpt lat="37.8219233" lon="15.1573767"><ele>480.0</ele><time>2026-04-18T07:04:00.127Z</time></trkpt><trkpt lat="37.8220417" lon="15.1573"><ele>481.0</ele><time>2026-04-18T07:04:01.127Z</time></trkpt><trkpt lat="37.8221517" lon="15.1572133"><ele>482.0</ele><time>2026-04-18T07:04:02.126Z</time></trkpt><trkpt lat="37.8222433" lon="15.1570967"><ele>482.75</ele><time>2026-04-18T07:04:03.126Z</time></trkpt><trkpt lat="37.8223233" lon="15.156965"><ele>483.5</ele><time>2026-04-18T07:04:04.127Z</time></trkpt><trkpt lat="37.8223933" lon="15.1568233"><ele>484.25</ele><time>2026-04-18T07:04:05.127Z</time></trkpt><trkpt lat="37.8224717" lon="15.156695"><ele>485.0</ele><time>2026-04-18T07:04:06.127Z</time></trkpt><trkpt lat="37.8225467" lon="15.1565633"><ele>485.75</ele><time>2026-04-18T07:04:07.127Z</time></trkpt><trkpt lat="37.8226233" lon="15.156435"><ele>486.5</ele><time>2026-04-18T07:04:08.127Z</time></trkpt><trkpt lat="37.8227" lon="15.1563"><ele>487.25</ele><time>2026-04-18T07:04:09.127Z</time></trkpt><trkpt lat="37.82277" lon="15.1561533"><ele>488.0</ele><time>2026-04-18T07:04:10.127Z</time></trkpt><trkpt lat="37.8228333" lon="15.156"><ele>488.0</ele><time>2026-04-18T07:04:11.127Z</time></trkpt><trkpt lat="37.822885" lon="15.1558383"><ele>488.0</ele><time>2026-04-18T07:04:12.127Z</time></trkpt><trkpt lat="37.8229267" lon="15.1556783"><ele>488.0</ele><time>2026-04-18T07:04:13.127Z</time></trkpt><trkpt lat="37.8229483" lon="15.1555"><ele>488.0</ele><time>2026-04-18T07:04:14.127Z</time></trkpt><trkpt lat="37.8229667" lon="15.1553083"><ele>488.3333333333333</ele><time>2026-04-18T07:04:15.127Z</time></trkpt><trkpt lat="37.8229817" lon="15.1551067"><ele>488.66666666666663</ele><time>2026-04-18T07:04:16.127Z</time></trkpt><trkpt lat="37.8230033" lon="15.1549167"><ele>489.0</ele><time>2026-04-18T07:04:17.126Z</time></trkpt><trkpt lat="37.8230233" lon="15.154725"><ele>490.0</ele><time>2026-04-18T07:04:18.127Z</time></trkpt><trkpt lat="37.82304" lon="15.15454"><ele>491.0</ele><time>2026-04-18T07:04:19.126Z</time></trkpt><trkpt lat="37.8230583" lon="15.1543583"><ele>492.0</ele><time>2026-04-18T07:04:20.127Z</time></trkpt><trkpt lat="37.8230717" lon="15.154175"><ele>493.0</ele><time>2026-04-18T07:04:21.126Z</time></trkpt><trkpt lat="37.823095" lon="15.1539917"><ele>493.75</ele><time>2026-04-18T07:04:22.126Z</time></trkpt><trkpt lat="37.8231233" lon="15.153815"><ele>494.5</ele><time>2026-04-18T07:04:23.127Z</time></trkpt><trkpt lat="37.82314" lon="15.15364"><ele>495.25</ele><time>2026-04-18T07:04:24.127Z</time></trkpt><trkpt lat="37.8231567" lon="15.1534633"><ele>496.0</ele><time>2026-04-18T07:04:25.127Z</time></trkpt><trkpt lat="37.82317" lon="15.15329"><ele>495.5</ele><time>2026-04-18T07:04:26.126Z</time></trkpt><trkpt lat="37.82319" lon="15.15314"><ele>495.0</ele><time>2026-04-18T07:04:27.126Z</time></trkpt><trkpt lat="37.8232183" lon="15.15299"><ele>494.5</ele><time>2026-04-18T07:04:28.126Z</time></trkpt><trkpt lat="37.823275" lon="15.1528567"><ele>494.0</ele><time>2026-04-18T07:04:29.127Z</time></trkpt><trkpt lat="37.8233367" lon="15.152725"><ele>494.0</ele><time>2026-04-18T07:04:30.127Z</time></trkpt><trkpt lat="37.8234017" lon="15.1525867"><ele>494.0</ele><time>2026-04-18T07:04:31.127Z</time></trkpt><trkpt lat="37.823465" lon="15.1524517"><ele>494.0</ele><time>2026-04-18T07:04:32.127Z</time></trkpt><trkpt lat="37.8235267" lon="15.1523167"><ele>494.0</ele><time>2026-04-18T07:04:33.127Z</time></trkpt><trkpt lat="37.8235833" lon="15.1521917"><ele>493.8333333333333</ele><time>2026-04-18T07:04:34.127Z</time></trkpt><trkpt lat="37.823635" lon="15.15208"><ele>493.66666666666663</ele><time>2026-04-18T07:04:35.127Z</time></trkpt><trkpt lat="37.8236783" lon="15.1519783"><ele>493.5</ele><time>2026-04-18T07:04:36.127Z</time></trkpt><trkpt lat="37.8237233" lon="15.151885"><ele>493.33333333333337</ele><time>2026-04-18T07:04:37.127Z</time></trkpt><trkpt lat="37.82377" lon="15.1518017"><ele>493.1666666666667</ele><time>2026-04-18T07:04:38.127Z</time></trkpt><trkpt lat="37.8238133" lon="15.151715"><ele>493.0</ele><time>2026-04-18T07:04:39.127Z</time></trkpt><trkpt lat="37.823865" lon="15.1516183"><ele>493.50000000000006</ele><time>2026-04-18T07:04:40.127Z</time></trkpt><trkpt lat="37.8239083" lon="15.1515133"><ele>494.0</ele><time>2026-04-18T07:04:41.127Z</time></trkpt><trkpt lat="37.8239617" lon="15.1514117"><ele>494.5</ele><time>2026-04-18T07:04:42.127Z</time></trkpt><trkpt lat="37.824015" lon="15.1513217"><ele>495.0</ele><time>2026-04-18T07:04:43.127Z</time></trkpt><trkpt lat="37.824065" lon="15.151235"><ele>495.50000000000006</ele><time>2026-04-18T07:04:44.127Z</time></trkpt><trkpt lat="37.82411" lon="15.1511433"><ele>496.0</ele><time>2026-04-18T07:04:45.127Z</time></trkpt><trkpt lat="37.8241633" lon="15.151045"><ele>496.0</ele><time>2026-04-18T07:04:46.127Z</time></trkpt><trkpt lat="37.82422" lon="15.1509333"><ele>496.0</ele><time>2026-04-18T07:04:47.127Z</time></trkpt><trkpt lat="37.824275" lon="15.1508217"><ele>496.0</ele><time>2026-04-18T07:04:48.127Z</time></trkpt><trkpt lat="37.8243417" lon="15.1506933"><ele>496.0</ele><time>2026-04-18T07:04:49.127Z</time></trkpt><trkpt lat="37.8244" lon="15.1505533"><ele>496.25</ele><time>2026-04-18T07:04:50.127Z</time></trkpt><trkpt lat="37.82446" lon="15.150415"><ele>496.5</ele><time>2026-04-18T07:04:51.127Z</time></trkpt><trkpt lat="37.824525" lon="15.1502833"><ele>496.75</ele><time>2026-04-18T07:04:52.127Z</time></trkpt><trkpt lat="37.8245917" lon="15.1501467"><ele>497.0</ele><time>2026-04-18T07:04:53.126Z</time></trkpt><trkpt lat="37.8246567" lon="15.1500167"><ele>497.0</ele><time>2026-04-18T07:04:54.127Z</time></trkpt><trkpt lat="37.8247283" lon="15.1498867"><ele>497.0</ele><time>2026-04-18T07:04:55.127Z</time></trkpt><trkpt lat="37.8248" lon="15.149755"><ele>497.0</ele><time>2026-04-18T07:04:56.127Z</time></trkpt><trkpt lat="37.8248717" lon="15.1496267"><ele>497.0</ele><time>2026-04-18T07:04:57.127Z</time></trkpt><trkpt lat="37.8249483" lon="15.1495"><ele>497.25</ele><time>2026-04-18T07:04:58.127Z</time></trkpt><trkpt lat="37.8250333" lon="15.1493833"><ele>497.5</ele><time>2026-04-18T07:04:59.127Z</time></trkpt><trkpt lat="37.8251333" lon="15.1492767"><ele>497.75</ele><time>2026-04-18T07:05:00.127Z</time></trkpt><trkpt lat="37.8252383" lon="15.1491733"><ele>498.0</ele><time>2026-04-18T07:05:01.126Z</time></trkpt><trkpt lat="37.8253433" lon="15.149055"><ele>498.25</ele><time>2026-04-18T07:05:02.126Z</time></trkpt><trkpt lat="37.8254583" lon="15.1489483"><ele>498.5</ele><time>2026-04-18T07:05:03.126Z</time></trkpt><trkpt lat="37.8255667" lon="15.1488267"><ele>498.75</ele><time>2026-04-18T07:05:04.126Z</time></trkpt><trkpt lat="37.8256817" lon="15.1487067"><ele>499.0</ele><time>2026-04-18T07:05:05.126Z</time></trkpt><trkpt lat="37.8258067" lon="15.14859"><ele>499.0</ele><time>2026-04-18T07:05:06.126Z</time></trkpt><trkpt lat="37.825935" lon="15.1484633"><ele>499.0</ele><time>2026-04-18T07:05:07.126Z</time></trkpt><trkpt lat="37.826065" lon="15.14832"><ele>499.0</ele><time>2026-04-18T07:05:08.126Z</time></trkpt><trkpt lat="37.8262017" lon="15.1481917"><ele>498.6666666666667</ele><time>2026-04-18T07:05:09.126Z</time></trkpt><trkpt lat="37.8263317" lon="15.148065"><ele>498.33333333333337</ele><time>2026-04-18T07:05:10.126Z</time></trkpt><trkpt lat="37.826455" lon="15.1479317"><ele>498.0</ele><time>2026-04-18T07:05:11.126Z</time></trkpt><trkpt lat="37.8265767" lon="15.1478017"><ele>498.0</ele><time>2026-04-18T07:05:12.126Z</time></trkpt><trkpt lat="37.8266983" lon="15.1476733"><ele>498.0</ele><time>2026-04-18T07:05:13.126Z</time></trkpt><trkpt lat="37.826815" lon="15.1475383"><ele>498.0</ele><time>2026-04-18T07:05:14.126Z</time></trkpt><trkpt lat="37.82693" lon="15.14741"><ele>498.66666666666663</ele><time>2026-04-18T07:05:15.126Z</time></trkpt><trkpt lat="37.8270383" lon="15.1472817"><ele>499.3333333333333</ele><time>2026-04-18T07:05:16.126Z</time></trkpt><trkpt lat="37.8271467" lon="15.14714"><ele>500.0</ele><time>2026-04-18T07:05:17.126Z</time></trkpt><trkpt lat="37.8272567" lon="15.1470133"><ele>500.0</ele><time>2026-04-18T07:05:18.126Z</time></trkpt><trkpt lat="37.82738" lon="15.1469017"><ele>500.0</ele><time>2026-04-18T07:05:19.126Z</time></trkpt><trkpt lat="37.827505" lon="15.1467917"><ele>500.0</ele><time>2026-04-18T07:05:20.126Z</time></trkpt><trkpt lat="37.827645" lon="15.146705"><ele>500.3333333333333</ele><time>2026-04-18T07:05:21.126Z</time></trkpt><trkpt lat="37.8277833" lon="15.14663"><ele>500.66666666666663</ele><time>2026-04-18T07:05:22.126Z</time></trkpt><trkpt lat="37.8279217" lon="15.146545"><ele>501.0</ele><time>2026-04-18T07:05:23.126Z</time></trkpt><trkpt lat="37.8280617" lon="15.1464383"><ele>502.33333333333337</ele><time>2026-04-18T07:05:24.126Z</time></trkpt><trkpt lat="37.8281933" lon="15.1463183"><ele>503.6666666666667</ele><time>2026-04-18T07:05:25.126Z</time></trkpt><trkpt lat="37.828325" lon="15.1462033"><ele>505.0</ele><time>2026-04-18T07:05:26.126Z</time></trkpt><trkpt lat="37.8284533" lon="15.1460883"><ele>504.6666666666667</ele><time>2026-04-18T07:05:27.125Z</time></trkpt><trkpt lat="37.82859" lon="15.145995"><ele>504.33333333333337</ele><time>2026-04-18T07:05:28.126Z</time></trkpt><trkpt lat="37.828725" lon="15.1459067"><ele>504.0</ele><time>2026-04-18T07:05:29.126Z</time></trkpt><trkpt lat="37.828865" lon="15.145835"><ele>504.0</ele><time>2026-04-18T07:05:30.125Z</time></trkpt><trkpt lat="37.8289967" lon="15.1457667"><ele>504.0</ele><time>2026-04-18T07:05:31.125Z</time></trkpt><trkpt lat="37.8291183" lon="15.14571"><ele>504.0</ele><time>2026-04-18T07:05:32.126Z</time></trkpt><trkpt lat="37.829225" lon="15.1456617"><ele>504.0</ele><time>2026-04-18T07:05:33.126Z</time></trkpt><trkpt lat="37.829315" lon="15.145635"><ele>505.1666666666667</ele><time>2026-04-18T07:05:34.125Z</time></trkpt><trkpt lat="37.82939" lon="15.14561"><ele>506.33333333333337</ele><time>2026-04-18T07:05:35.126Z</time></trkpt><trkpt lat="37.8294517" lon="15.1455883"><ele>507.5</ele><time>2026-04-18T07:05:36.126Z</time></trkpt><trkpt lat="37.82952" lon="15.1455583"><ele>508.6666666666667</ele><time>2026-04-18T07:05:38.126Z</time></trkpt><trkpt lat="37.82962" lon="15.1454733"><ele>509.83333333333337</ele><time>2026-04-18T07:09:59.125Z</time></trkpt><trkpt lat="37.8296883" lon="15.1454267"><ele>511.0</ele><time>2026-04-18T07:10:00.126Z</time></trkpt><trkpt lat="37.8297617" lon="15.1453833"><ele>511.0</ele><time>2026-04-18T07:10:01.126Z</time></trkpt><trkpt lat="37.8298483" lon="15.145325"><ele>511.0</ele><time>2026-04-18T07:10:02.125Z</time></trkpt><trkpt lat="37.8299433" lon="15.1452683"><ele>511.0</ele><time>2026-04-18T07:10:03.126Z</time></trkpt><trkpt lat="37.830045" lon="15.1452133"><ele>511.0</ele><time>2026-04-18T07:10:04.125Z</time></trkpt><trkpt lat="37.8301567" lon="15.1451583"><ele>511.0</ele><time>2026-04-18T07:10:05.126Z</time></trkpt><trkpt lat="37.8302733" lon="15.14511"><ele>512.25</ele><time>2026-04-18T07:10:06.126Z</time></trkpt><trkpt lat="37.8303867" lon="15.1450633"><ele>513.5</ele><time>2026-04-18T07:10:07.126Z</time></trkpt><trkpt lat="37.8305117" lon="15.1450233"><ele>514.75</ele><time>2026-04-18T07:10:08.126Z</time></trkpt><trkpt lat="37.83064" lon="15.1449867"><ele>516.0</ele><time>2026-04-18T07:10:09.126Z</time></trkpt><trkpt lat="37.83077" lon="15.144955"><ele>516.0</ele><time>2026-04-18T07:10:10.126Z</time></trkpt><trkpt lat="37.8309083" lon="15.1449233"><ele>516.0</ele><time>2026-04-18T07:10:11.126Z</time></trkpt><trkpt lat="37.8310417" lon="15.1448917"><ele>516.0</ele><time>2026-04-18T07:10:12.126Z</time></trkpt><trkpt lat="37.8311667" lon="15.1448583"><ele>516.0</ele><time>2026-04-18T07:10:13.126Z</time></trkpt><trkpt lat="37.8313017" lon="15.1448267"><ele>515.5</ele><time>2026-04-18T07:10:14.126Z</time></trkpt><trkpt lat="37.8314433" lon="15.144795"><ele>515.0</ele><time>2026-04-18T07:10:15.126Z</time></trkpt><trkpt lat="37.831575" lon="15.1447517"><ele>514.5</ele><time>2026-04-18T07:10:16.126Z</time></trkpt><trkpt lat="37.831705" lon="15.1447067"><ele>514.0</ele><time>2026-04-18T07:10:17.126Z</time></trkpt><trkpt lat="37.8318383" lon="15.1446633"><ele>514.0</ele><time>2026-04-18T07:10:18.126Z</time></trkpt><trkpt lat="37.8319633" lon="15.1446167"><ele>514.0</ele><time>2026-04-18T07:10:19.126Z</time></trkpt><trkpt lat="37.8320817" lon="15.14458"><ele>514.0</ele><time>2026-04-18T07:10:20.126Z</time></trkpt><trkpt lat="37.8321983" lon="15.1445267"><ele>514.0</ele><time>2026-04-18T07:10:21.125Z</time></trkpt><trkpt lat="37.832315" lon="15.144485"><ele>514.0</ele><time>2026-04-18T07:10:22.126Z</time></trkpt><trkpt lat="37.8324433" lon="15.14445"><ele>514.0</ele><time>2026-04-18T07:10:23.126Z</time></trkpt><trkpt lat="37.832565" lon="15.14442"><ele>514.0</ele><time>2026-04-18T07:10:24.126Z</time></trkpt><trkpt lat="37.8326783" lon="15.1444167"><ele>514.0</ele><time>2026-04-18T07:10:25.126Z</time></trkpt><trkpt lat="37.8328017" lon="15.1444333"><ele>513.75</ele><time>2026-04-18T07:10:26.126Z</time></trkpt><trkpt lat="37.8329233" lon="15.1444733"><ele>513.5</ele><time>2026-04-18T07:10:27.126Z</time></trkpt><trkpt lat="37.83306" lon="15.1445083"><ele>513.25</ele><time>2026-04-18T07:10:28.126Z</time></trkpt><trkpt lat="37.8331967" lon="15.14451"><ele>513.0</ele><time>2026-04-18T07:10:29.126Z</time></trkpt><trkpt lat="37.8333333" lon="15.144465"><ele>513.0</ele><time>2026-04-18T07:10:30.126Z</time></trkpt><trkpt lat="37.8334633" lon="15.14441"><ele>513.0</ele><time>2026-04-18T07:10:31.125Z</time></trkpt><trkpt lat="37.8335867" lon="15.144355"><ele>513.0</ele><time>2026-04-18T07:10:32.126Z</time></trkpt><trkpt lat="37.8337117" lon="15.144315"><ele>513.0</ele><time>2026-04-18T07:10:33.126Z</time></trkpt><trkpt lat="37.833835" lon="15.1442833"><ele>514.25</ele><time>2026-04-18T07:10:34.126Z</time></trkpt><trkpt lat="37.83395" lon="15.1442433"><ele>515.5</ele><time>2026-04-18T07:10:35.126Z</time></trkpt><trkpt lat="37.8340633" lon="15.1442117"><ele>516.75</ele><time>2026-04-18T07:10:36.126Z</time></trkpt><trkpt lat="37.834175" lon="15.1441733"><ele>518.0</ele><time>2026-04-18T07:10:37.126Z</time></trkpt><trkpt lat="37.8342733" lon="15.14414"><ele>518.0</ele><time>2026-04-18T07:10:38.126Z</time></trkpt><trkpt lat="37.8343633" lon="15.144105"><ele>518.0</ele><time>2026-04-18T07:10:39.126Z</time></trkpt><trkpt lat="37.8344483" lon="15.1440667"><ele>518.0</ele><time>2026-04-18T07:10:40.126Z</time></trkpt><trkpt lat="37.834535" lon="15.1440267"><ele>518.0</ele><time>2026-04-18T07:10:41.126Z</time></trkpt><trkpt lat="37.83462" lon="15.143985"><ele>518.0</ele><time>2026-04-18T07:10:42.126Z</time></trkpt><trkpt lat="37.834705" lon="15.1439333"><ele>518.6</ele><time>2026-04-18T07:10:43.126Z</time></trkpt><trkpt lat="37.8347933" lon="15.1438783"><ele>519.1999999999999</ele><time>2026-04-18T07:10:44.126Z</time></trkpt><trkpt lat="37.8348817" lon="15.1438083"><ele>519.8</ele><time>2026-04-18T07:10:45.126Z</time></trkpt><trkpt lat="37.8349717" lon="15.1437583"><ele>520.4</ele><time>2026-04-18T07:10:46.126Z</time></trkpt><trkpt lat="37.8350617" lon="15.1437233"><ele>521.0</ele><time>2026-04-18T07:10:47.126Z</time></trkpt><trkpt lat="37.8351533" lon="15.1436983"><ele>521.6666666666666</ele><time>2026-04-18T07:10:48.126Z</time></trkpt><trkpt lat="37.8352433" lon="15.1436867"><ele>522.3333333333333</ele><time>2026-04-18T07:10:49.126Z</time></trkpt><trkpt lat="37.83533" lon="15.1436833"><ele>523.0</ele><time>2026-04-18T07:10:50.126Z</time></trkpt><trkpt lat="37.8354167" lon="15.14369"><ele>523.6666666666666</ele><time>2026-04-18T07:10:51.125Z</time></trkpt><trkpt lat="37.8355067" lon="15.1437033"><ele>524.3333333333334</ele><time>2026-04-18T07:10:52.126Z</time></trkpt><trkpt lat="37.8356" lon="15.1437217"><ele>525.0</ele><time>2026-04-18T07:10:53.126Z</time></trkpt><trkpt lat="37.8356967" lon="15.1437483"><ele>525.0</ele><time>2026-04-18T07:10:54.126Z</time></trkpt><trkpt lat="37.83579" lon="15.14378"><ele>525.0</ele><time>2026-04-18T07:10:55.125Z</time></trkpt><trkpt lat="37.8358833" lon="15.1438117"><ele>525.0</ele><time>2026-04-18T07:10:56.126Z</time></trkpt><trkpt lat="37.8359733" lon="15.1438417"><ele>525.0</ele><time>2026-04-18T07:10:57.126Z</time></trkpt><trkpt lat="37.8360617" lon="15.1438683"><ele>525.0</ele><time>2026-04-18T07:10:58.126Z</time></trkpt><trkpt lat="37.8361533" lon="15.1439033"><ele>525.75</ele><time>2026-04-18T07:10:59.126Z</time></trkpt><trkpt lat="37.8362433" lon="15.143955"><ele>526.5</ele><time>2026-04-18T07:11:00.126Z</time></trkpt><trkpt lat="37.8363383" lon="15.1440317"><ele>527.25</ele><time>2026-04-18T07:11:01.125Z</time></trkpt><trkpt lat="37.8364533" lon="15.1441283"><ele>528.0</ele><time>2026-04-18T07:11:02.126Z</time></trkpt><trkpt lat="37.8365933" lon="15.1442383"><ele>528.0</ele><time>2026-04-18T07:11:03.126Z</time></trkpt><trkpt lat="37.8367267" lon="15.144375"><ele>528.0</ele><time>2026-04-18T07:11:04.126Z</time></trkpt><trkpt lat="37.836855" lon="15.144485"><ele>528.0</ele><time>2026-04-18T07:11:05.126Z</time></trkpt><trkpt lat="37.8369733" lon="15.1445883"><ele>529.25</ele><time>2026-04-18T07:11:06.126Z</time></trkpt><trkpt lat="37.8370967" lon="15.1446717"><ele>530.5</ele><time>2026-04-18T07:11:07.125Z</time></trkpt><trkpt lat="37.8372417" lon="15.1447233"><ele>531.75</ele><time>2026-04-18T07:11:08.126Z</time></trkpt><trkpt lat="37.8373883" lon="15.1447583"><ele>533.0</ele><time>2026-04-18T07:11:09.126Z</time></trkpt><trkpt lat="37.83754" lon="15.14477"><ele>533.5</ele><time>2026-04-18T07:11:10.126Z</time></trkpt><trkpt lat="37.8376833" lon="15.1447817"><ele>534.0</ele><time>2026-04-18T07:11:11.125Z</time></trkpt><trkpt lat="37.8378333" lon="15.1447883"><ele>534.5</ele><time>2026-04-18T07:11:12.126Z</time></trkpt><trkpt lat="37.83797" lon="15.1447883"><ele>535.0</ele><time>2026-04-18T07:11:13.126Z</time></trkpt><trkpt lat="37.838105" lon="15.14479"><ele>535.0</ele><time>2026-04-18T07:11:14.126Z</time></trkpt><trkpt lat="37.8382383" lon="15.1448"><ele>535.0</ele><time>2026-04-18T07:11:15.126Z</time></trkpt><trkpt lat="37.8383583" lon="15.1448033"><ele>535.0</ele><time>2026-04-18T07:11:16.126Z</time></trkpt><trkpt lat="37.8384867" lon="15.1448017"><ele>535.0</ele><time>2026-04-18T07:11:17.126Z</time></trkpt><trkpt lat="37.8386183" lon="15.1447867"><ele>535.0</ele><time>2026-04-18T07:11:18.126Z</time></trkpt><trkpt lat="37.8387483" lon="15.1447817"><ele>535.0</ele><time>2026-04-18T07:11:19.126Z</time></trkpt><trkpt lat="37.8388767" lon="15.14477"><ele>535.0</ele><time>2026-04-18T07:11:20.126Z</time></trkpt><trkpt lat="37.83901" lon="15.1447533"><ele>535.0</ele><time>2026-04-18T07:11:21.126Z</time></trkpt><trkpt lat="37.8391367" lon="15.144735"><ele>535.0</ele><time>2026-04-18T07:11:22.126Z</time></trkpt><trkpt lat="37.8392517" lon="15.144715"><ele>535.0</ele><time>2026-04-18T07:11:23.126Z</time></trkpt><trkpt lat="37.83937" lon="15.1447067"><ele>535.0</ele><time>2026-04-18T07:11:24.126Z</time></trkpt><trkpt lat="37.839485" lon="15.1446883"><ele>535.0</ele><time>2026-04-18T07:11:25.126Z</time></trkpt><trkpt lat="37.8396017" lon="15.1446767"><ele>535.4</ele><time>2026-04-18T07:11:26.126Z</time></trkpt><trkpt lat="37.8397083" lon="15.1446533"><ele>535.8</ele><time>2026-04-18T07:11:27.126Z</time></trkpt><trkpt lat="37.83982" lon="15.1446433"><ele>536.2</ele><time>2026-04-18T07:11:28.125Z</time></trkpt><trkpt lat="37.8399233" lon="15.1446317"><ele>536.6</ele><time>2026-04-18T07:11:29.126Z</time></trkpt><trkpt lat="37.84002" lon="15.1446167"><ele>537.0</ele><time>2026-04-18T07:11:30.126Z</time></trkpt><trkpt lat="37.8401167" lon="15.14461"><ele>537.1666666666666</ele><time>2026-04-18T07:11:31.126Z</time></trkpt><trkpt lat="37.8402033" lon="15.1445983"><ele>537.3333333333334</ele><time>2026-04-18T07:11:32.126Z</time></trkpt><trkpt lat="37.84028" lon="15.1445783"><ele>537.5</ele><time>2026-04-18T07:11:33.126Z</time></trkpt><trkpt lat="37.8403533" lon="15.1445583"><ele>537.6666666666667</ele><time>2026-04-18T07:11:34.126Z</time></trkpt><trkpt lat="37.84042" lon="15.144535"><ele>537.8333333333334</ele><time>2026-04-18T07:11:35.126Z</time></trkpt><trkpt lat="37.840485" lon="15.1445"><ele>538.0</ele><time>2026-04-18T07:11:36.126Z</time></trkpt><trkpt lat="37.8405467" lon="15.14446"><ele>538.0</ele><time>2026-04-18T07:11:37.125Z</time></trkpt><trkpt lat="37.840605" lon="15.14442"><ele>538.0</ele><time>2026-04-18T07:11:38.126Z</time></trkpt><trkpt lat="37.8406567" lon="15.1443733"><ele>538.0</ele><time>2026-04-18T07:11:39.126Z</time></trkpt><trkpt lat="37.84073" lon="15.1442833"><ele>538.0</ele><time>2026-04-18T07:11:41.126Z</time></trkpt><trkpt lat="37.8407833" lon="15.144195"><ele>538.0</ele><time>2026-04-18T07:11:43.126Z</time></trkpt><trkpt lat="37.8408567" lon="15.1441167"><ele>538.0</ele><time>2026-04-18T07:11:45.126Z</time></trkpt><trkpt lat="37.8409333" lon="15.1440117"><ele>538.2857142857143</ele><time>2026-04-18T07:11:47.126Z</time></trkpt><trkpt lat="37.8409867" lon="15.1439483"><ele>538.5714285714287</ele><time>2026-04-18T07:11:48.126Z</time></trkpt><trkpt lat="37.8410417" lon="15.1438833"><ele>538.8571428571429</ele><time>2026-04-18T07:11:49.126Z</time></trkpt><trkpt lat="37.8410933" lon="15.14382"><ele>539.1428571428571</ele><time>2026-04-18T07:11:50.126Z</time></trkpt><trkpt lat="37.8411383" lon="15.1437483"><ele>539.4285714285713</ele><time>2026-04-18T07:11:51.125Z</time></trkpt><trkpt lat="37.8411867" lon="15.1436883"><ele>539.7142857142857</ele><time>2026-04-18T07:11:52.126Z</time></trkpt><trkpt lat="37.8412317" lon="15.143615"><ele>540.0</ele><time>2026-04-18T07:11:53.126Z</time></trkpt><trkpt lat="37.8412767" lon="15.143545"><ele>540.0</ele><time>2026-04-18T07:11:54.126Z</time></trkpt><trkpt lat="37.84132" lon="15.1434767"><ele>540.0</ele><time>2026-04-18T07:11:55.126Z</time></trkpt><trkpt lat="37.8413667" lon="15.1434117"><ele>540.0</ele><time>2026-04-18T07:11:56.126Z</time></trkpt><trkpt lat="37.8414117" lon="15.1433467"><ele>540.0</ele><time>2026-04-18T07:11:57.126Z</time></trkpt><trkpt lat="37.84149" lon="15.143235"><ele>540.0</ele><time>2026-04-18T07:11:59.125Z</time></trkpt><trkpt lat="37.8415583" lon="15.1431033"><ele>540.0</ele><time>2026-04-18T07:12:01.126Z</time></trkpt><trkpt lat="37.8415933" lon="15.1430283"><ele>540.4285714285714</ele><time>2026-04-18T07:12:02.126Z</time></trkpt><trkpt lat="37.8416317" lon="15.142955"><ele>540.8571428571428</ele><time>2026-04-18T07:12:03.126Z</time></trkpt><trkpt lat="37.841675" lon="15.14289"><ele>541.2857142857142</ele><time>2026-04-18T07:12:04.125Z</time></trkpt><trkpt lat="37.8417167" lon="15.1428183"><ele>541.7142857142857</ele><time>2026-04-18T07:12:05.126Z</time></trkpt><trkpt lat="37.8417733" lon="15.1427533"><ele>542.1428571428571</ele><time>2026-04-18T07:12:06.126Z</time></trkpt><trkpt lat="37.84182" lon="15.1426983"><ele>542.5714285714286</ele><time>2026-04-18T07:12:07.126Z</time></trkpt><trkpt lat="37.8418867" lon="15.1426533"><ele>543.0</ele><time>2026-04-18T07:12:08.126Z</time></trkpt><trkpt lat="37.841985" lon="15.142575"><ele>543.0</ele><time>2026-04-18T07:12:10.126Z</time></trkpt><trkpt lat="37.8420633" lon="15.1424883"><ele>543.0</ele><time>2026-04-18T07:12:12.126Z</time></trkpt><trkpt lat="37.8421583" lon="15.14243"><ele>543.0</ele><time>2026-04-18T07:12:14.126Z</time></trkpt><trkpt lat="37.8422433" lon="15.142365"><ele>543.0</ele><time>2026-04-18T07:12:21.126Z</time></trkpt><trkpt lat="37.84231" lon="15.14231"><ele>543.0</ele><time>2026-04-18T07:12:23.126Z</time></trkpt><trkpt lat="37.8423933" lon="15.1422367"><ele>543.0</ele><time>2026-04-18T07:12:25.126Z</time></trkpt><trkpt lat="37.84248" lon="15.14216"><ele>543.0</ele><time>2026-04-18T07:12:27.126Z</time></trkpt><trkpt lat="37.8425667" lon="15.1420817"><ele>543.0</ele><time>2026-04-18T07:12:29.126Z</time></trkpt><trkpt lat="37.8426333" lon="15.14201"><ele>543.0</ele><time>2026-04-18T07:12:31.126Z</time></trkpt><trkpt lat="37.8426733" lon="15.1419317"><ele>543.0</ele><time>2026-04-18T07:12:34.126Z</time></trkpt><trkpt lat="37.8426767" lon="15.1418433"><ele>543.0</ele><time>2026-04-18T07:12:37.126Z</time></trkpt><trkpt lat="37.84264" lon="15.1417283"><ele>543.1666666666666</ele><time>2026-04-18T07:12:39.126Z</time></trkpt><trkpt lat="37.8426183" lon="15.1416483"><ele>543.3333333333334</ele><time>2026-04-18T07:12:40.126Z</time></trkpt><trkpt lat="37.8425933" lon="15.141565"><ele>543.5</ele><time>2026-04-18T07:12:41.126Z</time></trkpt><trkpt lat="37.84257" lon="15.1414833"><ele>543.6666666666667</ele><time>2026-04-18T07:12:42.126Z</time></trkpt><trkpt lat="37.8425467" lon="15.1413867"><ele>543.8333333333334</ele><time>2026-04-18T07:12:43.126Z</time></trkpt><trkpt lat="37.8425217" lon="15.14128"><ele>544.0</ele><time>2026-04-18T07:12:44.126Z</time></trkpt><trkpt lat="37.8424933" lon="15.141185"><ele>544.7142857142857</ele><time>2026-04-18T07:12:45.126Z</time></trkpt><trkpt lat="37.8424667" lon="15.141095"><ele>545.4285714285714</ele><time>2026-04-18T07:12:46.126Z</time></trkpt><trkpt lat="37.84244" lon="15.1410033"><ele>546.1428571428571</ele><time>2026-04-18T07:12:47.126Z</time></trkpt><trkpt lat="37.8424083" lon="15.1409083"><ele>546.8571428571429</ele><time>2026-04-18T07:12:48.126Z</time></trkpt><trkpt lat="37.84238" lon="15.1408283"><ele>547.5714285714286</ele><time>2026-04-18T07:12:49.126Z</time></trkpt><trkpt lat="37.842355" lon="15.1407483"><ele>548.2857142857142</ele><time>2026-04-18T07:12:50.126Z</time></trkpt><trkpt lat="37.842335" lon="15.14067"><ele>549.0</ele><time>2026-04-18T07:12:51.126Z</time></trkpt><trkpt lat="37.8422833" lon="15.14054"><ele>549.6</ele><time>2026-04-18T07:12:53.126Z</time></trkpt><trkpt lat="37.8422567" lon="15.1404183"><ele>550.2</ele><time>2026-04-18T07:12:55.126Z</time></trkpt><trkpt lat="37.842225" lon="15.1402933"><ele>550.8000000000001</ele><time>2026-04-18T07:12:57.126Z</time></trkpt><trkpt lat="37.8421883" lon="15.1401883"><ele>551.4</ele><time>2026-04-18T07:12:59.126Z</time></trkpt><trkpt lat="37.842145" lon="15.1400817"><ele>552.0</ele><time>2026-04-18T07:13:01.125Z</time></trkpt><trkpt lat="37.8421133" lon="15.13994"><ele>552.2</ele><time>2026-04-18T07:13:03.126Z</time></trkpt><trkpt lat="37.842095" lon="15.1398117"><ele>552.4000000000001</ele><time>2026-04-18T07:13:05.126Z</time></trkpt><trkpt lat="37.8420533" lon="15.1396683"><ele>552.5999999999999</ele><time>2026-04-18T07:13:07.126Z</time></trkpt><trkpt lat="37.8420333" lon="15.13959"><ele>552.8</ele><time>2026-04-18T07:13:08.126Z</time></trkpt><trkpt lat="37.841995" lon="15.1394317"><ele>553.0</ele><time>2026-04-18T07:13:10.126Z</time></trkpt><trkpt lat="37.8419667" lon="15.1393417"><ele>553.0</ele><time>2026-04-18T07:13:11.125Z</time></trkpt><trkpt lat="37.841945" lon="15.1392567"><ele>553.0</ele><time>2026-04-18T07:13:12.126Z</time></trkpt><trkpt lat="37.8419267" lon="15.1391667"><ele>553.0</ele><time>2026-04-18T07:13:13.126Z</time></trkpt><trkpt lat="37.8419083" lon="15.1390783"><ele>553.0</ele><time>2026-04-18T07:13:14.126Z</time></trkpt><trkpt lat="37.8418733" lon="15.1389917"><ele>553.0</ele><time>2026-04-18T07:13:15.126Z</time></trkpt><trkpt lat="37.8418383" lon="15.1389083"><ele>553.0</ele><time>2026-04-18T07:13:16.126Z</time></trkpt><trkpt lat="37.841805" lon="15.1388217"><ele>553.0</ele><time>2026-04-18T07:13:17.126Z</time></trkpt><trkpt lat="37.84179" lon="15.1387417"><ele>553.7142857142857</ele><time>2026-04-18T07:13:18.126Z</time></trkpt><trkpt lat="37.84177" lon="15.1386517"><ele>554.4285714285714</ele><time>2026-04-18T07:13:19.126Z</time></trkpt><trkpt lat="37.8417467" lon="15.138575"><ele>555.1428571428571</ele><time>2026-04-18T07:13:20.126Z</time></trkpt><trkpt lat="37.841725" lon="15.1384883"><ele>555.8571428571429</ele><time>2026-04-18T07:13:21.126Z</time></trkpt><trkpt lat="37.8417033" lon="15.138395"><ele>556.5714285714286</ele><time>2026-04-18T07:13:22.126Z</time></trkpt><trkpt lat="37.84168" lon="15.1383067"><ele>557.2857142857142</ele><time>2026-04-18T07:13:23.126Z</time></trkpt><trkpt lat="37.84166" lon="15.1382233"><ele>558.0</ele><time>2026-04-18T07:13:24.126Z</time></trkpt><trkpt lat="37.8416333" lon="15.13813"><ele>558.1666666666666</ele><time>2026-04-18T07:13:25.126Z</time></trkpt><trkpt lat="37.8416067" lon="15.1380383"><ele>558.3333333333334</ele><time>2026-04-18T07:13:26.126Z</time></trkpt><trkpt lat="37.8415883" lon="15.137945"><ele>558.5</ele><time>2026-04-18T07:13:27.126Z</time></trkpt><trkpt lat="37.8415617" lon="15.13786"><ele>558.6666666666667</ele><time>2026-04-18T07:13:28.126Z</time></trkpt><trkpt lat="37.8415233" lon="15.1377617"><ele>558.8333333333334</ele><time>2026-04-18T07:13:29.126Z</time></trkpt><trkpt lat="37.841495" lon="15.13767"><ele>559.0</ele><time>2026-04-18T07:13:30.126Z</time></trkpt><trkpt lat="37.841465" lon="15.1375833"><ele>559.0</ele><time>2026-04-18T07:13:31.126Z</time></trkpt><trkpt lat="37.84144" lon="15.1375017"><ele>559.0</ele><time>2026-04-18T07:13:32.126Z</time></trkpt><trkpt lat="37.841395" lon="15.1373267"><ele>559.0</ele><time>2026-04-18T07:13:34.126Z</time></trkpt><trkpt lat="37.84138" lon="15.137225"><ele>559.0</ele><time>2026-04-18T07:13:35.126Z</time></trkpt><trkpt lat="37.84136" lon="15.1371283"><ele>559.0</ele><time>2026-04-18T07:13:36.126Z</time></trkpt><trkpt lat="37.8413383" lon="15.1370283"><ele>558.8333333333334</ele><time>2026-04-18T07:13:37.126Z</time></trkpt><trkpt lat="37.8413117" lon="15.1369267"><ele>558.6666666666667</ele><time>2026-04-18T07:13:38.126Z</time></trkpt><trkpt lat="37.84128" lon="15.1368283"><ele>558.5</ele><time>2026-04-18T07:13:39.126Z</time></trkpt><trkpt lat="37.8412467" lon="15.136725"><ele>558.3333333333334</ele><time>2026-04-18T07:13:40.126Z</time></trkpt><trkpt lat="37.84122" lon="15.1366117"><ele>558.1666666666666</ele><time>2026-04-18T07:13:41.126Z</time></trkpt><trkpt lat="37.8411983" lon="15.136515"><ele>558.0</ele><time>2026-04-18T07:13:42.126Z</time></trkpt><trkpt lat="37.8411667" lon="15.1364033"><ele>558.0</ele><time>2026-04-18T07:13:43.125Z</time></trkpt><trkpt lat="37.8411383" lon="15.136285"><ele>558.0</ele><time>2026-04-18T07:13:44.126Z</time></trkpt><trkpt lat="37.8411033" lon="15.136165"><ele>558.0</ele><time>2026-04-18T07:13:45.126Z</time></trkpt><trkpt lat="37.84107" lon="15.13603"><ele>558.0</ele><time>2026-04-18T07:13:46.126Z</time></trkpt><trkpt lat="37.8410383" lon="15.1359067"><ele>558.0</ele><time>2026-04-18T07:13:47.126Z</time></trkpt><trkpt lat="37.8410017" lon="15.1357617"><ele>559.0</ele><time>2026-04-18T07:13:48.126Z</time></trkpt><trkpt lat="37.8409733" lon="15.1356117"><ele>560.0</ele><time>2026-04-18T07:13:49.126Z</time></trkpt><trkpt lat="37.84092" lon="15.1354583"><ele>561.0</ele><time>2026-04-18T07:13:50.126Z</time></trkpt><trkpt lat="37.8408767" lon="15.1353083"><ele>562.0</ele><time>2026-04-18T07:13:51.126Z</time></trkpt><trkpt lat="37.84082" lon="15.13515"><ele>563.25</ele><time>2026-04-18T07:13:52.126Z</time></trkpt><trkpt lat="37.840775" lon="15.1349883"><ele>564.5</ele><time>2026-04-18T07:13:53.125Z</time></trkpt><trkpt lat="37.8407333" lon="15.1348217"><ele>565.75</ele><time>2026-04-18T07:13:54.126Z</time></trkpt><trkpt lat="37.8406817" lon="15.1346583"><ele>567.0</ele><time>2026-04-18T07:13:55.126Z</time></trkpt><trkpt lat="37.8406333" lon="15.1344867"><ele>568.25</ele><time>2026-04-18T07:13:56.126Z</time></trkpt><trkpt lat="37.84059" lon="15.1343317"><ele>569.5</ele><time>2026-04-18T07:13:57.125Z</time></trkpt><trkpt lat="37.8405583" lon="15.1341883"><ele>570.75</ele><time>2026-04-18T07:13:58.125Z</time></trkpt><trkpt lat="37.8405167" lon="15.1340417"><ele>572.0</ele><time>2026-04-18T07:13:59.126Z</time></trkpt><trkpt lat="37.84048" lon="15.13392"><ele>572.4</ele><time>2026-04-18T07:14:00.126Z</time></trkpt><trkpt lat="37.8404633" lon="15.1338233"><ele>572.8000000000001</ele><time>2026-04-18T07:14:01.126Z</time></trkpt><trkpt lat="37.8404267" lon="15.1336967"><ele>573.2</ele><time>2026-04-18T07:14:03.126Z</time></trkpt><trkpt lat="37.8404183" lon="15.133605"><ele>573.6</ele><time>2026-04-18T07:14:40.126Z</time></trkpt><trkpt lat="37.8403817" lon="15.1334833"><ele>574.0</ele><time>2026-04-18T07:14:42.126Z</time></trkpt><trkpt lat="37.840355" lon="15.133375"><ele>574.0</ele><time>2026-04-18T07:14:43.126Z</time></trkpt><trkpt lat="37.84032" lon="15.1332417"><ele>574.0</ele><time>2026-04-18T07:14:44.126Z</time></trkpt><trkpt lat="37.840285" lon="15.1331"><ele>574.0</ele><time>2026-04-18T07:14:45.126Z</time></trkpt><trkpt lat="37.8402483" lon="15.132945"><ele>574.0</ele><time>2026-04-18T07:14:46.126Z</time></trkpt><trkpt lat="37.8401983" lon="15.1327767"><ele>574.0</ele><time>2026-04-18T07:14:47.126Z</time></trkpt><trkpt lat="37.84014" lon="15.1325933"><ele>574.0</ele><time>2026-04-18T07:14:48.125Z</time></trkpt><trkpt lat="37.84008" lon="15.1324083"><ele>574.0</ele><time>2026-04-18T07:14:49.126Z</time></trkpt><trkpt lat="37.840025" lon="15.1322067"><ele>575.6666666666667</ele><time>2026-04-18T07:14:50.126Z</time></trkpt><trkpt lat="37.8399717" lon="15.132005"><ele>577.3333333333334</ele><time>2026-04-18T07:14:51.126Z</time></trkpt><trkpt lat="37.8399067" lon="15.13179"><ele>579.0</ele><time>2026-04-18T07:14:52.126Z</time></trkpt><trkpt lat="37.8398417" lon="15.131565"><ele>579.6666666666666</ele><time>2026-04-18T07:14:53.126Z</time></trkpt><trkpt lat="37.8397817" lon="15.1313433"><ele>580.3333333333333</ele><time>2026-04-18T07:14:54.125Z</time></trkpt><trkpt lat="37.83972" lon="15.1311067"><ele>581.0</ele><time>2026-04-18T07:14:55.126Z</time></trkpt><trkpt lat="37.8396483" lon="15.13087"><ele>582.3333333333333</ele><time>2026-04-18T07:14:56.126Z</time></trkpt><trkpt lat="37.8395783" lon="15.130625"><ele>583.6666666666666</ele><time>2026-04-18T07:14:57.126Z</time></trkpt><trkpt lat="37.839515" lon="15.1303817"><ele>585.0</ele><time>2026-04-18T07:14:58.126Z</time></trkpt><trkpt lat="37.839455" lon="15.1301367"><ele>585.3333333333334</ele><time>2026-04-18T07:14:59.126Z</time></trkpt><trkpt lat="37.839385" lon="15.12989"><ele>585.6666666666667</ele><time>2026-04-18T07:15:00.126Z</time></trkpt><trkpt lat="37.839315" lon="15.1296317"><ele>586.0</ele><time>2026-04-18T07:15:01.126Z</time></trkpt><trkpt lat="37.8392483" lon="15.12938"><ele>586.0</ele><time>2026-04-18T07:15:02.125Z</time></trkpt><trkpt lat="37.839175" lon="15.1291217"><ele>586.0</ele><time>2026-04-18T07:15:03.126Z</time></trkpt><trkpt lat="37.8391" lon="15.1288683"><ele>586.0</ele><time>2026-04-18T07:15:04.126Z</time></trkpt><trkpt lat="37.83903" lon="15.1286117"><ele>586.6666666666667</ele><time>2026-04-18T07:15:05.125Z</time></trkpt><trkpt lat="37.8389633" lon="15.1283583"><ele>587.3333333333334</ele><time>2026-04-18T07:15:06.125Z</time></trkpt><trkpt lat="37.8389067" lon="15.1281317"><ele>588.0</ele><time>2026-04-18T07:15:07.126Z</time></trkpt><trkpt lat="37.8388433" lon="15.1279117"><ele>588.6666666666666</ele><time>2026-04-18T07:15:08.126Z</time></trkpt><trkpt lat="37.83879" lon="15.1277033"><ele>589.3333333333333</ele><time>2026-04-18T07:15:09.126Z</time></trkpt><trkpt lat="37.8387367" lon="15.1275133"><ele>590.0</ele><time>2026-04-18T07:15:10.126Z</time></trkpt><trkpt lat="37.8386883" lon="15.1273217"><ele>591.0</ele><time>2026-04-18T07:15:11.126Z</time></trkpt><trkpt lat="37.8386433" lon="15.1271433"><ele>592.0</ele><time>2026-04-18T07:15:12.126Z</time></trkpt><trkpt lat="37.838595" lon="15.1269583"><ele>593.0</ele><time>2026-04-18T07:15:13.126Z</time></trkpt><trkpt lat="37.8385367" lon="15.126755"><ele>593.0</ele><time>2026-04-18T07:15:14.126Z</time></trkpt><trkpt lat="37.8384817" lon="15.1265367"><ele>593.0</ele><time>2026-04-18T07:15:15.126Z</time></trkpt><trkpt lat="37.8384183" lon="15.126305"><ele>593.0</ele><time>2026-04-18T07:15:16.126Z</time></trkpt><trkpt lat="37.8383483" lon="15.1260633"><ele>593.3333333333333</ele><time>2026-04-18T07:15:17.126Z</time></trkpt><trkpt lat="37.8382833" lon="15.125815"><ele>593.6666666666666</ele><time>2026-04-18T07:15:18.126Z</time></trkpt><trkpt lat="37.8382133" lon="15.125555"><ele>594.0</ele><time>2026-04-18T07:15:19.126Z</time></trkpt><trkpt lat="37.8381467" lon="15.12529"><ele>594.0</ele><time>2026-04-18T07:15:20.126Z</time></trkpt><trkpt lat="37.8380733" lon="15.125015"><ele>594.0</ele><time>2026-04-18T07:15:21.126Z</time></trkpt><trkpt lat="37.837995" lon="15.1247433"><ele>595.6666666666666</ele><time>2026-04-18T07:15:22.125Z</time></trkpt><trkpt lat="37.83792" lon="15.1244717"><ele>597.3333333333333</ele><time>2026-04-18T07:15:23.126Z</time></trkpt><trkpt lat="37.8378483" lon="15.1242067"><ele>599.0</ele><time>2026-04-18T07:15:24.125Z</time></trkpt><trkpt lat="37.8377717" lon="15.123945"><ele>602.0</ele><time>2026-04-18T07:15:25.125Z</time></trkpt><trkpt lat="37.837695" lon="15.123705"><ele>605.0</ele><time>2026-04-18T07:15:26.126Z</time></trkpt><trkpt lat="37.8376283" lon="15.12348"><ele>608.0</ele><time>2026-04-18T07:15:27.125Z</time></trkpt><trkpt lat="37.8375633" lon="15.1232667"><ele>609.0</ele><time>2026-04-18T07:15:28.126Z</time></trkpt><trkpt lat="37.8374783" lon="15.1230717"><ele>610.0</ele><time>2026-04-18T07:15:29.126Z</time></trkpt><trkpt lat="37.83737" lon="15.1228833"><ele>611.0</ele><time>2026-04-18T07:15:30.126Z</time></trkpt><trkpt lat="37.8372333" lon="15.1227033"><ele>611.0</ele><time>2026-04-18T07:15:31.126Z</time></trkpt><trkpt lat="37.8370967" lon="15.12253"><ele>611.0</ele><time>2026-04-18T07:15:32.126Z</time></trkpt><trkpt lat="37.8369717" lon="15.1223633"><ele>611.0</ele><time>2026-04-18T07:15:33.126Z</time></trkpt><trkpt lat="37.8368617" lon="15.1221983"><ele>612.75</ele><time>2026-04-18T07:15:34.126Z</time></trkpt><trkpt lat="37.8367783" lon="15.1220567"><ele>614.5</ele><time>2026-04-18T07:15:35.126Z</time></trkpt><trkpt lat="37.8367233" lon="15.12188"><ele>616.25</ele><time>2026-04-18T07:15:36.126Z</time></trkpt><trkpt lat="37.8366833" lon="15.121685"><ele>618.0</ele><time>2026-04-18T07:15:37.126Z</time></trkpt><trkpt lat="37.8366533" lon="15.1214733"><ele>620.0</ele><time>2026-04-18T07:15:38.126Z</time></trkpt><trkpt lat="37.8366233" lon="15.1212417"><ele>622.0</ele><time>2026-04-18T07:15:39.126Z</time></trkpt><trkpt lat="37.8366" lon="15.1210067"><ele>624.0</ele><time>2026-04-18T07:15:40.126Z</time></trkpt><trkpt lat="37.836575" lon="15.1207967"><ele>625.5</ele><time>2026-04-18T07:15:41.126Z</time></trkpt><trkpt lat="37.836545" lon="15.1205967"><ele>627.0</ele><time>2026-04-18T07:15:42.126Z</time></trkpt><trkpt lat="37.8365217" lon="15.120425"><ele>628.5</ele><time>2026-04-18T07:15:43.126Z</time></trkpt><trkpt lat="37.8365183" lon="15.120255"><ele>630.0</ele><time>2026-04-18T07:15:44.126Z</time></trkpt><trkpt lat="37.836535" lon="15.1200967"><ele>630.0</ele><time>2026-04-18T07:15:45.126Z</time></trkpt><trkpt lat="37.8365983" lon="15.1199533"><ele>630.0</ele><time>2026-04-18T07:15:46.126Z</time></trkpt><trkpt lat="37.836695" lon="15.1198283"><ele>630.0</ele><time>2026-04-18T07:15:47.125Z</time></trkpt><trkpt lat="37.836815" lon="15.119745"><ele>630.0</ele><time>2026-04-18T07:15:48.126Z</time></trkpt><trkpt lat="37.836975" lon="15.1196967"><ele>633.0</ele><time>2026-04-18T07:15:49.126Z</time></trkpt><trkpt lat="37.8371433" lon="15.11966"><ele>636.0</ele><time>2026-04-18T07:15:50.126Z</time></trkpt><trkpt lat="37.837315" lon="15.1196417"><ele>639.0</ele><time>2026-04-18T07:15:51.126Z</time></trkpt><trkpt lat="37.83748" lon="15.1196567"><ele>641.0</ele><time>2026-04-18T07:15:52.126Z</time></trkpt><trkpt lat="37.8376433" lon="15.1197067"><ele>643.0</ele><time>2026-04-18T07:15:53.126Z</time></trkpt><trkpt lat="37.8377883" lon="15.119745"><ele>645.0</ele><time>2026-04-18T07:15:54.126Z</time></trkpt><trkpt lat="37.83794" lon="15.1197567"><ele>645.0</ele><time>2026-04-18T07:15:55.126Z</time></trkpt><trkpt lat="37.8380733" lon="15.1197317"><ele>645.0</ele><time>2026-04-18T07:15:56.125Z</time></trkpt><trkpt lat="37.8381883" lon="15.119655"><ele>645.0</ele><time>2026-04-18T07:15:57.125Z</time></trkpt><trkpt lat="37.8383117" lon="15.119545"><ele>645.0</ele><time>2026-04-18T07:15:58.126Z</time></trkpt><trkpt lat="37.838435" lon="15.11942"><ele>644.75</ele><time>2026-04-18T07:15:59.126Z</time></trkpt><trkpt lat="37.83854" lon="15.119285"><ele>644.5</ele><time>2026-04-18T07:16:00.126Z</time></trkpt><trkpt lat="37.8386217" lon="15.119145"><ele>644.25</ele><time>2026-04-18T07:16:01.126Z</time></trkpt><trkpt lat="37.8386717" lon="15.1189667"><ele>644.0</ele><time>2026-04-18T07:16:02.126Z</time></trkpt><trkpt lat="37.8386883" lon="15.118755"><ele>644.0</ele><time>2026-04-18T07:16:03.125Z</time></trkpt><trkpt lat="37.83869" lon="15.1185117"><ele>644.0</ele><time>2026-04-18T07:16:04.126Z</time></trkpt><trkpt lat="37.8386917" lon="15.1182233"><ele>644.0</ele><time>2026-04-18T07:16:05.126Z</time></trkpt><trkpt lat="37.8386967" lon="15.117915"><ele>646.6666666666666</ele><time>2026-04-18T07:16:06.126Z</time></trkpt><trkpt lat="37.8387017" lon="15.1176267"><ele>649.3333333333334</ele><time>2026-04-18T07:16:07.126Z</time></trkpt><trkpt lat="37.83871" lon="15.117375"><ele>652.0</ele><time>2026-04-18T07:16:08.126Z</time></trkpt><trkpt lat="37.8387083" lon="15.1171483"><ele>653.3333333333334</ele><time>2026-04-18T07:16:09.126Z</time></trkpt><trkpt lat="37.8386733" lon="15.1169467"><ele>654.6666666666666</ele><time>2026-04-18T07:16:10.126Z</time></trkpt><trkpt lat="37.8385967" lon="15.1167783"><ele>656.0</ele><time>2026-04-18T07:16:11.126Z</time></trkpt><trkpt lat="37.8384633" lon="15.1166267"><ele>658.6666666666666</ele><time>2026-04-18T07:16:12.124Z</time></trkpt><trkpt lat="37.83831" lon="15.1164783"><ele>661.3333333333334</ele><time>2026-04-18T07:16:13.126Z</time></trkpt><trkpt lat="37.8381567" lon="15.1163283"><ele>664.0</ele><time>2026-04-18T07:16:14.126Z</time></trkpt><trkpt lat="37.8380117" lon="15.1161683"><ele>664.0</ele><time>2026-04-18T07:16:15.126Z</time></trkpt><trkpt lat="37.8378783" lon="15.116"><ele>664.0</ele><time>2026-04-18T07:16:16.126Z</time></trkpt><trkpt lat="37.8377667" lon="15.1158333"><ele>664.0</ele><time>2026-04-18T07:16:17.126Z</time></trkpt><trkpt lat="37.8376683" lon="15.1156733"><ele>666.5</ele><time>2026-04-18T07:16:18.126Z</time></trkpt><trkpt lat="37.8375767" lon="15.1155167"><ele>669.0</ele><time>2026-04-18T07:16:19.126Z</time></trkpt><trkpt lat="37.8374917" lon="15.115375"><ele>671.5</ele><time>2026-04-18T07:16:20.126Z</time></trkpt><trkpt lat="37.83741" lon="15.1152467"><ele>674.0</ele><time>2026-04-18T07:16:21.126Z</time></trkpt><trkpt lat="37.8373267" lon="15.11512"><ele>674.0</ele><time>2026-04-18T07:16:22.126Z</time></trkpt><trkpt lat="37.8372383" lon="15.1149833"><ele>674.0</ele><time>2026-04-18T07:16:23.126Z</time></trkpt><trkpt lat="37.83715" lon="15.1148183"><ele>674.0</ele><time>2026-04-18T07:16:24.126Z</time></trkpt><trkpt lat="37.8370683" lon="15.11462"><ele>674.6666666666666</ele><time>2026-04-18T07:16:25.126Z</time></trkpt><trkpt lat="37.83698" lon="15.1143867"><ele>675.3333333333334</ele><time>2026-04-18T07:16:26.126Z</time></trkpt><trkpt lat="37.8368783" lon="15.11413"><ele>676.0</ele><time>2026-04-18T07:16:27.126Z</time></trkpt><trkpt lat="37.83676" lon="15.11385"><ele>680.0</ele><time>2026-04-18T07:16:28.126Z</time></trkpt><trkpt lat="37.8366283" lon="15.1135417"><ele>684.0</ele><time>2026-04-18T07:16:29.126Z</time></trkpt><trkpt lat="37.8365017" lon="15.11323"><ele>686.0</ele><time>2026-04-18T07:16:30.126Z</time></trkpt><trkpt lat="37.8363767" lon="15.1129417"><ele>688.0</ele><time>2026-04-18T07:16:31.126Z</time></trkpt><trkpt lat="37.836265" lon="15.11268"><ele>688.0</ele><time>2026-04-18T07:16:32.126Z</time></trkpt><trkpt lat="37.8361483" lon="15.1124283"><ele>688.0</ele><time>2026-04-18T07:16:33.126Z</time></trkpt><trkpt lat="37.8360283" lon="15.1121833"><ele>690.5</ele><time>2026-04-18T07:16:34.126Z</time></trkpt><trkpt lat="37.8358967" lon="15.1119383"><ele>693.0</ele><time>2026-04-18T07:16:35.126Z</time></trkpt><trkpt lat="37.8357567" lon="15.1117117"><ele>694.0</ele><time>2026-04-18T07:16:36.126Z</time></trkpt><trkpt lat="37.83562" lon="15.1115"><ele>695.0</ele><time>2026-04-18T07:16:37.126Z</time></trkpt><trkpt lat="37.8354983" lon="15.1113033"><ele>696.0</ele><time>2026-04-18T07:16:38.126Z</time></trkpt><trkpt lat="37.8353883" lon="15.1111267"><ele>696.0</ele><time>2026-04-18T07:16:39.125Z</time></trkpt><trkpt lat="37.835265" lon="15.110995"><ele>696.0</ele><time>2026-04-18T07:16:40.126Z</time></trkpt><trkpt lat="37.83512" lon="15.1108917"><ele>696.0</ele><time>2026-04-18T07:16:41.126Z</time></trkpt><trkpt lat="37.83495" lon="15.1108033"><ele>699.3333333333334</ele><time>2026-04-18T07:16:42.126Z</time></trkpt><trkpt lat="37.83478" lon="15.1107183"><ele>702.6666666666667</ele><time>2026-04-18T07:16:43.126Z</time></trkpt><trkpt lat="37.8346083" lon="15.1106233"><ele>706.0</ele><time>2026-04-18T07:16:44.126Z</time></trkpt><trkpt lat="37.8344467" lon="15.110515"><ele>706.0</ele><time>2026-04-18T07:16:45.126Z</time></trkpt><trkpt lat="37.834305" lon="15.110405"><ele>706.0</ele><time>2026-04-18T07:16:46.126Z</time></trkpt><trkpt lat="37.8341717" lon="15.110285"><ele>706.0</ele><time>2026-04-18T07:16:47.126Z</time></trkpt><trkpt lat="37.8340567" lon="15.1101483"><ele>706.5</ele><time>2026-04-18T07:16:48.126Z</time></trkpt><trkpt lat="37.833955" lon="15.1100033"><ele>707.0</ele><time>2026-04-18T07:16:49.126Z</time></trkpt><trkpt lat="37.8338667" lon="15.10985"><ele>707.5</ele><time>2026-04-18T07:16:50.126Z</time></trkpt><trkpt lat="37.8337883" lon="15.1096933"><ele>708.0</ele><time>2026-04-18T07:16:51.125Z</time></trkpt><trkpt lat="37.833725" lon="15.1095483"><ele>709.0</ele><time>2026-04-18T07:16:52.126Z</time></trkpt><trkpt lat="37.8336617" lon="15.1094"><ele>710.0</ele><time>2026-04-18T07:16:53.126Z</time></trkpt><trkpt lat="37.8335983" lon="15.1092517"><ele>711.0</ele><time>2026-04-18T07:16:54.126Z</time></trkpt><trkpt lat="37.8335233" lon="15.1091033"><ele>712.0</ele><time>2026-04-18T07:16:55.126Z</time></trkpt><trkpt lat="37.8334367" lon="15.10895"><ele>713.25</ele><time>2026-04-18T07:16:56.125Z</time></trkpt><trkpt lat="37.83335" lon="15.1088"><ele>714.5</ele><time>2026-04-18T07:16:57.126Z</time></trkpt><trkpt lat="37.8332667" lon="15.1086567"><ele>715.75</ele><time>2026-04-18T07:16:58.126Z</time></trkpt><trkpt lat="37.833185" lon="15.1085233"><ele>717.0</ele><time>2026-04-18T07:16:59.126Z</time></trkpt><trkpt lat="37.8331133" lon="15.1083983"><ele>717.0</ele><time>2026-04-18T07:17:00.126Z</time></trkpt><trkpt lat="37.8330417" lon="15.1082883"><ele>717.0</ele><time>2026-04-18T07:17:01.126Z</time></trkpt><trkpt lat="37.83298" lon="15.1081917"><ele>717.0</ele><time>2026-04-18T07:17:02.126Z</time></trkpt><trkpt lat="37.8329217" lon="15.1081017"><ele>717.0</ele><time>2026-04-18T07:17:03.126Z</time></trkpt><trkpt lat="37.8328483" lon="15.1080183"><ele>717.0</ele><time>2026-04-18T07:17:04.126Z</time></trkpt><trkpt lat="37.8327667" lon="15.10797"><ele>720.0</ele><time>2026-04-18T07:17:05.126Z</time></trkpt><trkpt lat="37.8326733" lon="15.1079483"><ele>723.0</ele><time>2026-04-18T07:17:06.126Z</time></trkpt><trkpt lat="37.83258" lon="15.1079733"><ele>726.0</ele><time>2026-04-18T07:17:07.126Z</time></trkpt><trkpt lat="37.83248" lon="15.1080583"><ele>729.0</ele><time>2026-04-18T07:17:08.126Z</time></trkpt><trkpt lat="37.8323583" lon="15.108185"><ele>727.6666666666666</ele><time>2026-04-18T07:17:09.126Z</time></trkpt><trkpt lat="37.8322217" lon="15.10831"><ele>726.3333333333333</ele><time>2026-04-18T07:17:10.126Z</time></trkpt><trkpt lat="37.8320833" lon="15.1084083"><ele>725.0</ele><time>2026-04-18T07:17:11.125Z</time></trkpt><trkpt lat="37.8319467" lon="15.1084567"><ele>729.0</ele><time>2026-04-18T07:17:12.125Z</time></trkpt><trkpt lat="37.8318017" lon="15.10846"><ele>733.0</ele><time>2026-04-18T07:17:13.126Z</time></trkpt><trkpt lat="37.831645" lon="15.1084017"><ele>737.0</ele><time>2026-04-18T07:17:14.126Z</time></trkpt><trkpt lat="37.83146" lon="15.1083267"><ele>737.0</ele><time>2026-04-18T07:17:15.126Z</time></trkpt><trkpt lat="37.83126" lon="15.1082483"><ele>737.0</ele><time>2026-04-18T07:17:16.126Z</time></trkpt><trkpt lat="37.8310367" lon="15.1081867"><ele>737.0</ele><time>2026-04-18T07:17:17.125Z</time></trkpt><trkpt lat="37.8308067" lon="15.10817"><ele>744.5</ele><time>2026-04-18T07:17:18.126Z</time></trkpt><trkpt lat="37.8305583" lon="15.1081783"><ele>752.0</ele><time>2026-04-18T07:17:19.126Z</time></trkpt><trkpt lat="37.8302967" lon="15.1082133"><ele>751.5</ele><time>2026-04-18T07:17:20.126Z</time></trkpt><trkpt lat="37.8300367" lon="15.1082583"><ele>751.0</ele><time>2026-04-18T07:17:21.126Z</time></trkpt><trkpt lat="37.8298167" lon="15.1082983"><ele>751.0</ele><time>2026-04-18T07:17:22.126Z</time></trkpt><trkpt lat="37.829625" lon="15.10835"><ele>751.0</ele><time>2026-04-18T07:17:23.126Z</time></trkpt><trkpt lat="37.82945" lon="15.108425"><ele>751.0</ele><time>2026-04-18T07:17:24.126Z</time></trkpt><trkpt lat="37.8292833" lon="15.1085417"><ele>751.6666666666667</ele><time>2026-04-18T07:17:25.126Z</time></trkpt><trkpt lat="37.8291333" lon="15.1087017"><ele>752.3333333333334</ele><time>2026-04-18T07:17:26.126Z</time></trkpt><trkpt lat="37.8289883" lon="15.1088983"><ele>753.0</ele><time>2026-04-18T07:17:27.126Z</time></trkpt><trkpt lat="37.8288317" lon="15.1091383"><ele>753.0</ele><time>2026-04-18T07:17:28.126Z</time></trkpt><trkpt lat="37.828655" lon="15.109405"><ele>753.0</ele><time>2026-04-18T07:17:29.126Z</time></trkpt><trkpt lat="37.828455" lon="15.109655"><ele>756.0</ele><time>2026-04-18T07:17:30.126Z</time></trkpt><trkpt lat="37.8282483" lon="15.1098867"><ele>759.0</ele><time>2026-04-18T07:17:31.126Z</time></trkpt><trkpt lat="37.8280267" lon="15.1101083"><ele>759.0</ele><time>2026-04-18T07:17:32.126Z</time></trkpt><trkpt lat="37.8277817" lon="15.11032"><ele>759.0</ele><time>2026-04-18T07:17:33.126Z</time></trkpt><trkpt lat="37.82753" lon="15.1105367"><ele>761.0</ele><time>2026-04-18T07:17:34.126Z</time></trkpt><trkpt lat="37.827295" lon="15.1107283"><ele>763.0</ele><time>2026-04-18T07:17:35.126Z</time></trkpt><trkpt lat="37.827085" lon="15.1109083"><ele>763.0</ele><time>2026-04-18T07:17:36.126Z</time></trkpt><trkpt lat="37.8268917" lon="15.11106"><ele>763.0</ele><time>2026-04-18T07:17:37.125Z</time></trkpt><trkpt lat="37.8267133" lon="15.1111983"><ele>763.0</ele><time>2026-04-18T07:17:38.126Z</time></trkpt><trkpt lat="37.82657" lon="15.1113267"><ele>765.25</ele><time>2026-04-18T07:17:39.126Z</time></trkpt><trkpt lat="37.8264367" lon="15.111445"><ele>767.5</ele><time>2026-04-18T07:17:40.125Z</time></trkpt><trkpt lat="37.826335" lon="15.1115633"><ele>769.75</ele><time>2026-04-18T07:17:41.126Z</time></trkpt><trkpt lat="37.8262583" lon="15.1117"><ele>772.0</ele><time>2026-04-18T07:17:42.126Z</time></trkpt><trkpt lat="37.826225" lon="15.1118667"><ele>772.0</ele><time>2026-04-18T07:17:43.126Z</time></trkpt><trkpt lat="37.8262267" lon="15.112015"><ele>772.0</ele><time>2026-04-18T07:17:44.126Z</time></trkpt><trkpt lat="37.8262367" lon="15.1121533"><ele>772.0</ele><time>2026-04-18T07:17:45.126Z</time></trkpt><trkpt lat="37.8262183" lon="15.1122733"><ele>772.0</ele><time>2026-04-18T07:17:46.126Z</time></trkpt><trkpt lat="37.8261617" lon="15.1123483"><ele>772.0</ele><time>2026-04-18T07:17:47.126Z</time></trkpt><trkpt lat="37.82608" lon="15.11239"><ele>771.6666666666666</ele><time>2026-04-18T07:17:48.125Z</time></trkpt><trkpt lat="37.8259967" lon="15.11241"><ele>771.3333333333333</ele><time>2026-04-18T07:17:49.126Z</time></trkpt><trkpt lat="37.8259067" lon="15.1124233"><ele>771.0</ele><time>2026-04-18T07:17:50.126Z</time></trkpt><trkpt lat="37.8258167" lon="15.1124417"><ele>770.6666666666667</ele><time>2026-04-18T07:17:51.126Z</time></trkpt><trkpt lat="37.8257283" lon="15.11244"><ele>770.3333333333334</ele><time>2026-04-18T07:17:52.126Z</time></trkpt><trkpt lat="37.82565" lon="15.1124183"><ele>770.0</ele><time>2026-04-18T07:17:53.126Z</time></trkpt><trkpt lat="37.82558" lon="15.1123733"><ele>774.0000000000001</ele><time>2026-04-18T07:17:54.126Z</time></trkpt><trkpt lat="37.8255283" lon="15.1122983"><ele>778.0</ele><time>2026-04-18T07:17:55.126Z</time></trkpt><trkpt lat="37.8255017" lon="15.1122067"><ele>782.0</ele><time>2026-04-18T07:17:56.126Z</time></trkpt><trkpt lat="37.8255083" lon="15.1121067"><ele>786.0</ele><time>2026-04-18T07:17:57.126Z</time></trkpt><trkpt lat="37.82555" lon="15.112015"><ele>790.0000000000001</ele><time>2026-04-18T07:17:58.126Z</time></trkpt><trkpt lat="37.825615" lon="15.11193"><ele>794.0</ele><time>2026-04-18T07:17:59.126Z</time></trkpt><trkpt lat="37.8256917" lon="15.11185"><ele>794.0000000000001</ele><time>2026-04-18T07:18:00.126Z</time></trkpt><trkpt lat="37.8257667" lon="15.1117717"><ele>794.0</ele><time>2026-04-18T07:18:01.126Z</time></trkpt><trkpt lat="37.8258267" lon="15.1116917"><ele>794.0</ele><time>2026-04-18T07:18:02.126Z</time></trkpt><trkpt lat="37.8258733" lon="15.111605"><ele>794.0</ele><time>2026-04-18T07:18:03.126Z</time></trkpt><trkpt lat="37.8259083" lon="15.1115117"><ele>794.0000000000001</ele><time>2026-04-18T07:18:04.126Z</time></trkpt><trkpt lat="37.8259267" lon="15.1114083"><ele>794.0</ele><time>2026-04-18T07:18:05.126Z</time></trkpt><trkpt lat="37.8259283" lon="15.111305"><ele>794.6</ele><time>2026-04-18T07:18:06.125Z</time></trkpt><trkpt lat="37.8259133" lon="15.1111933"><ele>795.2</ele><time>2026-04-18T07:18:07.126Z</time></trkpt><trkpt lat="37.8258833" lon="15.111085"><ele>795.8000000000001</ele><time>2026-04-18T07:18:08.126Z</time></trkpt><trkpt lat="37.8258233" lon="15.1109733"><ele>796.4000000000001</ele><time>2026-04-18T07:18:09.125Z</time></trkpt><trkpt lat="37.8257317" lon="15.11083"><ele>797.0</ele><time>2026-04-18T07:18:10.126Z</time></trkpt><trkpt lat="37.8256167" lon="15.110665"><ele>798.0</ele><time>2026-04-18T07:18:11.126Z</time></trkpt><trkpt lat="37.8254917" lon="15.110475"><ele>799.0</ele><time>2026-04-18T07:18:12.126Z</time></trkpt><trkpt lat="37.82536" lon="15.110265"><ele>800.0</ele><time>2026-04-18T07:18:13.126Z</time></trkpt><trkpt lat="37.8252333" lon="15.11007"><ele>804.3333333333334</ele><time>2026-04-18T07:18:14.126Z</time></trkpt><trkpt lat="37.82512" lon="15.1098983"><ele>808.6666666666667</ele><time>2026-04-18T07:18:15.126Z</time></trkpt><trkpt lat="37.8250183" lon="15.109735"><ele>813.0</ele><time>2026-04-18T07:18:16.126Z</time></trkpt><trkpt lat="37.8249417" lon="15.1095683"><ele>813.0</ele><time>2026-04-18T07:18:17.126Z</time></trkpt><trkpt lat="37.8248883" lon="15.109395"><ele>813.0</ele><time>2026-04-18T07:18:18.126Z</time></trkpt><trkpt lat="37.82488" lon="15.1091883"><ele>813.0</ele><time>2026-04-18T07:18:19.126Z</time></trkpt><trkpt lat="37.8249017" lon="15.1089783"><ele>816.0</ele><time>2026-04-18T07:18:20.126Z</time></trkpt><trkpt lat="37.8249483" lon="15.1087583"><ele>819.0</ele><time>2026-04-18T07:18:21.126Z</time></trkpt><trkpt lat="37.8250033" lon="15.1085267"><ele>822.0</ele><time>2026-04-18T07:18:22.126Z</time></trkpt><trkpt lat="37.825055" lon="15.1083033"><ele>823.0</ele><time>2026-04-18T07:18:23.125Z</time></trkpt><trkpt lat="37.8250983" lon="15.10811"><ele>824.0</ele><time>2026-04-18T07:18:24.126Z</time></trkpt><trkpt lat="37.8251517" lon="15.1079367"><ele>825.0</ele><time>2026-04-18T07:18:25.126Z</time></trkpt><trkpt lat="37.825225" lon="15.10779"><ele>826.0</ele><time>2026-04-18T07:18:26.126Z</time></trkpt><trkpt lat="37.8253333" lon="15.1076783"><ele>826.0</ele><time>2026-04-18T07:18:27.125Z</time></trkpt><trkpt lat="37.82547" lon="15.1075733"><ele>826.0</ele><time>2026-04-18T07:18:28.125Z</time></trkpt><trkpt lat="37.8255967" lon="15.1074417"><ele>826.0</ele><time>2026-04-18T07:18:29.125Z</time></trkpt><trkpt lat="37.8257133" lon="15.1072717"><ele>826.0</ele><time>2026-04-18T07:18:30.125Z</time></trkpt><trkpt lat="37.825825" lon="15.107095"><ele>826.0</ele><time>2026-04-18T07:18:31.125Z</time></trkpt><trkpt lat="37.825915" lon="15.10693"><ele>826.0</ele><time>2026-04-18T07:18:32.125Z</time></trkpt><trkpt lat="37.825995" lon="15.10677"><ele>826.0</ele><time>2026-04-18T07:18:33.125Z</time></trkpt><trkpt lat="37.826055" lon="15.1066267"><ele>826.0</ele><time>2026-04-18T07:18:34.125Z</time></trkpt><trkpt lat="37.8260817" lon="15.1064633"><ele>826.0</ele><time>2026-04-18T07:18:35.125Z</time></trkpt><trkpt lat="37.8260683" lon="15.1062867"><ele>826.0</ele><time>2026-04-18T07:18:36.125Z</time></trkpt><trkpt lat="37.8260433" lon="15.1061067"><ele>827.5</ele><time>2026-04-18T07:18:37.125Z</time></trkpt><trkpt lat="37.8260417" lon="15.1059333"><ele>829.0</ele><time>2026-04-18T07:18:38.125Z</time></trkpt><trkpt lat="37.8260867" lon="15.1057817"><ele>830.5</ele><time>2026-04-18T07:18:39.124Z</time></trkpt><trkpt lat="37.826165" lon="15.10565"><ele>832.0</ele><time>2026-04-18T07:18:40.125Z</time></trkpt><trkpt lat="37.8262767" lon="15.1055633"><ele>835.0</ele><time>2026-04-18T07:18:41.125Z</time></trkpt><trkpt lat="37.8264067" lon="15.105515"><ele>838.0</ele><time>2026-04-18T07:18:42.125Z</time></trkpt><trkpt lat="37.8265267" lon="15.1054867"><ele>841.0</ele><time>2026-04-18T07:18:43.125Z</time></trkpt><trkpt lat="37.82663" lon="15.1054267"><ele>844.0</ele><time>2026-04-18T07:18:44.125Z</time></trkpt><trkpt lat="37.8267083" lon="15.1053267"><ele>844.0</ele><time>2026-04-18T07:18:45.125Z</time></trkpt><trkpt lat="37.8267567" lon="15.1051933"><ele>844.0</ele><time>2026-04-18T07:18:46.125Z</time></trkpt><trkpt lat="37.8267467" lon="15.1050467"><ele>844.0</ele><time>2026-04-18T07:18:47.125Z</time></trkpt><trkpt lat="37.8266967" lon="15.1049133"><ele>844.0</ele><time>2026-04-18T07:18:48.125Z</time></trkpt><trkpt lat="37.826605" lon="15.10481"><ele>844.0</ele><time>2026-04-18T07:18:49.125Z</time></trkpt><trkpt lat="37.82649" lon="15.1047617"><ele>844.0</ele><time>2026-04-18T07:18:50.125Z</time></trkpt><trkpt lat="37.826365" lon="15.1047683"><ele>844.0</ele><time>2026-04-18T07:18:51.125Z</time></trkpt><trkpt lat="37.826255" lon="15.10484"><ele>844.0</ele><time>2026-04-18T07:18:52.125Z</time></trkpt><trkpt lat="37.826155" lon="15.1049767"><ele>844.0</ele><time>2026-04-18T07:18:53.124Z</time></trkpt><trkpt lat="37.8260317" lon="15.1051433"><ele>844.0</ele><time>2026-04-18T07:18:54.125Z</time></trkpt><trkpt lat="37.8258933" lon="15.1053283"><ele>844.0</ele><time>2026-04-18T07:18:55.125Z</time></trkpt><trkpt lat="37.8257567" lon="15.1055017"><ele>844.6666666666666</ele><time>2026-04-18T07:18:56.125Z</time></trkpt><trkpt lat="37.825635" lon="15.1056483"><ele>845.3333333333333</ele><time>2026-04-18T07:18:57.125Z</time></trkpt><trkpt lat="37.825515" lon="15.1057783"><ele>846.0</ele><time>2026-04-18T07:18:58.125Z</time></trkpt><trkpt lat="37.8253917" lon="15.105835"><ele>846.0</ele><time>2026-04-18T07:18:59.125Z</time></trkpt><trkpt lat="37.8252567" lon="15.10583"><ele>846.0</ele><time>2026-04-18T07:19:00.125Z</time></trkpt><trkpt lat="37.825115" lon="15.105815"><ele>846.0</ele><time>2026-04-18T07:19:01.125Z</time></trkpt><trkpt lat="37.8249633" lon="15.1058"><ele>846.0</ele><time>2026-04-18T07:19:02.125Z</time></trkpt><trkpt lat="37.8248017" lon="15.1058"><ele>851.0</ele><time>2026-04-18T07:19:03.124Z</time></trkpt><trkpt lat="37.824635" lon="15.1058417"><ele>856.0</ele><time>2026-04-18T07:19:04.125Z</time></trkpt><trkpt lat="37.8244617" lon="15.1059167"><ele>861.0</ele><time>2026-04-18T07:19:05.125Z</time></trkpt><trkpt lat="37.824295" lon="15.106025"><ele>866.6666666666667</ele><time>2026-04-18T07:19:06.125Z</time></trkpt><trkpt lat="37.8241483" lon="15.1061517"><ele>872.3333333333334</ele><time>2026-04-18T07:19:07.125Z</time></trkpt><trkpt lat="37.8240383" lon="15.10629"><ele>878.0</ele><time>2026-04-18T07:19:08.125Z</time></trkpt><trkpt lat="37.823935" lon="15.10641"><ele>878.0</ele><time>2026-04-18T07:19:09.125Z</time></trkpt><trkpt lat="37.8238383" lon="15.10648"><ele>878.0</ele><time>2026-04-18T07:19:10.125Z</time></trkpt><trkpt lat="37.8237117" lon="15.1064783"><ele>878.0</ele><time>2026-04-18T07:19:11.125Z</time></trkpt><trkpt lat="37.8235667" lon="15.1064333"><ele>878.0</ele><time>2026-04-18T07:19:12.125Z</time></trkpt><trkpt lat="37.8233933" lon="15.10637"><ele>882.0</ele><time>2026-04-18T07:19:13.125Z</time></trkpt><trkpt lat="37.823205" lon="15.1062967"><ele>886.0</ele><time>2026-04-18T07:19:14.125Z</time></trkpt><trkpt lat="37.8230167" lon="15.1062217"><ele>890.0</ele><time>2026-04-18T07:19:15.125Z</time></trkpt><trkpt lat="37.8228533" lon="15.10617"><ele>890.0</ele><time>2026-04-18T07:19:16.125Z</time></trkpt><trkpt lat="37.8227017" lon="15.1061517"><ele>890.0</ele><time>2026-04-18T07:19:17.125Z</time></trkpt><trkpt lat="37.82256" lon="15.1061733"><ele>890.0</ele><time>2026-04-18T07:19:18.125Z</time></trkpt><trkpt lat="37.82242" lon="15.1062467"><ele>890.0</ele><time>2026-04-18T07:19:19.125Z</time></trkpt><trkpt lat="37.8222883" lon="15.1063583"><ele>887.6666666666667</ele><time>2026-04-18T07:19:20.125Z</time></trkpt><trkpt lat="37.82218" lon="15.1065017"><ele>885.3333333333333</ele><time>2026-04-18T07:19:21.124Z</time></trkpt><trkpt lat="37.82209" lon="15.1066683"><ele>883.0</ele><time>2026-04-18T07:19:22.125Z</time></trkpt><trkpt lat="37.8220217" lon="15.106835"><ele>883.0</ele><time>2026-04-18T07:19:23.125Z</time></trkpt><trkpt lat="37.8219517" lon="15.1069883"><ele>883.0</ele><time>2026-04-18T07:19:24.125Z</time></trkpt><trkpt lat="37.821865" lon="15.10712"><ele>883.0</ele><time>2026-04-18T07:19:25.125Z</time></trkpt><trkpt lat="37.8217517" lon="15.107235"><ele>883.0</ele><time>2026-04-18T07:19:26.125Z</time></trkpt><trkpt lat="37.8216267" lon="15.1073183"><ele>888.0</ele><time>2026-04-18T07:19:27.125Z</time></trkpt><trkpt lat="37.821485" lon="15.107355"><ele>893.0</ele><time>2026-04-18T07:19:28.125Z</time></trkpt><trkpt lat="37.8213317" lon="15.1073533"><ele>898.0</ele><time>2026-04-18T07:19:29.125Z</time></trkpt><trkpt lat="37.8212017" lon="15.1073033"><ele>903.0</ele><time>2026-04-18T07:19:30.125Z</time></trkpt><trkpt lat="37.8210717" lon="15.1072117"><ele>906.3333333333333</ele><time>2026-04-18T07:19:31.125Z</time></trkpt><trkpt lat="37.8209217" lon="15.1070983"><ele>909.6666666666666</ele><time>2026-04-18T07:19:32.125Z</time></trkpt><trkpt lat="37.8207467" lon="15.1069617"><ele>913.0</ele><time>2026-04-18T07:19:33.125Z</time></trkpt><trkpt lat="37.8205517" lon="15.1068217"><ele>913.0</ele><time>2026-04-18T07:19:34.125Z</time></trkpt><trkpt lat="37.8203617" lon="15.1066667"><ele>913.0</ele><time>2026-04-18T07:19:35.125Z</time></trkpt><trkpt lat="37.82016" lon="15.1064867"><ele>920.5</ele><time>2026-04-18T07:19:36.125Z</time></trkpt><trkpt lat="37.81997" lon="15.10629"><ele>928.0</ele><time>2026-04-18T07:19:37.125Z</time></trkpt><trkpt lat="37.8198117" lon="15.1061"><ele>928.0</ele><time>2026-04-18T07:19:38.125Z</time></trkpt><trkpt lat="37.8196783" lon="15.1059317"><ele>928.0</ele><time>2026-04-18T07:19:39.125Z</time></trkpt><trkpt lat="37.81956" lon="15.1057767"><ele>928.0</ele><time>2026-04-18T07:19:40.125Z</time></trkpt><trkpt lat="37.81944" lon="15.1056633"><ele>931.75</ele><time>2026-04-18T07:19:41.125Z</time></trkpt><trkpt lat="37.8193167" lon="15.1055983"><ele>935.5</ele><time>2026-04-18T07:19:42.125Z</time></trkpt><trkpt lat="37.819175" lon="15.10558"><ele>939.25</ele><time>2026-04-18T07:19:43.124Z</time></trkpt><trkpt lat="37.8190333" lon="15.105635"><ele>943.0</ele><time>2026-04-18T07:19:44.125Z</time></trkpt><trkpt lat="37.8189" lon="15.105725"><ele>937.75</ele><time>2026-04-18T07:19:45.125Z</time></trkpt><trkpt lat="37.8187833" lon="15.10586"><ele>932.5</ele><time>2026-04-18T07:19:46.125Z</time></trkpt><trkpt lat="37.8186767" lon="15.105995"><ele>927.25</ele><time>2026-04-18T07:19:47.125Z</time></trkpt><trkpt lat="37.81858" lon="15.1061033"><ele>922.0</ele><time>2026-04-18T07:19:48.125Z</time></trkpt><trkpt lat="37.818485" lon="15.10619"><ele>923.8</ele><time>2026-04-18T07:19:49.125Z</time></trkpt><trkpt lat="37.8183817" lon="15.1062267"><ele>925.6</ele><time>2026-04-18T07:19:50.125Z</time></trkpt><trkpt lat="37.8182917" lon="15.1062"><ele>927.3999999999999</ele><time>2026-04-18T07:19:51.125Z</time></trkpt><trkpt lat="37.8182233" lon="15.10613"><ele>929.1999999999999</ele><time>2026-04-18T07:19:52.125Z</time></trkpt><trkpt lat="37.8181867" lon="15.106025"><ele>931.0</ele><time>2026-04-18T07:19:53.124Z</time></trkpt><trkpt lat="37.81818" lon="15.1059267"><ele>931.0</ele><time>2026-04-18T07:19:54.125Z</time></trkpt><trkpt lat="37.818215" lon="15.1058067"><ele>931.0</ele><time>2026-04-18T07:19:55.125Z</time></trkpt><trkpt lat="37.8182933" lon="15.1056717"><ele>931.0</ele><time>2026-04-18T07:19:56.125Z</time></trkpt><trkpt lat="37.81842" lon="15.105525"><ele>931.0</ele><time>2026-04-18T07:19:57.125Z</time></trkpt><trkpt lat="37.81858" lon="15.1053767"><ele>935.0</ele><time>2026-04-18T07:19:58.124Z</time></trkpt><trkpt lat="37.81871" lon="15.10525"><ele>939.0</ele><time>2026-04-18T07:19:59.125Z</time></trkpt><trkpt lat="37.818845" lon="15.1051367"><ele>943.0</ele><time>2026-04-18T07:20:00.125Z</time></trkpt><trkpt lat="37.818995" lon="15.10507"><ele>943.0</ele><time>2026-04-18T07:20:01.125Z</time></trkpt><trkpt lat="37.8191617" lon="15.1050417"><ele>943.0</ele><time>2026-04-18T07:20:02.125Z</time></trkpt><trkpt lat="37.8193267" lon="15.1050817"><ele>943.0</ele><time>2026-04-18T07:20:03.124Z</time></trkpt><trkpt lat="37.8194917" lon="15.105155"><ele>943.75</ele><time>2026-04-18T07:20:04.125Z</time></trkpt><trkpt lat="37.81964" lon="15.1052033"><ele>944.5</ele><time>2026-04-18T07:20:05.125Z</time></trkpt><trkpt lat="37.819785" lon="15.1052167"><ele>945.25</ele><time>2026-04-18T07:20:06.125Z</time></trkpt><trkpt lat="37.819915" lon="15.1051783"><ele>946.0</ele><time>2026-04-18T07:20:07.125Z</time></trkpt><trkpt lat="37.8200383" lon="15.1050883"><ele>946.0</ele><time>2026-04-18T07:20:08.125Z</time></trkpt><trkpt lat="37.8201367" lon="15.1049717"><ele>946.0</ele><time>2026-04-18T07:20:09.125Z</time></trkpt><trkpt lat="37.820235" lon="15.1047983"><ele>946.0</ele><time>2026-04-18T07:20:10.125Z</time></trkpt><trkpt lat="37.82034" lon="15.1045883"><ele>946.0</ele><time>2026-04-18T07:20:11.125Z</time></trkpt><trkpt lat="37.8204467" lon="15.104355"><ele>946.0</ele><time>2026-04-18T07:20:12.125Z</time></trkpt><trkpt lat="37.8205517" lon="15.1041067"><ele>946.0</ele><time>2026-04-18T07:20:13.125Z</time></trkpt><trkpt lat="37.8206467" lon="15.1038517"><ele>950.3333333333333</ele><time>2026-04-18T07:20:14.125Z</time></trkpt><trkpt lat="37.820715" lon="15.1035867"><ele>954.6666666666667</ele><time>2026-04-18T07:20:15.125Z</time></trkpt><trkpt lat="37.820765" lon="15.1033533"><ele>959.0</ele><time>2026-04-18T07:20:16.125Z</time></trkpt><trkpt lat="37.8208117" lon="15.1031567"><ele>959.0</ele><time>2026-04-18T07:20:17.125Z</time></trkpt><trkpt lat="37.820815" lon="15.1029733"><ele>959.0</ele><time>2026-04-18T07:20:18.125Z</time></trkpt><trkpt lat="37.8207633" lon="15.1028017"><ele>959.0</ele><time>2026-04-18T07:20:19.125Z</time></trkpt><trkpt lat="37.82067" lon="15.1026633"><ele>959.0</ele><time>2026-04-18T07:20:20.124Z</time></trkpt><trkpt lat="37.820545" lon="15.1025483"><ele>959.0</ele><time>2026-04-18T07:20:21.125Z</time></trkpt><trkpt lat="37.8203783" lon="15.1024917"><ele>959.0</ele><time>2026-04-18T07:20:22.124Z</time></trkpt><trkpt lat="37.8201867" lon="15.1024567"><ele>959.0</ele><time>2026-04-18T07:20:23.125Z</time></trkpt><trkpt lat="37.819995" lon="15.1024017"><ele>962.6666666666667</ele><time>2026-04-18T07:20:24.125Z</time></trkpt><trkpt lat="37.8198183" lon="15.1023483"><ele>966.3333333333333</ele><time>2026-04-18T07:20:25.125Z</time></trkpt><trkpt lat="37.8196733" lon="15.1022817"><ele>970.0</ele><time>2026-04-18T07:20:26.124Z</time></trkpt><trkpt lat="37.8195583" lon="15.102185"><ele>970.0</ele><time>2026-04-18T07:20:27.125Z</time></trkpt><trkpt lat="37.819475" lon="15.102045"><ele>970.0</ele><time>2026-04-18T07:20:28.125Z</time></trkpt><trkpt lat="37.8194217" lon="15.10188"><ele>970.0</ele><time>2026-04-18T07:20:29.125Z</time></trkpt><trkpt lat="37.819415" lon="15.1017083"><ele>970.0</ele><time>2026-04-18T07:20:30.125Z</time></trkpt><trkpt lat="37.8194233" lon="15.101535"><ele>972.0</ele><time>2026-04-18T07:20:31.125Z</time></trkpt><trkpt lat="37.8194183" lon="15.10135"><ele>974.0</ele><time>2026-04-18T07:20:32.125Z</time></trkpt><trkpt lat="37.8193667" lon="15.1011767"><ele>976.0</ele><time>2026-04-18T07:20:33.125Z</time></trkpt><trkpt lat="37.8192733" lon="15.1010333"><ele>978.0</ele><time>2026-04-18T07:20:34.125Z</time></trkpt><trkpt lat="37.8191483" lon="15.10091"><ele>979.5</ele><time>2026-04-18T07:20:35.125Z</time></trkpt><trkpt lat="37.8190117" lon="15.1008217"><ele>981.0</ele><time>2026-04-18T07:20:36.125Z</time></trkpt><trkpt lat="37.8188867" lon="15.1007767"><ele>982.5</ele><time>2026-04-18T07:20:37.125Z</time></trkpt><trkpt lat="37.818755" lon="15.10079"><ele>984.0</ele><time>2026-04-18T07:20:38.125Z</time></trkpt><trkpt lat="37.818625" lon="15.1008533"><ele>984.0</ele><time>2026-04-18T07:20:39.125Z</time></trkpt><trkpt lat="37.8185133" lon="15.1009683"><ele>984.0</ele><time>2026-04-18T07:20:40.125Z</time></trkpt><trkpt lat="37.818415" lon="15.101095"><ele>984.0</ele><time>2026-04-18T07:20:41.125Z</time></trkpt><trkpt lat="37.8183167" lon="15.10121"><ele>984.0</ele><time>2026-04-18T07:20:42.125Z</time></trkpt><trkpt lat="37.8181967" lon="15.1012833"><ele>986.75</ele><time>2026-04-18T07:20:43.125Z</time></trkpt><trkpt lat="37.8180683" lon="15.101295"><ele>989.5</ele><time>2026-04-18T07:20:44.125Z</time></trkpt><trkpt lat="37.8179383" lon="15.1012383"><ele>992.25</ele><time>2026-04-18T07:20:45.125Z</time></trkpt><trkpt lat="37.8178067" lon="15.10113"><ele>995.0</ele><time>2026-04-18T07:20:46.124Z</time></trkpt><trkpt lat="37.8176733" lon="15.1009967"><ele>997.6666666666667</ele><time>2026-04-18T07:20:47.125Z</time></trkpt><trkpt lat="37.8175367" lon="15.1008867"><ele>1000.3333333333333</ele><time>2026-04-18T07:20:48.125Z</time></trkpt><trkpt lat="37.81738" lon="15.1008233"><ele>1003.0</ele><time>2026-04-18T07:20:49.125Z</time></trkpt><trkpt lat="37.817235" lon="15.1007967"><ele>1003.0</ele><time>2026-04-18T07:20:50.125Z</time></trkpt><trkpt lat="37.8170917" lon="15.10084"><ele>1003.0</ele><time>2026-04-18T07:20:51.125Z</time></trkpt><trkpt lat="37.81696" lon="15.1009233"><ele>1003.0</ele><time>2026-04-18T07:20:52.125Z</time></trkpt><trkpt lat="37.8168367" lon="15.10102"><ele>1003.0</ele><time>2026-04-18T07:20:53.125Z</time></trkpt><trkpt lat="37.8167267" lon="15.1010883"><ele>1005.0</ele><time>2026-04-18T07:20:54.125Z</time></trkpt><trkpt lat="37.816605" lon="15.1011067"><ele>1007.0</ele><time>2026-04-18T07:20:55.125Z</time></trkpt><trkpt lat="37.8164817" lon="15.1010617"><ele>1009.0</ele><time>2026-04-18T07:20:56.125Z</time></trkpt><trkpt lat="37.816385" lon="15.100965"><ele>1011.0</ele><time>2026-04-18T07:20:57.124Z</time></trkpt><trkpt lat="37.816325" lon="15.1008283"><ele>1012.75</ele><time>2026-04-18T07:20:58.125Z</time></trkpt><trkpt lat="37.81631" lon="15.1006683"><ele>1014.5</ele><time>2026-04-18T07:20:59.125Z</time></trkpt><trkpt lat="37.8163333" lon="15.1004933"><ele>1016.25</ele><time>2026-04-18T07:21:00.125Z</time></trkpt><trkpt lat="37.8164117" lon="15.100355"><ele>1018.0</ele><time>2026-04-18T07:21:01.125Z</time></trkpt><trkpt lat="37.8165133" lon="15.1002533"><ele>1018.0</ele><time>2026-04-18T07:21:02.125Z</time></trkpt><trkpt lat="37.81665" lon="15.10019"><ele>1018.0</ele><time>2026-04-18T07:21:03.125Z</time></trkpt><trkpt lat="37.8167933" lon="15.10013"><ele>1018.0</ele><time>2026-04-18T07:21:04.125Z</time></trkpt><trkpt lat="37.8169083" lon="15.10005"><ele>1018.0</ele><time>2026-04-18T07:21:05.125Z</time></trkpt><trkpt lat="37.816985" lon="15.099925"><ele>1018.25</ele><time>2026-04-18T07:21:06.125Z</time></trkpt><trkpt lat="37.8170267" lon="15.0997717"><ele>1018.5</ele><time>2026-04-18T07:21:07.125Z</time></trkpt><trkpt lat="37.81702" lon="15.09961"><ele>1018.75</ele><time>2026-04-18T07:21:08.125Z</time></trkpt><trkpt lat="37.8169767" lon="15.0994533"><ele>1019.0</ele><time>2026-04-18T07:21:09.125Z</time></trkpt><trkpt lat="37.8168933" lon="15.0993267"><ele>1020.25</ele><time>2026-04-18T07:21:10.125Z</time></trkpt><trkpt lat="37.8167833" lon="15.09925"><ele>1021.5</ele><time>2026-04-18T07:21:11.125Z</time></trkpt><trkpt lat="37.8166483" lon="15.0992283"><ele>1022.75</ele><time>2026-04-18T07:21:12.125Z</time></trkpt><trkpt lat="37.8165133" lon="15.0992567"><ele>1024.0</ele><time>2026-04-18T07:21:13.124Z</time></trkpt><trkpt lat="37.8163867" lon="15.0993217"><ele>1024.0</ele><time>2026-04-18T07:21:14.125Z</time></trkpt><trkpt lat="37.81627" lon="15.0993667"><ele>1024.0</ele><time>2026-04-18T07:21:15.125Z</time></trkpt><trkpt lat="37.8161533" lon="15.0993683"><ele>1024.0</ele><time>2026-04-18T07:21:16.125Z</time></trkpt><trkpt lat="37.81604" lon="15.099305"><ele>1024.0</ele><time>2026-04-18T07:21:17.125Z</time></trkpt><trkpt lat="37.815905" lon="15.099225"><ele>1026.3333333333333</ele><time>2026-04-18T07:21:18.125Z</time></trkpt><trkpt lat="37.8157533" lon="15.0991717"><ele>1028.6666666666667</ele><time>2026-04-18T07:21:19.124Z</time></trkpt><trkpt lat="37.815595" lon="15.0991467"><ele>1031.0</ele><time>2026-04-18T07:21:20.125Z</time></trkpt><trkpt lat="37.815435" lon="15.0991733"><ele>1031.0</ele><time>2026-04-18T07:21:21.125Z</time></trkpt><trkpt lat="37.815295" lon="15.0992067"><ele>1031.0</ele><time>2026-04-18T07:21:22.125Z</time></trkpt><trkpt lat="37.81516" lon="15.0992233"><ele>1031.0</ele><time>2026-04-18T07:21:23.125Z</time></trkpt><trkpt lat="37.8150433" lon="15.099185"><ele>1031.0</ele><time>2026-04-18T07:21:24.125Z</time></trkpt><trkpt lat="37.814955" lon="15.099115"><ele>1034.75</ele><time>2026-04-18T07:21:25.125Z</time></trkpt><trkpt lat="37.8148867" lon="15.09901"><ele>1038.5</ele><time>2026-04-18T07:21:26.125Z</time></trkpt><trkpt lat="37.8148483" lon="15.09887"><ele>1042.25</ele><time>2026-04-18T07:21:27.125Z</time></trkpt><trkpt lat="37.8148483" lon="15.098715"><ele>1046.0</ele><time>2026-04-18T07:21:28.125Z</time></trkpt><trkpt lat="37.814905" lon="15.098555"><ele>1046.0</ele><time>2026-04-18T07:21:29.125Z</time></trkpt><trkpt lat="37.8149983" lon="15.0984183"><ele>1046.0</ele><time>2026-04-18T07:21:30.125Z</time></trkpt><trkpt lat="37.8151133" lon="15.0983183"><ele>1046.0</ele><time>2026-04-18T07:21:31.124Z</time></trkpt><trkpt lat="37.81525" lon="15.09823"><ele>1046.0</ele><time>2026-04-18T07:21:32.125Z</time></trkpt><trkpt lat="37.815385" lon="15.0981117"><ele>1048.0</ele><time>2026-04-18T07:21:33.125Z</time></trkpt><trkpt lat="37.815515" lon="15.0979533"><ele>1050.0</ele><time>2026-04-18T07:21:34.125Z</time></trkpt><trkpt lat="37.81564" lon="15.09777"><ele>1052.0</ele><time>2026-04-18T07:21:35.125Z</time></trkpt><trkpt lat="37.8157717" lon="15.0975317"><ele>1051.6666666666667</ele><time>2026-04-18T07:21:36.124Z</time></trkpt><trkpt lat="37.8159033" lon="15.097305"><ele>1051.3333333333333</ele><time>2026-04-18T07:21:37.125Z</time></trkpt><trkpt lat="37.8160183" lon="15.0971017"><ele>1051.0</ele><time>2026-04-18T07:21:38.125Z</time></trkpt><trkpt lat="37.8161133" lon="15.0969183"><ele>1051.0</ele><time>2026-04-18T07:21:39.125Z</time></trkpt><trkpt lat="37.81618" lon="15.0967633"><ele>1051.0</ele><time>2026-04-18T07:21:40.125Z</time></trkpt><trkpt lat="37.8161983" lon="15.0965817"><ele>1051.0</ele><time>2026-04-18T07:21:41.125Z</time></trkpt><trkpt lat="37.8161867" lon="15.0963783"><ele>1051.0</ele><time>2026-04-18T07:21:42.124Z</time></trkpt><trkpt lat="37.816165" lon="15.0961717"><ele>1053.0</ele><time>2026-04-18T07:21:43.125Z</time></trkpt><trkpt lat="37.81616" lon="15.0959783"><ele>1055.0</ele><time>2026-04-18T07:21:44.125Z</time></trkpt><trkpt lat="37.8161833" lon="15.0957983"><ele>1057.0</ele><time>2026-04-18T07:21:45.125Z</time></trkpt><trkpt lat="37.8162383" lon="15.0956367"><ele>1059.0</ele><time>2026-04-18T07:21:46.125Z</time></trkpt><trkpt lat="37.8163433" lon="15.09551"><ele>1061.6666666666667</ele><time>2026-04-18T07:21:47.125Z</time></trkpt><trkpt lat="37.81647" lon="15.0953917"><ele>1064.3333333333335</ele><time>2026-04-18T07:21:48.125Z</time></trkpt><trkpt lat="37.8166" lon="15.0952767"><ele>1067.0</ele><time>2026-04-18T07:21:49.125Z</time></trkpt><trkpt lat="37.8167117" lon="15.09518"><ele>1067.0</ele><time>2026-04-18T07:21:50.125Z</time></trkpt><trkpt lat="37.8167967" lon="15.09507"><ele>1067.0</ele><time>2026-04-18T07:21:51.125Z</time></trkpt><trkpt lat="37.8168517" lon="15.0949283"><ele>1067.0</ele><time>2026-04-18T07:21:52.125Z</time></trkpt><trkpt lat="37.8168533" lon="15.094765"><ele>1067.0</ele><time>2026-04-18T07:21:53.125Z</time></trkpt><trkpt lat="37.81681" lon="15.0946183"><ele>1070.5</ele><time>2026-04-18T07:21:54.125Z</time></trkpt><trkpt lat="37.8167333" lon="15.0944867"><ele>1074.0</ele><time>2026-04-18T07:21:55.124Z</time></trkpt><trkpt lat="37.8166183" lon="15.0943833"><ele>1077.5</ele><time>2026-04-18T07:21:56.125Z</time></trkpt><trkpt lat="37.8164883" lon="15.094355"><ele>1081.0</ele><time>2026-04-18T07:21:57.125Z</time></trkpt><trkpt lat="37.816355" lon="15.0943817"><ele>1081.0</ele><time>2026-04-18T07:21:58.125Z</time></trkpt><trkpt lat="37.8162283" lon="15.0944633"><ele>1081.0</ele><time>2026-04-18T07:21:59.125Z</time></trkpt><trkpt lat="37.8161033" lon="15.09459"><ele>1081.0</ele><time>2026-04-18T07:22:00.125Z</time></trkpt><trkpt lat="37.8159717" lon="15.09475"><ele>1080.25</ele><time>2026-04-18T07:22:01.125Z</time></trkpt><trkpt lat="37.8158483" lon="15.0948967"><ele>1079.5</ele><time>2026-04-18T07:22:02.125Z</time></trkpt><trkpt lat="37.8157333" lon="15.09501"><ele>1078.75</ele><time>2026-04-18T07:22:03.125Z</time></trkpt><trkpt lat="37.815615" lon="15.09509"><ele>1078.0</ele><time>2026-04-18T07:22:04.125Z</time></trkpt><trkpt lat="37.8154817" lon="15.0951133"><ele>1078.0</ele><time>2026-04-18T07:22:05.125Z</time></trkpt><trkpt lat="37.815345" lon="15.0950817"><ele>1078.0</ele><time>2026-04-18T07:22:06.125Z</time></trkpt><trkpt lat="37.8152183" lon="15.0950117"><ele>1078.0</ele><time>2026-04-18T07:22:07.125Z</time></trkpt><trkpt lat="37.8150817" lon="15.0949617"><ele>1078.0</ele><time>2026-04-18T07:22:08.125Z</time></trkpt><trkpt lat="37.81495" lon="15.09498"><ele>1080.75</ele><time>2026-04-18T07:22:09.125Z</time></trkpt><trkpt lat="37.8148183" lon="15.0950483"><ele>1083.5</ele><time>2026-04-18T07:22:10.125Z</time></trkpt><trkpt lat="37.8146967" lon="15.09513"><ele>1086.25</ele><time>2026-04-18T07:22:11.125Z</time></trkpt><trkpt lat="37.8145817" lon="15.0952017"><ele>1089.0</ele><time>2026-04-18T07:22:12.125Z</time></trkpt><trkpt lat="37.8144267" lon="15.09525"><ele>1094.3333333333333</ele><time>2026-04-18T07:22:13.125Z</time></trkpt><trkpt lat="37.8142667" lon="15.095295"><ele>1099.6666666666665</ele><time>2026-04-18T07:22:14.125Z</time></trkpt><trkpt lat="37.81412" lon="15.0953267"><ele>1105.0</ele><time>2026-04-18T07:22:15.125Z</time></trkpt><trkpt lat="37.8139733" lon="15.0953383"><ele>1105.0</ele><time>2026-04-18T07:22:16.125Z</time></trkpt><trkpt lat="37.8138283" lon="15.0953017"><ele>1105.0</ele><time>2026-04-18T07:22:17.125Z</time></trkpt><trkpt lat="37.8136933" lon="15.0952467"><ele>1105.0</ele><time>2026-04-18T07:22:18.125Z</time></trkpt><trkpt lat="37.8135717" lon="15.0952367"><ele>1105.0</ele><time>2026-04-18T07:22:19.125Z</time></trkpt><trkpt lat="37.8134367" lon="15.0952733"><ele>1107.25</ele><time>2026-04-18T07:22:20.125Z</time></trkpt><trkpt lat="37.8133017" lon="15.095355"><ele>1109.5</ele><time>2026-04-18T07:22:21.125Z</time></trkpt><trkpt lat="37.8131783" lon="15.0954617"><ele>1111.75</ele><time>2026-04-18T07:22:22.125Z</time></trkpt><trkpt lat="37.8130733" lon="15.0955733"><ele>1114.0</ele><time>2026-04-18T07:22:23.125Z</time></trkpt><trkpt lat="37.812945" lon="15.09562"><ele>1114.0</ele><time>2026-04-18T07:22:24.125Z</time></trkpt><trkpt lat="37.8128033" lon="15.0956033"><ele>1114.0</ele><time>2026-04-18T07:22:25.125Z</time></trkpt><trkpt lat="37.8126583" lon="15.0955517"><ele>1114.0</ele><time>2026-04-18T07:22:26.124Z</time></trkpt><trkpt lat="37.812485" lon="15.0954983"><ele>1117.6666666666665</ele><time>2026-04-18T07:22:27.125Z</time></trkpt><trkpt lat="37.8122967" lon="15.0954767"><ele>1121.3333333333333</ele><time>2026-04-18T07:22:28.124Z</time></trkpt><trkpt lat="37.8121183" lon="15.0954917"><ele>1125.0</ele><time>2026-04-18T07:22:29.124Z</time></trkpt><trkpt lat="37.81195" lon="15.09554"><ele>1125.25</ele><time>2026-04-18T07:22:30.125Z</time></trkpt><trkpt lat="37.8118133" lon="15.0956017"><ele>1125.5</ele><time>2026-04-18T07:22:31.125Z</time></trkpt><trkpt lat="37.8116867" lon="15.0956417"><ele>1125.75</ele><time>2026-04-18T07:22:32.125Z</time></trkpt><trkpt lat="37.8115783" lon="15.0955917"><ele>1126.0</ele><time>2026-04-18T07:22:33.125Z</time></trkpt><trkpt lat="37.81149" lon="15.095495"><ele>1126.0</ele><time>2026-04-18T07:22:34.125Z</time></trkpt><trkpt lat="37.811425" lon="15.0953583"><ele>1126.0</ele><time>2026-04-18T07:22:35.125Z</time></trkpt><trkpt lat="37.8113867" lon="15.0952167"><ele>1126.0</ele><time>2026-04-18T07:22:36.125Z</time></trkpt><trkpt lat="37.81139" lon="15.0950733"><ele>1126.0</ele><time>2026-04-18T07:22:37.125Z</time></trkpt><trkpt lat="37.8114333" lon="15.0949383"><ele>1128.8</ele><time>2026-04-18T07:22:38.125Z</time></trkpt><trkpt lat="37.811505" lon="15.0948433"><ele>1131.6</ele><time>2026-04-18T07:22:39.125Z</time></trkpt><trkpt lat="37.8116033" lon="15.09478"><ele>1134.4</ele><time>2026-04-18T07:22:40.125Z</time></trkpt><trkpt lat="37.8117017" lon="15.0947533"><ele>1137.2</ele><time>2026-04-18T07:22:41.125Z</time></trkpt><trkpt lat="37.8117983" lon="15.0947733"><ele>1140.0</ele><time>2026-04-18T07:22:42.125Z</time></trkpt><trkpt lat="37.811885" lon="15.09481"><ele>1140.0</ele><time>2026-04-18T07:22:43.125Z</time></trkpt><trkpt lat="37.8119783" lon="15.0948333"><ele>1140.0</ele><time>2026-04-18T07:22:44.125Z</time></trkpt><trkpt lat="37.8120683" lon="15.0948417"><ele>1140.0</ele><time>2026-04-18T07:22:45.125Z</time></trkpt><trkpt lat="37.812165" lon="15.0948167"><ele>1140.0</ele><time>2026-04-18T07:22:46.125Z</time></trkpt><trkpt lat="37.8122583" lon="15.0947567"><ele>1140.0</ele><time>2026-04-18T07:22:47.125Z</time></trkpt><trkpt lat="37.8123483" lon="15.0946567"><ele>1140.0</ele><time>2026-04-18T07:22:48.125Z</time></trkpt><trkpt lat="37.8124583" lon="15.09452"><ele>1140.0</ele><time>2026-04-18T07:22:49.125Z</time></trkpt><trkpt lat="37.81259" lon="15.09436"><ele>1140.0</ele><time>2026-04-18T07:22:50.124Z</time></trkpt><trkpt lat="37.81276" lon="15.0941917"><ele>1143.0</ele><time>2026-04-18T07:22:51.125Z</time></trkpt><trkpt lat="37.8129383" lon="15.0940033"><ele>1146.0</ele><time>2026-04-18T07:22:52.125Z</time></trkpt><trkpt lat="37.8131067" lon="15.09382"><ele>1146.0</ele><time>2026-04-18T07:22:53.124Z</time></trkpt><trkpt lat="37.8132583" lon="15.09365"><ele>1146.0</ele><time>2026-04-18T07:22:54.125Z</time></trkpt><trkpt lat="37.8133917" lon="15.0934867"><ele>1146.0</ele><time>2026-04-18T07:22:55.125Z</time></trkpt><trkpt lat="37.813515" lon="15.09332"><ele>1145.0</ele><time>2026-04-18T07:22:56.125Z</time></trkpt><trkpt lat="37.813615" lon="15.0931583"><ele>1144.0</ele><time>2026-04-18T07:22:57.125Z</time></trkpt><trkpt lat="37.8137017" lon="15.0930167"><ele>1143.0</ele><time>2026-04-18T07:22:58.125Z</time></trkpt><trkpt lat="37.8137667" lon="15.0929"><ele>1142.0</ele><time>2026-04-18T07:22:59.125Z</time></trkpt><trkpt lat="37.8138167" lon="15.0928033"><ele>1142.0</ele><time>2026-04-18T07:23:00.125Z</time></trkpt><trkpt lat="37.8138367" lon="15.0927133"><ele>1142.0</ele><time>2026-04-18T07:23:01.125Z</time></trkpt><trkpt lat="37.813825" lon="15.0926217"><ele>1142.0</ele><time>2026-04-18T07:23:02.124Z</time></trkpt><trkpt lat="37.8137117" lon="15.0925467"><ele>1142.0</ele><time>2026-04-18T07:23:04.125Z</time></trkpt><trkpt lat="37.8136333" lon="15.09259"><ele>1142.0</ele><time>2026-04-18T07:23:05.124Z</time></trkpt><trkpt lat="37.81355" lon="15.0926883"><ele>1146.75</ele><time>2026-04-18T07:23:06.125Z</time></trkpt><trkpt lat="37.813475" lon="15.0928267"><ele>1151.5</ele><time>2026-04-18T07:23:07.125Z</time></trkpt><trkpt lat="37.813395" lon="15.092945"><ele>1156.25</ele><time>2026-04-18T07:23:08.125Z</time></trkpt><trkpt lat="37.8132983" lon="15.0930267"><ele>1161.0</ele><time>2026-04-18T07:23:09.125Z</time></trkpt><trkpt lat="37.8131567" lon="15.0930483"><ele>1161.0</ele><time>2026-04-18T07:23:10.124Z</time></trkpt><trkpt lat="37.81298" lon="15.0930567"><ele>1161.0</ele><time>2026-04-18T07:23:11.125Z</time></trkpt><trkpt lat="37.8128133" lon="15.0930717"><ele>1161.0</ele><time>2026-04-18T07:23:12.125Z</time></trkpt><trkpt lat="37.8126633" lon="15.0930767"><ele>1163.75</ele><time>2026-04-18T07:23:13.125Z</time></trkpt><trkpt lat="37.812525" lon="15.0930683"><ele>1166.5</ele><time>2026-04-18T07:23:14.125Z</time></trkpt><trkpt lat="37.8123917" lon="15.0930283"><ele>1169.25</ele><time>2026-04-18T07:23:15.124Z</time></trkpt><trkpt lat="37.8122817" lon="15.09295"><ele>1172.0</ele><time>2026-04-18T07:23:16.125Z</time></trkpt><trkpt lat="37.8121767" lon="15.0928133"><ele>1172.0</ele><time>2026-04-18T07:23:17.125Z</time></trkpt><trkpt lat="37.8120483" lon="15.092655"><ele>1172.0</ele><time>2026-04-18T07:23:18.125Z</time></trkpt><trkpt lat="37.81192" lon="15.092515"><ele>1172.0</ele><time>2026-04-18T07:23:19.125Z</time></trkpt><trkpt lat="37.8118083" lon="15.0923833"><ele>1175.25</ele><time>2026-04-18T07:23:20.125Z</time></trkpt><trkpt lat="37.8117033" lon="15.0922817"><ele>1178.5</ele><time>2026-04-18T07:23:21.125Z</time></trkpt><trkpt lat="37.8115883" lon="15.0922167"><ele>1181.75</ele><time>2026-04-18T07:23:22.125Z</time></trkpt><trkpt lat="37.8114567" lon="15.0921883"><ele>1185.0</ele><time>2026-04-18T07:23:23.125Z</time></trkpt><trkpt lat="37.8113183" lon="15.0922133"><ele>1185.0</ele><time>2026-04-18T07:23:24.125Z</time></trkpt><trkpt lat="37.8111933" lon="15.0922433"><ele>1185.0</ele><time>2026-04-18T07:23:25.125Z</time></trkpt><trkpt lat="37.811075" lon="15.09226"><ele>1185.0</ele><time>2026-04-18T07:23:26.125Z</time></trkpt><trkpt lat="37.810965" lon="15.092225"><ele>1185.0</ele><time>2026-04-18T07:23:27.125Z</time></trkpt><trkpt lat="37.8108883" lon="15.0921283"><ele>1185.2</ele><time>2026-04-18T07:23:28.125Z</time></trkpt><trkpt lat="37.8108333" lon="15.0920067"><ele>1185.4</ele><time>2026-04-18T07:23:29.124Z</time></trkpt><trkpt lat="37.8108067" lon="15.0918867"><ele>1185.6</ele><time>2026-04-18T07:23:30.125Z</time></trkpt><trkpt lat="37.8108183" lon="15.09178"><ele>1185.8</ele><time>2026-04-18T07:23:31.125Z</time></trkpt><trkpt lat="37.810855" lon="15.091695"><ele>1186.0</ele><time>2026-04-18T07:23:32.125Z</time></trkpt><trkpt lat="37.8109217" lon="15.0916"><ele>1188.6666666666665</ele><time>2026-04-18T07:23:33.125Z</time></trkpt><trkpt lat="37.8110383" lon="15.091495"><ele>1191.3333333333333</ele><time>2026-04-18T07:23:34.125Z</time></trkpt><trkpt lat="37.8111867" lon="15.0913983"><ele>1194.0</ele><time>2026-04-18T07:23:35.125Z</time></trkpt><trkpt lat="37.8113233" lon="15.0913083"><ele>1194.0</ele><time>2026-04-18T07:23:36.125Z</time></trkpt><trkpt lat="37.8114733" lon="15.0911667"><ele>1194.0</ele><time>2026-04-18T07:23:37.125Z</time></trkpt><trkpt lat="37.81162" lon="15.0910217"><ele>1194.0</ele><time>2026-04-18T07:23:38.125Z</time></trkpt><trkpt lat="37.8117533" lon="15.0908783"><ele>1195.5</ele><time>2026-04-18T07:23:39.124Z</time></trkpt><trkpt lat="37.8118833" lon="15.09074"><ele>1197.0</ele><time>2026-04-18T07:23:40.125Z</time></trkpt><trkpt lat="37.811995" lon="15.0906217"><ele>1198.5</ele><time>2026-04-18T07:23:41.125Z</time></trkpt><trkpt lat="37.81207" lon="15.0904967"><ele>1200.0</ele><time>2026-04-18T07:23:42.125Z</time></trkpt><trkpt lat="37.8121167" lon="15.09034"><ele>1200.0</ele><time>2026-04-18T07:23:43.125Z</time></trkpt><trkpt lat="37.8121117" lon="15.090175"><ele>1200.0</ele><time>2026-04-18T07:23:44.125Z</time></trkpt><trkpt lat="37.81206" lon="15.0900317"><ele>1200.0</ele><time>2026-04-18T07:23:45.125Z</time></trkpt><trkpt lat="37.8120083" lon="15.0899267"><ele>1200.0</ele><time>2026-04-18T07:23:46.125Z</time></trkpt><trkpt lat="37.8118967" lon="15.0898633"><ele>1201.0</ele><time>2026-04-18T07:23:47.125Z</time></trkpt><trkpt lat="37.8117983" lon="15.0898217"><ele>1202.0</ele><time>2026-04-18T07:23:48.125Z</time></trkpt><trkpt lat="37.8116683" lon="15.08984"><ele>1203.0</ele><time>2026-04-18T07:23:49.125Z</time></trkpt><trkpt lat="37.8115667" lon="15.0898683"><ele>1204.0</ele><time>2026-04-18T07:23:50.125Z</time></trkpt><trkpt lat="37.81146" lon="15.0899283"><ele>1204.0</ele><time>2026-04-18T07:23:51.125Z</time></trkpt><trkpt lat="37.811355" lon="15.0900033"><ele>1204.0</ele><time>2026-04-18T07:23:52.125Z</time></trkpt><trkpt lat="37.8112267" lon="15.09008"><ele>1204.0</ele><time>2026-04-18T07:23:53.125Z</time></trkpt><trkpt lat="37.8110633" lon="15.0901033"><ele>1204.0</ele><time>2026-04-18T07:23:54.125Z</time></trkpt><trkpt lat="37.8109217" lon="15.090085"><ele>1205.75</ele><time>2026-04-18T07:23:55.124Z</time></trkpt><trkpt lat="37.8107933" lon="15.0900167"><ele>1207.5</ele><time>2026-04-18T07:23:56.125Z</time></trkpt><trkpt lat="37.8106783" lon="15.089915"><ele>1209.25</ele><time>2026-04-18T07:23:57.125Z</time></trkpt><trkpt lat="37.81057" lon="15.0897633"><ele>1211.0</ele><time>2026-04-18T07:23:58.125Z</time></trkpt><trkpt lat="37.8104817" lon="15.0896117"><ele>1216.0</ele><time>2026-04-18T07:23:59.125Z</time></trkpt><trkpt lat="37.810365" lon="15.08949"><ele>1221.0</ele><time>2026-04-18T07:24:00.125Z</time></trkpt><trkpt lat="37.8102217" lon="15.0894167"><ele>1226.0</ele><time>2026-04-18T07:24:01.125Z</time></trkpt><trkpt lat="37.8100417" lon="15.08939"><ele>1227.6666666666667</ele><time>2026-04-18T07:24:02.125Z</time></trkpt><trkpt lat="37.8098533" lon="15.0893967"><ele>1229.3333333333333</ele><time>2026-04-18T07:24:03.125Z</time></trkpt><trkpt lat="37.8096683" lon="15.08938"><ele>1231.0</ele><time>2026-04-18T07:24:04.125Z</time></trkpt><trkpt lat="37.8095033" lon="15.08936"><ele>1231.0</ele><time>2026-04-18T07:24:05.125Z</time></trkpt><trkpt lat="37.8093383" lon="15.0893233"><ele>1231.0</ele><time>2026-04-18T07:24:06.125Z</time></trkpt><trkpt lat="37.809175" lon="15.0892567"><ele>1231.0</ele><time>2026-04-18T07:24:07.125Z</time></trkpt><trkpt lat="37.8090083" lon="15.0891367"><ele>1237.0</ele><time>2026-04-18T07:24:08.125Z</time></trkpt><trkpt lat="37.808845" lon="15.0890167"><ele>1243.0</ele><time>2026-04-18T07:24:09.125Z</time></trkpt><trkpt lat="37.808695" lon="15.08889"><ele>1249.0</ele><time>2026-04-18T07:24:10.125Z</time></trkpt><trkpt lat="37.8085717" lon="15.0887867"><ele>1248.5</ele><time>2026-04-18T07:24:11.124Z</time></trkpt><trkpt lat="37.80846" lon="15.08869"><ele>1248.0</ele><time>2026-04-18T07:24:12.125Z</time></trkpt><trkpt lat="37.8083567" lon="15.0885783"><ele>1247.5</ele><time>2026-04-18T07:24:13.125Z</time></trkpt><trkpt lat="37.80827" lon="15.0884517"><ele>1247.0</ele><time>2026-04-18T07:24:14.125Z</time></trkpt><trkpt lat="37.8082267" lon="15.08829"><ele>1248.75</ele><time>2026-04-18T07:24:15.125Z</time></trkpt><trkpt lat="37.8082217" lon="15.0881283"><ele>1250.5</ele><time>2026-04-18T07:24:16.125Z</time></trkpt><trkpt lat="37.8082533" lon="15.0879733"><ele>1252.25</ele><time>2026-04-18T07:24:17.125Z</time></trkpt><trkpt lat="37.8083133" lon="15.0878317"><ele>1254.0</ele><time>2026-04-18T07:24:18.125Z</time></trkpt><trkpt lat="37.8083683" lon="15.0877033"><ele>1254.0</ele><time>2026-04-18T07:24:19.125Z</time></trkpt><trkpt lat="37.8084717" lon="15.0876167"><ele>1254.0</ele><time>2026-04-18T07:24:20.125Z</time></trkpt><trkpt lat="37.80859" lon="15.0875283"><ele>1254.0</ele><time>2026-04-18T07:24:21.124Z</time></trkpt><trkpt lat="37.808735" lon="15.0874383"><ele>1254.0</ele><time>2026-04-18T07:24:22.125Z</time></trkpt><trkpt lat="37.8089" lon="15.0873"><ele>1257.0</ele><time>2026-04-18T07:24:23.125Z</time></trkpt><trkpt lat="37.8090833" lon="15.0871117"><ele>1260.0</ele><time>2026-04-18T07:24:24.125Z</time></trkpt><trkpt lat="37.809305" lon="15.0868667"><ele>1262.0</ele><time>2026-04-18T07:24:25.125Z</time></trkpt><trkpt lat="37.809545" lon="15.0866317"><ele>1264.0</ele><time>2026-04-18T07:24:26.125Z</time></trkpt><trkpt lat="37.8097533" lon="15.0864217"><ele>1264.3333333333333</ele><time>2026-04-18T07:24:27.125Z</time></trkpt><trkpt lat="37.8099233" lon="15.08624"><ele>1264.6666666666667</ele><time>2026-04-18T07:24:28.125Z</time></trkpt><trkpt lat="37.810075" lon="15.0860867"><ele>1265.0</ele><time>2026-04-18T07:24:29.125Z</time></trkpt><trkpt lat="37.8102067" lon="15.085945"><ele>1265.3333333333335</ele><time>2026-04-18T07:24:30.125Z</time></trkpt><trkpt lat="37.8103167" lon="15.0858017"><ele>1265.6666666666667</ele><time>2026-04-18T07:24:31.125Z</time></trkpt><trkpt lat="37.8104067" lon="15.0856567"><ele>1266.0</ele><time>2026-04-18T07:24:32.125Z</time></trkpt><trkpt lat="37.81046" lon="15.085475"><ele>1266.75</ele><time>2026-04-18T07:24:33.125Z</time></trkpt><trkpt lat="37.81048" lon="15.0852933"><ele>1267.5</ele><time>2026-04-18T07:24:34.125Z</time></trkpt><trkpt lat="37.8104767" lon="15.0851167"><ele>1268.25</ele><time>2026-04-18T07:24:35.125Z</time></trkpt><trkpt lat="37.8104317" lon="15.0849433"><ele>1269.0</ele><time>2026-04-18T07:24:36.125Z</time></trkpt><trkpt lat="37.810355" lon="15.0847933"><ele>1272.0</ele><time>2026-04-18T07:24:37.125Z</time></trkpt><trkpt lat="37.8102317" lon="15.0846667"><ele>1275.0</ele><time>2026-04-18T07:24:38.125Z</time></trkpt><trkpt lat="37.8100783" lon="15.0845717"><ele>1278.0</ele><time>2026-04-18T07:24:39.125Z</time></trkpt><trkpt lat="37.8099083" lon="15.0845133"><ele>1278.6666666666667</ele><time>2026-04-18T07:24:40.125Z</time></trkpt><trkpt lat="37.8097133" lon="15.0844733"><ele>1279.3333333333335</ele><time>2026-04-18T07:24:41.124Z</time></trkpt><trkpt lat="37.8094867" lon="15.0844567"><ele>1280.0</ele><time>2026-04-18T07:24:42.125Z</time></trkpt><trkpt lat="37.80927" lon="15.08446"><ele>1281.3333333333335</ele><time>2026-04-18T07:24:43.125Z</time></trkpt><trkpt lat="37.80908" lon="15.08448"><ele>1282.6666666666667</ele><time>2026-04-18T07:24:44.125Z</time></trkpt><trkpt lat="37.80892" lon="15.0845167"><ele>1284.0</ele><time>2026-04-18T07:24:45.125Z</time></trkpt><trkpt lat="37.8087967" lon="15.0845467"><ele>1284.0</ele><time>2026-04-18T07:24:46.124Z</time></trkpt><trkpt lat="37.8086933" lon="15.0845583"><ele>1284.0</ele><time>2026-04-18T07:24:47.125Z</time></trkpt><trkpt lat="37.8086033" lon="15.0845367"><ele>1284.0</ele><time>2026-04-18T07:24:48.125Z</time></trkpt><trkpt lat="37.8085367" lon="15.0844117"><ele>1284.0</ele><time>2026-04-18T07:24:50.125Z</time></trkpt><trkpt lat="37.8085467" lon="15.08432"><ele>1284.0</ele><time>2026-04-18T07:24:51.125Z</time></trkpt><trkpt lat="37.8085833" lon="15.0842217"><ele>1284.0</ele><time>2026-04-18T07:24:52.125Z</time></trkpt><trkpt lat="37.8086717" lon="15.0841383"><ele>1284.0</ele><time>2026-04-18T07:24:53.125Z</time></trkpt><trkpt lat="37.8087883" lon="15.0840933"><ele>1284.0</ele><time>2026-04-18T07:24:54.125Z</time></trkpt><trkpt lat="37.8089433" lon="15.0840783"><ele>1284.0</ele><time>2026-04-18T07:24:55.124Z</time></trkpt><trkpt lat="37.809125" lon="15.084055"><ele>1290.6666666666667</ele><time>2026-04-18T07:24:56.125Z</time></trkpt><trkpt lat="37.8093433" lon="15.083995"><ele>1297.3333333333335</ele><time>2026-04-18T07:24:57.125Z</time></trkpt><trkpt lat="37.809555" lon="15.0839233"><ele>1304.0</ele><time>2026-04-18T07:24:58.125Z</time></trkpt><trkpt lat="37.80974" lon="15.0838467"><ele>1304.0</ele><time>2026-04-18T07:24:59.125Z</time></trkpt><trkpt lat="37.8099017" lon="15.0838033"><ele>1304.0</ele><time>2026-04-18T07:25:00.125Z</time></trkpt><trkpt lat="37.8100467" lon="15.083725"><ele>1304.0</ele><time>2026-04-18T07:25:01.125Z</time></trkpt><trkpt lat="37.8102" lon="15.0835883"><ele>1305.6666666666667</ele><time>2026-04-18T07:25:02.125Z</time></trkpt><trkpt lat="37.81035" lon="15.083445"><ele>1307.3333333333333</ele><time>2026-04-18T07:25:03.125Z</time></trkpt><trkpt lat="37.8104717" lon="15.0833133"><ele>1309.0</ele><time>2026-04-18T07:25:04.125Z</time></trkpt><trkpt lat="37.8105567" lon="15.0831983"><ele>1309.0</ele><time>2026-04-18T07:25:05.125Z</time></trkpt><trkpt lat="37.810605" lon="15.0830683"><ele>1309.0</ele><time>2026-04-18T07:25:06.125Z</time></trkpt><trkpt lat="37.8106367" lon="15.08291"><ele>1309.0</ele><time>2026-04-18T07:25:07.125Z</time></trkpt><trkpt lat="37.8106717" lon="15.08274"><ele>1309.0</ele><time>2026-04-18T07:25:08.125Z</time></trkpt><trkpt lat="37.8107217" lon="15.0825617"><ele>1308.0</ele><time>2026-04-18T07:25:09.125Z</time></trkpt><trkpt lat="37.81079" lon="15.08238"><ele>1307.0</ele><time>2026-04-18T07:25:10.125Z</time></trkpt><trkpt lat="37.8108917" lon="15.0821917"><ele>1306.0</ele><time>2026-04-18T07:25:11.125Z</time></trkpt><trkpt lat="37.8110433" lon="15.0820033"><ele>1306.0</ele><time>2026-04-18T07:25:12.124Z</time></trkpt><trkpt lat="37.811175" lon="15.0818283"><ele>1306.0</ele><time>2026-04-18T07:25:13.125Z</time></trkpt><trkpt lat="37.8113033" lon="15.0816817"><ele>1306.0</ele><time>2026-04-18T07:25:14.125Z</time></trkpt><trkpt lat="37.8114367" lon="15.0815817"><ele>1305.75</ele><time>2026-04-18T07:25:15.125Z</time></trkpt><trkpt lat="37.8115683" lon="15.081515"><ele>1305.5</ele><time>2026-04-18T07:25:16.125Z</time></trkpt><trkpt lat="37.8116767" lon="15.081435"><ele>1305.25</ele><time>2026-04-18T07:25:17.125Z</time></trkpt><trkpt lat="37.8117683" lon="15.0813283"><ele>1305.0</ele><time>2026-04-18T07:25:18.125Z</time></trkpt><trkpt lat="37.81183" lon="15.0811967"><ele>1305.0</ele><time>2026-04-18T07:25:19.125Z</time></trkpt><trkpt lat="37.81185" lon="15.08105"><ele>1305.0</ele><time>2026-04-18T07:25:20.125Z</time></trkpt><trkpt lat="37.8118317" lon="15.08088"><ele>1305.0</ele><time>2026-04-18T07:25:21.125Z</time></trkpt><trkpt lat="37.8117833" lon="15.0807267"><ele>1305.0</ele><time>2026-04-18T07:25:22.125Z</time></trkpt><trkpt lat="37.8117067" lon="15.0806067"><ele>1309.75</ele><time>2026-04-18T07:25:23.125Z</time></trkpt><trkpt lat="37.8116" lon="15.0805117"><ele>1314.5</ele><time>2026-04-18T07:25:24.125Z</time></trkpt><trkpt lat="37.8114667" lon="15.0804667"><ele>1319.25</ele><time>2026-04-18T07:25:25.125Z</time></trkpt><trkpt lat="37.8113317" lon="15.0804433"><ele>1324.0</ele><time>2026-04-18T07:25:26.124Z</time></trkpt><trkpt lat="37.8112" lon="15.0804567"><ele>1324.0</ele><time>2026-04-18T07:25:27.125Z</time></trkpt><trkpt lat="37.8110767" lon="15.080505"><ele>1324.0</ele><time>2026-04-18T07:25:28.125Z</time></trkpt><trkpt lat="37.8109483" lon="15.08061"><ele>1324.0</ele><time>2026-04-18T07:25:29.124Z</time></trkpt><trkpt lat="37.8108617" lon="15.0807533"><ele>1324.0</ele><time>2026-04-18T07:25:30.124Z</time></trkpt><trkpt lat="37.810755" lon="15.08095"><ele>1326.0</ele><time>2026-04-18T07:25:31.125Z</time></trkpt><trkpt lat="37.8106417" lon="15.081125"><ele>1328.0</ele><time>2026-04-18T07:25:32.125Z</time></trkpt><trkpt lat="37.8105233" lon="15.0812783"><ele>1330.0</ele><time>2026-04-18T07:25:33.125Z</time></trkpt><trkpt lat="37.8103767" lon="15.0814017"><ele>1330.0</ele><time>2026-04-18T07:25:34.125Z</time></trkpt><trkpt lat="37.81021" lon="15.0814983"><ele>1330.0</ele><time>2026-04-18T07:25:35.125Z</time></trkpt><trkpt lat="37.81003" lon="15.0815383"><ele>1330.0</ele><time>2026-04-18T07:25:36.125Z</time></trkpt><trkpt lat="37.8098283" lon="15.0815367"><ele>1330.0</ele><time>2026-04-18T07:25:37.124Z</time></trkpt><trkpt lat="37.80964" lon="15.0815767"><ele>1330.0</ele><time>2026-04-18T07:25:38.125Z</time></trkpt><trkpt lat="37.8094817" lon="15.0816217"><ele>1330.0</ele><time>2026-04-18T07:25:39.125Z</time></trkpt><trkpt lat="37.8093467" lon="15.081665"><ele>1331.8</ele><time>2026-04-18T07:25:40.125Z</time></trkpt><trkpt lat="37.809225" lon="15.0816983"><ele>1333.6</ele><time>2026-04-18T07:25:41.125Z</time></trkpt><trkpt lat="37.8091367" lon="15.0817383"><ele>1335.4</ele><time>2026-04-18T07:25:42.125Z</time></trkpt><trkpt lat="37.8090483" lon="15.081745"><ele>1337.2</ele><time>2026-04-18T07:25:43.125Z</time></trkpt><trkpt lat="37.80899" lon="15.0816267"><ele>1339.0</ele><time>2026-04-18T07:25:45.125Z</time></trkpt><trkpt lat="37.80902" lon="15.0815417"><ele>1340.0</ele><time>2026-04-18T07:25:46.125Z</time></trkpt><trkpt lat="37.8090767" lon="15.0814217"><ele>1341.0</ele><time>2026-04-18T07:25:47.125Z</time></trkpt><trkpt lat="37.8091767" lon="15.0813283"><ele>1342.0</ele><time>2026-04-18T07:25:48.124Z</time></trkpt><trkpt lat="37.8092967" lon="15.0812383"><ele>1343.0</ele><time>2026-04-18T07:25:49.125Z</time></trkpt><trkpt lat="37.8094217" lon="15.0811417"><ele>1343.0</ele><time>2026-04-18T07:25:50.125Z</time></trkpt><trkpt lat="37.8095417" lon="15.0809967"><ele>1343.0</ele><time>2026-04-18T07:25:51.125Z</time></trkpt><trkpt lat="37.8096717" lon="15.0808133"><ele>1343.0</ele><time>2026-04-18T07:25:52.125Z</time></trkpt><trkpt lat="37.809795" lon="15.0806267"><ele>1345.5</ele><time>2026-04-18T07:25:53.124Z</time></trkpt><trkpt lat="37.80991" lon="15.0804583"><ele>1348.0</ele><time>2026-04-18T07:25:54.125Z</time></trkpt><trkpt lat="37.8099717" lon="15.08032"><ele>1350.5</ele><time>2026-04-18T07:25:55.125Z</time></trkpt><trkpt lat="37.8100333" lon="15.0801783"><ele>1353.0</ele><time>2026-04-18T07:25:56.125Z</time></trkpt><trkpt lat="37.810085" lon="15.0800483"><ele>1353.8000000000002</ele><time>2026-04-18T07:25:57.125Z</time></trkpt><trkpt lat="37.8100983" lon="15.0799117"><ele>1354.6</ele><time>2026-04-18T07:25:58.125Z</time></trkpt><trkpt lat="37.8100617" lon="15.0797933"><ele>1355.4</ele><time>2026-04-18T07:25:59.125Z</time></trkpt><trkpt lat="37.8100017" lon="15.079695"><ele>1356.1999999999998</ele><time>2026-04-18T07:26:00.125Z</time></trkpt><trkpt lat="37.809915" lon="15.0796133"><ele>1357.0</ele><time>2026-04-18T07:26:01.125Z</time></trkpt><trkpt lat="37.8098267" lon="15.079555"><ele>1357.0</ele><time>2026-04-18T07:26:02.125Z</time></trkpt><trkpt lat="37.8097383" lon="15.0795233"><ele>1357.0</ele><time>2026-04-18T07:26:03.125Z</time></trkpt><trkpt lat="37.809655" lon="15.0795933"><ele>1357.0</ele><time>2026-04-18T07:26:04.125Z</time></trkpt><trkpt lat="37.8095683" lon="15.0796417"><ele>1357.0</ele><time>2026-04-18T07:26:05.125Z</time></trkpt><trkpt lat="37.8094717" lon="15.0797033"><ele>1357.0</ele><time>2026-04-18T07:26:06.125Z</time></trkpt><trkpt lat="37.8093683" lon="15.07977"><ele>1361.0</ele><time>2026-04-18T07:26:07.125Z</time></trkpt><trkpt lat="37.8092533" lon="15.0798017"><ele>1365.0</ele><time>2026-04-18T07:26:08.125Z</time></trkpt><trkpt lat="37.8090967" lon="15.07981"><ele>1369.0</ele><time>2026-04-18T07:26:09.125Z</time></trkpt><trkpt lat="37.8089383" lon="15.0798033"><ele>1373.0</ele><time>2026-04-18T07:26:10.125Z</time></trkpt><trkpt lat="37.8087517" lon="15.0797617"><ele>1373.0</ele><time>2026-04-18T07:26:11.125Z</time></trkpt><trkpt lat="37.808585" lon="15.0797367"><ele>1373.0</ele><time>2026-04-18T07:26:12.124Z</time></trkpt><trkpt lat="37.808425" lon="15.0797417"><ele>1373.0</ele><time>2026-04-18T07:26:13.125Z</time></trkpt><trkpt lat="37.8082633" lon="15.079765"><ele>1375.6666666666667</ele><time>2026-04-18T07:26:14.125Z</time></trkpt><trkpt lat="37.8080017" lon="15.0797917"><ele>1378.3333333333333</ele><time>2026-04-18T07:26:15.125Z</time></trkpt><trkpt lat="37.807825" lon="15.07982"><ele>1381.0</ele><time>2026-04-18T07:26:16.125Z</time></trkpt><trkpt lat="37.8076567" lon="15.0798283"><ele>1384.6666666666665</ele><time>2026-04-18T07:26:17.125Z</time></trkpt><trkpt lat="37.8074683" lon="15.07981"><ele>1388.3333333333333</ele><time>2026-04-18T07:26:18.125Z</time></trkpt><trkpt lat="37.8072917" lon="15.079775"><ele>1392.0</ele><time>2026-04-18T07:26:19.125Z</time></trkpt><trkpt lat="37.807135" lon="15.0797433"><ele>1392.0</ele><time>2026-04-18T07:26:20.125Z</time></trkpt><trkpt lat="37.80699" lon="15.079695"><ele>1392.0</ele><time>2026-04-18T07:26:21.125Z</time></trkpt><trkpt lat="37.8068867" lon="15.0796267"><ele>1392.0</ele><time>2026-04-18T07:26:22.125Z</time></trkpt><trkpt lat="37.8068133" lon="15.0795233"><ele>1392.0</ele><time>2026-04-18T07:26:23.124Z</time></trkpt><trkpt lat="37.80676" lon="15.0794017"><ele>1390.3333333333333</ele><time>2026-04-18T07:26:24.125Z</time></trkpt><trkpt lat="37.8067167" lon="15.0792567"><ele>1388.6666666666665</ele><time>2026-04-18T07:26:25.125Z</time></trkpt><trkpt lat="37.8066683" lon="15.0790633"><ele>1387.0</ele><time>2026-04-18T07:26:26.125Z</time></trkpt><trkpt lat="37.806645" lon="15.0788467"><ele>1386.5</ele><time>2026-04-18T07:26:27.125Z</time></trkpt><trkpt lat="37.8066267" lon="15.0786433"><ele>1386.0</ele><time>2026-04-18T07:26:28.125Z</time></trkpt><trkpt lat="37.8066083" lon="15.0784583"><ele>1385.5</ele><time>2026-04-18T07:26:29.125Z</time></trkpt><trkpt lat="37.8066133" lon="15.0782883"><ele>1385.0</ele><time>2026-04-18T07:26:30.124Z</time></trkpt><trkpt lat="37.8066083" lon="15.0781317"><ele>1386.0</ele><time>2026-04-18T07:26:31.125Z</time></trkpt><trkpt lat="37.8066317" lon="15.0780033"><ele>1387.0</ele><time>2026-04-18T07:26:32.125Z</time></trkpt><trkpt lat="37.8066783" lon="15.0778883"><ele>1388.0</ele><time>2026-04-18T07:26:33.125Z</time></trkpt><trkpt lat="37.8067317" lon="15.0778217"><ele>1389.0</ele><time>2026-04-18T07:26:34.125Z</time></trkpt><trkpt lat="37.8068" lon="15.077765"><ele>1390.0</ele><time>2026-04-18T07:26:35.125Z</time></trkpt><trkpt lat="37.8068717" lon="15.07775"><ele>1391.0</ele><time>2026-04-18T07:26:36.124Z</time></trkpt><trkpt lat="37.80695" lon="15.0777683"><ele>1394.0</ele><time>2026-04-18T07:26:37.125Z</time></trkpt><trkpt lat="37.8070517" lon="15.0777683"><ele>1397.0</ele><time>2026-04-18T07:26:39.125Z</time></trkpt><trkpt lat="37.8071" lon="15.0783117"><ele>1397.0</ele><time>2026-04-18T07:26:41.125Z</time></trkpt><trkpt lat="37.807095" lon="15.078575"><ele>1397.0</ele><time>2026-04-18T07:26:42.125Z</time></trkpt><trkpt lat="37.807125" lon="15.0788233"><ele>1397.0</ele><time>2026-04-18T07:26:43.125Z</time></trkpt><trkpt lat="37.80715" lon="15.0790367"><ele>1395.75</ele><time>2026-04-18T07:26:44.125Z</time></trkpt><trkpt lat="37.8071867" lon="15.0792417"><ele>1394.5</ele><time>2026-04-18T07:26:45.125Z</time></trkpt><trkpt lat="37.8072333" lon="15.0793783"><ele>1393.25</ele><time>2026-04-18T07:26:46.125Z</time></trkpt><trkpt lat="37.8073183" lon="15.0794283"><ele>1392.0</ele><time>2026-04-18T07:26:47.125Z</time></trkpt><trkpt lat="37.8073983" lon="15.0794617"><ele>1392.0</ele><time>2026-04-18T07:26:48.125Z</time></trkpt><trkpt lat="37.8074683" lon="15.07942"><ele>1392.0</ele><time>2026-04-18T07:26:49.125Z</time></trkpt><trkpt lat="37.807525" lon="15.0793517"><ele>1392.0</ele><time>2026-04-18T07:26:50.125Z</time></trkpt><trkpt lat="37.8075533" lon="15.07925"><ele>1392.0</ele><time>2026-04-18T07:26:51.125Z</time></trkpt><trkpt lat="37.807575" lon="15.079165"><ele>1392.0</ele><time>2026-04-18T07:26:52.125Z</time></trkpt><trkpt lat="37.8075667" lon="15.0790483"><ele>1392.0</ele><time>2026-04-18T07:26:53.125Z</time></trkpt><trkpt lat="37.8075217" lon="15.0788117"><ele>1393.25</ele><time>2026-04-18T07:26:54.125Z</time></trkpt><trkpt lat="37.80752" lon="15.07868"><ele>1394.5</ele><time>2026-04-18T07:26:55.125Z</time></trkpt><trkpt lat="37.80754" lon="15.078525"><ele>1395.75</ele><time>2026-04-18T07:26:56.125Z</time></trkpt><trkpt lat="37.807585" lon="15.07835"><ele>1397.0</ele><time>2026-04-18T07:26:57.125Z</time></trkpt><trkpt lat="37.80764" lon="15.0781883"><ele>1400.0</ele><time>2026-04-18T07:26:58.125Z</time></trkpt><trkpt lat="37.8077383" lon="15.077945"><ele>1403.0</ele><time>2026-04-18T07:26:59.125Z</time></trkpt><trkpt lat="37.8078317" lon="15.0777033"><ele>1406.0</ele><time>2026-04-18T07:27:00.125Z</time></trkpt><trkpt lat="37.8079517" lon="15.077455"><ele>1409.0</ele><time>2026-04-18T07:27:01.125Z</time></trkpt><trkpt lat="37.808065" lon="15.0772283"><ele>1412.0</ele><time>2026-04-18T07:27:02.125Z</time></trkpt><trkpt lat="37.8081717" lon="15.076995"><ele>1415.0</ele><time>2026-04-18T07:27:03.125Z</time></trkpt><trkpt lat="37.8082733" lon="15.0767817"><ele>1415.0</ele><time>2026-04-18T07:27:04.125Z</time></trkpt><trkpt lat="37.8083467" lon="15.076605"><ele>1415.0</ele><time>2026-04-18T07:27:05.125Z</time></trkpt><trkpt lat="37.8084167" lon="15.0764333"><ele>1415.0</ele><time>2026-04-18T07:27:06.125Z</time></trkpt><trkpt lat="37.8084417" lon="15.0762733"><ele>1415.0</ele><time>2026-04-18T07:27:07.125Z</time></trkpt><trkpt lat="37.808455" lon="15.0760933"><ele>1416.3333333333335</ele><time>2026-04-18T07:27:08.125Z</time></trkpt><trkpt lat="37.808455" lon="15.0759083"><ele>1417.6666666666667</ele><time>2026-04-18T07:27:09.125Z</time></trkpt><trkpt lat="37.8084517" lon="15.0756917"><ele>1419.0</ele><time>2026-04-18T07:27:10.125Z</time></trkpt><trkpt lat="37.808435" lon="15.0754967"><ele>1419.0</ele><time>2026-04-18T07:27:11.125Z</time></trkpt><trkpt lat="37.80842" lon="15.0753133"><ele>1419.0</ele><time>2026-04-18T07:27:12.124Z</time></trkpt><trkpt lat="37.8084033" lon="15.0751567"><ele>1419.0</ele><time>2026-04-18T07:27:13.125Z</time></trkpt><trkpt lat="37.8083817" lon="15.0750167"><ele>1419.0</ele><time>2026-04-18T07:27:14.125Z</time></trkpt><trkpt lat="37.808355" lon="15.0748883"><ele>1418.8333333333333</ele><time>2026-04-18T07:27:15.125Z</time></trkpt><trkpt lat="37.8083183" lon="15.0747667"><ele>1418.6666666666667</ele><time>2026-04-18T07:27:16.125Z</time></trkpt><trkpt lat="37.8082933" lon="15.074655"><ele>1418.5</ele><time>2026-04-18T07:27:17.125Z</time></trkpt><trkpt lat="37.8082733" lon="15.0745517"><ele>1418.3333333333335</ele><time>2026-04-18T07:27:18.125Z</time></trkpt><trkpt lat="37.8082583" lon="15.074445"><ele>1418.1666666666667</ele><time>2026-04-18T07:27:19.125Z</time></trkpt><trkpt lat="37.808245" lon="15.0743467"><ele>1418.0</ele><time>2026-04-18T07:27:20.125Z</time></trkpt><trkpt lat="37.808235" lon="15.0742383"><ele>1418.0</ele><time>2026-04-18T07:27:21.125Z</time></trkpt><trkpt lat="37.8082283" lon="15.0741133"><ele>1418.0</ele><time>2026-04-18T07:27:22.125Z</time></trkpt><trkpt lat="37.8082117" lon="15.073985"><ele>1418.0</ele><time>2026-04-18T07:27:23.125Z</time></trkpt><trkpt lat="37.8081983" lon="15.0738767"><ele>1418.0</ele><time>2026-04-18T07:27:24.125Z</time></trkpt><trkpt lat="37.8081833" lon="15.07378"><ele>1418.0</ele><time>2026-04-18T07:27:25.125Z</time></trkpt><trkpt lat="37.808175" lon="15.0736833"><ele>1418.0</ele><time>2026-04-18T07:27:26.125Z</time></trkpt><trkpt lat="37.80818" lon="15.073595"><ele>1419.6666666666667</ele><time>2026-04-18T07:27:27.125Z</time></trkpt><trkpt lat="37.808205" lon="15.0735217"><ele>1421.3333333333335</ele><time>2026-04-18T07:27:28.125Z</time></trkpt><trkpt lat="37.8082483" lon="15.07345"><ele>1423.0</ele><time>2026-04-18T07:27:29.125Z</time></trkpt><trkpt lat="37.8083433" lon="15.07335"><ele>1424.6666666666667</ele><time>2026-04-18T07:27:31.125Z</time></trkpt><trkpt lat="37.8084133" lon="15.0733217"><ele>1426.3333333333333</ele><time>2026-04-18T07:27:32.125Z</time></trkpt><trkpt lat="37.8084917" lon="15.0733033"><ele>1428.0</ele><time>2026-04-18T07:27:33.125Z</time></trkpt><trkpt lat="37.8085667" lon="15.0732817"><ele>1430.2</ele><time>2026-04-18T07:27:34.125Z</time></trkpt><trkpt lat="37.80865" lon="15.0732283"><ele>1432.4</ele><time>2026-04-18T07:27:35.125Z</time></trkpt><trkpt lat="37.80872" lon="15.0731517"><ele>1434.6000000000001</ele><time>2026-04-18T07:27:36.125Z</time></trkpt><trkpt lat="37.8087767" lon="15.0730683"><ele>1436.8000000000002</ele><time>2026-04-18T07:27:37.125Z</time></trkpt><trkpt lat="37.80882" lon="15.0729683"><ele>1439.0</ele><time>2026-04-18T07:27:38.125Z</time></trkpt><trkpt lat="37.8088467" lon="15.0728367"><ele>1439.0</ele><time>2026-04-18T07:27:39.124Z</time></trkpt><trkpt lat="37.8088533" lon="15.0726767"><ele>1439.0</ele><time>2026-04-18T07:27:40.124Z</time></trkpt><trkpt lat="37.80884" lon="15.0723933"><ele>1439.0</ele><time>2026-04-18T07:27:41.125Z</time></trkpt><trkpt lat="37.8088417" lon="15.0721033"><ele>1445.0</ele><time>2026-04-18T07:27:42.125Z</time></trkpt><trkpt lat="37.8088583" lon="15.0717967"><ele>1451.0</ele><time>2026-04-18T07:27:43.125Z</time></trkpt><trkpt lat="37.8088567" lon="15.07149"><ele>1453.0</ele><time>2026-04-18T07:27:44.125Z</time></trkpt><trkpt lat="37.8088583" lon="15.0712017"><ele>1455.0</ele><time>2026-04-18T07:27:45.124Z</time></trkpt><trkpt lat="37.8088583" lon="15.0709267"><ele>1457.0</ele><time>2026-04-18T07:27:46.125Z</time></trkpt><trkpt lat="37.8088617" lon="15.0706933"><ele>1458.3333333333335</ele><time>2026-04-18T07:27:47.125Z</time></trkpt><trkpt lat="37.80886" lon="15.0704883"><ele>1459.6666666666667</ele><time>2026-04-18T07:27:48.125Z</time></trkpt><trkpt lat="37.80887" lon="15.0702717"><ele>1461.0</ele><time>2026-04-18T07:27:49.125Z</time></trkpt><trkpt lat="37.8088917" lon="15.07006"><ele>1464.0</ele><time>2026-04-18T07:27:50.125Z</time></trkpt><trkpt lat="37.8089067" lon="15.0698433"><ele>1467.0</ele><time>2026-04-18T07:27:51.125Z</time></trkpt><trkpt lat="37.8089467" lon="15.06964"><ele>1470.0</ele><time>2026-04-18T07:27:52.125Z</time></trkpt><trkpt lat="37.8089917" lon="15.0694533"><ele>1470.0</ele><time>2026-04-18T07:27:53.125Z</time></trkpt><trkpt lat="37.80904" lon="15.0693033"><ele>1470.0</ele><time>2026-04-18T07:27:54.125Z</time></trkpt><trkpt lat="37.809085" lon="15.0691483"><ele>1470.0</ele><time>2026-04-18T07:27:55.125Z</time></trkpt><trkpt lat="37.80913" lon="15.0690067"><ele>1470.0</ele><time>2026-04-18T07:27:56.125Z</time></trkpt><trkpt lat="37.8091433" lon="15.0688683"><ele>1472.4</ele><time>2026-04-18T07:27:57.125Z</time></trkpt><trkpt lat="37.8091217" lon="15.068775"><ele>1474.8</ele><time>2026-04-18T07:27:58.125Z</time></trkpt><trkpt lat="37.809075" lon="15.068665"><ele>1477.1999999999998</ele><time>2026-04-18T07:28:00.124Z</time></trkpt><trkpt lat="37.8089733" lon="15.0687433"><ele>1479.6</ele><time>2026-04-18T07:28:02.125Z</time></trkpt><trkpt lat="37.8089033" lon="15.06882"><ele>1482.0</ele><time>2026-04-18T07:28:03.125Z</time></trkpt><trkpt lat="37.808855" lon="15.0688967"><ele>1482.0</ele><time>2026-04-18T07:28:04.125Z</time></trkpt><trkpt lat="37.80881" lon="15.0689983"><ele>1482.0</ele><time>2026-04-18T07:28:05.125Z</time></trkpt><trkpt lat="37.80876" lon="15.0690817"><ele>1482.0</ele><time>2026-04-18T07:28:06.125Z</time></trkpt><trkpt lat="37.8086" lon="15.0692933"><ele>1482.0</ele><time>2026-04-18T07:28:07.125Z</time></trkpt><trkpt lat="37.80851" lon="15.0693667"><ele>1481.25</ele><time>2026-04-18T07:28:08.125Z</time></trkpt><trkpt lat="37.8084133" lon="15.0694367"><ele>1480.5</ele><time>2026-04-18T07:28:09.125Z</time></trkpt><trkpt lat="37.80831" lon="15.0694633"><ele>1479.75</ele><time>2026-04-18T07:28:10.125Z</time></trkpt><trkpt lat="37.8081783" lon="15.0694617"><ele>1479.0</ele><time>2026-04-18T07:28:11.125Z</time></trkpt><trkpt lat="37.8080417" lon="15.0693633"><ele>1479.0</ele><time>2026-04-18T07:28:12.125Z</time></trkpt><trkpt lat="37.807905" lon="15.0692667"><ele>1479.0</ele><time>2026-04-18T07:28:13.125Z</time></trkpt><trkpt lat="37.807785" lon="15.06914"><ele>1479.0</ele><time>2026-04-18T07:28:14.125Z</time></trkpt><trkpt lat="37.8076983" lon="15.0690117"><ele>1479.0</ele><time>2026-04-18T07:28:15.125Z</time></trkpt><trkpt lat="37.8076233" lon="15.06886"><ele>1477.6666666666667</ele><time>2026-04-18T07:28:16.125Z</time></trkpt><trkpt lat="37.8075483" lon="15.06868"><ele>1476.3333333333335</ele><time>2026-04-18T07:28:17.124Z</time></trkpt><trkpt lat="37.8074783" lon="15.0684867"><ele>1475.0</ele><time>2026-04-18T07:28:18.125Z</time></trkpt><trkpt lat="37.8074217" lon="15.0683033"><ele>1477.75</ele><time>2026-04-18T07:28:19.125Z</time></trkpt><trkpt lat="37.8073733" lon="15.0681333"><ele>1480.5</ele><time>2026-04-18T07:28:20.125Z</time></trkpt><trkpt lat="37.8073217" lon="15.0679683"><ele>1483.25</ele><time>2026-04-18T07:28:21.125Z</time></trkpt><trkpt lat="37.80727" lon="15.0678117"><ele>1486.0</ele><time>2026-04-18T07:28:22.125Z</time></trkpt><trkpt lat="37.80719" lon="15.06767"><ele>1486.0</ele><time>2026-04-18T07:28:23.125Z</time></trkpt><trkpt lat="37.8070917" lon="15.0675433"><ele>1486.0</ele><time>2026-04-18T07:28:24.125Z</time></trkpt><trkpt lat="37.8069883" lon="15.0674283"><ele>1486.0</ele><time>2026-04-18T07:28:25.125Z</time></trkpt><trkpt lat="37.8069017" lon="15.06733"><ele>1486.0</ele><time>2026-04-18T07:28:26.125Z</time></trkpt><trkpt lat="37.8068233" lon="15.0672467"><ele>1485.5</ele><time>2026-04-18T07:28:27.125Z</time></trkpt><trkpt lat="37.80676" lon="15.0671683"><ele>1485.0</ele><time>2026-04-18T07:28:28.125Z</time></trkpt><trkpt lat="37.8067" lon="15.067105"><ele>1484.5</ele><time>2026-04-18T07:28:29.125Z</time></trkpt><trkpt lat="37.806645" lon="15.0670533"><ele>1484.0</ele><time>2026-04-18T07:28:30.125Z</time></trkpt><trkpt lat="37.8065383" lon="15.0669517"><ele>1483.5</ele><time>2026-04-18T07:28:32.125Z</time></trkpt><trkpt lat="37.8064767" lon="15.0668967"><ele>1483.0</ele><time>2026-04-18T07:28:33.124Z</time></trkpt><trkpt lat="37.8064033" lon="15.0668383"><ele>1483.0</ele><time>2026-04-18T07:28:34.124Z</time></trkpt><trkpt lat="37.8063283" lon="15.0667683"><ele>1483.0</ele><time>2026-04-18T07:28:35.125Z</time></trkpt><trkpt lat="37.8062517" lon="15.0666717"><ele>1483.0</ele><time>2026-04-18T07:28:36.125Z</time></trkpt><trkpt lat="37.8061717" lon="15.06656"><ele>1483.0</ele><time>2026-04-18T07:28:37.125Z</time></trkpt><trkpt lat="37.8060617" lon="15.0664617"><ele>1485.0</ele><time>2026-04-18T07:28:38.124Z</time></trkpt><trkpt lat="37.8059483" lon="15.066345"><ele>1487.0</ele><time>2026-04-18T07:28:39.125Z</time></trkpt><trkpt lat="37.8058367" lon="15.06622"><ele>1489.0</ele><time>2026-04-18T07:28:40.125Z</time></trkpt><trkpt lat="37.8057283" lon="15.066075"><ele>1489.0</ele><time>2026-04-18T07:28:41.124Z</time></trkpt><trkpt lat="37.80562" lon="15.065925"><ele>1489.0</ele><time>2026-04-18T07:28:42.125Z</time></trkpt><trkpt lat="37.8055417" lon="15.0657633"><ele>1489.0</ele><time>2026-04-18T07:28:43.125Z</time></trkpt><trkpt lat="37.80547" lon="15.0656067"><ele>1490.25</ele><time>2026-04-18T07:28:44.125Z</time></trkpt><trkpt lat="37.8054" lon="15.0654733"><ele>1491.5</ele><time>2026-04-18T07:28:45.125Z</time></trkpt><trkpt lat="37.805325" lon="15.06536"><ele>1492.75</ele><time>2026-04-18T07:28:46.125Z</time></trkpt><trkpt lat="37.8052367" lon="15.06528"><ele>1494.0</ele><time>2026-04-18T07:28:47.125Z</time></trkpt><trkpt lat="37.8051433" lon="15.0652417"><ele>1494.0</ele><time>2026-04-18T07:28:48.124Z</time></trkpt><trkpt lat="37.8050333" lon="15.065235"><ele>1494.0</ele><time>2026-04-18T07:28:49.125Z</time></trkpt><trkpt lat="37.8048933" lon="15.06525"><ele>1494.0</ele><time>2026-04-18T07:28:50.125Z</time></trkpt><trkpt lat="37.8047317" lon="15.0652883"><ele>1494.0</ele><time>2026-04-18T07:28:51.125Z</time></trkpt><trkpt lat="37.8045483" lon="15.06533"><ele>1494.0</ele><time>2026-04-18T07:28:52.125Z</time></trkpt><trkpt lat="37.8043483" lon="15.065375"><ele>1494.0</ele><time>2026-04-18T07:28:53.124Z</time></trkpt><trkpt lat="37.80414" lon="15.0654183"><ele>1494.0</ele><time>2026-04-18T07:28:54.125Z</time></trkpt><trkpt lat="37.8039383" lon="15.0654567"><ele>1494.6666666666667</ele><time>2026-04-18T07:28:55.125Z</time></trkpt><trkpt lat="37.8037483" lon="15.065485"><ele>1495.3333333333335</ele><time>2026-04-18T07:28:56.125Z</time></trkpt><trkpt lat="37.8035717" lon="15.0655133"><ele>1496.0</ele><time>2026-04-18T07:28:57.124Z</time></trkpt><trkpt lat="37.8034017" lon="15.065545"><ele>1497.0</ele><time>2026-04-18T07:28:58.125Z</time></trkpt><trkpt lat="37.8032467" lon="15.0655667"><ele>1498.0</ele><time>2026-04-18T07:28:59.125Z</time></trkpt><trkpt lat="37.803105" lon="15.06558"><ele>1499.0</ele><time>2026-04-18T07:29:00.125Z</time></trkpt><trkpt lat="37.8029683" lon="15.0655767"><ele>1500.0</ele><time>2026-04-18T07:29:01.125Z</time></trkpt><trkpt lat="37.8028317" lon="15.0655483"><ele>1500.0</ele><time>2026-04-18T07:29:02.125Z</time></trkpt><trkpt lat="37.8026883" lon="15.065485"><ele>1500.0</ele><time>2026-04-18T07:29:03.125Z</time></trkpt><trkpt lat="37.8025417" lon="15.0653917"><ele>1500.0</ele><time>2026-04-18T07:29:04.125Z</time></trkpt><trkpt lat="37.8023883" lon="15.0652883"><ele>1498.3333333333333</ele><time>2026-04-18T07:29:05.125Z</time></trkpt><trkpt lat="37.80222" lon="15.0651883"><ele>1496.6666666666665</ele><time>2026-04-18T07:29:06.125Z</time></trkpt><trkpt lat="37.8020483" lon="15.0651117"><ele>1495.0</ele><time>2026-04-18T07:29:07.125Z</time></trkpt><trkpt lat="37.801895" lon="15.06503"><ele>1495.0</ele><time>2026-04-18T07:29:08.125Z</time></trkpt><trkpt lat="37.8017467" lon="15.064965"><ele>1495.0</ele><time>2026-04-18T07:29:09.125Z</time></trkpt><trkpt lat="37.80162" lon="15.0649067"><ele>1495.0</ele><time>2026-04-18T07:29:10.125Z</time></trkpt><trkpt lat="37.8015083" lon="15.0648883"><ele>1495.0</ele><time>2026-04-18T07:29:11.125Z</time></trkpt><trkpt lat="37.8014033" lon="15.0648983"><ele>1495.0</ele><time>2026-04-18T07:29:12.125Z</time></trkpt><trkpt lat="37.8012983" lon="15.064925"><ele>1495.0</ele><time>2026-04-18T07:29:13.125Z</time></trkpt><trkpt lat="37.8011867" lon="15.0649967"><ele>1495.0</ele><time>2026-04-18T07:29:14.125Z</time></trkpt><trkpt lat="37.80108" lon="15.065105"><ele>1495.0</ele><time>2026-04-18T07:29:15.125Z</time></trkpt><trkpt lat="37.8009933" lon="15.0652183"><ele>1497.0</ele><time>2026-04-18T07:29:16.125Z</time></trkpt><trkpt lat="37.8008933" lon="15.065315"><ele>1499.0</ele><time>2026-04-18T07:29:17.125Z</time></trkpt><trkpt lat="37.8007883" lon="15.0653883"><ele>1501.0</ele><time>2026-04-18T07:29:18.125Z</time></trkpt><trkpt lat="37.8006533" lon="15.06543"><ele>1503.0</ele><time>2026-04-18T07:29:19.125Z</time></trkpt><trkpt lat="37.800505" lon="15.0654433"><ele>1503.0</ele><time>2026-04-18T07:29:20.125Z</time></trkpt><trkpt lat="37.8003417" lon="15.06545"><ele>1503.0</ele><time>2026-04-18T07:29:21.125Z</time></trkpt><trkpt lat="37.8001617" lon="15.0654283"><ele>1503.0</ele><time>2026-04-18T07:29:22.125Z</time></trkpt><trkpt lat="37.799985" lon="15.0653867"><ele>1504.0</ele><time>2026-04-18T07:29:23.125Z</time></trkpt><trkpt lat="37.7998067" lon="15.065315"><ele>1505.0</ele><time>2026-04-18T07:29:24.125Z</time></trkpt><trkpt lat="37.7996317" lon="15.06525"><ele>1506.0</ele><time>2026-04-18T07:29:25.125Z</time></trkpt><trkpt lat="37.79945" lon="15.0652133"><ele>1505.3333333333333</ele><time>2026-04-18T07:29:26.125Z</time></trkpt><trkpt lat="37.7992633" lon="15.0652067"><ele>1504.6666666666665</ele><time>2026-04-18T07:29:27.125Z</time></trkpt><trkpt lat="37.79908" lon="15.06521"><ele>1504.0</ele><time>2026-04-18T07:29:28.125Z</time></trkpt><trkpt lat="37.7989067" lon="15.0652283"><ele>1504.0</ele><time>2026-04-18T07:29:29.125Z</time></trkpt><trkpt lat="37.7987317" lon="15.0652783"><ele>1504.0</ele><time>2026-04-18T07:29:30.125Z</time></trkpt><trkpt lat="37.79857" lon="15.0653333"><ele>1504.0</ele><time>2026-04-18T07:29:31.124Z</time></trkpt><trkpt lat="37.7984217" lon="15.0653817"><ele>1506.25</ele><time>2026-04-18T07:29:32.125Z</time></trkpt><trkpt lat="37.7982833" lon="15.0654283"><ele>1508.5</ele><time>2026-04-18T07:29:33.124Z</time></trkpt><trkpt lat="37.7981417" lon="15.0654667"><ele>1510.75</ele><time>2026-04-18T07:29:34.125Z</time></trkpt><trkpt lat="37.798" lon="15.0654833"><ele>1513.0</ele><time>2026-04-18T07:29:35.125Z</time></trkpt><trkpt lat="37.79785" lon="15.0654683"><ele>1513.0</ele><time>2026-04-18T07:29:36.125Z</time></trkpt><trkpt lat="37.7977183" lon="15.06542"><ele>1513.0</ele><time>2026-04-18T07:29:37.125Z</time></trkpt><trkpt lat="37.797605" lon="15.0653517"><ele>1513.0</ele><time>2026-04-18T07:29:38.125Z</time></trkpt><trkpt lat="37.7975067" lon="15.065255"><ele>1513.0</ele><time>2026-04-18T07:29:39.125Z</time></trkpt><trkpt lat="37.7974233" lon="15.065115"><ele>1514.0</ele><time>2026-04-18T07:29:40.125Z</time></trkpt><trkpt lat="37.797355" lon="15.0649533"><ele>1515.0</ele><time>2026-04-18T07:29:41.125Z</time></trkpt><trkpt lat="37.7972917" lon="15.0647867"><ele>1516.0</ele><time>2026-04-18T07:29:42.125Z</time></trkpt><trkpt lat="37.797225" lon="15.064595"><ele>1518.0</ele><time>2026-04-18T07:29:43.125Z</time></trkpt><trkpt lat="37.7971533" lon="15.0643967"><ele>1520.0</ele><time>2026-04-18T07:29:44.125Z</time></trkpt><trkpt lat="37.7970867" lon="15.0641933"><ele>1522.0</ele><time>2026-04-18T07:29:45.125Z</time></trkpt><trkpt lat="37.7970183" lon="15.0639833"><ele>1523.3333333333333</ele><time>2026-04-18T07:29:46.125Z</time></trkpt><trkpt lat="37.79695" lon="15.063775"><ele>1524.6666666666667</ele><time>2026-04-18T07:29:47.125Z</time></trkpt><trkpt lat="37.79688" lon="15.0635683"><ele>1526.0</ele><time>2026-04-18T07:29:48.125Z</time></trkpt><trkpt lat="37.7968183" lon="15.0633833"><ele>1526.75</ele><time>2026-04-18T07:29:49.125Z</time></trkpt><trkpt lat="37.7967683" lon="15.06321"><ele>1527.5</ele><time>2026-04-18T07:29:50.125Z</time></trkpt><trkpt lat="37.7967283" lon="15.0630383"><ele>1528.25</ele><time>2026-04-18T07:29:51.125Z</time></trkpt><trkpt lat="37.796705" lon="15.0628617"><ele>1529.0</ele><time>2026-04-18T07:29:52.125Z</time></trkpt><trkpt lat="37.7967083" lon="15.062705"><ele>1529.0</ele><time>2026-04-18T07:29:53.125Z</time></trkpt><trkpt lat="37.7967533" lon="15.0625317"><ele>1529.0</ele><time>2026-04-18T07:29:54.125Z</time></trkpt><trkpt lat="37.7968233" lon="15.06236"><ele>1529.0</ele><time>2026-04-18T07:29:55.125Z</time></trkpt><trkpt lat="37.7969017" lon="15.0621867"><ele>1534.0</ele><time>2026-04-18T07:29:56.125Z</time></trkpt><trkpt lat="37.79698" lon="15.0620083"><ele>1539.0</ele><time>2026-04-18T07:29:57.125Z</time></trkpt><trkpt lat="37.7970617" lon="15.0618317"><ele>1544.0</ele><time>2026-04-18T07:29:58.125Z</time></trkpt><trkpt lat="37.79714" lon="15.06166"><ele>1546.0</ele><time>2026-04-18T07:29:59.125Z</time></trkpt><trkpt lat="37.79721" lon="15.0615033"><ele>1548.0</ele><time>2026-04-18T07:30:00.125Z</time></trkpt><trkpt lat="37.7972833" lon="15.0613467"><ele>1550.0</ele><time>2026-04-18T07:30:01.125Z</time></trkpt><trkpt lat="37.79735" lon="15.0611933"><ele>1552.0</ele><time>2026-04-18T07:30:02.125Z</time></trkpt><trkpt lat="37.797415" lon="15.0610483"><ele>1552.0</ele><time>2026-04-18T07:30:03.125Z</time></trkpt><trkpt lat="37.79747" lon="15.060895"><ele>1552.0</ele><time>2026-04-18T07:30:04.125Z</time></trkpt><trkpt lat="37.7974983" lon="15.0607283"><ele>1552.0</ele><time>2026-04-18T07:30:05.125Z</time></trkpt><trkpt lat="37.7975" lon="15.0605583"><ele>1552.0</ele><time>2026-04-18T07:30:06.125Z</time></trkpt><trkpt lat="37.7974867" lon="15.060385"><ele>1555.0</ele><time>2026-04-18T07:30:07.125Z</time></trkpt><trkpt lat="37.7974483" lon="15.0602183"><ele>1558.0</ele><time>2026-04-18T07:30:08.125Z</time></trkpt><trkpt lat="37.79739" lon="15.0600733"><ele>1561.0</ele><time>2026-04-18T07:30:09.125Z</time></trkpt><trkpt lat="37.7973167" lon="15.0599467"><ele>1564.0</ele><time>2026-04-18T07:30:10.124Z</time></trkpt><trkpt lat="37.7972167" lon="15.0598333"><ele>1567.3333333333335</ele><time>2026-04-18T07:30:11.125Z</time></trkpt><trkpt lat="37.7970917" lon="15.0597333"><ele>1570.6666666666665</ele><time>2026-04-18T07:30:12.125Z</time></trkpt><trkpt lat="37.7969533" lon="15.0596467"><ele>1574.0</ele><time>2026-04-18T07:30:13.125Z</time></trkpt><trkpt lat="37.7968017" lon="15.0595617"><ele>1574.0</ele><time>2026-04-18T07:30:14.125Z</time></trkpt><trkpt lat="37.7966467" lon="15.059475"><ele>1574.0</ele><time>2026-04-18T07:30:15.125Z</time></trkpt><trkpt lat="37.7964917" lon="15.059385"><ele>1574.0</ele><time>2026-04-18T07:30:16.125Z</time></trkpt><trkpt lat="37.79633" lon="15.0593"><ele>1574.0</ele><time>2026-04-18T07:30:17.125Z</time></trkpt><trkpt lat="37.7961683" lon="15.0592083"><ele>1574.0</ele><time>2026-04-18T07:30:18.125Z</time></trkpt><trkpt lat="37.7960017" lon="15.059115"><ele>1574.0</ele><time>2026-04-18T07:30:19.125Z</time></trkpt><trkpt lat="37.7958267" lon="15.0590183"><ele>1577.0</ele><time>2026-04-18T07:30:20.124Z</time></trkpt><trkpt lat="37.7956583" lon="15.0589483"><ele>1580.0</ele><time>2026-04-18T07:30:21.125Z</time></trkpt><trkpt lat="37.7954783" lon="15.0589"><ele>1583.0</ele><time>2026-04-18T07:30:22.125Z</time></trkpt><trkpt lat="37.7953067" lon="15.0588733"><ele>1584.6666666666665</ele><time>2026-04-18T07:30:23.125Z</time></trkpt><trkpt lat="37.7951483" lon="15.05886"><ele>1586.3333333333335</ele><time>2026-04-18T07:30:24.125Z</time></trkpt><trkpt lat="37.7949883" lon="15.058845"><ele>1588.0</ele><time>2026-04-18T07:30:25.124Z</time></trkpt><trkpt lat="37.7948433" lon="15.0588033"><ele>1588.0</ele><time>2026-04-18T07:30:26.125Z</time></trkpt><trkpt lat="37.794715" lon="15.0587383"><ele>1588.0</ele><time>2026-04-18T07:30:27.124Z</time></trkpt><trkpt lat="37.7946" lon="15.0586467"><ele>1588.0</ele><time>2026-04-18T07:30:28.125Z</time></trkpt><trkpt lat="37.7945" lon="15.0585233"><ele>1588.0</ele><time>2026-04-18T07:30:29.125Z</time></trkpt><trkpt lat="37.79443" lon="15.0583783"><ele>1590.5</ele><time>2026-04-18T07:30:30.125Z</time></trkpt><trkpt lat="37.7943783" lon="15.0582267"><ele>1593.0</ele><time>2026-04-18T07:30:31.125Z</time></trkpt><trkpt lat="37.7943483" lon="15.05806"><ele>1595.5</ele><time>2026-04-18T07:30:32.125Z</time></trkpt><trkpt lat="37.7943567" lon="15.057895"><ele>1598.0</ele><time>2026-04-18T07:30:33.125Z</time></trkpt><trkpt lat="37.7944067" lon="15.0577317"><ele>1598.0</ele><time>2026-04-18T07:30:34.125Z</time></trkpt><trkpt lat="37.7944717" lon="15.0575533"><ele>1598.0</ele><time>2026-04-18T07:30:35.125Z</time></trkpt><trkpt lat="37.794555" lon="15.05739"><ele>1598.0</ele><time>2026-04-18T07:30:36.125Z</time></trkpt><trkpt lat="37.794655" lon="15.0572367"><ele>1600.6666666666665</ele><time>2026-04-18T07:30:37.125Z</time></trkpt><trkpt lat="37.7947417" lon="15.0570733"><ele>1603.3333333333335</ele><time>2026-04-18T07:30:38.124Z</time></trkpt><trkpt lat="37.794815" lon="15.0568917"><ele>1606.0</ele><time>2026-04-18T07:30:39.124Z</time></trkpt><trkpt lat="37.79487" lon="15.0566983"><ele>1608.6666666666667</ele><time>2026-04-18T07:30:40.125Z</time></trkpt><trkpt lat="37.7949033" lon="15.05649"><ele>1611.3333333333335</ele><time>2026-04-18T07:30:41.125Z</time></trkpt><trkpt lat="37.794945" lon="15.0562933"><ele>1614.0</ele><time>2026-04-18T07:30:42.125Z</time></trkpt><trkpt lat="37.7950017" lon="15.056125"><ele>1614.0</ele><time>2026-04-18T07:30:43.125Z</time></trkpt><trkpt lat="37.7950767" lon="15.0559683"><ele>1614.0</ele><time>2026-04-18T07:30:44.125Z</time></trkpt><trkpt lat="37.7951783" lon="15.0558167"><ele>1614.0</ele><time>2026-04-18T07:30:45.125Z</time></trkpt><trkpt lat="37.7952883" lon="15.0556817"><ele>1619.0</ele><time>2026-04-18T07:30:46.125Z</time></trkpt><trkpt lat="37.795405" lon="15.055545"><ele>1624.0</ele><time>2026-04-18T07:30:47.125Z</time></trkpt><trkpt lat="37.7955283" lon="15.0554083"><ele>1629.0</ele><time>2026-04-18T07:30:48.125Z</time></trkpt><trkpt lat="37.7956417" lon="15.055275"><ele>1629.0</ele><time>2026-04-18T07:30:49.125Z</time></trkpt><trkpt lat="37.7957483" lon="15.0551417"><ele>1629.0</ele><time>2026-04-18T07:30:50.125Z</time></trkpt><trkpt lat="37.7958417" lon="15.054995"><ele>1629.0</ele><time>2026-04-18T07:30:51.125Z</time></trkpt><trkpt lat="37.7959317" lon="15.05481"><ele>1630.0</ele><time>2026-04-18T07:30:52.125Z</time></trkpt><trkpt lat="37.7960283" lon="15.0545983"><ele>1631.0</ele><time>2026-04-18T07:30:53.125Z</time></trkpt><trkpt lat="37.796125" lon="15.0543717"><ele>1632.0</ele><time>2026-04-18T07:30:54.125Z</time></trkpt><trkpt lat="37.7962217" lon="15.0541533"><ele>1635.0</ele><time>2026-04-18T07:30:55.125Z</time></trkpt><trkpt lat="37.7963117" lon="15.0539517"><ele>1638.0</ele><time>2026-04-18T07:30:56.125Z</time></trkpt><trkpt lat="37.796395" lon="15.0537583"><ele>1641.0</ele><time>2026-04-18T07:30:57.125Z</time></trkpt><trkpt lat="37.7964733" lon="15.053575"><ele>1641.0</ele><time>2026-04-18T07:30:58.125Z</time></trkpt><trkpt lat="37.796545" lon="15.0534"><ele>1641.0</ele><time>2026-04-18T07:30:59.125Z</time></trkpt><trkpt lat="37.7966167" lon="15.0532383"><ele>1641.0</ele><time>2026-04-18T07:31:00.125Z</time></trkpt><trkpt lat="37.79669" lon="15.053095"><ele>1641.0</ele><time>2026-04-18T07:31:01.124Z</time></trkpt><trkpt lat="37.796775" lon="15.0529633"><ele>1645.0</ele><time>2026-04-18T07:31:02.125Z</time></trkpt><trkpt lat="37.7968767" lon="15.0528717"><ele>1649.0</ele><time>2026-04-18T07:31:03.124Z</time></trkpt><trkpt lat="37.7970067" lon="15.0528"><ele>1653.0</ele><time>2026-04-18T07:31:04.125Z</time></trkpt><trkpt lat="37.797145" lon="15.0527267"><ele>1657.0</ele><time>2026-04-18T07:31:05.125Z</time></trkpt><trkpt lat="37.7972867" lon="15.052655"><ele>1657.0</ele><time>2026-04-18T07:31:06.125Z</time></trkpt><trkpt lat="37.79741" lon="15.0525833"><ele>1657.0</ele><time>2026-04-18T07:31:07.125Z</time></trkpt><trkpt lat="37.7975083" lon="15.0525217"><ele>1657.0</ele><time>2026-04-18T07:31:08.125Z</time></trkpt><trkpt lat="37.7976117" lon="15.0524867"><ele>1657.0</ele><time>2026-04-18T07:31:09.125Z</time></trkpt><trkpt lat="37.7977083" lon="15.0524783"><ele>1657.0</ele><time>2026-04-18T07:31:10.125Z</time></trkpt><trkpt lat="37.7978083" lon="15.0524967"><ele>1658.3999999999999</ele><time>2026-04-18T07:31:11.125Z</time></trkpt><trkpt lat="37.7979033" lon="15.05254"><ele>1659.8</ele><time>2026-04-18T07:31:12.125Z</time></trkpt><trkpt lat="37.7980017" lon="15.0525633"><ele>1661.2</ele><time>2026-04-18T07:31:13.124Z</time></trkpt><trkpt lat="37.7981" lon="15.052545"><ele>1662.6</ele><time>2026-04-18T07:31:14.125Z</time></trkpt><trkpt lat="37.7982083" lon="15.0524667"><ele>1664.0</ele><time>2026-04-18T07:31:15.125Z</time></trkpt><trkpt lat="37.79832" lon="15.0523917"><ele>1666.25</ele><time>2026-04-18T07:31:16.125Z</time></trkpt><trkpt lat="37.7984433" lon="15.0523183"><ele>1668.5</ele><time>2026-04-18T07:31:17.125Z</time></trkpt><trkpt lat="37.7985767" lon="15.052245"><ele>1670.75</ele><time>2026-04-18T07:31:18.125Z</time></trkpt><trkpt lat="37.7987283" lon="15.0521783"><ele>1673.0</ele><time>2026-04-18T07:31:19.125Z</time></trkpt><trkpt lat="37.79889" lon="15.0521067"><ele>1674.6666666666665</ele><time>2026-04-18T07:31:20.125Z</time></trkpt><trkpt lat="37.7990433" lon="15.0520467"><ele>1676.3333333333335</ele><time>2026-04-18T07:31:21.125Z</time></trkpt><trkpt lat="37.7992" lon="15.0519833"><ele>1678.0</ele><time>2026-04-18T07:31:22.125Z</time></trkpt><trkpt lat="37.79934" lon="15.0519183"><ele>1678.75</ele><time>2026-04-18T07:31:23.125Z</time></trkpt><trkpt lat="37.79947" lon="15.0518683"><ele>1679.5</ele><time>2026-04-18T07:31:24.124Z</time></trkpt><trkpt lat="37.79957" lon="15.05181"><ele>1680.25</ele><time>2026-04-18T07:31:25.125Z</time></trkpt><trkpt lat="37.7996533" lon="15.05173"><ele>1681.0</ele><time>2026-04-18T07:31:26.125Z</time></trkpt><trkpt lat="37.79971" lon="15.0516167"><ele>1684.4</ele><time>2026-04-18T07:31:27.125Z</time></trkpt><trkpt lat="37.7997317" lon="15.0514933"><ele>1687.8</ele><time>2026-04-18T07:31:28.125Z</time></trkpt><trkpt lat="37.7997217" lon="15.0513817"><ele>1691.2</ele><time>2026-04-18T07:31:29.125Z</time></trkpt><trkpt lat="37.7996867" lon="15.0512833"><ele>1694.6000000000001</ele><time>2026-04-18T07:31:30.125Z</time></trkpt><trkpt lat="37.7996133" lon="15.05119"><ele>1698.0</ele><time>2026-04-18T07:31:31.125Z</time></trkpt><trkpt lat="37.799555" lon="15.0511133"><ele>1698.0</ele><time>2026-04-18T07:31:32.125Z</time></trkpt><trkpt lat="37.7995083" lon="15.0510333"><ele>1698.0</ele><time>2026-04-18T07:31:33.125Z</time></trkpt><trkpt lat="37.7994917" lon="15.0509383"><ele>1698.0</ele><time>2026-04-18T07:31:34.125Z</time></trkpt><trkpt lat="37.7994967" lon="15.0508183"><ele>1698.0</ele><time>2026-04-18T07:31:35.125Z</time></trkpt><trkpt lat="37.7995" lon="15.050675"><ele>1698.0</ele><time>2026-04-18T07:31:36.125Z</time></trkpt><trkpt lat="37.7994983" lon="15.0505283"><ele>1700.8000000000002</ele><time>2026-04-18T07:31:37.125Z</time></trkpt><trkpt lat="37.7994817" lon="15.0503817"><ele>1703.6</ele><time>2026-04-18T07:31:38.125Z</time></trkpt><trkpt lat="37.79945" lon="15.050245"><ele>1706.3999999999999</ele><time>2026-04-18T07:31:39.125Z</time></trkpt><trkpt lat="37.7994217" lon="15.05013"><ele>1709.1999999999998</ele><time>2026-04-18T07:31:40.125Z</time></trkpt><trkpt lat="37.7994133" lon="15.0500167"><ele>1712.0</ele><time>2026-04-18T07:31:41.125Z</time></trkpt><trkpt lat="37.7994267" lon="15.0499067"><ele>1714.0</ele><time>2026-04-18T07:31:42.125Z</time></trkpt><trkpt lat="37.7994633" lon="15.0498"><ele>1715.9999999999998</ele><time>2026-04-18T07:31:43.125Z</time></trkpt><trkpt lat="37.7995117" lon="15.0496933"><ele>1717.9999999999998</ele><time>2026-04-18T07:31:44.125Z</time></trkpt><trkpt lat="37.7995433" lon="15.0495667"><ele>1720.0</ele><time>2026-04-18T07:31:45.125Z</time></trkpt><trkpt lat="37.799545" lon="15.0494383"><ele>1722.0</ele><time>2026-04-18T07:31:46.125Z</time></trkpt><trkpt lat="37.7995367" lon="15.0492917"><ele>1722.0</ele><time>2026-04-18T07:31:47.125Z</time></trkpt><trkpt lat="37.7995267" lon="15.04915"><ele>1721.9999999999998</ele><time>2026-04-18T07:31:48.125Z</time></trkpt><trkpt lat="37.7995367" lon="15.049005"><ele>1721.9999999999998</ele><time>2026-04-18T07:31:49.125Z</time></trkpt><trkpt lat="37.799565" lon="15.048905"><ele>1722.0</ele><time>2026-04-18T07:31:50.125Z</time></trkpt><trkpt lat="37.7996133" lon="15.0488217"><ele>1722.0</ele><time>2026-04-18T07:31:51.125Z</time></trkpt><trkpt lat="37.7996967" lon="15.0487767"><ele>1723.6</ele><time>2026-04-18T07:31:52.125Z</time></trkpt><trkpt lat="37.7997867" lon="15.0487167"><ele>1725.1999999999998</ele><time>2026-04-18T07:31:53.125Z</time></trkpt><trkpt lat="37.7998717" lon="15.04866"><ele>1726.8</ele><time>2026-04-18T07:31:54.125Z</time></trkpt><trkpt lat="37.7999317" lon="15.0485717"><ele>1728.4</ele><time>2026-04-18T07:31:55.124Z</time></trkpt><trkpt lat="37.79996" lon="15.04847"><ele>1730.0</ele><time>2026-04-18T07:31:56.125Z</time></trkpt><trkpt lat="37.7999683" lon="15.0483667"><ele>1731.4999999999998</ele><time>2026-04-18T07:31:57.125Z</time></trkpt><trkpt lat="37.7999433" lon="15.0482717"><ele>1733.0</ele><time>2026-04-18T07:31:58.125Z</time></trkpt><trkpt lat="37.799905" lon="15.0481967"><ele>1734.5</ele><time>2026-04-18T07:31:59.125Z</time></trkpt><trkpt lat="37.79984" lon="15.0481167"><ele>1736.0</ele><time>2026-04-18T07:32:00.125Z</time></trkpt><trkpt lat="37.7997583" lon="15.048065"><ele>1737.4999999999998</ele><time>2026-04-18T07:32:01.124Z</time></trkpt><trkpt lat="37.79966" lon="15.0480133"><ele>1739.0</ele><time>2026-04-18T07:32:02.125Z</time></trkpt><trkpt lat="37.7995633" lon="15.0479533"><ele>1739.0</ele><time>2026-04-18T07:32:03.125Z</time></trkpt><trkpt lat="37.7994633" lon="15.0478833"><ele>1739.0</ele><time>2026-04-18T07:32:04.125Z</time></trkpt><trkpt lat="37.7993733" lon="15.04782"><ele>1739.0</ele><time>2026-04-18T07:32:05.125Z</time></trkpt><trkpt lat="37.799295" lon="15.0477517"><ele>1739.0</ele><time>2026-04-18T07:32:06.125Z</time></trkpt><trkpt lat="37.7992317" lon="15.0476817"><ele>1739.0</ele><time>2026-04-18T07:32:07.125Z</time></trkpt><trkpt lat="37.7991983" lon="15.0476083"><ele>1739.3333333333333</ele><time>2026-04-18T07:32:08.125Z</time></trkpt><trkpt lat="37.7991783" lon="15.0475283"><ele>1739.6666666666665</ele><time>2026-04-18T07:32:09.125Z</time></trkpt><trkpt lat="37.7991783" lon="15.0473533"><ele>1740.0</ele><time>2026-04-18T07:32:11.125Z</time></trkpt><trkpt lat="37.7991767" lon="15.0472667"><ele>1740.3333333333335</ele><time>2026-04-18T07:32:12.124Z</time></trkpt><trkpt lat="37.79916" lon="15.0471783"><ele>1740.6666666666667</ele><time>2026-04-18T07:32:13.125Z</time></trkpt><trkpt lat="37.7991267" lon="15.0471"><ele>1741.0</ele><time>2026-04-18T07:32:14.125Z</time></trkpt><trkpt lat="37.7990717" lon="15.04704"><ele>1741.0000000000002</ele><time>2026-04-18T07:32:15.125Z</time></trkpt><trkpt lat="37.7990067" lon="15.0469933"><ele>1741.0</ele><time>2026-04-18T07:32:16.125Z</time></trkpt><trkpt lat="37.798925" lon="15.0469667"><ele>1741.0</ele><time>2026-04-18T07:32:17.125Z</time></trkpt><trkpt lat="37.798845" lon="15.04694"><ele>1741.0</ele><time>2026-04-18T07:32:18.125Z</time></trkpt><trkpt lat="37.7987767" lon="15.046885"><ele>1741.0000000000002</ele><time>2026-04-18T07:32:19.125Z</time></trkpt><trkpt lat="37.7987283" lon="15.0468133"><ele>1741.0</ele><time>2026-04-18T07:32:20.125Z</time></trkpt><trkpt lat="37.7987017" lon="15.0467133"><ele>1741.8</ele><time>2026-04-18T07:32:21.125Z</time></trkpt><trkpt lat="37.798695" lon="15.0466183"><ele>1742.6</ele><time>2026-04-18T07:32:22.125Z</time></trkpt><trkpt lat="37.7987217" lon="15.0465"><ele>1743.4</ele><time>2026-04-18T07:32:23.125Z</time></trkpt><trkpt lat="37.7987667" lon="15.04639"><ele>1744.2</ele><time>2026-04-18T07:32:24.125Z</time></trkpt><trkpt lat="37.7988317" lon="15.0462983"><ele>1745.0</ele><time>2026-04-18T07:32:25.125Z</time></trkpt><trkpt lat="37.7989017" lon="15.046205"><ele>1744.9999999999998</ele><time>2026-04-18T07:32:26.125Z</time></trkpt><trkpt lat="37.7989783" lon="15.0461117"><ele>1745.0</ele><time>2026-04-18T07:32:27.125Z</time></trkpt><trkpt lat="37.7990533" lon="15.0460167"><ele>1745.0</ele><time>2026-04-18T07:32:28.125Z</time></trkpt><trkpt lat="37.7991" lon="15.045935"><ele>1745.0</ele><time>2026-04-18T07:32:29.125Z</time></trkpt><trkpt lat="37.7991367" lon="15.04585"><ele>1744.9999999999998</ele><time>2026-04-18T07:32:30.125Z</time></trkpt><trkpt lat="37.799155" lon="15.045765"><ele>1745.0</ele><time>2026-04-18T07:32:31.125Z</time></trkpt><trkpt lat="37.79915" lon="15.0456833"><ele>1747.1666666666665</ele><time>2026-04-18T07:32:32.125Z</time></trkpt><trkpt lat="37.7991183" lon="15.04561"><ele>1749.3333333333333</ele><time>2026-04-18T07:32:33.125Z</time></trkpt><trkpt lat="37.7990467" lon="15.045535"><ele>1751.5</ele><time>2026-04-18T07:32:34.124Z</time></trkpt><trkpt lat="37.7989733" lon="15.0454667"><ele>1753.6666666666665</ele><time>2026-04-18T07:32:35.125Z</time></trkpt><trkpt lat="37.79891" lon="15.045395"><ele>1755.8333333333333</ele><time>2026-04-18T07:32:36.125Z</time></trkpt><trkpt lat="37.7988567" lon="15.045305"><ele>1758.0</ele><time>2026-04-18T07:32:37.125Z</time></trkpt><trkpt lat="37.7988183" lon="15.0451967"><ele>1758.0</ele><time>2026-04-18T07:32:38.125Z</time></trkpt><trkpt lat="37.7987983" lon="15.0450667"><ele>1758.0000000000002</ele><time>2026-04-18T07:32:39.125Z</time></trkpt><trkpt lat="37.7987833" lon="15.0449433"><ele>1758.0000000000002</ele><time>2026-04-18T07:32:40.125Z</time></trkpt><trkpt lat="37.7987767" lon="15.0448217"><ele>1758.0</ele><time>2026-04-18T07:32:41.125Z</time></trkpt><trkpt lat="37.7987717" lon="15.0447067"><ele>1758.0</ele><time>2026-04-18T07:32:42.125Z</time></trkpt><trkpt lat="37.798785" lon="15.0446067"><ele>1759.4</ele><time>2026-04-18T07:32:43.125Z</time></trkpt><trkpt lat="37.798815" lon="15.044525"><ele>1760.8000000000002</ele><time>2026-04-18T07:32:44.125Z</time></trkpt><trkpt lat="37.79886" lon="15.0444433"><ele>1762.2</ele><time>2026-04-18T07:32:45.125Z</time></trkpt><trkpt lat="37.79892" lon="15.0443567"><ele>1763.6</ele><time>2026-04-18T07:32:46.125Z</time></trkpt><trkpt lat="37.7989983" lon="15.0442733"><ele>1765.0</ele><time>2026-04-18T07:32:47.125Z</time></trkpt><trkpt lat="37.7990867" lon="15.044195"><ele>1765.8333333333335</ele><time>2026-04-18T07:32:48.125Z</time></trkpt><trkpt lat="37.79917" lon="15.0441217"><ele>1766.6666666666667</ele><time>2026-04-18T07:32:49.125Z</time></trkpt><trkpt lat="37.7992367" lon="15.0440367"><ele>1767.5</ele><time>2026-04-18T07:32:50.125Z</time></trkpt><trkpt lat="37.79929" lon="15.0439517"><ele>1768.3333333333335</ele><time>2026-04-18T07:32:51.125Z</time></trkpt><trkpt lat="37.7993267" lon="15.0438583"><ele>1769.1666666666667</ele><time>2026-04-18T07:32:52.125Z</time></trkpt><trkpt lat="37.79934" lon="15.0437567"><ele>1770.0</ele><time>2026-04-18T07:32:53.125Z</time></trkpt><trkpt lat="37.7993183" lon="15.04367"><ele>1770.0</ele><time>2026-04-18T07:32:54.125Z</time></trkpt><trkpt lat="37.79925" lon="15.0436067"><ele>1770.0</ele><time>2026-04-18T07:32:55.125Z</time></trkpt><trkpt lat="37.799165" lon="15.0435533"><ele>1770.0</ele><time>2026-04-18T07:32:56.125Z</time></trkpt><trkpt lat="37.79905" lon="15.0435483"><ele>1770.0</ele><time>2026-04-18T07:32:57.125Z</time></trkpt><trkpt lat="37.7989383" lon="15.0435583"><ele>1770.0</ele><time>2026-04-18T07:32:58.125Z</time></trkpt><trkpt lat="37.79883" lon="15.0435383"><ele>1770.0</ele><time>2026-04-18T07:32:59.125Z</time></trkpt><trkpt lat="37.7987283" lon="15.043495"><ele>1770.0</ele><time>2026-04-18T07:33:00.125Z</time></trkpt><trkpt lat="37.7986467" lon="15.04343"><ele>1770.0</ele><time>2026-04-18T07:33:01.124Z</time></trkpt><trkpt lat="37.798585" lon="15.04334"><ele>1770.0</ele><time>2026-04-18T07:33:02.125Z</time></trkpt><trkpt lat="37.7985183" lon="15.0432567"><ele>1770.0</ele><time>2026-04-18T07:33:03.125Z</time></trkpt><trkpt lat="37.79846" lon="15.043165"><ele>1771.1666666666667</ele><time>2026-04-18T07:33:04.125Z</time></trkpt><trkpt lat="37.7983967" lon="15.0430783"><ele>1772.3333333333335</ele><time>2026-04-18T07:33:05.125Z</time></trkpt><trkpt lat="37.7983417" lon="15.0429917"><ele>1773.5</ele><time>2026-04-18T07:33:06.125Z</time></trkpt><trkpt lat="37.7982933" lon="15.0429117"><ele>1774.6666666666667</ele><time>2026-04-18T07:33:07.125Z</time></trkpt><trkpt lat="37.798245" lon="15.0428317"><ele>1775.8333333333335</ele><time>2026-04-18T07:33:08.125Z</time></trkpt><trkpt lat="37.7981967" lon="15.0427533"><ele>1777.0</ele><time>2026-04-18T07:33:09.124Z</time></trkpt><trkpt lat="37.7981467" lon="15.0426767"><ele>1777.0000000000002</ele><time>2026-04-18T07:33:10.125Z</time></trkpt><trkpt lat="37.798095" lon="15.0425983"><ele>1777.0</ele><time>2026-04-18T07:33:11.125Z</time></trkpt><trkpt lat="37.798045" lon="15.0425167"><ele>1777.0</ele><time>2026-04-18T07:33:12.125Z</time></trkpt><trkpt lat="37.7979967" lon="15.0424317"><ele>1777.0</ele><time>2026-04-18T07:33:13.124Z</time></trkpt><trkpt lat="37.7979383" lon="15.04234"><ele>1777.0000000000002</ele><time>2026-04-18T07:33:14.124Z</time></trkpt><trkpt lat="37.797885" lon="15.042245"><ele>1777.0</ele><time>2026-04-18T07:33:15.125Z</time></trkpt><trkpt lat="37.7978283" lon="15.04215"><ele>1777.0</ele><time>2026-04-18T07:33:16.125Z</time></trkpt><trkpt lat="37.797775" lon="15.042055"><ele>1776.9999999999998</ele><time>2026-04-18T07:33:17.125Z</time></trkpt><trkpt lat="37.797725" lon="15.0419483"><ele>1776.9999999999998</ele><time>2026-04-18T07:33:18.125Z</time></trkpt><trkpt lat="37.7976783" lon="15.0418383"><ele>1777.0</ele><time>2026-04-18T07:33:19.125Z</time></trkpt><trkpt lat="37.79763" lon="15.041735"><ele>1777.0</ele><time>2026-04-18T07:33:20.125Z</time></trkpt><trkpt lat="37.7975917" lon="15.0416317"><ele>1777.8</ele><time>2026-04-18T07:33:21.125Z</time></trkpt><trkpt lat="37.7975533" lon="15.0415317"><ele>1778.6</ele><time>2026-04-18T07:33:22.125Z</time></trkpt><trkpt lat="37.7975167" lon="15.0414233"><ele>1779.3999999999999</ele><time>2026-04-18T07:33:23.125Z</time></trkpt><trkpt lat="37.7974883" lon="15.0413183"><ele>1780.1999999999998</ele><time>2026-04-18T07:33:24.125Z</time></trkpt><trkpt lat="37.7974617" lon="15.0412067"><ele>1781.0</ele><time>2026-04-18T07:33:25.125Z</time></trkpt><trkpt lat="37.7974267" lon="15.0410983"><ele>1781.0</ele><time>2026-04-18T07:33:26.125Z</time></trkpt><trkpt lat="37.7973967" lon="15.0409883"><ele>1781.0</ele><time>2026-04-18T07:33:27.125Z</time></trkpt><trkpt lat="37.7973733" lon="15.0408717"><ele>1781.0</ele><time>2026-04-18T07:33:28.125Z</time></trkpt><trkpt lat="37.797355" lon="15.0407417"><ele>1781.0</ele><time>2026-04-18T07:33:29.125Z</time></trkpt><trkpt lat="37.7973433" lon="15.0406117"><ele>1781.0</ele><time>2026-04-18T07:33:30.125Z</time></trkpt><trkpt lat="37.7973367" lon="15.0404867"><ele>1782.4</ele><time>2026-04-18T07:33:31.125Z</time></trkpt><trkpt lat="37.797335" lon="15.0403533"><ele>1783.8</ele><time>2026-04-18T07:33:32.125Z</time></trkpt><trkpt lat="37.797345" lon="15.0402167"><ele>1785.2000000000003</ele><time>2026-04-18T07:33:33.125Z</time></trkpt><trkpt lat="37.7973567" lon="15.0400917"><ele>1786.6000000000001</ele><time>2026-04-18T07:33:34.125Z</time></trkpt><trkpt lat="37.7973767" lon="15.0399533"><ele>1788.0</ele><time>2026-04-18T07:33:35.125Z</time></trkpt><trkpt lat="37.7973967" lon="15.0398183"><ele>1789.2</ele><time>2026-04-18T07:33:36.125Z</time></trkpt><trkpt lat="37.7974183" lon="15.03969"><ele>1790.4</ele><time>2026-04-18T07:33:37.125Z</time></trkpt><trkpt lat="37.7974417" lon="15.039565"><ele>1791.6000000000001</ele><time>2026-04-18T07:33:38.125Z</time></trkpt><trkpt lat="37.79747" lon="15.039435"><ele>1792.8000000000002</ele><time>2026-04-18T07:33:39.125Z</time></trkpt><trkpt lat="37.7974967" lon="15.0393083"><ele>1794.0</ele><time>2026-04-18T07:33:40.125Z</time></trkpt><trkpt lat="37.7975217" lon="15.0391883"><ele>1795.8000000000002</ele><time>2026-04-18T07:33:41.125Z</time></trkpt><trkpt lat="37.7975483" lon="15.0390667"><ele>1797.6000000000001</ele><time>2026-04-18T07:33:42.125Z</time></trkpt><trkpt lat="37.7975733" lon="15.0389433"><ele>1799.4</ele><time>2026-04-18T07:33:43.125Z</time></trkpt><trkpt lat="37.7975917" lon="15.0388117"><ele>1801.2</ele><time>2026-04-18T07:33:44.124Z</time></trkpt><trkpt lat="37.79761" lon="15.0386833"><ele>1803.0</ele><time>2026-04-18T07:33:45.125Z</time></trkpt><trkpt lat="37.7976283" lon="15.03855"><ele>1803.0</ele><time>2026-04-18T07:33:46.125Z</time></trkpt><trkpt lat="37.79764" lon="15.0384167"><ele>1803.0000000000002</ele><time>2026-04-18T07:33:47.125Z</time></trkpt><trkpt lat="37.7976483" lon="15.0382883"><ele>1803.0000000000002</ele><time>2026-04-18T07:33:48.125Z</time></trkpt><trkpt lat="37.7976417" lon="15.0381717"><ele>1803.0</ele><time>2026-04-18T07:33:49.125Z</time></trkpt><trkpt lat="37.7976183" lon="15.0380583"><ele>1803.0</ele><time>2026-04-18T07:33:50.125Z</time></trkpt><trkpt lat="37.7976017" lon="15.03796"><ele>1803.1666666666667</ele><time>2026-04-18T07:33:51.125Z</time></trkpt><trkpt lat="37.79759" lon="15.0378817"><ele>1803.3333333333335</ele><time>2026-04-18T07:33:52.125Z</time></trkpt><trkpt lat="37.7975983" lon="15.037785"><ele>1803.5</ele><time>2026-04-18T07:33:54.125Z</time></trkpt><trkpt lat="37.797615" lon="15.0377067"><ele>1803.6666666666667</ele><time>2026-04-18T07:33:56.125Z</time></trkpt><trkpt lat="37.7976367" lon="15.0375933"><ele>1803.8333333333335</ele><time>2026-04-18T07:33:59.125Z</time></trkpt><trkpt lat="37.7976783" lon="15.0375183"><ele>1804.0</ele><time>2026-04-18T07:34:01.125Z</time></trkpt><trkpt lat="37.797755" lon="15.0374233"><ele>1804.0</ele><time>2026-04-18T07:34:03.125Z</time></trkpt><trkpt lat="37.7978" lon="15.0373667"><ele>1804.0</ele><time>2026-04-18T07:34:04.125Z</time></trkpt><trkpt lat="37.797845" lon="15.0373"><ele>1804.0</ele><time>2026-04-18T07:34:05.125Z</time></trkpt><trkpt lat="37.797895" lon="15.0372317"><ele>1804.0</ele><time>2026-04-18T07:34:06.125Z</time></trkpt><trkpt lat="37.7979417" lon="15.0371567"><ele>1804.0</ele><time>2026-04-18T07:34:07.125Z</time></trkpt><trkpt lat="37.7979817" lon="15.0370867"><ele>1804.0</ele><time>2026-04-18T07:34:08.125Z</time></trkpt><trkpt lat="37.7980217" lon="15.0370133"><ele>1804.0</ele><time>2026-04-18T07:34:09.125Z</time></trkpt><trkpt lat="37.7980617" lon="15.0369383"><ele>1804.0000000000002</ele><time>2026-04-18T07:34:10.125Z</time></trkpt><trkpt lat="37.798095" lon="15.03687"><ele>1804.0</ele><time>2026-04-18T07:34:11.125Z</time></trkpt><trkpt lat="37.7981533" lon="15.0367483"><ele>1804.0</ele><time>2026-04-18T07:34:13.125Z</time></trkpt><trkpt lat="37.798175" lon="15.0366417"><ele>1804.0</ele><time>2026-04-18T07:34:15.125Z</time></trkpt><trkpt lat="37.7981483" lon="15.0365517"><ele>1804.0000000000002</ele><time>2026-04-18T07:34:17.125Z</time></trkpt><trkpt lat="37.7980717" lon="15.0365"><ele>1804.0</ele><time>2026-04-18T07:34:19.125Z</time></trkpt><trkpt lat="37.7979917" lon="15.0365133"><ele>1804.0000000000002</ele><time>2026-04-18T07:34:21.125Z</time></trkpt><trkpt lat="37.797915" lon="15.0366183"><ele>1804.0</ele><time>2026-04-18T07:34:23.125Z</time></trkpt><trkpt lat="37.797865" lon="15.0367383"><ele>1804.0</ele><time>2026-04-18T07:34:25.125Z</time></trkpt><trkpt lat="37.7978167" lon="15.0368133"><ele>1804.0</ele><time>2026-04-18T07:34:27.125Z</time></trkpt><trkpt lat="37.7977367" lon="15.0368"><ele>1804.0000000000002</ele><time>2026-04-18T07:34:30.125Z</time></trkpt><trkpt lat="37.7977833" lon="15.0367433"><ele>1804.0</ele><time>2026-04-18T07:46:13.125Z</time></trkpt><trkpt lat="37.7978" lon="15.0368517"><ele>1804.0000000000002</ele><time>2026-04-18T07:46:16.125Z</time></trkpt><trkpt lat="37.7977517" lon="15.0369233"><ele>1804.0</ele><time>2026-04-18T07:46:18.125Z</time></trkpt><trkpt lat="37.7977" lon="15.0369867"><ele>1804.0</ele><time>2026-04-18T07:46:20.125Z</time></trkpt><trkpt lat="37.7976383" lon="15.0370433"><ele>1804.0</ele><time>2026-04-18T07:46:22.125Z</time></trkpt><trkpt lat="37.7975917" lon="15.0371133"><ele>1804.0000000000002</ele><time>2026-04-18T07:46:24.125Z</time></trkpt><trkpt lat="37.7975533" lon="15.0372"><ele>1804.0</ele><time>2026-04-18T07:46:26.125Z</time></trkpt><trkpt lat="37.7975283" lon="15.0373"><ele>1804.0000000000002</ele><time>2026-04-18T07:46:28.125Z</time></trkpt><trkpt lat="37.7975433" lon="15.037395"><ele>1804.0</ele><time>2026-04-18T07:46:30.125Z</time></trkpt><trkpt lat="37.7975733" lon="15.03748"><ele>1804.0</ele><time>2026-04-18T07:46:32.125Z</time></trkpt><trkpt lat="37.7975883" lon="15.0375883"><ele>1804.0</ele><time>2026-04-18T07:46:35.125Z</time></trkpt><trkpt lat="37.797545" lon="15.0376983"><ele>1804.0000000000002</ele><time>2026-04-18T07:46:38.125Z</time></trkpt><trkpt lat="37.7974783" lon="15.0377217"><ele>1804.0</ele><time>2026-04-18T07:46:40.124Z</time></trkpt><trkpt lat="37.79738" lon="15.0376767"><ele>1804.0</ele><time>2026-04-18T07:46:42.125Z</time></trkpt><trkpt lat="37.7972883" lon="15.0376033"><ele>1804.0</ele><time>2026-04-18T07:46:44.125Z</time></trkpt><trkpt lat="37.7971867" lon="15.0375317"><ele>1804.0</ele><time>2026-04-18T07:46:46.125Z</time></trkpt><trkpt lat="37.7970817" lon="15.0374717"><ele>1804.0</ele><time>2026-04-18T07:46:48.125Z</time></trkpt><trkpt lat="37.79702" lon="15.0374433"><ele>1804.0</ele><time>2026-04-18T07:46:49.125Z</time></trkpt><trkpt lat="37.7969567" lon="15.037415"><ele>1804.3333333333335</ele><time>2026-04-18T07:46:50.125Z</time></trkpt><trkpt lat="37.7968917" lon="15.0373783"><ele>1804.6666666666667</ele><time>2026-04-18T07:46:51.125Z</time></trkpt><trkpt lat="37.7968183" lon="15.03736"><ele>1805.0</ele><time>2026-04-18T07:46:52.125Z</time></trkpt><trkpt lat="37.79674" lon="15.03735"><ele>1805.3333333333335</ele><time>2026-04-18T07:46:53.125Z</time></trkpt><trkpt lat="37.7966617" lon="15.03735"><ele>1805.6666666666667</ele><time>2026-04-18T07:46:54.125Z</time></trkpt><trkpt lat="37.79659" lon="15.03737"><ele>1806.0</ele><time>2026-04-18T07:46:55.125Z</time></trkpt><trkpt lat="37.7965167" lon="15.0374083"><ele>1807.0</ele><time>2026-04-18T07:46:56.125Z</time></trkpt><trkpt lat="37.7964483" lon="15.0374567"><ele>1808.0</ele><time>2026-04-18T07:46:57.124Z</time></trkpt><trkpt lat="37.7963817" lon="15.0375133"><ele>1809.0</ele><time>2026-04-18T07:46:58.125Z</time></trkpt><trkpt lat="37.7963167" lon="15.0375833"><ele>1810.0</ele><time>2026-04-18T07:46:59.125Z</time></trkpt><trkpt lat="37.7962417" lon="15.03765"><ele>1811.0</ele><time>2026-04-18T07:47:00.125Z</time></trkpt><trkpt lat="37.7961617" lon="15.0377167"><ele>1812.0</ele><time>2026-04-18T07:47:01.124Z</time></trkpt><trkpt lat="37.79609" lon="15.0377833"><ele>1812.0</ele><time>2026-04-18T07:47:02.125Z</time></trkpt><trkpt lat="37.796005" lon="15.0378467"><ele>1812.0</ele><time>2026-04-18T07:47:03.125Z</time></trkpt><trkpt lat="37.7959283" lon="15.0379133"><ele>1812.0</ele><time>2026-04-18T07:47:04.125Z</time></trkpt><trkpt lat="37.795855" lon="15.03797"><ele>1812.0</ele><time>2026-04-18T07:47:05.125Z</time></trkpt><trkpt lat="37.7957833" lon="15.0380317"><ele>1812.0</ele><time>2026-04-18T07:47:06.125Z</time></trkpt><trkpt lat="37.7957167" lon="15.0380933"><ele>1812.0</ele><time>2026-04-18T07:47:07.125Z</time></trkpt><trkpt lat="37.7956433" lon="15.03816"><ele>1811.1666666666667</ele><time>2026-04-18T07:47:08.125Z</time></trkpt><trkpt lat="37.7955717" lon="15.03823"><ele>1810.3333333333335</ele><time>2026-04-18T07:47:09.125Z</time></trkpt><trkpt lat="37.7955017" lon="15.0382883"><ele>1809.5</ele><time>2026-04-18T07:47:10.125Z</time></trkpt><trkpt lat="37.795435" lon="15.0383483"><ele>1808.6666666666667</ele><time>2026-04-18T07:47:11.125Z</time></trkpt><trkpt lat="37.795355" lon="15.0384"><ele>1807.8333333333335</ele><time>2026-04-18T07:47:12.125Z</time></trkpt><trkpt lat="37.7952633" lon="15.038435"><ele>1807.0</ele><time>2026-04-18T07:47:13.124Z</time></trkpt><trkpt lat="37.79517" lon="15.0384533"><ele>1806.0</ele><time>2026-04-18T07:47:14.125Z</time></trkpt><trkpt lat="37.7950783" lon="15.0384617"><ele>1804.9999999999998</ele><time>2026-04-18T07:47:15.125Z</time></trkpt><trkpt lat="37.7949833" lon="15.0384617"><ele>1803.9999999999998</ele><time>2026-04-18T07:47:16.125Z</time></trkpt><trkpt lat="37.7948883" lon="15.0384567"><ele>1803.0</ele><time>2026-04-18T07:47:17.125Z</time></trkpt><trkpt lat="37.7947917" lon="15.0384467"><ele>1802.0</ele><time>2026-04-18T07:47:18.125Z</time></trkpt><trkpt lat="37.7946933" lon="15.0384317"><ele>1802.0</ele><time>2026-04-18T07:47:19.125Z</time></trkpt><trkpt lat="37.79459" lon="15.0384217"><ele>1801.9999999999998</ele><time>2026-04-18T07:47:20.125Z</time></trkpt><trkpt lat="37.7944867" lon="15.0384067"><ele>1801.9999999999998</ele><time>2026-04-18T07:47:21.125Z</time></trkpt><trkpt lat="37.79439" lon="15.0383983"><ele>1802.0</ele><time>2026-04-18T07:47:22.125Z</time></trkpt><trkpt lat="37.7943" lon="15.03839"><ele>1802.0</ele><time>2026-04-18T07:47:23.125Z</time></trkpt><trkpt lat="37.7942083" lon="15.0383833"><ele>1802.3333333333333</ele><time>2026-04-18T07:47:24.125Z</time></trkpt><trkpt lat="37.7941233" lon="15.0383767"><ele>1802.6666666666665</ele><time>2026-04-18T07:47:25.125Z</time></trkpt><trkpt lat="37.7940367" lon="15.0383633"><ele>1803.0</ele><time>2026-04-18T07:47:26.125Z</time></trkpt><trkpt lat="37.7939617" lon="15.0383517"><ele>1803.3333333333335</ele><time>2026-04-18T07:47:27.125Z</time></trkpt><trkpt lat="37.79389" lon="15.0383517"><ele>1803.6666666666667</ele><time>2026-04-18T07:47:28.125Z</time></trkpt><trkpt lat="37.79377" lon="15.03836"><ele>1804.0</ele><time>2026-04-18T07:47:30.124Z</time></trkpt><trkpt lat="37.79366" lon="15.03837"><ele>1804.0000000000002</ele><time>2026-04-18T07:47:32.125Z</time></trkpt><trkpt lat="37.79356" lon="15.0383833"><ele>1804.0</ele><time>2026-04-18T07:47:34.125Z</time></trkpt><trkpt lat="37.7934733" lon="15.0384"><ele>1804.0</ele><time>2026-04-18T07:47:36.125Z</time></trkpt><trkpt lat="37.7934083" lon="15.0384033"><ele>1804.0</ele><time>2026-04-18T07:47:38.125Z</time></trkpt><trkpt lat="37.793345" lon="15.0384017"><ele>1804.0000000000002</ele><time>2026-04-18T07:47:41.125Z</time></trkpt><trkpt lat="37.7932633" lon="15.0384467"><ele>1804.0</ele><time>2026-04-18T07:47:45.124Z</time></trkpt><trkpt lat="37.7932267" lon="15.0385217"><ele>1804.0000000000002</ele><time>2026-04-18T07:47:48.125Z</time></trkpt><trkpt lat="37.7933" lon="15.0385683"><ele>1804.0</ele><time>2026-04-18T07:47:51.125Z</time></trkpt><trkpt lat="37.7933467" lon="15.0385133"><ele>1804.0</ele><time>2026-04-18T07:47:53.125Z</time></trkpt><trkpt lat="37.7934083" lon="15.03845"><ele>1804.0</ele><time>2026-04-18T07:47:55.125Z</time></trkpt><trkpt lat="37.7934867" lon="15.0384233"><ele>1804.0000000000002</ele><time>2026-04-18T07:47:57.124Z</time></trkpt><trkpt lat="37.7935933" lon="15.0384283"><ele>1804.0</ele><time>2026-04-18T07:47:59.125Z</time></trkpt><trkpt lat="37.7936567" lon="15.0384217"><ele>1804.0000000000002</ele><time>2026-04-18T07:48:00.125Z</time></trkpt><trkpt lat="37.79372" lon="15.0384167"><ele>1804.0</ele><time>2026-04-18T07:48:01.124Z</time></trkpt><trkpt lat="37.7937833" lon="15.0384067"><ele>1804.0</ele><time>2026-04-18T07:48:02.125Z</time></trkpt><trkpt lat="37.7938483" lon="15.0383967"><ele>1804.0</ele><time>2026-04-18T07:48:03.125Z</time></trkpt><trkpt lat="37.7939117" lon="15.0383883"><ele>1804.0000000000002</ele><time>2026-04-18T07:48:04.125Z</time></trkpt><trkpt lat="37.7940367" lon="15.0383933"><ele>1804.0</ele><time>2026-04-18T07:48:06.125Z</time></trkpt><trkpt lat="37.794105" lon="15.0384033"><ele>1804.0000000000002</ele><time>2026-04-18T07:48:07.125Z</time></trkpt><trkpt lat="37.79418" lon="15.0384167"><ele>1804.0</ele><time>2026-04-18T07:48:08.125Z</time></trkpt><trkpt lat="37.7942583" lon="15.038425"><ele>1804.0</ele><time>2026-04-18T07:48:09.125Z</time></trkpt><trkpt lat="37.7943417" lon="15.0384333"><ele>1804.0</ele><time>2026-04-18T07:48:10.125Z</time></trkpt><trkpt lat="37.79442" lon="15.038445"><ele>1804.0000000000002</ele><time>2026-04-18T07:48:11.125Z</time></trkpt><trkpt lat="37.7945017" lon="15.03845"><ele>1804.0</ele><time>2026-04-18T07:48:12.125Z</time></trkpt><trkpt lat="37.794585" lon="15.03846"><ele>1803.6666666666667</ele><time>2026-04-18T07:48:13.125Z</time></trkpt><trkpt lat="37.79467" lon="15.03847"><ele>1803.3333333333335</ele><time>2026-04-18T07:48:14.125Z</time></trkpt><trkpt lat="37.7947533" lon="15.0384767"><ele>1803.0</ele><time>2026-04-18T07:48:15.125Z</time></trkpt><trkpt lat="37.794835" lon="15.0384833"><ele>1802.6666666666665</ele><time>2026-04-18T07:48:16.124Z</time></trkpt><trkpt lat="37.794915" lon="15.0384867"><ele>1802.3333333333333</ele><time>2026-04-18T07:48:17.125Z</time></trkpt><trkpt lat="37.794995" lon="15.038495"><ele>1802.0</ele><time>2026-04-18T07:48:18.125Z</time></trkpt><trkpt lat="37.7950717" lon="15.0384967"><ele>1801.9999999999998</ele><time>2026-04-18T07:48:19.125Z</time></trkpt><trkpt lat="37.795145" lon="15.03849"><ele>1802.0</ele><time>2026-04-18T07:48:20.125Z</time></trkpt><trkpt lat="37.79521" lon="15.03848"><ele>1802.0</ele><time>2026-04-18T07:48:21.125Z</time></trkpt><trkpt lat="37.7952733" lon="15.03846"><ele>1802.0</ele><time>2026-04-18T07:48:22.125Z</time></trkpt><trkpt lat="37.7953767" lon="15.0384117"><ele>1801.9999999999998</ele><time>2026-04-18T07:48:24.124Z</time></trkpt><trkpt lat="37.7954817" lon="15.0383683"><ele>1802.0</ele><time>2026-04-18T07:48:26.125Z</time></trkpt><trkpt lat="37.7955383" lon="15.0383283"><ele>1803.0</ele><time>2026-04-18T07:48:27.125Z</time></trkpt><trkpt lat="37.7956383" lon="15.038245"><ele>1803.9999999999998</ele><time>2026-04-18T07:48:29.125Z</time></trkpt><trkpt lat="37.7957033" lon="15.03819"><ele>1804.9999999999998</ele><time>2026-04-18T07:48:31.125Z</time></trkpt><trkpt lat="37.79578" lon="15.0381067"><ele>1806.0</ele><time>2026-04-18T07:55:55.125Z</time></trkpt><trkpt lat="37.7958533" lon="15.0380267"><ele>1807.0</ele><time>2026-04-18T07:55:57.125Z</time></trkpt><trkpt lat="37.7959083" lon="15.037985"><ele>1807.0000000000002</ele><time>2026-04-18T07:55:58.125Z</time></trkpt><trkpt lat="37.795965" lon="15.03794"><ele>1807.0</ele><time>2026-04-18T07:55:59.125Z</time></trkpt><trkpt lat="37.7960217" lon="15.0378883"><ele>1807.0</ele><time>2026-04-18T07:56:00.125Z</time></trkpt><trkpt lat="37.7960867" lon="15.0378267"><ele>1807.0</ele><time>2026-04-18T07:56:01.125Z</time></trkpt><trkpt lat="37.7961467" lon="15.0377617"><ele>1807.0000000000002</ele><time>2026-04-18T07:56:02.125Z</time></trkpt><trkpt lat="37.79621" lon="15.0377"><ele>1807.0</ele><time>2026-04-18T07:56:03.125Z</time></trkpt><trkpt lat="37.7962783" lon="15.03764"><ele>1807.8333333333335</ele><time>2026-04-18T07:56:04.125Z</time></trkpt><trkpt lat="37.796355" lon="15.037575"><ele>1808.6666666666667</ele><time>2026-04-18T07:56:05.125Z</time></trkpt><trkpt lat="37.7964317" lon="15.0375133"><ele>1809.5</ele><time>2026-04-18T07:56:06.125Z</time></trkpt><trkpt lat="37.7965117" lon="15.0374667"><ele>1810.3333333333335</ele><time>2026-04-18T07:56:07.125Z</time></trkpt><trkpt lat="37.7965867" lon="15.037435"><ele>1811.1666666666667</ele><time>2026-04-18T07:56:08.125Z</time></trkpt><trkpt lat="37.79666" lon="15.03741"><ele>1812.0</ele><time>2026-04-18T07:56:09.125Z</time></trkpt><trkpt lat="37.7967317" lon="15.03739"><ele>1811.0</ele><time>2026-04-18T07:56:10.125Z</time></trkpt><trkpt lat="37.7967967" lon="15.0374"><ele>1810.0</ele><time>2026-04-18T07:56:11.125Z</time></trkpt><trkpt lat="37.7968617" lon="15.037415"><ele>1809.0</ele><time>2026-04-18T07:56:12.124Z</time></trkpt><trkpt lat="37.79693" lon="15.0374417"><ele>1808.0</ele><time>2026-04-18T07:56:13.125Z</time></trkpt><trkpt lat="37.7970217" lon="15.0374783"><ele>1807.0</ele><time>2026-04-18T07:56:14.125Z</time></trkpt><trkpt lat="37.79712" lon="15.0375217"><ele>1806.0</ele><time>2026-04-18T07:56:15.125Z</time></trkpt><trkpt lat="37.7972083" lon="15.0375867"><ele>1805.6666666666667</ele><time>2026-04-18T07:56:16.125Z</time></trkpt><trkpt lat="37.7972933" lon="15.03764"><ele>1805.3333333333335</ele><time>2026-04-18T07:56:17.125Z</time></trkpt><trkpt lat="37.7973733" lon="15.0376933"><ele>1805.0</ele><time>2026-04-18T07:56:18.125Z</time></trkpt><trkpt lat="37.7974483" lon="15.0377517"><ele>1804.6666666666667</ele><time>2026-04-18T07:56:19.125Z</time></trkpt><trkpt lat="37.7975117" lon="15.03782"><ele>1804.3333333333335</ele><time>2026-04-18T07:56:20.125Z</time></trkpt><trkpt lat="37.7975567" lon="15.0379083"><ele>1804.0</ele><time>2026-04-18T07:56:21.125Z</time></trkpt><trkpt lat="37.7975917" lon="15.038005"><ele>1804.0000000000002</ele><time>2026-04-18T07:56:22.125Z</time></trkpt><trkpt lat="37.79761" lon="15.0381017"><ele>1804.0</ele><time>2026-04-18T07:56:23.125Z</time></trkpt><trkpt lat="37.79762" lon="15.038205"><ele>1804.0</ele><time>2026-04-18T07:56:24.125Z</time></trkpt><trkpt lat="37.7976233" lon="15.0383083"><ele>1804.0</ele><time>2026-04-18T07:56:25.125Z</time></trkpt><trkpt lat="37.79762" lon="15.0384117"><ele>1804.0000000000002</ele><time>2026-04-18T07:56:26.125Z</time></trkpt><trkpt lat="37.7976167" lon="15.0385133"><ele>1804.0</ele><time>2026-04-18T07:56:27.125Z</time></trkpt><trkpt lat="37.7976067" lon="15.0386117"><ele>1803.8333333333335</ele><time>2026-04-18T07:56:28.125Z</time></trkpt><trkpt lat="37.7975967" lon="15.0387167"><ele>1803.6666666666667</ele><time>2026-04-18T07:56:29.125Z</time></trkpt><trkpt lat="37.7975817" lon="15.0388233"><ele>1803.5</ele><time>2026-04-18T07:56:30.125Z</time></trkpt><trkpt lat="37.7975617" lon="15.03893"><ele>1803.3333333333335</ele><time>2026-04-18T07:56:31.124Z</time></trkpt><trkpt lat="37.797545" lon="15.0390333"><ele>1803.1666666666667</ele><time>2026-04-18T07:56:32.124Z</time></trkpt><trkpt lat="37.7975283" lon="15.03914"><ele>1803.0</ele><time>2026-04-18T07:56:33.125Z</time></trkpt><trkpt lat="37.7975017" lon="15.0392433"><ele>1801.2</ele><time>2026-04-18T07:56:34.125Z</time></trkpt><trkpt lat="37.7974767" lon="15.039345"><ele>1799.4</ele><time>2026-04-18T07:56:35.125Z</time></trkpt><trkpt lat="37.79745" lon="15.0394567"><ele>1797.6000000000001</ele><time>2026-04-18T07:56:36.125Z</time></trkpt><trkpt lat="37.79742" lon="15.0395883"><ele>1795.8000000000002</ele><time>2026-04-18T07:56:37.125Z</time></trkpt><trkpt lat="37.797395" lon="15.039725"><ele>1794.0</ele><time>2026-04-18T07:56:38.125Z</time></trkpt><trkpt lat="37.797375" lon="15.0398733"><ele>1792.8000000000002</ele><time>2026-04-18T07:56:39.125Z</time></trkpt><trkpt lat="37.7973583" lon="15.0400033"><ele>1791.6000000000001</ele><time>2026-04-18T07:56:40.125Z</time></trkpt><trkpt lat="37.7973367" lon="15.040125"><ele>1790.4</ele><time>2026-04-18T07:56:41.125Z</time></trkpt><trkpt lat="37.79733" lon="15.04024"><ele>1789.2</ele><time>2026-04-18T07:56:42.125Z</time></trkpt><trkpt lat="37.7973233" lon="15.0403533"><ele>1788.0</ele><time>2026-04-18T07:56:43.125Z</time></trkpt><trkpt lat="37.7973183" lon="15.0404683"><ele>1788.0</ele><time>2026-04-18T07:56:44.124Z</time></trkpt><trkpt lat="37.7973217" lon="15.0405883"><ele>1788.0000000000002</ele><time>2026-04-18T07:56:45.125Z</time></trkpt><trkpt lat="37.797325" lon="15.04071"><ele>1788.0000000000002</ele><time>2026-04-18T07:56:46.125Z</time></trkpt><trkpt lat="37.7973433" lon="15.04083"><ele>1788.0</ele><time>2026-04-18T07:56:47.125Z</time></trkpt><trkpt lat="37.7973633" lon="15.0409433"><ele>1788.0</ele><time>2026-04-18T07:56:48.125Z</time></trkpt><trkpt lat="37.7973883" lon="15.04105"><ele>1786.8333333333333</ele><time>2026-04-18T07:56:49.125Z</time></trkpt><trkpt lat="37.7974083" lon="15.0411517"><ele>1785.6666666666665</ele><time>2026-04-18T07:56:50.125Z</time></trkpt><trkpt lat="37.797435" lon="15.0412417"><ele>1784.5</ele><time>2026-04-18T07:56:51.125Z</time></trkpt><trkpt lat="37.79746" lon="15.0413367"><ele>1783.3333333333333</ele><time>2026-04-18T07:56:52.125Z</time></trkpt><trkpt lat="37.7974883" lon="15.041435"><ele>1782.1666666666665</ele><time>2026-04-18T07:56:53.124Z</time></trkpt><trkpt lat="37.7975217" lon="15.04154"><ele>1781.0</ele><time>2026-04-18T07:56:54.125Z</time></trkpt><trkpt lat="37.7975633" lon="15.0416417"><ele>1781.6</ele><time>2026-04-18T07:56:55.125Z</time></trkpt><trkpt lat="37.7976033" lon="15.0417483"><ele>1782.1999999999998</ele><time>2026-04-18T07:56:56.125Z</time></trkpt><trkpt lat="37.7976467" lon="15.04186"><ele>1782.8000000000002</ele><time>2026-04-18T07:56:57.125Z</time></trkpt><trkpt lat="37.7976983" lon="15.04197"><ele>1783.4</ele><time>2026-04-18T07:56:58.125Z</time></trkpt><trkpt lat="37.7977533" lon="15.042075"><ele>1784.0</ele><time>2026-04-18T07:56:59.125Z</time></trkpt><trkpt lat="37.7978117" lon="15.0421833"><ele>1784.0</ele><time>2026-04-18T07:57:00.125Z</time></trkpt><trkpt lat="37.797875" lon="15.0422967"><ele>1784.0</ele><time>2026-04-18T07:57:01.125Z</time></trkpt><trkpt lat="37.797935" lon="15.0424033"><ele>1784.0</ele><time>2026-04-18T07:57:02.125Z</time></trkpt><trkpt lat="37.7979967" lon="15.0425"><ele>1784.0</ele><time>2026-04-18T07:57:03.124Z</time></trkpt><trkpt lat="37.798055" lon="15.0425933"><ele>1784.0</ele><time>2026-04-18T07:57:04.124Z</time></trkpt><trkpt lat="37.798115" lon="15.0426883"><ele>1782.6</ele><time>2026-04-18T07:57:05.125Z</time></trkpt><trkpt lat="37.7981767" lon="15.0427867"><ele>1781.2</ele><time>2026-04-18T07:57:06.125Z</time></trkpt><trkpt lat="37.7982333" lon="15.04288"><ele>1779.7999999999997</ele><time>2026-04-18T07:57:07.125Z</time></trkpt><trkpt lat="37.7982933" lon="15.04298"><ele>1778.3999999999999</ele><time>2026-04-18T07:57:08.125Z</time></trkpt><trkpt lat="37.7983517" lon="15.0430733"><ele>1777.0</ele><time>2026-04-18T07:57:09.125Z</time></trkpt><trkpt lat="37.7984067" lon="15.043165"><ele>1777.0</ele><time>2026-04-18T07:57:10.125Z</time></trkpt><trkpt lat="37.798465" lon="15.0432517"><ele>1776.9999999999998</ele><time>2026-04-18T07:57:11.124Z</time></trkpt><trkpt lat="37.798525" lon="15.04334"><ele>1776.9999999999998</ele><time>2026-04-18T07:57:12.125Z</time></trkpt><trkpt lat="37.7985867" lon="15.0434183"><ele>1777.0</ele><time>2026-04-18T07:57:13.125Z</time></trkpt><trkpt lat="37.7986533" lon="15.0434933"><ele>1777.0</ele><time>2026-04-18T07:57:14.124Z</time></trkpt><trkpt lat="37.798735" lon="15.04356"><ele>1775.8333333333335</ele><time>2026-04-18T07:57:15.124Z</time></trkpt><trkpt lat="37.7988217" lon="15.0435967"><ele>1774.6666666666667</ele><time>2026-04-18T07:57:16.125Z</time></trkpt><trkpt lat="37.7989083" lon="15.04361"><ele>1773.5</ele><time>2026-04-18T07:57:17.125Z</time></trkpt><trkpt lat="37.7989967" lon="15.0436233"><ele>1772.3333333333335</ele><time>2026-04-18T07:57:18.125Z</time></trkpt><trkpt lat="37.7990767" lon="15.0436367"><ele>1771.1666666666667</ele><time>2026-04-18T07:57:19.125Z</time></trkpt><trkpt lat="37.7991533" lon="15.0436633"><ele>1770.0</ele><time>2026-04-18T07:57:20.125Z</time></trkpt><trkpt lat="37.79922" lon="15.04372"><ele>1770.0</ele><time>2026-04-18T07:57:21.125Z</time></trkpt><trkpt lat="37.799265" lon="15.04379"><ele>1770.0</ele><time>2026-04-18T07:57:22.125Z</time></trkpt><trkpt lat="37.7992867" lon="15.04387"><ele>1770.0</ele><time>2026-04-18T07:57:23.125Z</time></trkpt><trkpt lat="37.7992683" lon="15.0440033"><ele>1770.0</ele><time>2026-04-18T07:57:25.124Z</time></trkpt><trkpt lat="37.7992167" lon="15.044065"><ele>1770.0</ele><time>2026-04-18T07:57:26.125Z</time></trkpt><trkpt lat="37.7991383" lon="15.0441283"><ele>1770.0</ele><time>2026-04-18T07:57:27.125Z</time></trkpt><trkpt lat="37.799045" lon="15.0441883"><ele>1769.1666666666667</ele><time>2026-04-18T07:57:28.125Z</time></trkpt><trkpt lat="37.7989667" lon="15.0442433"><ele>1768.3333333333335</ele><time>2026-04-18T07:57:29.125Z</time></trkpt><trkpt lat="37.79889" lon="15.0443083"><ele>1767.5</ele><time>2026-04-18T07:57:30.125Z</time></trkpt><trkpt lat="37.798825" lon="15.0443733"><ele>1766.6666666666667</ele><time>2026-04-18T07:57:31.125Z</time></trkpt><trkpt lat="37.798775" lon="15.0444517"><ele>1765.8333333333335</ele><time>2026-04-18T07:57:32.125Z</time></trkpt><trkpt lat="37.798735" lon="15.04454"><ele>1765.0</ele><time>2026-04-18T07:57:33.125Z</time></trkpt><trkpt lat="37.7987133" lon="15.0446383"><ele>1765.0</ele><time>2026-04-18T07:57:34.125Z</time></trkpt><trkpt lat="37.7987133" lon="15.0447467"><ele>1765.0</ele><time>2026-04-18T07:57:35.125Z</time></trkpt><trkpt lat="37.7987317" lon="15.04486"><ele>1765.0</ele><time>2026-04-18T07:57:36.125Z</time></trkpt><trkpt lat="37.7987517" lon="15.044975"><ele>1765.0</ele><time>2026-04-18T07:57:37.124Z</time></trkpt><trkpt lat="37.7987683" lon="15.045095"><ele>1765.0</ele><time>2026-04-18T07:57:38.125Z</time></trkpt><trkpt lat="37.79879" lon="15.04521"><ele>1763.8333333333335</ele><time>2026-04-18T07:57:39.125Z</time></trkpt><trkpt lat="37.7988067" lon="15.0453067"><ele>1762.6666666666667</ele><time>2026-04-18T07:57:40.125Z</time></trkpt><trkpt lat="37.7988317" lon="15.045395"><ele>1761.5</ele><time>2026-04-18T07:57:41.125Z</time></trkpt><trkpt lat="37.7988683" lon="15.04547"><ele>1760.3333333333335</ele><time>2026-04-18T07:57:42.125Z</time></trkpt><trkpt lat="37.798915" lon="15.04553"><ele>1759.1666666666667</ele><time>2026-04-18T07:57:43.125Z</time></trkpt><trkpt lat="37.7989733" lon="15.0455733"><ele>1758.0</ele><time>2026-04-18T07:57:44.124Z</time></trkpt><trkpt lat="37.7990583" lon="15.045665"><ele>1758.0</ele><time>2026-04-18T07:57:46.125Z</time></trkpt><trkpt lat="37.799105" lon="15.0457717"><ele>1758.0</ele><time>2026-04-18T07:57:48.124Z</time></trkpt><trkpt lat="37.799085" lon="15.0459083"><ele>1758.0</ele><time>2026-04-18T07:57:50.125Z</time></trkpt><trkpt lat="37.79905" lon="15.0459867"><ele>1758.0</ele><time>2026-04-18T07:57:51.125Z</time></trkpt><trkpt lat="37.799005" lon="15.04606"><ele>1758.0</ele><time>2026-04-18T07:57:52.125Z</time></trkpt><trkpt lat="37.7989533" lon="15.0461233"><ele>1758.0</ele><time>2026-04-18T07:57:53.125Z</time></trkpt><trkpt lat="37.7988917" lon="15.046185"><ele>1755.8333333333333</ele><time>2026-04-18T07:57:54.125Z</time></trkpt><trkpt lat="37.7988333" lon="15.0462433"><ele>1753.6666666666665</ele><time>2026-04-18T07:57:55.125Z</time></trkpt><trkpt lat="37.7987733" lon="15.046305"><ele>1751.5</ele><time>2026-04-18T07:57:56.125Z</time></trkpt><trkpt lat="37.798715" lon="15.0463783"><ele>1749.3333333333333</ele><time>2026-04-18T07:57:57.125Z</time></trkpt><trkpt lat="37.7986783" lon="15.0464617"><ele>1747.1666666666665</ele><time>2026-04-18T07:57:58.125Z</time></trkpt><trkpt lat="37.79865" lon="15.0465533"><ele>1745.0</ele><time>2026-04-18T07:57:59.125Z</time></trkpt><trkpt lat="37.7986417" lon="15.0466567"><ele>1744.4285714285716</ele><time>2026-04-18T07:58:00.125Z</time></trkpt><trkpt lat="37.79864" lon="15.04675"><ele>1743.8571428571427</ele><time>2026-04-18T07:58:01.125Z</time></trkpt><trkpt lat="37.7986667" lon="15.0468333"><ele>1743.2857142857142</ele><time>2026-04-18T07:58:02.125Z</time></trkpt><trkpt lat="37.7987117" lon="15.0469"><ele>1742.7142857142858</ele><time>2026-04-18T07:58:03.125Z</time></trkpt><trkpt lat="37.7987717" lon="15.04695"><ele>1742.1428571428573</ele><time>2026-04-18T07:58:04.125Z</time></trkpt><trkpt lat="37.798845" lon="15.0469817"><ele>1741.5714285714284</ele><time>2026-04-18T07:58:05.125Z</time></trkpt><trkpt lat="37.798925" lon="15.0470033"><ele>1741.0</ele><time>2026-04-18T07:58:06.125Z</time></trkpt><trkpt lat="37.7989967" lon="15.04702"><ele>1741.0</ele><time>2026-04-18T07:58:07.125Z</time></trkpt><trkpt lat="37.7990717" lon="15.0470533"><ele>1741.0</ele><time>2026-04-18T07:58:08.125Z</time></trkpt><trkpt lat="37.79914" lon="15.0471"><ele>1741.0</ele><time>2026-04-18T07:58:09.125Z</time></trkpt><trkpt lat="37.7991917" lon="15.0471483"><ele>1741.0</ele><time>2026-04-18T07:58:10.125Z</time></trkpt><trkpt lat="37.799225" lon="15.0472283"><ele>1741.0</ele><time>2026-04-18T07:58:11.125Z</time></trkpt><trkpt lat="37.7992383" lon="15.0473167"><ele>1741.0</ele><time>2026-04-18T07:58:12.125Z</time></trkpt><trkpt lat="37.7992233" lon="15.0474167"><ele>1741.0</ele><time>2026-04-18T07:58:13.125Z</time></trkpt><trkpt lat="37.79921" lon="15.0475083"><ele>1740.6666666666667</ele><time>2026-04-18T07:58:14.125Z</time></trkpt><trkpt lat="37.7992167" lon="15.0475967"><ele>1740.3333333333335</ele><time>2026-04-18T07:58:15.124Z</time></trkpt><trkpt lat="37.799245" lon="15.0476767"><ele>1740.0</ele><time>2026-04-18T07:58:16.124Z</time></trkpt><trkpt lat="37.7993" lon="15.047745"><ele>1739.6666666666665</ele><time>2026-04-18T07:58:17.125Z</time></trkpt><trkpt lat="37.7993617" lon="15.0478033"><ele>1739.3333333333333</ele><time>2026-04-18T07:58:18.125Z</time></trkpt><trkpt lat="37.79944" lon="15.0478667"><ele>1739.0</ele><time>2026-04-18T07:58:19.125Z</time></trkpt><trkpt lat="37.7995183" lon="15.0479283"><ele>1738.9999999999998</ele><time>2026-04-18T07:58:20.125Z</time></trkpt><trkpt lat="37.7995983" lon="15.0479917"><ele>1739.0</ele><time>2026-04-18T07:58:21.125Z</time></trkpt><trkpt lat="37.7996733" lon="15.0480533"><ele>1739.0</ele><time>2026-04-18T07:58:22.125Z</time></trkpt><trkpt lat="37.7997467" lon="15.0481067"><ele>1739.0</ele><time>2026-04-18T07:58:23.125Z</time></trkpt><trkpt lat="37.7998133" lon="15.0481567"><ele>1738.9999999999998</ele><time>2026-04-18T07:58:24.125Z</time></trkpt><trkpt lat="37.7998683" lon="15.0482067"><ele>1739.0</ele><time>2026-04-18T07:58:25.125Z</time></trkpt><trkpt lat="37.7999433" lon="15.04831"><ele>1737.2</ele><time>2026-04-18T07:58:27.125Z</time></trkpt><trkpt lat="37.7999667" lon="15.0484533"><ele>1735.4</ele><time>2026-04-18T07:58:29.125Z</time></trkpt><trkpt lat="37.7999233" lon="15.048605"><ele>1733.6</ele><time>2026-04-18T07:58:31.125Z</time></trkpt><trkpt lat="37.7998767" lon="15.0486683"><ele>1731.8</ele><time>2026-04-18T07:58:32.124Z</time></trkpt><trkpt lat="37.7998067" lon="15.048725"><ele>1730.0</ele><time>2026-04-18T07:58:33.125Z</time></trkpt><trkpt lat="37.7997333" lon="15.048765"><ele>1729.9999999999998</ele><time>2026-04-18T07:58:34.125Z</time></trkpt><trkpt lat="37.799665" lon="15.0488033"><ele>1730.0</ele><time>2026-04-18T07:58:35.124Z</time></trkpt><trkpt lat="37.799595" lon="15.0488383"><ele>1730.0</ele><time>2026-04-18T07:58:36.125Z</time></trkpt><trkpt lat="37.79953" lon="15.0488867"><ele>1730.0</ele><time>2026-04-18T07:58:37.125Z</time></trkpt><trkpt lat="37.7994883" lon="15.0489717"><ele>1729.9999999999998</ele><time>2026-04-18T07:58:38.125Z</time></trkpt><trkpt lat="37.7994767" lon="15.0490883"><ele>1730.0</ele><time>2026-04-18T07:58:39.125Z</time></trkpt><trkpt lat="37.7994883" lon="15.049215"><ele>1728.6666666666665</ele><time>2026-04-18T07:58:40.125Z</time></trkpt><trkpt lat="37.799515" lon="15.0493267"><ele>1727.3333333333333</ele><time>2026-04-18T07:58:41.125Z</time></trkpt><trkpt lat="37.799545" lon="15.0494183"><ele>1726.0</ele><time>2026-04-18T07:58:42.125Z</time></trkpt><trkpt lat="37.7995717" lon="15.049515"><ele>1724.6666666666665</ele><time>2026-04-18T07:58:43.125Z</time></trkpt><trkpt lat="37.7995783" lon="15.0496083"><ele>1723.3333333333333</ele><time>2026-04-18T07:58:44.125Z</time></trkpt><trkpt lat="37.7995783" lon="15.0496883"><ele>1722.0</ele><time>2026-04-18T07:58:45.125Z</time></trkpt><trkpt lat="37.7995183" lon="15.049765"><ele>1722.0</ele><time>2026-04-18T07:58:46.125Z</time></trkpt><trkpt lat="37.7994667" lon="15.049845"><ele>1722.0</ele><time>2026-04-18T07:58:47.125Z</time></trkpt><trkpt lat="37.799425" lon="15.0499383"><ele>1722.0</ele><time>2026-04-18T07:58:48.124Z</time></trkpt><trkpt lat="37.7994117" lon="15.05004"><ele>1722.0</ele><time>2026-04-18T07:58:49.125Z</time></trkpt><trkpt lat="37.7994283" lon="15.0501433"><ele>1722.0</ele><time>2026-04-18T07:58:50.125Z</time></trkpt><trkpt lat="37.7994633" lon="15.0502533"><ele>1722.0</ele><time>2026-04-18T07:58:51.125Z</time></trkpt><trkpt lat="37.7994917" lon="15.0503617"><ele>1720.0</ele><time>2026-04-18T07:58:52.125Z</time></trkpt><trkpt lat="37.7995133" lon="15.050475"><ele>1717.9999999999998</ele><time>2026-04-18T07:58:53.124Z</time></trkpt><trkpt lat="37.7995217" lon="15.0505933"><ele>1715.9999999999998</ele><time>2026-04-18T07:58:54.124Z</time></trkpt><trkpt lat="37.79952" lon="15.0507083"><ele>1714.0</ele><time>2026-04-18T07:58:55.125Z</time></trkpt><trkpt lat="37.79951" lon="15.0508267"><ele>1712.0</ele><time>2026-04-18T07:58:56.125Z</time></trkpt><trkpt lat="37.7994983" lon="15.0509383"><ele>1709.6666666666665</ele><time>2026-04-18T07:58:57.124Z</time></trkpt><trkpt lat="37.799495" lon="15.0510367"><ele>1707.3333333333333</ele><time>2026-04-18T07:58:58.125Z</time></trkpt><trkpt lat="37.7995033" lon="15.0511317"><ele>1705.0</ele><time>2026-04-18T07:58:59.125Z</time></trkpt><trkpt lat="37.7995417" lon="15.0512083"><ele>1702.6666666666665</ele><time>2026-04-18T07:59:00.125Z</time></trkpt><trkpt lat="37.7995933" lon="15.0512633"><ele>1700.3333333333333</ele><time>2026-04-18T07:59:01.125Z</time></trkpt><trkpt lat="37.7996517" lon="15.0513117"><ele>1698.0</ele><time>2026-04-18T07:59:02.125Z</time></trkpt><trkpt lat="37.7997183" lon="15.051435"><ele>1698.0</ele><time>2026-04-18T07:59:04.125Z</time></trkpt><trkpt lat="37.7997217" lon="15.05152"><ele>1698.0</ele><time>2026-04-18T07:59:05.125Z</time></trkpt><trkpt lat="37.7996967" lon="15.051615"><ele>1698.0</ele><time>2026-04-18T07:59:06.125Z</time></trkpt><trkpt lat="37.799635" lon="15.0517017"><ele>1698.0</ele><time>2026-04-18T07:59:07.125Z</time></trkpt><trkpt lat="37.7995783" lon="15.0517683"><ele>1698.0</ele><time>2026-04-18T07:59:08.125Z</time></trkpt><trkpt lat="37.7995083" lon="15.05182"><ele>1698.0</ele><time>2026-04-18T07:59:09.125Z</time></trkpt><trkpt lat="37.79943" lon="15.051865"><ele>1695.1666666666667</ele><time>2026-04-18T07:59:10.125Z</time></trkpt><trkpt lat="37.7993533" lon="15.0518983"><ele>1692.3333333333335</ele><time>2026-04-18T07:59:11.125Z</time></trkpt><trkpt lat="37.7992733" lon="15.0519217"><ele>1689.5</ele><time>2026-04-18T07:59:12.125Z</time></trkpt><trkpt lat="37.79919" lon="15.0519567"><ele>1686.6666666666667</ele><time>2026-04-18T07:59:13.125Z</time></trkpt><trkpt lat="37.7991033" lon="15.0519967"><ele>1683.8333333333335</ele><time>2026-04-18T07:59:14.125Z</time></trkpt><trkpt lat="37.7990217" lon="15.0520333"><ele>1681.0</ele><time>2026-04-18T07:59:15.125Z</time></trkpt><trkpt lat="37.7989367" lon="15.0520667"><ele>1680.4</ele><time>2026-04-18T07:59:16.125Z</time></trkpt><trkpt lat="37.7988467" lon="15.0521"><ele>1679.8</ele><time>2026-04-18T07:59:17.125Z</time></trkpt><trkpt lat="37.7987567" lon="15.0521267"><ele>1679.2</ele><time>2026-04-18T07:59:18.125Z</time></trkpt><trkpt lat="37.7986667" lon="15.05216"><ele>1678.6000000000001</ele><time>2026-04-18T07:59:19.125Z</time></trkpt><trkpt lat="37.7985767" lon="15.05219"><ele>1678.0</ele><time>2026-04-18T07:59:20.125Z</time></trkpt><trkpt lat="37.7984967" lon="15.0522317"><ele>1677.1666666666667</ele><time>2026-04-18T07:59:21.125Z</time></trkpt><trkpt lat="37.798415" lon="15.05228"><ele>1676.3333333333335</ele><time>2026-04-18T07:59:22.125Z</time></trkpt><trkpt lat="37.7983383" lon="15.0523333"><ele>1675.5</ele><time>2026-04-18T07:59:23.125Z</time></trkpt><trkpt lat="37.7982667" lon="15.0523933"><ele>1674.6666666666665</ele><time>2026-04-18T07:59:24.125Z</time></trkpt><trkpt lat="37.7981867" lon="15.0524417"><ele>1673.8333333333333</ele><time>2026-04-18T07:59:25.125Z</time></trkpt><trkpt lat="37.79811" lon="15.052485"><ele>1673.0</ele><time>2026-04-18T07:59:26.125Z</time></trkpt><trkpt lat="37.798025" lon="15.052515"><ele>1672.9999999999998</ele><time>2026-04-18T07:59:27.125Z</time></trkpt><trkpt lat="37.79794" lon="15.0525167"><ele>1673.0</ele><time>2026-04-18T07:59:28.125Z</time></trkpt><trkpt lat="37.7978633" lon="15.0524883"><ele>1673.0</ele><time>2026-04-18T07:59:29.124Z</time></trkpt><trkpt lat="37.797785" lon="15.05246"><ele>1673.0</ele><time>2026-04-18T07:59:30.125Z</time></trkpt><trkpt lat="37.7977033" lon="15.0524333"><ele>1672.9999999999998</ele><time>2026-04-18T07:59:31.125Z</time></trkpt><trkpt lat="37.79762" lon="15.0524217"><ele>1673.0</ele><time>2026-04-18T07:59:32.125Z</time></trkpt><trkpt lat="37.7975283" lon="15.0524267"><ele>1669.8000000000002</ele><time>2026-04-18T07:59:33.125Z</time></trkpt><trkpt lat="37.79744" lon="15.05246"><ele>1666.6</ele><time>2026-04-18T07:59:34.125Z</time></trkpt><trkpt lat="37.7973533" lon="15.052525"><ele>1663.4</ele><time>2026-04-18T07:59:35.124Z</time></trkpt><trkpt lat="37.7972567" lon="15.0525817"><ele>1660.1999999999998</ele><time>2026-04-18T07:59:36.125Z</time></trkpt><trkpt lat="37.7971567" lon="15.0526283"><ele>1657.0</ele><time>2026-04-18T07:59:37.125Z</time></trkpt><trkpt lat="37.7970517" lon="15.0526767"><ele>1657.0</ele><time>2026-04-18T07:59:38.125Z</time></trkpt><trkpt lat="37.7969467" lon="15.0527317"><ele>1657.0</ele><time>2026-04-18T07:59:39.125Z</time></trkpt><trkpt lat="37.7968417" lon="15.0528"><ele>1657.0</ele><time>2026-04-18T07:59:40.125Z</time></trkpt><trkpt lat="37.7967567" lon="15.0528883"><ele>1657.0</ele><time>2026-04-18T07:59:41.125Z</time></trkpt><trkpt lat="37.7967017" lon="15.053005"><ele>1657.0</ele><time>2026-04-18T07:59:42.125Z</time></trkpt><trkpt lat="37.7966433" lon="15.0531467"><ele>1653.0</ele><time>2026-04-18T07:59:43.125Z</time></trkpt><trkpt lat="37.7965833" lon="15.0532917"><ele>1649.0</ele><time>2026-04-18T07:59:44.125Z</time></trkpt><trkpt lat="37.7965233" lon="15.0534333"><ele>1645.0</ele><time>2026-04-18T07:59:45.125Z</time></trkpt><trkpt lat="37.79646" lon="15.053575"><ele>1641.0</ele><time>2026-04-18T07:59:46.124Z</time></trkpt><trkpt lat="37.7964" lon="15.0537067"><ele>1641.0</ele><time>2026-04-18T07:59:47.125Z</time></trkpt><trkpt lat="37.79634" lon="15.0538417"><ele>1641.0</ele><time>2026-04-18T07:59:48.124Z</time></trkpt><trkpt lat="37.7962867" lon="15.0539767"><ele>1641.0</ele><time>2026-04-18T07:59:49.125Z</time></trkpt><trkpt lat="37.796225" lon="15.0541117"><ele>1641.0</ele><time>2026-04-18T07:59:50.125Z</time></trkpt><trkpt lat="37.7961717" lon="15.054245"><ele>1638.75</ele><time>2026-04-18T07:59:51.125Z</time></trkpt><trkpt lat="37.7961133" lon="15.05438"><ele>1636.5</ele><time>2026-04-18T07:59:52.125Z</time></trkpt><trkpt lat="37.7960567" lon="15.0545117"><ele>1634.25</ele><time>2026-04-18T07:59:53.125Z</time></trkpt><trkpt lat="37.7960017" lon="15.0546417"><ele>1632.0</ele><time>2026-04-18T07:59:54.125Z</time></trkpt><trkpt lat="37.7959483" lon="15.05477"><ele>1631.75</ele><time>2026-04-18T07:59:55.125Z</time></trkpt><trkpt lat="37.7958883" lon="15.0548933"><ele>1631.5</ele><time>2026-04-18T07:59:56.125Z</time></trkpt><trkpt lat="37.7958233" lon="15.05502"><ele>1631.25</ele><time>2026-04-18T07:59:57.125Z</time></trkpt><trkpt lat="37.7957467" lon="15.05513"><ele>1631.0</ele><time>2026-04-18T07:59:58.125Z</time></trkpt><trkpt lat="37.7956567" lon="15.0552383"><ele>1630.5</ele><time>2026-04-18T07:59:59.125Z</time></trkpt><trkpt lat="37.795555" lon="15.0553383"><ele>1630.0</ele><time>2026-04-18T08:00:00.125Z</time></trkpt><trkpt lat="37.795455" lon="15.0554383"><ele>1629.5</ele><time>2026-04-18T08:00:01.125Z</time></trkpt><trkpt lat="37.7953617" lon="15.05554"><ele>1629.0</ele><time>2026-04-18T08:00:02.125Z</time></trkpt><trkpt lat="37.7952633" lon="15.0556367"><ele>1629.0</ele><time>2026-04-18T08:00:03.125Z</time></trkpt><trkpt lat="37.7951767" lon="15.0557433"><ele>1629.0</ele><time>2026-04-18T08:00:04.125Z</time></trkpt><trkpt lat="37.7950983" lon="15.05586"><ele>1629.0</ele><time>2026-04-18T08:00:05.125Z</time></trkpt><trkpt lat="37.795035" lon="15.055975"><ele>1629.0</ele><time>2026-04-18T08:00:06.125Z</time></trkpt><trkpt lat="37.7949733" lon="15.0561"><ele>1625.25</ele><time>2026-04-18T08:00:07.125Z</time></trkpt><trkpt lat="37.794925" lon="15.05624"><ele>1621.5</ele><time>2026-04-18T08:00:08.125Z</time></trkpt><trkpt lat="37.7948917" lon="15.0563883"><ele>1617.75</ele><time>2026-04-18T08:00:09.125Z</time></trkpt><trkpt lat="37.7948633" lon="15.0565467"><ele>1614.0</ele><time>2026-04-18T08:00:10.124Z</time></trkpt><trkpt lat="37.794825" lon="15.0567017"><ele>1612.0</ele><time>2026-04-18T08:00:11.125Z</time></trkpt><trkpt lat="37.7947833" lon="15.05685"><ele>1610.0</ele><time>2026-04-18T08:00:12.125Z</time></trkpt><trkpt lat="37.7947433" lon="15.0569983"><ele>1608.0</ele><time>2026-04-18T08:00:13.125Z</time></trkpt><trkpt lat="37.7946783" lon="15.0571383"><ele>1606.0</ele><time>2026-04-18T08:00:14.125Z</time></trkpt><trkpt lat="37.7946" lon="15.0572683"><ele>1606.0</ele><time>2026-04-18T08:00:15.125Z</time></trkpt><trkpt lat="37.7945233" lon="15.0573883"><ele>1606.0</ele><time>2026-04-18T08:00:16.125Z</time></trkpt><trkpt lat="37.7944517" lon="15.0575183"><ele>1606.0</ele><time>2026-04-18T08:00:17.125Z</time></trkpt><trkpt lat="37.7943933" lon="15.0576617"><ele>1606.0</ele><time>2026-04-18T08:00:18.125Z</time></trkpt><trkpt lat="37.794355" lon="15.057815"><ele>1604.75</ele><time>2026-04-18T08:00:19.124Z</time></trkpt><trkpt lat="37.7943333" lon="15.05797"><ele>1603.5</ele><time>2026-04-18T08:00:20.125Z</time></trkpt><trkpt lat="37.794335" lon="15.0581217"><ele>1602.25</ele><time>2026-04-18T08:00:21.124Z</time></trkpt><trkpt lat="37.794365" lon="15.0582733"><ele>1601.0</ele><time>2026-04-18T08:00:22.125Z</time></trkpt><trkpt lat="37.7944183" lon="15.0584117"><ele>1597.75</ele><time>2026-04-18T08:00:23.125Z</time></trkpt><trkpt lat="37.7944833" lon="15.0585383"><ele>1594.5</ele><time>2026-04-18T08:00:24.124Z</time></trkpt><trkpt lat="37.7945583" lon="15.0586533"><ele>1591.25</ele><time>2026-04-18T08:00:25.125Z</time></trkpt><trkpt lat="37.794655" lon="15.05875"><ele>1588.0</ele><time>2026-04-18T08:00:26.124Z</time></trkpt><trkpt lat="37.79476" lon="15.058815"><ele>1588.0</ele><time>2026-04-18T08:00:27.125Z</time></trkpt><trkpt lat="37.7948833" lon="15.0588583"><ele>1588.0</ele><time>2026-04-18T08:00:28.125Z</time></trkpt><trkpt lat="37.795015" lon="15.0588867"><ele>1588.0</ele><time>2026-04-18T08:00:29.125Z</time></trkpt><trkpt lat="37.7951433" lon="15.0589067"><ele>1588.0</ele><time>2026-04-18T08:00:30.125Z</time></trkpt><trkpt lat="37.7952667" lon="15.0589167"><ele>1586.75</ele><time>2026-04-18T08:00:31.125Z</time></trkpt><trkpt lat="37.7953933" lon="15.0589317"><ele>1585.5</ele><time>2026-04-18T08:00:32.125Z</time></trkpt><trkpt lat="37.7955183" lon="15.0589483"><ele>1584.25</ele><time>2026-04-18T08:00:33.125Z</time></trkpt><trkpt lat="37.7956433" lon="15.0589783"><ele>1583.0</ele><time>2026-04-18T08:00:34.125Z</time></trkpt><trkpt lat="37.7957683" lon="15.059025"><ele>1583.0</ele><time>2026-04-18T08:00:35.125Z</time></trkpt><trkpt lat="37.795895" lon="15.0590733"><ele>1583.0</ele><time>2026-04-18T08:00:36.125Z</time></trkpt><trkpt lat="37.79602" lon="15.059145"><ele>1583.0</ele><time>2026-04-18T08:00:37.125Z</time></trkpt><trkpt lat="37.7961583" lon="15.059225"><ele>1583.0</ele><time>2026-04-18T08:00:38.125Z</time></trkpt><trkpt lat="37.7962917" lon="15.0592983"><ele>1580.75</ele><time>2026-04-18T08:00:39.125Z</time></trkpt><trkpt lat="37.7964183" lon="15.0593717"><ele>1578.5</ele><time>2026-04-18T08:00:40.125Z</time></trkpt><trkpt lat="37.7965433" lon="15.0594433"><ele>1576.25</ele><time>2026-04-18T08:00:41.125Z</time></trkpt><trkpt lat="37.79667" lon="15.0595117"><ele>1574.0</ele><time>2026-04-18T08:00:42.125Z</time></trkpt><trkpt lat="37.796795" lon="15.0595817"><ele>1574.75</ele><time>2026-04-18T08:00:43.125Z</time></trkpt><trkpt lat="37.7969183" lon="15.0596467"><ele>1575.5</ele><time>2026-04-18T08:00:44.125Z</time></trkpt><trkpt lat="37.7970333" lon="15.05971"><ele>1576.25</ele><time>2026-04-18T08:00:45.125Z</time></trkpt><trkpt lat="37.7971383" lon="15.0597883"><ele>1577.0</ele><time>2026-04-18T08:00:46.125Z</time></trkpt><trkpt lat="37.7972383" lon="15.0598833"><ele>1573.75</ele><time>2026-04-18T08:00:47.125Z</time></trkpt><trkpt lat="37.7973167" lon="15.05999"><ele>1570.5</ele><time>2026-04-18T08:00:48.124Z</time></trkpt><trkpt lat="37.797385" lon="15.060105"><ele>1567.25</ele><time>2026-04-18T08:00:49.125Z</time></trkpt><trkpt lat="37.7974283" lon="15.0602317"><ele>1564.0</ele><time>2026-04-18T08:00:50.125Z</time></trkpt><trkpt lat="37.7974617" lon="15.06037"><ele>1564.0</ele><time>2026-04-18T08:00:51.125Z</time></trkpt><trkpt lat="37.79748" lon="15.0605267"><ele>1564.0</ele><time>2026-04-18T08:00:52.125Z</time></trkpt><trkpt lat="37.79748" lon="15.0606917"><ele>1564.0</ele><time>2026-04-18T08:00:53.125Z</time></trkpt><trkpt lat="37.797465" lon="15.0608483"><ele>1564.0</ele><time>2026-04-18T08:00:54.125Z</time></trkpt><trkpt lat="37.7974333" lon="15.0610067"><ele>1561.0</ele><time>2026-04-18T08:00:55.125Z</time></trkpt><trkpt lat="37.7973833" lon="15.061155"><ele>1558.0</ele><time>2026-04-18T08:00:56.125Z</time></trkpt><trkpt lat="37.797325" lon="15.0612933"><ele>1555.0</ele><time>2026-04-18T08:00:57.125Z</time></trkpt><trkpt lat="37.7972633" lon="15.0614217"><ele>1552.0</ele><time>2026-04-18T08:00:58.125Z</time></trkpt><trkpt lat="37.7971967" lon="15.0615433"><ele>1550.3999999999999</ele><time>2026-04-18T08:00:59.124Z</time></trkpt><trkpt lat="37.7971383" lon="15.0616683"><ele>1548.8</ele><time>2026-04-18T08:01:00.125Z</time></trkpt><trkpt lat="37.7970733" lon="15.06179"><ele>1547.2</ele><time>2026-04-18T08:01:01.125Z</time></trkpt><trkpt lat="37.7970233" lon="15.0619117"><ele>1545.6</ele><time>2026-04-18T08:01:02.125Z</time></trkpt><trkpt lat="37.7969717" lon="15.062025"><ele>1544.0</ele><time>2026-04-18T08:01:03.124Z</time></trkpt><trkpt lat="37.79692" lon="15.0621283"><ele>1543.9999999999998</ele><time>2026-04-18T08:01:04.125Z</time></trkpt><trkpt lat="37.796865" lon="15.06222"><ele>1544.0</ele><time>2026-04-18T08:01:05.125Z</time></trkpt><trkpt lat="37.79681" lon="15.0622983"><ele>1544.0</ele><time>2026-04-18T08:01:06.124Z</time></trkpt><trkpt lat="37.7967533" lon="15.0623617"><ele>1544.0</ele><time>2026-04-18T08:01:07.124Z</time></trkpt><trkpt lat="37.7967067" lon="15.0624283"><ele>1543.9999999999998</ele><time>2026-04-18T08:01:08.125Z</time></trkpt><trkpt lat="37.796665" lon="15.0625017"><ele>1544.0</ele><time>2026-04-18T08:01:09.125Z</time></trkpt><trkpt lat="37.796645" lon="15.0625783"><ele>1541.0</ele><time>2026-04-18T08:01:10.125Z</time></trkpt><trkpt lat="37.7966283" lon="15.062675"><ele>1538.0</ele><time>2026-04-18T08:01:11.125Z</time></trkpt><trkpt lat="37.7966367" lon="15.062795"><ele>1535.0</ele><time>2026-04-18T08:01:12.125Z</time></trkpt><trkpt lat="37.7966667" lon="15.06293"><ele>1532.0</ele><time>2026-04-18T08:01:13.125Z</time></trkpt><trkpt lat="37.79671" lon="15.0630817"><ele>1529.0</ele><time>2026-04-18T08:01:14.124Z</time></trkpt><trkpt lat="37.79676" lon="15.0632533"><ele>1528.3333333333335</ele><time>2026-04-18T08:01:15.125Z</time></trkpt><trkpt lat="37.7968167" lon="15.0634317"><ele>1527.6666666666667</ele><time>2026-04-18T08:01:16.125Z</time></trkpt><trkpt lat="37.7968683" lon="15.063625"><ele>1527.0</ele><time>2026-04-18T08:01:17.125Z</time></trkpt><trkpt lat="37.7969233" lon="15.063815"><ele>1526.6666666666667</ele><time>2026-04-18T08:01:18.124Z</time></trkpt><trkpt lat="37.796985" lon="15.0640017"><ele>1526.3333333333335</ele><time>2026-04-18T08:01:19.125Z</time></trkpt><trkpt lat="37.79705" lon="15.0641783"><ele>1526.0</ele><time>2026-04-18T08:01:20.125Z</time></trkpt><trkpt lat="37.7971067" lon="15.0643517"><ele>1525.0</ele><time>2026-04-18T08:01:21.125Z</time></trkpt><trkpt lat="37.7971617" lon="15.0645183"><ele>1524.0</ele><time>2026-04-18T08:01:22.125Z</time></trkpt><trkpt lat="37.797215" lon="15.064685"><ele>1523.0</ele><time>2026-04-18T08:01:23.125Z</time></trkpt><trkpt lat="37.7972717" lon="15.064845"><ele>1522.0</ele><time>2026-04-18T08:01:24.125Z</time></trkpt><trkpt lat="37.797325" lon="15.0650017"><ele>1520.5</ele><time>2026-04-18T08:01:25.124Z</time></trkpt><trkpt lat="37.79739" lon="15.0651467"><ele>1519.0</ele><time>2026-04-18T08:01:26.125Z</time></trkpt><trkpt lat="37.7974717" lon="15.0652733"><ele>1517.5</ele><time>2026-04-18T08:01:27.125Z</time></trkpt><trkpt lat="37.7975783" lon="15.06537"><ele>1516.0</ele><time>2026-04-18T08:01:28.125Z</time></trkpt><trkpt lat="37.7976967" lon="15.0654483"><ele>1515.25</ele><time>2026-04-18T08:01:29.125Z</time></trkpt><trkpt lat="37.7978267" lon="15.0655017"><ele>1514.5</ele><time>2026-04-18T08:01:30.125Z</time></trkpt><trkpt lat="37.7979683" lon="15.0655217"><ele>1513.75</ele><time>2026-04-18T08:01:31.125Z</time></trkpt><trkpt lat="37.79811" lon="15.065515"><ele>1513.0</ele><time>2026-04-18T08:01:32.125Z</time></trkpt><trkpt lat="37.798255" lon="15.0654867"><ele>1513.0</ele><time>2026-04-18T08:01:33.124Z</time></trkpt><trkpt lat="37.7984033" lon="15.0654317"><ele>1513.0</ele><time>2026-04-18T08:01:34.125Z</time></trkpt><trkpt lat="37.79855" lon="15.0653767"><ele>1513.0</ele><time>2026-04-18T08:01:35.125Z</time></trkpt><trkpt lat="37.798685" lon="15.0653233"><ele>1513.0</ele><time>2026-04-18T08:01:36.125Z</time></trkpt><trkpt lat="37.7988233" lon="15.0652783"><ele>1511.25</ele><time>2026-04-18T08:01:37.125Z</time></trkpt><trkpt lat="37.7989567" lon="15.0652417"><ele>1509.5</ele><time>2026-04-18T08:01:38.125Z</time></trkpt><trkpt lat="37.799095" lon="15.0652133"><ele>1507.75</ele><time>2026-04-18T08:01:39.125Z</time></trkpt><trkpt lat="37.7992267" lon="15.0652"><ele>1506.0</ele><time>2026-04-18T08:01:40.125Z</time></trkpt><trkpt lat="37.7993617" lon="15.065205"><ele>1506.0</ele><time>2026-04-18T08:01:41.125Z</time></trkpt><trkpt lat="37.7995067" lon="15.065225"><ele>1506.0</ele><time>2026-04-18T08:01:42.125Z</time></trkpt><trkpt lat="37.7996633" lon="15.06526"><ele>1506.0</ele><time>2026-04-18T08:01:43.125Z</time></trkpt><trkpt lat="37.7998133" lon="15.0652983"><ele>1506.0</ele><time>2026-04-18T08:01:44.125Z</time></trkpt><trkpt lat="37.7999667" lon="15.0653483"><ele>1506.0</ele><time>2026-04-18T08:01:45.125Z</time></trkpt><trkpt lat="37.800115" lon="15.0654133"><ele>1506.0</ele><time>2026-04-18T08:01:46.125Z</time></trkpt><trkpt lat="37.8002633" lon="15.0654467"><ele>1505.25</ele><time>2026-04-18T08:01:47.125Z</time></trkpt><trkpt lat="37.8004083" lon="15.06545"><ele>1504.5</ele><time>2026-04-18T08:01:48.125Z</time></trkpt><trkpt lat="37.800555" lon="15.0654483"><ele>1503.75</ele><time>2026-04-18T08:01:49.125Z</time></trkpt><trkpt lat="37.8007" lon="15.0654367"><ele>1503.0</ele><time>2026-04-18T08:01:50.125Z</time></trkpt><trkpt lat="37.8008267" lon="15.0654233"><ele>1503.0</ele><time>2026-04-18T08:01:51.125Z</time></trkpt><trkpt lat="37.8009517" lon="15.0653583"><ele>1503.0</ele><time>2026-04-18T08:01:52.125Z</time></trkpt><trkpt lat="37.8010767" lon="15.0652567"><ele>1503.0</ele><time>2026-04-18T08:01:53.125Z</time></trkpt><trkpt lat="37.8011867" lon="15.065145"><ele>1503.0</ele><time>2026-04-18T08:01:54.125Z</time></trkpt><trkpt lat="37.8012967" lon="15.065035"><ele>1503.4</ele><time>2026-04-18T08:01:55.125Z</time></trkpt><trkpt lat="37.80139" lon="15.06493"><ele>1503.8000000000002</ele><time>2026-04-18T08:01:56.125Z</time></trkpt><trkpt lat="37.8014783" lon="15.06485"><ele>1504.2</ele><time>2026-04-18T08:01:57.125Z</time></trkpt><trkpt lat="37.80157" lon="15.064805"><ele>1504.6</ele><time>2026-04-18T08:01:58.125Z</time></trkpt><trkpt lat="37.8016733" lon="15.0648567"><ele>1505.0</ele><time>2026-04-18T08:01:59.125Z</time></trkpt><trkpt lat="37.8017867" lon="15.06493"><ele>1501.6666666666667</ele><time>2026-04-18T08:02:00.124Z</time></trkpt><trkpt lat="37.8019283" lon="15.0649767"><ele>1498.3333333333333</ele><time>2026-04-18T08:02:01.124Z</time></trkpt><trkpt lat="37.8020783" lon="15.0650517"><ele>1495.0</ele><time>2026-04-18T08:02:02.125Z</time></trkpt><trkpt lat="37.8022333" lon="15.065175"><ele>1495.0</ele><time>2026-04-18T08:02:03.125Z</time></trkpt><trkpt lat="37.8023917" lon="15.0652717"><ele>1495.0</ele><time>2026-04-18T08:02:04.125Z</time></trkpt><trkpt lat="37.802545" lon="15.0653683"><ele>1495.0</ele><time>2026-04-18T08:02:05.125Z</time></trkpt><trkpt lat="37.8026867" lon="15.0654633"><ele>1496.25</ele><time>2026-04-18T08:02:06.124Z</time></trkpt><trkpt lat="37.8028183" lon="15.0655467"><ele>1497.5</ele><time>2026-04-18T08:02:07.125Z</time></trkpt><trkpt lat="37.8029383" lon="15.0656417"><ele>1498.75</ele><time>2026-04-18T08:02:08.125Z</time></trkpt><trkpt lat="37.803075" lon="15.0656683"><ele>1500.0</ele><time>2026-04-18T08:02:09.125Z</time></trkpt><trkpt lat="37.8032167" lon="15.065665"><ele>1500.0</ele><time>2026-04-18T08:02:10.125Z</time></trkpt><trkpt lat="37.8033683" lon="15.0656417"><ele>1500.0</ele><time>2026-04-18T08:02:11.124Z</time></trkpt><trkpt lat="37.8035217" lon="15.06563"><ele>1500.0</ele><time>2026-04-18T08:02:12.125Z</time></trkpt><trkpt lat="37.803685" lon="15.0656017"><ele>1498.6666666666667</ele><time>2026-04-18T08:02:13.125Z</time></trkpt><trkpt lat="37.803855" lon="15.0655717"><ele>1497.3333333333335</ele><time>2026-04-18T08:02:14.124Z</time></trkpt><trkpt lat="37.8040233" lon="15.0655483"><ele>1496.0</ele><time>2026-04-18T08:02:15.125Z</time></trkpt><trkpt lat="37.8041933" lon="15.0655183"><ele>1495.3333333333335</ele><time>2026-04-18T08:02:16.125Z</time></trkpt><trkpt lat="37.8043583" lon="15.065475"><ele>1494.6666666666667</ele><time>2026-04-18T08:02:17.125Z</time></trkpt><trkpt lat="37.8045233" lon="15.0654283"><ele>1494.0</ele><time>2026-04-18T08:02:18.125Z</time></trkpt><trkpt lat="37.804675" lon="15.065385"><ele>1494.0</ele><time>2026-04-18T08:02:19.125Z</time></trkpt><trkpt lat="37.80482" lon="15.0653533"><ele>1494.0</ele><time>2026-04-18T08:02:20.125Z</time></trkpt><trkpt lat="37.804955" lon="15.0653217"><ele>1494.0</ele><time>2026-04-18T08:02:21.125Z</time></trkpt><trkpt lat="37.8050783" lon="15.0652933"><ele>1494.0</ele><time>2026-04-18T08:02:22.125Z</time></trkpt><trkpt lat="37.80519" lon="15.0652733"><ele>1494.75</ele><time>2026-04-18T08:02:23.125Z</time></trkpt><trkpt lat="37.80531" lon="15.0653367"><ele>1495.5</ele><time>2026-04-18T08:02:24.125Z</time></trkpt><trkpt lat="37.8053983" lon="15.0654367"><ele>1496.25</ele><time>2026-04-18T08:02:25.125Z</time></trkpt><trkpt lat="37.805465" lon="15.065585"><ele>1497.0</ele><time>2026-04-18T08:02:26.125Z</time></trkpt><trkpt lat="37.805525" lon="15.0657467"><ele>1495.0</ele><time>2026-04-18T08:02:27.125Z</time></trkpt><trkpt lat="37.805585" lon="15.0659033"><ele>1493.0</ele><time>2026-04-18T08:02:28.125Z</time></trkpt><trkpt lat="37.8056583" lon="15.0660483"><ele>1491.0</ele><time>2026-04-18T08:02:29.125Z</time></trkpt><trkpt lat="37.8057583" lon="15.06618"><ele>1489.0</ele><time>2026-04-18T08:02:30.124Z</time></trkpt><trkpt lat="37.8058833" lon="15.0663033"><ele>1491.0</ele><time>2026-04-18T08:02:31.125Z</time></trkpt><trkpt lat="37.806005" lon="15.066435"><ele>1493.0</ele><time>2026-04-18T08:02:32.125Z</time></trkpt><trkpt lat="37.8061117" lon="15.0665617"><ele>1495.0</ele><time>2026-04-18T08:02:33.125Z</time></trkpt><trkpt lat="37.8062333" lon="15.0666817"><ele>1492.0</ele><time>2026-04-18T08:02:34.125Z</time></trkpt><trkpt lat="37.8063517" lon="15.0668017"><ele>1489.0</ele><time>2026-04-18T08:02:35.125Z</time></trkpt><trkpt lat="37.80647" lon="15.0669117"><ele>1486.0</ele><time>2026-04-18T08:02:36.125Z</time></trkpt><trkpt lat="37.8065883" lon="15.0670233"><ele>1483.0</ele><time>2026-04-18T08:02:37.125Z</time></trkpt><trkpt lat="37.806705" lon="15.0671367"><ele>1483.0</ele><time>2026-04-18T08:02:38.125Z</time></trkpt><trkpt lat="37.8068217" lon="15.0672467"><ele>1483.0</ele><time>2026-04-18T08:02:39.125Z</time></trkpt><trkpt lat="37.80694" lon="15.067355"><ele>1483.0</ele><time>2026-04-18T08:02:40.125Z</time></trkpt><trkpt lat="37.8070517" lon="15.0674617"><ele>1483.0</ele><time>2026-04-18T08:02:41.124Z</time></trkpt><trkpt lat="37.8071567" lon="15.0675717"><ele>1483.75</ele><time>2026-04-18T08:02:42.125Z</time></trkpt><trkpt lat="37.80723" lon="15.0677183"><ele>1484.5</ele><time>2026-04-18T08:02:43.124Z</time></trkpt><trkpt lat="37.8073083" lon="15.067885"><ele>1485.25</ele><time>2026-04-18T08:02:44.125Z</time></trkpt><trkpt lat="37.8073717" lon="15.0680533"><ele>1486.0</ele><time>2026-04-18T08:02:45.125Z</time></trkpt><trkpt lat="37.8074233" lon="15.0682433"><ele>1482.3333333333333</ele><time>2026-04-18T08:02:46.125Z</time></trkpt><trkpt lat="37.8074733" lon="15.0684333"><ele>1478.6666666666667</ele><time>2026-04-18T08:02:47.124Z</time></trkpt><trkpt lat="37.8075267" lon="15.0686117"><ele>1475.0</ele><time>2026-04-18T08:02:48.125Z</time></trkpt><trkpt lat="37.8075733" lon="15.06878"><ele>1475.0</ele><time>2026-04-18T08:02:49.124Z</time></trkpt><trkpt lat="37.8076367" lon="15.06892"><ele>1475.0</ele><time>2026-04-18T08:02:50.124Z</time></trkpt><trkpt lat="37.80772" lon="15.0690467"><ele>1475.0</ele><time>2026-04-18T08:02:51.125Z</time></trkpt><trkpt lat="37.80781" lon="15.0691783"><ele>1475.0</ele><time>2026-04-18T08:02:52.125Z</time></trkpt><trkpt lat="37.8079083" lon="15.0693"><ele>1476.0</ele><time>2026-04-18T08:02:53.125Z</time></trkpt><trkpt lat="37.8080283" lon="15.0693833"><ele>1477.0</ele><time>2026-04-18T08:02:54.124Z</time></trkpt><trkpt lat="37.80815" lon="15.0694633"><ele>1478.0</ele><time>2026-04-18T08:02:55.125Z</time></trkpt><trkpt lat="37.8082567" lon="15.0695383"><ele>1479.0</ele><time>2026-04-18T08:02:56.125Z</time></trkpt><trkpt lat="37.80836" lon="15.0695867"><ele>1479.0</ele><time>2026-04-18T08:02:57.125Z</time></trkpt><trkpt lat="37.8084517" lon="15.0696083"><ele>1479.0</ele><time>2026-04-18T08:02:58.125Z</time></trkpt><trkpt lat="37.8085367" lon="15.0695917"><ele>1479.0</ele><time>2026-04-18T08:02:59.125Z</time></trkpt><trkpt lat="37.8086267" lon="15.0695383"><ele>1479.0</ele><time>2026-04-18T08:03:00.124Z</time></trkpt><trkpt lat="37.8087117" lon="15.0694467"><ele>1479.0</ele><time>2026-04-18T08:03:01.125Z</time></trkpt><trkpt lat="37.8087733" lon="15.069305"><ele>1479.6</ele><time>2026-04-18T08:03:02.125Z</time></trkpt><trkpt lat="37.8088167" lon="15.0691433"><ele>1480.2</ele><time>2026-04-18T08:03:03.125Z</time></trkpt><trkpt lat="37.80887" lon="15.069015"><ele>1480.8</ele><time>2026-04-18T08:03:04.125Z</time></trkpt><trkpt lat="37.808935" lon="15.0689267"><ele>1481.3999999999999</ele><time>2026-04-18T08:03:05.125Z</time></trkpt><trkpt lat="37.8089967" lon="15.068875"><ele>1482.0</ele><time>2026-04-18T08:03:06.125Z</time></trkpt><trkpt lat="37.8090767" lon="15.0688667"><ele>1482.0</ele><time>2026-04-18T08:03:07.125Z</time></trkpt><trkpt lat="37.80916" lon="15.068895"><ele>1482.0</ele><time>2026-04-18T08:03:08.125Z</time></trkpt><trkpt lat="37.8092383" lon="15.0689367"><ele>1482.0</ele><time>2026-04-18T08:03:09.125Z</time></trkpt><trkpt lat="37.80931" lon="15.06898"><ele>1482.0</ele><time>2026-04-18T08:03:10.124Z</time></trkpt><trkpt lat="37.809345" lon="15.0690583"><ele>1482.0</ele><time>2026-04-18T08:03:11.125Z</time></trkpt><trkpt lat="37.8093633" lon="15.069155"><ele>1482.0</ele><time>2026-04-18T08:03:12.125Z</time></trkpt><trkpt lat="37.8093767" lon="15.0692617"><ele>1480.5</ele><time>2026-04-18T08:03:13.125Z</time></trkpt><trkpt lat="37.8093733" lon="15.0693667"><ele>1479.0</ele><time>2026-04-18T08:03:14.125Z</time></trkpt><trkpt lat="37.8093417" lon="15.069485"><ele>1477.5</ele><time>2026-04-18T08:03:15.125Z</time></trkpt><trkpt lat="37.8093017" lon="15.0696317"><ele>1476.0</ele><time>2026-04-18T08:03:16.125Z</time></trkpt><trkpt lat="37.80922" lon="15.069805"><ele>1468.5</ele><time>2026-04-18T08:03:17.125Z</time></trkpt><trkpt lat="37.8090467" lon="15.0701867"><ele>1461.0</ele><time>2026-04-18T08:03:18.124Z</time></trkpt><trkpt lat="37.8090083" lon="15.070385"><ele>1461.0</ele><time>2026-04-18T08:03:19.124Z</time></trkpt><trkpt lat="37.8089583" lon="15.070645"><ele>1461.0</ele><time>2026-04-18T08:03:20.125Z</time></trkpt><trkpt lat="37.80891" lon="15.0709083"><ele>1461.0</ele><time>2026-04-18T08:03:21.125Z</time></trkpt><trkpt lat="37.8088833" lon="15.071155"><ele>1459.6666666666667</ele><time>2026-04-18T08:03:22.124Z</time></trkpt><trkpt lat="37.8088783" lon="15.0713867"><ele>1458.3333333333335</ele><time>2026-04-18T08:03:23.125Z</time></trkpt><trkpt lat="37.8088717" lon="15.0715983"><ele>1457.0</ele><time>2026-04-18T08:03:24.125Z</time></trkpt><trkpt lat="37.808875" lon="15.0718033"><ele>1455.0</ele><time>2026-04-18T08:03:25.125Z</time></trkpt><trkpt lat="37.8088867" lon="15.0720117"><ele>1453.0</ele><time>2026-04-18T08:03:26.125Z</time></trkpt><trkpt lat="37.80888" lon="15.0721933"><ele>1451.0</ele><time>2026-04-18T08:03:27.125Z</time></trkpt><trkpt lat="37.8088833" lon="15.0723817"><ele>1448.0</ele><time>2026-04-18T08:03:28.125Z</time></trkpt><trkpt lat="37.8088833" lon="15.072565"><ele>1445.0</ele><time>2026-04-18T08:03:29.124Z</time></trkpt><trkpt lat="37.8088617" lon="15.07273"><ele>1442.0</ele><time>2026-04-18T08:03:30.125Z</time></trkpt><trkpt lat="37.8088317" lon="15.0728783"><ele>1439.0</ele><time>2026-04-18T08:03:31.125Z</time></trkpt><trkpt lat="37.8087917" lon="15.0729967"><ele>1439.0</ele><time>2026-04-18T08:03:32.125Z</time></trkpt><trkpt lat="37.8087317" lon="15.0731167"><ele>1439.0</ele><time>2026-04-18T08:03:33.125Z</time></trkpt><trkpt lat="37.8086233" lon="15.0731767"><ele>1439.0</ele><time>2026-04-18T08:03:34.125Z</time></trkpt><trkpt lat="37.808505" lon="15.073225"><ele>1439.0</ele><time>2026-04-18T08:03:35.124Z</time></trkpt><trkpt lat="37.8084083" lon="15.0732567"><ele>1436.8000000000002</ele><time>2026-04-18T08:03:36.125Z</time></trkpt><trkpt lat="37.8083183" lon="15.0733283"><ele>1434.6000000000001</ele><time>2026-04-18T08:03:37.124Z</time></trkpt><trkpt lat="37.808235" lon="15.0733933"><ele>1432.4</ele><time>2026-04-18T08:03:38.125Z</time></trkpt><trkpt lat="37.80818" lon="15.07349"><ele>1430.2</ele><time>2026-04-18T08:03:39.125Z</time></trkpt><trkpt lat="37.8081517" lon="15.0736083"><ele>1428.0</ele><time>2026-04-18T08:03:40.125Z</time></trkpt><trkpt lat="37.808145" lon="15.0737383"><ele>1428.0</ele><time>2026-04-18T08:03:41.125Z</time></trkpt><trkpt lat="37.8081517" lon="15.0738717"><ele>1428.0</ele><time>2026-04-18T08:03:42.124Z</time></trkpt><trkpt lat="37.8081667" lon="15.0740067"><ele>1428.0</ele><time>2026-04-18T08:03:43.125Z</time></trkpt><trkpt lat="37.8081833" lon="15.07414"><ele>1428.0</ele><time>2026-04-18T08:03:44.124Z</time></trkpt><trkpt lat="37.80819" lon="15.0742833"><ele>1428.0</ele><time>2026-04-18T08:03:45.125Z</time></trkpt><trkpt lat="37.8082017" lon="15.074415"><ele>1426.2</ele><time>2026-04-18T08:03:46.125Z</time></trkpt><trkpt lat="37.8082233" lon="15.074545"><ele>1424.4</ele><time>2026-04-18T08:03:47.125Z</time></trkpt><trkpt lat="37.80825" lon="15.0746717"><ele>1422.6000000000001</ele><time>2026-04-18T08:03:48.125Z</time></trkpt><trkpt lat="37.8082733" lon="15.0748"><ele>1420.8000000000002</ele><time>2026-04-18T08:03:49.125Z</time></trkpt><trkpt lat="37.8083" lon="15.0749283"><ele>1419.0</ele><time>2026-04-18T08:03:50.125Z</time></trkpt><trkpt lat="37.8083267" lon="15.075065"><ele>1419.0</ele><time>2026-04-18T08:03:51.125Z</time></trkpt><trkpt lat="37.8083517" lon="15.0752083"><ele>1419.0</ele><time>2026-04-18T08:03:52.125Z</time></trkpt><trkpt lat="37.80838" lon="15.0753467"><ele>1419.0</ele><time>2026-04-18T08:03:53.125Z</time></trkpt><trkpt lat="37.8084033" lon="15.0754817"><ele>1419.0</ele><time>2026-04-18T08:03:54.125Z</time></trkpt><trkpt lat="37.8084317" lon="15.0756217"><ele>1419.0</ele><time>2026-04-18T08:03:55.125Z</time></trkpt><trkpt lat="37.8084567" lon="15.075765"><ele>1419.0</ele><time>2026-04-18T08:03:56.125Z</time></trkpt><trkpt lat="37.8084867" lon="15.07591"><ele>1419.0</ele><time>2026-04-18T08:03:57.125Z</time></trkpt><trkpt lat="37.808505" lon="15.0760533"><ele>1419.0</ele><time>2026-04-18T08:03:58.125Z</time></trkpt><trkpt lat="37.8085033" lon="15.076205"><ele>1419.25</ele><time>2026-04-18T08:03:59.125Z</time></trkpt><trkpt lat="37.808485" lon="15.076355"><ele>1419.5</ele><time>2026-04-18T08:04:00.125Z</time></trkpt><trkpt lat="37.808435" lon="15.07651"><ele>1419.75</ele><time>2026-04-18T08:04:01.125Z</time></trkpt><trkpt lat="37.8083567" lon="15.07666"><ele>1420.0</ele><time>2026-04-18T08:04:02.125Z</time></trkpt><trkpt lat="37.80827" lon="15.0768133"><ele>1418.75</ele><time>2026-04-18T08:04:03.125Z</time></trkpt><trkpt lat="37.8081817" lon="15.0769633"><ele>1417.5</ele><time>2026-04-18T08:04:04.125Z</time></trkpt><trkpt lat="37.808095" lon="15.0771217"><ele>1416.25</ele><time>2026-04-18T08:04:05.125Z</time></trkpt><trkpt lat="37.80802" lon="15.0772817"><ele>1415.0</ele><time>2026-04-18T08:04:06.125Z</time></trkpt><trkpt lat="37.8079333" lon="15.07743"><ele>1413.75</ele><time>2026-04-18T08:04:07.125Z</time></trkpt><trkpt lat="37.8078467" lon="15.0775833"><ele>1412.5</ele><time>2026-04-18T08:04:08.125Z</time></trkpt><trkpt lat="37.8077617" lon="15.0777283"><ele>1411.25</ele><time>2026-04-18T08:04:09.125Z</time></trkpt><trkpt lat="37.807685" lon="15.07787"><ele>1410.0</ele><time>2026-04-18T08:04:10.125Z</time></trkpt><trkpt lat="37.8076117" lon="15.0780083"><ele>1410.0</ele><time>2026-04-18T08:04:11.125Z</time></trkpt><trkpt lat="37.807545" lon="15.0781467"><ele>1410.0</ele><time>2026-04-18T08:04:12.125Z</time></trkpt><trkpt lat="37.8074867" lon="15.07829"><ele>1410.0</ele><time>2026-04-18T08:04:13.124Z</time></trkpt><trkpt lat="37.80745" lon="15.078435"><ele>1410.0</ele><time>2026-04-18T08:04:14.125Z</time></trkpt><trkpt lat="37.8074267" lon="15.07858"><ele>1407.4</ele><time>2026-04-18T08:04:15.125Z</time></trkpt><trkpt lat="37.8074317" lon="15.0787233"><ele>1404.8</ele><time>2026-04-18T08:04:16.125Z</time></trkpt><trkpt lat="37.807455" lon="15.0788533"><ele>1402.1999999999998</ele><time>2026-04-18T08:04:17.125Z</time></trkpt><trkpt lat="37.80748" lon="15.0789783"><ele>1399.6</ele><time>2026-04-18T08:04:18.125Z</time></trkpt><trkpt lat="37.8075" lon="15.0790867"><ele>1397.0</ele><time>2026-04-18T08:04:19.125Z</time></trkpt><trkpt lat="37.8075067" lon="15.0791917"><ele>1396.1666666666667</ele><time>2026-04-18T08:04:20.124Z</time></trkpt><trkpt lat="37.8074883" lon="15.0792817"><ele>1395.3333333333335</ele><time>2026-04-18T08:04:21.125Z</time></trkpt><trkpt lat="37.80745" lon="15.0793517"><ele>1394.5</ele><time>2026-04-18T08:04:22.125Z</time></trkpt><trkpt lat="37.8073883" lon="15.07939"><ele>1393.6666666666667</ele><time>2026-04-18T08:04:23.125Z</time></trkpt><trkpt lat="37.8073033" lon="15.0793967"><ele>1392.8333333333333</ele><time>2026-04-18T08:04:24.125Z</time></trkpt><trkpt lat="37.807225" lon="15.0793433"><ele>1392.0</ele><time>2026-04-18T08:04:25.124Z</time></trkpt><trkpt lat="37.807165" lon="15.0792433"><ele>1393.6666666666667</ele><time>2026-04-18T08:04:26.125Z</time></trkpt><trkpt lat="37.807115" lon="15.0790833"><ele>1395.3333333333335</ele><time>2026-04-18T08:04:27.125Z</time></trkpt><trkpt lat="37.8070833" lon="15.0788883"><ele>1397.0</ele><time>2026-04-18T08:04:28.124Z</time></trkpt><trkpt lat="37.80707" lon="15.0786367"><ele>1397.0</ele><time>2026-04-18T08:04:29.125Z</time></trkpt><trkpt lat="37.8070817" lon="15.0784017"><ele>1397.0</ele><time>2026-04-18T08:04:30.125Z</time></trkpt><trkpt lat="37.8070817" lon="15.07822"><ele>1397.0</ele><time>2026-04-18T08:04:31.125Z</time></trkpt><trkpt lat="37.8070733" lon="15.07807"><ele>1397.0</ele><time>2026-04-18T08:04:32.125Z</time></trkpt><trkpt lat="37.8070483" lon="15.07795"><ele>1396.0</ele><time>2026-04-18T08:04:33.125Z</time></trkpt><trkpt lat="37.8070133" lon="15.07786"><ele>1395.0</ele><time>2026-04-18T08:04:34.125Z</time></trkpt><trkpt lat="37.8069567" lon="15.0777933"><ele>1394.0</ele><time>2026-04-18T08:04:35.125Z</time></trkpt><trkpt lat="37.8068767" lon="15.0777517"><ele>1393.0</ele><time>2026-04-18T08:04:36.125Z</time></trkpt><trkpt lat="37.8068" lon="15.0777317"><ele>1392.0</ele><time>2026-04-18T08:04:37.125Z</time></trkpt><trkpt lat="37.80668" lon="15.0777717"><ele>1391.0</ele><time>2026-04-18T08:04:39.125Z</time></trkpt><trkpt lat="37.8066117" lon="15.07786"><ele>1391.0</ele><time>2026-04-18T08:04:41.125Z</time></trkpt><trkpt lat="37.8066033" lon="15.0779717"><ele>1391.0</ele><time>2026-04-18T08:04:42.124Z</time></trkpt><trkpt lat="37.8065983" lon="15.0781017"><ele>1391.0</ele><time>2026-04-18T08:04:43.125Z</time></trkpt><trkpt lat="37.8065933" lon="15.0782533"><ele>1391.0</ele><time>2026-04-18T08:04:44.125Z</time></trkpt><trkpt lat="37.8066" lon="15.0784133"><ele>1391.0</ele><time>2026-04-18T08:04:45.124Z</time></trkpt><trkpt lat="37.8066183" lon="15.078625"><ele>1389.6666666666667</ele><time>2026-04-18T08:04:46.125Z</time></trkpt><trkpt lat="37.8066483" lon="15.0788717"><ele>1388.3333333333333</ele><time>2026-04-18T08:04:47.125Z</time></trkpt><trkpt lat="37.8067" lon="15.079135"><ele>1387.0</ele><time>2026-04-18T08:04:48.124Z</time></trkpt><trkpt lat="37.8067833" lon="15.07937"><ele>1388.6666666666665</ele><time>2026-04-18T08:04:49.125Z</time></trkpt><trkpt lat="37.806895" lon="15.079585"><ele>1390.3333333333333</ele><time>2026-04-18T08:04:50.124Z</time></trkpt><trkpt lat="37.807005" lon="15.0797317"><ele>1392.0</ele><time>2026-04-18T08:04:51.125Z</time></trkpt><trkpt lat="37.807115" lon="15.0798133"><ele>1392.0</ele><time>2026-04-18T08:04:52.125Z</time></trkpt><trkpt lat="37.8072317" lon="15.079875"><ele>1392.0</ele><time>2026-04-18T08:04:53.125Z</time></trkpt><trkpt lat="37.80736" lon="15.0799267"><ele>1392.0</ele><time>2026-04-18T08:04:54.125Z</time></trkpt><trkpt lat="37.8074933" lon="15.0799717"><ele>1392.0</ele><time>2026-04-18T08:04:55.125Z</time></trkpt><trkpt lat="37.8076233" lon="15.08"><ele>1389.25</ele><time>2026-04-18T08:04:56.125Z</time></trkpt><trkpt lat="37.80775" lon="15.0800067"><ele>1386.5</ele><time>2026-04-18T08:04:57.125Z</time></trkpt><trkpt lat="37.8078817" lon="15.0799967"><ele>1383.75</ele><time>2026-04-18T08:04:58.125Z</time></trkpt><trkpt lat="37.8080017" lon="15.07996"><ele>1381.0</ele><time>2026-04-18T08:04:59.125Z</time></trkpt><trkpt lat="37.808115" lon="15.07991"><ele>1381.0</ele><time>2026-04-18T08:05:00.124Z</time></trkpt><trkpt lat="37.8082267" lon="15.0798633"><ele>1381.0</ele><time>2026-04-18T08:05:01.125Z</time></trkpt><trkpt lat="37.8083433" lon="15.079835"><ele>1381.0</ele><time>2026-04-18T08:05:02.125Z</time></trkpt><trkpt lat="37.8084617" lon="15.0798433"><ele>1381.0</ele><time>2026-04-18T08:05:03.125Z</time></trkpt><trkpt lat="37.8085867" lon="15.0798783"><ele>1379.0</ele><time>2026-04-18T08:05:04.125Z</time></trkpt><trkpt lat="37.8087167" lon="15.0799133"><ele>1377.0</ele><time>2026-04-18T08:05:05.125Z</time></trkpt><trkpt lat="37.8088417" lon="15.079945"><ele>1375.0</ele><time>2026-04-18T08:05:06.125Z</time></trkpt><trkpt lat="37.8089583" lon="15.07997"><ele>1373.0</ele><time>2026-04-18T08:05:07.125Z</time></trkpt><trkpt lat="37.8090833" lon="15.0799583"><ele>1373.0</ele><time>2026-04-18T08:05:08.125Z</time></trkpt><trkpt lat="37.809225" lon="15.0799017"><ele>1373.0</ele><time>2026-04-18T08:05:09.124Z</time></trkpt><trkpt lat="37.8093567" lon="15.0798117"><ele>1373.0</ele><time>2026-04-18T08:05:10.125Z</time></trkpt><trkpt lat="37.809475" lon="15.079725"><ele>1373.0</ele><time>2026-04-18T08:05:11.125Z</time></trkpt><trkpt lat="37.8095883" lon="15.07966"><ele>1369.8000000000002</ele><time>2026-04-18T08:05:12.125Z</time></trkpt><trkpt lat="37.8096867" lon="15.0796183"><ele>1366.6</ele><time>2026-04-18T08:05:13.124Z</time></trkpt><trkpt lat="37.8097933" lon="15.0796"><ele>1363.4</ele><time>2026-04-18T08:05:14.124Z</time></trkpt><trkpt lat="37.8098933" lon="15.0796317"><ele>1360.1999999999998</ele><time>2026-04-18T08:05:15.125Z</time></trkpt><trkpt lat="37.809975" lon="15.0797117"><ele>1357.0</ele><time>2026-04-18T08:05:16.125Z</time></trkpt><trkpt lat="37.8100483" lon="15.0798017"><ele>1357.0</ele><time>2026-04-18T08:05:17.125Z</time></trkpt><trkpt lat="37.81009" lon="15.0799283"><ele>1357.0</ele><time>2026-04-18T08:05:18.125Z</time></trkpt><trkpt lat="37.81008" lon="15.0800767"><ele>1357.0</ele><time>2026-04-18T08:05:19.125Z</time></trkpt><trkpt lat="37.810045" lon="15.0802267"><ele>1357.0</ele><time>2026-04-18T08:05:20.125Z</time></trkpt><trkpt lat="37.8099433" lon="15.0803983"><ele>1355.6666666666665</ele><time>2026-04-18T08:05:21.125Z</time></trkpt><trkpt lat="37.809825" lon="15.080535"><ele>1354.3333333333333</ele><time>2026-04-18T08:05:22.125Z</time></trkpt><trkpt lat="37.8097217" lon="15.0806733"><ele>1353.0</ele><time>2026-04-18T08:05:23.125Z</time></trkpt><trkpt lat="37.8096" lon="15.080835"><ele>1352.75</ele><time>2026-04-18T08:05:24.125Z</time></trkpt><trkpt lat="37.8094933" lon="15.08096"><ele>1352.5</ele><time>2026-04-18T08:05:25.125Z</time></trkpt><trkpt lat="37.8094117" lon="15.08107"><ele>1352.25</ele><time>2026-04-18T08:05:26.125Z</time></trkpt><trkpt lat="37.8093167" lon="15.08116"><ele>1352.0</ele><time>2026-04-18T08:05:27.125Z</time></trkpt><trkpt lat="37.8092167" lon="15.08123"><ele>1352.0</ele><time>2026-04-18T08:05:28.125Z</time></trkpt><trkpt lat="37.80912" lon="15.0812817"><ele>1352.0</ele><time>2026-04-18T08:05:29.125Z</time></trkpt><trkpt lat="37.809035" lon="15.0813433"><ele>1352.0</ele><time>2026-04-18T08:05:30.125Z</time></trkpt><trkpt lat="37.808985" lon="15.0814417"><ele>1352.0</ele><time>2026-04-18T08:05:31.125Z</time></trkpt><trkpt lat="37.8089683" lon="15.08156"><ele>1352.0</ele><time>2026-04-18T08:05:32.124Z</time></trkpt><trkpt lat="37.8089833" lon="15.0816833"><ele>1349.3999999999999</ele><time>2026-04-18T08:05:33.125Z</time></trkpt><trkpt lat="37.80901" lon="15.0817983"><ele>1346.8</ele><time>2026-04-18T08:05:34.125Z</time></trkpt><trkpt lat="37.8090633" lon="15.08187"><ele>1344.2</ele><time>2026-04-18T08:05:35.125Z</time></trkpt><trkpt lat="37.8091467" lon="15.08188"><ele>1341.6</ele><time>2026-04-18T08:05:36.124Z</time></trkpt><trkpt lat="37.80924" lon="15.0818567"><ele>1339.0</ele><time>2026-04-18T08:05:37.125Z</time></trkpt><trkpt lat="37.8093533" lon="15.0818083"><ele>1340.3333333333333</ele><time>2026-04-18T08:05:38.125Z</time></trkpt><trkpt lat="37.809495" lon="15.0817333"><ele>1341.6666666666667</ele><time>2026-04-18T08:05:39.125Z</time></trkpt><trkpt lat="37.8096683" lon="15.0816417"><ele>1343.0</ele><time>2026-04-18T08:05:40.125Z</time></trkpt><trkpt lat="37.8098183" lon="15.0815767"><ele>1343.0</ele><time>2026-04-18T08:05:41.125Z</time></trkpt><trkpt lat="37.8099717" lon="15.0815417"><ele>1343.0</ele><time>2026-04-18T08:05:42.125Z</time></trkpt><trkpt lat="37.8101183" lon="15.0815033"><ele>1343.0</ele><time>2026-04-18T08:05:43.125Z</time></trkpt><trkpt lat="37.810255" lon="15.0814717"><ele>1343.0</ele><time>2026-04-18T08:05:44.125Z</time></trkpt><trkpt lat="37.8103917" lon="15.081405"><ele>1339.75</ele><time>2026-04-18T08:05:45.125Z</time></trkpt><trkpt lat="37.8105" lon="15.08133"><ele>1336.5</ele><time>2026-04-18T08:05:46.124Z</time></trkpt><trkpt lat="37.8106167" lon="15.0812333"><ele>1333.25</ele><time>2026-04-18T08:05:47.125Z</time></trkpt><trkpt lat="37.81072" lon="15.0811"><ele>1330.0</ele><time>2026-04-18T08:05:48.125Z</time></trkpt><trkpt lat="37.81082" lon="15.0809683"><ele>1330.0</ele><time>2026-04-18T08:05:49.125Z</time></trkpt><trkpt lat="37.8108833" lon="15.08082"><ele>1330.0</ele><time>2026-04-18T08:05:50.125Z</time></trkpt><trkpt lat="37.810965" lon="15.0807067"><ele>1330.0</ele><time>2026-04-18T08:05:51.125Z</time></trkpt><trkpt lat="37.811045" lon="15.0806083"><ele>1330.0</ele><time>2026-04-18T08:05:52.125Z</time></trkpt><trkpt lat="37.8111317" lon="15.0805333"><ele>1328.8</ele><time>2026-04-18T08:05:53.125Z</time></trkpt><trkpt lat="37.8112233" lon="15.08049"><ele>1327.6</ele><time>2026-04-18T08:05:54.125Z</time></trkpt><trkpt lat="37.8113183" lon="15.08045"><ele>1326.4</ele><time>2026-04-18T08:05:55.125Z</time></trkpt><trkpt lat="37.8114217" lon="15.0804617"><ele>1325.2</ele><time>2026-04-18T08:05:56.125Z</time></trkpt><trkpt lat="37.8115317" lon="15.0805233"><ele>1324.0</ele><time>2026-04-18T08:05:57.125Z</time></trkpt><trkpt lat="37.8116367" lon="15.0806"><ele>1324.0</ele><time>2026-04-18T08:05:58.125Z</time></trkpt><trkpt lat="37.8117183" lon="15.0806983"><ele>1324.0</ele><time>2026-04-18T08:05:59.125Z</time></trkpt><trkpt lat="37.8117733" lon="15.080815"><ele>1324.0</ele><time>2026-04-18T08:06:00.125Z</time></trkpt><trkpt lat="37.8117933" lon="15.0809533"><ele>1324.0</ele><time>2026-04-18T08:06:01.124Z</time></trkpt><trkpt lat="37.8117967" lon="15.0811033"><ele>1320.75</ele><time>2026-04-18T08:06:02.125Z</time></trkpt><trkpt lat="37.8117767" lon="15.08125"><ele>1317.5</ele><time>2026-04-18T08:06:03.125Z</time></trkpt><trkpt lat="37.811715" lon="15.081385"><ele>1314.25</ele><time>2026-04-18T08:06:04.125Z</time></trkpt><trkpt lat="37.811625" lon="15.0815083"><ele>1311.0</ele><time>2026-04-18T08:06:05.125Z</time></trkpt><trkpt lat="37.811505" lon="15.0815917"><ele>1309.75</ele><time>2026-04-18T08:06:06.125Z</time></trkpt><trkpt lat="37.8113817" lon="15.0816717"><ele>1308.5</ele><time>2026-04-18T08:06:07.125Z</time></trkpt><trkpt lat="37.811265" lon="15.0817467"><ele>1307.25</ele><time>2026-04-18T08:06:08.125Z</time></trkpt><trkpt lat="37.811145" lon="15.08185"><ele>1306.0</ele><time>2026-04-18T08:06:09.125Z</time></trkpt><trkpt lat="37.8110383" lon="15.0819667"><ele>1306.75</ele><time>2026-04-18T08:06:10.125Z</time></trkpt><trkpt lat="37.810935" lon="15.08209"><ele>1307.5</ele><time>2026-04-18T08:06:11.125Z</time></trkpt><trkpt lat="37.8108367" lon="15.08221"><ele>1308.25</ele><time>2026-04-18T08:06:12.125Z</time></trkpt><trkpt lat="37.81075" lon="15.0823333"><ele>1309.0</ele><time>2026-04-18T08:06:13.125Z</time></trkpt><trkpt lat="37.81067" lon="15.0824583"><ele>1309.0</ele><time>2026-04-18T08:06:14.125Z</time></trkpt><trkpt lat="37.8106283" lon="15.0826133"><ele>1309.0</ele><time>2026-04-18T08:06:15.125Z</time></trkpt><trkpt lat="37.8105883" lon="15.0827767"><ele>1309.0</ele><time>2026-04-18T08:06:16.125Z</time></trkpt><trkpt lat="37.810565" lon="15.082935"><ele>1309.0</ele><time>2026-04-18T08:06:17.125Z</time></trkpt><trkpt lat="37.8105383" lon="15.0830783"><ele>1309.0</ele><time>2026-04-18T08:06:18.124Z</time></trkpt><trkpt lat="37.810475" lon="15.083215"><ele>1309.0</ele><time>2026-04-18T08:06:19.125Z</time></trkpt><trkpt lat="37.8103733" lon="15.0833083"><ele>1309.0</ele><time>2026-04-18T08:06:20.125Z</time></trkpt><trkpt lat="37.8102633" lon="15.0834183"><ele>1309.0</ele><time>2026-04-18T08:06:21.125Z</time></trkpt><trkpt lat="37.8101617" lon="15.0835333"><ele>1307.75</ele><time>2026-04-18T08:06:22.125Z</time></trkpt><trkpt lat="37.8100483" lon="15.083635"><ele>1306.5</ele><time>2026-04-18T08:06:23.124Z</time></trkpt><trkpt lat="37.8099317" lon="15.0837267"><ele>1305.25</ele><time>2026-04-18T08:06:24.125Z</time></trkpt><trkpt lat="37.8097967" lon="15.0837967"><ele>1304.0</ele><time>2026-04-18T08:06:25.125Z</time></trkpt><trkpt lat="37.8096567" lon="15.083855"><ele>1304.0</ele><time>2026-04-18T08:06:26.125Z</time></trkpt><trkpt lat="37.8095033" lon="15.0839083"><ele>1304.0</ele><time>2026-04-18T08:06:27.125Z</time></trkpt><trkpt lat="37.8093533" lon="15.0839583"><ele>1304.0</ele><time>2026-04-18T08:06:28.125Z</time></trkpt><trkpt lat="37.80921" lon="15.0840117"><ele>1305.25</ele><time>2026-04-18T08:06:29.125Z</time></trkpt><trkpt lat="37.8090767" lon="15.0840383"><ele>1306.5</ele><time>2026-04-18T08:06:30.125Z</time></trkpt><trkpt lat="37.80895" lon="15.0840633"><ele>1307.75</ele><time>2026-04-18T08:06:31.125Z</time></trkpt><trkpt lat="37.8088283" lon="15.0840683"><ele>1309.0</ele><time>2026-04-18T08:06:32.125Z</time></trkpt><trkpt lat="37.8087267" lon="15.0840733"><ele>1304.0</ele><time>2026-04-18T08:06:33.125Z</time></trkpt><trkpt lat="37.8086367" lon="15.084105"><ele>1299.0</ele><time>2026-04-18T08:06:34.125Z</time></trkpt><trkpt lat="37.8085667" lon="15.08418"><ele>1294.0</ele><time>2026-04-18T08:06:35.125Z</time></trkpt><trkpt lat="37.80855" lon="15.0842833"><ele>1289.0</ele><time>2026-04-18T08:06:36.125Z</time></trkpt><trkpt lat="37.80855" lon="15.0844133"><ele>1284.0</ele><time>2026-04-18T08:06:37.124Z</time></trkpt><trkpt lat="37.80858" lon="15.0845283"><ele>1284.0</ele><time>2026-04-18T08:06:38.125Z</time></trkpt><trkpt lat="37.8086367" lon="15.0846217"><ele>1284.0</ele><time>2026-04-18T08:06:39.125Z</time></trkpt><trkpt lat="37.8087333" lon="15.08469"><ele>1284.0</ele><time>2026-04-18T08:06:40.125Z</time></trkpt><trkpt lat="37.80883" lon="15.084695"><ele>1284.0</ele><time>2026-04-18T08:06:41.125Z</time></trkpt><trkpt lat="37.80895" lon="15.08466"><ele>1284.0</ele><time>2026-04-18T08:06:42.125Z</time></trkpt><trkpt lat="37.8090833" lon="15.0846233"><ele>1284.0</ele><time>2026-04-18T08:06:43.125Z</time></trkpt><trkpt lat="37.80924" lon="15.0845933"><ele>1284.0</ele><time>2026-04-18T08:06:44.125Z</time></trkpt><trkpt lat="37.8093883" lon="15.0845783"><ele>1284.0</ele><time>2026-04-18T08:06:45.125Z</time></trkpt><trkpt lat="37.8095417" lon="15.084575"><ele>1283.0</ele><time>2026-04-18T08:06:46.124Z</time></trkpt><trkpt lat="37.8096933" lon="15.0845733"><ele>1282.0</ele><time>2026-04-18T08:06:47.125Z</time></trkpt><trkpt lat="37.80984" lon="15.0845783"><ele>1281.0</ele><time>2026-04-18T08:06:48.125Z</time></trkpt><trkpt lat="37.80998" lon="15.08461"><ele>1280.0</ele><time>2026-04-18T08:06:49.125Z</time></trkpt><trkpt lat="37.81012" lon="15.0846817"><ele>1279.5</ele><time>2026-04-18T08:06:50.125Z</time></trkpt><trkpt lat="37.8102417" lon="15.08479"><ele>1279.0</ele><time>2026-04-18T08:06:51.125Z</time></trkpt><trkpt lat="37.810345" lon="15.0849067"><ele>1278.5</ele><time>2026-04-18T08:06:52.125Z</time></trkpt><trkpt lat="37.8104267" lon="15.08505"><ele>1278.0</ele><time>2026-04-18T08:06:53.125Z</time></trkpt><trkpt lat="37.810475" lon="15.0851983"><ele>1275.75</ele><time>2026-04-18T08:06:54.125Z</time></trkpt><trkpt lat="37.8105" lon="15.0853483"><ele>1273.5</ele><time>2026-04-18T08:06:55.125Z</time></trkpt><trkpt lat="37.8104917" lon="15.0855"><ele>1271.25</ele><time>2026-04-18T08:06:56.125Z</time></trkpt><trkpt lat="37.8104333" lon="15.0856617"><ele>1269.0</ele><time>2026-04-18T08:06:57.125Z</time></trkpt><trkpt lat="37.8103483" lon="15.0858067"><ele>1268.0</ele><time>2026-04-18T08:06:58.125Z</time></trkpt><trkpt lat="37.81026" lon="15.0859483"><ele>1267.0</ele><time>2026-04-18T08:06:59.125Z</time></trkpt><trkpt lat="37.81014" lon="15.0860783"><ele>1266.0</ele><time>2026-04-18T08:07:00.125Z</time></trkpt><trkpt lat="37.8100167" lon="15.0862167"><ele>1265.6666666666667</ele><time>2026-04-18T08:07:01.125Z</time></trkpt><trkpt lat="37.8098767" lon="15.0863617"><ele>1265.3333333333335</ele><time>2026-04-18T08:07:02.125Z</time></trkpt><trkpt lat="37.8097417" lon="15.0865017"><ele>1265.0</ele><time>2026-04-18T08:07:03.125Z</time></trkpt><trkpt lat="37.8096067" lon="15.0866333"><ele>1264.6666666666667</ele><time>2026-04-18T08:07:04.125Z</time></trkpt><trkpt lat="37.80948" lon="15.086765"><ele>1264.3333333333333</ele><time>2026-04-18T08:07:05.125Z</time></trkpt><trkpt lat="37.8093517" lon="15.086895"><ele>1264.0</ele><time>2026-04-18T08:07:06.125Z</time></trkpt><trkpt lat="37.8092317" lon="15.087035"><ele>1262.6666666666665</ele><time>2026-04-18T08:07:07.125Z</time></trkpt><trkpt lat="37.809115" lon="15.0871667"><ele>1261.3333333333333</ele><time>2026-04-18T08:07:08.125Z</time></trkpt><trkpt lat="37.8090017" lon="15.0872867"><ele>1260.0</ele><time>2026-04-18T08:07:09.125Z</time></trkpt><trkpt lat="37.808885" lon="15.0873983"><ele>1258.5</ele><time>2026-04-18T08:07:10.125Z</time></trkpt><trkpt lat="37.8087683" lon="15.0874917"><ele>1257.0</ele><time>2026-04-18T08:07:11.125Z</time></trkpt><trkpt lat="37.8086517" lon="15.0875533"><ele>1255.5</ele><time>2026-04-18T08:07:12.125Z</time></trkpt><trkpt lat="37.8085317" lon="15.08762"><ele>1254.0</ele><time>2026-04-18T08:07:13.125Z</time></trkpt><trkpt lat="37.80843" lon="15.0876933"><ele>1254.0</ele><time>2026-04-18T08:07:14.125Z</time></trkpt><trkpt lat="37.8083483" lon="15.087795"><ele>1254.0</ele><time>2026-04-18T08:07:15.124Z</time></trkpt><trkpt lat="37.808285" lon="15.0879233"><ele>1254.0</ele><time>2026-04-18T08:07:16.125Z</time></trkpt><trkpt lat="37.8082417" lon="15.0880933"><ele>1254.0</ele><time>2026-04-18T08:07:17.125Z</time></trkpt><trkpt lat="37.8082633" lon="15.08827"><ele>1252.75</ele><time>2026-04-18T08:07:18.125Z</time></trkpt><trkpt lat="37.8082933" lon="15.0884333"><ele>1251.5</ele><time>2026-04-18T08:07:19.125Z</time></trkpt><trkpt lat="37.80835" lon="15.0885733"><ele>1250.25</ele><time>2026-04-18T08:07:20.124Z</time></trkpt><trkpt lat="37.8084417" lon="15.088705"><ele>1249.0</ele><time>2026-04-18T08:07:21.125Z</time></trkpt><trkpt lat="37.808555" lon="15.0888233"><ele>1249.0</ele><time>2026-04-18T08:07:22.125Z</time></trkpt><trkpt lat="37.8086817" lon="15.088935"><ele>1249.0</ele><time>2026-04-18T08:07:23.125Z</time></trkpt><trkpt lat="37.8088183" lon="15.0890417"><ele>1249.0</ele><time>2026-04-18T08:07:24.125Z</time></trkpt><trkpt lat="37.8089467" lon="15.089145"><ele>1245.0</ele><time>2026-04-18T08:07:25.125Z</time></trkpt><trkpt lat="37.8090717" lon="15.0892383"><ele>1241.0</ele><time>2026-04-18T08:07:26.124Z</time></trkpt><trkpt lat="37.8091833" lon="15.0893267"><ele>1237.0</ele><time>2026-04-18T08:07:27.125Z</time></trkpt><trkpt lat="37.8093067" lon="15.089395"><ele>1233.0</ele><time>2026-04-18T08:07:28.125Z</time></trkpt><trkpt lat="37.8094383" lon="15.0894367"><ele>1232.3333333333333</ele><time>2026-04-18T08:07:29.125Z</time></trkpt><trkpt lat="37.8095883" lon="15.0894683"><ele>1231.6666666666665</ele><time>2026-04-18T08:07:30.125Z</time></trkpt><trkpt lat="37.8097433" lon="15.0894833"><ele>1231.0</ele><time>2026-04-18T08:07:31.125Z</time></trkpt><trkpt lat="37.8099017" lon="15.0894967"><ele>1231.0</ele><time>2026-04-18T08:07:32.125Z</time></trkpt><trkpt lat="37.8100533" lon="15.08951"><ele>1231.0</ele><time>2026-04-18T08:07:33.125Z</time></trkpt><trkpt lat="37.8101967" lon="15.089525"><ele>1231.0</ele><time>2026-04-18T08:07:34.125Z</time></trkpt><trkpt lat="37.81033" lon="15.0895783"><ele>1231.0</ele><time>2026-04-18T08:07:35.125Z</time></trkpt><trkpt lat="37.810465" lon="15.0896717"><ele>1229.75</ele><time>2026-04-18T08:07:36.125Z</time></trkpt><trkpt lat="37.81059" lon="15.0897933"><ele>1228.5</ele><time>2026-04-18T08:07:37.125Z</time></trkpt><trkpt lat="37.8106933" lon="15.08993"><ele>1227.25</ele><time>2026-04-18T08:07:38.125Z</time></trkpt><trkpt lat="37.8107917" lon="15.0900517"><ele>1226.0</ele><time>2026-04-18T08:07:39.125Z</time></trkpt><trkpt lat="37.8109067" lon="15.0901433"><ele>1220.5</ele><time>2026-04-18T08:07:40.125Z</time></trkpt><trkpt lat="37.81103" lon="15.0901867"><ele>1215.0</ele><time>2026-04-18T08:07:41.124Z</time></trkpt><trkpt lat="37.811155" lon="15.0902033"><ele>1209.5</ele><time>2026-04-18T08:07:42.125Z</time></trkpt><trkpt lat="37.8112667" lon="15.0901883"><ele>1204.0</ele><time>2026-04-18T08:07:43.125Z</time></trkpt><trkpt lat="37.8113783" lon="15.0901483"><ele>1204.0</ele><time>2026-04-18T08:07:44.125Z</time></trkpt><trkpt lat="37.8114733" lon="15.0900767"><ele>1204.0</ele><time>2026-04-18T08:07:45.125Z</time></trkpt><trkpt lat="37.8115667" lon="15.089995"><ele>1204.0</ele><time>2026-04-18T08:07:46.124Z</time></trkpt><trkpt lat="37.8116517" lon="15.0899117"><ele>1204.0</ele><time>2026-04-18T08:07:47.125Z</time></trkpt><trkpt lat="37.8117283" lon="15.0898467"><ele>1204.0</ele><time>2026-04-18T08:07:48.125Z</time></trkpt><trkpt lat="37.8118033" lon="15.0898033"><ele>1203.2</ele><time>2026-04-18T08:07:49.125Z</time></trkpt><trkpt lat="37.8118917" lon="15.0897817"><ele>1202.4</ele><time>2026-04-18T08:07:50.125Z</time></trkpt><trkpt lat="37.8119783" lon="15.0897933"><ele>1201.6</ele><time>2026-04-18T08:07:51.124Z</time></trkpt><trkpt lat="37.81207" lon="15.0898333"><ele>1200.8</ele><time>2026-04-18T08:07:52.125Z</time></trkpt><trkpt lat="37.8121633" lon="15.0898883"><ele>1200.0</ele><time>2026-04-18T08:07:53.125Z</time></trkpt><trkpt lat="37.8122383" lon="15.0899633"><ele>1200.0</ele><time>2026-04-18T08:07:54.125Z</time></trkpt><trkpt lat="37.8122883" lon="15.0900633"><ele>1200.0</ele><time>2026-04-18T08:07:55.125Z</time></trkpt><trkpt lat="37.812295" lon="15.090185"><ele>1200.0</ele><time>2026-04-18T08:07:56.125Z</time></trkpt><trkpt lat="37.812255" lon="15.0903117"><ele>1200.0</ele><time>2026-04-18T08:07:57.125Z</time></trkpt><trkpt lat="37.81197" lon="15.0906383"><ele>1198.0</ele><time>2026-04-18T08:07:58.125Z</time></trkpt><trkpt lat="37.811825" lon="15.0908067"><ele>1196.0</ele><time>2026-04-18T08:07:59.125Z</time></trkpt><trkpt lat="37.8117083" lon="15.0909483"><ele>1194.0</ele><time>2026-04-18T08:08:00.125Z</time></trkpt><trkpt lat="37.8115883" lon="15.0910633"><ele>1194.0</ele><time>2026-04-18T08:08:01.125Z</time></trkpt><trkpt lat="37.811455" lon="15.091155"><ele>1194.0</ele><time>2026-04-18T08:08:02.125Z</time></trkpt><trkpt lat="37.81133" lon="15.0912167"><ele>1194.0</ele><time>2026-04-18T08:08:03.125Z</time></trkpt><trkpt lat="37.8112067" lon="15.0912733"><ele>1194.0</ele><time>2026-04-18T08:08:04.125Z</time></trkpt><trkpt lat="37.8110983" lon="15.0913467"><ele>1194.0</ele><time>2026-04-18T08:08:05.125Z</time></trkpt><trkpt lat="37.8110067" lon="15.0914433"><ele>1194.0</ele><time>2026-04-18T08:08:06.125Z</time></trkpt><trkpt lat="37.8109333" lon="15.09158"><ele>1194.0</ele><time>2026-04-18T08:08:07.125Z</time></trkpt><trkpt lat="37.8108867" lon="15.0917317"><ele>1194.0</ele><time>2026-04-18T08:08:08.124Z</time></trkpt><trkpt lat="37.810865" lon="15.0918883"><ele>1192.0</ele><time>2026-04-18T08:08:09.125Z</time></trkpt><trkpt lat="37.8108817" lon="15.0920467"><ele>1190.0</ele><time>2026-04-18T08:08:10.125Z</time></trkpt><trkpt lat="37.81094" lon="15.0921867"><ele>1188.0</ele><time>2026-04-18T08:08:11.125Z</time></trkpt><trkpt lat="37.8110367" lon="15.0922833"><ele>1186.0</ele><time>2026-04-18T08:08:12.125Z</time></trkpt><trkpt lat="37.811155" lon="15.09234"><ele>1185.75</ele><time>2026-04-18T08:08:13.125Z</time></trkpt><trkpt lat="37.81128" lon="15.09234"><ele>1185.5</ele><time>2026-04-18T08:08:14.125Z</time></trkpt><trkpt lat="37.8113967" lon="15.0923183"><ele>1185.25</ele><time>2026-04-18T08:08:15.125Z</time></trkpt><trkpt lat="37.8115183" lon="15.0923033"><ele>1185.0</ele><time>2026-04-18T08:08:16.125Z</time></trkpt><trkpt lat="37.8116283" lon="15.0923083"><ele>1185.0</ele><time>2026-04-18T08:08:17.125Z</time></trkpt><trkpt lat="37.8117383" lon="15.0923583"><ele>1185.0</ele><time>2026-04-18T08:08:18.125Z</time></trkpt><trkpt lat="37.811845" lon="15.092445"><ele>1185.0</ele><time>2026-04-18T08:08:19.125Z</time></trkpt><trkpt lat="37.8119483" lon="15.0925417"><ele>1185.0</ele><time>2026-04-18T08:08:20.124Z</time></trkpt><trkpt lat="37.812045" lon="15.09265"><ele>1181.75</ele><time>2026-04-18T08:08:21.125Z</time></trkpt><trkpt lat="37.8121267" lon="15.0927617"><ele>1178.5</ele><time>2026-04-18T08:08:22.125Z</time></trkpt><trkpt lat="37.812215" lon="15.0928683"><ele>1175.25</ele><time>2026-04-18T08:08:23.125Z</time></trkpt><trkpt lat="37.8123033" lon="15.0929617"><ele>1172.0</ele><time>2026-04-18T08:08:24.125Z</time></trkpt><trkpt lat="37.8123933" lon="15.0930433"><ele>1172.0</ele><time>2026-04-18T08:08:25.125Z</time></trkpt><trkpt lat="37.812495" lon="15.0931067"><ele>1172.0</ele><time>2026-04-18T08:08:26.125Z</time></trkpt><trkpt lat="37.8126117" lon="15.0931383"><ele>1172.0</ele><time>2026-04-18T08:08:27.125Z</time></trkpt><trkpt lat="37.8127417" lon="15.0931333"><ele>1172.0</ele><time>2026-04-18T08:08:28.125Z</time></trkpt><trkpt lat="37.81287" lon="15.093125"><ele>1169.25</ele><time>2026-04-18T08:08:29.125Z</time></trkpt><trkpt lat="37.8129867" lon="15.0931117"><ele>1166.5</ele><time>2026-04-18T08:08:30.125Z</time></trkpt><trkpt lat="37.8131033" lon="15.093105"><ele>1163.75</ele><time>2026-04-18T08:08:31.125Z</time></trkpt><trkpt lat="37.8132233" lon="15.0930933"><ele>1161.0</ele><time>2026-04-18T08:08:32.125Z</time></trkpt><trkpt lat="37.8133467" lon="15.093045"><ele>1161.0</ele><time>2026-04-18T08:08:33.125Z</time></trkpt><trkpt lat="37.81345" lon="15.09297"><ele>1161.0</ele><time>2026-04-18T08:08:34.125Z</time></trkpt><trkpt lat="37.8135183" lon="15.09287"><ele>1161.0</ele><time>2026-04-18T08:08:35.125Z</time></trkpt><trkpt lat="37.8135667" lon="15.0927683"><ele>1161.0</ele><time>2026-04-18T08:08:36.125Z</time></trkpt><trkpt lat="37.813615" lon="15.0926667"><ele>1161.0</ele><time>2026-04-18T08:08:37.125Z</time></trkpt><trkpt lat="37.8136717" lon="15.0926033"><ele>1157.2</ele><time>2026-04-18T08:08:38.125Z</time></trkpt><trkpt lat="37.81374" lon="15.09258"><ele>1153.3999999999999</ele><time>2026-04-18T08:08:39.125Z</time></trkpt><trkpt lat="37.813815" lon="15.09268"><ele>1149.6</ele><time>2026-04-18T08:08:41.125Z</time></trkpt><trkpt lat="37.81381" lon="15.0927717"><ele>1145.8</ele><time>2026-04-18T08:08:42.125Z</time></trkpt><trkpt lat="37.8137583" lon="15.0928733"><ele>1142.0</ele><time>2026-04-18T08:08:43.125Z</time></trkpt><trkpt lat="37.8136767" lon="15.0930133"><ele>1142.0</ele><time>2026-04-18T08:08:44.125Z</time></trkpt><trkpt lat="37.813585" lon="15.0931633"><ele>1142.0</ele><time>2026-04-18T08:08:45.125Z</time></trkpt><trkpt lat="37.8134917" lon="15.0933217"><ele>1142.0</ele><time>2026-04-18T08:08:46.125Z</time></trkpt><trkpt lat="37.8133783" lon="15.0934667"><ele>1143.3333333333335</ele><time>2026-04-18T08:08:47.125Z</time></trkpt><trkpt lat="37.8132633" lon="15.0936067"><ele>1144.6666666666667</ele><time>2026-04-18T08:08:48.125Z</time></trkpt><trkpt lat="37.8131383" lon="15.0937533"><ele>1146.0</ele><time>2026-04-18T08:08:49.125Z</time></trkpt><trkpt lat="37.81301" lon="15.0938883"><ele>1146.0</ele><time>2026-04-18T08:08:50.125Z</time></trkpt><trkpt lat="37.812895" lon="15.0940183"><ele>1146.0</ele><time>2026-04-18T08:08:51.125Z</time></trkpt><trkpt lat="37.812775" lon="15.0941567"><ele>1146.0</ele><time>2026-04-18T08:08:52.125Z</time></trkpt><trkpt lat="37.812655" lon="15.09429"><ele>1144.5</ele><time>2026-04-18T08:08:53.125Z</time></trkpt><trkpt lat="37.81254" lon="15.0944217"><ele>1143.0</ele><time>2026-04-18T08:08:54.125Z</time></trkpt><trkpt lat="37.8124317" lon="15.09454"><ele>1141.5</ele><time>2026-04-18T08:08:55.125Z</time></trkpt><trkpt lat="37.8123333" lon="15.0946417"><ele>1140.0</ele><time>2026-04-18T08:08:56.125Z</time></trkpt><trkpt lat="37.8122167" lon="15.0947267"><ele>1140.0</ele><time>2026-04-18T08:08:57.125Z</time></trkpt><trkpt lat="37.8120983" lon="15.0947733"><ele>1140.0</ele><time>2026-04-18T08:08:58.125Z</time></trkpt><trkpt lat="37.8119667" lon="15.0947867"><ele>1140.0</ele><time>2026-04-18T08:08:59.125Z</time></trkpt><trkpt lat="37.8118383" lon="15.0947533"><ele>1140.0</ele><time>2026-04-18T08:09:00.125Z</time></trkpt><trkpt lat="37.8117133" lon="15.09473"><ele>1140.2</ele><time>2026-04-18T08:09:01.125Z</time></trkpt><trkpt lat="37.8116017" lon="15.0947617"><ele>1140.4</ele><time>2026-04-18T08:09:02.124Z</time></trkpt><trkpt lat="37.8115067" lon="15.0948283"><ele>1140.6</ele><time>2026-04-18T08:09:03.124Z</time></trkpt><trkpt lat="37.811435" lon="15.09493"><ele>1140.8</ele><time>2026-04-18T08:09:04.125Z</time></trkpt><trkpt lat="37.8113783" lon="15.0950583"><ele>1141.0</ele><time>2026-04-18T08:09:05.125Z</time></trkpt><trkpt lat="37.811365" lon="15.0952017"><ele>1138.0</ele><time>2026-04-18T08:09:06.125Z</time></trkpt><trkpt lat="37.8113817" lon="15.0953467"><ele>1135.0</ele><time>2026-04-18T08:09:07.125Z</time></trkpt><trkpt lat="37.8114267" lon="15.0954633"><ele>1132.0</ele><time>2026-04-18T08:09:08.125Z</time></trkpt><trkpt lat="37.8115083" lon="15.0955633"><ele>1129.0</ele><time>2026-04-18T08:09:09.125Z</time></trkpt><trkpt lat="37.8116033" lon="15.0956267"><ele>1126.0</ele><time>2026-04-18T08:09:10.125Z</time></trkpt><trkpt lat="37.81171" lon="15.0956567"><ele>1125.75</ele><time>2026-04-18T08:09:11.125Z</time></trkpt><trkpt lat="37.8118333" lon="15.095645"><ele>1125.5</ele><time>2026-04-18T08:09:12.125Z</time></trkpt><trkpt lat="37.81195" lon="15.0955983"><ele>1125.25</ele><time>2026-04-18T08:09:13.125Z</time></trkpt><trkpt lat="37.8120767" lon="15.0955483"><ele>1125.0</ele><time>2026-04-18T08:09:14.125Z</time></trkpt><trkpt lat="37.8122083" lon="15.0955167"><ele>1125.0</ele><time>2026-04-18T08:09:15.125Z</time></trkpt><trkpt lat="37.8123533" lon="15.095505"><ele>1125.0</ele><time>2026-04-18T08:09:16.125Z</time></trkpt><trkpt lat="37.812495" lon="15.0955233"><ele>1125.0</ele><time>2026-04-18T08:09:17.125Z</time></trkpt><trkpt lat="37.812625" lon="15.0955683"><ele>1125.0</ele><time>2026-04-18T08:09:18.125Z</time></trkpt><trkpt lat="37.8127517" lon="15.09562"><ele>1122.25</ele><time>2026-04-18T08:09:19.125Z</time></trkpt><trkpt lat="37.8128733" lon="15.0956517"><ele>1119.5</ele><time>2026-04-18T08:09:20.125Z</time></trkpt><trkpt lat="37.8129983" lon="15.0956433"><ele>1116.75</ele><time>2026-04-18T08:09:21.125Z</time></trkpt><trkpt lat="37.8131233" lon="15.0955983"><ele>1114.0</ele><time>2026-04-18T08:09:22.125Z</time></trkpt><trkpt lat="37.81324" lon="15.095505"><ele>1114.0</ele><time>2026-04-18T08:09:23.125Z</time></trkpt><trkpt lat="37.8133417" lon="15.0954033"><ele>1114.0</ele><time>2026-04-18T08:09:24.125Z</time></trkpt><trkpt lat="37.8134417" lon="15.0953183"><ele>1114.0</ele><time>2026-04-18T08:09:25.125Z</time></trkpt><trkpt lat="37.8135533" lon="15.09525"><ele>1114.0</ele><time>2026-04-18T08:09:26.125Z</time></trkpt><trkpt lat="37.8136683" lon="15.095215"><ele>1111.75</ele><time>2026-04-18T08:09:27.125Z</time></trkpt><trkpt lat="37.81379" lon="15.0952367"><ele>1109.5</ele><time>2026-04-18T08:09:28.125Z</time></trkpt><trkpt lat="37.8139133" lon="15.095275"><ele>1107.25</ele><time>2026-04-18T08:09:29.125Z</time></trkpt><trkpt lat="37.8140467" lon="15.095305"><ele>1105.0</ele><time>2026-04-18T08:09:30.125Z</time></trkpt><trkpt lat="37.8141783" lon="15.095305"><ele>1105.0</ele><time>2026-04-18T08:09:31.125Z</time></trkpt><trkpt lat="37.81432" lon="15.095295"><ele>1105.0</ele><time>2026-04-18T08:09:32.125Z</time></trkpt><trkpt lat="37.81447" lon="15.0952667"><ele>1105.0</ele><time>2026-04-18T08:09:33.125Z</time></trkpt><trkpt lat="37.8146117" lon="15.0952183"><ele>1105.0</ele><time>2026-04-18T08:09:34.125Z</time></trkpt><trkpt lat="37.8147367" lon="15.0951483"><ele>1101.0</ele><time>2026-04-18T08:09:35.125Z</time></trkpt><trkpt lat="37.814845" lon="15.0950683"><ele>1097.0</ele><time>2026-04-18T08:09:36.125Z</time></trkpt><trkpt lat="37.8149517" lon="15.0950017"><ele>1093.0</ele><time>2026-04-18T08:09:37.124Z</time></trkpt><trkpt lat="37.81507" lon="15.094975"><ele>1089.0</ele><time>2026-04-18T08:09:38.125Z</time></trkpt><trkpt lat="37.81519" lon="15.09499"><ele>1086.25</ele><time>2026-04-18T08:09:39.125Z</time></trkpt><trkpt lat="37.8152967" lon="15.09505"><ele>1083.5</ele><time>2026-04-18T08:09:40.124Z</time></trkpt><trkpt lat="37.8154033" lon="15.0951083"><ele>1080.75</ele><time>2026-04-18T08:09:41.125Z</time></trkpt><trkpt lat="37.8155233" lon="15.0951183"><ele>1078.0</ele><time>2026-04-18T08:09:42.124Z</time></trkpt><trkpt lat="37.8156533" lon="15.095085"><ele>1078.0</ele><time>2026-04-18T08:09:43.125Z</time></trkpt><trkpt lat="37.81577" lon="15.0950067"><ele>1078.0</ele><time>2026-04-18T08:09:44.125Z</time></trkpt><trkpt lat="37.8158867" lon="15.0949033"><ele>1078.0</ele><time>2026-04-18T08:09:45.125Z</time></trkpt><trkpt lat="37.8159917" lon="15.0947783"><ele>1078.0</ele><time>2026-04-18T08:09:46.125Z</time></trkpt><trkpt lat="37.81609" lon="15.0946483"><ele>1078.75</ele><time>2026-04-18T08:09:47.125Z</time></trkpt><trkpt lat="37.816185" lon="15.094535"><ele>1079.5</ele><time>2026-04-18T08:09:48.125Z</time></trkpt><trkpt lat="37.8162867" lon="15.09444"><ele>1080.25</ele><time>2026-04-18T08:09:49.125Z</time></trkpt><trkpt lat="37.816395" lon="15.0943767"><ele>1081.0</ele><time>2026-04-18T08:09:50.125Z</time></trkpt><trkpt lat="37.8164983" lon="15.0943667"><ele>1081.0</ele><time>2026-04-18T08:09:51.125Z</time></trkpt><trkpt lat="37.8166017" lon="15.094405"><ele>1081.0</ele><time>2026-04-18T08:09:52.124Z</time></trkpt><trkpt lat="37.816695" lon="15.09448"><ele>1081.0</ele><time>2026-04-18T08:09:53.125Z</time></trkpt><trkpt lat="37.8167683" lon="15.0945983"><ele>1081.0</ele><time>2026-04-18T08:09:54.125Z</time></trkpt><trkpt lat="37.81681" lon="15.0947367"><ele>1081.0</ele><time>2026-04-18T08:09:55.125Z</time></trkpt><trkpt lat="37.8168167" lon="15.0948817"><ele>1081.0</ele><time>2026-04-18T08:09:56.125Z</time></trkpt><trkpt lat="37.8167783" lon="15.09503"><ele>1081.0</ele><time>2026-04-18T08:09:57.125Z</time></trkpt><trkpt lat="37.816695" lon="15.095155"><ele>1081.0</ele><time>2026-04-18T08:09:58.125Z</time></trkpt><trkpt lat="37.81659" lon="15.0952517"><ele>1077.5</ele><time>2026-04-18T08:09:59.125Z</time></trkpt><trkpt lat="37.8164683" lon="15.0953433"><ele>1074.0</ele><time>2026-04-18T08:10:00.124Z</time></trkpt><trkpt lat="37.8163617" lon="15.0954433"><ele>1070.5</ele><time>2026-04-18T08:10:01.125Z</time></trkpt><trkpt lat="37.8162683" lon="15.095545"><ele>1067.0</ele><time>2026-04-18T08:10:02.125Z</time></trkpt><trkpt lat="37.8161917" lon="15.09567"><ele>1065.0</ele><time>2026-04-18T08:10:03.125Z</time></trkpt><trkpt lat="37.816135" lon="15.0958217"><ele>1063.0</ele><time>2026-04-18T08:10:04.125Z</time></trkpt><trkpt lat="37.8161117" lon="15.09599"><ele>1061.0</ele><time>2026-04-18T08:10:05.125Z</time></trkpt><trkpt lat="37.81612" lon="15.0961633"><ele>1059.0</ele><time>2026-04-18T08:10:06.125Z</time></trkpt><trkpt lat="37.8161417" lon="15.0963233"><ele>1059.0</ele><time>2026-04-18T08:10:07.125Z</time></trkpt><trkpt lat="37.8161583" lon="15.0964833"><ele>1059.0</ele><time>2026-04-18T08:10:08.125Z</time></trkpt><trkpt lat="37.816155" lon="15.096635"><ele>1059.0</ele><time>2026-04-18T08:10:09.125Z</time></trkpt><trkpt lat="37.8161133" lon="15.09679"><ele>1059.0</ele><time>2026-04-18T08:10:10.125Z</time></trkpt><trkpt lat="37.8160467" lon="15.0969467"><ele>1059.6666666666667</ele><time>2026-04-18T08:10:11.124Z</time></trkpt><trkpt lat="37.8159633" lon="15.0971133"><ele>1060.3333333333335</ele><time>2026-04-18T08:10:12.125Z</time></trkpt><trkpt lat="37.8158767" lon="15.0972767"><ele>1061.0</ele><time>2026-04-18T08:10:13.125Z</time></trkpt><trkpt lat="37.8157817" lon="15.097435"><ele>1058.75</ele><time>2026-04-18T08:10:14.125Z</time></trkpt><trkpt lat="37.8156933" lon="15.0975933"><ele>1056.5</ele><time>2026-04-18T08:10:15.125Z</time></trkpt><trkpt lat="37.8156033" lon="15.0977383"><ele>1054.25</ele><time>2026-04-18T08:10:16.125Z</time></trkpt><trkpt lat="37.8155067" lon="15.0978833"><ele>1052.0</ele><time>2026-04-18T08:10:17.125Z</time></trkpt><trkpt lat="37.8153967" lon="15.0980283"><ele>1052.0</ele><time>2026-04-18T08:10:18.125Z</time></trkpt><trkpt lat="37.8152817" lon="15.0981483"><ele>1052.0</ele><time>2026-04-18T08:10:19.124Z</time></trkpt><trkpt lat="37.815165" lon="15.0982517"><ele>1052.0</ele><time>2026-04-18T08:10:20.125Z</time></trkpt><trkpt lat="37.8150417" lon="15.09834"><ele>1052.0</ele><time>2026-04-18T08:10:21.125Z</time></trkpt><trkpt lat="37.8149417" lon="15.0984267"><ele>1050.5</ele><time>2026-04-18T08:10:22.125Z</time></trkpt><trkpt lat="37.8148667" lon="15.098535"><ele>1049.0</ele><time>2026-04-18T08:10:23.125Z</time></trkpt><trkpt lat="37.814825" lon="15.098675"><ele>1047.5</ele><time>2026-04-18T08:10:24.125Z</time></trkpt><trkpt lat="37.8148233" lon="15.0988133"><ele>1046.0</ele><time>2026-04-18T08:10:25.124Z</time></trkpt><trkpt lat="37.8148483" lon="15.0989483"><ele>1046.0</ele><time>2026-04-18T08:10:26.124Z</time></trkpt><trkpt lat="37.8149033" lon="15.0990683"><ele>1046.0</ele><time>2026-04-18T08:10:27.124Z</time></trkpt><trkpt lat="37.81499" lon="15.099175"><ele>1046.0</ele><time>2026-04-18T08:10:28.125Z</time></trkpt><trkpt lat="37.8150967" lon="15.0992333"><ele>1046.0</ele><time>2026-04-18T08:10:29.125Z</time></trkpt><trkpt lat="37.8152267" lon="15.0992567"><ele>1042.25</ele><time>2026-04-18T08:10:30.125Z</time></trkpt><trkpt lat="37.8153567" lon="15.09922"><ele>1038.5</ele><time>2026-04-18T08:10:31.125Z</time></trkpt><trkpt lat="37.8154817" lon="15.09918"><ele>1034.75</ele><time>2026-04-18T08:10:32.125Z</time></trkpt><trkpt lat="37.8156167" lon="15.0991717"><ele>1031.0</ele><time>2026-04-18T08:10:33.125Z</time></trkpt><trkpt lat="37.8157467" lon="15.0991917"><ele>1031.0</ele><time>2026-04-18T08:10:34.125Z</time></trkpt><trkpt lat="37.8158883" lon="15.0992467"><ele>1031.0</ele><time>2026-04-18T08:10:35.125Z</time></trkpt><trkpt lat="37.8160167" lon="15.0993167"><ele>1031.0</ele><time>2026-04-18T08:10:36.125Z</time></trkpt><trkpt lat="37.816135" lon="15.0993767"><ele>1031.0</ele><time>2026-04-18T08:10:37.125Z</time></trkpt><trkpt lat="37.8162533" lon="15.0994117"><ele>1029.25</ele><time>2026-04-18T08:10:38.125Z</time></trkpt><trkpt lat="37.8163717" lon="15.0993933"><ele>1027.5</ele><time>2026-04-18T08:10:39.125Z</time></trkpt><trkpt lat="37.8164817" lon="15.09934"><ele>1025.75</ele><time>2026-04-18T08:10:40.125Z</time></trkpt><trkpt lat="37.816595" lon="15.0992933"><ele>1024.0</ele><time>2026-04-18T08:10:41.125Z</time></trkpt><trkpt lat="37.816705" lon="15.0992767"><ele>1024.0</ele><time>2026-04-18T08:10:42.125Z</time></trkpt><trkpt lat="37.816805" lon="15.099305"><ele>1024.0</ele><time>2026-04-18T08:10:43.125Z</time></trkpt><trkpt lat="37.8168933" lon="15.0993817"><ele>1024.0</ele><time>2026-04-18T08:10:44.125Z</time></trkpt><trkpt lat="37.816955" lon="15.0994867"><ele>1024.0</ele><time>2026-04-18T08:10:45.125Z</time></trkpt><trkpt lat="37.8169983" lon="15.0996183"><ele>1024.0</ele><time>2026-04-18T08:10:46.125Z</time></trkpt><trkpt lat="37.8170017" lon="15.09976"><ele>1022.75</ele><time>2026-04-18T08:10:47.125Z</time></trkpt><trkpt lat="37.8169567" lon="15.0999017"><ele>1021.5</ele><time>2026-04-18T08:10:48.125Z</time></trkpt><trkpt lat="37.8168783" lon="15.1000217"><ele>1020.25</ele><time>2026-04-18T08:10:49.125Z</time></trkpt><trkpt lat="37.8167867" lon="15.1001033"><ele>1019.0</ele><time>2026-04-18T08:10:50.124Z</time></trkpt><trkpt lat="37.8166717" lon="15.1001517"><ele>1018.75</ele><time>2026-04-18T08:10:51.125Z</time></trkpt><trkpt lat="37.8165467" lon="15.100205"><ele>1018.5</ele><time>2026-04-18T08:10:52.124Z</time></trkpt><trkpt lat="37.8164417" lon="15.1002817"><ele>1018.25</ele><time>2026-04-18T08:10:53.125Z</time></trkpt><trkpt lat="37.816355" lon="15.1003867"><ele>1018.0</ele><time>2026-04-18T08:10:54.125Z</time></trkpt><trkpt lat="37.8163" lon="15.1005267"><ele>1018.0</ele><time>2026-04-18T08:10:55.125Z</time></trkpt><trkpt lat="37.8162867" lon="15.100675"><ele>1018.0</ele><time>2026-04-18T08:10:56.125Z</time></trkpt><trkpt lat="37.8163033" lon="15.1008183"><ele>1018.0</ele><time>2026-04-18T08:10:57.125Z</time></trkpt><trkpt lat="37.8163467" lon="15.100945"><ele>1018.0</ele><time>2026-04-18T08:10:58.125Z</time></trkpt><trkpt lat="37.81643" lon="15.1010583"><ele>1016.25</ele><time>2026-04-18T08:10:59.125Z</time></trkpt><trkpt lat="37.8165333" lon="15.101125"><ele>1014.5</ele><time>2026-04-18T08:11:00.125Z</time></trkpt><trkpt lat="37.8166583" lon="15.1011517"><ele>1012.75</ele><time>2026-04-18T08:11:01.124Z</time></trkpt><trkpt lat="37.8167883" lon="15.1011267"><ele>1011.0</ele><time>2026-04-18T08:11:02.125Z</time></trkpt><trkpt lat="37.8168933" lon="15.10105"><ele>1009.0</ele><time>2026-04-18T08:11:03.125Z</time></trkpt><trkpt lat="37.8169883" lon="15.1009617"><ele>1007.0</ele><time>2026-04-18T08:11:04.125Z</time></trkpt><trkpt lat="37.8170917" lon="15.10089"><ele>1005.0</ele><time>2026-04-18T08:11:05.125Z</time></trkpt><trkpt lat="37.8172133" lon="15.1008433"><ele>1003.0</ele><time>2026-04-18T08:11:06.125Z</time></trkpt><trkpt lat="37.8173483" lon="15.10085"><ele>1003.0</ele><time>2026-04-18T08:11:07.125Z</time></trkpt><trkpt lat="37.81749" lon="15.100915"><ele>1003.0</ele><time>2026-04-18T08:11:08.125Z</time></trkpt><trkpt lat="37.817615" lon="15.1010033"><ele>1003.0</ele><time>2026-04-18T08:11:09.125Z</time></trkpt><trkpt lat="37.8177367" lon="15.1011217"><ele>1003.0</ele><time>2026-04-18T08:11:10.125Z</time></trkpt><trkpt lat="37.8178467" lon="15.1012217"><ele>1001.0</ele><time>2026-04-18T08:11:11.125Z</time></trkpt><trkpt lat="37.8179633" lon="15.101305"><ele>999.0</ele><time>2026-04-18T08:11:12.125Z</time></trkpt><trkpt lat="37.81808" lon="15.101355"><ele>997.0</ele><time>2026-04-18T08:11:13.125Z</time></trkpt><trkpt lat="37.8182033" lon="15.10134"><ele>995.0</ele><time>2026-04-18T08:11:14.125Z</time></trkpt><trkpt lat="37.8183267" lon="15.1012867"><ele>995.0</ele><time>2026-04-18T08:11:15.125Z</time></trkpt><trkpt lat="37.8184283" lon="15.101195"><ele>995.0</ele><time>2026-04-18T08:11:16.125Z</time></trkpt><trkpt lat="37.8185133" lon="15.10108"><ele>995.0</ele><time>2026-04-18T08:11:17.125Z</time></trkpt><trkpt lat="37.818595" lon="15.1009633"><ele>995.0</ele><time>2026-04-18T08:11:18.124Z</time></trkpt><trkpt lat="37.8186833" lon="15.1008767"><ele>992.25</ele><time>2026-04-18T08:11:19.125Z</time></trkpt><trkpt lat="37.818795" lon="15.1008317"><ele>989.5</ele><time>2026-04-18T08:11:20.125Z</time></trkpt><trkpt lat="37.81892" lon="15.10084"><ele>986.75</ele><time>2026-04-18T08:11:21.125Z</time></trkpt><trkpt lat="37.8190433" lon="15.1008967"><ele>984.0</ele><time>2026-04-18T08:11:22.124Z</time></trkpt><trkpt lat="37.81916" lon="15.1009917"><ele>984.0</ele><time>2026-04-18T08:11:23.125Z</time></trkpt><trkpt lat="37.8192467" lon="15.1010917"><ele>984.0</ele><time>2026-04-18T08:11:24.125Z</time></trkpt><trkpt lat="37.8193267" lon="15.101205"><ele>984.0</ele><time>2026-04-18T08:11:25.125Z</time></trkpt><trkpt lat="37.8193767" lon="15.1013483"><ele>984.0</ele><time>2026-04-18T08:11:26.125Z</time></trkpt><trkpt lat="37.8193917" lon="15.1015083"><ele>980.5</ele><time>2026-04-18T08:11:27.125Z</time></trkpt><trkpt lat="37.81939" lon="15.1016717"><ele>977.0</ele><time>2026-04-18T08:11:28.125Z</time></trkpt><trkpt lat="37.819385" lon="15.1018233"><ele>973.5</ele><time>2026-04-18T08:11:29.125Z</time></trkpt><trkpt lat="37.81941" lon="15.1019717"><ele>970.0</ele><time>2026-04-18T08:11:30.125Z</time></trkpt><trkpt lat="37.8194633" lon="15.1021033"><ele>970.0</ele><time>2026-04-18T08:11:31.125Z</time></trkpt><trkpt lat="37.819555" lon="15.1022233"><ele>970.0</ele><time>2026-04-18T08:11:32.125Z</time></trkpt><trkpt lat="37.81967" lon="15.1023117"><ele>970.0</ele><time>2026-04-18T08:11:33.125Z</time></trkpt><trkpt lat="37.8197967" lon="15.1023633"><ele>970.0</ele><time>2026-04-18T08:11:34.125Z</time></trkpt><trkpt lat="37.819935" lon="15.102405"><ele>970.25</ele><time>2026-04-18T08:11:35.125Z</time></trkpt><trkpt lat="37.820075" lon="15.102445"><ele>970.5</ele><time>2026-04-18T08:11:36.125Z</time></trkpt><trkpt lat="37.8202033" lon="15.1024967"><ele>970.75</ele><time>2026-04-18T08:11:37.125Z</time></trkpt><trkpt lat="37.82033" lon="15.1025367"><ele>971.0</ele><time>2026-04-18T08:11:38.125Z</time></trkpt><trkpt lat="37.820455" lon="15.1025833"><ele>968.0</ele><time>2026-04-18T08:11:39.125Z</time></trkpt><trkpt lat="37.8205633" lon="15.1026483"><ele>965.0</ele><time>2026-04-18T08:11:40.125Z</time></trkpt><trkpt lat="37.820655" lon="15.102745"><ele>962.0</ele><time>2026-04-18T08:11:41.125Z</time></trkpt><trkpt lat="37.820725" lon="15.102885"><ele>959.0</ele><time>2026-04-18T08:11:42.125Z</time></trkpt><trkpt lat="37.8207667" lon="15.1030467"><ele>959.0</ele><time>2026-04-18T08:11:43.125Z</time></trkpt><trkpt lat="37.8207617" lon="15.1032117"><ele>959.0</ele><time>2026-04-18T08:11:44.125Z</time></trkpt><trkpt lat="37.8207233" lon="15.103385"><ele>959.0</ele><time>2026-04-18T08:11:45.125Z</time></trkpt><trkpt lat="37.82068" lon="15.1035517"><ele>959.0</ele><time>2026-04-18T08:11:46.125Z</time></trkpt><trkpt lat="37.8206367" lon="15.1037083"><ele>959.5</ele><time>2026-04-18T08:11:47.124Z</time></trkpt><trkpt lat="37.8206033" lon="15.1038717"><ele>960.0</ele><time>2026-04-18T08:11:48.125Z</time></trkpt><trkpt lat="37.820555" lon="15.1040267"><ele>960.5</ele><time>2026-04-18T08:11:49.125Z</time></trkpt><trkpt lat="37.8204833" lon="15.104175"><ele>961.0</ele><time>2026-04-18T08:11:50.125Z</time></trkpt><trkpt lat="37.8204067" lon="15.104325"><ele>957.25</ele><time>2026-04-18T08:11:51.125Z</time></trkpt><trkpt lat="37.8203367" lon="15.1044917"><ele>953.5</ele><time>2026-04-18T08:11:52.124Z</time></trkpt><trkpt lat="37.8202633" lon="15.1046483"><ele>949.75</ele><time>2026-04-18T08:11:53.125Z</time></trkpt><trkpt lat="37.8202017" lon="15.1048033"><ele>946.0</ele><time>2026-04-18T08:11:54.125Z</time></trkpt><trkpt lat="37.8201317" lon="15.104935"><ele>946.0</ele><time>2026-04-18T08:11:55.125Z</time></trkpt><trkpt lat="37.8200417" lon="15.1050567"><ele>946.0</ele><time>2026-04-18T08:11:56.125Z</time></trkpt><trkpt lat="37.819935" lon="15.10514"><ele>946.0</ele><time>2026-04-18T08:11:57.125Z</time></trkpt><trkpt lat="37.819805" lon="15.1051883"><ele>946.0</ele><time>2026-04-18T08:11:58.125Z</time></trkpt><trkpt lat="37.8196683" lon="15.1051933"><ele>946.0</ele><time>2026-04-18T08:11:59.125Z</time></trkpt><trkpt lat="37.8195183" lon="15.105145"><ele>946.0</ele><time>2026-04-18T08:12:00.125Z</time></trkpt><trkpt lat="37.8193817" lon="15.105085"><ele>946.0</ele><time>2026-04-18T08:12:01.125Z</time></trkpt><trkpt lat="37.8192433" lon="15.1050317"><ele>946.0</ele><time>2026-04-18T08:12:02.125Z</time></trkpt><trkpt lat="37.8190967" lon="15.10503"><ele>945.25</ele><time>2026-04-18T08:12:03.125Z</time></trkpt><trkpt lat="37.8189667" lon="15.1050633"><ele>944.5</ele><time>2026-04-18T08:12:04.125Z</time></trkpt><trkpt lat="37.8188333" lon="15.105115"><ele>943.75</ele><time>2026-04-18T08:12:05.125Z</time></trkpt><trkpt lat="37.81871" lon="15.1052233"><ele>943.0</ele><time>2026-04-18T08:12:06.125Z</time></trkpt><trkpt lat="37.8185883" lon="15.1053317"><ele>943.0</ele><time>2026-04-18T08:12:07.125Z</time></trkpt><trkpt lat="37.8184867" lon="15.10545"><ele>943.0</ele><time>2026-04-18T08:12:08.125Z</time></trkpt><trkpt lat="37.8183933" lon="15.1055533"><ele>943.0</ele><time>2026-04-18T08:12:09.125Z</time></trkpt><trkpt lat="37.8183033" lon="15.1056467"><ele>943.0</ele><time>2026-04-18T08:12:10.125Z</time></trkpt><trkpt lat="37.818225" lon="15.1057467"><ele>940.5999999999999</ele><time>2026-04-18T08:12:11.124Z</time></trkpt><trkpt lat="37.818175" lon="15.1058567"><ele>938.1999999999999</ele><time>2026-04-18T08:12:12.125Z</time></trkpt><trkpt lat="37.818165" lon="15.1059867"><ele>935.8</ele><time>2026-04-18T08:12:13.125Z</time></trkpt><trkpt lat="37.818195" lon="15.1061"><ele>933.4</ele><time>2026-04-18T08:12:14.124Z</time></trkpt><trkpt lat="37.8182583" lon="15.10619"><ele>931.0</ele><time>2026-04-18T08:12:15.125Z</time></trkpt><trkpt lat="37.8183417" lon="15.1062367"><ele>931.0</ele><time>2026-04-18T08:12:16.125Z</time></trkpt><trkpt lat="37.818445" lon="15.10623"><ele>931.0</ele><time>2026-04-18T08:12:17.125Z</time></trkpt><trkpt lat="37.8185517" lon="15.106175"><ele>931.0</ele><time>2026-04-18T08:12:18.125Z</time></trkpt><trkpt lat="37.8186483" lon="15.1060767"><ele>931.0</ele><time>2026-04-18T08:12:19.125Z</time></trkpt><trkpt lat="37.8187383" lon="15.1059683"><ele>928.75</ele><time>2026-04-18T08:12:20.125Z</time></trkpt><trkpt lat="37.8188283" lon="15.1058483"><ele>926.5</ele><time>2026-04-18T08:12:21.125Z</time></trkpt><trkpt lat="37.81892" lon="15.1057417"><ele>924.25</ele><time>2026-04-18T08:12:22.125Z</time></trkpt><trkpt lat="37.8190217" lon="15.1056717"><ele>922.0</ele><time>2026-04-18T08:12:23.125Z</time></trkpt><trkpt lat="37.8191417" lon="15.1056283"><ele>923.5</ele><time>2026-04-18T08:12:24.125Z</time></trkpt><trkpt lat="37.8192733" lon="15.105625"><ele>925.0</ele><time>2026-04-18T08:12:25.125Z</time></trkpt><trkpt lat="37.8193933" lon="15.105665"><ele>926.5</ele><time>2026-04-18T08:12:26.125Z</time></trkpt><trkpt lat="37.8195117" lon="15.10574"><ele>928.0</ele><time>2026-04-18T08:12:27.125Z</time></trkpt><trkpt lat="37.81962" lon="15.1058467"><ele>928.0</ele><time>2026-04-18T08:12:28.125Z</time></trkpt><trkpt lat="37.8197167" lon="15.1059717"><ele>928.0</ele><time>2026-04-18T08:12:29.125Z</time></trkpt><trkpt lat="37.8198183" lon="15.1061033"><ele>928.0</ele><time>2026-04-18T08:12:30.125Z</time></trkpt><trkpt lat="37.8199217" lon="15.1062367"><ele>928.0</ele><time>2026-04-18T08:12:31.125Z</time></trkpt><trkpt lat="37.82003" lon="15.1063633"><ele>928.0</ele><time>2026-04-18T08:12:32.125Z</time></trkpt><trkpt lat="37.8201533" lon="15.106485"><ele>928.0</ele><time>2026-04-18T08:12:33.125Z</time></trkpt><trkpt lat="37.82028" lon="15.1065917"><ele>928.0</ele><time>2026-04-18T08:12:34.125Z</time></trkpt><trkpt lat="37.8204033" lon="15.1067083"><ele>923.0</ele><time>2026-04-18T08:12:35.125Z</time></trkpt><trkpt lat="37.8205483" lon="15.10682"><ele>918.0</ele><time>2026-04-18T08:12:36.125Z</time></trkpt><trkpt lat="37.820685" lon="15.1069367"><ele>913.0</ele><time>2026-04-18T08:12:37.125Z</time></trkpt><trkpt lat="37.8208167" lon="15.1070467"><ele>913.0</ele><time>2026-04-18T08:12:38.124Z</time></trkpt><trkpt lat="37.8209417" lon="15.1071467"><ele>913.0</ele><time>2026-04-18T08:12:39.125Z</time></trkpt><trkpt lat="37.8210633" lon="15.1072333"><ele>913.0</ele><time>2026-04-18T08:12:40.125Z</time></trkpt><trkpt lat="37.8211767" lon="15.1073117"><ele>913.0</ele><time>2026-04-18T08:12:41.125Z</time></trkpt><trkpt lat="37.821285" lon="15.1073617"><ele>910.5</ele><time>2026-04-18T08:12:42.125Z</time></trkpt><trkpt lat="37.8214083" lon="15.107395"><ele>908.0</ele><time>2026-04-18T08:12:43.125Z</time></trkpt><trkpt lat="37.8215333" lon="15.1073967"><ele>905.5</ele><time>2026-04-18T08:12:44.125Z</time></trkpt><trkpt lat="37.8216633" lon="15.10735"><ele>903.0</ele><time>2026-04-18T08:12:45.125Z</time></trkpt><trkpt lat="37.8217933" lon="15.1072717"><ele>898.0</ele><time>2026-04-18T08:12:46.125Z</time></trkpt><trkpt lat="37.8219017" lon="15.1071567"><ele>893.0</ele><time>2026-04-18T08:12:47.125Z</time></trkpt><trkpt lat="37.8219917" lon="15.1070167"><ele>888.0</ele><time>2026-04-18T08:12:48.125Z</time></trkpt><trkpt lat="37.8220567" lon="15.1068567"><ele>883.0</ele><time>2026-04-18T08:12:49.125Z</time></trkpt><trkpt lat="37.8221283" lon="15.1066967"><ele>887.25</ele><time>2026-04-18T08:12:50.125Z</time></trkpt><trkpt lat="37.8222133" lon="15.1065533"><ele>891.5</ele><time>2026-04-18T08:12:51.125Z</time></trkpt><trkpt lat="37.8223067" lon="15.1064233"><ele>895.75</ele><time>2026-04-18T08:12:52.125Z</time></trkpt><trkpt lat="37.8224133" lon="15.1063117"><ele>900.0</ele><time>2026-04-18T08:12:53.125Z</time></trkpt><trkpt lat="37.8225333" lon="15.1062333"><ele>897.5</ele><time>2026-04-18T08:12:54.125Z</time></trkpt><trkpt lat="37.8226483" lon="15.1061883"><ele>895.0</ele><time>2026-04-18T08:12:55.124Z</time></trkpt><trkpt lat="37.8227717" lon="15.1061933"><ele>892.5</ele><time>2026-04-18T08:12:56.125Z</time></trkpt><trkpt lat="37.822915" lon="15.1062333"><ele>890.0</ele><time>2026-04-18T08:12:57.124Z</time></trkpt><trkpt lat="37.8230617" lon="15.1062883"><ele>890.0</ele><time>2026-04-18T08:12:58.125Z</time></trkpt><trkpt lat="37.8232" lon="15.1063417"><ele>890.0</ele><time>2026-04-18T08:12:59.124Z</time></trkpt><trkpt lat="37.8233383" lon="15.1063933"><ele>890.0</ele><time>2026-04-18T08:13:00.125Z</time></trkpt><trkpt lat="37.8234683" lon="15.1064383"><ele>890.0</ele><time>2026-04-18T08:13:01.125Z</time></trkpt><trkpt lat="37.823595" lon="15.1064817"><ele>887.0</ele><time>2026-04-18T08:13:02.125Z</time></trkpt><trkpt lat="37.8237133" lon="15.1065133"><ele>884.0</ele><time>2026-04-18T08:13:03.125Z</time></trkpt><trkpt lat="37.82383" lon="15.10651"><ele>881.0</ele><time>2026-04-18T08:13:04.125Z</time></trkpt><trkpt lat="37.8239433" lon="15.10645"><ele>878.0</ele><time>2026-04-18T08:13:05.125Z</time></trkpt><trkpt lat="37.8240483" lon="15.1063433"><ele>878.0</ele><time>2026-04-18T08:13:06.125Z</time></trkpt><trkpt lat="37.8241433" lon="15.1062133"><ele>878.0</ele><time>2026-04-18T08:13:07.124Z</time></trkpt><trkpt lat="37.82425" lon="15.1060983"><ele>878.0</ele><time>2026-04-18T08:13:08.124Z</time></trkpt><trkpt lat="37.824375" lon="15.1060083"><ele>878.0</ele><time>2026-04-18T08:13:09.125Z</time></trkpt><trkpt lat="37.8245033" lon="15.1059383"><ele>873.75</ele><time>2026-04-18T08:13:10.124Z</time></trkpt><trkpt lat="37.8246333" lon="15.1058767"><ele>869.5</ele><time>2026-04-18T08:13:11.125Z</time></trkpt><trkpt lat="37.824775" lon="15.1058317"><ele>865.25</ele><time>2026-04-18T08:13:12.125Z</time></trkpt><trkpt lat="37.8249233" lon="15.1058183"><ele>861.0</ele><time>2026-04-18T08:13:13.125Z</time></trkpt><trkpt lat="37.825055" lon="15.105835"><ele>857.25</ele><time>2026-04-18T08:13:14.125Z</time></trkpt><trkpt lat="37.8251817" lon="15.1058417"><ele>853.5</ele><time>2026-04-18T08:13:15.125Z</time></trkpt><trkpt lat="37.8253067" lon="15.10584"><ele>849.75</ele><time>2026-04-18T08:13:16.125Z</time></trkpt><trkpt lat="37.82544" lon="15.1058133"><ele>846.0</ele><time>2026-04-18T08:13:17.124Z</time></trkpt><trkpt lat="37.825555" lon="15.10575"><ele>849.6666666666667</ele><time>2026-04-18T08:13:18.124Z</time></trkpt><trkpt lat="37.8256617" lon="15.1056383"><ele>853.3333333333334</ele><time>2026-04-18T08:13:19.125Z</time></trkpt><trkpt lat="37.8257717" lon="15.1055067"><ele>857.0</ele><time>2026-04-18T08:13:20.125Z</time></trkpt><trkpt lat="37.8258833" lon="15.10536"><ele>857.5</ele><time>2026-04-18T08:13:21.125Z</time></trkpt><trkpt lat="37.8259967" lon="15.1052217"><ele>858.0</ele><time>2026-04-18T08:13:22.125Z</time></trkpt><trkpt lat="37.8261033" lon="15.1050933"><ele>858.5</ele><time>2026-04-18T08:13:23.125Z</time></trkpt><trkpt lat="37.826195" lon="15.1049767"><ele>859.0</ele><time>2026-04-18T08:13:24.125Z</time></trkpt><trkpt lat="37.8262767" lon="15.10488"><ele>859.0</ele><time>2026-04-18T08:13:25.125Z</time></trkpt><trkpt lat="37.8263633" lon="15.1048133"><ele>859.0000000000001</ele><time>2026-04-18T08:13:26.125Z</time></trkpt><trkpt lat="37.826455" lon="15.1047917"><ele>859.0000000000001</ele><time>2026-04-18T08:13:27.124Z</time></trkpt><trkpt lat="37.82656" lon="15.1048133"><ele>859.0</ele><time>2026-04-18T08:13:28.124Z</time></trkpt><trkpt lat="37.826635" lon="15.1048833"><ele>859.0</ele><time>2026-04-18T08:13:29.125Z</time></trkpt><trkpt lat="37.82669" lon="15.105"><ele>856.0</ele><time>2026-04-18T08:13:30.125Z</time></trkpt><trkpt lat="37.8267083" lon="15.1051183"><ele>853.0000000000001</ele><time>2026-04-18T08:13:31.125Z</time></trkpt><trkpt lat="37.8266883" lon="15.105245"><ele>850.0</ele><time>2026-04-18T08:13:32.125Z</time></trkpt><trkpt lat="37.826635" lon="15.1053617"><ele>847.0</ele><time>2026-04-18T08:13:33.125Z</time></trkpt><trkpt lat="37.8265533" lon="15.10544"><ele>844.0</ele><time>2026-04-18T08:13:34.125Z</time></trkpt><trkpt lat="37.826445" lon="15.1054717"><ele>844.0</ele><time>2026-04-18T08:13:35.125Z</time></trkpt><trkpt lat="37.8263233" lon="15.105515"><ele>844.0</ele><time>2026-04-18T08:13:36.125Z</time></trkpt><trkpt lat="37.8262117" lon="15.1055833"><ele>844.0</ele><time>2026-04-18T08:13:37.125Z</time></trkpt><trkpt lat="37.8261167" lon="15.10568"><ele>844.0</ele><time>2026-04-18T08:13:38.124Z</time></trkpt><trkpt lat="37.8260483" lon="15.10581"><ele>841.0</ele><time>2026-04-18T08:13:39.125Z</time></trkpt><trkpt lat="37.826015" lon="15.105955"><ele>838.0</ele><time>2026-04-18T08:13:40.125Z</time></trkpt><trkpt lat="37.82601" lon="15.1061133"><ele>835.0</ele><time>2026-04-18T08:13:41.125Z</time></trkpt><trkpt lat="37.82603" lon="15.1062733"><ele>832.0</ele><time>2026-04-18T08:13:42.125Z</time></trkpt><trkpt lat="37.826045" lon="15.1064217"><ele>832.0</ele><time>2026-04-18T08:13:43.125Z</time></trkpt><trkpt lat="37.8260333" lon="15.1065767"><ele>832.0</ele><time>2026-04-18T08:13:44.125Z</time></trkpt><trkpt lat="37.8259833" lon="15.1067333"><ele>832.0</ele><time>2026-04-18T08:13:45.125Z</time></trkpt><trkpt lat="37.825905" lon="15.106875"><ele>832.0</ele><time>2026-04-18T08:13:46.125Z</time></trkpt><trkpt lat="37.8258217" lon="15.10703"><ele>833.0</ele><time>2026-04-18T08:13:47.125Z</time></trkpt><trkpt lat="37.8257383" lon="15.1071733"><ele>834.0</ele><time>2026-04-18T08:13:48.125Z</time></trkpt><trkpt lat="37.8256583" lon="15.1073133"><ele>835.0</ele><time>2026-04-18T08:13:49.125Z</time></trkpt><trkpt lat="37.8255617" lon="15.1074483"><ele>836.0</ele><time>2026-04-18T08:13:50.125Z</time></trkpt><trkpt lat="37.8254483" lon="15.1075633"><ele>836.0</ele><time>2026-04-18T08:13:51.125Z</time></trkpt><trkpt lat="37.8253333" lon="15.1076517"><ele>836.0</ele><time>2026-04-18T08:13:52.125Z</time></trkpt><trkpt lat="37.82523" lon="15.1077533"><ele>836.0</ele><time>2026-04-18T08:13:53.125Z</time></trkpt><trkpt lat="37.82515" lon="15.10788"><ele>836.0</ele><time>2026-04-18T08:13:54.125Z</time></trkpt><trkpt lat="37.8250967" lon="15.1080383"><ele>836.0</ele><time>2026-04-18T08:13:55.124Z</time></trkpt><trkpt lat="37.8250483" lon="15.1082233"><ele>836.0</ele><time>2026-04-18T08:13:56.124Z</time></trkpt><trkpt lat="37.8250033" lon="15.108415"><ele>836.0</ele><time>2026-04-18T08:13:57.125Z</time></trkpt><trkpt lat="37.8249617" lon="15.108605"><ele>832.5</ele><time>2026-04-18T08:13:58.125Z</time></trkpt><trkpt lat="37.82492" lon="15.1087833"><ele>829.0</ele><time>2026-04-18T08:13:59.125Z</time></trkpt><trkpt lat="37.8248817" lon="15.1089617"><ele>825.5</ele><time>2026-04-18T08:14:00.125Z</time></trkpt><trkpt lat="37.824855" lon="15.1091317"><ele>822.0</ele><time>2026-04-18T08:14:01.125Z</time></trkpt><trkpt lat="37.824845" lon="15.109305"><ele>820.5</ele><time>2026-04-18T08:14:02.125Z</time></trkpt><trkpt lat="37.8248783" lon="15.1094717"><ele>819.0</ele><time>2026-04-18T08:14:03.125Z</time></trkpt><trkpt lat="37.824935" lon="15.1096483"><ele>817.5</ele><time>2026-04-18T08:14:04.125Z</time></trkpt><trkpt lat="37.8250283" lon="15.1098"><ele>816.0</ele><time>2026-04-18T08:14:05.124Z</time></trkpt><trkpt lat="37.82514" lon="15.1099533"><ele>812.0</ele><time>2026-04-18T08:14:06.125Z</time></trkpt><trkpt lat="37.8252367" lon="15.1100933"><ele>808.0</ele><time>2026-04-18T08:14:07.125Z</time></trkpt><trkpt lat="37.825335" lon="15.110235"><ele>804.0</ele><time>2026-04-18T08:14:08.125Z</time></trkpt><trkpt lat="37.8254217" lon="15.1103817"><ele>800.0</ele><time>2026-04-18T08:14:09.125Z</time></trkpt><trkpt lat="37.82552" lon="15.1105233"><ele>800.0</ele><time>2026-04-18T08:14:10.124Z</time></trkpt><trkpt lat="37.8256117" lon="15.1106617"><ele>800.0</ele><time>2026-04-18T08:14:11.125Z</time></trkpt><trkpt lat="37.8257017" lon="15.11079"><ele>800.0</ele><time>2026-04-18T08:14:12.125Z</time></trkpt><trkpt lat="37.8257867" lon="15.1109233"><ele>800.0</ele><time>2026-04-18T08:14:13.125Z</time></trkpt><trkpt lat="37.8258483" lon="15.1110583"><ele>799.25</ele><time>2026-04-18T08:14:14.124Z</time></trkpt><trkpt lat="37.82589" lon="15.11121"><ele>798.5</ele><time>2026-04-18T08:14:15.125Z</time></trkpt><trkpt lat="37.8258883" lon="15.1113667"><ele>797.75</ele><time>2026-04-18T08:14:16.125Z</time></trkpt><trkpt lat="37.8258583" lon="15.1115217"><ele>797.0</ele><time>2026-04-18T08:14:17.124Z</time></trkpt><trkpt lat="37.8257917" lon="15.1116617"><ele>796.25</ele><time>2026-04-18T08:14:18.125Z</time></trkpt><trkpt lat="37.8256917" lon="15.1117817"><ele>795.5</ele><time>2026-04-18T08:14:19.125Z</time></trkpt><trkpt lat="37.8255983" lon="15.1118883"><ele>794.75</ele><time>2026-04-18T08:14:20.125Z</time></trkpt><trkpt lat="37.8255317" lon="15.1119933"><ele>794.0</ele><time>2026-04-18T08:14:21.125Z</time></trkpt><trkpt lat="37.8254967" lon="15.112115"><ele>794.0</ele><time>2026-04-18T08:14:22.125Z</time></trkpt><trkpt lat="37.8255033" lon="15.11225"><ele>794.0</ele><time>2026-04-18T08:14:23.125Z</time></trkpt><trkpt lat="37.8255517" lon="15.1123567"><ele>794.0</ele><time>2026-04-18T08:14:24.125Z</time></trkpt><trkpt lat="37.8256383" lon="15.1124217"><ele>794.0</ele><time>2026-04-18T08:14:25.125Z</time></trkpt><trkpt lat="37.825745" lon="15.1124433"><ele>794.0</ele><time>2026-04-18T08:14:26.125Z</time></trkpt><trkpt lat="37.82587" lon="15.1124317"><ele>789.6</ele><time>2026-04-18T08:14:27.125Z</time></trkpt><trkpt lat="37.8259883" lon="15.112405"><ele>785.2</ele><time>2026-04-18T08:14:28.125Z</time></trkpt><trkpt lat="37.8260983" lon="15.1123783"><ele>780.8000000000001</ele><time>2026-04-18T08:14:29.125Z</time></trkpt><trkpt lat="37.8261933" lon="15.112315"><ele>776.4000000000001</ele><time>2026-04-18T08:14:30.125Z</time></trkpt><trkpt lat="37.826255" lon="15.112215"><ele>772.0</ele><time>2026-04-18T08:14:31.125Z</time></trkpt><trkpt lat="37.8262783" lon="15.1120833"><ele>772.0</ele><time>2026-04-18T08:14:32.125Z</time></trkpt><trkpt lat="37.8262667" lon="15.111935"><ele>772.0</ele><time>2026-04-18T08:14:33.125Z</time></trkpt><trkpt lat="37.82626" lon="15.1118033"><ele>772.0</ele><time>2026-04-18T08:14:34.125Z</time></trkpt><trkpt lat="37.82629" lon="15.111665"><ele>772.0</ele><time>2026-04-18T08:14:35.125Z</time></trkpt><trkpt lat="37.8263617" lon="15.1115433"><ele>774.25</ele><time>2026-04-18T08:14:36.125Z</time></trkpt><trkpt lat="37.8264617" lon="15.111445"><ele>776.5</ele><time>2026-04-18T08:14:37.125Z</time></trkpt><trkpt lat="37.8265867" lon="15.1113467"><ele>778.75</ele><time>2026-04-18T08:14:38.125Z</time></trkpt><trkpt lat="37.8267183" lon="15.1112433"><ele>781.0</ele><time>2026-04-18T08:14:39.125Z</time></trkpt><trkpt lat="37.8268583" lon="15.1111217"><ele>775.0</ele><time>2026-04-18T08:14:40.125Z</time></trkpt><trkpt lat="37.8270117" lon="15.110995"><ele>769.0</ele><time>2026-04-18T08:14:41.124Z</time></trkpt><trkpt lat="37.8271667" lon="15.1108717"><ele>763.0</ele><time>2026-04-18T08:14:42.125Z</time></trkpt><trkpt lat="37.8273233" lon="15.110745"><ele>761.6666666666667</ele><time>2026-04-18T08:14:43.125Z</time></trkpt><trkpt lat="37.8274767" lon="15.110615"><ele>760.3333333333334</ele><time>2026-04-18T08:14:44.125Z</time></trkpt><trkpt lat="37.8276267" lon="15.11049"><ele>759.0</ele><time>2026-04-18T08:14:45.125Z</time></trkpt><trkpt lat="37.8277833" lon="15.1103667"><ele>759.0</ele><time>2026-04-18T08:14:46.125Z</time></trkpt><trkpt lat="37.8279333" lon="15.11024"><ele>759.0</ele><time>2026-04-18T08:14:47.124Z</time></trkpt><trkpt lat="37.82808" lon="15.11011"><ele>759.0</ele><time>2026-04-18T08:14:48.125Z</time></trkpt><trkpt lat="37.8282233" lon="15.109975"><ele>760.3333333333334</ele><time>2026-04-18T08:14:49.125Z</time></trkpt><trkpt lat="37.82835" lon="15.1098233"><ele>761.6666666666667</ele><time>2026-04-18T08:14:50.125Z</time></trkpt><trkpt lat="37.8284733" lon="15.1096683"><ele>763.0</ele><time>2026-04-18T08:14:51.125Z</time></trkpt><trkpt lat="37.8286" lon="15.1095133"><ele>762.3333333333334</ele><time>2026-04-18T08:14:52.125Z</time></trkpt><trkpt lat="37.8287233" lon="15.1093583"><ele>761.6666666666666</ele><time>2026-04-18T08:14:53.125Z</time></trkpt><trkpt lat="37.828835" lon="15.109205"><ele>761.0</ele><time>2026-04-18T08:14:54.125Z</time></trkpt><trkpt lat="37.828935" lon="15.109065"><ele>761.0</ele><time>2026-04-18T08:14:55.125Z</time></trkpt><trkpt lat="37.8290233" lon="15.1089267"><ele>761.0</ele><time>2026-04-18T08:14:56.125Z</time></trkpt><trkpt lat="37.829115" lon="15.1087933"><ele>761.0</ele><time>2026-04-18T08:14:57.125Z</time></trkpt><trkpt lat="37.8292117" lon="15.1086667"><ele>761.0</ele><time>2026-04-18T08:14:58.125Z</time></trkpt><trkpt lat="37.8293217" lon="15.108555"><ele>758.5</ele><time>2026-04-18T08:14:59.125Z</time></trkpt><trkpt lat="37.829445" lon="15.108465"><ele>756.0</ele><time>2026-04-18T08:15:00.125Z</time></trkpt><trkpt lat="37.8295767" lon="15.1083967"><ele>753.5</ele><time>2026-04-18T08:15:01.124Z</time></trkpt><trkpt lat="37.8297133" lon="15.1083467"><ele>751.0</ele><time>2026-04-18T08:15:02.125Z</time></trkpt><trkpt lat="37.8298517" lon="15.10832"><ele>751.0</ele><time>2026-04-18T08:15:03.125Z</time></trkpt><trkpt lat="37.8300017" lon="15.1082883"><ele>751.0</ele><time>2026-04-18T08:15:04.125Z</time></trkpt><trkpt lat="37.8301617" lon="15.10825"><ele>751.0</ele><time>2026-04-18T08:15:05.125Z</time></trkpt><trkpt lat="37.8303183" lon="15.108215"><ele>751.3333333333334</ele><time>2026-04-18T08:15:06.125Z</time></trkpt><trkpt lat="37.830475" lon="15.1081917"><ele>751.6666666666666</ele><time>2026-04-18T08:15:07.125Z</time></trkpt><trkpt lat="37.8306217" lon="15.1081733"><ele>752.0</ele><time>2026-04-18T08:15:08.125Z</time></trkpt><trkpt lat="37.8307717" lon="15.1081633"><ele>752.0</ele><time>2026-04-18T08:15:09.125Z</time></trkpt><trkpt lat="37.8309167" lon="15.1081767"><ele>752.0</ele><time>2026-04-18T08:15:10.125Z</time></trkpt><trkpt lat="37.8310733" lon="15.1082067"><ele>752.0</ele><time>2026-04-18T08:15:11.125Z</time></trkpt><trkpt lat="37.831225" lon="15.108245"><ele>748.25</ele><time>2026-04-18T08:15:12.124Z</time></trkpt><trkpt lat="37.8313633" lon="15.1083"><ele>744.5</ele><time>2026-04-18T08:15:13.125Z</time></trkpt><trkpt lat="37.8315017" lon="15.10836"><ele>740.75</ele><time>2026-04-18T08:15:14.125Z</time></trkpt><trkpt lat="37.83164" lon="15.108415"><ele>737.0</ele><time>2026-04-18T08:15:15.125Z</time></trkpt><trkpt lat="37.8317683" lon="15.1084583"><ele>734.0</ele><time>2026-04-18T08:15:16.125Z</time></trkpt><trkpt lat="37.8318983" lon="15.1084683"><ele>731.0</ele><time>2026-04-18T08:15:17.125Z</time></trkpt><trkpt lat="37.8320317" lon="15.10844"><ele>728.0</ele><time>2026-04-18T08:15:18.125Z</time></trkpt><trkpt lat="37.8321467" lon="15.1083667"><ele>725.0</ele><time>2026-04-18T08:15:19.125Z</time></trkpt><trkpt lat="37.8322567" lon="15.1082733"><ele>726.0</ele><time>2026-04-18T08:15:20.125Z</time></trkpt><trkpt lat="37.83236" lon="15.1081717"><ele>727.0</ele><time>2026-04-18T08:15:21.125Z</time></trkpt><trkpt lat="37.8324583" lon="15.1080833"><ele>728.0</ele><time>2026-04-18T08:15:22.125Z</time></trkpt><trkpt lat="37.8325567" lon="15.1080083"><ele>729.0</ele><time>2026-04-18T08:15:23.125Z</time></trkpt><trkpt lat="37.8326583" lon="15.107965"><ele>729.0</ele><time>2026-04-18T08:15:24.125Z</time></trkpt><trkpt lat="37.8327667" lon="15.1079617"><ele>729.0</ele><time>2026-04-18T08:15:25.124Z</time></trkpt><trkpt lat="37.8328617" lon="15.1080067"><ele>729.0</ele><time>2026-04-18T08:15:26.125Z</time></trkpt><trkpt lat="37.8329383" lon="15.1081183"><ele>729.0</ele><time>2026-04-18T08:15:27.125Z</time></trkpt><trkpt lat="37.83301" lon="15.108245"><ele>726.6</ele><time>2026-04-18T08:15:28.125Z</time></trkpt><trkpt lat="37.8330833" lon="15.10837"><ele>724.2</ele><time>2026-04-18T08:15:29.125Z</time></trkpt><trkpt lat="37.8331533" lon="15.108495"><ele>721.8000000000001</ele><time>2026-04-18T08:15:30.125Z</time></trkpt><trkpt lat="37.833215" lon="15.1086083"><ele>719.4000000000001</ele><time>2026-04-18T08:15:31.125Z</time></trkpt><trkpt lat="37.8332633" lon="15.1086967"><ele>717.0</ele><time>2026-04-18T08:15:32.125Z</time></trkpt><trkpt lat="37.8333217" lon="15.1087633"><ele>717.0</ele><time>2026-04-18T08:15:33.125Z</time></trkpt><trkpt lat="37.833385" lon="15.1087917"><ele>717.0</ele><time>2026-04-18T08:15:34.125Z</time></trkpt><trkpt lat="37.8334483" lon="15.10878"><ele>717.0</ele><time>2026-04-18T08:15:35.124Z</time></trkpt><trkpt lat="37.8335067" lon="15.1087317"><ele>717.0</ele><time>2026-04-18T08:15:36.125Z</time></trkpt><trkpt lat="37.83356" lon="15.108655"><ele>717.0</ele><time>2026-04-18T08:15:37.125Z</time></trkpt><trkpt lat="37.83361" lon="15.10856"><ele>717.0</ele><time>2026-04-18T08:15:38.125Z</time></trkpt><trkpt lat="37.8336683" lon="15.1084517"><ele>716.75</ele><time>2026-04-18T08:15:39.124Z</time></trkpt><trkpt lat="37.8337317" lon="15.1083267"><ele>716.5</ele><time>2026-04-18T08:15:40.125Z</time></trkpt><trkpt lat="37.8338017" lon="15.108195"><ele>716.25</ele><time>2026-04-18T08:15:41.125Z</time></trkpt><trkpt lat="37.8338817" lon="15.10805"><ele>716.0</ele><time>2026-04-18T08:15:42.125Z</time></trkpt><trkpt lat="37.8339633" lon="15.1078917"><ele>719.0</ele><time>2026-04-18T08:15:43.125Z</time></trkpt><trkpt lat="37.83405" lon="15.107725"><ele>722.0</ele><time>2026-04-18T08:15:44.125Z</time></trkpt><trkpt lat="37.83414" lon="15.1075483"><ele>725.0</ele><time>2026-04-18T08:15:45.125Z</time></trkpt><trkpt lat="37.83423" lon="15.1073667"><ele>726.6666666666666</ele><time>2026-04-18T08:15:46.125Z</time></trkpt><trkpt lat="37.83432" lon="15.1071833"><ele>728.3333333333334</ele><time>2026-04-18T08:15:47.125Z</time></trkpt><trkpt lat="37.8344083" lon="15.10699"><ele>730.0</ele><time>2026-04-18T08:15:48.125Z</time></trkpt><trkpt lat="37.834495" lon="15.1067883"><ele>730.0</ele><time>2026-04-18T08:15:49.125Z</time></trkpt><trkpt lat="37.8345817" lon="15.1065883"><ele>730.0</ele><time>2026-04-18T08:15:50.125Z</time></trkpt><trkpt lat="37.83467" lon="15.10638"><ele>730.0</ele><time>2026-04-18T08:15:51.124Z</time></trkpt><trkpt lat="37.83477" lon="15.1061617"><ele>732.6666666666667</ele><time>2026-04-18T08:15:52.125Z</time></trkpt><trkpt lat="37.83486" lon="15.1059367"><ele>735.3333333333334</ele><time>2026-04-18T08:15:53.125Z</time></trkpt><trkpt lat="37.834935" lon="15.1057067"><ele>738.0</ele><time>2026-04-18T08:15:54.125Z</time></trkpt><trkpt lat="37.83501" lon="15.1054717"><ele>737.6666666666666</ele><time>2026-04-18T08:15:55.125Z</time></trkpt><trkpt lat="37.835085" lon="15.1052333"><ele>737.3333333333333</ele><time>2026-04-18T08:15:56.125Z</time></trkpt><trkpt lat="37.835165" lon="15.105005"><ele>737.0</ele><time>2026-04-18T08:15:57.125Z</time></trkpt><trkpt lat="37.835245" lon="15.104775"><ele>740.6666666666666</ele><time>2026-04-18T08:15:58.125Z</time></trkpt><trkpt lat="37.835325" lon="15.104555"><ele>744.3333333333334</ele><time>2026-04-18T08:15:59.125Z</time></trkpt><trkpt lat="37.8354133" lon="15.1043567"><ele>748.0</ele><time>2026-04-18T08:16:00.125Z</time></trkpt><trkpt lat="37.8354967" lon="15.1041733"><ele>750.3333333333334</ele><time>2026-04-18T08:16:01.125Z</time></trkpt><trkpt lat="37.8355783" lon="15.104"><ele>752.6666666666666</ele><time>2026-04-18T08:16:02.125Z</time></trkpt><trkpt lat="37.8356433" lon="15.1038217"><ele>755.0</ele><time>2026-04-18T08:16:03.124Z</time></trkpt><trkpt lat="37.8356833" lon="15.1036317"><ele>755.0</ele><time>2026-04-18T08:16:04.125Z</time></trkpt><trkpt lat="37.8356933" lon="15.10342"><ele>755.0</ele><time>2026-04-18T08:16:05.125Z</time></trkpt><trkpt lat="37.83567" lon="15.1032067"><ele>755.0</ele><time>2026-04-18T08:16:06.125Z</time></trkpt><trkpt lat="37.835645" lon="15.10298"><ele>756.6666666666666</ele><time>2026-04-18T08:16:07.125Z</time></trkpt><trkpt lat="37.835615" lon="15.102745"><ele>758.3333333333334</ele><time>2026-04-18T08:16:08.125Z</time></trkpt><trkpt lat="37.8355933" lon="15.1025017"><ele>760.0</ele><time>2026-04-18T08:16:09.125Z</time></trkpt><trkpt lat="37.8355717" lon="15.10226"><ele>763.0</ele><time>2026-04-18T08:16:10.125Z</time></trkpt><trkpt lat="37.8355467" lon="15.102025"><ele>766.0</ele><time>2026-04-18T08:16:11.125Z</time></trkpt><trkpt lat="37.835525" lon="15.1017817"><ele>769.0</ele><time>2026-04-18T08:16:12.125Z</time></trkpt><trkpt lat="37.8354983" lon="15.1015467"><ele>771.0</ele><time>2026-04-18T08:16:13.125Z</time></trkpt><trkpt lat="37.8354783" lon="15.1013067"><ele>773.0</ele><time>2026-04-18T08:16:14.125Z</time></trkpt><trkpt lat="37.8354633" lon="15.101065"><ele>775.0</ele><time>2026-04-18T08:16:15.125Z</time></trkpt><trkpt lat="37.8354667" lon="15.1008167"><ele>778.3333333333333</ele><time>2026-04-18T08:16:16.125Z</time></trkpt><trkpt lat="37.8354683" lon="15.1005733"><ele>781.6666666666667</ele><time>2026-04-18T08:16:17.125Z</time></trkpt><trkpt lat="37.8354733" lon="15.1003317"><ele>785.0</ele><time>2026-04-18T08:16:18.125Z</time></trkpt><trkpt lat="37.8354867" lon="15.1000833"><ele>788.3333333333334</ele><time>2026-04-18T08:16:19.125Z</time></trkpt><trkpt lat="37.8355133" lon="15.0998367"><ele>791.6666666666667</ele><time>2026-04-18T08:16:20.125Z</time></trkpt><trkpt lat="37.8355417" lon="15.0995883"><ele>795.0</ele><time>2026-04-18T08:16:21.125Z</time></trkpt><trkpt lat="37.83559" lon="15.09935"><ele>795.0</ele><time>2026-04-18T08:16:22.125Z</time></trkpt><trkpt lat="37.8356383" lon="15.0991117"><ele>795.0</ele><time>2026-04-18T08:16:23.125Z</time></trkpt><trkpt lat="37.8356867" lon="15.0988783"><ele>795.0</ele><time>2026-04-18T08:16:24.125Z</time></trkpt><trkpt lat="37.8357367" lon="15.0986533"><ele>797.3333333333333</ele><time>2026-04-18T08:16:25.124Z</time></trkpt><trkpt lat="37.8357883" lon="15.098425"><ele>799.6666666666666</ele><time>2026-04-18T08:16:26.125Z</time></trkpt><trkpt lat="37.8358567" lon="15.0981917"><ele>802.0</ele><time>2026-04-18T08:16:27.125Z</time></trkpt><trkpt lat="37.8359317" lon="15.0979617"><ele>801.0</ele><time>2026-04-18T08:16:28.125Z</time></trkpt><trkpt lat="37.8360083" lon="15.09773"><ele>800.0</ele><time>2026-04-18T08:16:29.124Z</time></trkpt><trkpt lat="37.8360783" lon="15.09748"><ele>799.0</ele><time>2026-04-18T08:16:30.125Z</time></trkpt><trkpt lat="37.8361483" lon="15.0972333"><ele>799.0</ele><time>2026-04-18T08:16:31.125Z</time></trkpt><trkpt lat="37.8362283" lon="15.09698"><ele>799.0</ele><time>2026-04-18T08:16:32.125Z</time></trkpt><trkpt lat="37.836305" lon="15.0967283"><ele>799.0</ele><time>2026-04-18T08:16:33.124Z</time></trkpt><trkpt lat="37.83638" lon="15.09647"><ele>801.6666666666666</ele><time>2026-04-18T08:16:34.125Z</time></trkpt><trkpt lat="37.8364583" lon="15.0962133"><ele>804.3333333333333</ele><time>2026-04-18T08:16:35.125Z</time></trkpt><trkpt lat="37.8365317" lon="15.0959767"><ele>807.0</ele><time>2026-04-18T08:16:36.125Z</time></trkpt><trkpt lat="37.8366067" lon="15.095745"><ele>805.6666666666667</ele><time>2026-04-18T08:16:37.125Z</time></trkpt><trkpt lat="37.8366717" lon="15.0955183"><ele>804.3333333333334</ele><time>2026-04-18T08:16:38.125Z</time></trkpt><trkpt lat="37.8367433" lon="15.095295"><ele>803.0</ele><time>2026-04-18T08:16:39.124Z</time></trkpt><trkpt lat="37.8368117" lon="15.0950733"><ele>806.6666666666667</ele><time>2026-04-18T08:16:40.125Z</time></trkpt><trkpt lat="37.8368933" lon="15.0948567"><ele>810.3333333333333</ele><time>2026-04-18T08:16:41.125Z</time></trkpt><trkpt lat="37.836975" lon="15.094645"><ele>814.0</ele><time>2026-04-18T08:16:42.125Z</time></trkpt><trkpt lat="37.8370767" lon="15.09444"><ele>814.0</ele><time>2026-04-18T08:16:43.124Z</time></trkpt><trkpt lat="37.8371867" lon="15.09424"><ele>814.0</ele><time>2026-04-18T08:16:44.125Z</time></trkpt><trkpt lat="37.8373117" lon="15.094055"><ele>814.0</ele><time>2026-04-18T08:16:45.125Z</time></trkpt><trkpt lat="37.83745" lon="15.0938817"><ele>814.0</ele><time>2026-04-18T08:16:46.125Z</time></trkpt><trkpt lat="37.837605" lon="15.0937233"><ele>814.0</ele><time>2026-04-18T08:16:47.125Z</time></trkpt><trkpt lat="37.837755" lon="15.0935683"><ele>814.0</ele><time>2026-04-18T08:16:48.125Z</time></trkpt><trkpt lat="37.8379" lon="15.0934117"><ele>819.0</ele><time>2026-04-18T08:16:49.125Z</time></trkpt><trkpt lat="37.8380517" lon="15.09325"><ele>824.0</ele><time>2026-04-18T08:16:50.125Z</time></trkpt><trkpt lat="37.8381833" lon="15.0930917"><ele>829.0</ele><time>2026-04-18T08:16:51.125Z</time></trkpt><trkpt lat="37.8383183" lon="15.092945"><ele>829.0</ele><time>2026-04-18T08:16:52.125Z</time></trkpt><trkpt lat="37.838445" lon="15.0928117"><ele>829.0</ele><time>2026-04-18T08:16:53.125Z</time></trkpt><trkpt lat="37.8385533" lon="15.09269"><ele>829.0</ele><time>2026-04-18T08:16:54.125Z</time></trkpt><trkpt lat="37.8386583" lon="15.0925467"><ele>824.3333333333333</ele><time>2026-04-18T08:16:55.125Z</time></trkpt><trkpt lat="37.83875" lon="15.0923617"><ele>819.6666666666667</ele><time>2026-04-18T08:16:56.125Z</time></trkpt><trkpt lat="37.8388133" lon="15.092155"><ele>815.0</ele><time>2026-04-18T08:16:57.125Z</time></trkpt><trkpt lat="37.8388567" lon="15.0919233"><ele>815.0</ele><time>2026-04-18T08:16:58.125Z</time></trkpt><trkpt lat="37.8389033" lon="15.0916767"><ele>815.0</ele><time>2026-04-18T08:16:59.125Z</time></trkpt><trkpt lat="37.83895" lon="15.091425"><ele>815.0</ele><time>2026-04-18T08:17:00.123Z</time></trkpt><trkpt lat="37.838995" lon="15.0911617"><ele>817.3333333333334</ele><time>2026-04-18T08:17:01.125Z</time></trkpt><trkpt lat="37.8390433" lon="15.0909117"><ele>819.6666666666667</ele><time>2026-04-18T08:17:02.125Z</time></trkpt><trkpt lat="37.8390867" lon="15.0906617"><ele>822.0</ele><time>2026-04-18T08:17:03.125Z</time></trkpt><trkpt lat="37.8391217" lon="15.090435"><ele>826.0</ele><time>2026-04-18T08:17:04.125Z</time></trkpt><trkpt lat="37.8391533" lon="15.0902167"><ele>830.0</ele><time>2026-04-18T08:17:05.125Z</time></trkpt><trkpt lat="37.8391883" lon="15.09001"><ele>834.0</ele><time>2026-04-18T08:17:06.125Z</time></trkpt><trkpt lat="37.8392433" lon="15.0898183"><ele>834.3333333333333</ele><time>2026-04-18T08:17:07.125Z</time></trkpt><trkpt lat="37.839325" lon="15.0896417"><ele>834.6666666666666</ele><time>2026-04-18T08:17:08.124Z</time></trkpt><trkpt lat="37.8394433" lon="15.0894783"><ele>835.0</ele><time>2026-04-18T08:17:09.125Z</time></trkpt><trkpt lat="37.8395783" lon="15.0893383"><ele>835.0</ele><time>2026-04-18T08:17:10.125Z</time></trkpt><trkpt lat="37.8397167" lon="15.089205"><ele>835.0</ele><time>2026-04-18T08:17:11.125Z</time></trkpt><trkpt lat="37.8398583" lon="15.0890667"><ele>835.0</ele><time>2026-04-18T08:17:12.125Z</time></trkpt><trkpt lat="37.83999" lon="15.0889317"><ele>837.3333333333333</ele><time>2026-04-18T08:17:13.124Z</time></trkpt><trkpt lat="37.8401233" lon="15.0887883"><ele>839.6666666666667</ele><time>2026-04-18T08:17:14.125Z</time></trkpt><trkpt lat="37.8402683" lon="15.0886467"><ele>842.0</ele><time>2026-04-18T08:17:15.125Z</time></trkpt><trkpt lat="37.84041" lon="15.0885167"><ele>842.0</ele><time>2026-04-18T08:17:16.125Z</time></trkpt><trkpt lat="37.8405467" lon="15.0883733"><ele>842.0</ele><time>2026-04-18T08:17:17.125Z</time></trkpt><trkpt lat="37.8406783" lon="15.0882433"><ele>842.0</ele><time>2026-04-18T08:17:18.125Z</time></trkpt><trkpt lat="37.840795" lon="15.0881167"><ele>840.0</ele><time>2026-04-18T08:17:19.124Z</time></trkpt><trkpt lat="37.8408833" lon="15.08796"><ele>838.0</ele><time>2026-04-18T08:17:20.125Z</time></trkpt><trkpt lat="37.8409533" lon="15.0877767"><ele>836.0</ele><time>2026-04-18T08:17:21.125Z</time></trkpt><trkpt lat="37.8410217" lon="15.0875867"><ele>838.6666666666667</ele><time>2026-04-18T08:17:22.125Z</time></trkpt><trkpt lat="37.8411" lon="15.0873917"><ele>841.3333333333333</ele><time>2026-04-18T08:17:23.125Z</time></trkpt><trkpt lat="37.8411833" lon="15.087195"><ele>844.0</ele><time>2026-04-18T08:17:24.125Z</time></trkpt><trkpt lat="37.84126" lon="15.0869917"><ele>844.0</ele><time>2026-04-18T08:17:25.125Z</time></trkpt><trkpt lat="37.8413417" lon="15.0867917"><ele>844.0</ele><time>2026-04-18T08:17:26.125Z</time></trkpt><trkpt lat="37.8414217" lon="15.0865867"><ele>844.0</ele><time>2026-04-18T08:17:27.125Z</time></trkpt><trkpt lat="37.8415" lon="15.08639"><ele>846.6666666666666</ele><time>2026-04-18T08:17:28.125Z</time></trkpt><trkpt lat="37.8415667" lon="15.0861917"><ele>849.3333333333333</ele><time>2026-04-18T08:17:29.124Z</time></trkpt><trkpt lat="37.8416433" lon="15.0859933"><ele>852.0</ele><time>2026-04-18T08:17:30.125Z</time></trkpt><trkpt lat="37.8417267" lon="15.0857983"><ele>852.0</ele><time>2026-04-18T08:17:31.125Z</time></trkpt><trkpt lat="37.841815" lon="15.08561"><ele>852.0</ele><time>2026-04-18T08:17:32.125Z</time></trkpt><trkpt lat="37.84191" lon="15.085435"><ele>852.0</ele><time>2026-04-18T08:17:33.125Z</time></trkpt><trkpt lat="37.8420067" lon="15.08526"><ele>852.0</ele><time>2026-04-18T08:17:34.125Z</time></trkpt><trkpt lat="37.8421167" lon="15.0850917"><ele>852.0</ele><time>2026-04-18T08:17:35.125Z</time></trkpt><trkpt lat="37.8422233" lon="15.08492"><ele>852.0</ele><time>2026-04-18T08:17:36.124Z</time></trkpt><trkpt lat="37.8423417" lon="15.0847467"><ele>855.3333333333333</ele><time>2026-04-18T08:17:37.125Z</time></trkpt><trkpt lat="37.8424517" lon="15.0845783"><ele>858.6666666666666</ele><time>2026-04-18T08:17:38.125Z</time></trkpt><trkpt lat="37.842565" lon="15.0844083"><ele>862.0</ele><time>2026-04-18T08:17:39.125Z</time></trkpt><trkpt lat="37.8426767" lon="15.0842417"><ele>864.0</ele><time>2026-04-18T08:17:40.125Z</time></trkpt><trkpt lat="37.8427867" lon="15.0840717"><ele>866.0</ele><time>2026-04-18T08:17:41.125Z</time></trkpt><trkpt lat="37.8429017" lon="15.08391"><ele>868.0</ele><time>2026-04-18T08:17:42.125Z</time></trkpt><trkpt lat="37.8430067" lon="15.0837383"><ele>868.0</ele><time>2026-04-18T08:17:43.125Z</time></trkpt><trkpt lat="37.84311" lon="15.0835517"><ele>868.0</ele><time>2026-04-18T08:17:44.124Z</time></trkpt><trkpt lat="37.843205" lon="15.0833567"><ele>868.0</ele><time>2026-04-18T08:17:45.125Z</time></trkpt><trkpt lat="37.8432967" lon="15.0831583"><ele>865.3333333333333</ele><time>2026-04-18T08:17:46.125Z</time></trkpt><trkpt lat="37.843395" lon="15.0829667"><ele>862.6666666666667</ele><time>2026-04-18T08:17:47.125Z</time></trkpt><trkpt lat="37.84349" lon="15.0827733"><ele>860.0</ele><time>2026-04-18T08:17:48.124Z</time></trkpt><trkpt lat="37.8435817" lon="15.0826"><ele>860.0</ele><time>2026-04-18T08:17:49.125Z</time></trkpt><trkpt lat="37.8436617" lon="15.0824383"><ele>860.0</ele><time>2026-04-18T08:17:50.125Z</time></trkpt><trkpt lat="37.84374" lon="15.0822817"><ele>860.0</ele><time>2026-04-18T08:17:51.125Z</time></trkpt><trkpt lat="37.8438217" lon="15.0821417"><ele>860.0</ele><time>2026-04-18T08:17:52.125Z</time></trkpt><trkpt lat="37.8439167" lon="15.0820083"><ele>859.0</ele><time>2026-04-18T08:17:53.125Z</time></trkpt><trkpt lat="37.84402" lon="15.0819033"><ele>858.0</ele><time>2026-04-18T08:17:54.125Z</time></trkpt><trkpt lat="37.8441467" lon="15.081815"><ele>857.0</ele><time>2026-04-18T08:17:55.125Z</time></trkpt><trkpt lat="37.8442817" lon="15.081745"><ele>856.0</ele><time>2026-04-18T08:17:56.125Z</time></trkpt><trkpt lat="37.8444317" lon="15.0816617"><ele>859.3333333333333</ele><time>2026-04-18T08:17:57.125Z</time></trkpt><trkpt lat="37.8445833" lon="15.0815783"><ele>862.6666666666667</ele><time>2026-04-18T08:17:58.125Z</time></trkpt><trkpt lat="37.844725" lon="15.08148"><ele>866.0</ele><time>2026-04-18T08:17:59.124Z</time></trkpt><trkpt lat="37.84486" lon="15.0813517"><ele>866.0</ele><time>2026-04-18T08:18:00.125Z</time></trkpt><trkpt lat="37.8449817" lon="15.0812117"><ele>866.0</ele><time>2026-04-18T08:18:01.125Z</time></trkpt><trkpt lat="37.845105" lon="15.08107"><ele>866.0</ele><time>2026-04-18T08:18:02.124Z</time></trkpt><trkpt lat="37.84522" lon="15.0809367"><ele>863.3333333333334</ele><time>2026-04-18T08:18:03.125Z</time></trkpt><trkpt lat="37.8453167" lon="15.0807983"><ele>860.6666666666667</ele><time>2026-04-18T08:18:04.124Z</time></trkpt><trkpt lat="37.84541" lon="15.0806483"><ele>858.0</ele><time>2026-04-18T08:18:05.125Z</time></trkpt><trkpt lat="37.8454917" lon="15.080465"><ele>858.0</ele><time>2026-04-18T08:18:06.124Z</time></trkpt><trkpt lat="37.8455517" lon="15.0802583"><ele>858.0</ele><time>2026-04-18T08:18:07.124Z</time></trkpt><trkpt lat="37.8456083" lon="15.0800383"><ele>858.0</ele><time>2026-04-18T08:18:08.125Z</time></trkpt><trkpt lat="37.8456633" lon="15.0798133"><ele>858.6666666666667</ele><time>2026-04-18T08:18:09.125Z</time></trkpt><trkpt lat="37.84572" lon="15.0795817"><ele>859.3333333333334</ele><time>2026-04-18T08:18:10.125Z</time></trkpt><trkpt lat="37.8457833" lon="15.07934"><ele>860.0</ele><time>2026-04-18T08:18:11.125Z</time></trkpt><trkpt lat="37.845845" lon="15.0790983"><ele>861.3333333333334</ele><time>2026-04-18T08:18:12.125Z</time></trkpt><trkpt lat="37.8458983" lon="15.0788517"><ele>862.6666666666667</ele><time>2026-04-18T08:18:13.125Z</time></trkpt><trkpt lat="37.845955" lon="15.078595"><ele>864.0</ele><time>2026-04-18T08:18:14.125Z</time></trkpt><trkpt lat="37.8460217" lon="15.0783383"><ele>862.0</ele><time>2026-04-18T08:18:15.124Z</time></trkpt><trkpt lat="37.8460867" lon="15.0780817"><ele>860.0</ele><time>2026-04-18T08:18:16.125Z</time></trkpt><trkpt lat="37.8461483" lon="15.07782"><ele>858.0</ele><time>2026-04-18T08:18:17.125Z</time></trkpt><trkpt lat="37.8462183" lon="15.077555"><ele>860.6666666666667</ele><time>2026-04-18T08:18:18.125Z</time></trkpt><trkpt lat="37.8462833" lon="15.0772917"><ele>863.3333333333334</ele><time>2026-04-18T08:18:19.125Z</time></trkpt><trkpt lat="37.84635" lon="15.077025"><ele>866.0</ele><time>2026-04-18T08:18:20.125Z</time></trkpt><trkpt lat="37.8464183" lon="15.0767533"><ele>868.0</ele><time>2026-04-18T08:18:21.125Z</time></trkpt><trkpt lat="37.8464867" lon="15.0764767"><ele>870.0</ele><time>2026-04-18T08:18:22.125Z</time></trkpt><trkpt lat="37.8465517" lon="15.0761917"><ele>870.0</ele><time>2026-04-18T08:18:23.125Z</time></trkpt><trkpt lat="37.8466183" lon="15.0759067"><ele>870.0</ele><time>2026-04-18T08:18:24.124Z</time></trkpt><trkpt lat="37.8466867" lon="15.075625"><ele>872.5</ele><time>2026-04-18T08:18:25.125Z</time></trkpt><trkpt lat="37.8467533" lon="15.07535"><ele>875.0</ele><time>2026-04-18T08:18:26.125Z</time></trkpt><trkpt lat="37.846825" lon="15.075075"><ele>873.0</ele><time>2026-04-18T08:18:27.125Z</time></trkpt><trkpt lat="37.8468933" lon="15.074805"><ele>871.0</ele><time>2026-04-18T08:18:28.125Z</time></trkpt><trkpt lat="37.8469633" lon="15.0745333"><ele>871.0</ele><time>2026-04-18T08:18:29.125Z</time></trkpt><trkpt lat="37.8470317" lon="15.074255"><ele>871.0</ele><time>2026-04-18T08:18:30.125Z</time></trkpt><trkpt lat="37.8470867" lon="15.07398"><ele>873.3333333333333</ele><time>2026-04-18T08:18:31.125Z</time></trkpt><trkpt lat="37.8471267" lon="15.073715"><ele>875.6666666666667</ele><time>2026-04-18T08:18:32.124Z</time></trkpt><trkpt lat="37.8471633" lon="15.0734583"><ele>878.0</ele><time>2026-04-18T08:18:33.125Z</time></trkpt><trkpt lat="37.847195" lon="15.07322"><ele>879.0</ele><time>2026-04-18T08:18:34.125Z</time></trkpt><trkpt lat="37.8472333" lon="15.0729967"><ele>880.0</ele><time>2026-04-18T08:18:35.125Z</time></trkpt><trkpt lat="37.8472733" lon="15.0727833"><ele>881.0</ele><time>2026-04-18T08:18:36.125Z</time></trkpt><trkpt lat="37.8473217" lon="15.0725883"><ele>882.0</ele><time>2026-04-18T08:18:37.125Z</time></trkpt><trkpt lat="37.8474083" lon="15.072405"><ele>883.0</ele><time>2026-04-18T08:18:38.124Z</time></trkpt><trkpt lat="37.847515" lon="15.0722417"><ele>884.0</ele><time>2026-04-18T08:18:39.125Z</time></trkpt><trkpt lat="37.8476483" lon="15.0721"><ele>884.0</ele><time>2026-04-18T08:18:40.125Z</time></trkpt><trkpt lat="37.84779" lon="15.07195"><ele>884.0</ele><time>2026-04-18T08:18:41.125Z</time></trkpt><trkpt lat="37.8479317" lon="15.071795"><ele>884.0</ele><time>2026-04-18T08:18:42.124Z</time></trkpt><trkpt lat="37.8480767" lon="15.07164"><ele>883.0</ele><time>2026-04-18T08:18:43.125Z</time></trkpt><trkpt lat="37.84823" lon="15.07148"><ele>882.0</ele><time>2026-04-18T08:18:44.125Z</time></trkpt><trkpt lat="37.848385" lon="15.071305"><ele>881.0</ele><time>2026-04-18T08:18:45.125Z</time></trkpt><trkpt lat="37.84853" lon="15.071135"><ele>881.0</ele><time>2026-04-18T08:18:46.125Z</time></trkpt><trkpt lat="37.8486717" lon="15.070975"><ele>881.0</ele><time>2026-04-18T08:18:47.125Z</time></trkpt><trkpt lat="37.8488033" lon="15.0708333"><ele>881.0</ele><time>2026-04-18T08:18:48.125Z</time></trkpt><trkpt lat="37.8489283" lon="15.0706983"><ele>881.0</ele><time>2026-04-18T08:18:49.125Z</time></trkpt><trkpt lat="37.8490667" lon="15.0705917"><ele>881.0</ele><time>2026-04-18T08:18:50.124Z</time></trkpt><trkpt lat="37.8492217" lon="15.0705433"><ele>881.0</ele><time>2026-04-18T08:18:51.125Z</time></trkpt><trkpt lat="37.8493917" lon="15.0704933"><ele>881.0</ele><time>2026-04-18T08:18:52.125Z</time></trkpt><trkpt lat="37.8495733" lon="15.07045"><ele>881.0</ele><time>2026-04-18T08:18:53.125Z</time></trkpt><trkpt lat="37.8497617" lon="15.0704033"><ele>881.0</ele><time>2026-04-18T08:18:54.125Z</time></trkpt><trkpt lat="37.8499533" lon="15.07036"><ele>878.3333333333334</ele><time>2026-04-18T08:18:55.125Z</time></trkpt><trkpt lat="37.8501417" lon="15.0703133"><ele>875.6666666666667</ele><time>2026-04-18T08:18:56.125Z</time></trkpt><trkpt lat="37.8503133" lon="15.0702733"><ele>873.0</ele><time>2026-04-18T08:18:57.125Z</time></trkpt><trkpt lat="37.850485" lon="15.0702267"><ele>873.0</ele><time>2026-04-18T08:18:58.125Z</time></trkpt><trkpt lat="37.850635" lon="15.0701583"><ele>873.0</ele><time>2026-04-18T08:18:59.125Z</time></trkpt><trkpt lat="37.85076" lon="15.0700483"><ele>873.0</ele><time>2026-04-18T08:19:00.125Z</time></trkpt><trkpt lat="37.8508717" lon="15.06989"><ele>869.6666666666667</ele><time>2026-04-18T08:19:01.125Z</time></trkpt><trkpt lat="37.8509917" lon="15.0697183"><ele>866.3333333333334</ele><time>2026-04-18T08:19:02.125Z</time></trkpt><trkpt lat="37.85112" lon="15.0695433"><ele>863.0</ele><time>2026-04-18T08:19:03.125Z</time></trkpt><trkpt lat="37.8512567" lon="15.069365"><ele>863.0</ele><time>2026-04-18T08:19:04.125Z</time></trkpt><trkpt lat="37.8513883" lon="15.0691817"><ele>863.0</ele><time>2026-04-18T08:19:05.125Z</time></trkpt><trkpt lat="37.8515283" lon="15.069005"><ele>863.0</ele><time>2026-04-18T08:19:06.125Z</time></trkpt><trkpt lat="37.8516583" lon="15.0688317"><ele>864.0</ele><time>2026-04-18T08:19:07.125Z</time></trkpt><trkpt lat="37.85178" lon="15.0686733"><ele>865.0</ele><time>2026-04-18T08:19:08.125Z</time></trkpt><trkpt lat="37.8518883" lon="15.068515"><ele>866.0</ele><time>2026-04-18T08:19:09.125Z</time></trkpt><trkpt lat="37.85199" lon="15.0683517"><ele>862.6666666666667</ele><time>2026-04-18T08:19:10.125Z</time></trkpt><trkpt lat="37.852075" lon="15.068165"><ele>859.3333333333333</ele><time>2026-04-18T08:19:11.125Z</time></trkpt><trkpt lat="37.852145" lon="15.0679617"><ele>856.0</ele><time>2026-04-18T08:19:12.125Z</time></trkpt><trkpt lat="37.8522033" lon="15.0677433"><ele>856.0</ele><time>2026-04-18T08:19:13.124Z</time></trkpt><trkpt lat="37.8522583" lon="15.0675367"><ele>856.0</ele><time>2026-04-18T08:19:14.125Z</time></trkpt><trkpt lat="37.852325" lon="15.0673383"><ele>856.0</ele><time>2026-04-18T08:19:15.125Z</time></trkpt><trkpt lat="37.852395" lon="15.06714"><ele>855.6666666666666</ele><time>2026-04-18T08:19:16.124Z</time></trkpt><trkpt lat="37.8524917" lon="15.066945"><ele>855.3333333333333</ele><time>2026-04-18T08:19:17.125Z</time></trkpt><trkpt lat="37.85261" lon="15.0667617"><ele>855.0</ele><time>2026-04-18T08:19:18.125Z</time></trkpt><trkpt lat="37.852735" lon="15.066585"><ele>853.3333333333333</ele><time>2026-04-18T08:19:19.125Z</time></trkpt><trkpt lat="37.85287" lon="15.0664117"><ele>851.6666666666666</ele><time>2026-04-18T08:19:20.125Z</time></trkpt><trkpt lat="37.8529983" lon="15.0662417"><ele>850.0</ele><time>2026-04-18T08:19:21.125Z</time></trkpt><trkpt lat="37.85313" lon="15.06607"><ele>850.0</ele><time>2026-04-18T08:19:22.125Z</time></trkpt><trkpt lat="37.8532667" lon="15.0658983"><ele>850.0</ele><time>2026-04-18T08:19:23.125Z</time></trkpt><trkpt lat="37.8533967" lon="15.0657333"><ele>850.0</ele><time>2026-04-18T08:19:24.124Z</time></trkpt><trkpt lat="37.8535183" lon="15.0655733"><ele>848.6666666666666</ele><time>2026-04-18T08:19:25.125Z</time></trkpt><trkpt lat="37.853625" lon="15.0654217"><ele>847.3333333333333</ele><time>2026-04-18T08:19:26.125Z</time></trkpt><trkpt lat="37.8537133" lon="15.0652567"><ele>846.0</ele><time>2026-04-18T08:19:27.125Z</time></trkpt><trkpt lat="37.8537817" lon="15.0650667"><ele>846.0</ele><time>2026-04-18T08:19:28.125Z</time></trkpt><trkpt lat="37.8538317" lon="15.06486"><ele>846.0</ele><time>2026-04-18T08:19:29.125Z</time></trkpt><trkpt lat="37.8538783" lon="15.0646317"><ele>846.0</ele><time>2026-04-18T08:19:30.125Z</time></trkpt><trkpt lat="37.8539267" lon="15.0643967"><ele>846.0</ele><time>2026-04-18T08:19:31.124Z</time></trkpt><trkpt lat="37.8539767" lon="15.0641667"><ele>846.0</ele><time>2026-04-18T08:19:32.125Z</time></trkpt><trkpt lat="37.854025" lon="15.06395"><ele>846.0</ele><time>2026-04-18T08:19:33.125Z</time></trkpt><trkpt lat="37.8540783" lon="15.0637417"><ele>845.3333333333333</ele><time>2026-04-18T08:19:34.125Z</time></trkpt><trkpt lat="37.8541117" lon="15.0635517"><ele>844.6666666666666</ele><time>2026-04-18T08:19:35.124Z</time></trkpt><trkpt lat="37.8541233" lon="15.0633417"><ele>844.0</ele><time>2026-04-18T08:19:36.125Z</time></trkpt><trkpt lat="37.8541033" lon="15.0631267"><ele>844.0</ele><time>2026-04-18T08:19:37.125Z</time></trkpt><trkpt lat="37.85407" lon="15.0628883"><ele>844.0</ele><time>2026-04-18T08:19:38.125Z</time></trkpt><trkpt lat="37.8540417" lon="15.0626467"><ele>844.0</ele><time>2026-04-18T08:19:39.125Z</time></trkpt><trkpt lat="37.8540217" lon="15.0624083"><ele>843.3333333333333</ele><time>2026-04-18T08:19:40.124Z</time></trkpt><trkpt lat="37.8540167" lon="15.0621783"><ele>842.6666666666667</ele><time>2026-04-18T08:19:41.125Z</time></trkpt><trkpt lat="37.8540217" lon="15.061945"><ele>842.0</ele><time>2026-04-18T08:19:42.125Z</time></trkpt><trkpt lat="37.8540383" lon="15.0617217"><ele>841.6666666666667</ele><time>2026-04-18T08:19:43.125Z</time></trkpt><trkpt lat="37.8540633" lon="15.0614983"><ele>841.3333333333333</ele><time>2026-04-18T08:19:44.125Z</time></trkpt><trkpt lat="37.8540783" lon="15.0612833"><ele>841.0</ele><time>2026-04-18T08:19:45.125Z</time></trkpt><trkpt lat="37.8540883" lon="15.061075"><ele>841.0</ele><time>2026-04-18T08:19:46.125Z</time></trkpt><trkpt lat="37.8540767" lon="15.0608617"><ele>841.0</ele><time>2026-04-18T08:19:47.125Z</time></trkpt><trkpt lat="37.8540333" lon="15.06065"><ele>841.0</ele><time>2026-04-18T08:19:48.125Z</time></trkpt><trkpt lat="37.8539667" lon="15.0604317"><ele>841.6666666666666</ele><time>2026-04-18T08:19:49.125Z</time></trkpt><trkpt lat="37.85388" lon="15.0602117"><ele>842.3333333333333</ele><time>2026-04-18T08:19:50.125Z</time></trkpt><trkpt lat="37.853795" lon="15.05999"><ele>843.0</ele><time>2026-04-18T08:19:51.125Z</time></trkpt><trkpt lat="37.8537133" lon="15.059765"><ele>843.0</ele><time>2026-04-18T08:19:52.125Z</time></trkpt><trkpt lat="37.8536317" lon="15.0595467"><ele>843.0</ele><time>2026-04-18T08:19:53.125Z</time></trkpt><trkpt lat="37.8535573" lon="15.0593189"><ele>843.0</ele><time>2026-04-18T08:19:54.125Z</time></trkpt><trkpt lat="37.8534904" lon="15.0590874"><ele>845.0</ele><time>2026-04-18T08:19:55.125Z</time></trkpt><trkpt lat="37.853438" lon="15.0588462"><ele>847.0</ele><time>2026-04-18T08:19:56.125Z</time></trkpt><trkpt lat="37.8533936" lon="15.0585919"><ele>849.0</ele><time>2026-04-18T08:19:57.125Z</time></trkpt><trkpt lat="37.8533626" lon="15.0583349"><ele>848.6666666666667</ele><time>2026-04-18T08:19:58.125Z</time></trkpt><trkpt lat="37.8533392" lon="15.0580787"><ele>848.3333333333334</ele><time>2026-04-18T08:19:59.125Z</time></trkpt><trkpt lat="37.8533057" lon="15.0578168"><ele>848.0</ele><time>2026-04-18T08:20:00.125Z</time></trkpt><trkpt lat="37.8532641" lon="15.0575558"><ele>847.3333333333334</ele><time>2026-04-18T08:20:01.125Z</time></trkpt><trkpt lat="37.8532198" lon="15.0572886"><ele>846.6666666666667</ele><time>2026-04-18T08:20:02.125Z</time></trkpt><trkpt lat="37.8531785" lon="15.0570197"><ele>846.0</ele><time>2026-04-18T08:20:03.125Z</time></trkpt><trkpt lat="37.8531412" lon="15.0567465"><ele>846.0</ele><time>2026-04-18T08:20:04.125Z</time></trkpt><trkpt lat="37.8531054" lon="15.0564655"><ele>846.0</ele><time>2026-04-18T08:20:05.125Z</time></trkpt><trkpt lat="37.853069" lon="15.0561884"><ele>846.0</ele><time>2026-04-18T08:20:06.125Z</time></trkpt><trkpt lat="37.8530302" lon="15.0559095"><ele>846.0</ele><time>2026-04-18T08:20:07.125Z</time></trkpt><trkpt lat="37.852995" lon="15.055632"><ele>846.0</ele><time>2026-04-18T08:20:08.124Z</time></trkpt><trkpt lat="37.8529613" lon="15.0553574"><ele>846.0</ele><time>2026-04-18T08:20:09.125Z</time></trkpt><trkpt lat="37.8529231" lon="15.0550754"><ele>844.3333333333333</ele><time>2026-04-18T08:20:10.125Z</time></trkpt><trkpt lat="37.8528928" lon="15.0547991"><ele>842.6666666666666</ele><time>2026-04-18T08:20:11.125Z</time></trkpt><trkpt lat="37.8528571" lon="15.0545229"><ele>841.0</ele><time>2026-04-18T08:20:12.125Z</time></trkpt><trkpt lat="37.8528174" lon="15.0542506"><ele>840.3333333333333</ele><time>2026-04-18T08:20:13.125Z</time></trkpt><trkpt lat="37.8527809" lon="15.0539776"><ele>839.6666666666667</ele><time>2026-04-18T08:20:14.125Z</time></trkpt><trkpt lat="37.852742" lon="15.0536956"><ele>839.0</ele><time>2026-04-18T08:20:15.125Z</time></trkpt><trkpt lat="37.852701" lon="15.0534199"><ele>840.6666666666667</ele><time>2026-04-18T08:20:16.125Z</time></trkpt><trkpt lat="37.8526668" lon="15.0531544"><ele>842.3333333333333</ele><time>2026-04-18T08:20:17.125Z</time></trkpt><trkpt lat="37.8526369" lon="15.0528955"><ele>844.0</ele><time>2026-04-18T08:20:18.125Z</time></trkpt><trkpt lat="37.852607" lon="15.0526348"><ele>849.0</ele><time>2026-04-18T08:20:19.125Z</time></trkpt><trkpt lat="37.8525841" lon="15.052382"><ele>854.0</ele><time>2026-04-18T08:20:20.124Z</time></trkpt><trkpt lat="37.8525659" lon="15.0521472"><ele>859.0</ele><time>2026-04-18T08:20:21.125Z</time></trkpt><trkpt lat="37.8525567" lon="15.0519232"><ele>859.0</ele><time>2026-04-18T08:20:22.125Z</time></trkpt><trkpt lat="37.8525506" lon="15.0517006"><ele>859.0</ele><time>2026-04-18T08:20:23.125Z</time></trkpt><trkpt lat="37.8525563" lon="15.0514837"><ele>859.0</ele><time>2026-04-18T08:20:24.124Z</time></trkpt><trkpt lat="37.852585" lon="15.0512665"><ele>855.3333333333333</ele><time>2026-04-18T08:20:25.125Z</time></trkpt><trkpt lat="37.8526395" lon="15.0510501"><ele>851.6666666666667</ele><time>2026-04-18T08:20:26.125Z</time></trkpt><trkpt lat="37.8527133" lon="15.050825"><ele>848.0</ele><time>2026-04-18T08:20:27.125Z</time></trkpt><trkpt lat="37.852785" lon="15.0505833"><ele>848.0</ele><time>2026-04-18T08:20:28.125Z</time></trkpt><trkpt lat="37.8528583" lon="15.050335"><ele>848.0</ele><time>2026-04-18T08:20:29.125Z</time></trkpt><trkpt lat="37.85292" lon="15.05009"><ele>848.0</ele><time>2026-04-18T08:20:30.125Z</time></trkpt><trkpt lat="37.8529817" lon="15.0498367"><ele>848.6666666666667</ele><time>2026-04-18T08:20:31.125Z</time></trkpt><trkpt lat="37.8530483" lon="15.04958"><ele>849.3333333333333</ele><time>2026-04-18T08:20:32.125Z</time></trkpt><trkpt lat="37.85311" lon="15.0493217"><ele>850.0</ele><time>2026-04-18T08:20:33.125Z</time></trkpt><trkpt lat="37.8531817" lon="15.0490667"><ele>852.0</ele><time>2026-04-18T08:20:34.125Z</time></trkpt><trkpt lat="37.8532533" lon="15.0488133"><ele>854.0</ele><time>2026-04-18T08:20:35.125Z</time></trkpt><trkpt lat="37.853325" lon="15.0485617"><ele>856.0</ele><time>2026-04-18T08:20:36.125Z</time></trkpt><trkpt lat="37.8534017" lon="15.0483167"><ele>853.0</ele><time>2026-04-18T08:20:37.125Z</time></trkpt><trkpt lat="37.8534817" lon="15.0480683"><ele>850.0</ele><time>2026-04-18T08:20:38.124Z</time></trkpt><trkpt lat="37.8535717" lon="15.04782"><ele>847.0</ele><time>2026-04-18T08:20:39.125Z</time></trkpt><trkpt lat="37.8536517" lon="15.0475767"><ele>850.0</ele><time>2026-04-18T08:20:40.125Z</time></trkpt><trkpt lat="37.8537233" lon="15.0473367"><ele>853.0</ele><time>2026-04-18T08:20:41.124Z</time></trkpt><trkpt lat="37.8538" lon="15.0470883"><ele>856.0</ele><time>2026-04-18T08:20:42.125Z</time></trkpt><trkpt lat="37.8538767" lon="15.0468433"><ele>858.3333333333333</ele><time>2026-04-18T08:20:43.124Z</time></trkpt><trkpt lat="37.8539517" lon="15.04659"><ele>860.6666666666667</ele><time>2026-04-18T08:20:44.125Z</time></trkpt><trkpt lat="37.854025" lon="15.046335"><ele>863.0</ele><time>2026-04-18T08:20:45.125Z</time></trkpt><trkpt lat="37.854095" lon="15.0460867"><ele>863.0</ele><time>2026-04-18T08:20:46.124Z</time></trkpt><trkpt lat="37.8541683" lon="15.0458367"><ele>863.0</ele><time>2026-04-18T08:20:47.124Z</time></trkpt><trkpt lat="37.8542467" lon="15.0455867"><ele>863.0</ele><time>2026-04-18T08:20:48.125Z</time></trkpt><trkpt lat="37.85433" lon="15.0453383"><ele>862.3333333333334</ele><time>2026-04-18T08:20:49.125Z</time></trkpt><trkpt lat="37.8544033" lon="15.0450983"><ele>861.6666666666667</ele><time>2026-04-18T08:20:50.125Z</time></trkpt><trkpt lat="37.854475" lon="15.0448533"><ele>861.0</ele><time>2026-04-18T08:20:51.125Z</time></trkpt><trkpt lat="37.8545567" lon="15.0446117"><ele>861.0</ele><time>2026-04-18T08:20:52.125Z</time></trkpt><trkpt lat="37.854635" lon="15.0443683"><ele>861.0</ele><time>2026-04-18T08:20:53.125Z</time></trkpt><trkpt lat="37.8547033" lon="15.0441383"><ele>861.0</ele><time>2026-04-18T08:20:54.125Z</time></trkpt><trkpt lat="37.8547667" lon="15.043935"><ele>864.0</ele><time>2026-04-18T08:20:55.125Z</time></trkpt><trkpt lat="37.85483" lon="15.0437417"><ele>867.0</ele><time>2026-04-18T08:20:56.125Z</time></trkpt><trkpt lat="37.8548867" lon="15.0435517"><ele>870.0</ele><time>2026-04-18T08:20:57.125Z</time></trkpt><trkpt lat="37.85493" lon="15.043365"><ele>868.25</ele><time>2026-04-18T08:20:58.125Z</time></trkpt><trkpt lat="37.854945" lon="15.0431783"><ele>866.5</ele><time>2026-04-18T08:20:59.125Z</time></trkpt><trkpt lat="37.8549217" lon="15.0430067"><ele>864.75</ele><time>2026-04-18T08:21:00.125Z</time></trkpt><trkpt lat="37.8548567" lon="15.04284"><ele>863.0</ele><time>2026-04-18T08:21:01.125Z</time></trkpt><trkpt lat="37.85476" lon="15.0426883"><ele>863.0</ele><time>2026-04-18T08:21:02.124Z</time></trkpt><trkpt lat="37.854645" lon="15.04255"><ele>863.0</ele><time>2026-04-18T08:21:03.125Z</time></trkpt><trkpt lat="37.8545133" lon="15.0424033"><ele>863.0</ele><time>2026-04-18T08:21:04.125Z</time></trkpt><trkpt lat="37.8544" lon="15.0422667"><ele>860.6666666666667</ele><time>2026-04-18T08:21:05.125Z</time></trkpt><trkpt lat="37.8542933" lon="15.0421267"><ele>858.3333333333333</ele><time>2026-04-18T08:21:06.125Z</time></trkpt><trkpt lat="37.8542083" lon="15.0419683"><ele>856.0</ele><time>2026-04-18T08:21:07.125Z</time></trkpt><trkpt lat="37.854155" lon="15.041795"><ele>862.0</ele><time>2026-04-18T08:21:08.125Z</time></trkpt><trkpt lat="37.8541317" lon="15.0416017"><ele>868.0</ele><time>2026-04-18T08:21:09.125Z</time></trkpt><trkpt lat="37.8541317" lon="15.04138"><ele>874.0</ele><time>2026-04-18T08:21:10.125Z</time></trkpt><trkpt lat="37.8541333" lon="15.0411383"><ele>874.0</ele><time>2026-04-18T08:21:11.125Z</time></trkpt><trkpt lat="37.8541333" lon="15.0408933"><ele>874.0</ele><time>2026-04-18T08:21:12.125Z</time></trkpt><trkpt lat="37.8541333" lon="15.0406417"><ele>874.0</ele><time>2026-04-18T08:21:13.125Z</time></trkpt><trkpt lat="37.8541433" lon="15.040385"><ele>874.6666666666666</ele><time>2026-04-18T08:21:14.125Z</time></trkpt><trkpt lat="37.854145" lon="15.040125"><ele>875.3333333333333</ele><time>2026-04-18T08:21:15.124Z</time></trkpt><trkpt lat="37.854145" lon="15.0398633"><ele>876.0</ele><time>2026-04-18T08:21:16.125Z</time></trkpt><trkpt lat="37.8541483" lon="15.0395933"><ele>876.0</ele><time>2026-04-18T08:21:17.125Z</time></trkpt><trkpt lat="37.8541517" lon="15.039315"><ele>876.0</ele><time>2026-04-18T08:21:18.125Z</time></trkpt><trkpt lat="37.85416" lon="15.0390217"><ele>877.0</ele><time>2026-04-18T08:21:19.125Z</time></trkpt><trkpt lat="37.8541633" lon="15.038735"><ele>878.0</ele><time>2026-04-18T08:21:20.125Z</time></trkpt><trkpt lat="37.8541817" lon="15.0384417"><ele>877.6666666666667</ele><time>2026-04-18T08:21:21.125Z</time></trkpt><trkpt lat="37.8541917" lon="15.03816"><ele>877.3333333333333</ele><time>2026-04-18T08:21:22.125Z</time></trkpt><trkpt lat="37.8542083" lon="15.0378983"><ele>877.0</ele><time>2026-04-18T08:21:23.125Z</time></trkpt><trkpt lat="37.85422" lon="15.0376433"><ele>876.0</ele><time>2026-04-18T08:21:24.125Z</time></trkpt><trkpt lat="37.8542367" lon="15.0374183"><ele>875.0</ele><time>2026-04-18T08:21:25.124Z</time></trkpt><trkpt lat="37.8542383" lon="15.0372167"><ele>874.0</ele><time>2026-04-18T08:21:26.125Z</time></trkpt><trkpt lat="37.8542367" lon="15.0370417"><ele>874.0</ele><time>2026-04-18T08:21:27.125Z</time></trkpt><trkpt lat="37.8542083" lon="15.03687"><ele>874.0</ele><time>2026-04-18T08:21:28.125Z</time></trkpt><trkpt lat="37.8541733" lon="15.036695"><ele>874.0</ele><time>2026-04-18T08:21:29.125Z</time></trkpt><trkpt lat="37.85411" lon="15.0365317"><ele>874.0</ele><time>2026-04-18T08:21:30.125Z</time></trkpt><trkpt lat="37.8540183" lon="15.03637"><ele>873.6666666666666</ele><time>2026-04-18T08:21:31.125Z</time></trkpt><trkpt lat="37.8539033" lon="15.0362233"><ele>873.3333333333333</ele><time>2026-04-18T08:21:32.125Z</time></trkpt><trkpt lat="37.8537683" lon="15.036075"><ele>873.0</ele><time>2026-04-18T08:21:33.125Z</time></trkpt><trkpt lat="37.8536333" lon="15.03591"><ele>874.6666666666667</ele><time>2026-04-18T08:21:34.125Z</time></trkpt><trkpt lat="37.8535067" lon="15.035755"><ele>876.3333333333334</ele><time>2026-04-18T08:21:35.125Z</time></trkpt><trkpt lat="37.853405" lon="15.0356167"><ele>878.0</ele><time>2026-04-18T08:21:36.125Z</time></trkpt><trkpt lat="37.8533233" lon="15.03548"><ele>881.25</ele><time>2026-04-18T08:21:37.125Z</time></trkpt><trkpt lat="37.8532633" lon="15.0353217"><ele>884.5</ele><time>2026-04-18T08:21:38.125Z</time></trkpt><trkpt lat="37.8532317" lon="15.0351483"><ele>887.75</ele><time>2026-04-18T08:21:39.125Z</time></trkpt><trkpt lat="37.8532433" lon="15.0349767"><ele>891.0</ele><time>2026-04-18T08:21:40.124Z</time></trkpt><trkpt lat="37.8532633" lon="15.0347917"><ele>889.25</ele><time>2026-04-18T08:21:41.125Z</time></trkpt><trkpt lat="37.8533183" lon="15.0346183"><ele>887.5</ele><time>2026-04-18T08:21:42.125Z</time></trkpt><trkpt lat="37.8533917" lon="15.03445"><ele>885.75</ele><time>2026-04-18T08:21:43.125Z</time></trkpt><trkpt lat="37.8534533" lon="15.0342767"><ele>884.0</ele><time>2026-04-18T08:21:44.125Z</time></trkpt><trkpt lat="37.8534867" lon="15.0340933"><ele>884.0</ele><time>2026-04-18T08:21:45.125Z</time></trkpt><trkpt lat="37.8534933" lon="15.0338983"><ele>884.0</ele><time>2026-04-18T08:21:46.125Z</time></trkpt><trkpt lat="37.8534733" lon="15.033695"><ele>884.0</ele><time>2026-04-18T08:21:47.125Z</time></trkpt><trkpt lat="37.8534517" lon="15.03349"><ele>885.0</ele><time>2026-04-18T08:21:48.124Z</time></trkpt><trkpt lat="37.8534317" lon="15.0332833"><ele>886.0</ele><time>2026-04-18T08:21:49.125Z</time></trkpt><trkpt lat="37.8534433" lon="15.03309"><ele>887.0</ele><time>2026-04-18T08:21:50.125Z</time></trkpt><trkpt lat="37.85346" lon="15.0328983"><ele>887.0</ele><time>2026-04-18T08:21:51.125Z</time></trkpt><trkpt lat="37.853485" lon="15.0327317"><ele>887.0</ele><time>2026-04-18T08:21:52.124Z</time></trkpt><trkpt lat="37.85352" lon="15.0325583"><ele>887.0</ele><time>2026-04-18T08:21:53.125Z</time></trkpt><trkpt lat="37.8535433" lon="15.0323783"><ele>887.0</ele><time>2026-04-18T08:21:54.125Z</time></trkpt><trkpt lat="37.8535517" lon="15.0322017"><ele>885.75</ele><time>2026-04-18T08:21:55.125Z</time></trkpt><trkpt lat="37.8535233" lon="15.0320283"><ele>884.5</ele><time>2026-04-18T08:21:56.124Z</time></trkpt><trkpt lat="37.8534867" lon="15.03187"><ele>883.25</ele><time>2026-04-18T08:21:57.125Z</time></trkpt><trkpt lat="37.8534567" lon="15.0317383"><ele>882.0</ele><time>2026-04-18T08:21:58.125Z</time></trkpt><trkpt lat="37.8534367" lon="15.0315917"><ele>884.5</ele><time>2026-04-18T08:21:59.125Z</time></trkpt><trkpt lat="37.85344" lon="15.0314467"><ele>887.0</ele><time>2026-04-18T08:22:00.125Z</time></trkpt><trkpt lat="37.8534767" lon="15.0313033"><ele>889.5</ele><time>2026-04-18T08:22:01.125Z</time></trkpt><trkpt lat="37.8535317" lon="15.0311767"><ele>892.0</ele><time>2026-04-18T08:22:02.125Z</time></trkpt><trkpt lat="37.8535917" lon="15.03106"><ele>892.0</ele><time>2026-04-18T08:22:03.124Z</time></trkpt><trkpt lat="37.853665" lon="15.0309483"><ele>892.0</ele><time>2026-04-18T08:22:04.125Z</time></trkpt><trkpt lat="37.8537317" lon="15.0308383"><ele>892.0</ele><time>2026-04-18T08:22:05.125Z</time></trkpt><trkpt lat="37.85379" lon="15.0307217"><ele>892.0</ele><time>2026-04-18T08:22:06.125Z</time></trkpt><trkpt lat="37.8538483" lon="15.0306083"><ele>892.0</ele><time>2026-04-18T08:22:07.125Z</time></trkpt><trkpt lat="37.8538967" lon="15.0304967"><ele>893.75</ele><time>2026-04-18T08:22:08.125Z</time></trkpt><trkpt lat="37.85393" lon="15.0303733"><ele>895.5</ele><time>2026-04-18T08:22:09.125Z</time></trkpt><trkpt lat="37.8539133" lon="15.030215"><ele>897.25</ele><time>2026-04-18T08:22:10.124Z</time></trkpt><trkpt lat="37.8538683" lon="15.0300583"><ele>899.0</ele><time>2026-04-18T08:22:11.125Z</time></trkpt><trkpt lat="37.853805" lon="15.02988"><ele>899.0</ele><time>2026-04-18T08:22:12.125Z</time></trkpt><trkpt lat="37.8537317" lon="15.029655"><ele>899.0</ele><time>2026-04-18T08:22:13.125Z</time></trkpt><trkpt lat="37.8536617" lon="15.0294067"><ele>899.0</ele><time>2026-04-18T08:22:14.125Z</time></trkpt><trkpt lat="37.85361" lon="15.0291917"><ele>900.3333333333334</ele><time>2026-04-18T08:22:15.125Z</time></trkpt><trkpt lat="37.8535767" lon="15.028975"><ele>901.6666666666667</ele><time>2026-04-18T08:22:16.125Z</time></trkpt><trkpt lat="37.8535767" lon="15.0287583"><ele>903.0</ele><time>2026-04-18T08:22:17.125Z</time></trkpt><trkpt lat="37.8535833" lon="15.0285383"><ele>903.0</ele><time>2026-04-18T08:22:18.125Z</time></trkpt><trkpt lat="37.8536067" lon="15.02832"><ele>903.0</ele><time>2026-04-18T08:22:19.125Z</time></trkpt><trkpt lat="37.8536767" lon="15.0281083"><ele>903.0</ele><time>2026-04-18T08:22:20.125Z</time></trkpt><trkpt lat="37.8537617" lon="15.0279117"><ele>905.6666666666667</ele><time>2026-04-18T08:22:21.125Z</time></trkpt><trkpt lat="37.8538467" lon="15.0277167"><ele>908.3333333333334</ele><time>2026-04-18T08:22:22.125Z</time></trkpt><trkpt lat="37.853925" lon="15.0275317"><ele>911.0</ele><time>2026-04-18T08:22:23.125Z</time></trkpt><trkpt lat="37.85398" lon="15.027335"><ele>912.6666666666667</ele><time>2026-04-18T08:22:24.125Z</time></trkpt><trkpt lat="37.8540183" lon="15.02712"><ele>914.3333333333333</ele><time>2026-04-18T08:22:25.125Z</time></trkpt><trkpt lat="37.854035" lon="15.0269"><ele>916.0</ele><time>2026-04-18T08:22:26.125Z</time></trkpt><trkpt lat="37.85405" lon="15.0266817"><ele>919.0</ele><time>2026-04-18T08:22:27.125Z</time></trkpt><trkpt lat="37.8540667" lon="15.0264783"><ele>922.0</ele><time>2026-04-18T08:22:28.125Z</time></trkpt><trkpt lat="37.8541117" lon="15.026275"><ele>925.0</ele><time>2026-04-18T08:22:29.125Z</time></trkpt><trkpt lat="37.8541867" lon="15.0260733"><ele>925.0</ele><time>2026-04-18T08:22:30.125Z</time></trkpt><trkpt lat="37.854285" lon="15.0258733"><ele>925.0</ele><time>2026-04-18T08:22:31.125Z</time></trkpt><trkpt lat="37.8543833" lon="15.0256617"><ele>925.0</ele><time>2026-04-18T08:22:32.125Z</time></trkpt><trkpt lat="37.8544717" lon="15.025445"><ele>921.3333333333333</ele><time>2026-04-18T08:22:33.125Z</time></trkpt><trkpt lat="37.8545683" lon="15.025235"><ele>917.6666666666667</ele><time>2026-04-18T08:22:34.125Z</time></trkpt><trkpt lat="37.8546717" lon="15.0250283"><ele>914.0</ele><time>2026-04-18T08:22:35.125Z</time></trkpt><trkpt lat="37.85477" lon="15.024825"><ele>914.0</ele><time>2026-04-18T08:22:36.125Z</time></trkpt><trkpt lat="37.8548517" lon="15.0246333"><ele>914.0</ele><time>2026-04-18T08:22:37.125Z</time></trkpt><trkpt lat="37.85491" lon="15.0244283"><ele>914.0</ele><time>2026-04-18T08:22:38.124Z</time></trkpt><trkpt lat="37.85495" lon="15.0242033"><ele>912.3333333333334</ele><time>2026-04-18T08:22:39.125Z</time></trkpt><trkpt lat="37.8549717" lon="15.02397"><ele>910.6666666666667</ele><time>2026-04-18T08:22:40.125Z</time></trkpt><trkpt lat="37.855" lon="15.02374"><ele>909.0</ele><time>2026-04-18T08:22:41.125Z</time></trkpt><trkpt lat="37.8550167" lon="15.0235117"><ele>908.6666666666667</ele><time>2026-04-18T08:22:42.125Z</time></trkpt><trkpt lat="37.8550167" lon="15.0232767"><ele>908.3333333333334</ele><time>2026-04-18T08:22:43.125Z</time></trkpt><trkpt lat="37.854985" lon="15.023035"><ele>908.0</ele><time>2026-04-18T08:22:44.125Z</time></trkpt><trkpt lat="37.8549417" lon="15.02278"><ele>908.0</ele><time>2026-04-18T08:22:45.125Z</time></trkpt><trkpt lat="37.8548767" lon="15.0225267"><ele>908.0</ele><time>2026-04-18T08:22:46.125Z</time></trkpt><trkpt lat="37.85482" lon="15.0222717"><ele>908.0</ele><time>2026-04-18T08:22:47.124Z</time></trkpt><trkpt lat="37.85476" lon="15.0220417"><ele>907.3333333333334</ele><time>2026-04-18T08:22:48.125Z</time></trkpt><trkpt lat="37.85469" lon="15.0218267"><ele>906.6666666666667</ele><time>2026-04-18T08:22:49.125Z</time></trkpt><trkpt lat="37.8546167" lon="15.0216317"><ele>906.0</ele><time>2026-04-18T08:22:50.125Z</time></trkpt><trkpt lat="37.8545117" lon="15.0214583"><ele>905.3333333333333</ele><time>2026-04-18T08:22:51.125Z</time></trkpt><trkpt lat="37.8543817" lon="15.0212783"><ele>904.6666666666666</ele><time>2026-04-18T08:22:52.125Z</time></trkpt><trkpt lat="37.854235" lon="15.0210933"><ele>904.0</ele><time>2026-04-18T08:22:53.125Z</time></trkpt><trkpt lat="37.8540867" lon="15.0209033"><ele>907.3333333333333</ele><time>2026-04-18T08:22:54.125Z</time></trkpt><trkpt lat="37.8539333" lon="15.020715"><ele>910.6666666666667</ele><time>2026-04-18T08:22:55.125Z</time></trkpt><trkpt lat="37.85379" lon="15.02053"><ele>914.0</ele><time>2026-04-18T08:22:56.125Z</time></trkpt><trkpt lat="37.853645" lon="15.0203433"><ele>914.0</ele><time>2026-04-18T08:22:57.125Z</time></trkpt><trkpt lat="37.8535117" lon="15.020165"><ele>914.0</ele><time>2026-04-18T08:22:58.125Z</time></trkpt><trkpt lat="37.85338" lon="15.0200033"><ele>914.0</ele><time>2026-04-18T08:22:59.125Z</time></trkpt><trkpt lat="37.8532533" lon="15.01985"><ele>916.25</ele><time>2026-04-18T08:23:00.125Z</time></trkpt><trkpt lat="37.8531483" lon="15.0197083"><ele>918.5</ele><time>2026-04-18T08:23:01.125Z</time></trkpt><trkpt lat="37.85305" lon="15.0195533"><ele>920.75</ele><time>2026-04-18T08:23:02.125Z</time></trkpt><trkpt lat="37.8529783" lon="15.01941"><ele>923.0</ele><time>2026-04-18T08:23:03.124Z</time></trkpt><trkpt lat="37.8529367" lon="15.0192467"><ele>924.0</ele><time>2026-04-18T08:23:04.124Z</time></trkpt><trkpt lat="37.8529483" lon="15.0190567"><ele>925.0</ele><time>2026-04-18T08:23:05.125Z</time></trkpt><trkpt lat="37.8529883" lon="15.0188533"><ele>926.0</ele><time>2026-04-18T08:23:06.125Z</time></trkpt><trkpt lat="37.8530317" lon="15.0186483"><ele>926.0</ele><time>2026-04-18T08:23:07.125Z</time></trkpt><trkpt lat="37.8530767" lon="15.0184483"><ele>926.0</ele><time>2026-04-18T08:23:08.125Z</time></trkpt><trkpt lat="37.8531183" lon="15.0182533"><ele>926.0</ele><time>2026-04-18T08:23:09.125Z</time></trkpt><trkpt lat="37.8531683" lon="15.0180883"><ele>927.75</ele><time>2026-04-18T08:23:10.124Z</time></trkpt><trkpt lat="37.8532517" lon="15.01795"><ele>929.5</ele><time>2026-04-18T08:23:11.125Z</time></trkpt><trkpt lat="37.8533767" lon="15.0178383"><ele>931.25</ele><time>2026-04-18T08:23:12.125Z</time></trkpt><trkpt lat="37.853515" lon="15.017745"><ele>933.0</ele><time>2026-04-18T08:23:13.125Z</time></trkpt><trkpt lat="37.8536517" lon="15.0176533"><ele>933.0</ele><time>2026-04-18T08:23:14.125Z</time></trkpt><trkpt lat="37.8538083" lon="15.01755"><ele>933.0</ele><time>2026-04-18T08:23:15.125Z</time></trkpt><trkpt lat="37.8539567" lon="15.0174267"><ele>933.0</ele><time>2026-04-18T08:23:16.125Z</time></trkpt><trkpt lat="37.8540933" lon="15.017295"><ele>934.3333333333333</ele><time>2026-04-18T08:23:17.125Z</time></trkpt><trkpt lat="37.8542" lon="15.0171633"><ele>935.6666666666666</ele><time>2026-04-18T08:23:18.125Z</time></trkpt><trkpt lat="37.8542983" lon="15.0170133"><ele>937.0</ele><time>2026-04-18T08:23:19.125Z</time></trkpt><trkpt lat="37.8543667" lon="15.01684"><ele>938.0</ele><time>2026-04-18T08:23:20.124Z</time></trkpt><trkpt lat="37.854395" lon="15.016635"><ele>939.0</ele><time>2026-04-18T08:23:21.125Z</time></trkpt><trkpt lat="37.8544017" lon="15.0163883"><ele>940.0</ele><time>2026-04-18T08:23:22.125Z</time></trkpt><trkpt lat="37.85442" lon="15.0161283"><ele>940.0</ele><time>2026-04-18T08:23:23.125Z</time></trkpt><trkpt lat="37.85445" lon="15.0158467"><ele>940.0</ele><time>2026-04-18T08:23:24.125Z</time></trkpt><trkpt lat="37.8544817" lon="15.01557"><ele>940.0</ele><time>2026-04-18T08:23:25.125Z</time></trkpt><trkpt lat="37.8545167" lon="15.01532"><ele>940.3333333333333</ele><time>2026-04-18T08:23:26.125Z</time></trkpt><trkpt lat="37.8545183" lon="15.01508"><ele>940.6666666666667</ele><time>2026-04-18T08:23:27.125Z</time></trkpt><trkpt lat="37.8544933" lon="15.0148533"><ele>941.0</ele><time>2026-04-18T08:23:28.125Z</time></trkpt><trkpt lat="37.8544217" lon="15.01465"><ele>940.3333333333334</ele><time>2026-04-18T08:23:29.125Z</time></trkpt><trkpt lat="37.8543267" lon="15.0144567"><ele>939.6666666666667</ele><time>2026-04-18T08:23:30.125Z</time></trkpt><trkpt lat="37.85424" lon="15.0142617"><ele>939.0</ele><time>2026-04-18T08:23:31.125Z</time></trkpt><trkpt lat="37.8541783" lon="15.014025"><ele>943.3333333333333</ele><time>2026-04-18T08:23:32.125Z</time></trkpt><trkpt lat="37.8541417" lon="15.0137667"><ele>947.6666666666666</ele><time>2026-04-18T08:23:33.125Z</time></trkpt><trkpt lat="37.8541217" lon="15.0134983"><ele>952.0</ele><time>2026-04-18T08:23:34.125Z</time></trkpt><trkpt lat="37.8540917" lon="15.0132117"><ele>953.5</ele><time>2026-04-18T08:23:35.125Z</time></trkpt><trkpt lat="37.85405" lon="15.0129"><ele>955.0</ele><time>2026-04-18T08:23:36.125Z</time></trkpt><trkpt lat="37.8540033" lon="15.0125817"><ele>955.0</ele><time>2026-04-18T08:23:37.125Z</time></trkpt><trkpt lat="37.8539633" lon="15.0122617"><ele>955.0</ele><time>2026-04-18T08:23:38.125Z</time></trkpt><trkpt lat="37.8539333" lon="15.0119683"><ele>955.0</ele><time>2026-04-18T08:23:39.125Z</time></trkpt><trkpt lat="37.8539083" lon="15.0116867"><ele>955.0</ele><time>2026-04-18T08:23:40.125Z</time></trkpt><trkpt lat="37.8539067" lon="15.0114267"><ele>955.0</ele><time>2026-04-18T08:23:41.125Z</time></trkpt><trkpt lat="37.8539083" lon="15.01115"><ele>954.6666666666666</ele><time>2026-04-18T08:23:42.125Z</time></trkpt><trkpt lat="37.8539583" lon="15.0108783"><ele>954.3333333333333</ele><time>2026-04-18T08:23:43.125Z</time></trkpt><trkpt lat="37.8540367" lon="15.0106117"><ele>954.0</ele><time>2026-04-18T08:23:44.125Z</time></trkpt><trkpt lat="37.8541133" lon="15.010345"><ele>954.0</ele><time>2026-04-18T08:23:45.125Z</time></trkpt><trkpt lat="37.8541933" lon="15.010085"><ele>954.0</ele><time>2026-04-18T08:23:46.125Z</time></trkpt><trkpt lat="37.8542633" lon="15.0098367"><ele>954.0</ele><time>2026-04-18T08:23:47.125Z</time></trkpt><trkpt lat="37.8543067" lon="15.009575"><ele>952.3333333333333</ele><time>2026-04-18T08:23:48.125Z</time></trkpt><trkpt lat="37.85433" lon="15.0092967"><ele>950.6666666666666</ele><time>2026-04-18T08:23:49.125Z</time></trkpt><trkpt lat="37.8543267" lon="15.0090083"><ele>949.0</ele><time>2026-04-18T08:23:50.125Z</time></trkpt><trkpt lat="37.854325" lon="15.00871"><ele>949.0</ele><time>2026-04-18T08:23:51.125Z</time></trkpt><trkpt lat="37.8543267" lon="15.0084083"><ele>949.0</ele><time>2026-04-18T08:23:52.125Z</time></trkpt><trkpt lat="37.8543217" lon="15.0081033"><ele>948.0</ele><time>2026-04-18T08:23:53.125Z</time></trkpt><trkpt lat="37.8543133" lon="15.0077867"><ele>947.0</ele><time>2026-04-18T08:23:54.125Z</time></trkpt><trkpt lat="37.854305" lon="15.007475"><ele>946.5</ele><time>2026-04-18T08:23:55.125Z</time></trkpt><trkpt lat="37.8542983" lon="15.00716"><ele>946.0</ele><time>2026-04-18T08:23:56.124Z</time></trkpt><trkpt lat="37.85428" lon="15.0068467"><ele>950.5</ele><time>2026-04-18T08:23:57.125Z</time></trkpt><trkpt lat="37.8542767" lon="15.0065467"><ele>955.0</ele><time>2026-04-18T08:23:58.124Z</time></trkpt><trkpt lat="37.8542617" lon="15.0062617"><ele>955.0</ele><time>2026-04-18T08:23:59.125Z</time></trkpt><trkpt lat="37.8542517" lon="15.0059867"><ele>955.0</ele><time>2026-04-18T08:24:00.125Z</time></trkpt><trkpt lat="37.85424" lon="15.0057067"><ele>955.0</ele><time>2026-04-18T08:24:01.125Z</time></trkpt><trkpt lat="37.8542317" lon="15.0054283"><ele>954.3333333333333</ele><time>2026-04-18T08:24:02.125Z</time></trkpt><trkpt lat="37.854225" lon="15.0051567"><ele>953.6666666666667</ele><time>2026-04-18T08:24:03.125Z</time></trkpt><trkpt lat="37.85421" lon="15.0048983"><ele>953.0</ele><time>2026-04-18T08:24:04.125Z</time></trkpt><trkpt lat="37.8542117" lon="15.0046583"><ele>953.0</ele><time>2026-04-18T08:24:05.125Z</time></trkpt><trkpt lat="37.85422" lon="15.0044383"><ele>953.0</ele><time>2026-04-18T08:24:06.124Z</time></trkpt><trkpt lat="37.8542617" lon="15.0042217"><ele>953.0</ele><time>2026-04-18T08:24:07.125Z</time></trkpt><trkpt lat="37.854345" lon="15.0040183"><ele>950.0</ele><time>2026-04-18T08:24:08.125Z</time></trkpt><trkpt lat="37.8544617" lon="15.0038267"><ele>947.0</ele><time>2026-04-18T08:24:09.125Z</time></trkpt><trkpt lat="37.8545967" lon="15.0036717"><ele>944.0</ele><time>2026-04-18T08:24:10.125Z</time></trkpt><trkpt lat="37.85473" lon="15.0035367"><ele>944.0</ele><time>2026-04-18T08:24:11.125Z</time></trkpt><trkpt lat="37.8548633" lon="15.0033917"><ele>944.0</ele><time>2026-04-18T08:24:12.125Z</time></trkpt><trkpt lat="37.8549833" lon="15.0032183"><ele>944.0</ele><time>2026-04-18T08:24:13.125Z</time></trkpt><trkpt lat="37.8550867" lon="15.00302"><ele>944.0</ele><time>2026-04-18T08:24:14.125Z</time></trkpt><trkpt lat="37.855165" lon="15.00279"><ele>944.0</ele><time>2026-04-18T08:24:15.125Z</time></trkpt><trkpt lat="37.85525" lon="15.0025517"><ele>944.0</ele><time>2026-04-18T08:24:16.125Z</time></trkpt><trkpt lat="37.855335" lon="15.0023217"><ele>944.0</ele><time>2026-04-18T08:24:17.125Z</time></trkpt><trkpt lat="37.8554083" lon="15.00211"><ele>944.0</ele><time>2026-04-18T08:24:18.125Z</time></trkpt><trkpt lat="37.855495" lon="15.0019017"><ele>944.0</ele><time>2026-04-18T08:24:19.125Z</time></trkpt><trkpt lat="37.8555683" lon="15.0016983"><ele>945.3333333333334</ele><time>2026-04-18T08:24:20.125Z</time></trkpt><trkpt lat="37.8556433" lon="15.00149"><ele>946.6666666666667</ele><time>2026-04-18T08:24:21.125Z</time></trkpt><trkpt lat="37.85573" lon="15.001275"><ele>948.0</ele><time>2026-04-18T08:24:22.125Z</time></trkpt><trkpt lat="37.8558083" lon="15.0010633"><ele>948.0</ele><time>2026-04-18T08:24:23.125Z</time></trkpt><trkpt lat="37.8558767" lon="15.0008567"><ele>948.0</ele><time>2026-04-18T08:24:24.125Z</time></trkpt><trkpt lat="37.8559367" lon="15.0006583"><ele>948.0</ele><time>2026-04-18T08:24:25.125Z</time></trkpt><trkpt lat="37.855975" lon="15.0004367"><ele>946.6666666666667</ele><time>2026-04-18T08:24:26.125Z</time></trkpt><trkpt lat="37.855965" lon="15.0001933"><ele>945.3333333333334</ele><time>2026-04-18T08:24:27.125Z</time></trkpt><trkpt lat="37.8559467" lon="14.9999417"><ele>944.0</ele><time>2026-04-18T08:24:28.125Z</time></trkpt><trkpt lat="37.8559283" lon="14.999685"><ele>944.0</ele><time>2026-04-18T08:24:29.125Z</time></trkpt><trkpt lat="37.855915" lon="14.9994283"><ele>944.0</ele><time>2026-04-18T08:24:30.125Z</time></trkpt><trkpt lat="37.8558967" lon="14.9991633"><ele>944.0</ele><time>2026-04-18T08:24:31.125Z</time></trkpt><trkpt lat="37.8558767" lon="14.9988967"><ele>943.0</ele><time>2026-04-18T08:24:32.125Z</time></trkpt><trkpt lat="37.855855" lon="14.9986317"><ele>942.0</ele><time>2026-04-18T08:24:33.125Z</time></trkpt><trkpt lat="37.855835" lon="14.99837"><ele>941.0</ele><time>2026-04-18T08:24:34.125Z</time></trkpt><trkpt lat="37.85581" lon="14.9981283"><ele>941.0</ele><time>2026-04-18T08:24:35.125Z</time></trkpt><trkpt lat="37.8558" lon="14.9978983"><ele>941.0</ele><time>2026-04-18T08:24:36.125Z</time></trkpt><trkpt lat="37.8557867" lon="14.9976767"><ele>941.0</ele><time>2026-04-18T08:24:37.125Z</time></trkpt><trkpt lat="37.8557883" lon="14.9974583"><ele>940.6666666666667</ele><time>2026-04-18T08:24:38.125Z</time></trkpt><trkpt lat="37.8558017" lon="14.9972467"><ele>940.3333333333333</ele><time>2026-04-18T08:24:39.124Z</time></trkpt><trkpt lat="37.8558467" lon="14.9970367"><ele>940.0</ele><time>2026-04-18T08:24:40.125Z</time></trkpt><trkpt lat="37.8559217" lon="14.99682"><ele>935.3333333333333</ele><time>2026-04-18T08:24:41.124Z</time></trkpt><trkpt lat="37.8560033" lon="14.9965917"><ele>930.6666666666667</ele><time>2026-04-18T08:24:42.125Z</time></trkpt><trkpt lat="37.856085" lon="14.996355"><ele>926.0</ele><time>2026-04-18T08:24:43.125Z</time></trkpt><trkpt lat="37.8561683" lon="14.99612"><ele>926.0</ele><time>2026-04-18T08:24:44.125Z</time></trkpt><trkpt lat="37.8562433" lon="14.9958817"><ele>926.0</ele><time>2026-04-18T08:24:45.125Z</time></trkpt><trkpt lat="37.856315" lon="14.995655"><ele>926.0</ele><time>2026-04-18T08:24:46.125Z</time></trkpt><trkpt lat="37.8563867" lon="14.9954417"><ele>925.3333333333334</ele><time>2026-04-18T08:24:47.125Z</time></trkpt><trkpt lat="37.8564567" lon="14.995235"><ele>924.6666666666667</ele><time>2026-04-18T08:24:48.125Z</time></trkpt><trkpt lat="37.8565267" lon="14.9950417"><ele>924.0</ele><time>2026-04-18T08:24:49.125Z</time></trkpt><trkpt lat="37.8565917" lon="14.9948567"><ele>925.3333333333333</ele><time>2026-04-18T08:24:50.125Z</time></trkpt><trkpt lat="37.85664" lon="14.9946767"><ele>926.6666666666666</ele><time>2026-04-18T08:24:51.125Z</time></trkpt><trkpt lat="37.8566667" lon="14.9944917"><ele>928.0</ele><time>2026-04-18T08:24:52.125Z</time></trkpt><trkpt lat="37.8566717" lon="14.9942817"><ele>927.6666666666666</ele><time>2026-04-18T08:24:53.125Z</time></trkpt><trkpt lat="37.8566617" lon="14.9940767"><ele>927.3333333333333</ele><time>2026-04-18T08:24:54.125Z</time></trkpt><trkpt lat="37.8566417" lon="14.9938567"><ele>927.0</ele><time>2026-04-18T08:24:55.125Z</time></trkpt><trkpt lat="37.8566267" lon="14.9936117"><ele>927.0</ele><time>2026-04-18T08:24:56.125Z</time></trkpt><trkpt lat="37.8566067" lon="14.99334"><ele>927.0</ele><time>2026-04-18T08:24:57.125Z</time></trkpt><trkpt lat="37.8565967" lon="14.9930633"><ele>927.0</ele><time>2026-04-18T08:24:58.125Z</time></trkpt><trkpt lat="37.85658" lon="14.9927683"><ele>924.0</ele><time>2026-04-18T08:24:59.125Z</time></trkpt><trkpt lat="37.8565733" lon="14.99247"><ele>921.0</ele><time>2026-04-18T08:25:00.125Z</time></trkpt><trkpt lat="37.8565483" lon="14.99216"><ele>921.0</ele><time>2026-04-18T08:25:01.125Z</time></trkpt><trkpt lat="37.856525" lon="14.9918617"><ele>921.0</ele><time>2026-04-18T08:25:02.125Z</time></trkpt><trkpt lat="37.856515" lon="14.99157"><ele>919.5</ele><time>2026-04-18T08:25:03.125Z</time></trkpt><trkpt lat="37.856505" lon="14.9912767"><ele>918.0</ele><time>2026-04-18T08:25:04.125Z</time></trkpt><trkpt lat="37.8564867" lon="14.9909817"><ele>919.0</ele><time>2026-04-18T08:25:05.125Z</time></trkpt><trkpt lat="37.8564683" lon="14.990715"><ele>920.0</ele><time>2026-04-18T08:25:06.124Z</time></trkpt><trkpt lat="37.8564467" lon="14.9904683"><ele>921.0</ele><time>2026-04-18T08:25:07.124Z</time></trkpt><trkpt lat="37.8564283" lon="14.99023"><ele>921.0</ele><time>2026-04-18T08:25:08.125Z</time></trkpt><trkpt lat="37.8564217" lon="14.9900133"><ele>921.0</ele><time>2026-04-18T08:25:09.125Z</time></trkpt><trkpt lat="37.8564067" lon="14.9898117"><ele>921.0</ele><time>2026-04-18T08:25:10.125Z</time></trkpt><trkpt lat="37.85639" lon="14.989625"><ele>922.0</ele><time>2026-04-18T08:25:11.125Z</time></trkpt><trkpt lat="37.8563367" lon="14.9894433"><ele>923.0</ele><time>2026-04-18T08:25:12.124Z</time></trkpt><trkpt lat="37.8562567" lon="14.9892833"><ele>924.0</ele><time>2026-04-18T08:25:13.125Z</time></trkpt><trkpt lat="37.856155" lon="14.98913"><ele>924.0</ele><time>2026-04-18T08:25:14.125Z</time></trkpt><trkpt lat="37.8560317" lon="14.9889583"><ele>924.0</ele><time>2026-04-18T08:25:15.124Z</time></trkpt><trkpt lat="37.8559083" lon="14.98879"><ele>924.0</ele><time>2026-04-18T08:25:16.125Z</time></trkpt><trkpt lat="37.8557917" lon="14.9886267"><ele>924.75</ele><time>2026-04-18T08:25:17.125Z</time></trkpt><trkpt lat="37.855685" lon="14.988475"><ele>925.5</ele><time>2026-04-18T08:25:18.125Z</time></trkpt><trkpt lat="37.855595" lon="14.98833"><ele>926.25</ele><time>2026-04-18T08:25:19.125Z</time></trkpt><trkpt lat="37.855515" lon="14.988185"><ele>927.0</ele><time>2026-04-18T08:25:20.124Z</time></trkpt><trkpt lat="37.8554617" lon="14.9880267"><ele>927.0</ele><time>2026-04-18T08:25:21.125Z</time></trkpt><trkpt lat="37.855435" lon="14.9878483"><ele>927.0</ele><time>2026-04-18T08:25:22.125Z</time></trkpt><trkpt lat="37.8554333" lon="14.9876667"><ele>927.0</ele><time>2026-04-18T08:25:23.125Z</time></trkpt><trkpt lat="37.85547" lon="14.9875017"><ele>927.0</ele><time>2026-04-18T08:25:24.125Z</time></trkpt><trkpt lat="37.8555317" lon="14.9873283"><ele>925.6666666666667</ele><time>2026-04-18T08:25:25.125Z</time></trkpt><trkpt lat="37.8556067" lon="14.9871317"><ele>924.3333333333334</ele><time>2026-04-18T08:25:26.125Z</time></trkpt><trkpt lat="37.8556833" lon="14.9869183"><ele>923.0</ele><time>2026-04-18T08:25:27.125Z</time></trkpt><trkpt lat="37.85577" lon="14.986695"><ele>922.3333333333334</ele><time>2026-04-18T08:25:28.124Z</time></trkpt><trkpt lat="37.8558517" lon="14.98646"><ele>921.6666666666667</ele><time>2026-04-18T08:25:29.125Z</time></trkpt><trkpt lat="37.8559317" lon="14.9862417"><ele>921.0</ele><time>2026-04-18T08:25:30.124Z</time></trkpt><trkpt lat="37.8559967" lon="14.98605"><ele>917.3333333333333</ele><time>2026-04-18T08:25:31.125Z</time></trkpt><trkpt lat="37.85607" lon="14.9858567"><ele>913.6666666666666</ele><time>2026-04-18T08:25:32.125Z</time></trkpt><trkpt lat="37.85611" lon="14.9856683"><ele>910.0</ele><time>2026-04-18T08:25:33.125Z</time></trkpt><trkpt lat="37.8561233" lon="14.98547"><ele>909.0</ele><time>2026-04-18T08:25:34.124Z</time></trkpt><trkpt lat="37.8561117" lon="14.9852583"><ele>908.0</ele><time>2026-04-18T08:25:35.125Z</time></trkpt><trkpt lat="37.85607" lon="14.9850283"><ele>907.0</ele><time>2026-04-18T08:25:36.125Z</time></trkpt><trkpt lat="37.8560033" lon="14.9847833"><ele>909.0</ele><time>2026-04-18T08:25:37.125Z</time></trkpt><trkpt lat="37.8559183" lon="14.98453"><ele>911.0</ele><time>2026-04-18T08:25:38.125Z</time></trkpt><trkpt lat="37.855835" lon="14.984265"><ele>913.0</ele><time>2026-04-18T08:25:39.125Z</time></trkpt><trkpt lat="37.8557617" lon="14.9840033"><ele>913.0</ele><time>2026-04-18T08:25:40.125Z</time></trkpt><trkpt lat="37.855695" lon="14.983765"><ele>913.0</ele><time>2026-04-18T08:25:41.125Z</time></trkpt><trkpt lat="37.8556267" lon="14.9835267"><ele>913.0</ele><time>2026-04-18T08:25:42.125Z</time></trkpt><trkpt lat="37.8555483" lon="14.9832883"><ele>910.6666666666666</ele><time>2026-04-18T08:25:43.124Z</time></trkpt><trkpt lat="37.8554467" lon="14.9830633"><ele>908.3333333333333</ele><time>2026-04-18T08:25:44.125Z</time></trkpt><trkpt lat="37.8553217" lon="14.9828383"><ele>906.0</ele><time>2026-04-18T08:25:45.125Z</time></trkpt><trkpt lat="37.8552033" lon="14.9826167"><ele>909.0</ele><time>2026-04-18T08:25:46.125Z</time></trkpt><trkpt lat="37.8551" lon="14.9823883"><ele>912.0</ele><time>2026-04-18T08:25:47.125Z</time></trkpt><trkpt lat="37.85501" lon="14.98215"><ele>915.0</ele><time>2026-04-18T08:25:48.125Z</time></trkpt><trkpt lat="37.8549283" lon="14.9819"><ele>913.6666666666667</ele><time>2026-04-18T08:25:49.125Z</time></trkpt><trkpt lat="37.854865" lon="14.9816383"><ele>912.3333333333334</ele><time>2026-04-18T08:25:50.125Z</time></trkpt><trkpt lat="37.8548" lon="14.9813733"><ele>911.0</ele><time>2026-04-18T08:25:51.125Z</time></trkpt><trkpt lat="37.85473" lon="14.9811017"><ele>909.6666666666667</ele><time>2026-04-18T08:25:52.125Z</time></trkpt><trkpt lat="37.8546633" lon="14.9808383"><ele>908.3333333333333</ele><time>2026-04-18T08:25:53.125Z</time></trkpt><trkpt lat="37.854595" lon="14.9805717"><ele>907.0</ele><time>2026-04-18T08:25:54.125Z</time></trkpt><trkpt lat="37.8545267" lon="14.9803"><ele>907.0</ele><time>2026-04-18T08:25:55.125Z</time></trkpt><trkpt lat="37.85446" lon="14.9800383"><ele>907.0</ele><time>2026-04-18T08:25:56.125Z</time></trkpt><trkpt lat="37.8544033" lon="14.979775"><ele>907.0</ele><time>2026-04-18T08:25:57.125Z</time></trkpt><trkpt lat="37.854355" lon="14.9795317"><ele>907.0</ele><time>2026-04-18T08:25:58.125Z</time></trkpt><trkpt lat="37.8543317" lon="14.9792967"><ele>907.0</ele><time>2026-04-18T08:25:59.125Z</time></trkpt><trkpt lat="37.854325" lon="14.9790517"><ele>907.0</ele><time>2026-04-18T08:26:00.125Z</time></trkpt><trkpt lat="37.8543517" lon="14.9788017"><ele>908.3333333333333</ele><time>2026-04-18T08:26:01.125Z</time></trkpt><trkpt lat="37.8544033" lon="14.9785483"><ele>909.6666666666667</ele><time>2026-04-18T08:26:02.125Z</time></trkpt><trkpt lat="37.85445" lon="14.9782883"><ele>911.0</ele><time>2026-04-18T08:26:03.125Z</time></trkpt><trkpt lat="37.854495" lon="14.9780167"><ele>911.5</ele><time>2026-04-18T08:26:04.125Z</time></trkpt><trkpt lat="37.8545333" lon="14.9777417"><ele>912.0</ele><time>2026-04-18T08:26:05.125Z</time></trkpt><trkpt lat="37.8545767" lon="14.9774567"><ele>912.5</ele><time>2026-04-18T08:26:06.125Z</time></trkpt><trkpt lat="37.8546183" lon="14.97717"><ele>913.0</ele><time>2026-04-18T08:26:07.125Z</time></trkpt><trkpt lat="37.854665" lon="14.976885"><ele>911.5</ele><time>2026-04-18T08:26:08.125Z</time></trkpt><trkpt lat="37.8547" lon="14.9766017"><ele>910.0</ele><time>2026-04-18T08:26:09.125Z</time></trkpt><trkpt lat="37.8547383" lon="14.97632"><ele>910.0</ele><time>2026-04-18T08:26:10.124Z</time></trkpt><trkpt lat="37.854775" lon="14.97604"><ele>910.0</ele><time>2026-04-18T08:26:11.124Z</time></trkpt><trkpt lat="37.8548167" lon="14.975765"><ele>910.0</ele><time>2026-04-18T08:26:12.124Z</time></trkpt><trkpt lat="37.8548617" lon="14.97551"><ele>910.0</ele><time>2026-04-18T08:26:13.124Z</time></trkpt><trkpt lat="37.8549133" lon="14.9752517"><ele>910.0</ele><time>2026-04-18T08:26:14.124Z</time></trkpt><trkpt lat="37.8549817" lon="14.975005"><ele>910.0</ele><time>2026-04-18T08:26:15.124Z</time></trkpt><trkpt lat="37.85506" lon="14.974765"><ele>907.0</ele><time>2026-04-18T08:26:16.124Z</time></trkpt><trkpt lat="37.855125" lon="14.9745367"><ele>904.0</ele><time>2026-04-18T08:26:17.124Z</time></trkpt><trkpt lat="37.8551767" lon="14.9742983"><ele>901.0</ele><time>2026-04-18T08:26:18.124Z</time></trkpt><trkpt lat="37.8552083" lon="14.974055"><ele>900.0</ele><time>2026-04-18T08:26:19.124Z</time></trkpt><trkpt lat="37.8552183" lon="14.973805"><ele>899.0</ele><time>2026-04-18T08:26:20.123Z</time></trkpt><trkpt lat="37.8552167" lon="14.9735317"><ele>898.0</ele><time>2026-04-18T08:26:21.124Z</time></trkpt><trkpt lat="37.8552083" lon="14.97325"><ele>897.6666666666666</ele><time>2026-04-18T08:26:22.124Z</time></trkpt><trkpt lat="37.8552067" lon="14.972985"><ele>897.3333333333333</ele><time>2026-04-18T08:26:23.124Z</time></trkpt><trkpt lat="37.855195" lon="14.9727283"><ele>897.0</ele><time>2026-04-18T08:26:24.124Z</time></trkpt><trkpt lat="37.8551883" lon="14.9724917"><ele>895.6666666666667</ele><time>2026-04-18T08:26:25.124Z</time></trkpt><trkpt lat="37.855185" lon="14.9722533"><ele>894.3333333333334</ele><time>2026-04-18T08:26:26.124Z</time></trkpt><trkpt lat="37.8551917" lon="14.97202"><ele>893.0</ele><time>2026-04-18T08:26:27.124Z</time></trkpt><trkpt lat="37.8552217" lon="14.9717983"><ele>895.3333333333334</ele><time>2026-04-18T08:26:28.124Z</time></trkpt><trkpt lat="37.8552783" lon="14.971595"><ele>897.6666666666667</ele><time>2026-04-18T08:26:29.124Z</time></trkpt><trkpt lat="37.855365" lon="14.9714033"><ele>900.0</ele><time>2026-04-18T08:26:30.124Z</time></trkpt><trkpt lat="37.855465" lon="14.9712167"><ele>900.0</ele><time>2026-04-18T08:26:31.124Z</time></trkpt><trkpt lat="37.85557" lon="14.97103"><ele>900.0</ele><time>2026-04-18T08:26:32.124Z</time></trkpt><trkpt lat="37.8556717" lon="14.9708567"><ele>900.0</ele><time>2026-04-18T08:26:33.124Z</time></trkpt><trkpt lat="37.855765" lon="14.970685"><ele>902.0</ele><time>2026-04-18T08:26:34.124Z</time></trkpt><trkpt lat="37.85585" lon="14.9705117"><ele>904.0</ele><time>2026-04-18T08:26:35.124Z</time></trkpt><trkpt lat="37.8559067" lon="14.9703167"><ele>906.0</ele><time>2026-04-18T08:26:36.124Z</time></trkpt><trkpt lat="37.8559383" lon="14.970105"><ele>906.3333333333333</ele><time>2026-04-18T08:26:37.124Z</time></trkpt><trkpt lat="37.8559433" lon="14.96987"><ele>906.6666666666666</ele><time>2026-04-18T08:26:38.124Z</time></trkpt><trkpt lat="37.8559317" lon="14.969625"><ele>907.0</ele><time>2026-04-18T08:26:39.124Z</time></trkpt><trkpt lat="37.8559267" lon="14.9693617"><ele>906.0</ele><time>2026-04-18T08:26:40.123Z</time></trkpt><trkpt lat="37.8559283" lon="14.9691"><ele>905.0</ele><time>2026-04-18T08:26:41.124Z</time></trkpt><trkpt lat="37.8559233" lon="14.9688267"><ele>904.0</ele><time>2026-04-18T08:26:42.124Z</time></trkpt><trkpt lat="37.855915" lon="14.968555"><ele>905.3333333333333</ele><time>2026-04-18T08:26:43.124Z</time></trkpt><trkpt lat="37.85591" lon="14.96828"><ele>906.6666666666667</ele><time>2026-04-18T08:26:44.124Z</time></trkpt><trkpt lat="37.85591" lon="14.9680083"><ele>908.0</ele><time>2026-04-18T08:26:45.124Z</time></trkpt><trkpt lat="37.85591" lon="14.967755"><ele>909.3333333333334</ele><time>2026-04-18T08:26:46.123Z</time></trkpt><trkpt lat="37.8559067" lon="14.9675067"><ele>910.6666666666667</ele><time>2026-04-18T08:26:47.124Z</time></trkpt><trkpt lat="37.855925" lon="14.96726"><ele>912.0</ele><time>2026-04-18T08:26:48.124Z</time></trkpt><trkpt lat="37.8559383" lon="14.9670133"><ele>912.0</ele><time>2026-04-18T08:26:49.124Z</time></trkpt><trkpt lat="37.8559383" lon="14.9667667"><ele>912.0</ele><time>2026-04-18T08:26:50.124Z</time></trkpt><trkpt lat="37.85595" lon="14.9665233"><ele>912.0</ele><time>2026-04-18T08:26:51.124Z</time></trkpt><trkpt lat="37.855965" lon="14.96629"><ele>908.3333333333333</ele><time>2026-04-18T08:26:52.124Z</time></trkpt><trkpt lat="37.8559667" lon="14.9660583"><ele>904.6666666666666</ele><time>2026-04-18T08:26:53.124Z</time></trkpt><trkpt lat="37.8559667" lon="14.9658383"><ele>901.0</ele><time>2026-04-18T08:26:54.124Z</time></trkpt><trkpt lat="37.8559683" lon="14.9656267"><ele>900.3333333333333</ele><time>2026-04-18T08:26:55.124Z</time></trkpt><trkpt lat="37.855975" lon="14.9654183"><ele>899.6666666666667</ele><time>2026-04-18T08:26:56.124Z</time></trkpt><trkpt lat="37.8559667" lon="14.9652217"><ele>899.0</ele><time>2026-04-18T08:26:57.124Z</time></trkpt><trkpt lat="37.8559183" lon="14.96503"><ele>901.3333333333334</ele><time>2026-04-18T08:26:58.124Z</time></trkpt><trkpt lat="37.855845" lon="14.964835"><ele>903.6666666666667</ele><time>2026-04-18T08:26:59.124Z</time></trkpt><trkpt lat="37.855755" lon="14.9646433"><ele>906.0</ele><time>2026-04-18T08:27:00.123Z</time></trkpt><trkpt lat="37.8556617" lon="14.96444"><ele>906.0</ele><time>2026-04-18T08:27:01.124Z</time></trkpt><trkpt lat="37.85557" lon="14.9642383"><ele>906.0</ele><time>2026-04-18T08:27:02.124Z</time></trkpt><trkpt lat="37.8554833" lon="14.9640367"><ele>906.0</ele><time>2026-04-18T08:27:03.124Z</time></trkpt><trkpt lat="37.8554033" lon="14.9638433"><ele>904.6666666666667</ele><time>2026-04-18T08:27:04.124Z</time></trkpt><trkpt lat="37.85531" lon="14.9636517"><ele>903.3333333333334</ele><time>2026-04-18T08:27:05.124Z</time></trkpt><trkpt lat="37.8552417" lon="14.9634683"><ele>902.0</ele><time>2026-04-18T08:27:06.124Z</time></trkpt><trkpt lat="37.8551867" lon="14.96327"><ele>900.6666666666667</ele><time>2026-04-18T08:27:07.124Z</time></trkpt><trkpt lat="37.8551717" lon="14.9630617"><ele>899.3333333333333</ele><time>2026-04-18T08:27:08.124Z</time></trkpt><trkpt lat="37.8551917" lon="14.9628467"><ele>898.0</ele><time>2026-04-18T08:27:09.124Z</time></trkpt><trkpt lat="37.8552417" lon="14.9626317"><ele>897.0</ele><time>2026-04-18T08:27:10.124Z</time></trkpt><trkpt lat="37.855305" lon="14.9624067"><ele>896.0</ele><time>2026-04-18T08:27:11.124Z</time></trkpt><trkpt lat="37.855365" lon="14.9621917"><ele>895.0</ele><time>2026-04-18T08:27:12.124Z</time></trkpt><trkpt lat="37.85542" lon="14.9619767"><ele>895.0</ele><time>2026-04-18T08:27:13.124Z</time></trkpt><trkpt lat="37.8554483" lon="14.9617533"><ele>895.0</ele><time>2026-04-18T08:27:14.123Z</time></trkpt><trkpt lat="37.855455" lon="14.9615117"><ele>895.0</ele><time>2026-04-18T08:27:15.124Z</time></trkpt><trkpt lat="37.8554583" lon="14.96127"><ele>896.6666666666666</ele><time>2026-04-18T08:27:16.124Z</time></trkpt><trkpt lat="37.8554533" lon="14.9610183"><ele>898.3333333333333</ele><time>2026-04-18T08:27:17.124Z</time></trkpt><trkpt lat="37.8554567" lon="14.9607683"><ele>900.0</ele><time>2026-04-18T08:27:18.123Z</time></trkpt><trkpt lat="37.8554583" lon="14.960515"><ele>900.0</ele><time>2026-04-18T08:27:19.124Z</time></trkpt><trkpt lat="37.85546" lon="14.960265"><ele>900.0</ele><time>2026-04-18T08:27:20.124Z</time></trkpt><trkpt lat="37.85546" lon="14.96003"><ele>900.0</ele><time>2026-04-18T08:27:21.124Z</time></trkpt><trkpt lat="37.8554383" lon="14.9597883"><ele>900.0</ele><time>2026-04-18T08:27:22.124Z</time></trkpt><trkpt lat="37.855405" lon="14.959555"><ele>900.0</ele><time>2026-04-18T08:27:23.124Z</time></trkpt><trkpt lat="37.8553533" lon="14.959315"><ele>900.0</ele><time>2026-04-18T08:27:24.124Z</time></trkpt><trkpt lat="37.8553033" lon="14.9590767"><ele>898.0</ele><time>2026-04-18T08:27:25.124Z</time></trkpt><trkpt lat="37.855255" lon="14.95882"><ele>896.0</ele><time>2026-04-18T08:27:26.124Z</time></trkpt><trkpt lat="37.85521" lon="14.958575"><ele>894.0</ele><time>2026-04-18T08:27:27.123Z</time></trkpt><trkpt lat="37.8551583" lon="14.9583467"><ele>897.0</ele><time>2026-04-18T08:27:28.124Z</time></trkpt><trkpt lat="37.855115" lon="14.958115"><ele>900.0</ele><time>2026-04-18T08:27:29.124Z</time></trkpt><trkpt lat="37.8550667" lon="14.95788"><ele>903.0</ele><time>2026-04-18T08:27:30.124Z</time></trkpt><trkpt lat="37.855035" lon="14.9576533"><ele>901.3333333333333</ele><time>2026-04-18T08:27:31.124Z</time></trkpt><trkpt lat="37.8550167" lon="14.957425"><ele>899.6666666666666</ele><time>2026-04-18T08:27:32.124Z</time></trkpt><trkpt lat="37.855015" lon="14.957185"><ele>898.0</ele><time>2026-04-18T08:27:33.124Z</time></trkpt><trkpt lat="37.85504" lon="14.9569333"><ele>897.0</ele><time>2026-04-18T08:27:34.124Z</time></trkpt><trkpt lat="37.8550667" lon="14.9566783"><ele>896.0</ele><time>2026-04-18T08:27:35.123Z</time></trkpt><trkpt lat="37.8550967" lon="14.9564167"><ele>895.0</ele><time>2026-04-18T08:27:36.124Z</time></trkpt><trkpt lat="37.8551217" lon="14.956155"><ele>892.6666666666666</ele><time>2026-04-18T08:27:37.124Z</time></trkpt><trkpt lat="37.85514" lon="14.955895"><ele>890.3333333333333</ele><time>2026-04-18T08:27:38.124Z</time></trkpt><trkpt lat="37.8551617" lon="14.95565"><ele>888.0</ele><time>2026-04-18T08:27:39.124Z</time></trkpt><trkpt lat="37.8551817" lon="14.9553967"><ele>887.0</ele><time>2026-04-18T08:27:40.124Z</time></trkpt><trkpt lat="37.855195" lon="14.9551467"><ele>886.0</ele><time>2026-04-18T08:27:41.123Z</time></trkpt><trkpt lat="37.8552183" lon="14.9549033"><ele>885.0</ele><time>2026-04-18T08:27:42.123Z</time></trkpt><trkpt lat="37.8552433" lon="14.95467"><ele>884.6666666666667</ele><time>2026-04-18T08:27:43.124Z</time></trkpt><trkpt lat="37.8552683" lon="14.9544383"><ele>884.3333333333334</ele><time>2026-04-18T08:27:44.124Z</time></trkpt><trkpt lat="37.8552883" lon="14.9542133"><ele>884.0</ele><time>2026-04-18T08:27:45.124Z</time></trkpt><trkpt lat="37.8553083" lon="14.9539983"><ele>884.0</ele><time>2026-04-18T08:27:46.123Z</time></trkpt><trkpt lat="37.8553283" lon="14.953785"><ele>884.0</ele><time>2026-04-18T08:27:47.124Z</time></trkpt><trkpt lat="37.85534" lon="14.953575"><ele>884.0</ele><time>2026-04-18T08:27:48.124Z</time></trkpt><trkpt lat="37.8553383" lon="14.953365"><ele>884.0</ele><time>2026-04-18T08:27:49.124Z</time></trkpt><trkpt lat="37.8553067" lon="14.9531633"><ele>884.0</ele><time>2026-04-18T08:27:50.124Z</time></trkpt><trkpt lat="37.8552483" lon="14.95295"><ele>884.0</ele><time>2026-04-18T08:27:51.124Z</time></trkpt><trkpt lat="37.8551683" lon="14.9527433"><ele>885.0</ele><time>2026-04-18T08:27:52.124Z</time></trkpt><trkpt lat="37.8550683" lon="14.9525433"><ele>886.0</ele><time>2026-04-18T08:27:53.124Z</time></trkpt><trkpt lat="37.854955" lon="14.9523467"><ele>887.0</ele><time>2026-04-18T08:27:54.124Z</time></trkpt><trkpt lat="37.85484" lon="14.952145"><ele>887.0</ele><time>2026-04-18T08:27:55.124Z</time></trkpt><trkpt lat="37.8547317" lon="14.9519317"><ele>887.0</ele><time>2026-04-18T08:27:56.123Z</time></trkpt><trkpt lat="37.854615" lon="14.9517233"><ele>887.0</ele><time>2026-04-18T08:27:57.124Z</time></trkpt><trkpt lat="37.8545" lon="14.9515067"><ele>886.0</ele><time>2026-04-18T08:27:58.124Z</time></trkpt><trkpt lat="37.854395" lon="14.95131"><ele>885.0</ele><time>2026-04-18T08:27:59.124Z</time></trkpt><trkpt lat="37.854295" lon="14.95112"><ele>884.0</ele><time>2026-04-18T08:28:00.124Z</time></trkpt><trkpt lat="37.8541967" lon="14.9509117"><ele>886.0</ele><time>2026-04-18T08:28:01.124Z</time></trkpt><trkpt lat="37.8541017" lon="14.9507017"><ele>888.0</ele><time>2026-04-18T08:28:02.124Z</time></trkpt><trkpt lat="37.85402" lon="14.950485"><ele>890.0</ele><time>2026-04-18T08:28:03.124Z</time></trkpt><trkpt lat="37.8539333" lon="14.9502617"><ele>890.0</ele><time>2026-04-18T08:28:04.124Z</time></trkpt><trkpt lat="37.8538533" lon="14.95006"><ele>890.0</ele><time>2026-04-18T08:28:05.124Z</time></trkpt><trkpt lat="37.8537683" lon="14.9498617"><ele>890.0</ele><time>2026-04-18T08:28:06.124Z</time></trkpt><trkpt lat="37.85369" lon="14.9496683"><ele>888.3333333333334</ele><time>2026-04-18T08:28:07.123Z</time></trkpt><trkpt lat="37.85361" lon="14.9494733"><ele>886.6666666666667</ele><time>2026-04-18T08:28:08.124Z</time></trkpt><trkpt lat="37.853545" lon="14.94929"><ele>885.0</ele><time>2026-04-18T08:28:09.124Z</time></trkpt><trkpt lat="37.8534767" lon="14.949105"><ele>886.6666666666667</ele><time>2026-04-18T08:28:10.124Z</time></trkpt><trkpt lat="37.853425" lon="14.94891"><ele>888.3333333333334</ele><time>2026-04-18T08:28:11.124Z</time></trkpt><trkpt lat="37.8533867" lon="14.9487033"><ele>890.0</ele><time>2026-04-18T08:28:12.123Z</time></trkpt><trkpt lat="37.85336" lon="14.9484867"><ele>889.3333333333334</ele><time>2026-04-18T08:28:13.124Z</time></trkpt><trkpt lat="37.8533417" lon="14.9482667"><ele>888.6666666666667</ele><time>2026-04-18T08:28:14.124Z</time></trkpt><trkpt lat="37.8533183" lon="14.948045"><ele>888.0</ele><time>2026-04-18T08:28:15.124Z</time></trkpt><trkpt lat="37.8533033" lon="14.9478133"><ele>888.0</ele><time>2026-04-18T08:28:16.124Z</time></trkpt><trkpt lat="37.853305" lon="14.9475917"><ele>888.0</ele><time>2026-04-18T08:28:17.124Z</time></trkpt><trkpt lat="37.8533267" lon="14.9473767"><ele>888.0</ele><time>2026-04-18T08:28:18.124Z</time></trkpt><trkpt lat="37.8533633" lon="14.9471667"><ele>889.3333333333333</ele><time>2026-04-18T08:28:19.124Z</time></trkpt><trkpt lat="37.853405" lon="14.9469667"><ele>890.6666666666666</ele><time>2026-04-18T08:28:20.124Z</time></trkpt><trkpt lat="37.8534533" lon="14.9467717"><ele>892.0</ele><time>2026-04-18T08:28:21.124Z</time></trkpt><trkpt lat="37.85353" lon="14.94659"><ele>887.3333333333333</ele><time>2026-04-18T08:28:22.124Z</time></trkpt><trkpt lat="37.8536367" lon="14.9464133"><ele>882.6666666666667</ele><time>2026-04-18T08:28:23.124Z</time></trkpt><trkpt lat="37.8537483" lon="14.946245"><ele>878.0</ele><time>2026-04-18T08:28:24.124Z</time></trkpt><trkpt lat="37.8538533" lon="14.9460633"><ele>878.0</ele><time>2026-04-18T08:28:25.124Z</time></trkpt><trkpt lat="37.8539583" lon="14.94588"><ele>878.0</ele><time>2026-04-18T08:28:26.124Z</time></trkpt><trkpt lat="37.8540683" lon="14.9457033"><ele>878.0</ele><time>2026-04-18T08:28:27.124Z</time></trkpt><trkpt lat="37.8541817" lon="14.9455283"><ele>879.0</ele><time>2026-04-18T08:28:28.123Z</time></trkpt><trkpt lat="37.8542983" lon="14.9453417"><ele>880.0</ele><time>2026-04-18T08:28:29.124Z</time></trkpt><trkpt lat="37.8544033" lon="14.9451583"><ele>881.0</ele><time>2026-04-18T08:28:30.124Z</time></trkpt><trkpt lat="37.8545017" lon="14.9449833"><ele>884.0</ele><time>2026-04-18T08:28:31.124Z</time></trkpt><trkpt lat="37.8545967" lon="14.9448"><ele>887.0</ele><time>2026-04-18T08:28:32.124Z</time></trkpt><trkpt lat="37.8546783" lon="14.9446067"><ele>890.0</ele><time>2026-04-18T08:28:33.124Z</time></trkpt><trkpt lat="37.8547517" lon="14.9443917"><ele>887.6666666666667</ele><time>2026-04-18T08:28:34.124Z</time></trkpt><trkpt lat="37.85482" lon="14.9441583"><ele>885.3333333333333</ele><time>2026-04-18T08:28:35.124Z</time></trkpt><trkpt lat="37.85489" lon="14.9439083"><ele>883.0</ele><time>2026-04-18T08:28:36.124Z</time></trkpt><trkpt lat="37.8549617" lon="14.9436533"><ele>883.0</ele><time>2026-04-18T08:28:37.124Z</time></trkpt><trkpt lat="37.8550367" lon="14.9433933"><ele>883.0</ele><time>2026-04-18T08:28:38.124Z</time></trkpt><trkpt lat="37.85512" lon="14.9431333"><ele>883.0</ele><time>2026-04-18T08:28:39.124Z</time></trkpt><trkpt lat="37.855205" lon="14.9428633"><ele>880.0</ele><time>2026-04-18T08:28:40.124Z</time></trkpt><trkpt lat="37.855285" lon="14.9425933"><ele>877.0</ele><time>2026-04-18T08:28:41.124Z</time></trkpt><trkpt lat="37.8553533" lon="14.9423267"><ele>874.0</ele><time>2026-04-18T08:28:42.124Z</time></trkpt><trkpt lat="37.8554233" lon="14.9420583"><ele>871.3333333333333</ele><time>2026-04-18T08:28:43.124Z</time></trkpt><trkpt lat="37.855495" lon="14.9417983"><ele>868.6666666666667</ele><time>2026-04-18T08:28:44.124Z</time></trkpt><trkpt lat="37.8555717" lon="14.9415417"><ele>866.0</ele><time>2026-04-18T08:28:45.124Z</time></trkpt><trkpt lat="37.855645" lon="14.94128"><ele>865.6666666666667</ele><time>2026-04-18T08:28:46.124Z</time></trkpt><trkpt lat="37.8557233" lon="14.9410267"><ele>865.3333333333333</ele><time>2026-04-18T08:28:47.124Z</time></trkpt><trkpt lat="37.8557967" lon="14.9407717"><ele>865.0</ele><time>2026-04-18T08:28:48.124Z</time></trkpt><trkpt lat="37.855865" lon="14.9405167"><ele>866.0</ele><time>2026-04-18T08:28:49.123Z</time></trkpt><trkpt lat="37.8559267" lon="14.9402583"><ele>867.0</ele><time>2026-04-18T08:28:50.124Z</time></trkpt><trkpt lat="37.8559717" lon="14.9400033"><ele>868.0</ele><time>2026-04-18T08:28:51.124Z</time></trkpt><trkpt lat="37.856" lon="14.9397567"><ele>868.0</ele><time>2026-04-18T08:28:52.124Z</time></trkpt><trkpt lat="37.856035" lon="14.939505"><ele>868.0</ele><time>2026-04-18T08:28:53.124Z</time></trkpt><trkpt lat="37.8560667" lon="14.939255"><ele>868.0</ele><time>2026-04-18T08:28:54.124Z</time></trkpt><trkpt lat="37.856095" lon="14.9389983"><ele>867.3333333333333</ele><time>2026-04-18T08:28:55.124Z</time></trkpt><trkpt lat="37.8561167" lon="14.9387383"><ele>866.6666666666667</ele><time>2026-04-18T08:28:56.124Z</time></trkpt><trkpt lat="37.856135" lon="14.9384817"><ele>866.0</ele><time>2026-04-18T08:28:57.124Z</time></trkpt><trkpt lat="37.8561533" lon="14.9382183"><ele>866.0</ele><time>2026-04-18T08:28:58.124Z</time></trkpt><trkpt lat="37.856175" lon="14.9379517"><ele>866.0</ele><time>2026-04-18T08:28:59.124Z</time></trkpt><trkpt lat="37.856195" lon="14.937685"><ele>866.0</ele><time>2026-04-18T08:29:00.124Z</time></trkpt><trkpt lat="37.856205" lon="14.937425"><ele>865.3333333333334</ele><time>2026-04-18T08:29:01.123Z</time></trkpt><trkpt lat="37.85621" lon="14.93717"><ele>864.6666666666667</ele><time>2026-04-18T08:29:02.124Z</time></trkpt><trkpt lat="37.8562233" lon="14.9369183"><ele>864.0</ele><time>2026-04-18T08:29:03.124Z</time></trkpt><trkpt lat="37.8562283" lon="14.9366617"><ele>865.6666666666667</ele><time>2026-04-18T08:29:04.124Z</time></trkpt><trkpt lat="37.856235" lon="14.9364017"><ele>867.3333333333334</ele><time>2026-04-18T08:29:05.123Z</time></trkpt><trkpt lat="37.8562333" lon="14.9361467"><ele>869.0</ele><time>2026-04-18T08:29:06.124Z</time></trkpt><trkpt lat="37.8562317" lon="14.9359067"><ele>871.3333333333334</ele><time>2026-04-18T08:29:07.124Z</time></trkpt><trkpt lat="37.85624" lon="14.9356733"><ele>873.6666666666667</ele><time>2026-04-18T08:29:08.124Z</time></trkpt><trkpt lat="37.8562533" lon="14.935455"><ele>876.0</ele><time>2026-04-18T08:29:09.124Z</time></trkpt><trkpt lat="37.8562683" lon="14.9352317"><ele>877.3333333333333</ele><time>2026-04-18T08:29:10.124Z</time></trkpt><trkpt lat="37.8562833" lon="14.9350033"><ele>878.6666666666666</ele><time>2026-04-18T08:29:11.124Z</time></trkpt><trkpt lat="37.85629" lon="14.93477"><ele>880.0</ele><time>2026-04-18T08:29:12.124Z</time></trkpt><trkpt lat="37.856285" lon="14.93454"><ele>880.0</ele><time>2026-04-18T08:29:13.124Z</time></trkpt><trkpt lat="37.8562783" lon="14.934305"><ele>880.0</ele><time>2026-04-18T08:29:14.124Z</time></trkpt><trkpt lat="37.8562633" lon="14.9340767"><ele>880.0</ele><time>2026-04-18T08:29:15.124Z</time></trkpt><trkpt lat="37.8562483" lon="14.9338467"><ele>880.6666666666666</ele><time>2026-04-18T08:29:16.123Z</time></trkpt><trkpt lat="37.8562267" lon="14.93362"><ele>881.3333333333333</ele><time>2026-04-18T08:29:17.124Z</time></trkpt><trkpt lat="37.8562083" lon="14.933395"><ele>882.0</ele><time>2026-04-18T08:29:18.124Z</time></trkpt><trkpt lat="37.8561883" lon="14.9331667"><ele>882.3333333333333</ele><time>2026-04-18T08:29:19.124Z</time></trkpt><trkpt lat="37.8561717" lon="14.93294"><ele>882.6666666666666</ele><time>2026-04-18T08:29:20.124Z</time></trkpt><trkpt lat="37.8561617" lon="14.9327"><ele>883.0</ele><time>2026-04-18T08:29:21.123Z</time></trkpt><trkpt lat="37.8561467" lon="14.93246"><ele>883.0</ele><time>2026-04-18T08:29:22.124Z</time></trkpt><trkpt lat="37.856125" lon="14.9322167"><ele>883.0</ele><time>2026-04-18T08:29:23.124Z</time></trkpt><trkpt lat="37.8561117" lon="14.931975"><ele>883.0</ele><time>2026-04-18T08:29:24.124Z</time></trkpt><trkpt lat="37.856095" lon="14.9317183"><ele>882.0</ele><time>2026-04-18T08:29:25.124Z</time></trkpt><trkpt lat="37.8560817" lon="14.9314683"><ele>881.0</ele><time>2026-04-18T08:29:26.124Z</time></trkpt><trkpt lat="37.85606" lon="14.9312033"><ele>880.0</ele><time>2026-04-18T08:29:27.124Z</time></trkpt><trkpt lat="37.85604" lon="14.930935"><ele>879.6666666666666</ele><time>2026-04-18T08:29:28.124Z</time></trkpt><trkpt lat="37.8560233" lon="14.930665"><ele>879.3333333333333</ele><time>2026-04-18T08:29:29.124Z</time></trkpt><trkpt lat="37.8560033" lon="14.9303933"><ele>879.0</ele><time>2026-04-18T08:29:30.124Z</time></trkpt><trkpt lat="37.8559833" lon="14.93013"><ele>879.0</ele><time>2026-04-18T08:29:31.124Z</time></trkpt><trkpt lat="37.855965" lon="14.929865"><ele>879.0</ele><time>2026-04-18T08:29:32.124Z</time></trkpt><trkpt lat="37.8559533" lon="14.9295983"><ele>879.0</ele><time>2026-04-18T08:29:33.124Z</time></trkpt><trkpt lat="37.855935" lon="14.929355"><ele>881.3333333333333</ele><time>2026-04-18T08:29:34.124Z</time></trkpt><trkpt lat="37.855915" lon="14.9291167"><ele>883.6666666666666</ele><time>2026-04-18T08:29:35.124Z</time></trkpt><trkpt lat="37.8559017" lon="14.9288917"><ele>886.0</ele><time>2026-04-18T08:29:36.124Z</time></trkpt><trkpt lat="37.8558833" lon="14.928685"><ele>886.0</ele><time>2026-04-18T08:29:37.124Z</time></trkpt><trkpt lat="37.8558667" lon="14.9284933"><ele>886.0</ele><time>2026-04-18T08:29:38.124Z</time></trkpt><trkpt lat="37.8558883" lon="14.9283117"><ele>886.0</ele><time>2026-04-18T08:29:39.123Z</time></trkpt><trkpt lat="37.855945" lon="14.928135"><ele>886.0</ele><time>2026-04-18T08:29:40.124Z</time></trkpt><trkpt lat="37.856025" lon="14.927975"><ele>884.25</ele><time>2026-04-18T08:29:41.124Z</time></trkpt><trkpt lat="37.85612" lon="14.9278433"><ele>882.5</ele><time>2026-04-18T08:29:42.124Z</time></trkpt><trkpt lat="37.85623" lon="14.9277333"><ele>880.75</ele><time>2026-04-18T08:29:43.123Z</time></trkpt><trkpt lat="37.8563383" lon="14.9276483"><ele>879.0</ele><time>2026-04-18T08:29:44.124Z</time></trkpt><trkpt lat="37.8564567" lon="14.9275783"><ele>879.0</ele><time>2026-04-18T08:29:45.124Z</time></trkpt><trkpt lat="37.856585" lon="14.927525"><ele>879.0</ele><time>2026-04-18T08:29:46.124Z</time></trkpt><trkpt lat="37.8567183" lon="14.9274733"><ele>879.0</ele><time>2026-04-18T08:29:47.124Z</time></trkpt><trkpt lat="37.856845" lon="14.9274183"><ele>879.0</ele><time>2026-04-18T08:29:48.124Z</time></trkpt><trkpt lat="37.856965" lon="14.9273583"><ele>879.0</ele><time>2026-04-18T08:29:49.124Z</time></trkpt><trkpt lat="37.8570683" lon="14.92727"><ele>879.0</ele><time>2026-04-18T08:29:50.124Z</time></trkpt><trkpt lat="37.8571533" lon="14.9271683"><ele>879.0</ele><time>2026-04-18T08:29:51.124Z</time></trkpt><trkpt lat="37.8572233" lon="14.92704"><ele>879.0</ele><time>2026-04-18T08:29:52.124Z</time></trkpt><trkpt lat="37.8572717" lon="14.9268883"><ele>879.0</ele><time>2026-04-18T08:29:53.124Z</time></trkpt><trkpt lat="37.8572917" lon="14.9267333"><ele>879.0</ele><time>2026-04-18T08:29:54.124Z</time></trkpt><trkpt lat="37.8572917" lon="14.9265617"><ele>879.0</ele><time>2026-04-18T08:29:55.123Z</time></trkpt><trkpt lat="37.8572983" lon="14.9263867"><ele>879.0</ele><time>2026-04-18T08:29:56.124Z</time></trkpt><trkpt lat="37.8573083" lon="14.9262"><ele>880.6666666666667</ele><time>2026-04-18T08:29:57.124Z</time></trkpt><trkpt lat="37.857325" lon="14.9260033"><ele>882.3333333333334</ele><time>2026-04-18T08:29:58.124Z</time></trkpt><trkpt lat="37.8573317" lon="14.9258067"><ele>884.0</ele><time>2026-04-18T08:29:59.124Z</time></trkpt><trkpt lat="37.85733" lon="14.9256"><ele>883.6666666666667</ele><time>2026-04-18T08:30:00.124Z</time></trkpt><trkpt lat="37.8573317" lon="14.9253917"><ele>883.3333333333333</ele><time>2026-04-18T08:30:01.124Z</time></trkpt><trkpt lat="37.85733" lon="14.9251767"><ele>883.0</ele><time>2026-04-18T08:30:02.124Z</time></trkpt><trkpt lat="37.8573283" lon="14.92496"><ele>883.0</ele><time>2026-04-18T08:30:03.124Z</time></trkpt><trkpt lat="37.857325" lon="14.9247367"><ele>883.0</ele><time>2026-04-18T08:30:04.124Z</time></trkpt><trkpt lat="37.857325" lon="14.9245117"><ele>883.0</ele><time>2026-04-18T08:30:05.124Z</time></trkpt><trkpt lat="37.8573233" lon="14.9242883"><ele>882.0</ele><time>2026-04-18T08:30:06.124Z</time></trkpt><trkpt lat="37.857315" lon="14.9240667"><ele>881.0</ele><time>2026-04-18T08:30:07.124Z</time></trkpt><trkpt lat="37.8573083" lon="14.9238583"><ele>880.0</ele><time>2026-04-18T08:30:08.123Z</time></trkpt><trkpt lat="37.857305" lon="14.923655"><ele>880.0</ele><time>2026-04-18T08:30:09.124Z</time></trkpt><trkpt lat="37.8573017" lon="14.9234567"><ele>880.0</ele><time>2026-04-18T08:30:10.124Z</time></trkpt><trkpt lat="37.8573" lon="14.923265"><ele>880.0</ele><time>2026-04-18T08:30:11.124Z</time></trkpt><trkpt lat="37.857295" lon="14.9230767"><ele>879.5</ele><time>2026-04-18T08:30:12.124Z</time></trkpt><trkpt lat="37.857295" lon="14.9229017"><ele>879.0</ele><time>2026-04-18T08:30:13.124Z</time></trkpt><trkpt lat="37.8573033" lon="14.922735"><ele>878.5</ele><time>2026-04-18T08:30:14.124Z</time></trkpt><trkpt lat="37.85731" lon="14.9225883"><ele>878.0</ele><time>2026-04-18T08:30:15.124Z</time></trkpt><trkpt lat="37.8573217" lon="14.9224567"><ele>877.3333333333334</ele><time>2026-04-18T08:30:16.124Z</time></trkpt><trkpt lat="37.8573383" lon="14.92235"><ele>876.6666666666667</ele><time>2026-04-18T08:30:17.124Z</time></trkpt><trkpt lat="37.8573583" lon="14.9222617"><ele>876.0</ele><time>2026-04-18T08:30:18.124Z</time></trkpt><trkpt lat="37.8573667" lon="14.9221617"><ele>875.3333333333333</ele><time>2026-04-18T08:30:20.124Z</time></trkpt><trkpt lat="37.857345" lon="14.9220867"><ele>874.6666666666666</ele><time>2026-04-18T08:30:23.124Z</time></trkpt><trkpt lat="37.8572483" lon="14.9220217"><ele>874.0</ele><time>2026-04-18T08:30:25.124Z</time></trkpt><trkpt lat="37.8571683" lon="14.9220017"><ele>874.0</ele><time>2026-04-18T08:30:26.124Z</time></trkpt><trkpt lat="37.8570717" lon="14.9219833"><ele>874.0</ele><time>2026-04-18T08:30:27.124Z</time></trkpt><trkpt lat="37.8569533" lon="14.92196"><ele>874.0</ele><time>2026-04-18T08:30:28.124Z</time></trkpt><trkpt lat="37.8568183" lon="14.9219283"><ele>874.0</ele><time>2026-04-18T08:30:29.124Z</time></trkpt><trkpt lat="37.8566617" lon="14.9219017"><ele>876.0</ele><time>2026-04-18T08:30:30.123Z</time></trkpt><trkpt lat="37.8565017" lon="14.92187"><ele>878.0</ele><time>2026-04-18T08:30:31.124Z</time></trkpt><trkpt lat="37.8563483" lon="14.9218283"><ele>880.0</ele><time>2026-04-18T08:30:32.124Z</time></trkpt><trkpt lat="37.8562033" lon="14.921765"><ele>881.0</ele><time>2026-04-18T08:30:33.124Z</time></trkpt><trkpt lat="37.8560633" lon="14.9216817"><ele>882.0</ele><time>2026-04-18T08:30:34.124Z</time></trkpt><trkpt lat="37.85592" lon="14.9215583"><ele>883.0</ele><time>2026-04-18T08:30:35.123Z</time></trkpt><trkpt lat="37.8557983" lon="14.9214067"><ele>883.0</ele><time>2026-04-18T08:30:36.124Z</time></trkpt><trkpt lat="37.8556967" lon="14.9212433"><ele>883.0</ele><time>2026-04-18T08:30:37.124Z</time></trkpt><trkpt lat="37.8556" lon="14.9210933"><ele>883.0</ele><time>2026-04-18T08:30:38.124Z</time></trkpt><trkpt lat="37.8554917" lon="14.9209683"><ele>882.3333333333333</ele><time>2026-04-18T08:30:39.124Z</time></trkpt><trkpt lat="37.8553367" lon="14.9208717"><ele>881.6666666666667</ele><time>2026-04-18T08:30:40.124Z</time></trkpt><trkpt lat="37.8551683" lon="14.92082"><ele>881.0</ele><time>2026-04-18T08:30:41.124Z</time></trkpt><trkpt lat="37.8549917" lon="14.920795"><ele>883.0</ele><time>2026-04-18T08:30:42.124Z</time></trkpt><trkpt lat="37.8547983" lon="14.9207967"><ele>885.0</ele><time>2026-04-18T08:30:43.124Z</time></trkpt><trkpt lat="37.8546067" lon="14.9208183"><ele>887.0</ele><time>2026-04-18T08:30:44.124Z</time></trkpt><trkpt lat="37.8544217" lon="14.9208333"><ele>889.6666666666667</ele><time>2026-04-18T08:30:45.124Z</time></trkpt><trkpt lat="37.8542517" lon="14.92083"><ele>892.3333333333333</ele><time>2026-04-18T08:30:46.124Z</time></trkpt><trkpt lat="37.85409" lon="14.92079"><ele>895.0</ele><time>2026-04-18T08:30:47.123Z</time></trkpt><trkpt lat="37.8539483" lon="14.92072"><ele>895.0</ele><time>2026-04-18T08:30:48.123Z</time></trkpt><trkpt lat="37.853795" lon="14.9206217"><ele>895.0</ele><time>2026-04-18T08:30:49.124Z</time></trkpt><trkpt lat="37.8536483" lon="14.9205333"><ele>895.0</ele><time>2026-04-18T08:30:50.124Z</time></trkpt><trkpt lat="37.853495" lon="14.92048"><ele>897.0</ele><time>2026-04-18T08:30:51.124Z</time></trkpt><trkpt lat="37.853345" lon="14.9204667"><ele>899.0</ele><time>2026-04-18T08:30:52.124Z</time></trkpt><trkpt lat="37.8532117" lon="14.920485"><ele>901.0</ele><time>2026-04-18T08:30:53.123Z</time></trkpt><trkpt lat="37.8530933" lon="14.9205517"><ele>903.0</ele><time>2026-04-18T08:30:54.124Z</time></trkpt><trkpt lat="37.85297" lon="14.9206483"><ele>903.0</ele><time>2026-04-18T08:30:55.124Z</time></trkpt><trkpt lat="37.852855" lon="14.9207583"><ele>903.0</ele><time>2026-04-18T08:30:56.124Z</time></trkpt><trkpt lat="37.85274" lon="14.9208583"><ele>903.0</ele><time>2026-04-18T08:30:57.124Z</time></trkpt><trkpt lat="37.852625" lon="14.9209483"><ele>903.0</ele><time>2026-04-18T08:30:58.124Z</time></trkpt><trkpt lat="37.8525167" lon="14.92101"><ele>904.0</ele><time>2026-04-18T08:30:59.124Z</time></trkpt><trkpt lat="37.8524083" lon="14.9210267"><ele>905.0</ele><time>2026-04-18T08:31:00.124Z</time></trkpt><trkpt lat="37.8522983" lon="14.9209883"><ele>906.0</ele><time>2026-04-18T08:31:01.124Z</time></trkpt><trkpt lat="37.8521833" lon="14.92092"><ele>907.0</ele><time>2026-04-18T08:31:02.124Z</time></trkpt><trkpt lat="37.8520467" lon="14.9208233"><ele>907.0</ele><time>2026-04-18T08:31:03.124Z</time></trkpt><trkpt lat="37.8518983" lon="14.9207317"><ele>907.0</ele><time>2026-04-18T08:31:04.122Z</time></trkpt><trkpt lat="37.8517383" lon="14.9206333"><ele>907.0</ele><time>2026-04-18T08:31:05.124Z</time></trkpt><trkpt lat="37.8515617" lon="14.9205167"><ele>908.6666666666666</ele><time>2026-04-18T08:31:06.124Z</time></trkpt><trkpt lat="37.8513767" lon="14.9203967"><ele>910.3333333333333</ele><time>2026-04-18T08:31:07.124Z</time></trkpt><trkpt lat="37.8511783" lon="14.9202683"><ele>912.0</ele><time>2026-04-18T08:31:08.124Z</time></trkpt><trkpt lat="37.8509833" lon="14.9201317"><ele>913.0</ele><time>2026-04-18T08:31:09.123Z</time></trkpt><trkpt lat="37.85078" lon="14.9199983"><ele>914.0</ele><time>2026-04-18T08:31:10.124Z</time></trkpt><trkpt lat="37.8505667" lon="14.91985"><ele>914.0</ele><time>2026-04-18T08:31:11.124Z</time></trkpt><trkpt lat="37.8503533" lon="14.9197"><ele>914.0</ele><time>2026-04-18T08:31:12.124Z</time></trkpt><trkpt lat="37.85014" lon="14.9195617"><ele>916.0</ele><time>2026-04-18T08:31:13.124Z</time></trkpt><trkpt lat="37.8499283" lon="14.919425"><ele>918.0</ele><time>2026-04-18T08:31:14.124Z</time></trkpt><trkpt lat="37.849735" lon="14.9192917"><ele>918.0</ele><time>2026-04-18T08:31:15.124Z</time></trkpt><trkpt lat="37.8495533" lon="14.9191667"><ele>918.0</ele><time>2026-04-18T08:31:16.124Z</time></trkpt><trkpt lat="37.84939" lon="14.9190533"><ele>918.0</ele><time>2026-04-18T08:31:17.124Z</time></trkpt><trkpt lat="37.84925" lon="14.9189367"><ele>919.6666666666667</ele><time>2026-04-18T08:31:18.124Z</time></trkpt><trkpt lat="37.84913" lon="14.9187967"><ele>921.3333333333334</ele><time>2026-04-18T08:31:19.124Z</time></trkpt><trkpt lat="37.8490267" lon="14.9186283"><ele>923.0</ele><time>2026-04-18T08:31:20.124Z</time></trkpt><trkpt lat="37.8489683" lon="14.9184183"><ele>924.0</ele><time>2026-04-18T08:31:21.124Z</time></trkpt><trkpt lat="37.8489217" lon="14.918195"><ele>925.0</ele><time>2026-04-18T08:31:22.124Z</time></trkpt><trkpt lat="37.8488983" lon="14.9179683"><ele>926.0</ele><time>2026-04-18T08:31:23.124Z</time></trkpt><trkpt lat="37.8488767" lon="14.9177383"><ele>927.0</ele><time>2026-04-18T08:31:24.124Z</time></trkpt><trkpt lat="37.848845" lon="14.9175083"><ele>928.0</ele><time>2026-04-18T08:31:25.124Z</time></trkpt><trkpt lat="37.8488033" lon="14.917285"><ele>929.0</ele><time>2026-04-18T08:31:26.124Z</time></trkpt><trkpt lat="37.8487433" lon="14.9170533"><ele>929.0</ele><time>2026-04-18T08:31:27.124Z</time></trkpt><trkpt lat="37.8486667" lon="14.9168383"><ele>929.0</ele><time>2026-04-18T08:31:28.124Z</time></trkpt><trkpt lat="37.848575" lon="14.9166333"><ele>929.0</ele><time>2026-04-18T08:31:29.124Z</time></trkpt><trkpt lat="37.8484783" lon="14.9164383"><ele>929.6666666666667</ele><time>2026-04-18T08:31:30.124Z</time></trkpt><trkpt lat="37.8483567" lon="14.9162617"><ele>930.3333333333333</ele><time>2026-04-18T08:31:31.124Z</time></trkpt><trkpt lat="37.8482083" lon="14.9160967"><ele>931.0</ele><time>2026-04-18T08:31:32.124Z</time></trkpt><trkpt lat="37.8480483" lon="14.9159433"><ele>931.6666666666666</ele><time>2026-04-18T08:31:33.124Z</time></trkpt><trkpt lat="37.8478817" lon="14.91581"><ele>932.3333333333333</ele><time>2026-04-18T08:31:34.124Z</time></trkpt><trkpt lat="37.8476933" lon="14.9157033"><ele>933.0</ele><time>2026-04-18T08:31:35.124Z</time></trkpt><trkpt lat="37.8474983" lon="14.9156167"><ele>933.0</ele><time>2026-04-18T08:31:36.123Z</time></trkpt><trkpt lat="37.84731" lon="14.9155583"><ele>933.0</ele><time>2026-04-18T08:31:37.124Z</time></trkpt><trkpt lat="37.8471333" lon="14.9154933"><ele>933.0</ele><time>2026-04-18T08:31:38.123Z</time></trkpt><trkpt lat="37.8469717" lon="14.9154183"><ele>933.0</ele><time>2026-04-18T08:31:39.124Z</time></trkpt><trkpt lat="37.84682" lon="14.9153233"><ele>933.0</ele><time>2026-04-18T08:31:40.124Z</time></trkpt><trkpt lat="37.8466733" lon="14.9152"><ele>933.0</ele><time>2026-04-18T08:31:41.124Z</time></trkpt><trkpt lat="37.846555" lon="14.9150567"><ele>932.6666666666667</ele><time>2026-04-18T08:31:42.124Z</time></trkpt><trkpt lat="37.846455" lon="14.9148933"><ele>932.3333333333334</ele><time>2026-04-18T08:31:43.124Z</time></trkpt><trkpt lat="37.8463867" lon="14.9147017"><ele>932.0</ele><time>2026-04-18T08:31:44.124Z</time></trkpt><trkpt lat="37.8463383" lon="14.91449"><ele>932.0</ele><time>2026-04-18T08:31:45.124Z</time></trkpt><trkpt lat="37.8463217" lon="14.9142533"><ele>932.0</ele><time>2026-04-18T08:31:46.124Z</time></trkpt><trkpt lat="37.8463" lon="14.9140133"><ele>932.0</ele><time>2026-04-18T08:31:47.124Z</time></trkpt><trkpt lat="37.846265" lon="14.913775"><ele>930.6666666666667</ele><time>2026-04-18T08:31:48.124Z</time></trkpt><trkpt lat="37.84621" lon="14.91354"><ele>929.3333333333333</ele><time>2026-04-18T08:31:49.124Z</time></trkpt><trkpt lat="37.8461433" lon="14.91332"><ele>928.0</ele><time>2026-04-18T08:31:50.124Z</time></trkpt><trkpt lat="37.84606" lon="14.9131133"><ele>929.3333333333333</ele><time>2026-04-18T08:31:51.124Z</time></trkpt><trkpt lat="37.8459617" lon="14.9129133"><ele>930.6666666666667</ele><time>2026-04-18T08:31:52.124Z</time></trkpt><trkpt lat="37.8458267" lon="14.9127283"><ele>932.0</ele><time>2026-04-18T08:31:53.124Z</time></trkpt><trkpt lat="37.84567" lon="14.912535"><ele>932.0</ele><time>2026-04-18T08:31:54.124Z</time></trkpt><trkpt lat="37.84551" lon="14.9123283"><ele>932.0</ele><time>2026-04-18T08:31:55.124Z</time></trkpt><trkpt lat="37.8453483" lon="14.9121317"><ele>932.0</ele><time>2026-04-18T08:31:56.124Z</time></trkpt><trkpt lat="37.8452033" lon="14.911945"><ele>932.0</ele><time>2026-04-18T08:31:57.124Z</time></trkpt><trkpt lat="37.84504" lon="14.9117617"><ele>932.0</ele><time>2026-04-18T08:31:58.124Z</time></trkpt><trkpt lat="37.8448633" lon="14.9115933"><ele>936.0</ele><time>2026-04-18T08:31:59.124Z</time></trkpt><trkpt lat="37.8446617" lon="14.9114467"><ele>940.0</ele><time>2026-04-18T08:32:00.124Z</time></trkpt><trkpt lat="37.8444433" lon="14.9113367"><ele>943.5</ele><time>2026-04-18T08:32:01.124Z</time></trkpt><trkpt lat="37.8442217" lon="14.911235"><ele>947.0</ele><time>2026-04-18T08:32:02.124Z</time></trkpt><trkpt lat="37.8439933" lon="14.911125"><ele>947.0</ele><time>2026-04-18T08:32:03.123Z</time></trkpt><trkpt lat="37.8437683" lon="14.911015"><ele>947.0</ele><time>2026-04-18T08:32:04.124Z</time></trkpt><trkpt lat="37.84354" lon="14.9108967"><ele>950.0</ele><time>2026-04-18T08:32:05.124Z</time></trkpt><trkpt lat="37.8432983" lon="14.9107833"><ele>953.0</ele><time>2026-04-18T08:32:06.124Z</time></trkpt><trkpt lat="37.8430533" lon="14.9106633"><ele>953.0</ele><time>2026-04-18T08:32:07.124Z</time></trkpt><trkpt lat="37.84281" lon="14.91054"><ele>953.0</ele><time>2026-04-18T08:32:08.124Z</time></trkpt><trkpt lat="37.8425633" lon="14.9104217"><ele>955.5</ele><time>2026-04-18T08:32:09.124Z</time></trkpt><trkpt lat="37.8423267" lon="14.9103033"><ele>958.0</ele><time>2026-04-18T08:32:10.124Z</time></trkpt><trkpt lat="37.8420917" lon="14.91019"><ele>958.0</ele><time>2026-04-18T08:32:11.124Z</time></trkpt><trkpt lat="37.8418517" lon="14.9100767"><ele>958.0</ele><time>2026-04-18T08:32:12.124Z</time></trkpt><trkpt lat="37.8416167" lon="14.909965"><ele>960.0</ele><time>2026-04-18T08:32:13.124Z</time></trkpt><trkpt lat="37.84138" lon="14.9098467"><ele>962.0</ele><time>2026-04-18T08:32:14.124Z</time></trkpt><trkpt lat="37.84115" lon="14.9097317"><ele>964.5</ele><time>2026-04-18T08:32:15.124Z</time></trkpt><trkpt lat="37.8409167" lon="14.9096167"><ele>967.0</ele><time>2026-04-18T08:32:16.124Z</time></trkpt><trkpt lat="37.840685" lon="14.909495"><ele>967.0</ele><time>2026-04-18T08:32:17.124Z</time></trkpt><trkpt lat="37.8404483" lon="14.90938"><ele>967.0</ele><time>2026-04-18T08:32:18.124Z</time></trkpt><trkpt lat="37.8402217" lon="14.909255"><ele>967.5</ele><time>2026-04-18T08:32:19.124Z</time></trkpt><trkpt lat="37.83999" lon="14.9091417"><ele>968.0</ele><time>2026-04-18T08:32:20.124Z</time></trkpt><trkpt lat="37.8397617" lon="14.909015"><ele>968.0</ele><time>2026-04-18T08:32:21.123Z</time></trkpt><trkpt lat="37.8395333" lon="14.9089"><ele>968.0</ele><time>2026-04-18T08:32:22.124Z</time></trkpt><trkpt lat="37.8393067" lon="14.90878"><ele>971.5</ele><time>2026-04-18T08:32:23.124Z</time></trkpt><trkpt lat="37.8390917" lon="14.9086633"><ele>975.0</ele><time>2026-04-18T08:32:24.124Z</time></trkpt><trkpt lat="37.8388817" lon="14.9085533"><ele>975.0</ele><time>2026-04-18T08:32:25.123Z</time></trkpt><trkpt lat="37.8386667" lon="14.9084533"><ele>975.0</ele><time>2026-04-18T08:32:26.124Z</time></trkpt><trkpt lat="37.838455" lon="14.9083517"><ele>976.6666666666667</ele><time>2026-04-18T08:32:27.124Z</time></trkpt><trkpt lat="37.83825" lon="14.9082483"><ele>978.3333333333334</ele><time>2026-04-18T08:32:28.124Z</time></trkpt><trkpt lat="37.8380467" lon="14.9081483"><ele>980.0</ele><time>2026-04-18T08:32:29.124Z</time></trkpt><trkpt lat="37.8378433" lon="14.90805"><ele>980.0</ele><time>2026-04-18T08:32:30.124Z</time></trkpt><trkpt lat="37.8376483" lon="14.9079567"><ele>980.0</ele><time>2026-04-18T08:32:31.124Z</time></trkpt><trkpt lat="37.8374533" lon="14.90786"><ele>980.0</ele><time>2026-04-18T08:32:32.124Z</time></trkpt><trkpt lat="37.8372667" lon="14.9077683"><ele>981.3333333333334</ele><time>2026-04-18T08:32:33.124Z</time></trkpt><trkpt lat="37.8370767" lon="14.9076817"><ele>982.6666666666667</ele><time>2026-04-18T08:32:34.124Z</time></trkpt><trkpt lat="37.8368967" lon="14.9075833"><ele>984.0</ele><time>2026-04-18T08:32:35.124Z</time></trkpt><trkpt lat="37.8367283" lon="14.9074933"><ele>985.0</ele><time>2026-04-18T08:32:36.124Z</time></trkpt><trkpt lat="37.8365617" lon="14.90741"><ele>986.0</ele><time>2026-04-18T08:32:37.124Z</time></trkpt><trkpt lat="37.8364067" lon="14.9073233"><ele>987.0</ele><time>2026-04-18T08:32:38.124Z</time></trkpt><trkpt lat="37.8362633" lon="14.9072333"><ele>987.0</ele><time>2026-04-18T08:32:39.123Z</time></trkpt><trkpt lat="37.8361367" lon="14.9071167"><ele>987.0</ele><time>2026-04-18T08:32:40.124Z</time></trkpt><trkpt lat="37.836025" lon="14.9069717"><ele>987.0</ele><time>2026-04-18T08:32:41.124Z</time></trkpt><trkpt lat="37.8359367" lon="14.90681"><ele>989.0</ele><time>2026-04-18T08:32:42.124Z</time></trkpt><trkpt lat="37.8358683" lon="14.9066283"><ele>991.0</ele><time>2026-04-18T08:32:43.124Z</time></trkpt><trkpt lat="37.83581" lon="14.9064317"><ele>993.0</ele><time>2026-04-18T08:32:44.124Z</time></trkpt><trkpt lat="37.83576" lon="14.90623"><ele>993.0</ele><time>2026-04-18T08:32:45.124Z</time></trkpt><trkpt lat="37.835715" lon="14.9060333"><ele>993.0</ele><time>2026-04-18T08:32:46.124Z</time></trkpt><trkpt lat="37.835675" lon="14.905835"><ele>993.0</ele><time>2026-04-18T08:32:47.124Z</time></trkpt><trkpt lat="37.8356433" lon="14.9056433"><ele>994.0</ele><time>2026-04-18T08:32:48.124Z</time></trkpt><trkpt lat="37.8356067" lon="14.9054517"><ele>995.0</ele><time>2026-04-18T08:32:49.124Z</time></trkpt><trkpt lat="37.8355667" lon="14.905255"><ele>996.0</ele><time>2026-04-18T08:32:50.124Z</time></trkpt><trkpt lat="37.8355267" lon="14.9050583"><ele>996.6666666666667</ele><time>2026-04-18T08:32:51.124Z</time></trkpt><trkpt lat="37.8354783" lon="14.9048717"><ele>997.3333333333334</ele><time>2026-04-18T08:32:52.124Z</time></trkpt><trkpt lat="37.8354233" lon="14.9046983"><ele>998.0</ele><time>2026-04-18T08:32:53.124Z</time></trkpt><trkpt lat="37.8353583" lon="14.904525"><ele>998.0</ele><time>2026-04-18T08:32:54.124Z</time></trkpt><trkpt lat="37.8352767" lon="14.90436"><ele>998.0</ele><time>2026-04-18T08:32:55.124Z</time></trkpt><trkpt lat="37.8351783" lon="14.9041917"><ele>998.0</ele><time>2026-04-18T08:32:56.124Z</time></trkpt><trkpt lat="37.83509" lon="14.904035"><ele>1000.3333333333334</ele><time>2026-04-18T08:32:57.124Z</time></trkpt><trkpt lat="37.8349967" lon="14.9038817"><ele>1002.6666666666667</ele><time>2026-04-18T08:32:58.124Z</time></trkpt><trkpt lat="37.8348983" lon="14.903725"><ele>1005.0</ele><time>2026-04-18T08:32:59.124Z</time></trkpt><trkpt lat="37.8348033" lon="14.9035783"><ele>1005.0</ele><time>2026-04-18T08:33:00.124Z</time></trkpt><trkpt lat="37.83471" lon="14.90344"><ele>1005.0</ele><time>2026-04-18T08:33:01.124Z</time></trkpt><trkpt lat="37.8345983" lon="14.903305"><ele>1005.0</ele><time>2026-04-18T08:33:02.124Z</time></trkpt><trkpt lat="37.8344583" lon="14.9031617"><ele>1005.0</ele><time>2026-04-18T08:33:03.124Z</time></trkpt><trkpt lat="37.8343033" lon="14.90301"><ele>1005.0</ele><time>2026-04-18T08:33:04.124Z</time></trkpt><trkpt lat="37.8341367" lon="14.9028467"><ele>1005.0</ele><time>2026-04-18T08:33:05.124Z</time></trkpt><trkpt lat="37.83398" lon="14.9026767"><ele>1002.3333333333333</ele><time>2026-04-18T08:33:06.124Z</time></trkpt><trkpt lat="37.8338383" lon="14.9024933"><ele>999.6666666666666</ele><time>2026-04-18T08:33:07.124Z</time></trkpt><trkpt lat="37.8337117" lon="14.9023"><ele>997.0</ele><time>2026-04-18T08:33:08.124Z</time></trkpt><trkpt lat="37.83361" lon="14.9020883"><ele>997.0</ele><time>2026-04-18T08:33:09.123Z</time></trkpt><trkpt lat="37.83353" lon="14.9018483"><ele>997.0</ele><time>2026-04-18T08:33:10.124Z</time></trkpt><trkpt lat="37.83346" lon="14.90159"><ele>997.0</ele><time>2026-04-18T08:33:11.124Z</time></trkpt><trkpt lat="37.833415" lon="14.901305"><ele>999.0</ele><time>2026-04-18T08:33:12.124Z</time></trkpt><trkpt lat="37.8333767" lon="14.901"><ele>1001.0</ele><time>2026-04-18T08:33:13.124Z</time></trkpt><trkpt lat="37.8333367" lon="14.90068"><ele>1001.0</ele><time>2026-04-18T08:33:14.124Z</time></trkpt><trkpt lat="37.8332933" lon="14.900345"><ele>1001.0</ele><time>2026-04-18T08:33:15.123Z</time></trkpt><trkpt lat="37.83325" lon="14.9000233"><ele>1001.0</ele><time>2026-04-18T08:33:16.124Z</time></trkpt><trkpt lat="37.8332067" lon="14.8997133"><ele>1001.0</ele><time>2026-04-18T08:33:17.124Z</time></trkpt><trkpt lat="37.8331683" lon="14.8994217"><ele>1001.3333333333334</ele><time>2026-04-18T08:33:18.123Z</time></trkpt><trkpt lat="37.8331383" lon="14.89916"><ele>1001.6666666666667</ele><time>2026-04-18T08:33:19.124Z</time></trkpt><trkpt lat="37.8331117" lon="14.8989083"><ele>1002.0</ele><time>2026-04-18T08:33:20.124Z</time></trkpt><trkpt lat="37.8330767" lon="14.898675"><ele>1002.0</ele><time>2026-04-18T08:33:21.124Z</time></trkpt><trkpt lat="37.8330233" lon="14.8984467"><ele>1002.0</ele><time>2026-04-18T08:33:22.124Z</time></trkpt><trkpt lat="37.8329483" lon="14.8982217"><ele>1002.0</ele><time>2026-04-18T08:33:23.124Z</time></trkpt><trkpt lat="37.8328417" lon="14.8980033"><ele>1001.6666666666667</ele><time>2026-04-18T08:33:24.123Z</time></trkpt><trkpt lat="37.83275" lon="14.8978"><ele>1001.3333333333334</ele><time>2026-04-18T08:33:25.124Z</time></trkpt><trkpt lat="37.8326517" lon="14.8975967"><ele>1001.0</ele><time>2026-04-18T08:33:26.124Z</time></trkpt><trkpt lat="37.8325467" lon="14.8974133"><ele>1002.6666666666667</ele><time>2026-04-18T08:33:27.123Z</time></trkpt><trkpt lat="37.8324033" lon="14.89726"><ele>1004.3333333333333</ele><time>2026-04-18T08:33:28.124Z</time></trkpt><trkpt lat="37.8322333" lon="14.8971167"><ele>1006.0</ele><time>2026-04-18T08:33:29.124Z</time></trkpt><trkpt lat="37.8320517" lon="14.8969633"><ele>1006.0</ele><time>2026-04-18T08:33:30.124Z</time></trkpt><trkpt lat="37.8318567" lon="14.8967917"><ele>1006.0</ele><time>2026-04-18T08:33:31.124Z</time></trkpt><trkpt lat="37.8316583" lon="14.896585"><ele>1005.0</ele><time>2026-04-18T08:33:32.124Z</time></trkpt><trkpt lat="37.8314633" lon="14.896365"><ele>1004.0</ele><time>2026-04-18T08:33:33.124Z</time></trkpt><trkpt lat="37.8312783" lon="14.896135"><ele>1004.0</ele><time>2026-04-18T08:33:34.124Z</time></trkpt><trkpt lat="37.8311" lon="14.8959217"><ele>1004.0</ele><time>2026-04-18T08:33:35.124Z</time></trkpt><trkpt lat="37.8309267" lon="14.8957217"><ele>1008.0</ele><time>2026-04-18T08:33:36.124Z</time></trkpt><trkpt lat="37.8307533" lon="14.8955317"><ele>1012.0</ele><time>2026-04-18T08:33:37.123Z</time></trkpt><trkpt lat="37.8305667" lon="14.8953517"><ele>1012.0</ele><time>2026-04-18T08:33:38.124Z</time></trkpt><trkpt lat="37.8303567" lon="14.8951717"><ele>1012.0</ele><time>2026-04-18T08:33:39.123Z</time></trkpt><trkpt lat="37.8301417" lon="14.8949683"><ele>1014.5</ele><time>2026-04-18T08:33:40.124Z</time></trkpt><trkpt lat="37.82993" lon="14.8947683"><ele>1017.0</ele><time>2026-04-18T08:33:41.124Z</time></trkpt><trkpt lat="37.8297217" lon="14.894565"><ele>1017.0</ele><time>2026-04-18T08:33:42.124Z</time></trkpt><trkpt lat="37.8295083" lon="14.894365"><ele>1017.0</ele><time>2026-04-18T08:33:43.123Z</time></trkpt><trkpt lat="37.8292833" lon="14.89416"><ele>1017.5</ele><time>2026-04-18T08:33:44.124Z</time></trkpt><trkpt lat="37.8290617" lon="14.8939617"><ele>1018.0</ele><time>2026-04-18T08:33:45.124Z</time></trkpt><trkpt lat="37.828845" lon="14.893765"><ele>1018.0</ele><time>2026-04-18T08:33:46.124Z</time></trkpt><trkpt lat="37.82864" lon="14.8935633"><ele>1018.0</ele><time>2026-04-18T08:33:47.124Z</time></trkpt><trkpt lat="37.8284183" lon="14.8933683"><ele>1020.5</ele><time>2026-04-18T08:33:48.124Z</time></trkpt><trkpt lat="37.8282067" lon="14.8931717"><ele>1023.0</ele><time>2026-04-18T08:33:49.124Z</time></trkpt><trkpt lat="37.8279917" lon="14.8929783"><ele>1023.0</ele><time>2026-04-18T08:33:50.124Z</time></trkpt><trkpt lat="37.82778" lon="14.892785"><ele>1023.0</ele><time>2026-04-18T08:33:51.124Z</time></trkpt><trkpt lat="37.827565" lon="14.89259"><ele>1024.5</ele><time>2026-04-18T08:33:52.124Z</time></trkpt><trkpt lat="37.8273583" lon="14.8924033"><ele>1026.0</ele><time>2026-04-18T08:33:53.124Z</time></trkpt><trkpt lat="37.82715" lon="14.89222"><ele>1026.0</ele><time>2026-04-18T08:33:54.124Z</time></trkpt><trkpt lat="37.8269533" lon="14.892045"><ele>1026.0</ele><time>2026-04-18T08:33:55.124Z</time></trkpt><trkpt lat="37.82675" lon="14.891865"><ele>1027.5</ele><time>2026-04-18T08:33:56.124Z</time></trkpt><trkpt lat="37.826555" lon="14.89168"><ele>1029.0</ele><time>2026-04-18T08:33:57.124Z</time></trkpt><trkpt lat="37.8263633" lon="14.8914917"><ele>1029.0</ele><time>2026-04-18T08:33:58.124Z</time></trkpt><trkpt lat="37.8261617" lon="14.8913083"><ele>1029.0</ele><time>2026-04-18T08:33:59.124Z</time></trkpt><trkpt lat="37.8259533" lon="14.8911267"><ele>1032.5</ele><time>2026-04-18T08:34:00.124Z</time></trkpt><trkpt lat="37.8257567" lon="14.8909367"><ele>1036.0</ele><time>2026-04-18T08:34:01.124Z</time></trkpt><trkpt lat="37.8255517" lon="14.8907467"><ele>1036.5</ele><time>2026-04-18T08:34:02.124Z</time></trkpt><trkpt lat="37.82535" lon="14.8905617"><ele>1037.0</ele><time>2026-04-18T08:34:03.124Z</time></trkpt><trkpt lat="37.8251533" lon="14.8903767"><ele>1037.5</ele><time>2026-04-18T08:34:04.124Z</time></trkpt><trkpt lat="37.8249617" lon="14.8902033"><ele>1038.0</ele><time>2026-04-18T08:34:05.124Z</time></trkpt><trkpt lat="37.8247717" lon="14.8900367"><ele>1038.0</ele><time>2026-04-18T08:34:06.124Z</time></trkpt><trkpt lat="37.82458" lon="14.889855"><ele>1038.0</ele><time>2026-04-18T08:34:07.124Z</time></trkpt><trkpt lat="37.8243783" lon="14.8896767"><ele>1040.0</ele><time>2026-04-18T08:34:08.124Z</time></trkpt><trkpt lat="37.8241917" lon="14.8895017"><ele>1042.0</ele><time>2026-04-18T08:34:09.124Z</time></trkpt><trkpt lat="37.8239983" lon="14.8893283"><ele>1041.5</ele><time>2026-04-18T08:34:10.124Z</time></trkpt><trkpt lat="37.8238033" lon="14.8891567"><ele>1041.0</ele><time>2026-04-18T08:34:11.124Z</time></trkpt><trkpt lat="37.8236167" lon="14.8889883"><ele>1041.0</ele><time>2026-04-18T08:34:12.124Z</time></trkpt><trkpt lat="37.8234283" lon="14.88882"><ele>1041.0</ele><time>2026-04-18T08:34:13.124Z</time></trkpt><trkpt lat="37.8232583" lon="14.8886667"><ele>1041.0</ele><time>2026-04-18T08:34:14.124Z</time></trkpt><trkpt lat="37.823095" lon="14.888515"><ele>1042.0</ele><time>2026-04-18T08:34:15.124Z</time></trkpt><trkpt lat="37.8229417" lon="14.8883717"><ele>1043.0</ele><time>2026-04-18T08:34:16.123Z</time></trkpt><trkpt lat="37.8227933" lon="14.8882117"><ele>1044.0</ele><time>2026-04-18T08:34:17.123Z</time></trkpt><trkpt lat="37.822675" lon="14.8880217"><ele>1044.0</ele><time>2026-04-18T08:34:18.124Z</time></trkpt><trkpt lat="37.8225733" lon="14.887815"><ele>1044.0</ele><time>2026-04-18T08:34:19.124Z</time></trkpt><trkpt lat="37.82251" lon="14.8875817"><ele>1044.0</ele><time>2026-04-18T08:34:20.124Z</time></trkpt><trkpt lat="37.8224667" lon="14.8873317"><ele>1044.0</ele><time>2026-04-18T08:34:21.124Z</time></trkpt><trkpt lat="37.82244" lon="14.8870783"><ele>1044.0</ele><time>2026-04-18T08:34:22.124Z</time></trkpt><trkpt lat="37.8224067" lon="14.8868233"><ele>1044.0</ele><time>2026-04-18T08:34:23.124Z</time></trkpt><trkpt lat="37.8223717" lon="14.8865667"><ele>1044.0</ele><time>2026-04-18T08:34:24.124Z</time></trkpt><trkpt lat="37.8223383" lon="14.886315"><ele>1044.0</ele><time>2026-04-18T08:34:25.124Z</time></trkpt><trkpt lat="37.8223067" lon="14.88606"><ele>1044.0</ele><time>2026-04-18T08:34:26.124Z</time></trkpt><trkpt lat="37.82227" lon="14.8858083"><ele>1044.0</ele><time>2026-04-18T08:34:27.124Z</time></trkpt><trkpt lat="37.8222317" lon="14.885565"><ele>1044.0</ele><time>2026-04-18T08:34:28.124Z</time></trkpt><trkpt lat="37.8221967" lon="14.885335"><ele>1044.0</ele><time>2026-04-18T08:34:29.124Z</time></trkpt><trkpt lat="37.8221733" lon="14.8851017"><ele>1043.0</ele><time>2026-04-18T08:34:30.124Z</time></trkpt><trkpt lat="37.8221783" lon="14.88487"><ele>1042.0</ele><time>2026-04-18T08:34:31.124Z</time></trkpt><trkpt lat="37.8222067" lon="14.8846233"><ele>1041.0</ele><time>2026-04-18T08:34:32.124Z</time></trkpt><trkpt lat="37.8222283" lon="14.8843633"><ele>1039.6666666666667</ele><time>2026-04-18T08:34:33.124Z</time></trkpt><trkpt lat="37.8222517" lon="14.884095"><ele>1038.3333333333335</ele><time>2026-04-18T08:34:34.123Z</time></trkpt><trkpt lat="37.8222817" lon="14.8838233"><ele>1037.0</ele><time>2026-04-18T08:34:35.124Z</time></trkpt><trkpt lat="37.8223167" lon="14.8835433"><ele>1035.5</ele><time>2026-04-18T08:34:36.124Z</time></trkpt><trkpt lat="37.8223467" lon="14.8832583"><ele>1034.0</ele><time>2026-04-18T08:34:37.124Z</time></trkpt><trkpt lat="37.82237" lon="14.88297"><ele>1034.0</ele><time>2026-04-18T08:34:38.124Z</time></trkpt><trkpt lat="37.8224017" lon="14.8826867"><ele>1034.0</ele><time>2026-04-18T08:34:39.124Z</time></trkpt><trkpt lat="37.8224233" lon="14.882405"><ele>1032.6666666666667</ele><time>2026-04-18T08:34:40.123Z</time></trkpt><trkpt lat="37.8224417" lon="14.88213"><ele>1031.3333333333333</ele><time>2026-04-18T08:34:41.124Z</time></trkpt><trkpt lat="37.822455" lon="14.8818583"><ele>1030.0</ele><time>2026-04-18T08:34:42.124Z</time></trkpt><trkpt lat="37.8224367" lon="14.88159"><ele>1028.3333333333333</ele><time>2026-04-18T08:34:43.124Z</time></trkpt><trkpt lat="37.8223933" lon="14.8813233"><ele>1026.6666666666667</ele><time>2026-04-18T08:34:44.124Z</time></trkpt><trkpt lat="37.8223267" lon="14.8810467"><ele>1025.0</ele><time>2026-04-18T08:34:45.124Z</time></trkpt><trkpt lat="37.8222617" lon="14.880765"><ele>1025.0</ele><time>2026-04-18T08:34:46.124Z</time></trkpt><trkpt lat="37.822205" lon="14.8804817"><ele>1025.0</ele><time>2026-04-18T08:34:47.124Z</time></trkpt><trkpt lat="37.8221467" lon="14.8802"><ele>1026.0</ele><time>2026-04-18T08:34:48.124Z</time></trkpt><trkpt lat="37.8220917" lon="14.8799333"><ele>1027.0</ele><time>2026-04-18T08:34:49.123Z</time></trkpt><trkpt lat="37.8220433" lon="14.8796767"><ele>1028.0</ele><time>2026-04-18T08:34:50.124Z</time></trkpt><trkpt lat="37.8220233" lon="14.87942"><ele>1028.6666666666667</ele><time>2026-04-18T08:34:51.124Z</time></trkpt><trkpt lat="37.8220333" lon="14.8791567"><ele>1029.3333333333333</ele><time>2026-04-18T08:34:52.124Z</time></trkpt><trkpt lat="37.8220583" lon="14.8788883"><ele>1030.0</ele><time>2026-04-18T08:34:53.124Z</time></trkpt><trkpt lat="37.8220767" lon="14.8786067"><ele>1028.6666666666665</ele><time>2026-04-18T08:34:54.123Z</time></trkpt><trkpt lat="37.82209" lon="14.8783267"><ele>1027.3333333333333</ele><time>2026-04-18T08:34:55.124Z</time></trkpt><trkpt lat="37.822095" lon="14.87806"><ele>1026.0</ele><time>2026-04-18T08:34:56.124Z</time></trkpt><trkpt lat="37.8220883" lon="14.8778"><ele>1026.0</ele><time>2026-04-18T08:34:57.124Z</time></trkpt><trkpt lat="37.8220633" lon="14.8775517"><ele>1026.0</ele><time>2026-04-18T08:34:58.124Z</time></trkpt><trkpt lat="37.822" lon="14.8773067"><ele>1026.0</ele><time>2026-04-18T08:34:59.123Z</time></trkpt><trkpt lat="37.821915" lon="14.8770717"><ele>1024.0</ele><time>2026-04-18T08:35:00.124Z</time></trkpt><trkpt lat="37.82181" lon="14.8768417"><ele>1022.0</ele><time>2026-04-18T08:35:01.124Z</time></trkpt><trkpt lat="37.8216967" lon="14.8766267"><ele>1020.0</ele><time>2026-04-18T08:35:02.124Z</time></trkpt><trkpt lat="37.8215833" lon="14.8764167"><ele>1020.0</ele><time>2026-04-18T08:35:03.123Z</time></trkpt><trkpt lat="37.8214767" lon="14.8761983"><ele>1020.0</ele><time>2026-04-18T08:35:04.124Z</time></trkpt><trkpt lat="37.8213933" lon="14.8759767"><ele>1020.0</ele><time>2026-04-18T08:35:05.124Z</time></trkpt><trkpt lat="37.82134" lon="14.87575"><ele>1021.0</ele><time>2026-04-18T08:35:06.124Z</time></trkpt><trkpt lat="37.8213017" lon="14.8755083"><ele>1022.0</ele><time>2026-04-18T08:35:07.124Z</time></trkpt><trkpt lat="37.8212717" lon="14.8752533"><ele>1023.0</ele><time>2026-04-18T08:35:08.124Z</time></trkpt><trkpt lat="37.821265" lon="14.8749817"><ele>1024.0</ele><time>2026-04-18T08:35:09.124Z</time></trkpt><trkpt lat="37.8212617" lon="14.8747083"><ele>1025.0</ele><time>2026-04-18T08:35:10.124Z</time></trkpt><trkpt lat="37.821255" lon="14.8744333"><ele>1026.0</ele><time>2026-04-18T08:35:11.123Z</time></trkpt><trkpt lat="37.8212417" lon="14.8741683"><ele>1027.3333333333333</ele><time>2026-04-18T08:35:12.123Z</time></trkpt><trkpt lat="37.8212283" lon="14.8739167"><ele>1028.6666666666665</ele><time>2026-04-18T08:35:13.124Z</time></trkpt><trkpt lat="37.8212267" lon="14.8736783"><ele>1030.0</ele><time>2026-04-18T08:35:14.124Z</time></trkpt><trkpt lat="37.8212383" lon="14.8734383"><ele>1030.3333333333333</ele><time>2026-04-18T08:35:15.124Z</time></trkpt><trkpt lat="37.821275" lon="14.8732"><ele>1030.6666666666667</ele><time>2026-04-18T08:35:16.124Z</time></trkpt><trkpt lat="37.8213283" lon="14.87296"><ele>1031.0</ele><time>2026-04-18T08:35:17.124Z</time></trkpt><trkpt lat="37.8213933" lon="14.8727283"><ele>1029.0</ele><time>2026-04-18T08:35:18.123Z</time></trkpt><trkpt lat="37.8214783" lon="14.8725167"><ele>1027.0</ele><time>2026-04-18T08:35:19.124Z</time></trkpt><trkpt lat="37.8215717" lon="14.8723183"><ele>1025.0</ele><time>2026-04-18T08:35:20.124Z</time></trkpt><trkpt lat="37.8216483" lon="14.8721117"><ele>1025.0</ele><time>2026-04-18T08:35:21.124Z</time></trkpt><trkpt lat="37.8217017" lon="14.8719067"><ele>1025.0</ele><time>2026-04-18T08:35:22.124Z</time></trkpt><trkpt lat="37.8217167" lon="14.87171"><ele>1025.0</ele><time>2026-04-18T08:35:23.124Z</time></trkpt><trkpt lat="37.82173" lon="14.8715317"><ele>1023.5</ele><time>2026-04-18T08:35:24.124Z</time></trkpt><trkpt lat="37.8217383" lon="14.871365"><ele>1022.0</ele><time>2026-04-18T08:35:25.124Z</time></trkpt><trkpt lat="37.8217417" lon="14.87121"><ele>1020.5</ele><time>2026-04-18T08:35:26.124Z</time></trkpt><trkpt lat="37.8217367" lon="14.8710567"><ele>1019.0</ele><time>2026-04-18T08:35:27.124Z</time></trkpt><trkpt lat="37.82174" lon="14.870905"><ele>1018.75</ele><time>2026-04-18T08:35:28.124Z</time></trkpt><trkpt lat="37.8217467" lon="14.870755"><ele>1018.5</ele><time>2026-04-18T08:35:29.124Z</time></trkpt><trkpt lat="37.82176" lon="14.8705983"><ele>1018.25</ele><time>2026-04-18T08:35:30.123Z</time></trkpt><trkpt lat="37.8217883" lon="14.870445"><ele>1018.0</ele><time>2026-04-18T08:35:31.123Z</time></trkpt><trkpt lat="37.8218333" lon="14.870285"><ele>1022.6666666666666</ele><time>2026-04-18T08:35:32.124Z</time></trkpt><trkpt lat="37.8219" lon="14.87011"><ele>1027.3333333333333</ele><time>2026-04-18T08:35:33.124Z</time></trkpt><trkpt lat="37.8219933" lon="14.86992"><ele>1032.0</ele><time>2026-04-18T08:35:34.124Z</time></trkpt><trkpt lat="37.8221117" lon="14.8697233"><ele>1032.0</ele><time>2026-04-18T08:35:35.124Z</time></trkpt><trkpt lat="37.8222417" lon="14.869505"><ele>1032.0</ele><time>2026-04-18T08:35:36.124Z</time></trkpt><trkpt lat="37.822375" lon="14.869275"><ele>1032.0</ele><time>2026-04-18T08:35:37.124Z</time></trkpt><trkpt lat="37.8224967" lon="14.8690583"><ele>1030.6666666666667</ele><time>2026-04-18T08:35:38.124Z</time></trkpt><trkpt lat="37.8226117" lon="14.868855"><ele>1029.3333333333335</ele><time>2026-04-18T08:35:39.124Z</time></trkpt><trkpt lat="37.8227067" lon="14.8686583"><ele>1028.0</ele><time>2026-04-18T08:35:40.124Z</time></trkpt><trkpt lat="37.822785" lon="14.868455"><ele>1029.6666666666667</ele><time>2026-04-18T08:35:41.124Z</time></trkpt><trkpt lat="37.82284" lon="14.86824"><ele>1031.3333333333333</ele><time>2026-04-18T08:35:42.124Z</time></trkpt><trkpt lat="37.822865" lon="14.8680183"><ele>1033.0</ele><time>2026-04-18T08:35:43.124Z</time></trkpt><trkpt lat="37.822865" lon="14.86779"><ele>1031.3333333333333</ele><time>2026-04-18T08:35:44.124Z</time></trkpt><trkpt lat="37.822835" lon="14.8675583"><ele>1029.6666666666667</ele><time>2026-04-18T08:35:45.124Z</time></trkpt><trkpt lat="37.8228067" lon="14.8673267"><ele>1028.0</ele><time>2026-04-18T08:35:46.124Z</time></trkpt><trkpt lat="37.8227717" lon="14.8671083"><ele>1028.0</ele><time>2026-04-18T08:35:47.124Z</time></trkpt><trkpt lat="37.8227233" lon="14.8669033"><ele>1028.0</ele><time>2026-04-18T08:35:48.124Z</time></trkpt><trkpt lat="37.8226617" lon="14.8666983"><ele>1028.0</ele><time>2026-04-18T08:35:49.124Z</time></trkpt><trkpt lat="37.822585" lon="14.8665083"><ele>1025.6666666666667</ele><time>2026-04-18T08:35:50.124Z</time></trkpt><trkpt lat="37.82249" lon="14.86634"><ele>1023.3333333333333</ele><time>2026-04-18T08:35:51.124Z</time></trkpt><trkpt lat="37.8223733" lon="14.8661817"><ele>1021.0</ele><time>2026-04-18T08:35:52.124Z</time></trkpt><trkpt lat="37.8222483" lon="14.866025"><ele>1021.3333333333333</ele><time>2026-04-18T08:35:53.124Z</time></trkpt><trkpt lat="37.8221133" lon="14.8658733"><ele>1021.6666666666667</ele><time>2026-04-18T08:35:54.124Z</time></trkpt><trkpt lat="37.8219583" lon="14.8657283"><ele>1022.0</ele><time>2026-04-18T08:35:55.124Z</time></trkpt><trkpt lat="37.8218083" lon="14.8655883"><ele>1021.0</ele><time>2026-04-18T08:35:56.123Z</time></trkpt><trkpt lat="37.8216567" lon="14.8654367"><ele>1020.0</ele><time>2026-04-18T08:35:57.124Z</time></trkpt><trkpt lat="37.8215017" lon="14.86528"><ele>1019.0</ele><time>2026-04-18T08:35:58.124Z</time></trkpt><trkpt lat="37.8213467" lon="14.8651217"><ele>1019.3333333333334</ele><time>2026-04-18T08:35:59.124Z</time></trkpt><trkpt lat="37.8211933" lon="14.86497"><ele>1019.6666666666667</ele><time>2026-04-18T08:36:00.124Z</time></trkpt><trkpt lat="37.821045" lon="14.86482"><ele>1020.0</ele><time>2026-04-18T08:36:01.124Z</time></trkpt><trkpt lat="37.8208983" lon="14.8646683"><ele>1018.3333333333333</ele><time>2026-04-18T08:36:02.124Z</time></trkpt><trkpt lat="37.8207517" lon="14.8645167"><ele>1016.6666666666666</ele><time>2026-04-18T08:36:03.124Z</time></trkpt><trkpt lat="37.8206133" lon="14.864365"><ele>1015.0</ele><time>2026-04-18T08:36:04.124Z</time></trkpt><trkpt lat="37.8204633" lon="14.8642167"><ele>1014.3333333333333</ele><time>2026-04-18T08:36:05.124Z</time></trkpt><trkpt lat="37.8203083" lon="14.864065"><ele>1013.6666666666667</ele><time>2026-04-18T08:36:06.124Z</time></trkpt><trkpt lat="37.8201533" lon="14.8639083"><ele>1013.0</ele><time>2026-04-18T08:36:07.124Z</time></trkpt><trkpt lat="37.8200083" lon="14.86376"><ele>1011.3333333333334</ele><time>2026-04-18T08:36:08.124Z</time></trkpt><trkpt lat="37.8198783" lon="14.8636083"><ele>1009.6666666666667</ele><time>2026-04-18T08:36:09.124Z</time></trkpt><trkpt lat="37.819755" lon="14.8634433"><ele>1008.0</ele><time>2026-04-18T08:36:10.124Z</time></trkpt><trkpt lat="37.8196433" lon="14.8632633"><ele>1006.6666666666667</ele><time>2026-04-18T08:36:11.124Z</time></trkpt><trkpt lat="37.81954" lon="14.8630717"><ele>1005.3333333333334</ele><time>2026-04-18T08:36:12.124Z</time></trkpt><trkpt lat="37.8194433" lon="14.8628667"><ele>1004.0</ele><time>2026-04-18T08:36:13.124Z</time></trkpt><trkpt lat="37.819355" lon="14.8626533"><ele>1005.6666666666667</ele><time>2026-04-18T08:36:14.124Z</time></trkpt><trkpt lat="37.81927" lon="14.86243"><ele>1007.3333333333333</ele><time>2026-04-18T08:36:15.124Z</time></trkpt><trkpt lat="37.8191867" lon="14.8622117"><ele>1009.0</ele><time>2026-04-18T08:36:16.124Z</time></trkpt><trkpt lat="37.8191" lon="14.86198"><ele>1006.6666666666666</ele><time>2026-04-18T08:36:17.124Z</time></trkpt><trkpt lat="37.81901" lon="14.861755"><ele>1004.3333333333333</ele><time>2026-04-18T08:36:18.124Z</time></trkpt><trkpt lat="37.8189283" lon="14.8615417"><ele>1002.0</ele><time>2026-04-18T08:36:19.124Z</time></trkpt><trkpt lat="37.8188467" lon="14.8613267"><ele>1002.0</ele><time>2026-04-18T08:36:20.124Z</time></trkpt><trkpt lat="37.818765" lon="14.8611117"><ele>1002.0</ele><time>2026-04-18T08:36:21.124Z</time></trkpt><trkpt lat="37.8186733" lon="14.860905"><ele>1002.0</ele><time>2026-04-18T08:36:22.124Z</time></trkpt><trkpt lat="37.81857" lon="14.8607067"><ele>1005.3333333333333</ele><time>2026-04-18T08:36:23.124Z</time></trkpt><trkpt lat="37.8184533" lon="14.8605217"><ele>1008.6666666666666</ele><time>2026-04-18T08:36:24.124Z</time></trkpt><trkpt lat="37.8183183" lon="14.8603533"><ele>1012.0</ele><time>2026-04-18T08:36:25.123Z</time></trkpt><trkpt lat="37.8181733" lon="14.86019"><ele>1006.6666666666666</ele><time>2026-04-18T08:36:26.124Z</time></trkpt><trkpt lat="37.8180267" lon="14.8600333"><ele>1001.3333333333333</ele><time>2026-04-18T08:36:27.124Z</time></trkpt><trkpt lat="37.8178633" lon="14.8598867"><ele>996.0</ele><time>2026-04-18T08:36:28.124Z</time></trkpt><trkpt lat="37.8176917" lon="14.85975"><ele>999.6666666666667</ele><time>2026-04-18T08:36:29.124Z</time></trkpt><trkpt lat="37.81751" lon="14.859625"><ele>1003.3333333333334</ele><time>2026-04-18T08:36:30.124Z</time></trkpt><trkpt lat="37.817325" lon="14.8595167"><ele>1007.0</ele><time>2026-04-18T08:36:31.124Z</time></trkpt><trkpt lat="37.817135" lon="14.859395"><ele>1004.6666666666667</ele><time>2026-04-18T08:36:32.124Z</time></trkpt><trkpt lat="37.8169517" lon="14.8592733"><ele>1002.3333333333333</ele><time>2026-04-18T08:36:33.124Z</time></trkpt><trkpt lat="37.8167667" lon="14.85915"><ele>1000.0</ele><time>2026-04-18T08:36:34.124Z</time></trkpt><trkpt lat="37.8165817" lon="14.8590233"><ele>1000.0</ele><time>2026-04-18T08:36:35.124Z</time></trkpt><trkpt lat="37.8164033" lon="14.8588933"><ele>1000.0</ele><time>2026-04-18T08:36:36.124Z</time></trkpt><trkpt lat="37.8162183" lon="14.8587567"><ele>1000.0</ele><time>2026-04-18T08:36:37.124Z</time></trkpt><trkpt lat="37.8160517" lon="14.8586167"><ele>1002.6666666666666</ele><time>2026-04-18T08:36:38.124Z</time></trkpt><trkpt lat="37.8158867" lon="14.858475"><ele>1005.3333333333333</ele><time>2026-04-18T08:36:39.124Z</time></trkpt><trkpt lat="37.8157167" lon="14.8583383"><ele>1008.0</ele><time>2026-04-18T08:36:40.124Z</time></trkpt><trkpt lat="37.81556" lon="14.8582067"><ele>1004.3333333333333</ele><time>2026-04-18T08:36:41.124Z</time></trkpt><trkpt lat="37.8154" lon="14.8580817"><ele>1000.6666666666666</ele><time>2026-04-18T08:36:42.123Z</time></trkpt><trkpt lat="37.8152333" lon="14.857965"><ele>997.0</ele><time>2026-04-18T08:36:43.124Z</time></trkpt><trkpt lat="37.8150633" lon="14.8578683"><ele>997.0</ele><time>2026-04-18T08:36:44.124Z</time></trkpt><trkpt lat="37.81489" lon="14.8577867"><ele>997.0</ele><time>2026-04-18T08:36:45.124Z</time></trkpt><trkpt lat="37.8147083" lon="14.8577017"><ele>997.0</ele><time>2026-04-18T08:36:46.124Z</time></trkpt><trkpt lat="37.8145167" lon="14.85763"><ele>994.0</ele><time>2026-04-18T08:36:47.124Z</time></trkpt><trkpt lat="37.81431" lon="14.857565"><ele>991.0</ele><time>2026-04-18T08:36:48.124Z</time></trkpt><trkpt lat="37.8140933" lon="14.85751"><ele>988.0</ele><time>2026-04-18T08:36:49.124Z</time></trkpt><trkpt lat="37.813875" lon="14.8574667"><ele>988.0</ele><time>2026-04-18T08:36:50.124Z</time></trkpt><trkpt lat="37.8136567" lon="14.8574267"><ele>988.0</ele><time>2026-04-18T08:36:51.124Z</time></trkpt><trkpt lat="37.8134333" lon="14.8573867"><ele>988.0</ele><time>2026-04-18T08:36:52.124Z</time></trkpt><trkpt lat="37.8132217" lon="14.857345"><ele>986.3333333333333</ele><time>2026-04-18T08:36:53.124Z</time></trkpt><trkpt lat="37.81301" lon="14.8573017"><ele>984.6666666666667</ele><time>2026-04-18T08:36:54.124Z</time></trkpt><trkpt lat="37.8127883" lon="14.8572633"><ele>983.0</ele><time>2026-04-18T08:36:55.124Z</time></trkpt><trkpt lat="37.81257" lon="14.8572217"><ele>983.0</ele><time>2026-04-18T08:36:56.124Z</time></trkpt><trkpt lat="37.8123515" lon="14.857175"><ele>983.0</ele><time>2026-04-18T08:36:57.124Z</time></trkpt><trkpt lat="37.8121289" lon="14.85712"><ele>983.0</ele><time>2026-04-18T08:36:58.124Z</time></trkpt><trkpt lat="37.8119041" lon="14.8570694"><ele>981.0</ele><time>2026-04-18T08:36:59.124Z</time></trkpt><trkpt lat="37.8116784" lon="14.8570225"><ele>979.0</ele><time>2026-04-18T08:37:00.124Z</time></trkpt><trkpt lat="37.8114499" lon="14.8569805"><ele>979.0</ele><time>2026-04-18T08:37:01.124Z</time></trkpt><trkpt lat="37.8112146" lon="14.8569338"><ele>979.0</ele><time>2026-04-18T08:37:02.124Z</time></trkpt><trkpt lat="37.8109778" lon="14.8568801"><ele>979.0</ele><time>2026-04-18T08:37:03.124Z</time></trkpt><trkpt lat="37.8107418" lon="14.85683"><ele>979.0</ele><time>2026-04-18T08:37:04.124Z</time></trkpt><trkpt lat="37.8105099" lon="14.8567833"><ele>980.0</ele><time>2026-04-18T08:37:05.124Z</time></trkpt><trkpt lat="37.8102767" lon="14.8567367"><ele>981.0</ele><time>2026-04-18T08:37:06.124Z</time></trkpt><trkpt lat="37.8100434" lon="14.8566888"><ele>981.0</ele><time>2026-04-18T08:37:07.124Z</time></trkpt><trkpt lat="37.8098149" lon="14.8566396"><ele>981.0</ele><time>2026-04-18T08:37:08.124Z</time></trkpt><trkpt lat="37.809589" lon="14.8565887"><ele>981.0</ele><time>2026-04-18T08:37:09.124Z</time></trkpt><trkpt lat="37.8093652" lon="14.8565346"><ele>981.0</ele><time>2026-04-18T08:37:10.124Z</time></trkpt><trkpt lat="37.8091361" lon="14.8564822"><ele>979.0</ele><time>2026-04-18T08:37:11.123Z</time></trkpt><trkpt lat="37.8089028" lon="14.8564352"><ele>977.0</ele><time>2026-04-18T08:37:12.124Z</time></trkpt><trkpt lat="37.8086721" lon="14.8563852"><ele>977.0</ele><time>2026-04-18T08:37:13.124Z</time></trkpt><trkpt lat="37.8084447" lon="14.8563353"><ele>977.0</ele><time>2026-04-18T08:37:14.124Z</time></trkpt><trkpt lat="37.8082184" lon="14.8562854"><ele>977.0</ele><time>2026-04-18T08:37:15.124Z</time></trkpt><trkpt lat="37.8079917" lon="14.8562354"><ele>977.0</ele><time>2026-04-18T08:37:16.124Z</time></trkpt><trkpt lat="37.8077686" lon="14.8561866"><ele>976.6666666666667</ele><time>2026-04-18T08:37:17.124Z</time></trkpt><trkpt lat="37.8075511" lon="14.8561368"><ele>976.3333333333333</ele><time>2026-04-18T08:37:18.124Z</time></trkpt><trkpt lat="37.8073387" lon="14.8560893"><ele>976.0</ele><time>2026-04-18T08:37:19.124Z</time></trkpt><trkpt lat="37.8071301" lon="14.8560365"><ele>976.0</ele><time>2026-04-18T08:37:20.124Z</time></trkpt><trkpt lat="37.8069222" lon="14.8559656"><ele>976.0</ele><time>2026-04-18T08:37:21.124Z</time></trkpt><trkpt lat="37.8067245" lon="14.8558621"><ele>976.0</ele><time>2026-04-18T08:37:22.124Z</time></trkpt><trkpt lat="37.8065358" lon="14.8557291"><ele>979.0</ele><time>2026-04-18T08:37:23.124Z</time></trkpt><trkpt lat="37.8063602" lon="14.8555863"><ele>982.0</ele><time>2026-04-18T08:37:24.124Z</time></trkpt><trkpt lat="37.8061866" lon="14.8554533"><ele>985.0</ele><time>2026-04-18T08:37:25.124Z</time></trkpt><trkpt lat="37.8060048" lon="14.8553446"><ele>984.6666666666666</ele><time>2026-04-18T08:37:26.124Z</time></trkpt><trkpt lat="37.8058208" lon="14.8552439"><ele>984.3333333333333</ele><time>2026-04-18T08:37:27.124Z</time></trkpt><trkpt lat="37.8056271" lon="14.8551446"><ele>984.0</ele><time>2026-04-18T08:37:28.124Z</time></trkpt><trkpt lat="37.8054416" lon="14.8550403"><ele>985.0</ele><time>2026-04-18T08:37:29.124Z</time></trkpt><trkpt lat="37.805265" lon="14.8549433"><ele>986.0</ele><time>2026-04-18T08:37:30.124Z</time></trkpt><trkpt lat="37.8050933" lon="14.854845"><ele>987.0</ele><time>2026-04-18T08:37:31.124Z</time></trkpt><trkpt lat="37.8049333" lon="14.8547467"><ele>987.0</ele><time>2026-04-18T08:37:32.124Z</time></trkpt><trkpt lat="37.80478" lon="14.85464"><ele>987.0</ele><time>2026-04-18T08:37:33.124Z</time></trkpt><trkpt lat="37.8046283" lon="14.85452"><ele>987.0</ele><time>2026-04-18T08:37:34.124Z</time></trkpt><trkpt lat="37.804495" lon="14.8543767"><ele>984.3333333333333</ele><time>2026-04-18T08:37:35.124Z</time></trkpt><trkpt lat="37.80438" lon="14.8542283"><ele>981.6666666666666</ele><time>2026-04-18T08:37:36.124Z</time></trkpt><trkpt lat="37.8042767" lon="14.8540883"><ele>979.0</ele><time>2026-04-18T08:37:37.124Z</time></trkpt><trkpt lat="37.8041533" lon="14.8539767"><ele>978.5</ele><time>2026-04-18T08:37:38.124Z</time></trkpt><trkpt lat="37.8040133" lon="14.8539083"><ele>978.0</ele><time>2026-04-18T08:37:39.124Z</time></trkpt><trkpt lat="37.8038683" lon="14.8538883"><ele>977.5</ele><time>2026-04-18T08:37:40.123Z</time></trkpt><trkpt lat="37.8037217" lon="14.8538933"><ele>977.0</ele><time>2026-04-18T08:37:41.124Z</time></trkpt><trkpt lat="37.803575" lon="14.8539067"><ele>977.25</ele><time>2026-04-18T08:37:42.124Z</time></trkpt><trkpt lat="37.8034367" lon="14.8539083"><ele>977.5</ele><time>2026-04-18T08:37:43.124Z</time></trkpt><trkpt lat="37.8033033" lon="14.8538767"><ele>977.75</ele><time>2026-04-18T08:37:44.124Z</time></trkpt><trkpt lat="37.8031667" lon="14.8538167"><ele>978.0</ele><time>2026-04-18T08:37:45.124Z</time></trkpt><trkpt lat="37.80302" lon="14.8537533"><ele>978.0</ele><time>2026-04-18T08:37:46.124Z</time></trkpt><trkpt lat="37.8028717" lon="14.8536867"><ele>978.0</ele><time>2026-04-18T08:37:47.124Z</time></trkpt><trkpt lat="37.8027217" lon="14.8536317"><ele>978.0</ele><time>2026-04-18T08:37:48.124Z</time></trkpt><trkpt lat="37.80258" lon="14.853565"><ele>978.75</ele><time>2026-04-18T08:37:49.124Z</time></trkpt><trkpt lat="37.8024517" lon="14.8534783"><ele>979.5</ele><time>2026-04-18T08:37:50.124Z</time></trkpt><trkpt lat="37.8023267" lon="14.8533783"><ele>980.25</ele><time>2026-04-18T08:37:51.124Z</time></trkpt><trkpt lat="37.8022217" lon="14.853255"><ele>981.0</ele><time>2026-04-18T08:37:52.124Z</time></trkpt><trkpt lat="37.80213" lon="14.8530983"><ele>976.75</ele><time>2026-04-18T08:37:53.124Z</time></trkpt><trkpt lat="37.8020667" lon="14.8529367"><ele>972.5</ele><time>2026-04-18T08:37:54.124Z</time></trkpt><trkpt lat="37.8020167" lon="14.852765"><ele>968.25</ele><time>2026-04-18T08:37:55.123Z</time></trkpt><trkpt lat="37.8019733" lon="14.8525917"><ele>964.0</ele><time>2026-04-18T08:37:56.124Z</time></trkpt><trkpt lat="37.8019267" lon="14.852415"><ele>963.0</ele><time>2026-04-18T08:37:57.124Z</time></trkpt><trkpt lat="37.8018717" lon="14.852245"><ele>962.0</ele><time>2026-04-18T08:37:58.124Z</time></trkpt><trkpt lat="37.8018067" lon="14.852095"><ele>961.0</ele><time>2026-04-18T08:37:59.124Z</time></trkpt><trkpt lat="37.8017" lon="14.8519633"><ele>960.0</ele><time>2026-04-18T08:38:00.124Z</time></trkpt><trkpt lat="37.8015733" lon="14.85185"><ele>955.6666666666667</ele><time>2026-04-18T08:38:01.124Z</time></trkpt><trkpt lat="37.80144" lon="14.8517517"><ele>951.3333333333334</ele><time>2026-04-18T08:38:02.124Z</time></trkpt><trkpt lat="37.8013017" lon="14.8516667"><ele>947.0</ele><time>2026-04-18T08:38:03.124Z</time></trkpt><trkpt lat="37.8011667" lon="14.8516017"><ele>947.0</ele><time>2026-04-18T08:38:04.124Z</time></trkpt><trkpt lat="37.8010233" lon="14.851565"><ele>947.0</ele><time>2026-04-18T08:38:05.124Z</time></trkpt><trkpt lat="37.80087" lon="14.8515533"><ele>947.0</ele><time>2026-04-18T08:38:06.124Z</time></trkpt><trkpt lat="37.80071" lon="14.851565"><ele>947.25</ele><time>2026-04-18T08:38:07.124Z</time></trkpt><trkpt lat="37.8005533" lon="14.8515733"><ele>947.5</ele><time>2026-04-18T08:38:08.124Z</time></trkpt><trkpt lat="37.8004067" lon="14.85159"><ele>947.75</ele><time>2026-04-18T08:38:09.124Z</time></trkpt><trkpt lat="37.800265" lon="14.851615"><ele>948.0</ele><time>2026-04-18T08:38:10.124Z</time></trkpt><trkpt lat="37.8001267" lon="14.8516317"><ele>946.5999999999999</ele><time>2026-04-18T08:38:11.123Z</time></trkpt><trkpt lat="37.8000033" lon="14.8516417"><ele>945.1999999999999</ele><time>2026-04-18T08:38:12.124Z</time></trkpt><trkpt lat="37.7998933" lon="14.8516433"><ele>943.8</ele><time>2026-04-18T08:38:13.123Z</time></trkpt><trkpt lat="37.7998067" lon="14.8516267"><ele>942.4</ele><time>2026-04-18T08:38:14.124Z</time></trkpt><trkpt lat="37.7997417" lon="14.8515867"><ele>941.0</ele><time>2026-04-18T08:38:15.124Z</time></trkpt><trkpt lat="37.7996917" lon="14.8515283"><ele>941.0</ele><time>2026-04-18T08:38:16.124Z</time></trkpt><trkpt lat="37.7996183" lon="14.851405"><ele>941.0</ele><time>2026-04-18T08:38:18.123Z</time></trkpt><trkpt lat="37.7995533" lon="14.8512783"><ele>941.0</ele><time>2026-04-18T08:38:20.124Z</time></trkpt><trkpt lat="37.799475" lon="14.85118"><ele>941.0</ele><time>2026-04-18T08:38:22.124Z</time></trkpt><trkpt lat="37.7993833" lon="14.8510967"><ele>940.4</ele><time>2026-04-18T08:38:24.124Z</time></trkpt><trkpt lat="37.7992517" lon="14.8510483"><ele>939.8</ele><time>2026-04-18T08:38:26.124Z</time></trkpt><trkpt lat="37.7991683" lon="14.8510583"><ele>939.1999999999999</ele><time>2026-04-18T08:38:27.124Z</time></trkpt><trkpt lat="37.7990683" lon="14.8510833"><ele>938.5999999999999</ele><time>2026-04-18T08:38:28.124Z</time></trkpt><trkpt lat="37.79897" lon="14.851125"><ele>938.0</ele><time>2026-04-18T08:38:29.123Z</time></trkpt><trkpt lat="37.7988633" lon="14.8512033"><ele>938.0</ele><time>2026-04-18T08:38:30.124Z</time></trkpt><trkpt lat="37.7987633" lon="14.851295"><ele>938.0</ele><time>2026-04-18T08:38:31.124Z</time></trkpt><trkpt lat="37.79866" lon="14.851395"><ele>938.0</ele><time>2026-04-18T08:38:32.124Z</time></trkpt><trkpt lat="37.798575" lon="14.851495"><ele>938.0</ele><time>2026-04-18T08:38:33.124Z</time></trkpt><trkpt lat="37.798495" lon="14.85159"><ele>936.0</ele><time>2026-04-18T08:38:34.124Z</time></trkpt><trkpt lat="37.798415" lon="14.8516717"><ele>934.0</ele><time>2026-04-18T08:38:35.124Z</time></trkpt><trkpt lat="37.798325" lon="14.85174"><ele>932.0</ele><time>2026-04-18T08:38:36.124Z</time></trkpt><trkpt lat="37.79823" lon="14.8517817"><ele>930.0</ele><time>2026-04-18T08:38:37.124Z</time></trkpt><trkpt lat="37.7981283" lon="14.8517983"><ele>928.0</ele><time>2026-04-18T08:38:38.124Z</time></trkpt><trkpt lat="37.79803" lon="14.8518083"><ele>928.0</ele><time>2026-04-18T08:38:39.123Z</time></trkpt><trkpt lat="37.7979283" lon="14.8517967"><ele>928.0</ele><time>2026-04-18T08:38:40.124Z</time></trkpt><trkpt lat="37.7978217" lon="14.85176"><ele>928.0</ele><time>2026-04-18T08:38:41.124Z</time></trkpt><trkpt lat="37.797715" lon="14.851655"><ele>928.0</ele><time>2026-04-18T08:38:42.124Z</time></trkpt><trkpt lat="37.797625" lon="14.8515267"><ele>927.5</ele><time>2026-04-18T08:38:43.124Z</time></trkpt><trkpt lat="37.7975417" lon="14.851385"><ele>927.0</ele><time>2026-04-18T08:38:44.124Z</time></trkpt><trkpt lat="37.79746" lon="14.8512467"><ele>926.5</ele><time>2026-04-18T08:38:45.124Z</time></trkpt><trkpt lat="37.797375" lon="14.8511067"><ele>926.0</ele><time>2026-04-18T08:38:46.124Z</time></trkpt><trkpt lat="37.7973" lon="14.850955"><ele>922.5</ele><time>2026-04-18T08:38:47.124Z</time></trkpt><trkpt lat="37.7972283" lon="14.8507967"><ele>919.0</ele><time>2026-04-18T08:38:48.123Z</time></trkpt><trkpt lat="37.797155" lon="14.850635"><ele>915.5</ele><time>2026-04-18T08:38:49.124Z</time></trkpt><trkpt lat="37.7970817" lon="14.8504733"><ele>912.0</ele><time>2026-04-18T08:38:50.124Z</time></trkpt><trkpt lat="37.797015" lon="14.85031"><ele>912.0</ele><time>2026-04-18T08:38:51.124Z</time></trkpt><trkpt lat="37.7969433" lon="14.850155"><ele>912.0</ele><time>2026-04-18T08:38:52.124Z</time></trkpt><trkpt lat="37.7968733" lon="14.8500033"><ele>912.0</ele><time>2026-04-18T08:38:53.123Z</time></trkpt><trkpt lat="37.7967967" lon="14.8498483"><ele>912.0</ele><time>2026-04-18T08:38:54.124Z</time></trkpt><trkpt lat="37.7967083" lon="14.8497"><ele>912.6666666666667</ele><time>2026-04-18T08:38:55.124Z</time></trkpt><trkpt lat="37.7965967" lon="14.8495783"><ele>913.3333333333334</ele><time>2026-04-18T08:38:56.123Z</time></trkpt><trkpt lat="37.7964683" lon="14.8494667"><ele>914.0</ele><time>2026-04-18T08:38:57.124Z</time></trkpt><trkpt lat="37.7963467" lon="14.8493633"><ele>910.25</ele><time>2026-04-18T08:38:58.124Z</time></trkpt><trkpt lat="37.7962283" lon="14.849255"><ele>906.5</ele><time>2026-04-18T08:38:59.124Z</time></trkpt><trkpt lat="37.796095" lon="14.8491567"><ele>902.75</ele><time>2026-04-18T08:39:00.124Z</time></trkpt><trkpt lat="37.7959617" lon="14.84909"><ele>899.0</ele><time>2026-04-18T08:39:01.124Z</time></trkpt><trkpt lat="37.7958233" lon="14.8490733"><ele>899.0</ele><time>2026-04-18T08:39:02.124Z</time></trkpt><trkpt lat="37.7956767" lon="14.8490967"><ele>899.0</ele><time>2026-04-18T08:39:03.124Z</time></trkpt><trkpt lat="37.7955417" lon="14.849135"><ele>899.0</ele><time>2026-04-18T08:39:04.124Z</time></trkpt><trkpt lat="37.7954183" lon="14.8491683"><ele>899.0</ele><time>2026-04-18T08:39:05.124Z</time></trkpt><trkpt lat="37.795305" lon="14.8491783"><ele>899.0</ele><time>2026-04-18T08:39:06.124Z</time></trkpt><trkpt lat="37.7952067" lon="14.8491467"><ele>899.0000000000001</ele><time>2026-04-18T08:39:07.124Z</time></trkpt><trkpt lat="37.7951283" lon="14.8490783"><ele>899.0000000000001</ele><time>2026-04-18T08:39:08.124Z</time></trkpt><trkpt lat="37.79506" lon="14.8489783"><ele>899.0</ele><time>2026-04-18T08:39:09.124Z</time></trkpt><trkpt lat="37.795005" lon="14.84888"><ele>899.0</ele><time>2026-04-18T08:39:10.124Z</time></trkpt><trkpt lat="37.79495" lon="14.8487733"><ele>898.2</ele><time>2026-04-18T08:39:11.124Z</time></trkpt><trkpt lat="37.7948833" lon="14.8486567"><ele>897.4000000000001</ele><time>2026-04-18T08:39:12.123Z</time></trkpt><trkpt lat="37.7948233" lon="14.8485467"><ele>896.6</ele><time>2026-04-18T08:39:13.124Z</time></trkpt><trkpt lat="37.794765" lon="14.8484383"><ele>895.8</ele><time>2026-04-18T08:39:14.124Z</time></trkpt><trkpt lat="37.7947" lon="14.8483317"><ele>895.0</ele><time>2026-04-18T08:39:15.123Z</time></trkpt><trkpt lat="37.7946267" lon="14.8482217"><ele>893.2</ele><time>2026-04-18T08:39:16.124Z</time></trkpt><trkpt lat="37.7945633" lon="14.84811"><ele>891.4</ele><time>2026-04-18T08:39:17.123Z</time></trkpt><trkpt lat="37.79451" lon="14.8479967"><ele>889.5999999999999</ele><time>2026-04-18T08:39:18.124Z</time></trkpt><trkpt lat="37.7944533" lon="14.8478833"><ele>887.8</ele><time>2026-04-18T08:39:19.124Z</time></trkpt><trkpt lat="37.7944" lon="14.84776"><ele>886.0</ele><time>2026-04-18T08:39:20.124Z</time></trkpt><trkpt lat="37.7943533" lon="14.8476433"><ele>885.4</ele><time>2026-04-18T08:39:21.124Z</time></trkpt><trkpt lat="37.7943167" lon="14.8475217"><ele>884.8</ele><time>2026-04-18T08:39:22.124Z</time></trkpt><trkpt lat="37.79428" lon="14.8474083"><ele>884.1999999999999</ele><time>2026-04-18T08:39:23.124Z</time></trkpt><trkpt lat="37.7942417" lon="14.8473083"><ele>883.5999999999999</ele><time>2026-04-18T08:39:24.124Z</time></trkpt><trkpt lat="37.7941983" lon="14.847215"><ele>883.0</ele><time>2026-04-18T08:39:25.124Z</time></trkpt><trkpt lat="37.7941467" lon="14.8471417"><ele>883.0</ele><time>2026-04-18T08:39:26.124Z</time></trkpt><trkpt lat="37.7940933" lon="14.84708"><ele>883.0</ele><time>2026-04-18T08:39:27.124Z</time></trkpt><trkpt lat="37.7940417" lon="14.847025"><ele>883.0</ele><time>2026-04-18T08:39:28.124Z</time></trkpt><trkpt lat="37.79399" lon="14.8469783"><ele>883.0</ele><time>2026-04-18T08:39:29.124Z</time></trkpt><trkpt lat="37.7939267" lon="14.8468983"><ele>883.0</ele><time>2026-04-18T08:39:31.124Z</time></trkpt><trkpt lat="37.79388" lon="14.8468117"><ele>883.0</ele><time>2026-04-18T08:39:34.124Z</time></trkpt><trkpt lat="37.7938633" lon="14.8467283"><ele>883.0</ele><time>2026-04-18T08:39:37.124Z</time></trkpt><trkpt lat="37.7938833" lon="14.8468083"><ele>882.9999999999999</ele><time>2026-04-18T09:18:42.119Z</time></trkpt><trkpt lat="37.793945" lon="14.8469133"><ele>883.0</ele><time>2026-04-18T09:18:48.12Z</time></trkpt><trkpt lat="37.7940083" lon="14.847015"><ele>883.0</ele><time>2026-04-18T09:18:50.12Z</time></trkpt><trkpt lat="37.79406" lon="14.8470733"><ele>883.0</ele><time>2026-04-18T09:18:51.12Z</time></trkpt><trkpt lat="37.7941167" lon="14.8471383"><ele>882.9999999999999</ele><time>2026-04-18T09:18:52.12Z</time></trkpt><trkpt lat="37.79417" lon="14.8472133"><ele>883.0</ele><time>2026-04-18T09:18:53.12Z</time></trkpt><trkpt lat="37.7942167" lon="14.8473017"><ele>883.0</ele><time>2026-04-18T09:18:54.12Z</time></trkpt><trkpt lat="37.7942567" lon="14.847405"><ele>883.0</ele><time>2026-04-18T09:18:55.12Z</time></trkpt><trkpt lat="37.79429" lon="14.8475183"><ele>883.0</ele><time>2026-04-18T09:18:56.12Z</time></trkpt><trkpt lat="37.7943283" lon="14.8476467"><ele>883.0</ele><time>2026-04-18T09:18:57.119Z</time></trkpt><trkpt lat="37.7943783" lon="14.8477717"><ele>883.0</ele><time>2026-04-18T09:18:58.12Z</time></trkpt><trkpt lat="37.794435" lon="14.847895"><ele>883.75</ele><time>2026-04-18T09:18:59.12Z</time></trkpt><trkpt lat="37.7945017" lon="14.8480217"><ele>884.5</ele><time>2026-04-18T09:19:00.12Z</time></trkpt><trkpt lat="37.7945733" lon="14.848145"><ele>885.25</ele><time>2026-04-18T09:19:01.12Z</time></trkpt><trkpt lat="37.79464" lon="14.8482717"><ele>886.0</ele><time>2026-04-18T09:19:02.12Z</time></trkpt><trkpt lat="37.79471" lon="14.84839"><ele>888.25</ele><time>2026-04-18T09:19:03.12Z</time></trkpt><trkpt lat="37.79478" lon="14.8485067"><ele>890.5</ele><time>2026-04-18T09:19:04.12Z</time></trkpt><trkpt lat="37.7948467" lon="14.84862"><ele>892.75</ele><time>2026-04-18T09:19:05.12Z</time></trkpt><trkpt lat="37.7949133" lon="14.8487417"><ele>895.0</ele><time>2026-04-18T09:19:06.119Z</time></trkpt><trkpt lat="37.79498" lon="14.8488633"><ele>895.0</ele><time>2026-04-18T09:19:07.12Z</time></trkpt><trkpt lat="37.7950483" lon="14.8489817"><ele>895.0</ele><time>2026-04-18T09:19:08.12Z</time></trkpt><trkpt lat="37.7951167" lon="14.8490933"><ele>895.0</ele><time>2026-04-18T09:19:09.12Z</time></trkpt><trkpt lat="37.795195" lon="14.84917"><ele>895.0</ele><time>2026-04-18T09:19:10.12Z</time></trkpt><trkpt lat="37.795295" lon="14.8492167"><ele>895.0</ele><time>2026-04-18T09:19:11.12Z</time></trkpt><trkpt lat="37.795415" lon="14.8492067"><ele>896.0</ele><time>2026-04-18T09:19:12.119Z</time></trkpt><trkpt lat="37.7955283" lon="14.849175"><ele>897.0</ele><time>2026-04-18T09:19:13.12Z</time></trkpt><trkpt lat="37.7956517" lon="14.8491317"><ele>898.0</ele><time>2026-04-18T09:19:14.12Z</time></trkpt><trkpt lat="37.795775" lon="14.84911"><ele>899.0</ele><time>2026-04-18T09:19:15.12Z</time></trkpt><trkpt lat="37.795895" lon="14.8491117"><ele>896.5</ele><time>2026-04-18T09:19:16.12Z</time></trkpt><trkpt lat="37.7960183" lon="14.8491417"><ele>894.0</ele><time>2026-04-18T09:19:17.12Z</time></trkpt><trkpt lat="37.796135" lon="14.84921"><ele>891.5</ele><time>2026-04-18T09:19:18.12Z</time></trkpt><trkpt lat="37.79624" lon="14.8492983"><ele>889.0</ele><time>2026-04-18T09:19:19.12Z</time></trkpt><trkpt lat="37.796355" lon="14.8493967"><ele>895.25</ele><time>2026-04-18T09:19:20.12Z</time></trkpt><trkpt lat="37.7964683" lon="14.8494917"><ele>901.5</ele><time>2026-04-18T09:19:21.12Z</time></trkpt><trkpt lat="37.7965767" lon="14.8495833"><ele>907.75</ele><time>2026-04-18T09:19:22.12Z</time></trkpt><trkpt lat="37.7966783" lon="14.8496917"><ele>914.0</ele><time>2026-04-18T09:19:23.12Z</time></trkpt><trkpt lat="37.796765" lon="14.849835"><ele>913.5</ele><time>2026-04-18T09:19:24.119Z</time></trkpt><trkpt lat="37.79684" lon="14.849995"><ele>913.0</ele><time>2026-04-18T09:19:25.12Z</time></trkpt><trkpt lat="37.7969117" lon="14.850155"><ele>912.5</ele><time>2026-04-18T09:19:26.12Z</time></trkpt><trkpt lat="37.79698" lon="14.8503183"><ele>912.0</ele><time>2026-04-18T09:19:27.12Z</time></trkpt><trkpt lat="37.797055" lon="14.850495"><ele>912.0</ele><time>2026-04-18T09:19:28.119Z</time></trkpt><trkpt lat="37.7971333" lon="14.8506717"><ele>912.0</ele><time>2026-04-18T09:19:29.12Z</time></trkpt><trkpt lat="37.7972183" lon="14.8508467"><ele>912.0</ele><time>2026-04-18T09:19:30.12Z</time></trkpt><trkpt lat="37.79731" lon="14.8510067"><ele>916.6666666666667</ele><time>2026-04-18T09:19:31.12Z</time></trkpt><trkpt lat="37.7973933" lon="14.851175"><ele>921.3333333333334</ele><time>2026-04-18T09:19:32.12Z</time></trkpt><trkpt lat="37.797485" lon="14.8513233"><ele>926.0</ele><time>2026-04-18T09:19:33.12Z</time></trkpt><trkpt lat="37.7975783" lon="14.8514683"><ele>926.0</ele><time>2026-04-18T09:19:34.119Z</time></trkpt><trkpt lat="37.79766" lon="14.851605"><ele>926.0</ele><time>2026-04-18T09:19:35.12Z</time></trkpt><trkpt lat="37.79774" lon="14.8517117"><ele>926.0</ele><time>2026-04-18T09:19:36.119Z</time></trkpt><trkpt lat="37.797825" lon="14.8517883"><ele>926.0</ele><time>2026-04-18T09:19:37.12Z</time></trkpt><trkpt lat="37.79791" lon="14.8518467"><ele>926.4</ele><time>2026-04-18T09:19:38.12Z</time></trkpt><trkpt lat="37.798005" lon="14.85186"><ele>926.8</ele><time>2026-04-18T09:19:39.12Z</time></trkpt><trkpt lat="37.798105" lon="14.8518433"><ele>927.1999999999999</ele><time>2026-04-18T09:19:40.12Z</time></trkpt><trkpt lat="37.7982133" lon="14.851825"><ele>927.5999999999999</ele><time>2026-04-18T09:19:41.119Z</time></trkpt><trkpt lat="37.7983267" lon="14.8517917"><ele>928.0</ele><time>2026-04-18T09:19:42.12Z</time></trkpt><trkpt lat="37.798425" lon="14.8517333"><ele>930.5</ele><time>2026-04-18T09:19:43.12Z</time></trkpt><trkpt lat="37.7985133" lon="14.85164"><ele>933.0</ele><time>2026-04-18T09:19:44.12Z</time></trkpt><trkpt lat="37.7985933" lon="14.8515367"><ele>935.5</ele><time>2026-04-18T09:19:45.119Z</time></trkpt><trkpt lat="37.7986833" lon="14.8514317"><ele>938.0</ele><time>2026-04-18T09:19:46.12Z</time></trkpt><trkpt lat="37.7987717" lon="14.851335"><ele>938.0</ele><time>2026-04-18T09:19:47.12Z</time></trkpt><trkpt lat="37.798875" lon="14.8512467"><ele>938.0</ele><time>2026-04-18T09:19:48.119Z</time></trkpt><trkpt lat="37.7989817" lon="14.85118"><ele>938.0</ele><time>2026-04-18T09:19:49.12Z</time></trkpt><trkpt lat="37.7990967" lon="14.8511333"><ele>938.0</ele><time>2026-04-18T09:19:50.12Z</time></trkpt><trkpt lat="37.7992183" lon="14.8510983"><ele>938.0</ele><time>2026-04-18T09:19:51.119Z</time></trkpt><trkpt lat="37.7993283" lon="14.8510967"><ele>938.0</ele><time>2026-04-18T09:19:52.119Z</time></trkpt><trkpt lat="37.7994167" lon="14.8511383"><ele>938.0</ele><time>2026-04-18T09:19:53.12Z</time></trkpt><trkpt lat="37.7994917" lon="14.8512183"><ele>938.0</ele><time>2026-04-18T09:19:54.12Z</time></trkpt><trkpt lat="37.7995633" lon="14.8513233"><ele>938.0</ele><time>2026-04-18T09:19:55.119Z</time></trkpt><trkpt lat="37.7996367" lon="14.851435"><ele>938.5999999999999</ele><time>2026-04-18T09:19:56.12Z</time></trkpt><trkpt lat="37.7997083" lon="14.851545"><ele>939.1999999999999</ele><time>2026-04-18T09:19:57.12Z</time></trkpt><trkpt lat="37.7997867" lon="14.8516217"><ele>939.8</ele><time>2026-04-18T09:19:58.119Z</time></trkpt><trkpt lat="37.7998717" lon="14.851675"><ele>940.4</ele><time>2026-04-18T09:19:59.12Z</time></trkpt><trkpt lat="37.7999733" lon="14.8516783"><ele>941.0</ele><time>2026-04-18T09:20:00.12Z</time></trkpt><trkpt lat="37.8000817" lon="14.851665"><ele>942.75</ele><time>2026-04-18T09:20:01.12Z</time></trkpt><trkpt lat="37.8001983" lon="14.8516517"><ele>944.5</ele><time>2026-04-18T09:20:02.12Z</time></trkpt><trkpt lat="37.8003267" lon="14.8516333"><ele>946.25</ele><time>2026-04-18T09:20:03.12Z</time></trkpt><trkpt lat="37.80045" lon="14.8516217"><ele>948.0</ele><time>2026-04-18T09:20:04.12Z</time></trkpt><trkpt lat="37.80058" lon="14.8516083"><ele>948.0</ele><time>2026-04-18T09:20:05.119Z</time></trkpt><trkpt lat="37.80071" lon="14.851595"><ele>948.0</ele><time>2026-04-18T09:20:06.119Z</time></trkpt><trkpt lat="37.8008383" lon="14.8515833"><ele>948.0</ele><time>2026-04-18T09:20:07.12Z</time></trkpt><trkpt lat="37.8009733" lon="14.8515933"><ele>948.0</ele><time>2026-04-18T09:20:08.12Z</time></trkpt><trkpt lat="37.801105" lon="14.8516283"><ele>947.75</ele><time>2026-04-18T09:20:09.12Z</time></trkpt><trkpt lat="37.8012333" lon="14.85168"><ele>947.5</ele><time>2026-04-18T09:20:10.12Z</time></trkpt><trkpt lat="37.8013683" lon="14.851755"><ele>947.25</ele><time>2026-04-18T09:20:11.12Z</time></trkpt><trkpt lat="37.8014917" lon="14.8518483"><ele>947.0</ele><time>2026-04-18T09:20:12.12Z</time></trkpt><trkpt lat="37.80161" lon="14.851935"><ele>948.25</ele><time>2026-04-18T09:20:13.12Z</time></trkpt><trkpt lat="37.801705" lon="14.8520383"><ele>949.5</ele><time>2026-04-18T09:20:14.12Z</time></trkpt><trkpt lat="37.8017917" lon="14.852155"><ele>950.75</ele><time>2026-04-18T09:20:15.12Z</time></trkpt><trkpt lat="37.8018567" lon="14.8522983"><ele>952.0</ele><time>2026-04-18T09:20:16.12Z</time></trkpt><trkpt lat="37.8019083" lon="14.8524583"><ele>952.0</ele><time>2026-04-18T09:20:17.12Z</time></trkpt><trkpt lat="37.801945" lon="14.8526217"><ele>952.0</ele><time>2026-04-18T09:20:18.12Z</time></trkpt><trkpt lat="37.8019883" lon="14.8527917"><ele>952.0</ele><time>2026-04-18T09:20:19.12Z</time></trkpt><trkpt lat="37.80204" lon="14.852965"><ele>952.0</ele><time>2026-04-18T09:20:20.12Z</time></trkpt><trkpt lat="37.8021017" lon="14.853125"><ele>955.0</ele><time>2026-04-18T09:20:21.12Z</time></trkpt><trkpt lat="37.8021833" lon="14.8532717"><ele>958.0</ele><time>2026-04-18T09:20:22.12Z</time></trkpt><trkpt lat="37.8022783" lon="14.8533917"><ele>961.0</ele><time>2026-04-18T09:20:23.119Z</time></trkpt><trkpt lat="37.8023933" lon="14.853495"><ele>964.0</ele><time>2026-04-18T09:20:24.119Z</time></trkpt><trkpt lat="37.8025183" lon="14.8535817"><ele>968.6666666666666</ele><time>2026-04-18T09:20:25.12Z</time></trkpt><trkpt lat="37.8026467" lon="14.853645"><ele>973.3333333333333</ele><time>2026-04-18T09:20:26.12Z</time></trkpt><trkpt lat="37.8028" lon="14.85371"><ele>978.0</ele><time>2026-04-18T09:20:27.12Z</time></trkpt><trkpt lat="37.80296" lon="14.8537717"><ele>978.0</ele><time>2026-04-18T09:20:28.12Z</time></trkpt><trkpt lat="37.8031183" lon="14.8538333"><ele>978.0</ele><time>2026-04-18T09:20:29.12Z</time></trkpt><trkpt lat="37.803265" lon="14.8538983"><ele>978.0</ele><time>2026-04-18T09:20:30.12Z</time></trkpt><trkpt lat="37.80342" lon="14.8539383"><ele>977.6666666666667</ele><time>2026-04-18T09:20:31.12Z</time></trkpt><trkpt lat="37.803585" lon="14.853945"><ele>977.3333333333334</ele><time>2026-04-18T09:20:32.12Z</time></trkpt><trkpt lat="37.8037317" lon="14.8539317"><ele>977.0</ele><time>2026-04-18T09:20:33.12Z</time></trkpt><trkpt lat="37.8038767" lon="14.8539217"><ele>977.0</ele><time>2026-04-18T09:20:34.12Z</time></trkpt><trkpt lat="37.80401" lon="14.8539383"><ele>977.0</ele><time>2026-04-18T09:20:35.12Z</time></trkpt><trkpt lat="37.804135" lon="14.8540117"><ele>977.0</ele><time>2026-04-18T09:20:36.119Z</time></trkpt><trkpt lat="37.8042533" lon="14.854115"><ele>977.0</ele><time>2026-04-18T09:20:37.12Z</time></trkpt><trkpt lat="37.8043683" lon="14.8542517"><ele>980.3333333333334</ele><time>2026-04-18T09:20:38.12Z</time></trkpt><trkpt lat="37.80448" lon="14.8543983"><ele>983.6666666666667</ele><time>2026-04-18T09:20:39.12Z</time></trkpt><trkpt lat="37.8045933" lon="14.8545317"><ele>987.0</ele><time>2026-04-18T09:20:40.12Z</time></trkpt><trkpt lat="37.8047217" lon="14.854645"><ele>987.0</ele><time>2026-04-18T09:20:41.12Z</time></trkpt><trkpt lat="37.8048583" lon="14.85474"><ele>987.0</ele><time>2026-04-18T09:20:42.12Z</time></trkpt><trkpt lat="37.8050033" lon="14.854825"><ele>987.0</ele><time>2026-04-18T09:20:43.12Z</time></trkpt><trkpt lat="37.8051583" lon="14.85491"><ele>986.0</ele><time>2026-04-18T09:20:44.12Z</time></trkpt><trkpt lat="37.8053133" lon="14.855"><ele>985.0</ele><time>2026-04-18T09:20:45.12Z</time></trkpt><trkpt lat="37.8054817" lon="14.8550883"><ele>984.0</ele><time>2026-04-18T09:20:46.12Z</time></trkpt><trkpt lat="37.805655" lon="14.8551883"><ele>984.0</ele><time>2026-04-18T09:20:47.12Z</time></trkpt><trkpt lat="37.8058233" lon="14.855285"><ele>984.0</ele><time>2026-04-18T09:20:48.12Z</time></trkpt><trkpt lat="37.806" lon="14.8553783"><ele>984.0</ele><time>2026-04-18T09:20:49.12Z</time></trkpt><trkpt lat="37.8061733" lon="14.8554833"><ele>984.3333333333333</ele><time>2026-04-18T09:20:50.12Z</time></trkpt><trkpt lat="37.80633" lon="14.8555917"><ele>984.6666666666666</ele><time>2026-04-18T09:20:51.12Z</time></trkpt><trkpt lat="37.8064883" lon="14.85571"><ele>985.0</ele><time>2026-04-18T09:20:52.12Z</time></trkpt><trkpt lat="37.8066517" lon="14.8558217"><ele>985.0</ele><time>2026-04-18T09:20:53.12Z</time></trkpt><trkpt lat="37.806815" lon="14.8559217"><ele>985.0</ele><time>2026-04-18T09:20:54.12Z</time></trkpt><trkpt lat="37.8069917" lon="14.8560067"><ele>985.0</ele><time>2026-04-18T09:20:55.119Z</time></trkpt><trkpt lat="37.80718" lon="14.8560733"><ele>982.3333333333333</ele><time>2026-04-18T09:20:56.12Z</time></trkpt><trkpt lat="37.8073667" lon="14.8561183"><ele>979.6666666666667</ele><time>2026-04-18T09:20:57.119Z</time></trkpt><trkpt lat="37.8075633" lon="14.85616"><ele>977.0</ele><time>2026-04-18T09:20:58.12Z</time></trkpt><trkpt lat="37.8077617" lon="14.8562"><ele>977.0</ele><time>2026-04-18T09:20:59.12Z</time></trkpt><trkpt lat="37.8079583" lon="14.8562467"><ele>977.0</ele><time>2026-04-18T09:21:00.12Z</time></trkpt><trkpt lat="37.808155" lon="14.85629"><ele>977.0</ele><time>2026-04-18T09:21:01.12Z</time></trkpt><trkpt lat="37.808355" lon="14.8563317"><ele>977.0</ele><time>2026-04-18T09:21:02.12Z</time></trkpt><trkpt lat="37.8085567" lon="14.856375"><ele>977.0</ele><time>2026-04-18T09:21:03.12Z</time></trkpt><trkpt lat="37.8087617" lon="14.8564183"><ele>977.0</ele><time>2026-04-18T09:21:04.12Z</time></trkpt><trkpt lat="37.8089667" lon="14.8564617"><ele>977.0</ele><time>2026-04-18T09:21:05.12Z</time></trkpt><trkpt lat="37.8091667" lon="14.8565133"><ele>977.0</ele><time>2026-04-18T09:21:06.12Z</time></trkpt><trkpt lat="37.809355" lon="14.8565583"><ele>977.0</ele><time>2026-04-18T09:21:07.12Z</time></trkpt><trkpt lat="37.8095483" lon="14.856605"><ele>978.3333333333334</ele><time>2026-04-18T09:21:08.12Z</time></trkpt><trkpt lat="37.8097483" lon="14.8566483"><ele>979.6666666666667</ele><time>2026-04-18T09:21:09.12Z</time></trkpt><trkpt lat="37.8099417" lon="14.8566917"><ele>981.0</ele><time>2026-04-18T09:21:10.12Z</time></trkpt><trkpt lat="37.8101383" lon="14.8567333"><ele>980.3333333333333</ele><time>2026-04-18T09:21:11.12Z</time></trkpt><trkpt lat="37.810335" lon="14.8567833"><ele>979.6666666666666</ele><time>2026-04-18T09:21:12.12Z</time></trkpt><trkpt lat="37.8105367" lon="14.856825"><ele>979.0</ele><time>2026-04-18T09:21:13.119Z</time></trkpt><trkpt lat="37.8107333" lon="14.856875"><ele>979.0</ele><time>2026-04-18T09:21:14.12Z</time></trkpt><trkpt lat="37.8109383" lon="14.8569133"><ele>979.0</ele><time>2026-04-18T09:21:15.119Z</time></trkpt><trkpt lat="37.8111417" lon="14.85695"><ele>979.0</ele><time>2026-04-18T09:21:16.12Z</time></trkpt><trkpt lat="37.811345" lon="14.8569883"><ele>979.0</ele><time>2026-04-18T09:21:17.12Z</time></trkpt><trkpt lat="37.811545" lon="14.8570333"><ele>979.0</ele><time>2026-04-18T09:21:18.12Z</time></trkpt><trkpt lat="37.8117433" lon="14.8570733"><ele>979.0</ele><time>2026-04-18T09:21:19.12Z</time></trkpt><trkpt lat="37.811945" lon="14.8571083"><ele>980.3333333333333</ele><time>2026-04-18T09:21:20.12Z</time></trkpt><trkpt lat="37.8121483" lon="14.8571433"><ele>981.6666666666667</ele><time>2026-04-18T09:21:21.12Z</time></trkpt><trkpt lat="37.812355" lon="14.85719"><ele>983.0</ele><time>2026-04-18T09:21:22.12Z</time></trkpt><trkpt lat="37.8125583" lon="14.8572367"><ele>983.0</ele><time>2026-04-18T09:21:23.12Z</time></trkpt><trkpt lat="37.81276" lon="14.8572767"><ele>983.0</ele><time>2026-04-18T09:21:24.12Z</time></trkpt><trkpt lat="37.8129633" lon="14.8573183"><ele>983.0</ele><time>2026-04-18T09:21:25.12Z</time></trkpt><trkpt lat="37.8131717" lon="14.85735"><ele>983.0</ele><time>2026-04-18T09:21:26.12Z</time></trkpt><trkpt lat="37.81338" lon="14.857395"><ele>983.0</ele><time>2026-04-18T09:21:27.119Z</time></trkpt><trkpt lat="37.8135883" lon="14.85744"><ele>983.0</ele><time>2026-04-18T09:21:28.12Z</time></trkpt><trkpt lat="37.81379" lon="14.85748"><ele>984.6666666666667</ele><time>2026-04-18T09:21:29.12Z</time></trkpt><trkpt lat="37.8139967" lon="14.857525"><ele>986.3333333333333</ele><time>2026-04-18T09:21:30.12Z</time></trkpt><trkpt lat="37.814205" lon="14.8575633"><ele>988.0</ele><time>2026-04-18T09:21:31.12Z</time></trkpt><trkpt lat="37.8144067" lon="14.8576183"><ele>991.0</ele><time>2026-04-18T09:21:32.12Z</time></trkpt><trkpt lat="37.8146067" lon="14.8576883"><ele>994.0</ele><time>2026-04-18T09:21:33.12Z</time></trkpt><trkpt lat="37.8148" lon="14.8577767"><ele>997.0</ele><time>2026-04-18T09:21:34.12Z</time></trkpt><trkpt lat="37.814995" lon="14.8578733"><ele>994.6666666666666</ele><time>2026-04-18T09:21:35.12Z</time></trkpt><trkpt lat="37.8151867" lon="14.8579767"><ele>992.3333333333333</ele><time>2026-04-18T09:21:36.12Z</time></trkpt><trkpt lat="37.8153733" lon="14.858095"><ele>990.0</ele><time>2026-04-18T09:21:37.12Z</time></trkpt><trkpt lat="37.815555" lon="14.8582333"><ele>990.0</ele><time>2026-04-18T09:21:38.12Z</time></trkpt><trkpt lat="37.8157283" lon="14.858375"><ele>990.0</ele><time>2026-04-18T09:21:39.12Z</time></trkpt><trkpt lat="37.8158967" lon="14.858515"><ele>990.0</ele><time>2026-04-18T09:21:40.119Z</time></trkpt><trkpt lat="37.81606" lon="14.8586583"><ele>993.3333333333333</ele><time>2026-04-18T09:21:41.12Z</time></trkpt><trkpt lat="37.8162333" lon="14.8588017"><ele>996.6666666666666</ele><time>2026-04-18T09:21:42.12Z</time></trkpt><trkpt lat="37.8164033" lon="14.858935"><ele>1000.0</ele><time>2026-04-18T09:21:43.12Z</time></trkpt><trkpt lat="37.81658" lon="14.8590667"><ele>1000.0</ele><time>2026-04-18T09:21:44.12Z</time></trkpt><trkpt lat="37.8167533" lon="14.8591933"><ele>1000.0</ele><time>2026-04-18T09:21:45.119Z</time></trkpt><trkpt lat="37.8169217" lon="14.85931"><ele>1000.0</ele><time>2026-04-18T09:21:46.12Z</time></trkpt><trkpt lat="37.8171017" lon="14.859415"><ele>1002.3333333333333</ele><time>2026-04-18T09:21:47.12Z</time></trkpt><trkpt lat="37.8172767" lon="14.85952"><ele>1004.6666666666667</ele><time>2026-04-18T09:21:48.12Z</time></trkpt><trkpt lat="37.8174467" lon="14.8596183"><ele>1007.0</ele><time>2026-04-18T09:21:49.12Z</time></trkpt><trkpt lat="37.8175983" lon="14.8597217"><ele>1003.3333333333334</ele><time>2026-04-18T09:21:50.12Z</time></trkpt><trkpt lat="37.8177517" lon="14.8598267"><ele>999.6666666666667</ele><time>2026-04-18T09:21:51.12Z</time></trkpt><trkpt lat="37.8179017" lon="14.8599467"><ele>996.0</ele><time>2026-04-18T09:21:52.12Z</time></trkpt><trkpt lat="37.818035" lon="14.86008"><ele>1001.3333333333333</ele><time>2026-04-18T09:21:53.12Z</time></trkpt><trkpt lat="37.8181717" lon="14.8602283"><ele>1006.6666666666666</ele><time>2026-04-18T09:21:54.12Z</time></trkpt><trkpt lat="37.8183083" lon="14.86038"><ele>1012.0</ele><time>2026-04-18T09:21:55.12Z</time></trkpt><trkpt lat="37.8184333" lon="14.86054"><ele>1008.6666666666666</ele><time>2026-04-18T09:21:56.12Z</time></trkpt><trkpt lat="37.8185417" lon="14.8607117"><ele>1005.3333333333333</ele><time>2026-04-18T09:21:57.12Z</time></trkpt><trkpt lat="37.81865" lon="14.860895"><ele>1002.0</ele><time>2026-04-18T09:21:58.119Z</time></trkpt><trkpt lat="37.8187467" lon="14.8610933"><ele>1002.0</ele><time>2026-04-18T09:21:59.12Z</time></trkpt><trkpt lat="37.8188333" lon="14.8613133"><ele>1002.0</ele><time>2026-04-18T09:22:00.12Z</time></trkpt><trkpt lat="37.8189383" lon="14.8615533"><ele>1002.0</ele><time>2026-04-18T09:22:01.12Z</time></trkpt><trkpt lat="37.8190417" lon="14.8618017"><ele>1005.5</ele><time>2026-04-18T09:22:02.12Z</time></trkpt><trkpt lat="37.8191433" lon="14.8620617"><ele>1009.0</ele><time>2026-04-18T09:22:03.12Z</time></trkpt><trkpt lat="37.8192383" lon="14.8623233"><ele>1007.3333333333333</ele><time>2026-04-18T09:22:04.12Z</time></trkpt><trkpt lat="37.8193267" lon="14.8625783"><ele>1005.6666666666667</ele><time>2026-04-18T09:22:05.119Z</time></trkpt><trkpt lat="37.819415" lon="14.8628233"><ele>1004.0</ele><time>2026-04-18T09:22:06.12Z</time></trkpt><trkpt lat="37.819515" lon="14.8630567"><ele>1004.0</ele><time>2026-04-18T09:22:07.12Z</time></trkpt><trkpt lat="37.819625" lon="14.8632817"><ele>1004.0</ele><time>2026-04-18T09:22:08.12Z</time></trkpt><trkpt lat="37.81975" lon="14.8634867"><ele>1004.0</ele><time>2026-04-18T09:22:09.12Z</time></trkpt><trkpt lat="37.8199" lon="14.8636767"><ele>1005.3333333333334</ele><time>2026-04-18T09:22:10.12Z</time></trkpt><trkpt lat="37.82006" lon="14.8638483"><ele>1006.6666666666667</ele><time>2026-04-18T09:22:11.12Z</time></trkpt><trkpt lat="37.82022" lon="14.86401"><ele>1008.0</ele><time>2026-04-18T09:22:12.119Z</time></trkpt><trkpt lat="37.820385" lon="14.8641817"><ele>1010.3333333333333</ele><time>2026-04-18T09:22:13.119Z</time></trkpt><trkpt lat="37.8205383" lon="14.8643483"><ele>1012.6666666666666</ele><time>2026-04-18T09:22:14.12Z</time></trkpt><trkpt lat="37.820695" lon="14.8645167"><ele>1015.0</ele><time>2026-04-18T09:22:15.12Z</time></trkpt><trkpt lat="37.8208683" lon="14.8646767"><ele>1016.3333333333333</ele><time>2026-04-18T09:22:16.12Z</time></trkpt><trkpt lat="37.8210333" lon="14.8648467"><ele>1017.6666666666667</ele><time>2026-04-18T09:22:17.12Z</time></trkpt><trkpt lat="37.821195" lon="14.865025"><ele>1019.0</ele><time>2026-04-18T09:22:18.12Z</time></trkpt><trkpt lat="37.821365" lon="14.8651883"><ele>1019.0</ele><time>2026-04-18T09:22:19.119Z</time></trkpt><trkpt lat="37.8215333" lon="14.8653433"><ele>1019.0</ele><time>2026-04-18T09:22:20.12Z</time></trkpt><trkpt lat="37.8216933" lon="14.865495"><ele>1019.0</ele><time>2026-04-18T09:22:21.12Z</time></trkpt><trkpt lat="37.82184" lon="14.8656383"><ele>1019.6666666666667</ele><time>2026-04-18T09:22:22.12Z</time></trkpt><trkpt lat="37.8219833" lon="14.8657717"><ele>1020.3333333333333</ele><time>2026-04-18T09:22:23.12Z</time></trkpt><trkpt lat="37.8221217" lon="14.8659067"><ele>1021.0</ele><time>2026-04-18T09:22:24.12Z</time></trkpt><trkpt lat="37.8222533" lon="14.866075"><ele>1021.0</ele><time>2026-04-18T09:22:25.12Z</time></trkpt><trkpt lat="37.8223833" lon="14.8662383"><ele>1021.0</ele><time>2026-04-18T09:22:26.12Z</time></trkpt><trkpt lat="37.822505" lon="14.8664317"><ele>1021.0</ele><time>2026-04-18T09:22:27.12Z</time></trkpt><trkpt lat="37.8226033" lon="14.8666383"><ele>1023.3333333333333</ele><time>2026-04-18T09:22:28.12Z</time></trkpt><trkpt lat="37.8226883" lon="14.866855"><ele>1025.6666666666667</ele><time>2026-04-18T09:22:29.12Z</time></trkpt><trkpt lat="37.822745" lon="14.86708"><ele>1028.0</ele><time>2026-04-18T09:22:30.12Z</time></trkpt><trkpt lat="37.82278" lon="14.86732"><ele>1028.0</ele><time>2026-04-18T09:22:31.12Z</time></trkpt><trkpt lat="37.82281" lon="14.8675617"><ele>1028.0</ele><time>2026-04-18T09:22:32.12Z</time></trkpt><trkpt lat="37.8228317" lon="14.8678"><ele>1028.0</ele><time>2026-04-18T09:22:33.12Z</time></trkpt><trkpt lat="37.8228367" lon="14.86802"><ele>1029.6666666666667</ele><time>2026-04-18T09:22:34.12Z</time></trkpt><trkpt lat="37.8228117" lon="14.8682417"><ele>1031.3333333333333</ele><time>2026-04-18T09:22:35.119Z</time></trkpt><trkpt lat="37.82275" lon="14.868465"><ele>1033.0</ele><time>2026-04-18T09:22:36.119Z</time></trkpt><trkpt lat="37.82267" lon="14.868675"><ele>1032.6666666666665</ele><time>2026-04-18T09:22:37.12Z</time></trkpt><trkpt lat="37.822555" lon="14.8688917"><ele>1032.3333333333333</ele><time>2026-04-18T09:22:38.12Z</time></trkpt><trkpt lat="37.8224417" lon="14.8690983"><ele>1032.0</ele><time>2026-04-18T09:22:39.12Z</time></trkpt><trkpt lat="37.82232" lon="14.869305"><ele>1032.0</ele><time>2026-04-18T09:22:40.12Z</time></trkpt><trkpt lat="37.822205" lon="14.8695283"><ele>1032.0</ele><time>2026-04-18T09:22:41.119Z</time></trkpt><trkpt lat="37.822085" lon="14.86974"><ele>1032.0</ele><time>2026-04-18T09:22:42.12Z</time></trkpt><trkpt lat="37.821975" lon="14.8699383"><ele>1033.3333333333333</ele><time>2026-04-18T09:22:43.12Z</time></trkpt><trkpt lat="37.8218817" lon="14.8701367"><ele>1034.6666666666665</ele><time>2026-04-18T09:22:44.12Z</time></trkpt><trkpt lat="37.8217983" lon="14.87035"><ele>1036.0</ele><time>2026-04-18T09:22:45.119Z</time></trkpt><trkpt lat="37.8217483" lon="14.87057"><ele>1030.3333333333333</ele><time>2026-04-18T09:22:46.12Z</time></trkpt><trkpt lat="37.8217217" lon="14.8708033"><ele>1024.6666666666667</ele><time>2026-04-18T09:22:47.12Z</time></trkpt><trkpt lat="37.8217183" lon="14.8710417"><ele>1019.0</ele><time>2026-04-18T09:22:48.12Z</time></trkpt><trkpt lat="37.8217267" lon="14.871285"><ele>1019.0</ele><time>2026-04-18T09:22:49.12Z</time></trkpt><trkpt lat="37.8217267" lon="14.87153"><ele>1019.0</ele><time>2026-04-18T09:22:50.12Z</time></trkpt><trkpt lat="37.8216983" lon="14.8717867"><ele>1019.0</ele><time>2026-04-18T09:22:51.12Z</time></trkpt><trkpt lat="37.8216483" lon="14.8720317"><ele>1021.0</ele><time>2026-04-18T09:22:52.12Z</time></trkpt><trkpt lat="37.821575" lon="14.8722617"><ele>1023.0</ele><time>2026-04-18T09:22:53.12Z</time></trkpt><trkpt lat="37.8214917" lon="14.8724733"><ele>1025.0</ele><time>2026-04-18T09:22:54.119Z</time></trkpt><trkpt lat="37.8214117" lon="14.872685"><ele>1027.0</ele><time>2026-04-18T09:22:55.12Z</time></trkpt><trkpt lat="37.8213333" lon="14.8729067"><ele>1029.0</ele><time>2026-04-18T09:22:56.12Z</time></trkpt><trkpt lat="37.8212717" lon="14.8731433"><ele>1031.0</ele><time>2026-04-18T09:22:57.12Z</time></trkpt><trkpt lat="37.821235" lon="14.8733983"><ele>1030.6666666666667</ele><time>2026-04-18T09:22:58.12Z</time></trkpt><trkpt lat="37.821225" lon="14.8736617"><ele>1030.3333333333333</ele><time>2026-04-18T09:22:59.12Z</time></trkpt><trkpt lat="37.8212133" lon="14.8739333"><ele>1030.0</ele><time>2026-04-18T09:23:00.12Z</time></trkpt><trkpt lat="37.821225" lon="14.8742033"><ele>1028.6666666666665</ele><time>2026-04-18T09:23:01.12Z</time></trkpt><trkpt lat="37.821245" lon="14.8744833"><ele>1027.3333333333333</ele><time>2026-04-18T09:23:02.12Z</time></trkpt><trkpt lat="37.8212633" lon="14.8747583"><ele>1026.0</ele><time>2026-04-18T09:23:03.12Z</time></trkpt><trkpt lat="37.8212717" lon="14.87503"><ele>1025.0</ele><time>2026-04-18T09:23:04.12Z</time></trkpt><trkpt lat="37.8212783" lon="14.8752833"><ele>1024.0</ele><time>2026-04-18T09:23:05.12Z</time></trkpt><trkpt lat="37.8212867" lon="14.875525"><ele>1023.0</ele><time>2026-04-18T09:23:06.119Z</time></trkpt><trkpt lat="37.8213283" lon="14.8757583"><ele>1022.0</ele><time>2026-04-18T09:23:07.12Z</time></trkpt><trkpt lat="37.8213867" lon="14.8759917"><ele>1021.0</ele><time>2026-04-18T09:23:08.12Z</time></trkpt><trkpt lat="37.821475" lon="14.8762317"><ele>1020.0</ele><time>2026-04-18T09:23:09.12Z</time></trkpt><trkpt lat="37.82158" lon="14.87646"><ele>1020.0</ele><time>2026-04-18T09:23:10.119Z</time></trkpt><trkpt lat="37.8217" lon="14.87667"><ele>1020.0</ele><time>2026-04-18T09:23:11.12Z</time></trkpt><trkpt lat="37.8218183" lon="14.8768883"><ele>1020.0</ele><time>2026-04-18T09:23:12.12Z</time></trkpt><trkpt lat="37.8219117" lon="14.87711"><ele>1022.0</ele><time>2026-04-18T09:23:13.12Z</time></trkpt><trkpt lat="37.8219883" lon="14.877355"><ele>1024.0</ele><time>2026-04-18T09:23:14.12Z</time></trkpt><trkpt lat="37.8220417" lon="14.87761"><ele>1026.0</ele><time>2026-04-18T09:23:15.12Z</time></trkpt><trkpt lat="37.8220717" lon="14.8778767"><ele>1026.0</ele><time>2026-04-18T09:23:16.12Z</time></trkpt><trkpt lat="37.8220783" lon="14.8781517"><ele>1026.0</ele><time>2026-04-18T09:23:17.12Z</time></trkpt><trkpt lat="37.8220683" lon="14.8784317"><ele>1026.0</ele><time>2026-04-18T09:23:18.119Z</time></trkpt><trkpt lat="37.8220517" lon="14.87871"><ele>1026.6666666666667</ele><time>2026-04-18T09:23:19.12Z</time></trkpt><trkpt lat="37.822035" lon="14.8789883"><ele>1027.3333333333335</ele><time>2026-04-18T09:23:20.12Z</time></trkpt><trkpt lat="37.8220183" lon="14.8792617"><ele>1028.0</ele><time>2026-04-18T09:23:21.12Z</time></trkpt><trkpt lat="37.8220117" lon="14.8795267"><ele>1028.0</ele><time>2026-04-18T09:23:22.12Z</time></trkpt><trkpt lat="37.8220433" lon="14.8797783"><ele>1028.0</ele><time>2026-04-18T09:23:23.12Z</time></trkpt><trkpt lat="37.8220867" lon="14.8800383"><ele>1028.0</ele><time>2026-04-18T09:23:24.119Z</time></trkpt><trkpt lat="37.8221483" lon="14.8802917"><ele>1027.0</ele><time>2026-04-18T09:23:25.12Z</time></trkpt><trkpt lat="37.822205" lon="14.8805567"><ele>1026.0</ele><time>2026-04-18T09:23:26.12Z</time></trkpt><trkpt lat="37.82226" lon="14.8808167"><ele>1025.0</ele><time>2026-04-18T09:23:27.12Z</time></trkpt><trkpt lat="37.8223117" lon="14.8810817"><ele>1025.0</ele><time>2026-04-18T09:23:28.12Z</time></trkpt><trkpt lat="37.822365" lon="14.8813467"><ele>1025.0</ele><time>2026-04-18T09:23:29.12Z</time></trkpt><trkpt lat="37.8224083" lon="14.8816183"><ele>1025.0</ele><time>2026-04-18T09:23:30.12Z</time></trkpt><trkpt lat="37.822435" lon="14.8818883"><ele>1026.6666666666667</ele><time>2026-04-18T09:23:31.12Z</time></trkpt><trkpt lat="37.8224283" lon="14.8821617"><ele>1028.3333333333333</ele><time>2026-04-18T09:23:32.119Z</time></trkpt><trkpt lat="37.8224017" lon="14.8824333"><ele>1030.0</ele><time>2026-04-18T09:23:33.12Z</time></trkpt><trkpt lat="37.8223717" lon="14.8827083"><ele>1032.0</ele><time>2026-04-18T09:23:34.12Z</time></trkpt><trkpt lat="37.8223433" lon="14.882995"><ele>1034.0</ele><time>2026-04-18T09:23:35.12Z</time></trkpt><trkpt lat="37.8223183" lon="14.8832883"><ele>1035.5</ele><time>2026-04-18T09:23:36.12Z</time></trkpt><trkpt lat="37.822285" lon="14.8835783"><ele>1037.0</ele><time>2026-04-18T09:23:37.12Z</time></trkpt><trkpt lat="37.8222533" lon="14.8838617"><ele>1037.0</ele><time>2026-04-18T09:23:38.12Z</time></trkpt><trkpt lat="37.82223" lon="14.8841467"><ele>1037.0</ele><time>2026-04-18T09:23:39.12Z</time></trkpt><trkpt lat="37.822205" lon="14.8844317"><ele>1038.3333333333335</ele><time>2026-04-18T09:23:40.119Z</time></trkpt><trkpt lat="37.8221867" lon="14.884705"><ele>1039.6666666666667</ele><time>2026-04-18T09:23:41.12Z</time></trkpt><trkpt lat="37.822175" lon="14.8849733"><ele>1041.0</ele><time>2026-04-18T09:23:42.12Z</time></trkpt><trkpt lat="37.82219" lon="14.8852417"><ele>1042.5</ele><time>2026-04-18T09:23:43.12Z</time></trkpt><trkpt lat="37.8222133" lon="14.8855217"><ele>1044.0</ele><time>2026-04-18T09:23:44.12Z</time></trkpt><trkpt lat="37.82225" lon="14.88581"><ele>1043.5</ele><time>2026-04-18T09:23:45.12Z</time></trkpt><trkpt lat="37.8222867" lon="14.8861017"><ele>1043.0</ele><time>2026-04-18T09:23:46.12Z</time></trkpt><trkpt lat="37.822325" lon="14.8863933"><ele>1043.0</ele><time>2026-04-18T09:23:47.12Z</time></trkpt><trkpt lat="37.822365" lon="14.8866817"><ele>1043.0</ele><time>2026-04-18T09:23:48.12Z</time></trkpt><trkpt lat="37.822405" lon="14.8869683"><ele>1043.3333333333335</ele><time>2026-04-18T09:23:49.12Z</time></trkpt><trkpt lat="37.8224433" lon="14.8872433"><ele>1043.6666666666667</ele><time>2026-04-18T09:23:50.12Z</time></trkpt><trkpt lat="37.8224767" lon="14.8874983"><ele>1044.0</ele><time>2026-04-18T09:23:51.12Z</time></trkpt><trkpt lat="37.8225367" lon="14.8877433"><ele>1044.0</ele><time>2026-04-18T09:23:52.12Z</time></trkpt><trkpt lat="37.8226233" lon="14.887955"><ele>1044.0</ele><time>2026-04-18T09:23:53.12Z</time></trkpt><trkpt lat="37.8227433" lon="14.8881533"><ele>1044.0</ele><time>2026-04-18T09:23:54.12Z</time></trkpt><trkpt lat="37.8228983" lon="14.8883433"><ele>1042.5</ele><time>2026-04-18T09:23:55.12Z</time></trkpt><trkpt lat="37.8230733" lon="14.888525"><ele>1041.0</ele><time>2026-04-18T09:23:56.12Z</time></trkpt><trkpt lat="37.823265" lon="14.8886883"><ele>1041.0</ele><time>2026-04-18T09:23:57.12Z</time></trkpt><trkpt lat="37.8234633" lon="14.8888617"><ele>1041.0</ele><time>2026-04-18T09:23:58.12Z</time></trkpt><trkpt lat="37.8236633" lon="14.8890367"><ele>1041.0</ele><time>2026-04-18T09:23:59.12Z</time></trkpt><trkpt lat="37.8238583" lon="14.8892183"><ele>1041.0</ele><time>2026-04-18T09:24:00.12Z</time></trkpt><trkpt lat="37.824055" lon="14.8894117"><ele>1041.5</ele><time>2026-04-18T09:24:01.12Z</time></trkpt><trkpt lat="37.824245" lon="14.8895883"><ele>1042.0</ele><time>2026-04-18T09:24:02.12Z</time></trkpt><trkpt lat="37.8244383" lon="14.8897667"><ele>1040.5</ele><time>2026-04-18T09:24:03.12Z</time></trkpt><trkpt lat="37.8246267" lon="14.88995"><ele>1039.0</ele><time>2026-04-18T09:24:04.119Z</time></trkpt><trkpt lat="37.8248233" lon="14.8901333"><ele>1039.0</ele><time>2026-04-18T09:24:05.12Z</time></trkpt><trkpt lat="37.8250383" lon="14.890325"><ele>1039.0</ele><time>2026-04-18T09:24:06.12Z</time></trkpt><trkpt lat="37.8252517" lon="14.8905217"><ele>1038.0</ele><time>2026-04-18T09:24:07.12Z</time></trkpt><trkpt lat="37.8254633" lon="14.8907083"><ele>1037.0</ele><time>2026-04-18T09:24:08.119Z</time></trkpt><trkpt lat="37.825665" lon="14.8908967"><ele>1036.5</ele><time>2026-04-18T09:24:09.12Z</time></trkpt><trkpt lat="37.8258667" lon="14.8910783"><ele>1036.0</ele><time>2026-04-18T09:24:10.12Z</time></trkpt><trkpt lat="37.8260583" lon="14.891255"><ele>1032.5</ele><time>2026-04-18T09:24:11.12Z</time></trkpt><trkpt lat="37.82625" lon="14.8914317"><ele>1029.0</ele><time>2026-04-18T09:24:12.12Z</time></trkpt><trkpt lat="37.8264433" lon="14.8916017"><ele>1028.5</ele><time>2026-04-18T09:24:13.12Z</time></trkpt><trkpt lat="37.8266333" lon="14.8917683"><ele>1028.0</ele><time>2026-04-18T09:24:14.12Z</time></trkpt><trkpt lat="37.82682" lon="14.891935"><ele>1027.3333333333335</ele><time>2026-04-18T09:24:15.12Z</time></trkpt><trkpt lat="37.8270017" lon="14.8921"><ele>1026.6666666666667</ele><time>2026-04-18T09:24:16.12Z</time></trkpt><trkpt lat="37.8271783" lon="14.8922633"><ele>1026.0</ele><time>2026-04-18T09:24:17.12Z</time></trkpt><trkpt lat="37.8273567" lon="14.8924233"><ele>1026.0</ele><time>2026-04-18T09:24:18.12Z</time></trkpt><trkpt lat="37.8275333" lon="14.892585"><ele>1026.0</ele><time>2026-04-18T09:24:19.12Z</time></trkpt><trkpt lat="37.8277083" lon="14.8927433"><ele>1026.0</ele><time>2026-04-18T09:24:20.12Z</time></trkpt><trkpt lat="37.827875" lon="14.8928983"><ele>1025.0</ele><time>2026-04-18T09:24:21.12Z</time></trkpt><trkpt lat="37.8280517" lon="14.8930567"><ele>1024.0</ele><time>2026-04-18T09:24:22.12Z</time></trkpt><trkpt lat="37.8282333" lon="14.893215"><ele>1023.0</ele><time>2026-04-18T09:24:23.12Z</time></trkpt><trkpt lat="37.828415" lon="14.893375"><ele>1020.5</ele><time>2026-04-18T09:24:24.12Z</time></trkpt><trkpt lat="37.8286" lon="14.893535"><ele>1018.0</ele><time>2026-04-18T09:24:25.12Z</time></trkpt><trkpt lat="37.8287917" lon="14.8937"><ele>1018.0</ele><time>2026-04-18T09:24:26.12Z</time></trkpt><trkpt lat="37.8289867" lon="14.8938767"><ele>1018.0</ele><time>2026-04-18T09:24:27.12Z</time></trkpt><trkpt lat="37.82918" lon="14.894065"><ele>1017.5</ele><time>2026-04-18T09:24:28.12Z</time></trkpt><trkpt lat="37.82937" lon="14.8942567"><ele>1017.0</ele><time>2026-04-18T09:24:29.12Z</time></trkpt><trkpt lat="37.8295583" lon="14.8944417"><ele>1017.0</ele><time>2026-04-18T09:24:30.12Z</time></trkpt><trkpt lat="37.8297467" lon="14.8946217"><ele>1017.0</ele><time>2026-04-18T09:24:31.12Z</time></trkpt><trkpt lat="37.829935" lon="14.8947967"><ele>1017.0</ele><time>2026-04-18T09:24:32.12Z</time></trkpt><trkpt lat="37.830115" lon="14.8949683"><ele>1017.0</ele><time>2026-04-18T09:24:33.12Z</time></trkpt><trkpt lat="37.8302867" lon="14.8951283"><ele>1017.0</ele><time>2026-04-18T09:24:34.12Z</time></trkpt><trkpt lat="37.830455" lon="14.895285"><ele>1015.3333333333333</ele><time>2026-04-18T09:24:35.12Z</time></trkpt><trkpt lat="37.8306217" lon="14.8954467"><ele>1013.6666666666666</ele><time>2026-04-18T09:24:36.12Z</time></trkpt><trkpt lat="37.8307917" lon="14.8956167"><ele>1012.0</ele><time>2026-04-18T09:24:37.12Z</time></trkpt><trkpt lat="37.830955" lon="14.8958033"><ele>1009.3333333333333</ele><time>2026-04-18T09:24:38.12Z</time></trkpt><trkpt lat="37.831115" lon="14.8959983"><ele>1006.6666666666667</ele><time>2026-04-18T09:24:39.12Z</time></trkpt><trkpt lat="37.8312733" lon="14.896195"><ele>1004.0</ele><time>2026-04-18T09:24:40.12Z</time></trkpt><trkpt lat="37.8314333" lon="14.8963867"><ele>1004.0</ele><time>2026-04-18T09:24:41.12Z</time></trkpt><trkpt lat="37.8315983" lon="14.89657"><ele>1004.0</ele><time>2026-04-18T09:24:42.12Z</time></trkpt><trkpt lat="37.8317683" lon="14.896745"><ele>1004.0</ele><time>2026-04-18T09:24:43.12Z</time></trkpt><trkpt lat="37.8319367" lon="14.896915"><ele>1004.6666666666667</ele><time>2026-04-18T09:24:44.12Z</time></trkpt><trkpt lat="37.8321083" lon="14.897065"><ele>1005.3333333333333</ele><time>2026-04-18T09:24:45.12Z</time></trkpt><trkpt lat="37.8322733" lon="14.8971967"><ele>1006.0</ele><time>2026-04-18T09:24:46.12Z</time></trkpt><trkpt lat="37.8324217" lon="14.8973217"><ele>1006.0</ele><time>2026-04-18T09:24:47.12Z</time></trkpt><trkpt lat="37.8325517" lon="14.8974567"><ele>1006.0</ele><time>2026-04-18T09:24:48.119Z</time></trkpt><trkpt lat="37.8326517" lon="14.8976217"><ele>1006.0</ele><time>2026-04-18T09:24:49.12Z</time></trkpt><trkpt lat="37.83274" lon="14.8978083"><ele>1004.3333333333333</ele><time>2026-04-18T09:24:50.12Z</time></trkpt><trkpt lat="37.83283" lon="14.89801"><ele>1002.6666666666667</ele><time>2026-04-18T09:24:51.12Z</time></trkpt><trkpt lat="37.8329133" lon="14.8981933"><ele>1001.0</ele><time>2026-04-18T09:24:52.119Z</time></trkpt><trkpt lat="37.832995" lon="14.8983883"><ele>1001.3333333333334</ele><time>2026-04-18T09:24:53.12Z</time></trkpt><trkpt lat="37.8330517" lon="14.8985917"><ele>1001.6666666666667</ele><time>2026-04-18T09:24:54.119Z</time></trkpt><trkpt lat="37.8330867" lon="14.89881"><ele>1002.0</ele><time>2026-04-18T09:24:55.12Z</time></trkpt><trkpt lat="37.8331167" lon="14.8990483"><ele>1001.6666666666667</ele><time>2026-04-18T09:24:56.12Z</time></trkpt><trkpt lat="37.83314" lon="14.8992917"><ele>1001.3333333333334</ele><time>2026-04-18T09:24:57.12Z</time></trkpt><trkpt lat="37.833175" lon="14.89954"><ele>1001.0</ele><time>2026-04-18T09:24:58.12Z</time></trkpt><trkpt lat="37.8332067" lon="14.8997917"><ele>1001.0</ele><time>2026-04-18T09:24:59.12Z</time></trkpt><trkpt lat="37.8332383" lon="14.9000533"><ele>1001.0</ele><time>2026-04-18T09:25:00.12Z</time></trkpt><trkpt lat="37.833275" lon="14.90031"><ele>1001.0</ele><time>2026-04-18T09:25:01.119Z</time></trkpt><trkpt lat="37.8333" lon="14.9005683"><ele>1001.0</ele><time>2026-04-18T09:25:02.12Z</time></trkpt><trkpt lat="37.8333333" lon="14.9008133"><ele>1001.0</ele><time>2026-04-18T09:25:03.12Z</time></trkpt><trkpt lat="37.8333633" lon="14.9010583"><ele>1001.0</ele><time>2026-04-18T09:25:04.119Z</time></trkpt><trkpt lat="37.8333983" lon="14.9012983"><ele>1001.0</ele><time>2026-04-18T09:25:05.12Z</time></trkpt><trkpt lat="37.833435" lon="14.9015367"><ele>1001.0</ele><time>2026-04-18T09:25:06.12Z</time></trkpt><trkpt lat="37.833485" lon="14.90177"><ele>1001.0</ele><time>2026-04-18T09:25:07.12Z</time></trkpt><trkpt lat="37.8335483" lon="14.9019983"><ele>999.6666666666667</ele><time>2026-04-18T09:25:08.12Z</time></trkpt><trkpt lat="37.8336367" lon="14.9022183"><ele>998.3333333333333</ele><time>2026-04-18T09:25:09.12Z</time></trkpt><trkpt lat="37.8337483" lon="14.9024267"><ele>997.0</ele><time>2026-04-18T09:25:10.12Z</time></trkpt><trkpt lat="37.83388" lon="14.9026167"><ele>997.3333333333333</ele><time>2026-04-18T09:25:11.12Z</time></trkpt><trkpt lat="37.8340283" lon="14.9027917"><ele>997.6666666666667</ele><time>2026-04-18T09:25:12.12Z</time></trkpt><trkpt lat="37.834185" lon="14.9029533"><ele>998.0</ele><time>2026-04-18T09:25:13.12Z</time></trkpt><trkpt lat="37.834345" lon="14.9030983"><ele>998.0</ele><time>2026-04-18T09:25:14.12Z</time></trkpt><trkpt lat="37.8345067" lon="14.903245"><ele>998.0</ele><time>2026-04-18T09:25:15.12Z</time></trkpt><trkpt lat="37.834655" lon="14.9034117"><ele>998.0</ele><time>2026-04-18T09:25:16.119Z</time></trkpt><trkpt lat="37.83479" lon="14.903595"><ele>998.0</ele><time>2026-04-18T09:25:17.12Z</time></trkpt><trkpt lat="37.8349167" lon="14.90379"><ele>998.0</ele><time>2026-04-18T09:25:18.12Z</time></trkpt><trkpt lat="37.8350367" lon="14.90398"><ele>998.0</ele><time>2026-04-18T09:25:19.12Z</time></trkpt><trkpt lat="37.83515" lon="14.9041783"><ele>998.0</ele><time>2026-04-18T09:25:20.119Z</time></trkpt><trkpt lat="37.8352583" lon="14.9043767"><ele>998.0</ele><time>2026-04-18T09:25:21.119Z</time></trkpt><trkpt lat="37.8353583" lon="14.90458"><ele>998.0</ele><time>2026-04-18T09:25:22.12Z</time></trkpt><trkpt lat="37.8354467" lon="14.904805"><ele>998.0</ele><time>2026-04-18T09:25:23.12Z</time></trkpt><trkpt lat="37.8355117" lon="14.9050333"><ele>998.0</ele><time>2026-04-18T09:25:24.12Z</time></trkpt><trkpt lat="37.8355617" lon="14.90527"><ele>998.0</ele><time>2026-04-18T09:25:25.12Z</time></trkpt><trkpt lat="37.8356083" lon="14.90551"><ele>997.3333333333334</ele><time>2026-04-18T09:25:26.12Z</time></trkpt><trkpt lat="37.8356567" lon="14.90575"><ele>996.6666666666667</ele><time>2026-04-18T09:25:27.12Z</time></trkpt><trkpt lat="37.8357083" lon="14.905985"><ele>996.0</ele><time>2026-04-18T09:25:28.12Z</time></trkpt><trkpt lat="37.8357583" lon="14.90621"><ele>995.6666666666667</ele><time>2026-04-18T09:25:29.12Z</time></trkpt><trkpt lat="37.8358133" lon="14.906435"><ele>995.3333333333334</ele><time>2026-04-18T09:25:30.12Z</time></trkpt><trkpt lat="37.8358767" lon="14.9066617"><ele>995.0</ele><time>2026-04-18T09:25:31.12Z</time></trkpt><trkpt lat="37.83596" lon="14.9068717"><ele>992.3333333333334</ele><time>2026-04-18T09:25:32.12Z</time></trkpt><trkpt lat="37.8360633" lon="14.907055"><ele>989.6666666666667</ele><time>2026-04-18T09:25:33.119Z</time></trkpt><trkpt lat="37.8361983" lon="14.9072033"><ele>987.0</ele><time>2026-04-18T09:25:34.12Z</time></trkpt><trkpt lat="37.836355" lon="14.90733"><ele>987.0</ele><time>2026-04-18T09:25:35.119Z</time></trkpt><trkpt lat="37.836535" lon="14.9074267"><ele>987.0</ele><time>2026-04-18T09:25:36.12Z</time></trkpt><trkpt lat="37.83673" lon="14.9075217"><ele>987.0</ele><time>2026-04-18T09:25:37.12Z</time></trkpt><trkpt lat="37.836935" lon="14.9076167"><ele>985.5</ele><time>2026-04-18T09:25:38.12Z</time></trkpt><trkpt lat="37.8371467" lon="14.9077083"><ele>984.0</ele><time>2026-04-18T09:25:39.12Z</time></trkpt><trkpt lat="37.8373717" lon="14.907815"><ele>984.0</ele><time>2026-04-18T09:25:40.12Z</time></trkpt><trkpt lat="37.8375867" lon="14.9079267"><ele>984.0</ele><time>2026-04-18T09:25:41.119Z</time></trkpt><trkpt lat="37.8378117" lon="14.908045"><ele>982.0</ele><time>2026-04-18T09:25:42.12Z</time></trkpt><trkpt lat="37.838035" lon="14.9081633"><ele>980.0</ele><time>2026-04-18T09:25:43.12Z</time></trkpt><trkpt lat="37.8382533" lon="14.9082767"><ele>977.5</ele><time>2026-04-18T09:25:44.12Z</time></trkpt><trkpt lat="37.8384733" lon="14.9083867"><ele>975.0</ele><time>2026-04-18T09:25:45.12Z</time></trkpt><trkpt lat="37.8386917" lon="14.908495"><ele>975.0</ele><time>2026-04-18T09:25:46.12Z</time></trkpt><trkpt lat="37.8389117" lon="14.908605"><ele>975.0</ele><time>2026-04-18T09:25:47.12Z</time></trkpt><trkpt lat="37.8391317" lon="14.90872"><ele>971.5</ele><time>2026-04-18T09:25:48.12Z</time></trkpt><trkpt lat="37.83935" lon="14.908835"><ele>968.0</ele><time>2026-04-18T09:25:49.12Z</time></trkpt><trkpt lat="37.839565" lon="14.90894"><ele>968.0</ele><time>2026-04-18T09:25:50.12Z</time></trkpt><trkpt lat="37.839775" lon="14.9090467"><ele>968.0</ele><time>2026-04-18T09:25:51.12Z</time></trkpt><trkpt lat="37.8399883" lon="14.9091567"><ele>967.5</ele><time>2026-04-18T09:25:52.12Z</time></trkpt><trkpt lat="37.840205" lon="14.909265"><ele>967.0</ele><time>2026-04-18T09:25:53.12Z</time></trkpt><trkpt lat="37.84042" lon="14.909375"><ele>967.0</ele><time>2026-04-18T09:25:54.12Z</time></trkpt><trkpt lat="37.840635" lon="14.9094867"><ele>967.0</ele><time>2026-04-18T09:25:55.12Z</time></trkpt><trkpt lat="37.84085" lon="14.9095917"><ele>964.5</ele><time>2026-04-18T09:25:56.12Z</time></trkpt><trkpt lat="37.8410667" lon="14.909705"><ele>962.0</ele><time>2026-04-18T09:25:57.12Z</time></trkpt><trkpt lat="37.841275" lon="14.9098067"><ele>962.0</ele><time>2026-04-18T09:25:58.12Z</time></trkpt><trkpt lat="37.8414833" lon="14.9099133"><ele>962.0</ele><time>2026-04-18T09:25:59.12Z</time></trkpt><trkpt lat="37.841685" lon="14.9100083"><ele>962.0</ele><time>2026-04-18T09:26:00.12Z</time></trkpt><trkpt lat="37.84189" lon="14.9101117"><ele>960.6666666666667</ele><time>2026-04-18T09:26:01.12Z</time></trkpt><trkpt lat="37.8420917" lon="14.9102117"><ele>959.3333333333333</ele><time>2026-04-18T09:26:02.12Z</time></trkpt><trkpt lat="37.8423017" lon="14.910325"><ele>958.0</ele><time>2026-04-18T09:26:03.12Z</time></trkpt><trkpt lat="37.8425067" lon="14.9104317"><ele>956.3333333333333</ele><time>2026-04-18T09:26:04.12Z</time></trkpt><trkpt lat="37.842715" lon="14.9105267"><ele>954.6666666666667</ele><time>2026-04-18T09:26:05.12Z</time></trkpt><trkpt lat="37.8429217" lon="14.9106233"><ele>953.0</ele><time>2026-04-18T09:26:06.12Z</time></trkpt><trkpt lat="37.8431283" lon="14.91073"><ele>953.0</ele><time>2026-04-18T09:26:07.12Z</time></trkpt><trkpt lat="37.843335" lon="14.9108217"><ele>953.0</ele><time>2026-04-18T09:26:08.12Z</time></trkpt><trkpt lat="37.8435433" lon="14.910915"><ele>953.0</ele><time>2026-04-18T09:26:09.119Z</time></trkpt><trkpt lat="37.8437533" lon="14.91102"><ele>951.0</ele><time>2026-04-18T09:26:10.12Z</time></trkpt><trkpt lat="37.84396" lon="14.9111167"><ele>949.0</ele><time>2026-04-18T09:26:11.12Z</time></trkpt><trkpt lat="37.8441683" lon="14.91122"><ele>947.0</ele><time>2026-04-18T09:26:12.12Z</time></trkpt><trkpt lat="37.844375" lon="14.9113267"><ele>944.6666666666667</ele><time>2026-04-18T09:26:13.119Z</time></trkpt><trkpt lat="37.84458" lon="14.9114333"><ele>942.3333333333333</ele><time>2026-04-18T09:26:14.12Z</time></trkpt><trkpt lat="37.84477" lon="14.9115433"><ele>940.0</ele><time>2026-04-18T09:26:15.12Z</time></trkpt><trkpt lat="37.8449483" lon="14.9116883"><ele>941.3333333333333</ele><time>2026-04-18T09:26:16.12Z</time></trkpt><trkpt lat="37.845115" lon="14.91187"><ele>942.6666666666667</ele><time>2026-04-18T09:26:17.12Z</time></trkpt><trkpt lat="37.8452717" lon="14.912065"><ele>944.0</ele><time>2026-04-18T09:26:18.12Z</time></trkpt><trkpt lat="37.84543" lon="14.9122567"><ele>940.6666666666667</ele><time>2026-04-18T09:26:19.12Z</time></trkpt><trkpt lat="37.84558" lon="14.912445"><ele>937.3333333333333</ele><time>2026-04-18T09:26:20.12Z</time></trkpt><trkpt lat="37.8457317" lon="14.9126283"><ele>934.0</ele><time>2026-04-18T09:26:21.119Z</time></trkpt><trkpt lat="37.8458633" lon="14.9128"><ele>932.0</ele><time>2026-04-18T09:26:22.12Z</time></trkpt><trkpt lat="37.8459833" lon="14.9129983"><ele>930.0</ele><time>2026-04-18T09:26:23.12Z</time></trkpt><trkpt lat="37.84609" lon="14.9132183"><ele>928.0</ele><time>2026-04-18T09:26:24.12Z</time></trkpt><trkpt lat="37.84617" lon="14.913445"><ele>928.0</ele><time>2026-04-18T09:26:25.12Z</time></trkpt><trkpt lat="37.846235" lon="14.9136717"><ele>928.0</ele><time>2026-04-18T09:26:26.12Z</time></trkpt><trkpt lat="37.8462817" lon="14.9138983"><ele>928.0</ele><time>2026-04-18T09:26:27.12Z</time></trkpt><trkpt lat="37.8462983" lon="14.914135"><ele>929.3333333333333</ele><time>2026-04-18T09:26:28.12Z</time></trkpt><trkpt lat="37.846315" lon="14.9143683"><ele>930.6666666666667</ele><time>2026-04-18T09:26:29.12Z</time></trkpt><trkpt lat="37.8463317" lon="14.914585"><ele>932.0</ele><time>2026-04-18T09:26:30.12Z</time></trkpt><trkpt lat="37.8463733" lon="14.9147983"><ele>932.0</ele><time>2026-04-18T09:26:31.12Z</time></trkpt><trkpt lat="37.846445" lon="14.9149783"><ele>932.0</ele><time>2026-04-18T09:26:32.12Z</time></trkpt><trkpt lat="37.8465533" lon="14.915135"><ele>932.0</ele><time>2026-04-18T09:26:33.12Z</time></trkpt><trkpt lat="37.8466833" lon="14.9152667"><ele>932.3333333333334</ele><time>2026-04-18T09:26:34.12Z</time></trkpt><trkpt lat="37.8468333" lon="14.9153717"><ele>932.6666666666667</ele><time>2026-04-18T09:26:35.119Z</time></trkpt><trkpt lat="37.8469933" lon="14.9154617"><ele>933.0</ele><time>2026-04-18T09:26:36.119Z</time></trkpt><trkpt lat="37.8471667" lon="14.915515"><ele>933.0</ele><time>2026-04-18T09:26:37.12Z</time></trkpt><trkpt lat="37.84734" lon="14.91557"><ele>933.0</ele><time>2026-04-18T09:26:38.12Z</time></trkpt><trkpt lat="37.847515" lon="14.9156433"><ele>933.0</ele><time>2026-04-18T09:26:39.119Z</time></trkpt><trkpt lat="37.8476817" lon="14.915715"><ele>932.3333333333333</ele><time>2026-04-18T09:26:40.12Z</time></trkpt><trkpt lat="37.847845" lon="14.91582"><ele>931.6666666666666</ele><time>2026-04-18T09:26:41.12Z</time></trkpt><trkpt lat="37.8479967" lon="14.9159233"><ele>931.0</ele><time>2026-04-18T09:26:42.12Z</time></trkpt><trkpt lat="37.8481483" lon="14.9160633"><ele>931.0</ele><time>2026-04-18T09:26:43.12Z</time></trkpt><trkpt lat="37.8482867" lon="14.9162183"><ele>931.0</ele><time>2026-04-18T09:26:44.12Z</time></trkpt><trkpt lat="37.848415" lon="14.916395"><ele>931.0</ele><time>2026-04-18T09:26:45.12Z</time></trkpt><trkpt lat="37.8485233" lon="14.9165983"><ele>930.3333333333333</ele><time>2026-04-18T09:26:46.119Z</time></trkpt><trkpt lat="37.84862" lon="14.916805"><ele>929.6666666666667</ele><time>2026-04-18T09:26:47.119Z</time></trkpt><trkpt lat="37.8487117" lon="14.9170333"><ele>929.0</ele><time>2026-04-18T09:26:48.119Z</time></trkpt><trkpt lat="37.8487833" lon="14.9172717"><ele>929.0</ele><time>2026-04-18T09:26:49.118Z</time></trkpt><trkpt lat="37.8488433" lon="14.9175217"><ele>929.0</ele><time>2026-04-18T09:26:50.119Z</time></trkpt><trkpt lat="37.8488683" lon="14.9177567"><ele>929.0</ele><time>2026-04-18T09:26:51.119Z</time></trkpt><trkpt lat="37.848895" lon="14.9179767"><ele>928.0</ele><time>2026-04-18T09:26:52.119Z</time></trkpt><trkpt lat="37.848915" lon="14.918195"><ele>927.0</ele><time>2026-04-18T09:26:53.119Z</time></trkpt><trkpt lat="37.8489433" lon="14.918405"><ele>926.0</ele><time>2026-04-18T09:26:54.119Z</time></trkpt><trkpt lat="37.849005" lon="14.9186033"><ele>925.0</ele><time>2026-04-18T09:26:55.119Z</time></trkpt><trkpt lat="37.8490883" lon="14.918775"><ele>924.0</ele><time>2026-04-18T09:26:56.119Z</time></trkpt><trkpt lat="37.84921" lon="14.9189333"><ele>923.0</ele><time>2026-04-18T09:26:57.119Z</time></trkpt><trkpt lat="37.8493533" lon="14.9190683"><ele>921.3333333333334</ele><time>2026-04-18T09:26:58.118Z</time></trkpt><trkpt lat="37.8495183" lon="14.9191767"><ele>919.6666666666667</ele><time>2026-04-18T09:26:59.119Z</time></trkpt><trkpt lat="37.8496917" lon="14.919295"><ele>918.0</ele><time>2026-04-18T09:27:00.119Z</time></trkpt><trkpt lat="37.8498617" lon="14.9194"><ele>918.0</ele><time>2026-04-18T09:27:01.119Z</time></trkpt><trkpt lat="37.85004" lon="14.919525"><ele>918.0</ele><time>2026-04-18T09:27:02.119Z</time></trkpt><trkpt lat="37.8502117" lon="14.9196383"><ele>918.0</ele><time>2026-04-18T09:27:03.119Z</time></trkpt><trkpt lat="37.8503883" lon="14.9197667"><ele>918.0</ele><time>2026-04-18T09:27:04.119Z</time></trkpt><trkpt lat="37.85056" lon="14.9198783"><ele>918.0</ele><time>2026-04-18T09:27:05.119Z</time></trkpt><trkpt lat="37.8507333" lon="14.9199983"><ele>918.0</ele><time>2026-04-18T09:27:06.119Z</time></trkpt><trkpt lat="37.8508983" lon="14.920105"><ele>916.0</ele><time>2026-04-18T09:27:07.119Z</time></trkpt><trkpt lat="37.851065" lon="14.9202267"><ele>914.0</ele><time>2026-04-18T09:27:08.119Z</time></trkpt><trkpt lat="37.851235" lon="14.9203383"><ele>912.0</ele><time>2026-04-18T09:27:09.119Z</time></trkpt><trkpt lat="37.851405" lon="14.9204567"><ele>912.0</ele><time>2026-04-18T09:27:10.119Z</time></trkpt><trkpt lat="37.8515717" lon="14.9205633"><ele>912.0</ele><time>2026-04-18T09:27:11.119Z</time></trkpt><trkpt lat="37.8517317" lon="14.9206733"><ele>912.0</ele><time>2026-04-18T09:27:12.119Z</time></trkpt><trkpt lat="37.85189" lon="14.9207667"><ele>912.6666666666667</ele><time>2026-04-18T09:27:13.118Z</time></trkpt><trkpt lat="37.85204" lon="14.9208683"><ele>913.3333333333334</ele><time>2026-04-18T09:27:14.119Z</time></trkpt><trkpt lat="37.8521833" lon="14.9209617"><ele>914.0</ele><time>2026-04-18T09:27:15.119Z</time></trkpt><trkpt lat="37.8523117" lon="14.9210417"><ele>914.0</ele><time>2026-04-18T09:27:16.119Z</time></trkpt><trkpt lat="37.85244" lon="14.9210867"><ele>914.0</ele><time>2026-04-18T09:27:17.119Z</time></trkpt><trkpt lat="37.8525633" lon="14.9210767"><ele>914.0</ele><time>2026-04-18T09:27:18.119Z</time></trkpt><trkpt lat="37.852685" lon="14.9209933"><ele>914.0</ele><time>2026-04-18T09:27:19.119Z</time></trkpt><trkpt lat="37.8528067" lon="14.920875"><ele>911.25</ele><time>2026-04-18T09:27:20.119Z</time></trkpt><trkpt lat="37.8529217" lon="14.9207517"><ele>908.5</ele><time>2026-04-18T09:27:21.119Z</time></trkpt><trkpt lat="37.853035" lon="14.92065"><ele>905.75</ele><time>2026-04-18T09:27:22.119Z</time></trkpt><trkpt lat="37.8531583" lon="14.9205733"><ele>903.0</ele><time>2026-04-18T09:27:23.119Z</time></trkpt><trkpt lat="37.8532817" lon="14.9205183"><ele>903.0</ele><time>2026-04-18T09:27:24.118Z</time></trkpt><trkpt lat="37.8534083" lon="14.9205017"><ele>903.0</ele><time>2026-04-18T09:27:25.119Z</time></trkpt><trkpt lat="37.8535517" lon="14.9205183"><ele>903.0</ele><time>2026-04-18T09:27:26.118Z</time></trkpt><trkpt lat="37.8537017" lon="14.920585"><ele>903.0</ele><time>2026-04-18T09:27:27.119Z</time></trkpt><trkpt lat="37.853835" lon="14.9206617"><ele>901.0</ele><time>2026-04-18T09:27:28.119Z</time></trkpt><trkpt lat="37.85397" lon="14.920745"><ele>899.0</ele><time>2026-04-18T09:27:29.119Z</time></trkpt><trkpt lat="37.8541083" lon="14.9208183"><ele>897.0</ele><time>2026-04-18T09:27:30.119Z</time></trkpt><trkpt lat="37.8542517" lon="14.9208633"><ele>895.0</ele><time>2026-04-18T09:27:31.118Z</time></trkpt><trkpt lat="37.8543883" lon="14.9208767"><ele>893.0</ele><time>2026-04-18T09:27:32.119Z</time></trkpt><trkpt lat="37.8545233" lon="14.920875"><ele>891.0</ele><time>2026-04-18T09:27:33.119Z</time></trkpt><trkpt lat="37.8546483" lon="14.9208633"><ele>889.0</ele><time>2026-04-18T09:27:34.119Z</time></trkpt><trkpt lat="37.854775" lon="14.92085"><ele>887.0</ele><time>2026-04-18T09:27:35.119Z</time></trkpt><trkpt lat="37.8548917" lon="14.9208367"><ele>887.0</ele><time>2026-04-18T09:27:36.119Z</time></trkpt><trkpt lat="37.8550033" lon="14.920835"><ele>887.0</ele><time>2026-04-18T09:27:37.119Z</time></trkpt><trkpt lat="37.8551167" lon="14.92084"><ele>887.0</ele><time>2026-04-18T09:27:38.118Z</time></trkpt><trkpt lat="37.8552233" lon="14.9208583"><ele>887.0</ele><time>2026-04-18T09:27:39.119Z</time></trkpt><trkpt lat="37.8553217" lon="14.920905"><ele>887.0</ele><time>2026-04-18T09:27:40.119Z</time></trkpt><trkpt lat="37.8554217" lon="14.9209533"><ele>886.2</ele><time>2026-04-18T09:27:41.119Z</time></trkpt><trkpt lat="37.8555133" lon="14.9210217"><ele>885.4000000000001</ele><time>2026-04-18T09:27:42.119Z</time></trkpt><trkpt lat="37.85559" lon="14.92111"><ele>884.5999999999999</ele><time>2026-04-18T09:27:43.119Z</time></trkpt><trkpt lat="37.8556567" lon="14.9212167"><ele>883.8</ele><time>2026-04-18T09:27:44.119Z</time></trkpt><trkpt lat="37.855715" lon="14.92132"><ele>883.0</ele><time>2026-04-18T09:27:45.119Z</time></trkpt><trkpt lat="37.8557783" lon="14.92142"><ele>883.0</ele><time>2026-04-18T09:27:46.119Z</time></trkpt><trkpt lat="37.85585" lon="14.9215183"><ele>883.0</ele><time>2026-04-18T09:27:47.119Z</time></trkpt><trkpt lat="37.855925" lon="14.9216017"><ele>883.0</ele><time>2026-04-18T09:27:48.119Z</time></trkpt><trkpt lat="37.8560067" lon="14.9216783"><ele>883.0</ele><time>2026-04-18T09:27:49.119Z</time></trkpt><trkpt lat="37.8560933" lon="14.9217433"><ele>883.0</ele><time>2026-04-18T09:27:50.119Z</time></trkpt><trkpt lat="37.856175" lon="14.9217867"><ele>882.25</ele><time>2026-04-18T09:27:51.119Z</time></trkpt><trkpt lat="37.856265" lon="14.92183"><ele>881.5</ele><time>2026-04-18T09:27:52.116Z</time></trkpt><trkpt lat="37.8563667" lon="14.921855"><ele>880.75</ele><time>2026-04-18T09:27:53.119Z</time></trkpt><trkpt lat="37.856485" lon="14.9218767"><ele>880.0</ele><time>2026-04-18T09:27:54.119Z</time></trkpt><trkpt lat="37.856615" lon="14.9219133"><ele>880.0</ele><time>2026-04-18T09:27:55.119Z</time></trkpt><trkpt lat="37.856765" lon="14.9219383"><ele>880.0</ele><time>2026-04-18T09:27:56.119Z</time></trkpt><trkpt lat="37.856925" lon="14.92197"><ele>880.0</ele><time>2026-04-18T09:27:57.119Z</time></trkpt><trkpt lat="37.8570917" lon="14.92202"><ele>878.0</ele><time>2026-04-18T09:27:58.119Z</time></trkpt><trkpt lat="37.85727" lon="14.922075"><ele>876.0</ele><time>2026-04-18T09:27:59.119Z</time></trkpt><trkpt lat="37.8574467" lon="14.9221183"><ele>874.0</ele><time>2026-04-18T09:28:00.119Z</time></trkpt><trkpt lat="37.8576233" lon="14.9221617"><ele>873.3333333333333</ele><time>2026-04-18T09:28:01.119Z</time></trkpt><trkpt lat="37.8577967" lon="14.922205"><ele>872.6666666666667</ele><time>2026-04-18T09:28:02.119Z</time></trkpt><trkpt lat="37.8579783" lon="14.9222433"><ele>872.0</ele><time>2026-04-18T09:28:03.119Z</time></trkpt><trkpt lat="37.858155" lon="14.9222867"><ele>872.0</ele><time>2026-04-18T09:28:04.119Z</time></trkpt><trkpt lat="37.8583367" lon="14.922335"><ele>872.0</ele><time>2026-04-18T09:28:05.119Z</time></trkpt><trkpt lat="37.8585233" lon="14.922375"><ele>872.0</ele><time>2026-04-18T09:28:06.118Z</time></trkpt><trkpt lat="37.8587067" lon="14.9224117"><ele>870.6666666666667</ele><time>2026-04-18T09:28:07.119Z</time></trkpt><trkpt lat="37.85888" lon="14.9224483"><ele>869.3333333333333</ele><time>2026-04-18T09:28:08.119Z</time></trkpt><trkpt lat="37.85905" lon="14.9224833"><ele>868.0</ele><time>2026-04-18T09:28:09.119Z</time></trkpt><trkpt lat="37.8592167" lon="14.92252"><ele>867.0</ele><time>2026-04-18T09:28:10.119Z</time></trkpt><trkpt lat="37.85937" lon="14.9225583"><ele>866.0</ele><time>2026-04-18T09:28:11.119Z</time></trkpt><trkpt lat="37.8595183" lon="14.922595"><ele>865.0</ele><time>2026-04-18T09:28:12.119Z</time></trkpt><trkpt lat="37.859675" lon="14.9226417"><ele>865.0</ele><time>2026-04-18T09:28:13.119Z</time></trkpt><trkpt lat="37.85982" lon="14.9227217"><ele>865.0</ele><time>2026-04-18T09:28:14.119Z</time></trkpt><trkpt lat="37.8599533" lon="14.9228283"><ele>865.0</ele><time>2026-04-18T09:28:15.119Z</time></trkpt><trkpt lat="37.8600683" lon="14.9229733"><ele>863.0</ele><time>2026-04-18T09:28:16.119Z</time></trkpt><trkpt lat="37.8601833" lon="14.9231467"><ele>861.0</ele><time>2026-04-18T09:28:17.119Z</time></trkpt><trkpt lat="37.8602883" lon="14.92333"><ele>859.0</ele><time>2026-04-18T09:28:18.119Z</time></trkpt><trkpt lat="37.8603833" lon="14.9235233"><ele>858.6666666666666</ele><time>2026-04-18T09:28:19.119Z</time></trkpt><trkpt lat="37.860485" lon="14.9237283"><ele>858.3333333333333</ele><time>2026-04-18T09:28:20.116Z</time></trkpt><trkpt lat="37.8605967" lon="14.9239467"><ele>858.0</ele><time>2026-04-18T09:28:21.119Z</time></trkpt><trkpt lat="37.8607067" lon="14.9241617"><ele>856.6666666666667</ele><time>2026-04-18T09:28:22.119Z</time></trkpt><trkpt lat="37.8608017" lon="14.9243667"><ele>855.3333333333334</ele><time>2026-04-18T09:28:23.119Z</time></trkpt><trkpt lat="37.8608933" lon="14.9245617"><ele>854.0</ele><time>2026-04-18T09:28:24.119Z</time></trkpt><trkpt lat="37.8609833" lon="14.9247517"><ele>851.6666666666667</ele><time>2026-04-18T09:28:25.119Z</time></trkpt><trkpt lat="37.8610783" lon="14.9249467"><ele>849.3333333333333</ele><time>2026-04-18T09:28:26.119Z</time></trkpt><trkpt lat="37.8611717" lon="14.92512"><ele>847.0</ele><time>2026-04-18T09:28:27.118Z</time></trkpt><trkpt lat="37.86128" lon="14.9252817"><ele>847.0</ele><time>2026-04-18T09:28:28.118Z</time></trkpt><trkpt lat="37.8614117" lon="14.9254383"><ele>847.0</ele><time>2026-04-18T09:28:29.119Z</time></trkpt><trkpt lat="37.8615483" lon="14.9255933"><ele>847.0</ele><time>2026-04-18T09:28:30.119Z</time></trkpt><trkpt lat="37.8616833" lon="14.9257167"><ele>846.3333333333333</ele><time>2026-04-18T09:28:31.119Z</time></trkpt><trkpt lat="37.8618417" lon="14.92587"><ele>845.6666666666667</ele><time>2026-04-18T09:28:32.119Z</time></trkpt><trkpt lat="37.8619917" lon="14.9260167"><ele>845.0</ele><time>2026-04-18T09:28:33.119Z</time></trkpt><trkpt lat="37.862145" lon="14.9261767"><ele>845.0</ele><time>2026-04-18T09:28:34.118Z</time></trkpt><trkpt lat="37.8623133" lon="14.9263167"><ele>845.0</ele><time>2026-04-18T09:28:35.119Z</time></trkpt><trkpt lat="37.8624883" lon="14.92644"><ele>845.0</ele><time>2026-04-18T09:28:36.119Z</time></trkpt><trkpt lat="37.8626617" lon="14.9265583"><ele>844.6666666666667</ele><time>2026-04-18T09:28:37.119Z</time></trkpt><trkpt lat="37.862825" lon="14.9266633"><ele>844.3333333333333</ele><time>2026-04-18T09:28:38.119Z</time></trkpt><trkpt lat="37.8629867" lon="14.926765"><ele>844.0</ele><time>2026-04-18T09:28:39.119Z</time></trkpt><trkpt lat="37.8631483" lon="14.9268717"><ele>842.3333333333333</ele><time>2026-04-18T09:28:40.119Z</time></trkpt><trkpt lat="37.8633067" lon="14.926975"><ele>840.6666666666667</ele><time>2026-04-18T09:28:41.119Z</time></trkpt><trkpt lat="37.8634583" lon="14.9270717"><ele>839.0</ele><time>2026-04-18T09:28:42.119Z</time></trkpt><trkpt lat="37.8636183" lon="14.9271583"><ele>837.6666666666667</ele><time>2026-04-18T09:28:43.119Z</time></trkpt><trkpt lat="37.863785" lon="14.9272017"><ele>836.3333333333333</ele><time>2026-04-18T09:28:44.119Z</time></trkpt><trkpt lat="37.863965" lon="14.92722"><ele>835.0</ele><time>2026-04-18T09:28:45.119Z</time></trkpt><trkpt lat="37.8641583" lon="14.9272283"><ele>834.3333333333333</ele><time>2026-04-18T09:28:46.119Z</time></trkpt><trkpt lat="37.8643567" lon="14.9272217"><ele>833.6666666666667</ele><time>2026-04-18T09:28:47.119Z</time></trkpt><trkpt lat="37.8645633" lon="14.9272117"><ele>833.0</ele><time>2026-04-18T09:28:48.119Z</time></trkpt><trkpt lat="37.8647683" lon="14.9272033"><ele>833.0</ele><time>2026-04-18T09:28:49.119Z</time></trkpt><trkpt lat="37.86497" lon="14.9271933"><ele>833.0</ele><time>2026-04-18T09:28:50.118Z</time></trkpt><trkpt lat="37.8651683" lon="14.927185"><ele>833.0</ele><time>2026-04-18T09:28:51.119Z</time></trkpt><trkpt lat="37.8653617" lon="14.9271733"><ele>832.3333333333334</ele><time>2026-04-18T09:28:52.119Z</time></trkpt><trkpt lat="37.8655567" lon="14.9271667"><ele>831.6666666666667</ele><time>2026-04-18T09:28:53.119Z</time></trkpt><trkpt lat="37.865745" lon="14.9271633"><ele>831.0</ele><time>2026-04-18T09:28:54.119Z</time></trkpt><trkpt lat="37.8659283" lon="14.9271517"><ele>829.0</ele><time>2026-04-18T09:28:55.119Z</time></trkpt><trkpt lat="37.8661033" lon="14.9271417"><ele>827.0</ele><time>2026-04-18T09:28:56.119Z</time></trkpt><trkpt lat="37.8662833" lon="14.927135"><ele>825.0</ele><time>2026-04-18T09:28:57.119Z</time></trkpt><trkpt lat="37.8664567" lon="14.92713"><ele>825.0</ele><time>2026-04-18T09:28:58.119Z</time></trkpt><trkpt lat="37.8666183" lon="14.9271183"><ele>825.0</ele><time>2026-04-18T09:28:59.119Z</time></trkpt><trkpt lat="37.86677" lon="14.9271133"><ele>825.0</ele><time>2026-04-18T09:29:00.119Z</time></trkpt><trkpt lat="37.8669067" lon="14.9271067"><ele>824.25</ele><time>2026-04-18T09:29:01.119Z</time></trkpt><trkpt lat="37.8670367" lon="14.9271083"><ele>823.5</ele><time>2026-04-18T09:29:02.118Z</time></trkpt><trkpt lat="37.867175" lon="14.9271017"><ele>822.75</ele><time>2026-04-18T09:29:03.119Z</time></trkpt><trkpt lat="37.8673017" lon="14.9271033"><ele>822.0</ele><time>2026-04-18T09:29:04.119Z</time></trkpt><trkpt lat="37.8674233" lon="14.92712"><ele>822.0</ele><time>2026-04-18T09:29:05.119Z</time></trkpt><trkpt lat="37.8675567" lon="14.9271467"><ele>822.0</ele><time>2026-04-18T09:29:06.119Z</time></trkpt><trkpt lat="37.8676983" lon="14.927195"><ele>822.0</ele><time>2026-04-18T09:29:07.119Z</time></trkpt><trkpt lat="37.8678417" lon="14.9272467"><ele>822.0</ele><time>2026-04-18T09:29:08.119Z</time></trkpt><trkpt lat="37.8679867" lon="14.927305"><ele>822.0</ele><time>2026-04-18T09:29:09.119Z</time></trkpt><trkpt lat="37.8681367" lon="14.92737"><ele>822.0</ele><time>2026-04-18T09:29:10.119Z</time></trkpt><trkpt lat="37.8682733" lon="14.927435"><ele>822.0</ele><time>2026-04-18T09:29:11.119Z</time></trkpt><trkpt lat="37.86841" lon="14.92749"><ele>822.0</ele><time>2026-04-18T09:29:12.118Z</time></trkpt><trkpt lat="37.86855" lon="14.9275517"><ele>821.25</ele><time>2026-04-18T09:29:13.119Z</time></trkpt><trkpt lat="37.8686883" lon="14.92761"><ele>820.5</ele><time>2026-04-18T09:29:14.119Z</time></trkpt><trkpt lat="37.8688233" lon="14.927685"><ele>819.75</ele><time>2026-04-18T09:29:15.119Z</time></trkpt><trkpt lat="37.8689483" lon="14.9277583"><ele>819.0</ele><time>2026-04-18T09:29:16.119Z</time></trkpt><trkpt lat="37.86907" lon="14.9278617"><ele>819.0</ele><time>2026-04-18T09:29:17.119Z</time></trkpt><trkpt lat="37.869185" lon="14.9279733"><ele>819.0</ele><time>2026-04-18T09:29:18.119Z</time></trkpt><trkpt lat="37.8692917" lon="14.928105"><ele>819.0</ele><time>2026-04-18T09:29:19.119Z</time></trkpt><trkpt lat="37.8693883" lon="14.9282583"><ele>819.0</ele><time>2026-04-18T09:29:20.118Z</time></trkpt><trkpt lat="37.8694767" lon="14.9283983"><ele>818.5</ele><time>2026-04-18T09:29:21.119Z</time></trkpt><trkpt lat="37.8695433" lon="14.9285517"><ele>818.0</ele><time>2026-04-18T09:29:22.119Z</time></trkpt><trkpt lat="37.8695933" lon="14.928715"><ele>817.5</ele><time>2026-04-18T09:29:23.119Z</time></trkpt><trkpt lat="37.8696517" lon="14.9288633"><ele>817.0</ele><time>2026-04-18T09:29:24.119Z</time></trkpt><trkpt lat="37.8697033" lon="14.9290117"><ele>817.0</ele><time>2026-04-18T09:29:25.119Z</time></trkpt><trkpt lat="37.8697633" lon="14.929155"><ele>817.0</ele><time>2026-04-18T09:29:26.118Z</time></trkpt><trkpt lat="37.8698117" lon="14.929295"><ele>817.0</ele><time>2026-04-18T09:29:27.119Z</time></trkpt><trkpt lat="37.8698667" lon="14.929445"><ele>817.0</ele><time>2026-04-18T09:29:28.119Z</time></trkpt><trkpt lat="37.869905" lon="14.9295867"><ele>816.2</ele><time>2026-04-18T09:29:29.119Z</time></trkpt><trkpt lat="37.8699517" lon="14.929725"><ele>815.4000000000001</ele><time>2026-04-18T09:29:30.118Z</time></trkpt><trkpt lat="37.8699867" lon="14.9298467"><ele>814.5999999999999</ele><time>2026-04-18T09:29:31.119Z</time></trkpt><trkpt lat="37.87002" lon="14.9299567"><ele>813.8</ele><time>2026-04-18T09:29:32.119Z</time></trkpt><trkpt lat="37.870055" lon="14.9300633"><ele>813.0</ele><time>2026-04-18T09:29:33.119Z</time></trkpt><trkpt lat="37.8700817" lon="14.9301517"><ele>812.5</ele><time>2026-04-18T09:29:34.119Z</time></trkpt><trkpt lat="37.8701067" lon="14.9302367"><ele>812.0</ele><time>2026-04-18T09:29:35.118Z</time></trkpt><trkpt lat="37.870135" lon="14.9303167"><ele>811.5</ele><time>2026-04-18T09:29:36.119Z</time></trkpt><trkpt lat="37.870165" lon="14.9303883"><ele>811.0</ele><time>2026-04-18T09:29:37.119Z</time></trkpt><trkpt lat="37.8702017" lon="14.930475"><ele>810.5</ele><time>2026-04-18T09:29:38.119Z</time></trkpt><trkpt lat="37.8702483" lon="14.9305633"><ele>810.0</ele><time>2026-04-18T09:29:39.119Z</time></trkpt><trkpt lat="37.8703033" lon="14.9306583"><ele>810.0</ele><time>2026-04-18T09:29:40.119Z</time></trkpt><trkpt lat="37.870365" lon="14.9307583"><ele>810.0</ele><time>2026-04-18T09:29:41.119Z</time></trkpt><trkpt lat="37.8704417" lon="14.9308683"><ele>810.0</ele><time>2026-04-18T09:29:42.119Z</time></trkpt><trkpt lat="37.8705317" lon="14.930995"><ele>810.0</ele><time>2026-04-18T09:29:43.119Z</time></trkpt><trkpt lat="37.8706333" lon="14.9311183"><ele>810.0</ele><time>2026-04-18T09:29:44.119Z</time></trkpt><trkpt lat="37.8707567" lon="14.931235"><ele>810.0</ele><time>2026-04-18T09:29:45.118Z</time></trkpt><trkpt lat="37.8708867" lon="14.9313617"><ele>810.0</ele><time>2026-04-18T09:29:46.119Z</time></trkpt><trkpt lat="37.8710283" lon="14.9314667"><ele>807.6666666666667</ele><time>2026-04-18T09:29:47.119Z</time></trkpt><trkpt lat="37.8711717" lon="14.9315533"><ele>805.3333333333334</ele><time>2026-04-18T09:29:48.119Z</time></trkpt><trkpt lat="37.8713183" lon="14.931635"><ele>803.0</ele><time>2026-04-18T09:29:49.119Z</time></trkpt><trkpt lat="37.871465" lon="14.93171"><ele>804.3333333333334</ele><time>2026-04-18T09:29:50.119Z</time></trkpt><trkpt lat="37.8716" lon="14.9317867"><ele>805.6666666666667</ele><time>2026-04-18T09:29:51.119Z</time></trkpt><trkpt lat="37.8717267" lon="14.9318933"><ele>807.0</ele><time>2026-04-18T09:29:52.119Z</time></trkpt><trkpt lat="37.8718483" lon="14.9320117"><ele>803.0</ele><time>2026-04-18T09:29:53.119Z</time></trkpt><trkpt lat="37.8719717" lon="14.93216"><ele>799.0</ele><time>2026-04-18T09:29:54.118Z</time></trkpt><trkpt lat="37.87207" lon="14.9323317"><ele>795.0</ele><time>2026-04-18T09:29:55.119Z</time></trkpt><trkpt lat="37.8721567" lon="14.9325217"><ele>795.0</ele><time>2026-04-18T09:29:56.118Z</time></trkpt><trkpt lat="37.8722267" lon="14.9327117"><ele>795.0</ele><time>2026-04-18T09:29:57.119Z</time></trkpt><trkpt lat="37.8722883" lon="14.9329133"><ele>795.0</ele><time>2026-04-18T09:29:58.119Z</time></trkpt><trkpt lat="37.8723367" lon="14.93311"><ele>795.0</ele><time>2026-04-18T09:29:59.119Z</time></trkpt><trkpt lat="37.872375" lon="14.9333183"><ele>795.0</ele><time>2026-04-18T09:30:00.119Z</time></trkpt><trkpt lat="37.8724" lon="14.9335183"><ele>795.0</ele><time>2026-04-18T09:30:01.119Z</time></trkpt><trkpt lat="37.8724083" lon="14.9337283"><ele>794.0</ele><time>2026-04-18T09:30:02.119Z</time></trkpt><trkpt lat="37.8724017" lon="14.9339533"><ele>793.0</ele><time>2026-04-18T09:30:03.118Z</time></trkpt><trkpt lat="37.87239" lon="14.93419"><ele>792.0</ele><time>2026-04-18T09:30:04.119Z</time></trkpt><trkpt lat="37.8723867" lon="14.9344333"><ele>791.3333333333333</ele><time>2026-04-18T09:30:05.119Z</time></trkpt><trkpt lat="37.8723767" lon="14.9346817"><ele>790.6666666666666</ele><time>2026-04-18T09:30:06.119Z</time></trkpt><trkpt lat="37.8723933" lon="14.93492"><ele>790.0</ele><time>2026-04-18T09:30:07.119Z</time></trkpt><trkpt lat="37.8724" lon="14.9351483"><ele>791.3333333333333</ele><time>2026-04-18T09:30:08.119Z</time></trkpt><trkpt lat="37.8724167" lon="14.9353617"><ele>792.6666666666667</ele><time>2026-04-18T09:30:09.119Z</time></trkpt><trkpt lat="37.872435" lon="14.9355683"><ele>794.0</ele><time>2026-04-18T09:30:10.119Z</time></trkpt><trkpt lat="37.8724567" lon="14.9357483"><ele>793.6666666666667</ele><time>2026-04-18T09:30:11.119Z</time></trkpt><trkpt lat="37.872445" lon="14.9359317"><ele>793.3333333333333</ele><time>2026-04-18T09:30:12.119Z</time></trkpt><trkpt lat="37.8724233" lon="14.9361217"><ele>793.0</ele><time>2026-04-18T09:30:13.119Z</time></trkpt><trkpt lat="37.8724083" lon="14.9363283"><ele>793.0</ele><time>2026-04-18T09:30:14.119Z</time></trkpt><trkpt lat="37.8724033" lon="14.9365283"><ele>793.0</ele><time>2026-04-18T09:30:15.119Z</time></trkpt><trkpt lat="37.8724183" lon="14.93673"><ele>793.0</ele><time>2026-04-18T09:30:16.119Z</time></trkpt><trkpt lat="37.87245" lon="14.9369367"><ele>793.0</ele><time>2026-04-18T09:30:17.119Z</time></trkpt><trkpt lat="37.8724933" lon="14.9371267"><ele>793.0</ele><time>2026-04-18T09:30:18.119Z</time></trkpt><trkpt lat="37.8725517" lon="14.9373033"><ele>793.0</ele><time>2026-04-18T09:30:19.119Z</time></trkpt><trkpt lat="37.872625" lon="14.9374683"><ele>794.75</ele><time>2026-04-18T09:30:20.119Z</time></trkpt><trkpt lat="37.8727067" lon="14.937615"><ele>796.5</ele><time>2026-04-18T09:30:21.119Z</time></trkpt><trkpt lat="37.8728067" lon="14.9377467"><ele>798.25</ele><time>2026-04-18T09:30:22.119Z</time></trkpt><trkpt lat="37.8729233" lon="14.93785"><ele>800.0</ele><time>2026-04-18T09:30:23.119Z</time></trkpt><trkpt lat="37.8730383" lon="14.9379317"><ele>800.0</ele><time>2026-04-18T09:30:24.119Z</time></trkpt><trkpt lat="37.873155" lon="14.9380167"><ele>800.0</ele><time>2026-04-18T09:30:25.119Z</time></trkpt><trkpt lat="37.8732583" lon="14.9380867"><ele>800.0</ele><time>2026-04-18T09:30:26.119Z</time></trkpt><trkpt lat="37.8733583" lon="14.9381533"><ele>800.0</ele><time>2026-04-18T09:30:27.119Z</time></trkpt><trkpt lat="37.8734467" lon="14.938215"><ele>799.8</ele><time>2026-04-18T09:30:28.118Z</time></trkpt><trkpt lat="37.87353" lon="14.9382967"><ele>799.6</ele><time>2026-04-18T09:30:29.119Z</time></trkpt><trkpt lat="37.8735983" lon="14.9383833"><ele>799.4000000000001</ele><time>2026-04-18T09:30:30.119Z</time></trkpt><trkpt lat="37.8736667" lon="14.9384733"><ele>799.2</ele><time>2026-04-18T09:30:31.119Z</time></trkpt><trkpt lat="37.8737183" lon="14.938575"><ele>799.0</ele><time>2026-04-18T09:30:32.119Z</time></trkpt><trkpt lat="37.87377" lon="14.9386917"><ele>799.0</ele><time>2026-04-18T09:30:33.119Z</time></trkpt><trkpt lat="37.8738183" lon="14.9388083"><ele>799.0</ele><time>2026-04-18T09:30:34.119Z</time></trkpt><trkpt lat="37.873885" lon="14.9389333"><ele>799.0</ele><time>2026-04-18T09:30:35.119Z</time></trkpt><trkpt lat="37.873945" lon="14.9390683"><ele>799.0</ele><time>2026-04-18T09:30:36.119Z</time></trkpt><trkpt lat="37.8739983" lon="14.9392"><ele>800.25</ele><time>2026-04-18T09:30:37.119Z</time></trkpt><trkpt lat="37.874055" lon="14.93934"><ele>801.5</ele><time>2026-04-18T09:30:38.119Z</time></trkpt><trkpt lat="37.8741067" lon="14.9394633"><ele>802.75</ele><time>2026-04-18T09:30:39.119Z</time></trkpt><trkpt lat="37.8741683" lon="14.9396017"><ele>804.0</ele><time>2026-04-18T09:30:40.119Z</time></trkpt><trkpt lat="37.87422" lon="14.9397283"><ele>801.5</ele><time>2026-04-18T09:30:41.119Z</time></trkpt><trkpt lat="37.8742783" lon="14.9398667"><ele>799.0</ele><time>2026-04-18T09:30:42.119Z</time></trkpt><trkpt lat="37.8743317" lon="14.9399967"><ele>796.5</ele><time>2026-04-18T09:30:43.119Z</time></trkpt><trkpt lat="37.8743933" lon="14.9401267"><ele>794.0</ele><time>2026-04-18T09:30:44.119Z</time></trkpt><trkpt lat="37.8744417" lon="14.94026"><ele>794.0</ele><time>2026-04-18T09:30:45.119Z</time></trkpt><trkpt lat="37.8744933" lon="14.94039"><ele>794.0</ele><time>2026-04-18T09:30:46.118Z</time></trkpt><trkpt lat="37.8745317" lon="14.94054"><ele>794.0</ele><time>2026-04-18T09:30:47.119Z</time></trkpt><trkpt lat="37.874555" lon="14.9406967"><ele>794.0</ele><time>2026-04-18T09:30:48.118Z</time></trkpt><trkpt lat="37.874565" lon="14.9408483"><ele>793.0</ele><time>2026-04-18T09:30:49.119Z</time></trkpt><trkpt lat="37.8745717" lon="14.9410133"><ele>792.0</ele><time>2026-04-18T09:30:50.119Z</time></trkpt><trkpt lat="37.8745683" lon="14.9411867"><ele>791.0</ele><time>2026-04-18T09:30:51.119Z</time></trkpt><trkpt lat="37.8745667" lon="14.9413633"><ele>790.0</ele><time>2026-04-18T09:30:52.119Z</time></trkpt><trkpt lat="37.87456" lon="14.94155"><ele>790.0</ele><time>2026-04-18T09:30:53.119Z</time></trkpt><trkpt lat="37.8745433" lon="14.9417133"><ele>790.0</ele><time>2026-04-18T09:30:54.119Z</time></trkpt><trkpt lat="37.87454" lon="14.94187"><ele>790.0</ele><time>2026-04-18T09:30:55.119Z</time></trkpt><trkpt lat="37.8745167" lon="14.942015"><ele>790.0</ele><time>2026-04-18T09:30:56.119Z</time></trkpt><trkpt lat="37.8744933" lon="14.9421783"><ele>788.25</ele><time>2026-04-18T09:30:57.118Z</time></trkpt><trkpt lat="37.8744667" lon="14.9423333"><ele>786.5</ele><time>2026-04-18T09:30:58.119Z</time></trkpt><trkpt lat="37.8744617" lon="14.9424883"><ele>784.75</ele><time>2026-04-18T09:30:59.119Z</time></trkpt><trkpt lat="37.8744667" lon="14.9426167"><ele>783.0</ele><time>2026-04-18T09:31:00.119Z</time></trkpt><trkpt lat="37.8744917" lon="14.9427433"><ele>783.0</ele><time>2026-04-18T09:31:01.119Z</time></trkpt><trkpt lat="37.87453" lon="14.9428467"><ele>783.0</ele><time>2026-04-18T09:31:02.119Z</time></trkpt><trkpt lat="37.8745883" lon="14.9429433"><ele>783.0</ele><time>2026-04-18T09:31:03.119Z</time></trkpt><trkpt lat="37.874645" lon="14.943055"><ele>783.0</ele><time>2026-04-18T09:31:04.119Z</time></trkpt><trkpt lat="37.8747217" lon="14.943185"><ele>783.0</ele><time>2026-04-18T09:31:05.119Z</time></trkpt><trkpt lat="37.874805" lon="14.94331"><ele>784.75</ele><time>2026-04-18T09:31:06.119Z</time></trkpt><trkpt lat="37.8748783" lon="14.9434283"><ele>786.5</ele><time>2026-04-18T09:31:07.119Z</time></trkpt><trkpt lat="37.8749433" lon="14.94355"><ele>788.25</ele><time>2026-04-18T09:31:08.118Z</time></trkpt><trkpt lat="37.87501" lon="14.943675"><ele>790.0</ele><time>2026-04-18T09:31:09.119Z</time></trkpt><trkpt lat="37.87508" lon="14.9437983"><ele>789.2</ele><time>2026-04-18T09:31:10.119Z</time></trkpt><trkpt lat="37.875135" lon="14.943915"><ele>788.4</ele><time>2026-04-18T09:31:11.119Z</time></trkpt><trkpt lat="37.8751783" lon="14.944015"><ele>787.5999999999999</ele><time>2026-04-18T09:31:12.119Z</time></trkpt><trkpt lat="37.8752217" lon="14.9441183"><ele>786.8</ele><time>2026-04-18T09:31:13.119Z</time></trkpt><trkpt lat="37.8752567" lon="14.9442217"><ele>786.0</ele><time>2026-04-18T09:31:14.119Z</time></trkpt><trkpt lat="37.8753017" lon="14.944315"><ele>786.0</ele><time>2026-04-18T09:31:15.119Z</time></trkpt><trkpt lat="37.8753467" lon="14.9444117"><ele>786.0</ele><time>2026-04-18T09:31:16.119Z</time></trkpt><trkpt lat="37.87539" lon="14.9445067"><ele>786.0</ele><time>2026-04-18T09:31:17.119Z</time></trkpt><trkpt lat="37.8754283" lon="14.9445933"><ele>786.0</ele><time>2026-04-18T09:31:18.119Z</time></trkpt><trkpt lat="37.875455" lon="14.9446717"><ele>786.0</ele><time>2026-04-18T09:31:19.118Z</time></trkpt><trkpt lat="37.8754933" lon="14.94478"><ele>786.0</ele><time>2026-04-18T09:31:21.119Z</time></trkpt><trkpt lat="37.8754933" lon="14.9448667"><ele>786.0</ele><time>2026-04-18T09:31:23.119Z</time></trkpt><trkpt lat="37.8754383" lon="14.9449467"><ele>786.0</ele><time>2026-04-18T09:31:25.119Z</time></trkpt><trkpt lat="37.87533" lon="14.9449433"><ele>786.0</ele><time>2026-04-18T09:31:27.119Z</time></trkpt><trkpt lat="37.8752183" lon="14.9448933"><ele>786.0</ele><time>2026-04-18T09:31:29.119Z</time></trkpt><trkpt lat="37.8751017" lon="14.9448417"><ele>786.0</ele><time>2026-04-18T09:31:31.119Z</time></trkpt><trkpt lat="37.8749933" lon="14.9448117"><ele>785.4</ele><time>2026-04-18T09:31:33.119Z</time></trkpt><trkpt lat="37.8749217" lon="14.94485"><ele>784.8</ele><time>2026-04-18T09:31:35.119Z</time></trkpt><trkpt lat="37.8749033" lon="14.9449383"><ele>784.1999999999999</ele><time>2026-04-18T09:31:37.119Z</time></trkpt><trkpt lat="37.874985" lon="14.9450383"><ele>783.5999999999999</ele><time>2026-04-18T09:31:39.119Z</time></trkpt><trkpt lat="37.875075" lon="14.94508"><ele>783.0</ele><time>2026-04-18T09:31:40.119Z</time></trkpt><trkpt lat="37.8751917" lon="14.9451283"><ele>780.0</ele><time>2026-04-18T09:31:41.119Z</time></trkpt><trkpt lat="37.8753383" lon="14.9451817"><ele>777.0</ele><time>2026-04-18T09:31:42.119Z</time></trkpt><trkpt lat="37.8754933" lon="14.9452467"><ele>774.0</ele><time>2026-04-18T09:31:43.118Z</time></trkpt><trkpt lat="37.8756533" lon="14.9453167"><ele>774.0</ele><time>2026-04-18T09:31:44.119Z</time></trkpt><trkpt lat="37.8757933" lon="14.9453933"><ele>774.0</ele><time>2026-04-18T09:31:45.119Z</time></trkpt><trkpt lat="37.8759133" lon="14.9454933"><ele>774.0</ele><time>2026-04-18T09:31:46.119Z</time></trkpt><trkpt lat="37.8760317" lon="14.945605"><ele>774.0</ele><time>2026-04-18T09:31:47.119Z</time></trkpt><trkpt lat="37.8761267" lon="14.9457167"><ele>774.0</ele><time>2026-04-18T09:31:48.119Z</time></trkpt><trkpt lat="37.87621" lon="14.94584"><ele>774.0</ele><time>2026-04-18T09:31:49.118Z</time></trkpt><trkpt lat="37.8762933" lon="14.9459633"><ele>774.0</ele><time>2026-04-18T09:31:50.119Z</time></trkpt><trkpt lat="37.8763483" lon="14.946105"><ele>774.0</ele><time>2026-04-18T09:31:51.119Z</time></trkpt><trkpt lat="37.8763883" lon="14.946245"><ele>772.8333333333334</ele><time>2026-04-18T09:31:52.119Z</time></trkpt><trkpt lat="37.8764083" lon="14.9463817"><ele>771.6666666666666</ele><time>2026-04-18T09:31:53.119Z</time></trkpt><trkpt lat="37.876425" lon="14.9465"><ele>770.5</ele><time>2026-04-18T09:31:54.119Z</time></trkpt><trkpt lat="37.8764367" lon="14.9466033"><ele>769.3333333333333</ele><time>2026-04-18T09:31:55.118Z</time></trkpt><trkpt lat="37.876445" lon="14.946695"><ele>768.1666666666666</ele><time>2026-04-18T09:31:56.119Z</time></trkpt><trkpt lat="37.87646" lon="14.946785"><ele>767.0</ele><time>2026-04-18T09:31:57.119Z</time></trkpt><trkpt lat="37.87646" lon="14.946875"><ele>766.6</ele><time>2026-04-18T09:31:58.119Z</time></trkpt><trkpt lat="37.8764683" lon="14.9470283"><ele>766.2</ele><time>2026-04-18T09:32:00.119Z</time></trkpt><trkpt lat="37.8764867" lon="14.94716"><ele>765.8</ele><time>2026-04-18T09:32:02.119Z</time></trkpt><trkpt lat="37.8765117" lon="14.9472617"><ele>765.4</ele><time>2026-04-18T09:32:04.119Z</time></trkpt><trkpt lat="37.87655" lon="14.94733"><ele>765.0</ele><time>2026-04-18T09:32:08.119Z</time></trkpt><trkpt lat="37.8765917" lon="14.94741"><ele>765.0</ele><time>2026-04-18T09:32:11.119Z</time></trkpt><trkpt lat="37.8766117" lon="14.9474933"><ele>765.0</ele><time>2026-04-18T09:32:13.119Z</time></trkpt><trkpt lat="37.87666" lon="14.9475833"><ele>765.0</ele><time>2026-04-18T09:32:15.119Z</time></trkpt><trkpt lat="37.8767017" lon="14.9476683"><ele>765.0</ele><time>2026-04-18T09:32:17.119Z</time></trkpt><trkpt lat="37.8767567" lon="14.9477517"><ele>765.0</ele><time>2026-04-18T09:32:19.119Z</time></trkpt><trkpt lat="37.876815" lon="14.9478583"><ele>765.0</ele><time>2026-04-18T09:32:21.118Z</time></trkpt><trkpt lat="37.8768467" lon="14.9479533"><ele>764.2</ele><time>2026-04-18T09:32:23.119Z</time></trkpt><trkpt lat="37.8768867" lon="14.94806"><ele>763.4</ele><time>2026-04-18T09:32:25.119Z</time></trkpt><trkpt lat="37.87692" lon="14.94814"><ele>762.5999999999999</ele><time>2026-04-18T09:32:27.119Z</time></trkpt><trkpt lat="37.8769517" lon="14.948235"><ele>761.8</ele><time>2026-04-18T09:32:29.119Z</time></trkpt><trkpt lat="37.87701" lon="14.9483233"><ele>761.0</ele><time>2026-04-18T09:32:31.119Z</time></trkpt><trkpt lat="37.8770817" lon="14.94848"><ele>760.8333333333333</ele><time>2026-04-18T09:32:33.119Z</time></trkpt><trkpt lat="37.8771283" lon="14.9485833"><ele>760.6666666666666</ele><time>2026-04-18T09:32:34.119Z</time></trkpt><trkpt lat="37.8771733" lon="14.9486783"><ele>760.5</ele><time>2026-04-18T09:32:35.119Z</time></trkpt><trkpt lat="37.8772" lon="14.9487667"><ele>760.3333333333334</ele><time>2026-04-18T09:32:36.119Z</time></trkpt><trkpt lat="37.877225" lon="14.9488483"><ele>760.1666666666667</ele><time>2026-04-18T09:32:37.119Z</time></trkpt><trkpt lat="37.8772583" lon="14.948925"><ele>760.0</ele><time>2026-04-18T09:32:38.119Z</time></trkpt><trkpt lat="37.8772967" lon="14.9489983"><ele>760.0</ele><time>2026-04-18T09:32:39.118Z</time></trkpt><trkpt lat="37.8773517" lon="14.9491367"><ele>760.0</ele><time>2026-04-18T09:32:41.119Z</time></trkpt><trkpt lat="37.877405" lon="14.9492717"><ele>760.0</ele><time>2026-04-18T09:32:43.119Z</time></trkpt><trkpt lat="37.87747" lon="14.9494033"><ele>760.0</ele><time>2026-04-18T09:32:45.118Z</time></trkpt><trkpt lat="37.877515" lon="14.9495283"><ele>759.4</ele><time>2026-04-18T09:32:47.119Z</time></trkpt><trkpt lat="37.8775633" lon="14.9496567"><ele>758.8</ele><time>2026-04-18T09:32:49.119Z</time></trkpt><trkpt lat="37.8776133" lon="14.94978"><ele>758.2</ele><time>2026-04-18T09:32:51.119Z</time></trkpt><trkpt lat="37.877655" lon="14.9499117"><ele>757.6</ele><time>2026-04-18T09:32:53.119Z</time></trkpt><trkpt lat="37.8776733" lon="14.9500467"><ele>757.0</ele><time>2026-04-18T09:32:55.119Z</time></trkpt><trkpt lat="37.8777017" lon="14.9501767"><ele>756.8333333333334</ele><time>2026-04-18T09:32:57.118Z</time></trkpt><trkpt lat="37.8777333" lon="14.9503"><ele>756.6666666666667</ele><time>2026-04-18T09:32:59.119Z</time></trkpt><trkpt lat="37.8777517" lon="14.9504167"><ele>756.5</ele><time>2026-04-18T09:33:01.119Z</time></trkpt><trkpt lat="37.87776" lon="14.9505283"><ele>756.3333333333334</ele><time>2026-04-18T09:33:03.118Z</time></trkpt><trkpt lat="37.877775" lon="14.9506117"><ele>756.1666666666666</ele><time>2026-04-18T09:33:05.119Z</time></trkpt><trkpt lat="37.8777967" lon="14.9506867"><ele>756.0</ele><time>2026-04-18T09:33:09.119Z</time></trkpt><trkpt lat="37.8778067" lon="14.95078"><ele>756.0</ele><time>2026-04-18T09:33:12.119Z</time></trkpt><trkpt lat="37.8778267" lon="14.95087"><ele>756.0</ele><time>2026-04-18T09:33:15.119Z</time></trkpt><trkpt lat="37.8778717" lon="14.950945"><ele>756.0</ele><time>2026-04-18T09:33:17.119Z</time></trkpt><trkpt lat="37.877945" lon="14.9510517"><ele>756.0</ele><time>2026-04-18T09:33:19.119Z</time></trkpt><trkpt lat="37.877985" lon="14.951115"><ele>756.0</ele><time>2026-04-18T09:33:20.118Z</time></trkpt><trkpt lat="37.878035" lon="14.9511817"><ele>756.0</ele><time>2026-04-18T09:33:21.118Z</time></trkpt><trkpt lat="37.8780883" lon="14.95125"><ele>755.5</ele><time>2026-04-18T09:33:22.119Z</time></trkpt><trkpt lat="37.8781417" lon="14.9513167"><ele>755.0</ele><time>2026-04-18T09:33:23.118Z</time></trkpt><trkpt lat="37.8781983" lon="14.9513833"><ele>754.5</ele><time>2026-04-18T09:33:24.119Z</time></trkpt><trkpt lat="37.8782583" lon="14.9514517"><ele>754.0</ele><time>2026-04-18T09:33:25.119Z</time></trkpt><trkpt lat="37.8783183" lon="14.9515217"><ele>753.5</ele><time>2026-04-18T09:33:26.119Z</time></trkpt><trkpt lat="37.8783833" lon="14.9515917"><ele>753.0</ele><time>2026-04-18T09:33:27.119Z</time></trkpt><trkpt lat="37.878455" lon="14.95167"><ele>751.8</ele><time>2026-04-18T09:33:28.119Z</time></trkpt><trkpt lat="37.8785233" lon="14.9517433"><ele>750.5999999999999</ele><time>2026-04-18T09:33:29.119Z</time></trkpt><trkpt lat="37.878595" lon="14.9518183"><ele>749.4000000000001</ele><time>2026-04-18T09:33:30.119Z</time></trkpt><trkpt lat="37.8786583" lon="14.9518967"><ele>748.2</ele><time>2026-04-18T09:33:31.119Z</time></trkpt><trkpt lat="37.87873" lon="14.9519667"><ele>747.0</ele><time>2026-04-18T09:33:32.119Z</time></trkpt><trkpt lat="37.8787967" lon="14.95204"><ele>747.0</ele><time>2026-04-18T09:33:33.119Z</time></trkpt><trkpt lat="37.878865" lon="14.95211"><ele>747.0</ele><time>2026-04-18T09:33:34.119Z</time></trkpt><trkpt lat="37.8789317" lon="14.9521817"><ele>747.0</ele><time>2026-04-18T09:33:35.118Z</time></trkpt><trkpt lat="37.8789917" lon="14.9522467"><ele>747.0</ele><time>2026-04-18T09:33:36.119Z</time></trkpt><trkpt lat="37.8790533" lon="14.9523133"><ele>747.0</ele><time>2026-04-18T09:33:37.119Z</time></trkpt><trkpt lat="37.8791133" lon="14.9523817"><ele>747.0</ele><time>2026-04-18T09:33:38.119Z</time></trkpt><trkpt lat="37.8791717" lon="14.9524483"><ele>747.0</ele><time>2026-04-18T09:33:39.119Z</time></trkpt><trkpt lat="37.8792283" lon="14.9525133"><ele>747.0</ele><time>2026-04-18T09:33:40.119Z</time></trkpt><trkpt lat="37.8792883" lon="14.95257"><ele>747.0</ele><time>2026-04-18T09:33:41.119Z</time></trkpt><trkpt lat="37.8793383" lon="14.9526233"><ele>747.0</ele><time>2026-04-18T09:33:42.119Z</time></trkpt><trkpt lat="37.8794267" lon="14.952725"><ele>747.0</ele><time>2026-04-18T09:33:44.119Z</time></trkpt><trkpt lat="37.8795067" lon="14.9528217"><ele>747.0</ele><time>2026-04-18T09:33:46.118Z</time></trkpt><trkpt lat="37.879585" lon="14.95291"><ele>746.0</ele><time>2026-04-18T09:33:48.119Z</time></trkpt><trkpt lat="37.879665" lon="14.9529917"><ele>745.0</ele><time>2026-04-18T09:33:50.119Z</time></trkpt><trkpt lat="37.8797483" lon="14.9530983"><ele>744.0</ele><time>2026-04-18T09:33:52.119Z</time></trkpt><trkpt lat="37.8797933" lon="14.9531633"><ele>743.0</ele><time>2026-04-18T09:33:53.118Z</time></trkpt><trkpt lat="37.8798317" lon="14.9532267"><ele>742.0</ele><time>2026-04-18T09:33:54.119Z</time></trkpt><trkpt lat="37.8798883" lon="14.953355"><ele>741.8</ele><time>2026-04-18T09:33:56.119Z</time></trkpt><trkpt lat="37.879915" lon="14.9535033"><ele>741.6</ele><time>2026-04-18T09:33:58.119Z</time></trkpt><trkpt lat="37.8799133" lon="14.9535983"><ele>741.4</ele><time>2026-04-18T09:33:59.119Z</time></trkpt><trkpt lat="37.8798983" lon="14.9537017"><ele>741.1999999999999</ele><time>2026-04-18T09:34:00.119Z</time></trkpt><trkpt lat="37.8798817" lon="14.9538183"><ele>741.0</ele><time>2026-04-18T09:34:01.119Z</time></trkpt><trkpt lat="37.8798733" lon="14.9539333"><ele>741.0</ele><time>2026-04-18T09:34:02.119Z</time></trkpt><trkpt lat="37.8798683" lon="14.9540483"><ele>741.0</ele><time>2026-04-18T09:34:03.119Z</time></trkpt><trkpt lat="37.879865" lon="14.95419"><ele>741.0</ele><time>2026-04-18T09:34:04.119Z</time></trkpt><trkpt lat="37.8798533" lon="14.95437"><ele>741.0</ele><time>2026-04-18T09:34:05.119Z</time></trkpt><trkpt lat="37.8798233" lon="14.9545817"><ele>741.6666666666666</ele><time>2026-04-18T09:34:06.119Z</time></trkpt><trkpt lat="37.8797783" lon="14.9548083"><ele>742.3333333333333</ele><time>2026-04-18T09:34:07.119Z</time></trkpt><trkpt lat="37.8797467" lon="14.9550083"><ele>743.0</ele><time>2026-04-18T09:34:08.119Z</time></trkpt><trkpt lat="37.8797233" lon="14.9551983"><ele>743.25</ele><time>2026-04-18T09:34:09.119Z</time></trkpt><trkpt lat="37.879705" lon="14.9553767"><ele>743.5</ele><time>2026-04-18T09:34:10.119Z</time></trkpt><trkpt lat="37.879695" lon="14.955545"><ele>743.75</ele><time>2026-04-18T09:34:11.119Z</time></trkpt><trkpt lat="37.87968" lon="14.9557133"><ele>744.0</ele><time>2026-04-18T09:34:12.119Z</time></trkpt><trkpt lat="37.8796817" lon="14.9558833"><ele>744.0</ele><time>2026-04-18T09:34:13.119Z</time></trkpt><trkpt lat="37.8796533" lon="14.956045"><ele>744.0</ele><time>2026-04-18T09:34:14.119Z</time></trkpt><trkpt lat="37.879635" lon="14.9561983"><ele>744.0</ele><time>2026-04-18T09:34:15.119Z</time></trkpt><trkpt lat="37.87961" lon="14.956335"><ele>744.0</ele><time>2026-04-18T09:34:16.119Z</time></trkpt><trkpt lat="37.8795883" lon="14.9564683"><ele>744.0</ele><time>2026-04-18T09:34:17.119Z</time></trkpt><trkpt lat="37.8795567" lon="14.9565967"><ele>744.0</ele><time>2026-04-18T09:34:18.118Z</time></trkpt><trkpt lat="37.879535" lon="14.9567117"><ele>744.0</ele><time>2026-04-18T09:34:19.119Z</time></trkpt><trkpt lat="37.8795167" lon="14.9568183"><ele>744.0</ele><time>2026-04-18T09:34:20.118Z</time></trkpt><trkpt lat="37.8795" lon="14.9569183"><ele>744.0</ele><time>2026-04-18T09:34:21.119Z</time></trkpt><trkpt lat="37.8794683" lon="14.9570167"><ele>743.8333333333334</ele><time>2026-04-18T09:34:22.119Z</time></trkpt><trkpt lat="37.8794533" lon="14.9571133"><ele>743.6666666666666</ele><time>2026-04-18T09:34:23.119Z</time></trkpt><trkpt lat="37.8794383" lon="14.9572017"><ele>743.5</ele><time>2026-04-18T09:34:24.119Z</time></trkpt><trkpt lat="37.8794217" lon="14.9572883"><ele>743.3333333333333</ele><time>2026-04-18T09:34:25.119Z</time></trkpt><trkpt lat="37.8793983" lon="14.9574317"><ele>743.1666666666666</ele><time>2026-04-18T09:34:27.119Z</time></trkpt><trkpt lat="37.8793817" lon="14.9575667"><ele>743.0</ele><time>2026-04-18T09:34:29.119Z</time></trkpt><trkpt lat="37.87937" lon="14.9576467"><ele>743.3333333333333</ele><time>2026-04-18T09:34:30.118Z</time></trkpt><trkpt lat="37.87935" lon="14.95773"><ele>743.6666666666666</ele><time>2026-04-18T09:34:31.119Z</time></trkpt><trkpt lat="37.879325" lon="14.957815"><ele>744.0</ele><time>2026-04-18T09:34:32.119Z</time></trkpt><trkpt lat="37.879295" lon="14.9578983"><ele>744.3333333333334</ele><time>2026-04-18T09:34:33.119Z</time></trkpt><trkpt lat="37.879265" lon="14.95799"><ele>744.6666666666667</ele><time>2026-04-18T09:34:34.119Z</time></trkpt><trkpt lat="37.8792383" lon="14.95809"><ele>745.0</ele><time>2026-04-18T09:34:35.118Z</time></trkpt><trkpt lat="37.8792083" lon="14.9581867"><ele>745.2</ele><time>2026-04-18T09:34:36.118Z</time></trkpt><trkpt lat="37.8791767" lon="14.9582983"><ele>745.4</ele><time>2026-04-18T09:34:37.119Z</time></trkpt><trkpt lat="37.8791433" lon="14.958415"><ele>745.5999999999999</ele><time>2026-04-18T09:34:38.119Z</time></trkpt><trkpt lat="37.8791067" lon="14.9585333"><ele>745.8</ele><time>2026-04-18T09:34:39.119Z</time></trkpt><trkpt lat="37.8790633" lon="14.9586533"><ele>746.0</ele><time>2026-04-18T09:34:40.119Z</time></trkpt><trkpt lat="37.8790233" lon="14.958785"><ele>746.0</ele><time>2026-04-18T09:34:41.118Z</time></trkpt><trkpt lat="37.8789867" lon="14.9589217"><ele>746.0</ele><time>2026-04-18T09:34:42.119Z</time></trkpt><trkpt lat="37.8789317" lon="14.9590417"><ele>746.0</ele><time>2026-04-18T09:34:43.118Z</time></trkpt><trkpt lat="37.87888" lon="14.959155"><ele>746.0</ele><time>2026-04-18T09:34:44.118Z</time></trkpt><trkpt lat="37.8788283" lon="14.9592817"><ele>746.0</ele><time>2026-04-18T09:34:45.119Z</time></trkpt><trkpt lat="37.878765" lon="14.959405"><ele>744.75</ele><time>2026-04-18T09:34:46.119Z</time></trkpt><trkpt lat="37.8787067" lon="14.95954"><ele>743.5</ele><time>2026-04-18T09:34:47.119Z</time></trkpt><trkpt lat="37.8786517" lon="14.959675"><ele>742.25</ele><time>2026-04-18T09:34:48.119Z</time></trkpt><trkpt lat="37.8786017" lon="14.9598333"><ele>741.0</ele><time>2026-04-18T09:34:49.119Z</time></trkpt><trkpt lat="37.8785833" lon="14.9599867"><ele>739.25</ele><time>2026-04-18T09:34:50.119Z</time></trkpt><trkpt lat="37.8785717" lon="14.96015"><ele>737.5</ele><time>2026-04-18T09:34:51.118Z</time></trkpt><trkpt lat="37.8785533" lon="14.960315"><ele>735.75</ele><time>2026-04-18T09:34:52.119Z</time></trkpt><trkpt lat="37.878535" lon="14.9604683"><ele>734.0</ele><time>2026-04-18T09:34:53.119Z</time></trkpt><trkpt lat="37.8785267" lon="14.9606133"><ele>734.0</ele><time>2026-04-18T09:34:54.119Z</time></trkpt><trkpt lat="37.8785117" lon="14.9607533"><ele>734.0</ele><time>2026-04-18T09:34:55.119Z</time></trkpt><trkpt lat="37.8785" lon="14.9608867"><ele>734.0</ele><time>2026-04-18T09:34:56.119Z</time></trkpt><trkpt lat="37.878495" lon="14.9610283"><ele>734.0</ele><time>2026-04-18T09:34:57.119Z</time></trkpt><trkpt lat="37.8784833" lon="14.961165"><ele>734.0</ele><time>2026-04-18T09:34:58.119Z</time></trkpt><trkpt lat="37.87848" lon="14.961305"><ele>734.0</ele><time>2026-04-18T09:34:59.119Z</time></trkpt><trkpt lat="37.878465" lon="14.96143"><ele>734.0</ele><time>2026-04-18T09:35:00.119Z</time></trkpt><trkpt lat="37.8784583" lon="14.9615517"><ele>734.0</ele><time>2026-04-18T09:35:01.119Z</time></trkpt><trkpt lat="37.8784533" lon="14.9616883"><ele>734.0</ele><time>2026-04-18T09:35:02.119Z</time></trkpt><trkpt lat="37.8784517" lon="14.9618167"><ele>734.0</ele><time>2026-04-18T09:35:03.118Z</time></trkpt><trkpt lat="37.878445" lon="14.9619467"><ele>733.4000000000001</ele><time>2026-04-18T09:35:04.119Z</time></trkpt><trkpt lat="37.8784483" lon="14.9620783"><ele>732.8</ele><time>2026-04-18T09:35:05.119Z</time></trkpt><trkpt lat="37.87844" lon="14.962215"><ele>732.2</ele><time>2026-04-18T09:35:06.118Z</time></trkpt><trkpt lat="37.8784333" lon="14.96235"><ele>731.5999999999999</ele><time>2026-04-18T09:35:07.119Z</time></trkpt><trkpt lat="37.878425" lon="14.9624917"><ele>731.0</ele><time>2026-04-18T09:35:08.119Z</time></trkpt><trkpt lat="37.8784183" lon="14.9626267"><ele>730.4</ele><time>2026-04-18T09:35:09.119Z</time></trkpt><trkpt lat="37.878405" lon="14.9627617"><ele>729.8</ele><time>2026-04-18T09:35:10.119Z</time></trkpt><trkpt lat="37.87838" lon="14.9628967"><ele>729.1999999999999</ele><time>2026-04-18T09:35:11.119Z</time></trkpt><trkpt lat="37.878365" lon="14.96304"><ele>728.5999999999999</ele><time>2026-04-18T09:35:12.119Z</time></trkpt><trkpt lat="37.8783533" lon="14.963185"><ele>728.0</ele><time>2026-04-18T09:35:13.118Z</time></trkpt><trkpt lat="37.8783417" lon="14.9633283"><ele>727.75</ele><time>2026-04-18T09:35:14.119Z</time></trkpt><trkpt lat="37.8783317" lon="14.963485"><ele>727.5</ele><time>2026-04-18T09:35:15.119Z</time></trkpt><trkpt lat="37.8783133" lon="14.96365"><ele>727.25</ele><time>2026-04-18T09:35:16.119Z</time></trkpt><trkpt lat="37.8782967" lon="14.9638167"><ele>727.0</ele><time>2026-04-18T09:35:17.119Z</time></trkpt><trkpt lat="37.878295" lon="14.9639633"><ele>727.0</ele><time>2026-04-18T09:35:18.119Z</time></trkpt><trkpt lat="37.87829" lon="14.9641167"><ele>727.0</ele><time>2026-04-18T09:35:19.119Z</time></trkpt><trkpt lat="37.8782783" lon="14.96427"><ele>727.0</ele><time>2026-04-18T09:35:20.119Z</time></trkpt><trkpt lat="37.8782617" lon="14.96443"><ele>727.0</ele><time>2026-04-18T09:35:21.119Z</time></trkpt><trkpt lat="37.8782483" lon="14.96459"><ele>726.25</ele><time>2026-04-18T09:35:22.119Z</time></trkpt><trkpt lat="37.8782417" lon="14.9647533"><ele>725.5</ele><time>2026-04-18T09:35:23.119Z</time></trkpt><trkpt lat="37.8782283" lon="14.9649183"><ele>724.75</ele><time>2026-04-18T09:35:24.119Z</time></trkpt><trkpt lat="37.8782067" lon="14.96509"><ele>724.0</ele><time>2026-04-18T09:35:25.119Z</time></trkpt><trkpt lat="37.8781767" lon="14.96527"><ele>723.3333333333334</ele><time>2026-04-18T09:35:26.119Z</time></trkpt><trkpt lat="37.8781417" lon="14.96545"><ele>722.6666666666666</ele><time>2026-04-18T09:35:27.119Z</time></trkpt><trkpt lat="37.8781133" lon="14.9656467"><ele>722.0</ele><time>2026-04-18T09:35:28.119Z</time></trkpt><trkpt lat="37.87807" lon="14.9658283"><ele>721.6666666666666</ele><time>2026-04-18T09:35:29.118Z</time></trkpt><trkpt lat="37.8780267" lon="14.9660167"><ele>721.3333333333334</ele><time>2026-04-18T09:35:30.119Z</time></trkpt><trkpt lat="37.8779767" lon="14.9662167"><ele>721.0</ele><time>2026-04-18T09:35:31.119Z</time></trkpt><trkpt lat="37.8779217" lon="14.9664067"><ele>721.0</ele><time>2026-04-18T09:35:32.119Z</time></trkpt><trkpt lat="37.87787" lon="14.9666133"><ele>721.0</ele><time>2026-04-18T09:35:33.119Z</time></trkpt><trkpt lat="37.8778133" lon="14.96682"><ele>721.0</ele><time>2026-04-18T09:35:34.119Z</time></trkpt><trkpt lat="37.8777533" lon="14.9670433"><ele>721.3333333333334</ele><time>2026-04-18T09:35:35.119Z</time></trkpt><trkpt lat="37.8776817" lon="14.96727"><ele>721.6666666666666</ele><time>2026-04-18T09:35:36.119Z</time></trkpt><trkpt lat="37.877615" lon="14.9674983"><ele>722.0</ele><time>2026-04-18T09:35:37.119Z</time></trkpt><trkpt lat="37.8775383" lon="14.96772"><ele>722.0</ele><time>2026-04-18T09:35:38.119Z</time></trkpt><trkpt lat="37.87747" lon="14.9679467"><ele>722.0</ele><time>2026-04-18T09:35:39.119Z</time></trkpt><trkpt lat="37.877405" lon="14.968175"><ele>722.0</ele><time>2026-04-18T09:35:40.119Z</time></trkpt><trkpt lat="37.8773383" lon="14.9683933"><ele>722.3333333333333</ele><time>2026-04-18T09:35:41.119Z</time></trkpt><trkpt lat="37.8772717" lon="14.96862"><ele>722.6666666666666</ele><time>2026-04-18T09:35:42.119Z</time></trkpt><trkpt lat="37.8772067" lon="14.9688417"><ele>723.0</ele><time>2026-04-18T09:35:43.119Z</time></trkpt><trkpt lat="37.8771417" lon="14.9690633"><ele>723.0</ele><time>2026-04-18T09:35:44.119Z</time></trkpt><trkpt lat="37.8770717" lon="14.9692933"><ele>723.0</ele><time>2026-04-18T09:35:45.119Z</time></trkpt><trkpt lat="37.877" lon="14.96953"><ele>723.0</ele><time>2026-04-18T09:35:46.119Z</time></trkpt><trkpt lat="37.876915" lon="14.9697733"><ele>723.3333333333334</ele><time>2026-04-18T09:35:47.119Z</time></trkpt><trkpt lat="37.8768383" lon="14.970025"><ele>723.6666666666667</ele><time>2026-04-18T09:35:48.119Z</time></trkpt><trkpt lat="37.87677" lon="14.9702667"><ele>724.0</ele><time>2026-04-18T09:35:49.119Z</time></trkpt><trkpt lat="37.8767117" lon="14.9705117"><ele>724.3333333333334</ele><time>2026-04-18T09:35:50.119Z</time></trkpt><trkpt lat="37.87665" lon="14.97077"><ele>724.6666666666666</ele><time>2026-04-18T09:35:51.119Z</time></trkpt><trkpt lat="37.87659" lon="14.97102"><ele>725.0</ele><time>2026-04-18T09:35:52.119Z</time></trkpt><trkpt lat="37.8765333" lon="14.9712617"><ele>725.0</ele><time>2026-04-18T09:35:53.119Z</time></trkpt><trkpt lat="37.87647" lon="14.971505"><ele>725.0</ele><time>2026-04-18T09:35:54.119Z</time></trkpt><trkpt lat="37.876405" lon="14.9717517"><ele>725.0</ele><time>2026-04-18T09:35:55.119Z</time></trkpt><trkpt lat="37.87635" lon="14.9720017"><ele>725.0</ele><time>2026-04-18T09:35:56.118Z</time></trkpt><trkpt lat="37.8762833" lon="14.9722567"><ele>725.0</ele><time>2026-04-18T09:35:57.119Z</time></trkpt><trkpt lat="37.8762167" lon="14.972505"><ele>725.0</ele><time>2026-04-18T09:35:58.119Z</time></trkpt><trkpt lat="37.876155" lon="14.9727533"><ele>725.6666666666666</ele><time>2026-04-18T09:35:59.119Z</time></trkpt><trkpt lat="37.8760933" lon="14.9730017"><ele>726.3333333333334</ele><time>2026-04-18T09:36:00.119Z</time></trkpt><trkpt lat="37.8760317" lon="14.973255"><ele>727.0</ele><time>2026-04-18T09:36:01.119Z</time></trkpt><trkpt lat="37.875975" lon="14.973505"><ele>729.3333333333334</ele><time>2026-04-18T09:36:02.119Z</time></trkpt><trkpt lat="37.8759133" lon="14.9737483"><ele>731.6666666666666</ele><time>2026-04-18T09:36:03.118Z</time></trkpt><trkpt lat="37.8758433" lon="14.97399"><ele>734.0</ele><time>2026-04-18T09:36:04.119Z</time></trkpt><trkpt lat="37.875785" lon="14.97424"><ele>734.6666666666666</ele><time>2026-04-18T09:36:05.119Z</time></trkpt><trkpt lat="37.8757267" lon="14.974495"><ele>735.3333333333334</ele><time>2026-04-18T09:36:06.119Z</time></trkpt><trkpt lat="37.8756833" lon="14.9747567"><ele>736.0</ele><time>2026-04-18T09:36:07.119Z</time></trkpt><trkpt lat="37.8756417" lon="14.9750117"><ele>736.0</ele><time>2026-04-18T09:36:08.119Z</time></trkpt><trkpt lat="37.8756" lon="14.9752567"><ele>736.0</ele><time>2026-04-18T09:36:09.119Z</time></trkpt><trkpt lat="37.8755583" lon="14.9755067"><ele>736.0</ele><time>2026-04-18T09:36:10.118Z</time></trkpt><trkpt lat="37.8755217" lon="14.975755"><ele>736.3333333333334</ele><time>2026-04-18T09:36:11.119Z</time></trkpt><trkpt lat="37.8754833" lon="14.976005"><ele>736.6666666666666</ele><time>2026-04-18T09:36:12.119Z</time></trkpt><trkpt lat="37.875445" lon="14.9762467"><ele>737.0</ele><time>2026-04-18T09:36:13.119Z</time></trkpt><trkpt lat="37.8754083" lon="14.9764783"><ele>737.3333333333333</ele><time>2026-04-18T09:36:14.119Z</time></trkpt><trkpt lat="37.8753733" lon="14.9767117"><ele>737.6666666666666</ele><time>2026-04-18T09:36:15.119Z</time></trkpt><trkpt lat="37.875335" lon="14.97695"><ele>738.0</ele><time>2026-04-18T09:36:16.119Z</time></trkpt><trkpt lat="37.8753033" lon="14.977185"><ele>738.0</ele><time>2026-04-18T09:36:17.119Z</time></trkpt><trkpt lat="37.87526" lon="14.9774183"><ele>738.0</ele><time>2026-04-18T09:36:18.119Z</time></trkpt><trkpt lat="37.8752233" lon="14.97767"><ele>738.0</ele><time>2026-04-18T09:36:19.119Z</time></trkpt><trkpt lat="37.8751783" lon="14.977925"><ele>738.3333333333334</ele><time>2026-04-18T09:36:20.119Z</time></trkpt><trkpt lat="37.8751433" lon="14.9781833"><ele>738.6666666666667</ele><time>2026-04-18T09:36:21.119Z</time></trkpt><trkpt lat="37.8750983" lon="14.9784333"><ele>739.0</ele><time>2026-04-18T09:36:22.119Z</time></trkpt><trkpt lat="37.8750633" lon="14.9787017"><ele>739.0</ele><time>2026-04-18T09:36:23.119Z</time></trkpt><trkpt lat="37.8750283" lon="14.9789567"><ele>739.0</ele><time>2026-04-18T09:36:24.119Z</time></trkpt><trkpt lat="37.8750033" lon="14.97922"><ele>739.0</ele><time>2026-04-18T09:36:25.119Z</time></trkpt><trkpt lat="37.8749967" lon="14.979465"><ele>740.0</ele><time>2026-04-18T09:36:26.119Z</time></trkpt><trkpt lat="37.875005" lon="14.979715"><ele>741.0</ele><time>2026-04-18T09:36:27.119Z</time></trkpt><trkpt lat="37.8750383" lon="14.9799617"><ele>742.0</ele><time>2026-04-18T09:36:28.119Z</time></trkpt><trkpt lat="37.8750633" lon="14.9802117"><ele>742.0</ele><time>2026-04-18T09:36:29.119Z</time></trkpt><trkpt lat="37.875095" lon="14.9804467"><ele>742.0</ele><time>2026-04-18T09:36:30.119Z</time></trkpt><trkpt lat="37.8751183" lon="14.9806667"><ele>742.0</ele><time>2026-04-18T09:36:31.119Z</time></trkpt><trkpt lat="37.87514" lon="14.9808883"><ele>741.3333333333334</ele><time>2026-04-18T09:36:32.118Z</time></trkpt><trkpt lat="37.8751567" lon="14.9811083"><ele>740.6666666666666</ele><time>2026-04-18T09:36:33.119Z</time></trkpt><trkpt lat="37.875165" lon="14.9813267"><ele>740.0</ele><time>2026-04-18T09:36:34.119Z</time></trkpt><trkpt lat="37.8751517" lon="14.9815417"><ele>739.6666666666666</ele><time>2026-04-18T09:36:35.119Z</time></trkpt><trkpt lat="37.875105" lon="14.981745"><ele>739.3333333333334</ele><time>2026-04-18T09:36:36.119Z</time></trkpt><trkpt lat="37.8750483" lon="14.98196"><ele>739.0</ele><time>2026-04-18T09:36:37.119Z</time></trkpt><trkpt lat="37.874985" lon="14.9821817"><ele>739.0</ele><time>2026-04-18T09:36:38.119Z</time></trkpt><trkpt lat="37.87492" lon="14.98241"><ele>739.0</ele><time>2026-04-18T09:36:39.118Z</time></trkpt><trkpt lat="37.874855" lon="14.9826367"><ele>739.0</ele><time>2026-04-18T09:36:40.118Z</time></trkpt><trkpt lat="37.8747983" lon="14.982875"><ele>739.0</ele><time>2026-04-18T09:36:41.119Z</time></trkpt><trkpt lat="37.8747333" lon="14.9831167"><ele>739.0</ele><time>2026-04-18T09:36:42.119Z</time></trkpt><trkpt lat="37.8746717" lon="14.98336"><ele>739.0</ele><time>2026-04-18T09:36:43.119Z</time></trkpt><trkpt lat="37.8746033" lon="14.9835983"><ele>738.3333333333334</ele><time>2026-04-18T09:36:44.119Z</time></trkpt><trkpt lat="37.8745367" lon="14.9838217"><ele>737.6666666666666</ele><time>2026-04-18T09:36:45.119Z</time></trkpt><trkpt lat="37.8744783" lon="14.984045"><ele>737.0</ele><time>2026-04-18T09:36:46.119Z</time></trkpt><trkpt lat="37.8744283" lon="14.9842533"><ele>736.6666666666666</ele><time>2026-04-18T09:36:47.119Z</time></trkpt><trkpt lat="37.8743733" lon="14.9844683"><ele>736.3333333333334</ele><time>2026-04-18T09:36:48.119Z</time></trkpt><trkpt lat="37.87431" lon="14.9846933"><ele>736.0</ele><time>2026-04-18T09:36:49.119Z</time></trkpt><trkpt lat="37.8742533" lon="14.98494"><ele>736.0</ele><time>2026-04-18T09:36:50.119Z</time></trkpt><trkpt lat="37.8742" lon="14.9851867"><ele>736.0</ele><time>2026-04-18T09:36:51.119Z</time></trkpt><trkpt lat="37.87418" lon="14.9854417"><ele>736.0</ele><time>2026-04-18T09:36:52.119Z</time></trkpt><trkpt lat="37.8741733" lon="14.985695"><ele>736.3333333333334</ele><time>2026-04-18T09:36:53.119Z</time></trkpt><trkpt lat="37.8741833" lon="14.9859667"><ele>736.6666666666666</ele><time>2026-04-18T09:36:54.119Z</time></trkpt><trkpt lat="37.8742167" lon="14.986245"><ele>737.0</ele><time>2026-04-18T09:36:55.119Z</time></trkpt><trkpt lat="37.874245" lon="14.9865267"><ele>735.6666666666666</ele><time>2026-04-18T09:36:56.118Z</time></trkpt><trkpt lat="37.87428" lon="14.9867983"><ele>734.3333333333334</ele><time>2026-04-18T09:36:57.119Z</time></trkpt><trkpt lat="37.8743133" lon="14.9870617"><ele>733.0</ele><time>2026-04-18T09:36:58.119Z</time></trkpt><trkpt lat="37.8743333" lon="14.9873217"><ele>733.3333333333334</ele><time>2026-04-18T09:36:59.119Z</time></trkpt><trkpt lat="37.87434" lon="14.9875817"><ele>733.6666666666666</ele><time>2026-04-18T09:37:00.119Z</time></trkpt><trkpt lat="37.8743333" lon="14.9878417"><ele>734.0</ele><time>2026-04-18T09:37:01.119Z</time></trkpt><trkpt lat="37.8743117" lon="14.9880967"><ele>733.6666666666666</ele><time>2026-04-18T09:37:02.119Z</time></trkpt><trkpt lat="37.8742983" lon="14.988345"><ele>733.3333333333334</ele><time>2026-04-18T09:37:03.119Z</time></trkpt><trkpt lat="37.8742933" lon="14.9886083"><ele>733.0</ele><time>2026-04-18T09:37:04.119Z</time></trkpt><trkpt lat="37.8742983" lon="14.9888733"><ele>733.0</ele><time>2026-04-18T09:37:05.119Z</time></trkpt><trkpt lat="37.8743217" lon="14.9891433"><ele>733.0</ele><time>2026-04-18T09:37:06.119Z</time></trkpt><trkpt lat="37.87436" lon="14.9894083"><ele>733.0</ele><time>2026-04-18T09:37:07.118Z</time></trkpt><trkpt lat="37.8743983" lon="14.98967"><ele>733.6666666666667</ele><time>2026-04-18T09:37:08.118Z</time></trkpt><trkpt lat="37.8744467" lon="14.98994"><ele>734.3333333333334</ele><time>2026-04-18T09:37:09.119Z</time></trkpt><trkpt lat="37.8744933" lon="14.9902167"><ele>735.0</ele><time>2026-04-18T09:37:10.119Z</time></trkpt><trkpt lat="37.8745433" lon="14.9904833"><ele>735.0</ele><time>2026-04-18T09:37:11.118Z</time></trkpt><trkpt lat="37.8745867" lon="14.990745"><ele>735.0</ele><time>2026-04-18T09:37:12.119Z</time></trkpt><trkpt lat="37.8746317" lon="14.990995"><ele>735.0</ele><time>2026-04-18T09:37:13.119Z</time></trkpt><trkpt lat="37.8746733" lon="14.991245"><ele>734.6666666666666</ele><time>2026-04-18T09:37:14.119Z</time></trkpt><trkpt lat="37.87471" lon="14.991485"><ele>734.3333333333333</ele><time>2026-04-18T09:37:15.119Z</time></trkpt><trkpt lat="37.8747517" lon="14.9917083"><ele>734.0</ele><time>2026-04-18T09:37:16.119Z</time></trkpt><trkpt lat="37.8747867" lon="14.991915"><ele>735.3333333333333</ele><time>2026-04-18T09:37:17.119Z</time></trkpt><trkpt lat="37.8747967" lon="14.99212"><ele>736.6666666666666</ele><time>2026-04-18T09:37:18.119Z</time></trkpt><trkpt lat="37.8747933" lon="14.9923083"><ele>738.0</ele><time>2026-04-18T09:37:19.118Z</time></trkpt><trkpt lat="37.8747533" lon="14.9924983"><ele>737.3333333333334</ele><time>2026-04-18T09:37:20.119Z</time></trkpt><trkpt lat="37.8746767" lon="14.99267"><ele>736.6666666666667</ele><time>2026-04-18T09:37:21.119Z</time></trkpt><trkpt lat="37.874575" lon="14.992845"><ele>736.0</ele><time>2026-04-18T09:37:22.119Z</time></trkpt><trkpt lat="37.8744667" lon="14.9930083"><ele>736.0</ele><time>2026-04-18T09:37:23.119Z</time></trkpt><trkpt lat="37.8743717" lon="14.9931783"><ele>736.0</ele><time>2026-04-18T09:37:24.119Z</time></trkpt><trkpt lat="37.8743017" lon="14.9933583"><ele>736.0</ele><time>2026-04-18T09:37:25.119Z</time></trkpt><trkpt lat="37.8742517" lon="14.9935617"><ele>734.6666666666667</ele><time>2026-04-18T09:37:26.119Z</time></trkpt><trkpt lat="37.8742133" lon="14.9937833"><ele>733.3333333333334</ele><time>2026-04-18T09:37:27.119Z</time></trkpt><trkpt lat="37.87417" lon="14.9940233"><ele>732.0</ele><time>2026-04-18T09:37:28.119Z</time></trkpt><trkpt lat="37.87413" lon="14.9942667"><ele>731.6666666666666</ele><time>2026-04-18T09:37:29.119Z</time></trkpt><trkpt lat="37.87409" lon="14.9945117"><ele>731.3333333333333</ele><time>2026-04-18T09:37:30.119Z</time></trkpt><trkpt lat="37.8740483" lon="14.9947483"><ele>731.0</ele><time>2026-04-18T09:37:31.119Z</time></trkpt><trkpt lat="37.8740083" lon="14.9949867"><ele>731.6666666666666</ele><time>2026-04-18T09:37:32.119Z</time></trkpt><trkpt lat="37.8739633" lon="14.995235"><ele>732.3333333333334</ele><time>2026-04-18T09:37:33.119Z</time></trkpt><trkpt lat="37.8739183" lon="14.9954783"><ele>733.0</ele><time>2026-04-18T09:37:34.119Z</time></trkpt><trkpt lat="37.8738633" lon="14.9957217"><ele>732.6666666666667</ele><time>2026-04-18T09:37:35.119Z</time></trkpt><trkpt lat="37.8738" lon="14.9959567"><ele>732.3333333333334</ele><time>2026-04-18T09:37:36.119Z</time></trkpt><trkpt lat="37.8737383" lon="14.996175"><ele>732.0</ele><time>2026-04-18T09:37:37.119Z</time></trkpt><trkpt lat="37.873685" lon="14.9963867"><ele>732.0</ele><time>2026-04-18T09:37:38.119Z</time></trkpt><trkpt lat="37.87364" lon="14.9965867"><ele>732.0</ele><time>2026-04-18T09:37:39.119Z</time></trkpt><trkpt lat="37.8735983" lon="14.9967733"><ele>732.0</ele><time>2026-04-18T09:37:40.118Z</time></trkpt><trkpt lat="37.8735533" lon="14.996955"><ele>731.0</ele><time>2026-04-18T09:37:41.119Z</time></trkpt><trkpt lat="37.87352" lon="14.9971483"><ele>730.0</ele><time>2026-04-18T09:37:42.119Z</time></trkpt><trkpt lat="37.873515" lon="14.997345"><ele>729.0</ele><time>2026-04-18T09:37:43.119Z</time></trkpt><trkpt lat="37.87354" lon="14.99755"><ele>727.6666666666666</ele><time>2026-04-18T09:37:44.119Z</time></trkpt><trkpt lat="37.873585" lon="14.997755"><ele>726.3333333333333</ele><time>2026-04-18T09:37:45.118Z</time></trkpt><trkpt lat="37.8736567" lon="14.99796"><ele>725.0</ele><time>2026-04-18T09:37:46.118Z</time></trkpt><trkpt lat="37.8737283" lon="14.9981817"><ele>724.0</ele><time>2026-04-18T09:37:47.119Z</time></trkpt><trkpt lat="37.8738117" lon="14.9984083"><ele>723.0</ele><time>2026-04-18T09:37:48.119Z</time></trkpt><trkpt lat="37.8739067" lon="14.9986333"><ele>722.0</ele><time>2026-04-18T09:37:49.119Z</time></trkpt><trkpt lat="37.8740067" lon="14.9988733"><ele>722.0</ele><time>2026-04-18T09:37:50.119Z</time></trkpt><trkpt lat="37.8741033" lon="14.9991117"><ele>722.0</ele><time>2026-04-18T09:37:51.119Z</time></trkpt><trkpt lat="37.8742067" lon="14.9993467"><ele>722.0</ele><time>2026-04-18T09:37:52.119Z</time></trkpt><trkpt lat="37.8742983" lon="14.9995817"><ele>720.6666666666666</ele><time>2026-04-18T09:37:53.119Z</time></trkpt><trkpt lat="37.874395" lon="14.9998017"><ele>719.3333333333334</ele><time>2026-04-18T09:37:54.119Z</time></trkpt><trkpt lat="37.8744833" lon="15.000005"><ele>718.0</ele><time>2026-04-18T09:37:55.119Z</time></trkpt><trkpt lat="37.8745667" lon="15.0002117"><ele>718.0</ele><time>2026-04-18T09:37:56.119Z</time></trkpt><trkpt lat="37.87462" lon="15.0004433"><ele>718.0</ele><time>2026-04-18T09:37:57.119Z</time></trkpt><trkpt lat="37.8746717" lon="15.0006983"><ele>718.0</ele><time>2026-04-18T09:37:58.118Z</time></trkpt><trkpt lat="37.8747183" lon="15.00095"><ele>718.3333333333334</ele><time>2026-04-18T09:37:59.119Z</time></trkpt><trkpt lat="37.8747583" lon="15.0012017"><ele>718.6666666666666</ele><time>2026-04-18T09:38:00.119Z</time></trkpt><trkpt lat="37.874805" lon="15.0014633"><ele>719.0</ele><time>2026-04-18T09:38:01.119Z</time></trkpt><trkpt lat="37.8748567" lon="15.0017283"><ele>719.0</ele><time>2026-04-18T09:38:02.119Z</time></trkpt><trkpt lat="37.8749083" lon="15.001995"><ele>719.0</ele><time>2026-04-18T09:38:03.118Z</time></trkpt><trkpt lat="37.8749517" lon="15.0022467"><ele>719.0</ele><time>2026-04-18T09:38:04.119Z</time></trkpt><trkpt lat="37.875" lon="15.0024817"><ele>718.6666666666666</ele><time>2026-04-18T09:38:05.119Z</time></trkpt><trkpt lat="37.8750433" lon="15.002705"><ele>718.3333333333334</ele><time>2026-04-18T09:38:06.118Z</time></trkpt><trkpt lat="37.8751083" lon="15.0029167"><ele>718.0</ele><time>2026-04-18T09:38:07.119Z</time></trkpt><trkpt lat="37.875205" lon="15.0031217"><ele>718.0</ele><time>2026-04-18T09:38:08.119Z</time></trkpt><trkpt lat="37.8753233" lon="15.0033267"><ele>718.0</ele><time>2026-04-18T09:38:09.119Z</time></trkpt><trkpt lat="37.87545" lon="15.00353"><ele>718.0</ele><time>2026-04-18T09:38:10.119Z</time></trkpt><trkpt lat="37.87557" lon="15.003745"><ele>719.3333333333334</ele><time>2026-04-18T09:38:11.119Z</time></trkpt><trkpt lat="37.8756967" lon="15.0039683"><ele>720.6666666666666</ele><time>2026-04-18T09:38:12.119Z</time></trkpt><trkpt lat="37.8758267" lon="15.0041883"><ele>722.0</ele><time>2026-04-18T09:38:13.119Z</time></trkpt><trkpt lat="37.875955" lon="15.0044117"><ele>721.3333333333333</ele><time>2026-04-18T09:38:14.119Z</time></trkpt><trkpt lat="37.87609" lon="15.0046417"><ele>720.6666666666666</ele><time>2026-04-18T09:38:15.119Z</time></trkpt><trkpt lat="37.8762183" lon="15.004855"><ele>720.0</ele><time>2026-04-18T09:38:16.119Z</time></trkpt><trkpt lat="37.8763433" lon="15.005055"><ele>720.0</ele><time>2026-04-18T09:38:17.119Z</time></trkpt><trkpt lat="37.87646" lon="15.00525"><ele>720.0</ele><time>2026-04-18T09:38:18.119Z</time></trkpt><trkpt lat="37.8765683" lon="15.005435"><ele>720.0</ele><time>2026-04-18T09:38:19.119Z</time></trkpt><trkpt lat="37.8766717" lon="15.005605"><ele>720.0</ele><time>2026-04-18T09:38:20.118Z</time></trkpt><trkpt lat="37.8767583" lon="15.0057883"><ele>720.0</ele><time>2026-04-18T09:38:21.118Z</time></trkpt><trkpt lat="37.8768267" lon="15.0059867"><ele>720.0</ele><time>2026-04-18T09:38:22.119Z</time></trkpt><trkpt lat="37.8768633" lon="15.006205"><ele>718.6666666666666</ele><time>2026-04-18T09:38:23.119Z</time></trkpt><trkpt lat="37.8768883" lon="15.0064233"><ele>717.3333333333333</ele><time>2026-04-18T09:38:24.119Z</time></trkpt><trkpt lat="37.8768733" lon="15.0066317"><ele>716.0</ele><time>2026-04-18T09:38:25.119Z</time></trkpt><trkpt lat="37.87682" lon="15.0068233"><ele>717.0</ele><time>2026-04-18T09:38:26.119Z</time></trkpt><trkpt lat="37.8767433" lon="15.007035"><ele>718.0</ele><time>2026-04-18T09:38:27.118Z</time></trkpt><trkpt lat="37.87666" lon="15.00725"><ele>719.0</ele><time>2026-04-18T09:38:28.119Z</time></trkpt><trkpt lat="37.8765733" lon="15.0074617"><ele>716.6666666666666</ele><time>2026-04-18T09:38:29.119Z</time></trkpt><trkpt lat="37.8764933" lon="15.0077"><ele>714.3333333333334</ele><time>2026-04-18T09:38:30.119Z</time></trkpt><trkpt lat="37.87641" lon="15.0079333"><ele>712.0</ele><time>2026-04-18T09:38:31.119Z</time></trkpt><trkpt lat="37.8763317" lon="15.0081533"><ele>709.6666666666667</ele><time>2026-04-18T09:38:32.119Z</time></trkpt><trkpt lat="37.876255" lon="15.008365"><ele>707.3333333333334</ele><time>2026-04-18T09:38:33.119Z</time></trkpt><trkpt lat="37.8761783" lon="15.00857"><ele>705.0</ele><time>2026-04-18T09:38:34.118Z</time></trkpt><trkpt lat="37.8761117" lon="15.0087633"><ele>705.0</ele><time>2026-04-18T09:38:35.119Z</time></trkpt><trkpt lat="37.876045" lon="15.008945"><ele>705.0</ele><time>2026-04-18T09:38:36.119Z</time></trkpt><trkpt lat="37.8759817" lon="15.0091267"><ele>705.0</ele><time>2026-04-18T09:38:37.119Z</time></trkpt><trkpt lat="37.87592" lon="15.0092917"><ele>705.0</ele><time>2026-04-18T09:38:38.119Z</time></trkpt><trkpt lat="37.8758583" lon="15.009455"><ele>705.0</ele><time>2026-04-18T09:38:39.119Z</time></trkpt><trkpt lat="37.875815" lon="15.00962"><ele>705.0</ele><time>2026-04-18T09:38:40.119Z</time></trkpt><trkpt lat="37.875785" lon="15.00981"><ele>705.0</ele><time>2026-04-18T09:38:41.118Z</time></trkpt><trkpt lat="37.875755" lon="15.0099933"><ele>705.0</ele><time>2026-04-18T09:38:42.119Z</time></trkpt><trkpt lat="37.8757317" lon="15.01017"><ele>705.0</ele><time>2026-04-18T09:38:43.119Z</time></trkpt><trkpt lat="37.8757033" lon="15.0103383"><ele>705.0</ele><time>2026-04-18T09:38:44.118Z</time></trkpt><trkpt lat="37.8756717" lon="15.010505"><ele>705.0</ele><time>2026-04-18T09:38:45.119Z</time></trkpt><trkpt lat="37.87564" lon="15.0106533"><ele>703.6666666666666</ele><time>2026-04-18T09:38:46.119Z</time></trkpt><trkpt lat="37.8756133" lon="15.010825"><ele>702.3333333333333</ele><time>2026-04-18T09:38:47.119Z</time></trkpt><trkpt lat="37.8755917" lon="15.0110233"><ele>701.0</ele><time>2026-04-18T09:38:48.119Z</time></trkpt><trkpt lat="37.87556" lon="15.0112483"><ele>701.0</ele><time>2026-04-18T09:38:49.119Z</time></trkpt><trkpt lat="37.875525" lon="15.0114983"><ele>701.0</ele><time>2026-04-18T09:38:50.119Z</time></trkpt><trkpt lat="37.8754967" lon="15.011765"><ele>701.0</ele><time>2026-04-18T09:38:51.119Z</time></trkpt><trkpt lat="37.8754633" lon="15.0120517"><ele>699.0</ele><time>2026-04-18T09:38:52.119Z</time></trkpt><trkpt lat="37.8754283" lon="15.0123233"><ele>697.0</ele><time>2026-04-18T09:38:53.119Z</time></trkpt><trkpt lat="37.8753933" lon="15.0125883"><ele>695.0</ele><time>2026-04-18T09:38:54.119Z</time></trkpt><trkpt lat="37.875365" lon="15.0128417"><ele>694.3333333333333</ele><time>2026-04-18T09:38:55.119Z</time></trkpt><trkpt lat="37.8753383" lon="15.0130783"><ele>693.6666666666666</ele><time>2026-04-18T09:38:56.119Z</time></trkpt><trkpt lat="37.8753183" lon="15.013325"><ele>693.0</ele><time>2026-04-18T09:38:57.119Z</time></trkpt><trkpt lat="37.87529" lon="15.0135667"><ele>693.0</ele><time>2026-04-18T09:38:58.119Z</time></trkpt><trkpt lat="37.8752683" lon="15.01381"><ele>693.0</ele><time>2026-04-18T09:38:59.119Z</time></trkpt><trkpt lat="37.8752367" lon="15.0140533"><ele>693.0</ele><time>2026-04-18T09:39:00.118Z</time></trkpt><trkpt lat="37.8752117" lon="15.01429"><ele>692.0</ele><time>2026-04-18T09:39:01.119Z</time></trkpt><trkpt lat="37.8752" lon="15.01454"><ele>691.0</ele><time>2026-04-18T09:39:02.117Z</time></trkpt><trkpt lat="37.8751933" lon="15.01479"><ele>690.0</ele><time>2026-04-18T09:39:03.117Z</time></trkpt><trkpt lat="37.8751983" lon="15.0150433"><ele>688.3333333333334</ele><time>2026-04-18T09:39:04.118Z</time></trkpt><trkpt lat="37.8752067" lon="15.015295"><ele>686.6666666666667</ele><time>2026-04-18T09:39:05.118Z</time></trkpt><trkpt lat="37.8752233" lon="15.015555"><ele>685.0</ele><time>2026-04-18T09:39:06.118Z</time></trkpt><trkpt lat="37.875245" lon="15.0158183"><ele>684.0</ele><time>2026-04-18T09:39:07.118Z</time></trkpt><trkpt lat="37.8752733" lon="15.01608"><ele>683.0</ele><time>2026-04-18T09:39:08.118Z</time></trkpt><trkpt lat="37.875305" lon="15.0163367"><ele>682.0</ele><time>2026-04-18T09:39:09.118Z</time></trkpt><trkpt lat="37.8753417" lon="15.0165917"><ele>681.0</ele><time>2026-04-18T09:39:10.117Z</time></trkpt><trkpt lat="37.8753833" lon="15.0168317"><ele>680.0</ele><time>2026-04-18T09:39:11.118Z</time></trkpt><trkpt lat="37.875425" lon="15.017075"><ele>679.0</ele><time>2026-04-18T09:39:12.118Z</time></trkpt><trkpt lat="37.8754717" lon="15.0173067"><ele>679.3333333333334</ele><time>2026-04-18T09:39:13.118Z</time></trkpt><trkpt lat="37.8755317" lon="15.0175367"><ele>679.6666666666666</ele><time>2026-04-18T09:39:14.117Z</time></trkpt><trkpt lat="37.8755967" lon="15.0177483"><ele>680.0</ele><time>2026-04-18T09:39:15.118Z</time></trkpt><trkpt lat="37.8756633" lon="15.0179567"><ele>680.0</ele><time>2026-04-18T09:39:16.118Z</time></trkpt><trkpt lat="37.875725" lon="15.018155"><ele>680.0</ele><time>2026-04-18T09:39:17.118Z</time></trkpt><trkpt lat="37.87579" lon="15.018355"><ele>680.0</ele><time>2026-04-18T09:39:18.118Z</time></trkpt><trkpt lat="37.8758383" lon="15.0185683"><ele>680.3333333333333</ele><time>2026-04-18T09:39:19.118Z</time></trkpt><trkpt lat="37.87586" lon="15.0187867"><ele>680.6666666666666</ele><time>2026-04-18T09:39:20.118Z</time></trkpt><trkpt lat="37.8758767" lon="15.0190167"><ele>681.0</ele><time>2026-04-18T09:39:21.118Z</time></trkpt><trkpt lat="37.875885" lon="15.0192617"><ele>680.3333333333334</ele><time>2026-04-18T09:39:22.117Z</time></trkpt><trkpt lat="37.8758917" lon="15.0195033"><ele>679.6666666666667</ele><time>2026-04-18T09:39:23.118Z</time></trkpt><trkpt lat="37.8759033" lon="15.01975"><ele>679.0</ele><time>2026-04-18T09:39:24.118Z</time></trkpt><trkpt lat="37.8759083" lon="15.0199867"><ele>679.0</ele><time>2026-04-18T09:39:25.118Z</time></trkpt><trkpt lat="37.8759133" lon="15.0202233"><ele>679.0</ele><time>2026-04-18T09:39:26.118Z</time></trkpt><trkpt lat="37.8759067" lon="15.020465"><ele>679.0</ele><time>2026-04-18T09:39:27.118Z</time></trkpt><trkpt lat="37.8758867" lon="15.0207067"><ele>678.3333333333334</ele><time>2026-04-18T09:39:28.118Z</time></trkpt><trkpt lat="37.8758633" lon="15.020945"><ele>677.6666666666666</ele><time>2026-04-18T09:39:29.118Z</time></trkpt><trkpt lat="37.87584" lon="15.021175"><ele>677.0</ele><time>2026-04-18T09:39:30.118Z</time></trkpt><trkpt lat="37.875825" lon="15.0214"><ele>677.0</ele><time>2026-04-18T09:39:31.118Z</time></trkpt><trkpt lat="37.875805" lon="15.0216133"><ele>677.0</ele><time>2026-04-18T09:39:32.118Z</time></trkpt><trkpt lat="37.8757867" lon="15.0218367"><ele>677.0</ele><time>2026-04-18T09:39:33.118Z</time></trkpt><trkpt lat="37.8757683" lon="15.0220583"><ele>676.6666666666666</ele><time>2026-04-18T09:39:34.118Z</time></trkpt><trkpt lat="37.875755" lon="15.0222867"><ele>676.3333333333334</ele><time>2026-04-18T09:39:35.118Z</time></trkpt><trkpt lat="37.8757467" lon="15.022505"><ele>676.0</ele><time>2026-04-18T09:39:36.118Z</time></trkpt><trkpt lat="37.875745" lon="15.0227217"><ele>676.0</ele><time>2026-04-18T09:39:37.118Z</time></trkpt><trkpt lat="37.8757383" lon="15.02293"><ele>676.0</ele><time>2026-04-18T09:39:38.117Z</time></trkpt><trkpt lat="37.8757217" lon="15.0231283"><ele>676.0</ele><time>2026-04-18T09:39:39.118Z</time></trkpt><trkpt lat="37.875695" lon="15.0233183"><ele>676.0</ele><time>2026-04-18T09:39:40.118Z</time></trkpt><trkpt lat="37.875655" lon="15.0234817"><ele>676.0</ele><time>2026-04-18T09:39:41.118Z</time></trkpt><trkpt lat="37.8755867" lon="15.0236183"><ele>676.0</ele><time>2026-04-18T09:39:42.118Z</time></trkpt><trkpt lat="37.8754883" lon="15.0237567"><ele>676.0</ele><time>2026-04-18T09:39:43.118Z</time></trkpt><trkpt lat="37.87537" lon="15.0239167"><ele>676.0</ele><time>2026-04-18T09:39:44.117Z</time></trkpt><trkpt lat="37.8752417" lon="15.02412"><ele>676.0</ele><time>2026-04-18T09:39:45.118Z</time></trkpt><trkpt lat="37.8751167" lon="15.024365"><ele>676.0</ele><time>2026-04-18T09:39:46.118Z</time></trkpt><trkpt lat="37.8749783" lon="15.02461"><ele>677.0</ele><time>2026-04-18T09:39:47.117Z</time></trkpt><trkpt lat="37.8748483" lon="15.024825"><ele>678.0</ele><time>2026-04-18T09:39:48.118Z</time></trkpt><trkpt lat="37.87474" lon="15.0250183"><ele>679.0</ele><time>2026-04-18T09:39:49.118Z</time></trkpt><trkpt lat="37.8746683" lon="15.0252017"><ele>676.0</ele><time>2026-04-18T09:39:50.118Z</time></trkpt><trkpt lat="37.8746417" lon="15.0253817"><ele>673.0</ele><time>2026-04-18T09:39:51.118Z</time></trkpt><trkpt lat="37.8746683" lon="15.0255667"><ele>670.0</ele><time>2026-04-18T09:39:52.118Z</time></trkpt><trkpt lat="37.874715" lon="15.0257717"><ele>669.6666666666667</ele><time>2026-04-18T09:39:53.118Z</time></trkpt><trkpt lat="37.87476" lon="15.02597"><ele>669.3333333333334</ele><time>2026-04-18T09:39:54.118Z</time></trkpt><trkpt lat="37.8747717" lon="15.0261817"><ele>669.0</ele><time>2026-04-18T09:39:55.118Z</time></trkpt><trkpt lat="37.874755" lon="15.0264"><ele>669.0</ele><time>2026-04-18T09:39:56.118Z</time></trkpt><trkpt lat="37.8747183" lon="15.0266117"><ele>669.0</ele><time>2026-04-18T09:39:57.118Z</time></trkpt><trkpt lat="37.8746317" lon="15.02684"><ele>669.0</ele><time>2026-04-18T09:39:58.118Z</time></trkpt><trkpt lat="37.8745617" lon="15.027085"><ele>667.3333333333334</ele><time>2026-04-18T09:39:59.118Z</time></trkpt><trkpt lat="37.8745" lon="15.0273417"><ele>665.6666666666667</ele><time>2026-04-18T09:40:00.118Z</time></trkpt><trkpt lat="37.8744433" lon="15.0275833"><ele>664.0</ele><time>2026-04-18T09:40:01.117Z</time></trkpt><trkpt lat="37.8743917" lon="15.0278133"><ele>664.3333333333334</ele><time>2026-04-18T09:40:02.118Z</time></trkpt><trkpt lat="37.8743367" lon="15.0280333"><ele>664.6666666666666</ele><time>2026-04-18T09:40:03.118Z</time></trkpt><trkpt lat="37.8742883" lon="15.0282533"><ele>665.0</ele><time>2026-04-18T09:40:04.118Z</time></trkpt><trkpt lat="37.874235" lon="15.0284617"><ele>665.0</ele><time>2026-04-18T09:40:05.118Z</time></trkpt><trkpt lat="37.8742017" lon="15.0286833"><ele>665.0</ele><time>2026-04-18T09:40:06.118Z</time></trkpt><trkpt lat="37.8742017" lon="15.0289217"><ele>665.0</ele><time>2026-04-18T09:40:07.118Z</time></trkpt><trkpt lat="37.874225" lon="15.0291683"><ele>664.0</ele><time>2026-04-18T09:40:08.118Z</time></trkpt><trkpt lat="37.8742483" lon="15.0294117"><ele>663.0</ele><time>2026-04-18T09:40:09.118Z</time></trkpt><trkpt lat="37.8742767" lon="15.029655"><ele>662.0</ele><time>2026-04-18T09:40:10.118Z</time></trkpt><trkpt lat="37.874295" lon="15.029905"><ele>660.6666666666666</ele><time>2026-04-18T09:40:11.118Z</time></trkpt><trkpt lat="37.8743067" lon="15.0301467"><ele>659.3333333333334</ele><time>2026-04-18T09:40:12.118Z</time></trkpt><trkpt lat="37.87431" lon="15.0304017"><ele>658.0</ele><time>2026-04-18T09:40:13.118Z</time></trkpt><trkpt lat="37.8743" lon="15.030655"><ele>656.6666666666667</ele><time>2026-04-18T09:40:14.117Z</time></trkpt><trkpt lat="37.874265" lon="15.030935"><ele>655.3333333333334</ele><time>2026-04-18T09:40:15.118Z</time></trkpt><trkpt lat="37.87423" lon="15.0312033"><ele>654.0</ele><time>2026-04-18T09:40:16.117Z</time></trkpt><trkpt lat="37.8742" lon="15.0314667"><ele>653.6666666666666</ele><time>2026-04-18T09:40:17.118Z</time></trkpt><trkpt lat="37.8741617" lon="15.0317117"><ele>653.3333333333333</ele><time>2026-04-18T09:40:18.118Z</time></trkpt><trkpt lat="37.8741333" lon="15.0319483"><ele>653.0</ele><time>2026-04-18T09:40:19.118Z</time></trkpt><trkpt lat="37.8741083" lon="15.0321867"><ele>653.0</ele><time>2026-04-18T09:40:20.117Z</time></trkpt><trkpt lat="37.874105" lon="15.0324233"><ele>653.0</ele><time>2026-04-18T09:40:21.118Z</time></trkpt><trkpt lat="37.8741333" lon="15.0326533"><ele>653.0</ele><time>2026-04-18T09:40:22.118Z</time></trkpt><trkpt lat="37.8741817" lon="15.0328717"><ele>653.0</ele><time>2026-04-18T09:40:23.118Z</time></trkpt><trkpt lat="37.874235" lon="15.0330733"><ele>653.0</ele><time>2026-04-18T09:40:24.118Z</time></trkpt><trkpt lat="37.8742917" lon="15.033255"><ele>653.0</ele><time>2026-04-18T09:40:25.118Z</time></trkpt><trkpt lat="37.874325" lon="15.0334117"><ele>653.3333333333333</ele><time>2026-04-18T09:40:26.118Z</time></trkpt><trkpt lat="37.8743283" lon="15.0335333"><ele>653.6666666666666</ele><time>2026-04-18T09:40:27.118Z</time></trkpt><trkpt lat="37.87431" lon="15.033635"><ele>654.0</ele><time>2026-04-18T09:40:28.117Z</time></trkpt><trkpt lat="37.874275" lon="15.033725"><ele>654.3333333333334</ele><time>2026-04-18T09:40:29.118Z</time></trkpt><trkpt lat="37.8742117" lon="15.0337933"><ele>654.6666666666667</ele><time>2026-04-18T09:40:30.117Z</time></trkpt><trkpt lat="37.87414" lon="15.0338567"><ele>655.0</ele><time>2026-04-18T09:40:31.118Z</time></trkpt><trkpt lat="37.874035" lon="15.033905"><ele>655.0</ele><time>2026-04-18T09:40:32.117Z</time></trkpt><trkpt lat="37.8739217" lon="15.03396"><ele>655.0</ele><time>2026-04-18T09:40:33.118Z</time></trkpt><trkpt lat="37.8737983" lon="15.0340283"><ele>655.0</ele><time>2026-04-18T09:40:34.118Z</time></trkpt><trkpt lat="37.873675" lon="15.03411"><ele>655.0</ele><time>2026-04-18T09:40:35.118Z</time></trkpt><trkpt lat="37.87356" lon="15.0342017"><ele>654.75</ele><time>2026-04-18T09:40:36.118Z</time></trkpt><trkpt lat="37.873455" lon="15.0343133"><ele>654.5</ele><time>2026-04-18T09:40:37.118Z</time></trkpt><trkpt lat="37.8733633" lon="15.034445"><ele>654.25</ele><time>2026-04-18T09:40:38.118Z</time></trkpt><trkpt lat="37.8732983" lon="15.0346033"><ele>654.0</ele><time>2026-04-18T09:40:39.118Z</time></trkpt><trkpt lat="37.873245" lon="15.034785"><ele>654.25</ele><time>2026-04-18T09:40:40.118Z</time></trkpt><trkpt lat="37.8732067" lon="15.0349833"><ele>654.5</ele><time>2026-04-18T09:40:41.118Z</time></trkpt><trkpt lat="37.873175" lon="15.0351583"><ele>654.75</ele><time>2026-04-18T09:40:42.118Z</time></trkpt><trkpt lat="37.8731367" lon="15.03533"><ele>655.0</ele><time>2026-04-18T09:40:43.118Z</time></trkpt><trkpt lat="37.8731" lon="15.0354883"><ele>655.0</ele><time>2026-04-18T09:40:44.118Z</time></trkpt><trkpt lat="37.87306" lon="15.03563"><ele>655.0</ele><time>2026-04-18T09:40:45.118Z</time></trkpt><trkpt lat="37.8729983" lon="15.0357683"><ele>655.0</ele><time>2026-04-18T09:40:46.118Z</time></trkpt><trkpt lat="37.8729133" lon="15.03587"><ele>655.0</ele><time>2026-04-18T09:40:47.118Z</time></trkpt><trkpt lat="37.8728167" lon="15.035945"><ele>654.25</ele><time>2026-04-18T09:40:48.118Z</time></trkpt><trkpt lat="37.8727033" lon="15.0360067"><ele>653.5</ele><time>2026-04-18T09:40:49.118Z</time></trkpt><trkpt lat="37.8725767" lon="15.0360533"><ele>652.75</ele><time>2026-04-18T09:40:50.117Z</time></trkpt><trkpt lat="37.8724617" lon="15.03612"><ele>652.0</ele><time>2026-04-18T09:40:51.118Z</time></trkpt><trkpt lat="37.8723383" lon="15.0362067"><ele>653.25</ele><time>2026-04-18T09:40:52.118Z</time></trkpt><trkpt lat="37.87223" lon="15.036325"><ele>654.5</ele><time>2026-04-18T09:40:53.118Z</time></trkpt><trkpt lat="37.8721167" lon="15.0364483"><ele>655.75</ele><time>2026-04-18T09:40:54.118Z</time></trkpt><trkpt lat="37.8720083" lon="15.0365767"><ele>657.0</ele><time>2026-04-18T09:40:55.118Z</time></trkpt><trkpt lat="37.871905" lon="15.0366917"><ele>657.0</ele><time>2026-04-18T09:40:56.118Z</time></trkpt><trkpt lat="37.8717917" lon="15.0367883"><ele>657.0</ele><time>2026-04-18T09:40:57.118Z</time></trkpt><trkpt lat="37.8716567" lon="15.0368567"><ele>657.0</ele><time>2026-04-18T09:40:58.117Z</time></trkpt><trkpt lat="37.8715117" lon="15.0368933"><ele>657.0</ele><time>2026-04-18T09:40:59.118Z</time></trkpt><trkpt lat="37.8713567" lon="15.03692"><ele>657.25</ele><time>2026-04-18T09:41:00.118Z</time></trkpt><trkpt lat="37.8712117" lon="15.0369383"><ele>657.5</ele><time>2026-04-18T09:41:01.118Z</time></trkpt><trkpt lat="37.87108" lon="15.0369517"><ele>657.75</ele><time>2026-04-18T09:41:02.118Z</time></trkpt><trkpt lat="37.8709533" lon="15.0369917"><ele>658.0</ele><time>2026-04-18T09:41:03.118Z</time></trkpt><trkpt lat="37.8708333" lon="15.037075"><ele>658.0</ele><time>2026-04-18T09:41:04.118Z</time></trkpt><trkpt lat="37.8707167" lon="15.037195"><ele>658.0</ele><time>2026-04-18T09:41:05.118Z</time></trkpt><trkpt lat="37.8705917" lon="15.0373233"><ele>658.0</ele><time>2026-04-18T09:41:06.118Z</time></trkpt><trkpt lat="37.8704717" lon="15.037455"><ele>658.3333333333334</ele><time>2026-04-18T09:41:07.118Z</time></trkpt><trkpt lat="37.8703433" lon="15.037595"><ele>658.6666666666666</ele><time>2026-04-18T09:41:08.118Z</time></trkpt><trkpt lat="37.8702133" lon="15.0377333"><ele>659.0</ele><time>2026-04-18T09:41:09.118Z</time></trkpt><trkpt lat="37.8700833" lon="15.037865"><ele>660.3333333333333</ele><time>2026-04-18T09:41:10.118Z</time></trkpt><trkpt lat="37.8699567" lon="15.0380067"><ele>661.6666666666666</ele><time>2026-04-18T09:41:11.118Z</time></trkpt><trkpt lat="37.8698367" lon="15.0381367"><ele>663.0</ele><time>2026-04-18T09:41:12.118Z</time></trkpt><trkpt lat="37.86971" lon="15.038265"><ele>663.0</ele><time>2026-04-18T09:41:13.118Z</time></trkpt><trkpt lat="37.8696" lon="15.0384033"><ele>663.0</ele><time>2026-04-18T09:41:14.118Z</time></trkpt><trkpt lat="37.8695033" lon="15.0385517"><ele>663.0</ele><time>2026-04-18T09:41:15.118Z</time></trkpt><trkpt lat="37.8694267" lon="15.03872"><ele>663.0</ele><time>2026-04-18T09:41:16.118Z</time></trkpt><trkpt lat="37.86936" lon="15.0389133"><ele>663.0</ele><time>2026-04-18T09:41:17.118Z</time></trkpt><trkpt lat="37.8693167" lon="15.0391233"><ele>663.0</ele><time>2026-04-18T09:41:18.118Z</time></trkpt><trkpt lat="37.8692733" lon="15.039335"><ele>665.3333333333334</ele><time>2026-04-18T09:41:19.118Z</time></trkpt><trkpt lat="37.86923" lon="15.03955"><ele>667.6666666666667</ele><time>2026-04-18T09:41:20.118Z</time></trkpt><trkpt lat="37.8691833" lon="15.0397617"><ele>670.0</ele><time>2026-04-18T09:41:21.118Z</time></trkpt><trkpt lat="37.8691583" lon="15.039965"><ele>671.3333333333334</ele><time>2026-04-18T09:41:22.118Z</time></trkpt><trkpt lat="37.86917" lon="15.0401783"><ele>672.6666666666666</ele><time>2026-04-18T09:41:23.118Z</time></trkpt><trkpt lat="37.86921" lon="15.0403867"><ele>674.0</ele><time>2026-04-18T09:41:24.118Z</time></trkpt><trkpt lat="37.8692617" lon="15.0405817"><ele>674.75</ele><time>2026-04-18T09:41:25.118Z</time></trkpt><trkpt lat="37.8692917" lon="15.0407683"><ele>675.5</ele><time>2026-04-18T09:41:26.118Z</time></trkpt><trkpt lat="37.86929" lon="15.0409483"><ele>676.25</ele><time>2026-04-18T09:41:27.118Z</time></trkpt><trkpt lat="37.86927" lon="15.041125"><ele>677.0</ele><time>2026-04-18T09:41:28.118Z</time></trkpt><trkpt lat="37.869245" lon="15.0412883"><ele>677.0</ele><time>2026-04-18T09:41:29.118Z</time></trkpt><trkpt lat="37.869245" lon="15.0414483"><ele>677.0</ele><time>2026-04-18T09:41:30.117Z</time></trkpt><trkpt lat="37.8692933" lon="15.041605"><ele>677.0</ele><time>2026-04-18T09:41:31.118Z</time></trkpt><trkpt lat="37.8693367" lon="15.04176"><ele>677.0</ele><time>2026-04-18T09:41:32.118Z</time></trkpt><trkpt lat="37.869335" lon="15.0419267"><ele>676.6666666666666</ele><time>2026-04-18T09:41:33.118Z</time></trkpt><trkpt lat="37.86929" lon="15.0421083"><ele>676.3333333333334</ele><time>2026-04-18T09:41:34.118Z</time></trkpt><trkpt lat="37.8692167" lon="15.042325"><ele>676.0</ele><time>2026-04-18T09:41:35.118Z</time></trkpt><trkpt lat="37.869135" lon="15.0425783"><ele>676.0</ele><time>2026-04-18T09:41:36.117Z</time></trkpt><trkpt lat="37.8690367" lon="15.0428633"><ele>676.0</ele><time>2026-04-18T09:41:37.118Z</time></trkpt><trkpt lat="37.868925" lon="15.0431533"><ele>677.0</ele><time>2026-04-18T09:41:38.117Z</time></trkpt><trkpt lat="37.8687967" lon="15.0434667"><ele>678.0</ele><time>2026-04-18T09:41:39.118Z</time></trkpt><trkpt lat="37.86866" lon="15.04381"><ele>678.0</ele><time>2026-04-18T09:41:40.118Z</time></trkpt><trkpt lat="37.8685217" lon="15.044165"><ele>678.0</ele><time>2026-04-18T09:41:41.118Z</time></trkpt><trkpt lat="37.8683817" lon="15.0445183"><ele>679.5</ele><time>2026-04-18T09:41:42.118Z</time></trkpt><trkpt lat="37.8682467" lon="15.044845"><ele>681.0</ele><time>2026-04-18T09:41:43.118Z</time></trkpt><trkpt lat="37.8681217" lon="15.0451617"><ele>682.0</ele><time>2026-04-18T09:41:44.118Z</time></trkpt><trkpt lat="37.8679967" lon="15.04546"><ele>683.0</ele><time>2026-04-18T09:41:45.118Z</time></trkpt><trkpt lat="37.8678767" lon="15.0457633"><ele>684.5</ele><time>2026-04-18T09:41:46.118Z</time></trkpt><trkpt lat="37.867755" lon="15.046065"><ele>686.0</ele><time>2026-04-18T09:41:47.118Z</time></trkpt><trkpt lat="37.867635" lon="15.0463617"><ele>690.5</ele><time>2026-04-18T09:41:48.118Z</time></trkpt><trkpt lat="37.8675283" lon="15.04664"><ele>695.0</ele><time>2026-04-18T09:41:49.118Z</time></trkpt><trkpt lat="37.867425" lon="15.0468933"><ele>695.0</ele><time>2026-04-18T09:41:50.118Z</time></trkpt><trkpt lat="37.8673233" lon="15.0471317"><ele>695.0</ele><time>2026-04-18T09:41:51.118Z</time></trkpt><trkpt lat="37.8672417" lon="15.0473617"><ele>695.0</ele><time>2026-04-18T09:41:52.118Z</time></trkpt><trkpt lat="37.8671817" lon="15.04761"><ele>696.0</ele><time>2026-04-18T09:41:53.118Z</time></trkpt><trkpt lat="37.8671417" lon="15.0478733"><ele>697.0</ele><time>2026-04-18T09:41:54.118Z</time></trkpt><trkpt lat="37.86712" lon="15.0481217"><ele>698.0</ele><time>2026-04-18T09:41:55.118Z</time></trkpt><trkpt lat="37.8671133" lon="15.048345"><ele>699.3333333333333</ele><time>2026-04-18T09:41:56.118Z</time></trkpt><trkpt lat="37.8671067" lon="15.048555"><ele>700.6666666666666</ele><time>2026-04-18T09:41:57.118Z</time></trkpt><trkpt lat="37.8670767" lon="15.0487617"><ele>702.0</ele><time>2026-04-18T09:41:58.118Z</time></trkpt><trkpt lat="37.8670167" lon="15.0489733"><ele>703.6666666666666</ele><time>2026-04-18T09:41:59.118Z</time></trkpt><trkpt lat="37.866935" lon="15.0491917"><ele>705.3333333333333</ele><time>2026-04-18T09:42:00.118Z</time></trkpt><trkpt lat="37.8668617" lon="15.0493983"><ele>707.0</ele><time>2026-04-18T09:42:01.118Z</time></trkpt><trkpt lat="37.8667817" lon="15.0495867"><ele>709.0</ele><time>2026-04-18T09:42:02.118Z</time></trkpt><trkpt lat="37.8666967" lon="15.04977"><ele>711.0</ele><time>2026-04-18T09:42:03.118Z</time></trkpt><trkpt lat="37.8665783" lon="15.0499367"><ele>713.0</ele><time>2026-04-18T09:42:04.118Z</time></trkpt><trkpt lat="37.8664233" lon="15.0500833"><ele>713.3333333333333</ele><time>2026-04-18T09:42:05.118Z</time></trkpt><trkpt lat="37.8662567" lon="15.05022"><ele>713.6666666666666</ele><time>2026-04-18T09:42:06.118Z</time></trkpt><trkpt lat="37.866075" lon="15.0503767"><ele>714.0</ele><time>2026-04-18T09:42:07.118Z</time></trkpt><trkpt lat="37.8658933" lon="15.050555"><ele>715.3333333333334</ele><time>2026-04-18T09:42:08.118Z</time></trkpt><trkpt lat="37.8657483" lon="15.05074"><ele>716.6666666666667</ele><time>2026-04-18T09:42:09.117Z</time></trkpt><trkpt lat="37.8656183" lon="15.0509133"><ele>718.0</ele><time>2026-04-18T09:42:10.118Z</time></trkpt><trkpt lat="37.8654667" lon="15.0510817"><ele>719.5</ele><time>2026-04-18T09:42:11.118Z</time></trkpt><trkpt lat="37.865295" lon="15.051255"><ele>721.0</ele><time>2026-04-18T09:42:12.118Z</time></trkpt><trkpt lat="37.865105" lon="15.0514233"><ele>723.5</ele><time>2026-04-18T09:42:13.118Z</time></trkpt><trkpt lat="37.8648983" lon="15.0515983"><ele>726.0</ele><time>2026-04-18T09:42:14.118Z</time></trkpt><trkpt lat="37.8646783" lon="15.05178"><ele>726.5</ele><time>2026-04-18T09:42:15.118Z</time></trkpt><trkpt lat="37.8644383" lon="15.0519867"><ele>727.0</ele><time>2026-04-18T09:42:16.118Z</time></trkpt><trkpt lat="37.8641917" lon="15.0521917"><ele>728.0</ele><time>2026-04-18T09:42:17.118Z</time></trkpt><trkpt lat="37.8639533" lon="15.0523883"><ele>729.0</ele><time>2026-04-18T09:42:18.118Z</time></trkpt><trkpt lat="37.86374" lon="15.052585"><ele>730.3333333333334</ele><time>2026-04-18T09:42:19.118Z</time></trkpt><trkpt lat="37.863545" lon="15.0527583"><ele>731.6666666666667</ele><time>2026-04-18T09:42:20.118Z</time></trkpt><trkpt lat="37.8633883" lon="15.05292"><ele>733.0</ele><time>2026-04-18T09:42:21.117Z</time></trkpt><trkpt lat="37.8632467" lon="15.0530617"><ele>734.0</ele><time>2026-04-18T09:42:22.118Z</time></trkpt><trkpt lat="37.863135" lon="15.0532"><ele>735.0</ele><time>2026-04-18T09:42:23.118Z</time></trkpt><trkpt lat="37.8630583" lon="15.0533583"><ele>736.0</ele><time>2026-04-18T09:42:24.118Z</time></trkpt><trkpt lat="37.8630117" lon="15.0535367"><ele>736.25</ele><time>2026-04-18T09:42:25.118Z</time></trkpt><trkpt lat="37.8629617" lon="15.05371"><ele>736.5</ele><time>2026-04-18T09:42:26.118Z</time></trkpt><trkpt lat="37.8628683" lon="15.0538417"><ele>736.75</ele><time>2026-04-18T09:42:27.118Z</time></trkpt><trkpt lat="37.862745" lon="15.0539383"><ele>737.0</ele><time>2026-04-18T09:42:28.118Z</time></trkpt><trkpt lat="37.8625967" lon="15.0540017"><ele>737.5</ele><time>2026-04-18T09:42:29.118Z</time></trkpt><trkpt lat="37.8624517" lon="15.0540067"><ele>738.0</ele><time>2026-04-18T09:42:30.117Z</time></trkpt><trkpt lat="37.8623267" lon="15.054015"><ele>738.5</ele><time>2026-04-18T09:42:31.118Z</time></trkpt><trkpt lat="37.8622067" lon="15.0540617"><ele>739.0</ele><time>2026-04-18T09:42:32.117Z</time></trkpt><trkpt lat="37.8621117" lon="15.0541617"><ele>740.25</ele><time>2026-04-18T09:42:33.118Z</time></trkpt><trkpt lat="37.8620383" lon="15.05431"><ele>741.5</ele><time>2026-04-18T09:42:34.118Z</time></trkpt><trkpt lat="37.8620017" lon="15.0544767"><ele>742.75</ele><time>2026-04-18T09:42:35.118Z</time></trkpt><trkpt lat="37.8620033" lon="15.05463"><ele>744.0</ele><time>2026-04-18T09:42:36.118Z</time></trkpt><trkpt lat="37.8620533" lon="15.0547717"><ele>744.0</ele><time>2026-04-18T09:42:37.117Z</time></trkpt><trkpt lat="37.8621333" lon="15.054915"><ele>744.0</ele><time>2026-04-18T09:42:38.118Z</time></trkpt><trkpt lat="37.8622" lon="15.05508"><ele>744.0</ele><time>2026-04-18T09:42:39.118Z</time></trkpt><trkpt lat="37.8622433" lon="15.0552783"><ele>744.0</ele><time>2026-04-18T09:42:40.118Z</time></trkpt><trkpt lat="37.8622817" lon="15.0555017"><ele>745.3333333333334</ele><time>2026-04-18T09:42:41.117Z</time></trkpt><trkpt lat="37.862325" lon="15.0557683"><ele>746.6666666666667</ele><time>2026-04-18T09:42:42.118Z</time></trkpt><trkpt lat="37.862385" lon="15.0560367"><ele>748.0</ele><time>2026-04-18T09:42:43.118Z</time></trkpt><trkpt lat="37.8624583" lon="15.0563133"><ele>748.0</ele><time>2026-04-18T09:42:44.118Z</time></trkpt><trkpt lat="37.8625383" lon="15.0565767"><ele>748.0</ele><time>2026-04-18T09:42:45.118Z</time></trkpt><trkpt lat="37.862615" lon="15.05682"><ele>748.0</ele><time>2026-04-18T09:42:46.118Z</time></trkpt><trkpt lat="37.8626783" lon="15.0570633"><ele>746.6666666666667</ele><time>2026-04-18T09:42:47.118Z</time></trkpt><trkpt lat="37.8627333" lon="15.0572933"><ele>745.3333333333334</ele><time>2026-04-18T09:42:48.118Z</time></trkpt><trkpt lat="37.8627867" lon="15.0575267"><ele>744.0</ele><time>2026-04-18T09:42:49.118Z</time></trkpt><trkpt lat="37.8628383" lon="15.057755"><ele>744.0</ele><time>2026-04-18T09:42:50.118Z</time></trkpt><trkpt lat="37.8629033" lon="15.0579833"><ele>744.0</ele><time>2026-04-18T09:42:51.118Z</time></trkpt><trkpt lat="37.8629783" lon="15.0582067"><ele>744.0</ele><time>2026-04-18T09:42:52.118Z</time></trkpt><trkpt lat="37.8630533" lon="15.0584117"><ele>744.0</ele><time>2026-04-18T09:42:53.118Z</time></trkpt><trkpt lat="37.8631333" lon="15.0586017"><ele>744.0</ele><time>2026-04-18T09:42:54.118Z</time></trkpt><trkpt lat="37.863235" lon="15.0587667"><ele>744.0</ele><time>2026-04-18T09:42:55.118Z</time></trkpt><trkpt lat="37.86337" lon="15.0589233"><ele>742.6666666666666</ele><time>2026-04-18T09:42:56.118Z</time></trkpt><trkpt lat="37.8635117" lon="15.0590817"><ele>741.3333333333333</ele><time>2026-04-18T09:42:57.118Z</time></trkpt><trkpt lat="37.8636467" lon="15.0592433"><ele>740.0</ele><time>2026-04-18T09:42:58.117Z</time></trkpt><trkpt lat="37.8637617" lon="15.0594033"><ele>740.0</ele><time>2026-04-18T09:42:59.118Z</time></trkpt><trkpt lat="37.8638517" lon="15.0595583"><ele>740.0</ele><time>2026-04-18T09:43:00.118Z</time></trkpt><trkpt lat="37.86392" lon="15.0596967"><ele>740.0</ele><time>2026-04-18T09:43:01.117Z</time></trkpt><trkpt lat="37.863955" lon="15.0598467"><ele>740.0</ele><time>2026-04-18T09:43:02.118Z</time></trkpt><trkpt lat="37.8639583" lon="15.060025"><ele>740.6666666666666</ele><time>2026-04-18T09:43:03.118Z</time></trkpt><trkpt lat="37.8639467" lon="15.0602317"><ele>741.3333333333334</ele><time>2026-04-18T09:43:04.118Z</time></trkpt><trkpt lat="37.8639567" lon="15.0604333"><ele>742.0</ele><time>2026-04-18T09:43:05.118Z</time></trkpt><trkpt lat="37.8639933" lon="15.0606283"><ele>741.6666666666667</ele><time>2026-04-18T09:43:06.118Z</time></trkpt><trkpt lat="37.8640583" lon="15.060815"><ele>741.3333333333334</ele><time>2026-04-18T09:43:07.118Z</time></trkpt><trkpt lat="37.86415" lon="15.0609833"><ele>741.0</ele><time>2026-04-18T09:43:08.117Z</time></trkpt><trkpt lat="37.8642533" lon="15.06112"><ele>739.3333333333334</ele><time>2026-04-18T09:43:09.118Z</time></trkpt><trkpt lat="37.86435" lon="15.0612867"><ele>737.6666666666667</ele><time>2026-04-18T09:43:10.118Z</time></trkpt><trkpt lat="37.8644183" lon="15.0614883"><ele>736.0</ele><time>2026-04-18T09:43:11.118Z</time></trkpt><trkpt lat="37.8644383" lon="15.0617067"><ele>736.0</ele><time>2026-04-18T09:43:12.118Z</time></trkpt><trkpt lat="37.8644933" lon="15.0619667"><ele>736.0</ele><time>2026-04-18T09:43:13.118Z</time></trkpt><trkpt lat="37.8645517" lon="15.062225"><ele>736.0</ele><time>2026-04-18T09:43:14.117Z</time></trkpt><trkpt lat="37.86461" lon="15.0624783"><ele>738.3333333333334</ele><time>2026-04-18T09:43:15.117Z</time></trkpt><trkpt lat="37.8646567" lon="15.062705"><ele>740.6666666666666</ele><time>2026-04-18T09:43:16.118Z</time></trkpt><trkpt lat="37.8646933" lon="15.0629283"><ele>743.0</ele><time>2026-04-18T09:43:17.118Z</time></trkpt><trkpt lat="37.8646917" lon="15.063125"><ele>743.6666666666666</ele><time>2026-04-18T09:43:18.118Z</time></trkpt><trkpt lat="37.8646517" lon="15.0633233"><ele>744.3333333333334</ele><time>2026-04-18T09:43:19.118Z</time></trkpt><trkpt lat="37.8645883" lon="15.06354"><ele>745.0</ele><time>2026-04-18T09:43:20.118Z</time></trkpt><trkpt lat="37.8645233" lon="15.0637583"><ele>745.0</ele><time>2026-04-18T09:43:21.118Z</time></trkpt><trkpt lat="37.8644617" lon="15.0639667"><ele>745.0</ele><time>2026-04-18T09:43:22.118Z</time></trkpt><trkpt lat="37.8644117" lon="15.06418"><ele>745.0</ele><time>2026-04-18T09:43:23.117Z</time></trkpt><trkpt lat="37.8643867" lon="15.064415"><ele>745.0</ele><time>2026-04-18T09:43:24.117Z</time></trkpt><trkpt lat="37.8643833" lon="15.0646617"><ele>745.0</ele><time>2026-04-18T09:43:25.117Z</time></trkpt><trkpt lat="37.8643933" lon="15.064895"><ele>745.0</ele><time>2026-04-18T09:43:26.118Z</time></trkpt><trkpt lat="37.8643967" lon="15.0651317"><ele>744.3333333333334</ele><time>2026-04-18T09:43:27.118Z</time></trkpt><trkpt lat="37.8644017" lon="15.0653733"><ele>743.6666666666666</ele><time>2026-04-18T09:43:28.118Z</time></trkpt><trkpt lat="37.8644133" lon="15.0655967"><ele>743.0</ele><time>2026-04-18T09:43:29.118Z</time></trkpt><trkpt lat="37.864415" lon="15.0658317"><ele>741.3333333333333</ele><time>2026-04-18T09:43:30.118Z</time></trkpt><trkpt lat="37.864425" lon="15.06606"><ele>739.6666666666666</ele><time>2026-04-18T09:43:31.118Z</time></trkpt><trkpt lat="37.8644433" lon="15.0663"><ele>738.0</ele><time>2026-04-18T09:43:32.118Z</time></trkpt><trkpt lat="37.864465" lon="15.0665233"><ele>736.3333333333334</ele><time>2026-04-18T09:43:33.118Z</time></trkpt><trkpt lat="37.8644833" lon="15.0667383"><ele>734.6666666666667</ele><time>2026-04-18T09:43:34.118Z</time></trkpt><trkpt lat="37.8645083" lon="15.0669383"><ele>733.0</ele><time>2026-04-18T09:43:35.118Z</time></trkpt><trkpt lat="37.864515" lon="15.06713"><ele>733.0</ele><time>2026-04-18T09:43:36.118Z</time></trkpt><trkpt lat="37.8644983" lon="15.0673067"><ele>733.0</ele><time>2026-04-18T09:43:37.117Z</time></trkpt><trkpt lat="37.8644533" lon="15.06749"><ele>733.0</ele><time>2026-04-18T09:43:38.118Z</time></trkpt><trkpt lat="37.8644033" lon="15.0676783"><ele>733.0</ele><time>2026-04-18T09:43:39.117Z</time></trkpt><trkpt lat="37.8643717" lon="15.06788"><ele>732.3333333333334</ele><time>2026-04-18T09:43:40.117Z</time></trkpt><trkpt lat="37.864355" lon="15.0680917"><ele>731.6666666666666</ele><time>2026-04-18T09:43:41.118Z</time></trkpt><trkpt lat="37.864355" lon="15.0683033"><ele>731.0</ele><time>2026-04-18T09:43:42.118Z</time></trkpt><trkpt lat="37.8643567" lon="15.06851"><ele>728.6666666666666</ele><time>2026-04-18T09:43:43.118Z</time></trkpt><trkpt lat="37.8643567" lon="15.068705"><ele>726.3333333333334</ele><time>2026-04-18T09:43:44.118Z</time></trkpt><trkpt lat="37.864355" lon="15.068905"><ele>724.0</ele><time>2026-04-18T09:43:45.117Z</time></trkpt><trkpt lat="37.8643517" lon="15.0690983"><ele>723.3333333333334</ele><time>2026-04-18T09:43:46.118Z</time></trkpt><trkpt lat="37.8643717" lon="15.0692817"><ele>722.6666666666666</ele><time>2026-04-18T09:43:47.118Z</time></trkpt><trkpt lat="37.864425" lon="15.0694717"><ele>722.0</ele><time>2026-04-18T09:43:48.118Z</time></trkpt><trkpt lat="37.8644983" lon="15.0696483"><ele>722.0</ele><time>2026-04-18T09:43:49.118Z</time></trkpt><trkpt lat="37.864585" lon="15.0698133"><ele>722.0</ele><time>2026-04-18T09:43:50.118Z</time></trkpt><trkpt lat="37.8646633" lon="15.0699733"><ele>722.0</ele><time>2026-04-18T09:43:51.118Z</time></trkpt><trkpt lat="37.8647283" lon="15.0701333"><ele>722.0</ele><time>2026-04-18T09:43:52.118Z</time></trkpt><trkpt lat="37.86477" lon="15.0702933"><ele>720.25</ele><time>2026-04-18T09:43:53.118Z</time></trkpt><trkpt lat="37.86479" lon="15.0704533"><ele>718.5</ele><time>2026-04-18T09:43:54.117Z</time></trkpt><trkpt lat="37.864805" lon="15.07061"><ele>716.75</ele><time>2026-04-18T09:43:55.118Z</time></trkpt><trkpt lat="37.8648133" lon="15.07075"><ele>715.0</ele><time>2026-04-18T09:43:56.118Z</time></trkpt><trkpt lat="37.864835" lon="15.0708933"><ele>714.6666666666667</ele><time>2026-04-18T09:43:57.117Z</time></trkpt><trkpt lat="37.8648533" lon="15.0710233"><ele>714.3333333333334</ele><time>2026-04-18T09:43:58.118Z</time></trkpt><trkpt lat="37.8648667" lon="15.0711333"><ele>714.0</ele><time>2026-04-18T09:43:59.118Z</time></trkpt><trkpt lat="37.86488" lon="15.0712317"><ele>713.6666666666666</ele><time>2026-04-18T09:44:00.118Z</time></trkpt><trkpt lat="37.8648933" lon="15.0713167"><ele>713.3333333333333</ele><time>2026-04-18T09:44:01.118Z</time></trkpt><trkpt lat="37.8648983" lon="15.0714017"><ele>713.0</ele><time>2026-04-18T09:44:02.118Z</time></trkpt><trkpt lat="37.8649033" lon="15.0714883"><ele>713.0</ele><time>2026-04-18T09:44:03.118Z</time></trkpt><trkpt lat="37.8649117" lon="15.0715783"><ele>713.0</ele><time>2026-04-18T09:44:04.118Z</time></trkpt><trkpt lat="37.8649183" lon="15.07167"><ele>713.0</ele><time>2026-04-18T09:44:05.118Z</time></trkpt><trkpt lat="37.8649233" lon="15.071765"><ele>713.0</ele><time>2026-04-18T09:44:06.118Z</time></trkpt><trkpt lat="37.8649317" lon="15.07186"><ele>713.0</ele><time>2026-04-18T09:44:07.118Z</time></trkpt><trkpt lat="37.8649417" lon="15.0719567"><ele>713.0</ele><time>2026-04-18T09:44:08.118Z</time></trkpt><trkpt lat="37.8649517" lon="15.0720583"><ele>713.3333333333333</ele><time>2026-04-18T09:44:09.118Z</time></trkpt><trkpt lat="37.8649617" lon="15.0721667"><ele>713.6666666666666</ele><time>2026-04-18T09:44:10.118Z</time></trkpt><trkpt lat="37.8649633" lon="15.0722783"><ele>714.0</ele><time>2026-04-18T09:44:11.118Z</time></trkpt><trkpt lat="37.8649683" lon="15.0723917"><ele>714.3333333333334</ele><time>2026-04-18T09:44:12.118Z</time></trkpt><trkpt lat="37.86498" lon="15.0724933"><ele>714.6666666666667</ele><time>2026-04-18T09:44:13.118Z</time></trkpt><trkpt lat="37.86498" lon="15.07258"><ele>715.0</ele><time>2026-04-18T09:44:14.118Z</time></trkpt><trkpt lat="37.8649817" lon="15.072665"><ele>715.4</ele><time>2026-04-18T09:44:15.118Z</time></trkpt><trkpt lat="37.864965" lon="15.07283"><ele>715.8</ele><time>2026-04-18T09:44:17.118Z</time></trkpt><trkpt lat="37.86495" lon="15.0729233"><ele>716.2</ele><time>2026-04-18T09:44:18.118Z</time></trkpt><trkpt lat="37.8649317" lon="15.0730167"><ele>716.6</ele><time>2026-04-18T09:44:19.118Z</time></trkpt><trkpt lat="37.8649067" lon="15.073115"><ele>717.0</ele><time>2026-04-18T09:44:20.118Z</time></trkpt><trkpt lat="37.8648617" lon="15.0732083"><ele>716.3333333333334</ele><time>2026-04-18T09:44:21.118Z</time></trkpt><trkpt lat="37.8648133" lon="15.073305"><ele>715.6666666666666</ele><time>2026-04-18T09:44:22.118Z</time></trkpt><trkpt lat="37.8647717" lon="15.0733983"><ele>715.0</ele><time>2026-04-18T09:44:23.118Z</time></trkpt><trkpt lat="37.8647333" lon="15.0734917"><ele>714.3333333333333</ele><time>2026-04-18T09:44:24.118Z</time></trkpt><trkpt lat="37.86469" lon="15.0735917"><ele>713.6666666666666</ele><time>2026-04-18T09:44:25.118Z</time></trkpt><trkpt lat="37.86464" lon="15.0736917"><ele>713.0</ele><time>2026-04-18T09:44:26.118Z</time></trkpt><trkpt lat="37.8645883" lon="15.0737867"><ele>713.0</ele><time>2026-04-18T09:44:27.118Z</time></trkpt><trkpt lat="37.864545" lon="15.07388"><ele>713.0</ele><time>2026-04-18T09:44:28.118Z</time></trkpt><trkpt lat="37.864505" lon="15.0739667"><ele>713.0</ele><time>2026-04-18T09:44:29.118Z</time></trkpt><trkpt lat="37.86447" lon="15.074045"><ele>713.0</ele><time>2026-04-18T09:44:30.118Z</time></trkpt><trkpt lat="37.8644167" lon="15.0741167"><ele>713.0</ele><time>2026-04-18T09:44:31.118Z</time></trkpt><trkpt lat="37.86436" lon="15.0741933"><ele>713.0</ele><time>2026-04-18T09:44:32.118Z</time></trkpt><trkpt lat="37.8643033" lon="15.074265"><ele>712.2</ele><time>2026-04-18T09:44:33.118Z</time></trkpt><trkpt lat="37.86424" lon="15.074345"><ele>711.4</ele><time>2026-04-18T09:44:34.118Z</time></trkpt><trkpt lat="37.8641683" lon="15.0744217"><ele>710.6</ele><time>2026-04-18T09:44:35.118Z</time></trkpt><trkpt lat="37.8640917" lon="15.0744883"><ele>709.8000000000001</ele><time>2026-04-18T09:44:36.117Z</time></trkpt><trkpt lat="37.8640067" lon="15.07458"><ele>709.0</ele><time>2026-04-18T09:44:37.118Z</time></trkpt><trkpt lat="37.863895" lon="15.0746917"><ele>709.0</ele><time>2026-04-18T09:44:38.118Z</time></trkpt><trkpt lat="37.863775" lon="15.0748017"><ele>709.0</ele><time>2026-04-18T09:44:39.117Z</time></trkpt><trkpt lat="37.8636567" lon="15.0749067"><ele>709.0</ele><time>2026-04-18T09:44:40.118Z</time></trkpt><trkpt lat="37.863545" lon="15.075"><ele>709.0</ele><time>2026-04-18T09:44:41.118Z</time></trkpt><trkpt lat="37.86343" lon="15.0750733"><ele>707.5</ele><time>2026-04-18T09:44:42.118Z</time></trkpt><trkpt lat="37.86331" lon="15.075125"><ele>706.0</ele><time>2026-04-18T09:44:43.118Z</time></trkpt><trkpt lat="37.863175" lon="15.07515"><ele>704.5</ele><time>2026-04-18T09:44:44.118Z</time></trkpt><trkpt lat="37.8630367" lon="15.0751583"><ele>703.0</ele><time>2026-04-18T09:44:45.118Z</time></trkpt><trkpt lat="37.8629067" lon="15.075175"><ele>703.0</ele><time>2026-04-18T09:44:46.118Z</time></trkpt><trkpt lat="37.8627833" lon="15.0752233"><ele>703.0</ele><time>2026-04-18T09:44:47.118Z</time></trkpt><trkpt lat="37.8626767" lon="15.0753267"><ele>703.0</ele><time>2026-04-18T09:44:48.118Z</time></trkpt><trkpt lat="37.86258" lon="15.075465"><ele>703.0</ele><time>2026-04-18T09:44:49.118Z</time></trkpt><trkpt lat="37.8624783" lon="15.0756117"><ele>701.0</ele><time>2026-04-18T09:44:50.118Z</time></trkpt><trkpt lat="37.8623883" lon="15.0757783"><ele>699.0</ele><time>2026-04-18T09:44:51.118Z</time></trkpt><trkpt lat="37.8623133" lon="15.07596"><ele>697.0</ele><time>2026-04-18T09:44:52.118Z</time></trkpt><trkpt lat="37.8622483" lon="15.0761733"><ele>697.0</ele><time>2026-04-18T09:44:53.118Z</time></trkpt><trkpt lat="37.8621867" lon="15.0764067"><ele>697.0</ele><time>2026-04-18T09:44:54.118Z</time></trkpt><trkpt lat="37.8621267" lon="15.0766367"><ele>697.0</ele><time>2026-04-18T09:44:55.118Z</time></trkpt><trkpt lat="37.862055" lon="15.0768533"><ele>696.0</ele><time>2026-04-18T09:44:56.118Z</time></trkpt><trkpt lat="37.8619517" lon="15.07708"><ele>695.0</ele><time>2026-04-18T09:44:57.118Z</time></trkpt><trkpt lat="37.8618533" lon="15.0773117"><ele>694.0</ele><time>2026-04-18T09:44:58.118Z</time></trkpt><trkpt lat="37.8617517" lon="15.0775867"><ele>693.5</ele><time>2026-04-18T09:44:59.117Z</time></trkpt><trkpt lat="37.86165" lon="15.07789"><ele>693.0</ele><time>2026-04-18T09:45:00.118Z</time></trkpt><trkpt lat="37.8615517" lon="15.0781683"><ele>688.5</ele><time>2026-04-18T09:45:01.118Z</time></trkpt><trkpt lat="37.8614583" lon="15.078435"><ele>684.0</ele><time>2026-04-18T09:45:02.118Z</time></trkpt><trkpt lat="37.86137" lon="15.0786933"><ele>684.0</ele><time>2026-04-18T09:45:03.118Z</time></trkpt><trkpt lat="37.8612667" lon="15.0789517"><ele>684.0</ele><time>2026-04-18T09:45:04.118Z</time></trkpt><trkpt lat="37.8611467" lon="15.0792133"><ele>683.0</ele><time>2026-04-18T09:45:05.118Z</time></trkpt><trkpt lat="37.8610133" lon="15.0794617"><ele>682.0</ele><time>2026-04-18T09:45:06.118Z</time></trkpt><trkpt lat="37.8608967" lon="15.079695"><ele>682.0</ele><time>2026-04-18T09:45:07.118Z</time></trkpt><trkpt lat="37.8607883" lon="15.0799133"><ele>682.0</ele><time>2026-04-18T09:45:08.117Z</time></trkpt><trkpt lat="37.860695" lon="15.0801083"><ele>682.0</ele><time>2026-04-18T09:45:09.118Z</time></trkpt><trkpt lat="37.8606083" lon="15.0802867"><ele>681.6666666666667</ele><time>2026-04-18T09:45:10.118Z</time></trkpt><trkpt lat="37.8605067" lon="15.0804367"><ele>681.3333333333334</ele><time>2026-04-18T09:45:11.118Z</time></trkpt><trkpt lat="37.8603833" lon="15.0805633"><ele>681.0</ele><time>2026-04-18T09:45:12.118Z</time></trkpt><trkpt lat="37.860245" lon="15.0806567"><ele>681.3333333333334</ele><time>2026-04-18T09:45:13.118Z</time></trkpt><trkpt lat="37.8600833" lon="15.0807083"><ele>681.6666666666667</ele><time>2026-04-18T09:45:14.118Z</time></trkpt><trkpt lat="37.85991" lon="15.0807483"><ele>682.0</ele><time>2026-04-18T09:45:15.118Z</time></trkpt><trkpt lat="37.8597467" lon="15.0808067"><ele>682.0</ele><time>2026-04-18T09:45:16.118Z</time></trkpt><trkpt lat="37.8596083" lon="15.080885"><ele>682.0</ele><time>2026-04-18T09:45:17.118Z</time></trkpt><trkpt lat="37.8595033" lon="15.0810033"><ele>682.0</ele><time>2026-04-18T09:45:18.118Z</time></trkpt><trkpt lat="37.8594417" lon="15.081165"><ele>682.0</ele><time>2026-04-18T09:45:19.117Z</time></trkpt><trkpt lat="37.8594" lon="15.081365"><ele>681.6666666666667</ele><time>2026-04-18T09:45:20.118Z</time></trkpt><trkpt lat="37.8593717" lon="15.081605"><ele>681.3333333333334</ele><time>2026-04-18T09:45:21.118Z</time></trkpt><trkpt lat="37.8593383" lon="15.08185"><ele>681.0</ele><time>2026-04-18T09:45:22.118Z</time></trkpt><trkpt lat="37.8592867" lon="15.0821283"><ele>684.0</ele><time>2026-04-18T09:45:23.117Z</time></trkpt><trkpt lat="37.8592283" lon="15.0824267"><ele>687.0</ele><time>2026-04-18T09:45:24.118Z</time></trkpt><trkpt lat="37.85917" lon="15.0827567"><ele>689.0</ele><time>2026-04-18T09:45:25.118Z</time></trkpt><trkpt lat="37.85912" lon="15.083065"><ele>691.0</ele><time>2026-04-18T09:45:26.118Z</time></trkpt><trkpt lat="37.85907" lon="15.083355"><ele>691.0</ele><time>2026-04-18T09:45:27.118Z</time></trkpt><trkpt lat="37.85902" lon="15.08363"><ele>691.0</ele><time>2026-04-18T09:45:28.118Z</time></trkpt><trkpt lat="37.8589733" lon="15.0838767"><ele>691.0</ele><time>2026-04-18T09:45:29.118Z</time></trkpt><trkpt lat="37.85894" lon="15.0841233"><ele>690.3333333333334</ele><time>2026-04-18T09:45:30.118Z</time></trkpt><trkpt lat="37.8588933" lon="15.0843467"><ele>689.6666666666666</ele><time>2026-04-18T09:45:31.118Z</time></trkpt><trkpt lat="37.8588583" lon="15.084565"><ele>689.0</ele><time>2026-04-18T09:45:32.118Z</time></trkpt><trkpt lat="37.8588433" lon="15.084765"><ele>689.0</ele><time>2026-04-18T09:45:33.118Z</time></trkpt><trkpt lat="37.85887" lon="15.0849533"><ele>689.0</ele><time>2026-04-18T09:45:34.118Z</time></trkpt><trkpt lat="37.8589317" lon="15.0851333"><ele>689.0</ele><time>2026-04-18T09:45:35.118Z</time></trkpt><trkpt lat="37.8590183" lon="15.0853267"><ele>689.0</ele><time>2026-04-18T09:45:36.118Z</time></trkpt><trkpt lat="37.859105" lon="15.085515"><ele>689.0</ele><time>2026-04-18T09:45:37.118Z</time></trkpt><trkpt lat="37.85918" lon="15.0856967"><ele>689.0</ele><time>2026-04-18T09:45:38.118Z</time></trkpt><trkpt lat="37.8592467" lon="15.0858733"><ele>686.6666666666666</ele><time>2026-04-18T09:45:39.118Z</time></trkpt><trkpt lat="37.8593133" lon="15.0860533"><ele>684.3333333333334</ele><time>2026-04-18T09:45:40.118Z</time></trkpt><trkpt lat="37.8593817" lon="15.0862317"><ele>682.0</ele><time>2026-04-18T09:45:41.118Z</time></trkpt><trkpt lat="37.8594333" lon="15.086405"><ele>682.0</ele><time>2026-04-18T09:45:42.118Z</time></trkpt><trkpt lat="37.8594633" lon="15.0865833"><ele>682.0</ele><time>2026-04-18T09:45:43.118Z</time></trkpt><trkpt lat="37.8594683" lon="15.0867633"><ele>682.0</ele><time>2026-04-18T09:45:44.118Z</time></trkpt><trkpt lat="37.859465" lon="15.0869417"><ele>682.0</ele><time>2026-04-18T09:45:45.118Z</time></trkpt><trkpt lat="37.85946" lon="15.08712"><ele>682.0</ele><time>2026-04-18T09:45:46.118Z</time></trkpt><trkpt lat="37.85944" lon="15.08729"><ele>682.0</ele><time>2026-04-18T09:45:47.118Z</time></trkpt><trkpt lat="37.859425" lon="15.0874617"><ele>682.0</ele><time>2026-04-18T09:45:48.118Z</time></trkpt><trkpt lat="37.8593983" lon="15.0876383"><ele>682.0</ele><time>2026-04-18T09:45:49.118Z</time></trkpt><trkpt lat="37.859375" lon="15.0877983"><ele>682.2</ele><time>2026-04-18T09:45:50.118Z</time></trkpt><trkpt lat="37.8593333" lon="15.087935"><ele>682.4000000000001</ele><time>2026-04-18T09:45:51.118Z</time></trkpt><trkpt lat="37.85926" lon="15.0880317"><ele>682.5999999999999</ele><time>2026-04-18T09:45:52.118Z</time></trkpt><trkpt lat="37.8591633" lon="15.0880983"><ele>682.8</ele><time>2026-04-18T09:45:53.118Z</time></trkpt><trkpt lat="37.8590567" lon="15.0881133"><ele>683.0</ele><time>2026-04-18T09:45:54.118Z</time></trkpt><trkpt lat="37.8589433" lon="15.0880833"><ele>683.0</ele><time>2026-04-18T09:45:55.118Z</time></trkpt><trkpt lat="37.8588217" lon="15.0880333"><ele>683.0</ele><time>2026-04-18T09:45:56.118Z</time></trkpt><trkpt lat="37.858695" lon="15.0879833"><ele>683.0</ele><time>2026-04-18T09:45:57.118Z</time></trkpt><trkpt lat="37.85857" lon="15.0879483"><ele>683.0</ele><time>2026-04-18T09:45:58.118Z</time></trkpt><trkpt lat="37.85845" lon="15.087925"><ele>682.75</ele><time>2026-04-18T09:45:59.118Z</time></trkpt><trkpt lat="37.8583417" lon="15.0879383"><ele>682.5</ele><time>2026-04-18T09:46:00.118Z</time></trkpt><trkpt lat="37.85824" lon="15.0880067"><ele>682.25</ele><time>2026-04-18T09:46:01.118Z</time></trkpt><trkpt lat="37.858155" lon="15.088125"><ele>682.0</ele><time>2026-04-18T09:46:02.117Z</time></trkpt><trkpt lat="37.8581017" lon="15.088275"><ele>679.0</ele><time>2026-04-18T09:46:03.118Z</time></trkpt><trkpt lat="37.8580667" lon="15.08844"><ele>676.0</ele><time>2026-04-18T09:46:04.118Z</time></trkpt><trkpt lat="37.8580383" lon="15.088605"><ele>673.0</ele><time>2026-04-18T09:46:05.118Z</time></trkpt><trkpt lat="37.85801" lon="15.0887567"><ele>670.0</ele><time>2026-04-18T09:46:06.118Z</time></trkpt><trkpt lat="37.85798" lon="15.0889"><ele>670.0</ele><time>2026-04-18T09:46:07.117Z</time></trkpt><trkpt lat="37.8579467" lon="15.0890417"><ele>670.0</ele><time>2026-04-18T09:46:08.118Z</time></trkpt><trkpt lat="37.8578917" lon="15.089185"><ele>670.0</ele><time>2026-04-18T09:46:09.117Z</time></trkpt><trkpt lat="37.8578233" lon="15.0893183"><ele>670.0</ele><time>2026-04-18T09:46:10.118Z</time></trkpt><trkpt lat="37.8577317" lon="15.0894433"><ele>670.25</ele><time>2026-04-18T09:46:11.118Z</time></trkpt><trkpt lat="37.8576417" lon="15.0895767"><ele>670.5</ele><time>2026-04-18T09:46:12.118Z</time></trkpt><trkpt lat="37.8575467" lon="15.0897167"><ele>670.75</ele><time>2026-04-18T09:46:13.118Z</time></trkpt><trkpt lat="37.857445" lon="15.0898517"><ele>671.0</ele><time>2026-04-18T09:46:14.118Z</time></trkpt><trkpt lat="37.8573383" lon="15.0899967"><ele>671.0</ele><time>2026-04-18T09:46:15.118Z</time></trkpt><trkpt lat="37.857235" lon="15.0901383"><ele>671.0</ele><time>2026-04-18T09:46:16.118Z</time></trkpt><trkpt lat="37.8571367" lon="15.0902783"><ele>671.0</ele><time>2026-04-18T09:46:17.118Z</time></trkpt><trkpt lat="37.8570533" lon="15.09044"><ele>671.0</ele><time>2026-04-18T09:46:18.118Z</time></trkpt><trkpt lat="37.8569883" lon="15.0906183"><ele>671.0</ele><time>2026-04-18T09:46:19.118Z</time></trkpt><trkpt lat="37.8569283" lon="15.090805"><ele>671.0</ele><time>2026-04-18T09:46:20.117Z</time></trkpt><trkpt lat="37.8568783" lon="15.091005"><ele>671.0</ele><time>2026-04-18T09:46:21.118Z</time></trkpt><trkpt lat="37.8568233" lon="15.0912017"><ele>671.0</ele><time>2026-04-18T09:46:22.118Z</time></trkpt><trkpt lat="37.8567617" lon="15.0914017"><ele>671.0</ele><time>2026-04-18T09:46:23.118Z</time></trkpt><trkpt lat="37.85671" lon="15.0915967"><ele>671.0</ele><time>2026-04-18T09:46:24.118Z</time></trkpt><trkpt lat="37.8566583" lon="15.0917767"><ele>671.0</ele><time>2026-04-18T09:46:25.118Z</time></trkpt><trkpt lat="37.85661" lon="15.0919517"><ele>671.0</ele><time>2026-04-18T09:46:26.118Z</time></trkpt><trkpt lat="37.856565" lon="15.0921117"><ele>671.0</ele><time>2026-04-18T09:46:27.118Z</time></trkpt><trkpt lat="37.8565167" lon="15.0922783"><ele>670.0</ele><time>2026-04-18T09:46:28.118Z</time></trkpt><trkpt lat="37.85646" lon="15.0924533"><ele>669.0</ele><time>2026-04-18T09:46:29.118Z</time></trkpt><trkpt lat="37.8564" lon="15.09264"><ele>668.0</ele><time>2026-04-18T09:46:30.118Z</time></trkpt><trkpt lat="37.856335" lon="15.0928183"><ele>668.0</ele><time>2026-04-18T09:46:31.118Z</time></trkpt><trkpt lat="37.8562683" lon="15.0930117"><ele>668.0</ele><time>2026-04-18T09:46:32.118Z</time></trkpt><trkpt lat="37.8561983" lon="15.0931933"><ele>668.0</ele><time>2026-04-18T09:46:33.118Z</time></trkpt><trkpt lat="37.8561333" lon="15.09338"><ele>667.0</ele><time>2026-04-18T09:46:34.118Z</time></trkpt><trkpt lat="37.8560717" lon="15.09357"><ele>666.0</ele><time>2026-04-18T09:46:35.118Z</time></trkpt><trkpt lat="37.856005" lon="15.0937683"><ele>665.0</ele><time>2026-04-18T09:46:36.118Z</time></trkpt><trkpt lat="37.8559433" lon="15.0939617"><ele>667.6666666666666</ele><time>2026-04-18T09:46:37.117Z</time></trkpt><trkpt lat="37.85588" lon="15.0941667"><ele>670.3333333333334</ele><time>2026-04-18T09:46:38.118Z</time></trkpt><trkpt lat="37.855815" lon="15.0943667"><ele>673.0</ele><time>2026-04-18T09:46:39.118Z</time></trkpt><trkpt lat="37.8557533" lon="15.0945733"><ele>673.0</ele><time>2026-04-18T09:46:40.118Z</time></trkpt><trkpt lat="37.85569" lon="15.0947733"><ele>673.0</ele><time>2026-04-18T09:46:41.118Z</time></trkpt><trkpt lat="37.8556317" lon="15.094965"><ele>673.0</ele><time>2026-04-18T09:46:42.118Z</time></trkpt><trkpt lat="37.8555783" lon="15.0951433"><ele>672.0</ele><time>2026-04-18T09:46:43.118Z</time></trkpt><trkpt lat="37.8555367" lon="15.095335"><ele>671.0</ele><time>2026-04-18T09:46:44.118Z</time></trkpt><trkpt lat="37.8555267" lon="15.095535"><ele>670.0</ele><time>2026-04-18T09:46:45.118Z</time></trkpt><trkpt lat="37.8555583" lon="15.0957383"><ele>669.0</ele><time>2026-04-18T09:46:46.118Z</time></trkpt><trkpt lat="37.85563" lon="15.0959533"><ele>668.0</ele><time>2026-04-18T09:46:47.118Z</time></trkpt><trkpt lat="37.8557233" lon="15.0961833"><ele>667.0</ele><time>2026-04-18T09:46:48.118Z</time></trkpt><trkpt lat="37.8558317" lon="15.0964317"><ele>666.0</ele><time>2026-04-18T09:46:49.117Z</time></trkpt><trkpt lat="37.8559367" lon="15.096675"><ele>665.0</ele><time>2026-04-18T09:46:50.118Z</time></trkpt><trkpt lat="37.856055" lon="15.0969133"><ele>664.0</ele><time>2026-04-18T09:46:51.117Z</time></trkpt><trkpt lat="37.8561683" lon="15.09714"><ele>664.0</ele><time>2026-04-18T09:46:52.118Z</time></trkpt><trkpt lat="37.8562783" lon="15.0973617"><ele>664.0</ele><time>2026-04-18T09:46:53.118Z</time></trkpt><trkpt lat="37.8563733" lon="15.09757"><ele>664.0</ele><time>2026-04-18T09:46:54.118Z</time></trkpt><trkpt lat="37.856465" lon="15.0977667"><ele>665.6666666666667</ele><time>2026-04-18T09:46:55.118Z</time></trkpt><trkpt lat="37.85655" lon="15.0979533"><ele>667.3333333333334</ele><time>2026-04-18T09:46:56.118Z</time></trkpt><trkpt lat="37.8566383" lon="15.0981367"><ele>669.0</ele><time>2026-04-18T09:46:57.118Z</time></trkpt><trkpt lat="37.8567183" lon="15.09832"><ele>669.6666666666666</ele><time>2026-04-18T09:46:58.118Z</time></trkpt><trkpt lat="37.856765" lon="15.0984967"><ele>670.3333333333333</ele><time>2026-04-18T09:46:59.118Z</time></trkpt><trkpt lat="37.8567933" lon="15.098685"><ele>671.0</ele><time>2026-04-18T09:47:00.118Z</time></trkpt><trkpt lat="37.856785" lon="15.0988933"><ele>670.6666666666666</ele><time>2026-04-18T09:47:01.118Z</time></trkpt><trkpt lat="37.856755" lon="15.09911"><ele>670.3333333333334</ele><time>2026-04-18T09:47:02.118Z</time></trkpt><trkpt lat="37.8567167" lon="15.0993317"><ele>670.0</ele><time>2026-04-18T09:47:03.118Z</time></trkpt><trkpt lat="37.8566783" lon="15.0995683"><ele>670.0</ele><time>2026-04-18T09:47:04.118Z</time></trkpt><trkpt lat="37.8566217" lon="15.0998083"><ele>670.0</ele><time>2026-04-18T09:47:05.118Z</time></trkpt><trkpt lat="37.8565683" lon="15.1000567"><ele>670.0</ele><time>2026-04-18T09:47:06.118Z</time></trkpt><trkpt lat="37.856495" lon="15.100305"><ele>669.6666666666667</ele><time>2026-04-18T09:47:07.117Z</time></trkpt><trkpt lat="37.8564383" lon="15.100555"><ele>669.3333333333334</ele><time>2026-04-18T09:47:08.118Z</time></trkpt><trkpt lat="37.8563817" lon="15.1008017"><ele>669.0</ele><time>2026-04-18T09:47:09.118Z</time></trkpt><trkpt lat="37.85631" lon="15.1010467"><ele>669.0</ele><time>2026-04-18T09:47:10.118Z</time></trkpt><trkpt lat="37.85622" lon="15.1013033"><ele>669.0</ele><time>2026-04-18T09:47:11.118Z</time></trkpt><trkpt lat="37.8561283" lon="15.1015467"><ele>669.0</ele><time>2026-04-18T09:47:12.118Z</time></trkpt><trkpt lat="37.8560317" lon="15.101795"><ele>669.0</ele><time>2026-04-18T09:47:13.118Z</time></trkpt><trkpt lat="37.855935" lon="15.10203"><ele>669.0</ele><time>2026-04-18T09:47:14.118Z</time></trkpt><trkpt lat="37.8558367" lon="15.1022667"><ele>669.0</ele><time>2026-04-18T09:47:15.118Z</time></trkpt><trkpt lat="37.8557417" lon="15.102485"><ele>669.0</ele><time>2026-04-18T09:47:16.118Z</time></trkpt><trkpt lat="37.855655" lon="15.1026933"><ele>669.0</ele><time>2026-04-18T09:47:17.118Z</time></trkpt><trkpt lat="37.855575" lon="15.1028883"><ele>669.0</ele><time>2026-04-18T09:47:18.117Z</time></trkpt><trkpt lat="37.8555117" lon="15.1030917"><ele>668.6666666666666</ele><time>2026-04-18T09:47:19.118Z</time></trkpt><trkpt lat="37.8554633" lon="15.103305"><ele>668.3333333333333</ele><time>2026-04-18T09:47:20.117Z</time></trkpt><trkpt lat="37.8554467" lon="15.1035267"><ele>668.0</ele><time>2026-04-18T09:47:21.118Z</time></trkpt><trkpt lat="37.8554517" lon="15.103755"><ele>668.0</ele><time>2026-04-18T09:47:22.118Z</time></trkpt><trkpt lat="37.8554617" lon="15.1039917"><ele>668.0</ele><time>2026-04-18T09:47:23.118Z</time></trkpt><trkpt lat="37.8554867" lon="15.1042283"><ele>668.0</ele><time>2026-04-18T09:47:24.118Z</time></trkpt><trkpt lat="37.8555267" lon="15.1044783"><ele>666.0</ele><time>2026-04-18T09:47:25.118Z</time></trkpt><trkpt lat="37.85558" lon="15.1047367"><ele>664.0</ele><time>2026-04-18T09:47:26.118Z</time></trkpt><trkpt lat="37.85564" lon="15.105"><ele>662.0</ele><time>2026-04-18T09:47:27.118Z</time></trkpt><trkpt lat="37.855705" lon="15.1052733"><ele>662.0</ele><time>2026-04-18T09:47:28.118Z</time></trkpt><trkpt lat="37.8557667" lon="15.1055517"><ele>662.0</ele><time>2026-04-18T09:47:29.117Z</time></trkpt><trkpt lat="37.85583" lon="15.1058367"><ele>662.3333333333333</ele><time>2026-04-18T09:47:30.118Z</time></trkpt><trkpt lat="37.8558917" lon="15.1061033"><ele>662.6666666666666</ele><time>2026-04-18T09:47:31.118Z</time></trkpt><trkpt lat="37.8559533" lon="15.1063683"><ele>663.0</ele><time>2026-04-18T09:47:32.118Z</time></trkpt><trkpt lat="37.856005" lon="15.106625"><ele>661.6666666666666</ele><time>2026-04-18T09:47:33.118Z</time></trkpt><trkpt lat="37.8560617" lon="15.10688"><ele>660.3333333333333</ele><time>2026-04-18T09:47:34.118Z</time></trkpt><trkpt lat="37.856105" lon="15.10713"><ele>659.0</ele><time>2026-04-18T09:47:35.118Z</time></trkpt><trkpt lat="37.8561633" lon="15.1073733"><ele>656.3333333333333</ele><time>2026-04-18T09:47:36.118Z</time></trkpt><trkpt lat="37.85622" lon="15.1076067"><ele>653.6666666666666</ele><time>2026-04-18T09:47:37.118Z</time></trkpt><trkpt lat="37.8562783" lon="15.10783"><ele>651.0</ele><time>2026-04-18T09:47:38.118Z</time></trkpt><trkpt lat="37.8563283" lon="15.1080333"><ele>651.0</ele><time>2026-04-18T09:47:39.118Z</time></trkpt><trkpt lat="37.8563633" lon="15.10823"><ele>651.0</ele><time>2026-04-18T09:47:40.118Z</time></trkpt><trkpt lat="37.85637" lon="15.1084267"><ele>651.0</ele><time>2026-04-18T09:47:41.118Z</time></trkpt><trkpt lat="37.8563467" lon="15.1086233"><ele>648.0</ele><time>2026-04-18T09:47:42.118Z</time></trkpt><trkpt lat="37.85628" lon="15.108815"><ele>645.0</ele><time>2026-04-18T09:47:43.118Z</time></trkpt><trkpt lat="37.85618" lon="15.1089767"><ele>642.0</ele><time>2026-04-18T09:47:44.118Z</time></trkpt><trkpt lat="37.856045" lon="15.1091267"><ele>641.0</ele><time>2026-04-18T09:47:45.118Z</time></trkpt><trkpt lat="37.8558983" lon="15.109245"><ele>640.0</ele><time>2026-04-18T09:47:46.118Z</time></trkpt><trkpt lat="37.85574" lon="15.1093583"><ele>639.0</ele><time>2026-04-18T09:47:47.118Z</time></trkpt><trkpt lat="37.85559" lon="15.1094833"><ele>639.0</ele><time>2026-04-18T09:47:48.118Z</time></trkpt><trkpt lat="37.8554467" lon="15.1095933"><ele>639.0</ele><time>2026-04-18T09:47:49.118Z</time></trkpt><trkpt lat="37.8553167" lon="15.109735"><ele>639.0</ele><time>2026-04-18T09:47:50.117Z</time></trkpt><trkpt lat="37.8552117" lon="15.1099133"><ele>638.0</ele><time>2026-04-18T09:47:51.118Z</time></trkpt><trkpt lat="37.855125" lon="15.1101133"><ele>637.0</ele><time>2026-04-18T09:47:52.118Z</time></trkpt><trkpt lat="37.8550333" lon="15.1103183"><ele>636.0</ele><time>2026-04-18T09:47:53.118Z</time></trkpt><trkpt lat="37.8549167" lon="15.110505"><ele>636.0</ele><time>2026-04-18T09:47:54.118Z</time></trkpt><trkpt lat="37.8547917" lon="15.110695"><ele>636.0</ele><time>2026-04-18T09:47:55.118Z</time></trkpt><trkpt lat="37.8546867" lon="15.110895"><ele>636.0</ele><time>2026-04-18T09:47:56.118Z</time></trkpt><trkpt lat="37.854595" lon="15.1111067"><ele>633.6666666666666</ele><time>2026-04-18T09:47:57.117Z</time></trkpt><trkpt lat="37.854495" lon="15.1113133"><ele>631.3333333333333</ele><time>2026-04-18T09:47:58.118Z</time></trkpt><trkpt lat="37.8544133" lon="15.111525"><ele>629.0</ele><time>2026-04-18T09:47:59.117Z</time></trkpt><trkpt lat="37.8543633" lon="15.1117533"><ele>628.3333333333333</ele><time>2026-04-18T09:48:00.118Z</time></trkpt><trkpt lat="37.8543317" lon="15.1120033"><ele>627.6666666666666</ele><time>2026-04-18T09:48:01.117Z</time></trkpt><trkpt lat="37.8543167" lon="15.112265"><ele>627.0</ele><time>2026-04-18T09:48:02.118Z</time></trkpt><trkpt lat="37.854295" lon="15.1125067"><ele>628.6666666666666</ele><time>2026-04-18T09:48:03.118Z</time></trkpt><trkpt lat="37.854265" lon="15.1127467"><ele>630.3333333333333</ele><time>2026-04-18T09:48:04.118Z</time></trkpt><trkpt lat="37.85421" lon="15.1129967"><ele>632.0</ele><time>2026-04-18T09:48:05.117Z</time></trkpt><trkpt lat="37.85413" lon="15.1132317"><ele>634.0</ele><time>2026-04-18T09:48:06.118Z</time></trkpt><trkpt lat="37.8540533" lon="15.1134567"><ele>636.0</ele><time>2026-04-18T09:48:07.118Z</time></trkpt><trkpt lat="37.85396" lon="15.1136783"><ele>638.0</ele><time>2026-04-18T09:48:08.118Z</time></trkpt><trkpt lat="37.8538617" lon="15.113905"><ele>638.6666666666666</ele><time>2026-04-18T09:48:09.118Z</time></trkpt><trkpt lat="37.8537483" lon="15.114135"><ele>639.3333333333334</ele><time>2026-04-18T09:48:10.118Z</time></trkpt><trkpt lat="37.85361" lon="15.11435"><ele>640.0</ele><time>2026-04-18T09:48:11.118Z</time></trkpt><trkpt lat="37.85346" lon="15.1145767"><ele>641.5</ele><time>2026-04-18T09:48:12.118Z</time></trkpt><trkpt lat="37.8533033" lon="15.1148033"><ele>643.0</ele><time>2026-04-18T09:48:13.118Z</time></trkpt><trkpt lat="37.8531417" lon="15.1150317"><ele>644.0</ele><time>2026-04-18T09:48:14.117Z</time></trkpt><trkpt lat="37.852985" lon="15.1152617"><ele>645.0</ele><time>2026-04-18T09:48:15.118Z</time></trkpt><trkpt lat="37.8528267" lon="15.11548"><ele>645.0</ele><time>2026-04-18T09:48:16.118Z</time></trkpt><trkpt lat="37.8526783" lon="15.1156917"><ele>645.0</ele><time>2026-04-18T09:48:17.118Z</time></trkpt><trkpt lat="37.8525333" lon="15.1159033"><ele>645.0</ele><time>2026-04-18T09:48:18.118Z</time></trkpt><trkpt lat="37.852385" lon="15.1161033"><ele>645.0</ele><time>2026-04-18T09:48:19.118Z</time></trkpt><trkpt lat="37.8522383" lon="15.11631"><ele>645.0</ele><time>2026-04-18T09:48:20.118Z</time></trkpt><trkpt lat="37.852095" lon="15.1165233"><ele>645.0</ele><time>2026-04-18T09:48:21.118Z</time></trkpt><trkpt lat="37.85194" lon="15.11674"><ele>644.5</ele><time>2026-04-18T09:48:22.118Z</time></trkpt><trkpt lat="37.8517917" lon="15.1169567"><ele>644.0</ele><time>2026-04-18T09:48:23.118Z</time></trkpt><trkpt lat="37.85164" lon="15.117165"><ele>644.0</ele><time>2026-04-18T09:48:24.118Z</time></trkpt><trkpt lat="37.8515033" lon="15.1173717"><ele>644.0</ele><time>2026-04-18T09:48:25.117Z</time></trkpt><trkpt lat="37.8513633" lon="15.1175767"><ele>644.0</ele><time>2026-04-18T09:48:26.118Z</time></trkpt><trkpt lat="37.85123" lon="15.1177717"><ele>644.0</ele><time>2026-04-18T09:48:27.118Z</time></trkpt><trkpt lat="37.8511017" lon="15.1179567"><ele>644.0</ele><time>2026-04-18T09:48:28.118Z</time></trkpt><trkpt lat="37.8509767" lon="15.1181367"><ele>644.0</ele><time>2026-04-18T09:48:29.118Z</time></trkpt><trkpt lat="37.8508417" lon="15.1183067"><ele>643.3333333333333</ele><time>2026-04-18T09:48:30.118Z</time></trkpt><trkpt lat="37.850695" lon="15.1184667"><ele>642.6666666666666</ele><time>2026-04-18T09:48:31.118Z</time></trkpt><trkpt lat="37.8505333" lon="15.118625"><ele>642.0</ele><time>2026-04-18T09:48:32.118Z</time></trkpt><trkpt lat="37.8503583" lon="15.1187633"><ele>642.0</ele><time>2026-04-18T09:48:33.118Z</time></trkpt><trkpt lat="37.8501783" lon="15.1188867"><ele>642.0</ele><time>2026-04-18T09:48:34.118Z</time></trkpt><trkpt lat="37.84998" lon="15.11899"><ele>642.0</ele><time>2026-04-18T09:48:35.118Z</time></trkpt><trkpt lat="37.8497867" lon="15.1190783"><ele>639.0</ele><time>2026-04-18T09:48:36.118Z</time></trkpt><trkpt lat="37.8495917" lon="15.119165"><ele>636.0</ele><time>2026-04-18T09:48:37.118Z</time></trkpt><trkpt lat="37.8493967" lon="15.1192333"><ele>633.0</ele><time>2026-04-18T09:48:38.118Z</time></trkpt><trkpt lat="37.8492067" lon="15.1193"><ele>632.0</ele><time>2026-04-18T09:48:39.118Z</time></trkpt><trkpt lat="37.8490233" lon="15.1193667"><ele>631.0</ele><time>2026-04-18T09:48:40.117Z</time></trkpt><trkpt lat="37.848845" lon="15.1194383"><ele>630.0</ele><time>2026-04-18T09:48:41.118Z</time></trkpt><trkpt lat="37.8486717" lon="15.1195017"><ele>630.0</ele><time>2026-04-18T09:48:42.117Z</time></trkpt><trkpt lat="37.8485133" lon="15.1195567"><ele>630.0</ele><time>2026-04-18T09:48:43.118Z</time></trkpt><trkpt lat="37.8483683" lon="15.1196167"><ele>630.0</ele><time>2026-04-18T09:48:44.118Z</time></trkpt><trkpt lat="37.8482467" lon="15.11968"><ele>630.0</ele><time>2026-04-18T09:48:45.118Z</time></trkpt><trkpt lat="37.8481617" lon="15.11978"><ele>628.75</ele><time>2026-04-18T09:48:46.118Z</time></trkpt><trkpt lat="37.8481183" lon="15.1199083"><ele>627.5</ele><time>2026-04-18T09:48:47.118Z</time></trkpt><trkpt lat="37.8481083" lon="15.1200583"><ele>626.25</ele><time>2026-04-18T09:48:48.117Z</time></trkpt><trkpt lat="37.8481267" lon="15.120205"><ele>625.0</ele><time>2026-04-18T09:48:49.118Z</time></trkpt><trkpt lat="37.8481667" lon="15.1203433"><ele>625.0</ele><time>2026-04-18T09:48:50.118Z</time></trkpt><trkpt lat="37.84823" lon="15.1204583"><ele>625.0</ele><time>2026-04-18T09:48:51.118Z</time></trkpt><trkpt lat="37.8483233" lon="15.120535"><ele>625.0</ele><time>2026-04-18T09:48:52.117Z</time></trkpt><trkpt lat="37.8484417" lon="15.1205683"><ele>625.0</ele><time>2026-04-18T09:48:53.118Z</time></trkpt><trkpt lat="37.84857" lon="15.12055"><ele>625.3333333333334</ele><time>2026-04-18T09:48:54.118Z</time></trkpt><trkpt lat="37.8487083" lon="15.1204967"><ele>625.6666666666666</ele><time>2026-04-18T09:48:55.118Z</time></trkpt><trkpt lat="37.8488517" lon="15.1204433"><ele>626.0</ele><time>2026-04-18T09:48:56.118Z</time></trkpt><trkpt lat="37.8490133" lon="15.1203917"><ele>626.0</ele><time>2026-04-18T09:48:57.118Z</time></trkpt><trkpt lat="37.8491683" lon="15.1203467"><ele>626.0</ele><time>2026-04-18T09:48:58.118Z</time></trkpt><trkpt lat="37.8493217" lon="15.1202967"><ele>626.0</ele><time>2026-04-18T09:48:59.118Z</time></trkpt><trkpt lat="37.8494667" lon="15.120245"><ele>625.75</ele><time>2026-04-18T09:49:00.118Z</time></trkpt><trkpt lat="37.8496083" lon="15.1201967"><ele>625.5</ele><time>2026-04-18T09:49:01.118Z</time></trkpt><trkpt lat="37.84974" lon="15.120155"><ele>625.25</ele><time>2026-04-18T09:49:02.117Z</time></trkpt><trkpt lat="37.8498617" lon="15.1201217"><ele>625.0</ele><time>2026-04-18T09:49:03.118Z</time></trkpt><trkpt lat="37.8499767" lon="15.1201117"><ele>625.0</ele><time>2026-04-18T09:49:04.118Z</time></trkpt><trkpt lat="37.8500817" lon="15.12013"><ele>625.0</ele><time>2026-04-18T09:49:05.117Z</time></trkpt><trkpt lat="37.8501683" lon="15.120185"><ele>625.0</ele><time>2026-04-18T09:49:06.118Z</time></trkpt><trkpt lat="37.8502183" lon="15.1202817"><ele>625.0</ele><time>2026-04-18T09:49:07.118Z</time></trkpt><trkpt lat="37.8502317" lon="15.120395"><ele>625.0</ele><time>2026-04-18T09:49:08.118Z</time></trkpt><trkpt lat="37.850205" lon="15.1205267"><ele>624.3333333333334</ele><time>2026-04-18T09:49:09.118Z</time></trkpt><trkpt lat="37.850125" lon="15.1206917"><ele>623.6666666666666</ele><time>2026-04-18T09:49:10.118Z</time></trkpt><trkpt lat="37.8500567" lon="15.1208717"><ele>623.0</ele><time>2026-04-18T09:49:11.118Z</time></trkpt><trkpt lat="37.84999" lon="15.1210783"><ele>623.0</ele><time>2026-04-18T09:49:12.118Z</time></trkpt><trkpt lat="37.8499267" lon="15.1212833"><ele>623.0</ele><time>2026-04-18T09:49:13.118Z</time></trkpt><trkpt lat="37.849865" lon="15.1214833"><ele>623.0</ele><time>2026-04-18T09:49:14.118Z</time></trkpt><trkpt lat="37.8497983" lon="15.12168"><ele>622.3333333333333</ele><time>2026-04-18T09:49:15.118Z</time></trkpt><trkpt lat="37.8497367" lon="15.1218783"><ele>621.6666666666666</ele><time>2026-04-18T09:49:16.118Z</time></trkpt><trkpt lat="37.84967" lon="15.1220667"><ele>621.0</ele><time>2026-04-18T09:49:17.118Z</time></trkpt><trkpt lat="37.84961" lon="15.1222517"><ele>619.0</ele><time>2026-04-18T09:49:18.117Z</time></trkpt><trkpt lat="37.8495317" lon="15.122425"><ele>617.0</ele><time>2026-04-18T09:49:19.118Z</time></trkpt><trkpt lat="37.8494367" lon="15.1226117"><ele>615.0</ele><time>2026-04-18T09:49:20.118Z</time></trkpt><trkpt lat="37.8493583" lon="15.122795"><ele>614.6666666666666</ele><time>2026-04-18T09:49:21.118Z</time></trkpt><trkpt lat="37.8492817" lon="15.1229867"><ele>614.3333333333333</ele><time>2026-04-18T09:49:22.118Z</time></trkpt><trkpt lat="37.8492067" lon="15.1231767"><ele>614.0</ele><time>2026-04-18T09:49:23.118Z</time></trkpt><trkpt lat="37.8491333" lon="15.1233683"><ele>612.6666666666666</ele><time>2026-04-18T09:49:24.118Z</time></trkpt><trkpt lat="37.849055" lon="15.123555"><ele>611.3333333333334</ele><time>2026-04-18T09:49:25.118Z</time></trkpt><trkpt lat="37.848965" lon="15.1237417"><ele>610.0</ele><time>2026-04-18T09:49:26.118Z</time></trkpt><trkpt lat="37.848885" lon="15.1239233"><ele>609.25</ele><time>2026-04-18T09:49:27.118Z</time></trkpt><trkpt lat="37.8488067" lon="15.1240983"><ele>608.5</ele><time>2026-04-18T09:49:28.118Z</time></trkpt><trkpt lat="37.8487333" lon="15.12426"><ele>607.75</ele><time>2026-04-18T09:49:29.118Z</time></trkpt><trkpt lat="37.8486533" lon="15.124395"><ele>607.0</ele><time>2026-04-18T09:49:30.118Z</time></trkpt><trkpt lat="37.8485917" lon="15.12453"><ele>607.0</ele><time>2026-04-18T09:49:31.118Z</time></trkpt><trkpt lat="37.8485283" lon="15.1246567"><ele>607.0</ele><time>2026-04-18T09:49:32.118Z</time></trkpt><trkpt lat="37.84847" lon="15.1247867"><ele>607.0</ele><time>2026-04-18T09:49:33.118Z</time></trkpt><trkpt lat="37.8484083" lon="15.1249183"><ele>607.0</ele><time>2026-04-18T09:49:34.118Z</time></trkpt><trkpt lat="37.8483533" lon="15.12505"><ele>605.0</ele><time>2026-04-18T09:49:35.117Z</time></trkpt><trkpt lat="37.8482983" lon="15.1251717"><ele>603.0</ele><time>2026-04-18T09:49:36.118Z</time></trkpt><trkpt lat="37.8482467" lon="15.1252867"><ele>601.0</ele><time>2026-04-18T09:49:37.118Z</time></trkpt><trkpt lat="37.8481783" lon="15.1253717"><ele>599.0</ele><time>2026-04-18T09:49:38.118Z</time></trkpt><trkpt lat="37.8481033" lon="15.12543"><ele>597.0</ele><time>2026-04-18T09:49:39.118Z</time></trkpt><trkpt lat="37.84803" lon="15.12545"><ele>597.0</ele><time>2026-04-18T09:49:40.118Z</time></trkpt><trkpt lat="37.8479483" lon="15.12542"><ele>597.0</ele><time>2026-04-18T09:49:41.118Z</time></trkpt><trkpt lat="37.8478667" lon="15.12534"><ele>597.0</ele><time>2026-04-18T09:49:42.118Z</time></trkpt><trkpt lat="37.8477917" lon="15.125225"><ele>597.0</ele><time>2026-04-18T09:49:43.118Z</time></trkpt><trkpt lat="37.8477133" lon="15.1251117"><ele>597.0</ele><time>2026-04-18T09:49:44.118Z</time></trkpt><trkpt lat="37.84762" lon="15.1250333"><ele>596.4</ele><time>2026-04-18T09:49:45.118Z</time></trkpt><trkpt lat="37.847515" lon="15.1250117"><ele>595.8000000000001</ele><time>2026-04-18T09:49:46.118Z</time></trkpt><trkpt lat="37.8474117" lon="15.1250283"><ele>595.2</ele><time>2026-04-18T09:49:47.118Z</time></trkpt><trkpt lat="37.847315" lon="15.12508"><ele>594.6</ele><time>2026-04-18T09:49:48.118Z</time></trkpt><trkpt lat="37.8472333" lon="15.1251633"><ele>594.0</ele><time>2026-04-18T09:49:49.118Z</time></trkpt><trkpt lat="37.8471733" lon="15.125275"><ele>594.0</ele><time>2026-04-18T09:49:50.117Z</time></trkpt><trkpt lat="37.8471417" lon="15.1254083"><ele>594.0</ele><time>2026-04-18T09:49:51.117Z</time></trkpt><trkpt lat="37.847145" lon="15.1255533"><ele>594.0</ele><time>2026-04-18T09:49:52.118Z</time></trkpt><trkpt lat="37.8471717" lon="15.1256983"><ele>594.0</ele><time>2026-04-18T09:49:53.118Z</time></trkpt><trkpt lat="37.8472033" lon="15.1258367"><ele>592.6</ele><time>2026-04-18T09:49:54.118Z</time></trkpt><trkpt lat="37.8472333" lon="15.12598"><ele>591.2</ele><time>2026-04-18T09:49:55.118Z</time></trkpt><trkpt lat="37.8472633" lon="15.12612"><ele>589.8000000000001</ele><time>2026-04-18T09:49:56.118Z</time></trkpt><trkpt lat="37.8472883" lon="15.1262517"><ele>588.4</ele><time>2026-04-18T09:49:57.118Z</time></trkpt><trkpt lat="37.8473117" lon="15.1263817"><ele>587.0</ele><time>2026-04-18T09:49:58.118Z</time></trkpt><trkpt lat="37.8473383" lon="15.1265117"><ele>586.6</ele><time>2026-04-18T09:49:59.118Z</time></trkpt><trkpt lat="37.84735" lon="15.1266367"><ele>586.2</ele><time>2026-04-18T09:50:00.118Z</time></trkpt><trkpt lat="37.8473417" lon="15.1267617"><ele>585.8</ele><time>2026-04-18T09:50:01.118Z</time></trkpt><trkpt lat="37.847325" lon="15.1268933"><ele>585.4</ele><time>2026-04-18T09:50:02.118Z</time></trkpt><trkpt lat="37.8473067" lon="15.1270217"><ele>585.0</ele><time>2026-04-18T09:50:03.118Z</time></trkpt><trkpt lat="37.8472917" lon="15.1271633"><ele>585.0</ele><time>2026-04-18T09:50:04.118Z</time></trkpt><trkpt lat="37.8472783" lon="15.1272967"><ele>585.0</ele><time>2026-04-18T09:50:05.118Z</time></trkpt><trkpt lat="37.847265" lon="15.127435"><ele>585.0</ele><time>2026-04-18T09:50:06.118Z</time></trkpt><trkpt lat="37.8472617" lon="15.1275767"><ele>585.0</ele><time>2026-04-18T09:50:07.118Z</time></trkpt><trkpt lat="37.8472533" lon="15.127705"><ele>585.0</ele><time>2026-04-18T09:50:08.118Z</time></trkpt><trkpt lat="37.847245" lon="15.1278417"><ele>584.2</ele><time>2026-04-18T09:50:09.118Z</time></trkpt><trkpt lat="37.8472367" lon="15.1279733"><ele>583.4</ele><time>2026-04-18T09:50:10.118Z</time></trkpt><trkpt lat="37.8472317" lon="15.12811"><ele>582.6</ele><time>2026-04-18T09:50:11.118Z</time></trkpt><trkpt lat="37.84722" lon="15.1282483"><ele>581.8</ele><time>2026-04-18T09:50:12.118Z</time></trkpt><trkpt lat="37.8472033" lon="15.12838"><ele>581.0</ele><time>2026-04-18T09:50:13.118Z</time></trkpt><trkpt lat="37.8471833" lon="15.1285217"><ele>580.25</ele><time>2026-04-18T09:50:14.117Z</time></trkpt><trkpt lat="37.8471633" lon="15.12866"><ele>579.5</ele><time>2026-04-18T09:50:15.117Z</time></trkpt><trkpt lat="37.8471317" lon="15.1288033"><ele>578.75</ele><time>2026-04-18T09:50:16.117Z</time></trkpt><trkpt lat="37.847105" lon="15.1289433"><ele>578.0</ele><time>2026-04-18T09:50:17.118Z</time></trkpt><trkpt lat="37.8470783" lon="15.129085"><ele>577.5</ele><time>2026-04-18T09:50:18.118Z</time></trkpt><trkpt lat="37.8470483" lon="15.1292233"><ele>577.0</ele><time>2026-04-18T09:50:19.118Z</time></trkpt><trkpt lat="37.84702" lon="15.129365"><ele>576.5</ele><time>2026-04-18T09:50:20.117Z</time></trkpt><trkpt lat="37.8469967" lon="15.129505"><ele>576.0</ele><time>2026-04-18T09:50:21.118Z</time></trkpt><trkpt lat="37.8469683" lon="15.1296467"><ele>576.0</ele><time>2026-04-18T09:50:22.118Z</time></trkpt><trkpt lat="37.8469433" lon="15.1297967"><ele>576.0</ele><time>2026-04-18T09:50:23.118Z</time></trkpt><trkpt lat="37.84691" lon="15.1299567"><ele>576.0</ele><time>2026-04-18T09:50:24.118Z</time></trkpt><trkpt lat="37.846895" lon="15.13011"><ele>576.0</ele><time>2026-04-18T09:50:25.118Z</time></trkpt><trkpt lat="37.84687" lon="15.13025"><ele>575.0</ele><time>2026-04-18T09:50:26.118Z</time></trkpt><trkpt lat="37.8468533" lon="15.1303967"><ele>574.0</ele><time>2026-04-18T09:50:27.118Z</time></trkpt><trkpt lat="37.846825" lon="15.1305317"><ele>573.0</ele><time>2026-04-18T09:50:28.118Z</time></trkpt><trkpt lat="37.8468067" lon="15.1306683"><ele>572.0</ele><time>2026-04-18T09:50:29.118Z</time></trkpt><trkpt lat="37.8467833" lon="15.1308133"><ele>571.5</ele><time>2026-04-18T09:50:30.118Z</time></trkpt><trkpt lat="37.8467517" lon="15.130965"><ele>571.0</ele><time>2026-04-18T09:50:31.118Z</time></trkpt><trkpt lat="37.846725" lon="15.131115"><ele>570.5</ele><time>2026-04-18T09:50:32.118Z</time></trkpt><trkpt lat="37.8467017" lon="15.1312617"><ele>570.0</ele><time>2026-04-18T09:50:33.118Z</time></trkpt><trkpt lat="37.8466717" lon="15.1314117"><ele>569.5</ele><time>2026-04-18T09:50:34.118Z</time></trkpt><trkpt lat="37.8466483" lon="15.1315617"><ele>569.0</ele><time>2026-04-18T09:50:35.118Z</time></trkpt><trkpt lat="37.846625" lon="15.1317017"><ele>568.5</ele><time>2026-04-18T09:50:36.118Z</time></trkpt><trkpt lat="37.8466017" lon="15.131845"><ele>568.0</ele><time>2026-04-18T09:50:37.118Z</time></trkpt><trkpt lat="37.84658" lon="15.131985"><ele>568.0</ele><time>2026-04-18T09:50:38.118Z</time></trkpt><trkpt lat="37.8465533" lon="15.132105"><ele>568.0</ele><time>2026-04-18T09:50:39.118Z</time></trkpt><trkpt lat="37.8465267" lon="15.1322183"><ele>568.0</ele><time>2026-04-18T09:50:40.118Z</time></trkpt><trkpt lat="37.8465033" lon="15.1323133"><ele>568.0</ele><time>2026-04-18T09:50:41.118Z</time></trkpt><trkpt lat="37.84646" lon="15.132435"><ele>568.0</ele><time>2026-04-18T09:50:43.118Z</time></trkpt><trkpt lat="37.84639" lon="15.1324517"><ele>568.0</ele><time>2026-04-18T09:50:46.118Z</time></trkpt><trkpt lat="37.8462817" lon="15.1324167"><ele>568.0</ele><time>2026-04-18T09:50:48.118Z</time></trkpt><trkpt lat="37.8462017" lon="15.1324"><ele>568.0</ele><time>2026-04-18T09:50:49.118Z</time></trkpt><trkpt lat="37.8461017" lon="15.1323867"><ele>568.0</ele><time>2026-04-18T09:50:50.118Z</time></trkpt><trkpt lat="37.8459883" lon="15.1323817"><ele>568.0</ele><time>2026-04-18T09:50:51.118Z</time></trkpt><trkpt lat="37.8458683" lon="15.1323817"><ele>568.0</ele><time>2026-04-18T09:50:52.118Z</time></trkpt><trkpt lat="37.8457483" lon="15.1323967"><ele>566.75</ele><time>2026-04-18T09:50:53.118Z</time></trkpt><trkpt lat="37.8456283" lon="15.1324283"><ele>565.5</ele><time>2026-04-18T09:50:54.118Z</time></trkpt><trkpt lat="37.8455183" lon="15.1324683"><ele>564.25</ele><time>2026-04-18T09:50:55.118Z</time></trkpt><trkpt lat="37.845415" lon="15.1325167"><ele>563.0</ele><time>2026-04-18T09:50:56.117Z</time></trkpt><trkpt lat="37.84532" lon="15.1325683"><ele>563.0</ele><time>2026-04-18T09:50:57.118Z</time></trkpt><trkpt lat="37.8452167" lon="15.1326283"><ele>563.0</ele><time>2026-04-18T09:50:58.118Z</time></trkpt><trkpt lat="37.8451133" lon="15.132705"><ele>563.0</ele><time>2026-04-18T09:50:59.117Z</time></trkpt><trkpt lat="37.845015" lon="15.13278"><ele>563.0</ele><time>2026-04-18T09:51:00.118Z</time></trkpt><trkpt lat="37.84493" lon="15.13287"><ele>563.5</ele><time>2026-04-18T09:51:01.118Z</time></trkpt><trkpt lat="37.84483" lon="15.1329617"><ele>564.0</ele><time>2026-04-18T09:51:02.118Z</time></trkpt><trkpt lat="37.84474" lon="15.1330733"><ele>564.5</ele><time>2026-04-18T09:51:03.118Z</time></trkpt><trkpt lat="37.8446367" lon="15.133175"><ele>565.0</ele><time>2026-04-18T09:51:04.118Z</time></trkpt><trkpt lat="37.8445233" lon="15.1333"><ele>565.0</ele><time>2026-04-18T09:51:05.118Z</time></trkpt><trkpt lat="37.8444033" lon="15.1334333"><ele>565.0</ele><time>2026-04-18T09:51:06.117Z</time></trkpt><trkpt lat="37.84429" lon="15.1335733"><ele>565.0</ele><time>2026-04-18T09:51:07.117Z</time></trkpt><trkpt lat="37.8441667" lon="15.1337033"><ele>564.75</ele><time>2026-04-18T09:51:08.118Z</time></trkpt><trkpt lat="37.8440517" lon="15.1338217"><ele>564.5</ele><time>2026-04-18T09:51:09.118Z</time></trkpt><trkpt lat="37.8439517" lon="15.1339517"><ele>564.25</ele><time>2026-04-18T09:51:10.118Z</time></trkpt><trkpt lat="37.84386" lon="15.1340633"><ele>564.0</ele><time>2026-04-18T09:51:11.118Z</time></trkpt><trkpt lat="37.8437683" lon="15.1341583"><ele>562.75</ele><time>2026-04-18T09:51:12.118Z</time></trkpt><trkpt lat="37.8436817" lon="15.1342533"><ele>561.5</ele><time>2026-04-18T09:51:13.118Z</time></trkpt><trkpt lat="37.8435967" lon="15.1343483"><ele>560.25</ele><time>2026-04-18T09:51:14.118Z</time></trkpt><trkpt lat="37.8435167" lon="15.1344467"><ele>559.0</ele><time>2026-04-18T09:51:15.118Z</time></trkpt><trkpt lat="37.8434317" lon="15.1345383"><ele>558.8</ele><time>2026-04-18T09:51:16.118Z</time></trkpt><trkpt lat="37.8433617" lon="15.1346333"><ele>558.5999999999999</ele><time>2026-04-18T09:51:17.118Z</time></trkpt><trkpt lat="37.8433083" lon="15.1347283"><ele>558.4</ele><time>2026-04-18T09:51:18.118Z</time></trkpt><trkpt lat="37.8432667" lon="15.1348283"><ele>558.1999999999999</ele><time>2026-04-18T09:51:19.118Z</time></trkpt><trkpt lat="37.8432167" lon="15.13493"><ele>558.0</ele><time>2026-04-18T09:51:20.117Z</time></trkpt><trkpt lat="37.843155" lon="15.1350283"><ele>558.0</ele><time>2026-04-18T09:51:21.118Z</time></trkpt><trkpt lat="37.8430833" lon="15.13513"><ele>558.0</ele><time>2026-04-18T09:51:22.117Z</time></trkpt><trkpt lat="37.8430083" lon="15.1352417"><ele>558.0</ele><time>2026-04-18T09:51:23.118Z</time></trkpt><trkpt lat="37.8429217" lon="15.135365"><ele>558.0</ele><time>2026-04-18T09:51:24.117Z</time></trkpt><trkpt lat="37.842825" lon="15.135495"><ele>558.0</ele><time>2026-04-18T09:51:25.117Z</time></trkpt><trkpt lat="37.8427183" lon="15.1356133"><ele>558.0</ele><time>2026-04-18T09:51:26.118Z</time></trkpt><trkpt lat="37.842615" lon="15.1357267"><ele>558.0</ele><time>2026-04-18T09:51:27.118Z</time></trkpt><trkpt lat="37.8425133" lon="15.135835"><ele>558.0</ele><time>2026-04-18T09:51:28.117Z</time></trkpt><trkpt lat="37.84242" lon="15.1359367"><ele>558.0</ele><time>2026-04-18T09:51:29.118Z</time></trkpt><trkpt lat="37.84233" lon="15.1360333"><ele>558.0</ele><time>2026-04-18T09:51:30.118Z</time></trkpt><trkpt lat="37.8422433" lon="15.1361217"><ele>558.0</ele><time>2026-04-18T09:51:31.118Z</time></trkpt><trkpt lat="37.84217" lon="15.1362017"><ele>558.0</ele><time>2026-04-18T09:51:32.118Z</time></trkpt><trkpt lat="37.842115" lon="15.1362833"><ele>558.0</ele><time>2026-04-18T09:51:33.117Z</time></trkpt><trkpt lat="37.84208" lon="15.1363817"><ele>558.0</ele><time>2026-04-18T09:51:34.118Z</time></trkpt><trkpt lat="37.8420533" lon="15.1364817"><ele>558.0</ele><time>2026-04-18T09:51:35.118Z</time></trkpt><trkpt lat="37.842015" lon="15.136585"><ele>558.0</ele><time>2026-04-18T09:51:36.118Z</time></trkpt><trkpt lat="37.841965" lon="15.1366733"><ele>558.0</ele><time>2026-04-18T09:51:37.118Z</time></trkpt><trkpt lat="37.84191" lon="15.136765"><ele>558.0</ele><time>2026-04-18T09:51:38.117Z</time></trkpt><trkpt lat="37.841835" lon="15.13684"><ele>558.0</ele><time>2026-04-18T09:51:39.118Z</time></trkpt><trkpt lat="37.8417667" lon="15.13691"><ele>558.0</ele><time>2026-04-18T09:51:40.118Z</time></trkpt><trkpt lat="37.8417017" lon="15.136965"><ele>558.0</ele><time>2026-04-18T09:51:41.118Z</time></trkpt><trkpt lat="37.8416517" lon="15.1370167"><ele>558.0</ele><time>2026-04-18T09:51:42.118Z</time></trkpt><trkpt lat="37.841595" lon="15.1370567"><ele>558.0</ele><time>2026-04-18T09:51:43.118Z</time></trkpt><trkpt lat="37.8415117" lon="15.1371183"><ele>558.0</ele><time>2026-04-18T09:51:45.118Z</time></trkpt><trkpt lat="37.84143" lon="15.1371583"><ele>558.0</ele><time>2026-04-18T09:51:48.118Z</time></trkpt><trkpt lat="37.841365" lon="15.1370417"><ele>558.0</ele><time>2026-04-18T09:51:51.118Z</time></trkpt><trkpt lat="37.8413217" lon="15.1368817"><ele>558.0</ele><time>2026-04-18T09:51:53.118Z</time></trkpt><trkpt lat="37.8412967" lon="15.1367767"><ele>558.0</ele><time>2026-04-18T09:51:54.118Z</time></trkpt><trkpt lat="37.841265" lon="15.1366683"><ele>558.0</ele><time>2026-04-18T09:51:55.117Z</time></trkpt><trkpt lat="37.8412333" lon="15.1365433"><ele>558.0</ele><time>2026-04-18T09:51:56.118Z</time></trkpt><trkpt lat="37.8411967" lon="15.1364017"><ele>558.0</ele><time>2026-04-18T09:51:57.117Z</time></trkpt><trkpt lat="37.841155" lon="15.1362417"><ele>558.0</ele><time>2026-04-18T09:51:58.118Z</time></trkpt><trkpt lat="37.8411033" lon="15.136085"><ele>558.0</ele><time>2026-04-18T09:51:59.118Z</time></trkpt><trkpt lat="37.8410617" lon="15.1359217"><ele>558.0</ele><time>2026-04-18T09:52:00.118Z</time></trkpt><trkpt lat="37.8410133" lon="15.1357467"><ele>560.25</ele><time>2026-04-18T09:52:01.118Z</time></trkpt><trkpt lat="37.8409633" lon="15.1355767"><ele>562.5</ele><time>2026-04-18T09:52:02.117Z</time></trkpt><trkpt lat="37.840915" lon="15.1354133"><ele>564.75</ele><time>2026-04-18T09:52:03.117Z</time></trkpt><trkpt lat="37.84087" lon="15.13526"><ele>567.0</ele><time>2026-04-18T09:52:04.117Z</time></trkpt><trkpt lat="37.8408367" lon="15.1351067"><ele>567.0</ele><time>2026-04-18T09:52:05.117Z</time></trkpt><trkpt lat="37.840795" lon="15.1349583"><ele>567.0</ele><time>2026-04-18T09:52:06.117Z</time></trkpt><trkpt lat="37.8407517" lon="15.134825"><ele>567.0</ele><time>2026-04-18T09:52:07.117Z</time></trkpt><trkpt lat="37.8407167" lon="15.13468"><ele>567.0</ele><time>2026-04-18T09:52:08.117Z</time></trkpt><trkpt lat="37.8406783" lon="15.1345267"><ele>568.25</ele><time>2026-04-18T09:52:09.117Z</time></trkpt><trkpt lat="37.8406317" lon="15.1343683"><ele>569.5</ele><time>2026-04-18T09:52:10.117Z</time></trkpt><trkpt lat="37.8405783" lon="15.1342067"><ele>570.75</ele><time>2026-04-18T09:52:11.117Z</time></trkpt><trkpt lat="37.8405267" lon="15.134045"><ele>572.0</ele><time>2026-04-18T09:52:12.117Z</time></trkpt><trkpt lat="37.8404783" lon="15.1338817"><ele>572.5</ele><time>2026-04-18T09:52:13.117Z</time></trkpt><trkpt lat="37.8404383" lon="15.1337067"><ele>573.0</ele><time>2026-04-18T09:52:14.117Z</time></trkpt><trkpt lat="37.8403917" lon="15.133535"><ele>573.5</ele><time>2026-04-18T09:52:15.117Z</time></trkpt><trkpt lat="37.8403567" lon="15.13337"><ele>574.0</ele><time>2026-04-18T09:52:16.116Z</time></trkpt><trkpt lat="37.84031" lon="15.13322"><ele>574.0</ele><time>2026-04-18T09:52:17.116Z</time></trkpt><trkpt lat="37.8402717" lon="15.133085"><ele>574.0</ele><time>2026-04-18T09:52:18.117Z</time></trkpt><trkpt lat="37.84024" lon="15.1329683"><ele>574.0</ele><time>2026-04-18T09:52:19.117Z</time></trkpt><trkpt lat="37.8402167" lon="15.1328717"><ele>574.0</ele><time>2026-04-18T09:52:20.117Z</time></trkpt><trkpt lat="37.8401967" lon="15.1327533"><ele>574.0</ele><time>2026-04-18T09:52:22.117Z</time></trkpt><trkpt lat="37.8401717" lon="15.1326683"><ele>574.6</ele><time>2026-04-18T09:54:08.116Z</time></trkpt><trkpt lat="37.8401233" lon="15.1325167"><ele>575.2</ele><time>2026-04-18T09:54:10.117Z</time></trkpt><trkpt lat="37.840085" lon="15.1324233"><ele>575.8000000000001</ele><time>2026-04-18T09:54:11.117Z</time></trkpt><trkpt lat="37.8400567" lon="15.132325"><ele>576.4</ele><time>2026-04-18T09:54:12.117Z</time></trkpt><trkpt lat="37.8400283" lon="15.13222"><ele>577.0</ele><time>2026-04-18T09:54:13.117Z</time></trkpt><trkpt lat="37.8399983" lon="15.13211"><ele>577.5</ele><time>2026-04-18T09:54:14.117Z</time></trkpt><trkpt lat="37.83997" lon="15.131985"><ele>578.0</ele><time>2026-04-18T09:54:15.117Z</time></trkpt><trkpt lat="37.8399383" lon="15.1318467"><ele>578.5</ele><time>2026-04-18T09:54:16.117Z</time></trkpt><trkpt lat="37.8398967" lon="15.131695"><ele>579.0</ele><time>2026-04-18T09:54:17.117Z</time></trkpt><trkpt lat="37.8398583" lon="15.1315383"><ele>579.5</ele><time>2026-04-18T09:54:18.117Z</time></trkpt><trkpt lat="37.8398083" lon="15.1313667"><ele>580.0</ele><time>2026-04-18T09:54:19.117Z</time></trkpt><trkpt lat="37.83976" lon="15.131195"><ele>580.5</ele><time>2026-04-18T09:54:20.117Z</time></trkpt><trkpt lat="37.8397067" lon="15.1310033"><ele>581.0</ele><time>2026-04-18T09:54:21.117Z</time></trkpt><trkpt lat="37.83965" lon="15.1308017"><ele>582.3333333333333</ele><time>2026-04-18T09:54:22.117Z</time></trkpt><trkpt lat="37.8395917" lon="15.13059"><ele>583.6666666666666</ele><time>2026-04-18T09:54:23.116Z</time></trkpt><trkpt lat="37.8395317" lon="15.13038"><ele>585.0</ele><time>2026-04-18T09:54:24.117Z</time></trkpt><trkpt lat="37.839485" lon="15.1301567"><ele>585.0</ele><time>2026-04-18T09:54:25.117Z</time></trkpt><trkpt lat="37.839425" lon="15.1299367"><ele>585.0</ele><time>2026-04-18T09:54:26.117Z</time></trkpt><trkpt lat="37.8393683" lon="15.1297283"><ele>585.0</ele><time>2026-04-18T09:54:27.117Z</time></trkpt><trkpt lat="37.8393117" lon="15.1295167"><ele>585.3333333333334</ele><time>2026-04-18T09:54:28.117Z</time></trkpt><trkpt lat="37.83925" lon="15.1293017"><ele>585.6666666666667</ele><time>2026-04-18T09:54:29.117Z</time></trkpt><trkpt lat="37.8391967" lon="15.1290967"><ele>586.0</ele><time>2026-04-18T09:54:30.117Z</time></trkpt><trkpt lat="37.8391383" lon="15.1288883"><ele>586.6666666666667</ele><time>2026-04-18T09:54:31.117Z</time></trkpt><trkpt lat="37.8390733" lon="15.128665"><ele>587.3333333333334</ele><time>2026-04-18T09:54:32.117Z</time></trkpt><trkpt lat="37.8390117" lon="15.1284417"><ele>588.0</ele><time>2026-04-18T09:54:33.116Z</time></trkpt><trkpt lat="37.8389517" lon="15.1282233"><ele>588.6666666666666</ele><time>2026-04-18T09:54:34.116Z</time></trkpt><trkpt lat="37.8388867" lon="15.1279983"><ele>589.3333333333333</ele><time>2026-04-18T09:54:35.117Z</time></trkpt><trkpt lat="37.8388283" lon="15.1277667"><ele>590.0</ele><time>2026-04-18T09:54:36.117Z</time></trkpt><trkpt lat="37.838765" lon="15.1275167"><ele>591.0</ele><time>2026-04-18T09:54:37.117Z</time></trkpt><trkpt lat="37.8386983" lon="15.1272667"><ele>592.0</ele><time>2026-04-18T09:54:38.117Z</time></trkpt><trkpt lat="37.8386267" lon="15.12701"><ele>593.0</ele><time>2026-04-18T09:54:39.117Z</time></trkpt><trkpt lat="37.83856" lon="15.126765"><ele>593.0</ele><time>2026-04-18T09:54:40.117Z</time></trkpt><trkpt lat="37.8384833" lon="15.1265033"><ele>593.0</ele><time>2026-04-18T09:54:41.117Z</time></trkpt><trkpt lat="37.838415" lon="15.126255"><ele>593.0</ele><time>2026-04-18T09:54:42.117Z</time></trkpt><trkpt lat="37.8383433" lon="15.125995"><ele>593.3333333333333</ele><time>2026-04-18T09:54:43.117Z</time></trkpt><trkpt lat="37.8382633" lon="15.1257267"><ele>593.6666666666666</ele><time>2026-04-18T09:54:44.117Z</time></trkpt><trkpt lat="37.83819" lon="15.12546"><ele>594.0</ele><time>2026-04-18T09:54:45.117Z</time></trkpt><trkpt lat="37.8381083" lon="15.1251883"><ele>594.0</ele><time>2026-04-18T09:54:46.117Z</time></trkpt><trkpt lat="37.838035" lon="15.1249117"><ele>594.0</ele><time>2026-04-18T09:54:47.116Z</time></trkpt><trkpt lat="37.8379683" lon="15.1246383"><ele>595.6666666666666</ele><time>2026-04-18T09:54:48.117Z</time></trkpt><trkpt lat="37.8378983" lon="15.12437"><ele>597.3333333333333</ele><time>2026-04-18T09:54:49.117Z</time></trkpt><trkpt lat="37.8378233" lon="15.1241033"><ele>599.0</ele><time>2026-04-18T09:54:50.117Z</time></trkpt><trkpt lat="37.8377583" lon="15.1238483"><ele>602.0</ele><time>2026-04-18T09:54:51.116Z</time></trkpt><trkpt lat="37.8376867" lon="15.1235967"><ele>605.0</ele><time>2026-04-18T09:54:52.117Z</time></trkpt><trkpt lat="37.837625" lon="15.1233633"><ele>608.0</ele><time>2026-04-18T09:54:53.117Z</time></trkpt><trkpt lat="37.8375533" lon="15.12315"><ele>609.0</ele><time>2026-04-18T09:54:54.117Z</time></trkpt><trkpt lat="37.8374533" lon="15.1229633"><ele>610.0</ele><time>2026-04-18T09:54:55.116Z</time></trkpt><trkpt lat="37.8373217" lon="15.1227867"><ele>611.0</ele><time>2026-04-18T09:54:56.117Z</time></trkpt><trkpt lat="37.8371917" lon="15.1226217"><ele>611.0</ele><time>2026-04-18T09:54:57.117Z</time></trkpt><trkpt lat="37.8370767" lon="15.1224633"><ele>611.0</ele><time>2026-04-18T09:54:58.117Z</time></trkpt><trkpt lat="37.8369683" lon="15.1223183"><ele>611.0</ele><time>2026-04-18T09:54:59.117Z</time></trkpt><trkpt lat="37.8368783" lon="15.122185"><ele>612.75</ele><time>2026-04-18T09:55:00.117Z</time></trkpt><trkpt lat="37.8368" lon="15.1220383"><ele>614.5</ele><time>2026-04-18T09:55:01.117Z</time></trkpt><trkpt lat="37.8367417" lon="15.1218717"><ele>616.25</ele><time>2026-04-18T09:55:02.116Z</time></trkpt><trkpt lat="37.8367083" lon="15.1216783"><ele>618.0</ele><time>2026-04-18T09:55:03.117Z</time></trkpt><trkpt lat="37.836695" lon="15.121455"><ele>620.0</ele><time>2026-04-18T09:55:04.117Z</time></trkpt><trkpt lat="37.8366617" lon="15.1212217"><ele>622.0</ele><time>2026-04-18T09:55:05.117Z</time></trkpt><trkpt lat="37.8366217" lon="15.121"><ele>624.0</ele><time>2026-04-18T09:55:06.117Z</time></trkpt><trkpt lat="37.8365867" lon="15.12079"><ele>625.5</ele><time>2026-04-18T09:55:07.117Z</time></trkpt><trkpt lat="37.8365617" lon="15.1205983"><ele>627.0</ele><time>2026-04-18T09:55:08.117Z</time></trkpt><trkpt lat="37.8365283" lon="15.1204233"><ele>628.5</ele><time>2026-04-18T09:55:09.117Z</time></trkpt><trkpt lat="37.8365133" lon="15.1202417"><ele>630.0</ele><time>2026-04-18T09:55:10.117Z</time></trkpt><trkpt lat="37.836545" lon="15.1200817"><ele>630.0</ele><time>2026-04-18T09:55:11.117Z</time></trkpt><trkpt lat="37.8366067" lon="15.11993"><ele>630.0</ele><time>2026-04-18T09:55:12.117Z</time></trkpt><trkpt lat="37.8366967" lon="15.1198133"><ele>630.0</ele><time>2026-04-18T09:55:13.117Z</time></trkpt><trkpt lat="37.8368133" lon="15.11973"><ele>630.0</ele><time>2026-04-18T09:55:14.117Z</time></trkpt><trkpt lat="37.8369583" lon="15.1196717"><ele>633.0</ele><time>2026-04-18T09:55:15.117Z</time></trkpt><trkpt lat="37.8371217" lon="15.1196233"><ele>636.0</ele><time>2026-04-18T09:55:16.117Z</time></trkpt><trkpt lat="37.8372917" lon="15.1195983"><ele>639.0</ele><time>2026-04-18T09:55:17.117Z</time></trkpt><trkpt lat="37.83747" lon="15.1196117"><ele>641.0</ele><time>2026-04-18T09:55:18.117Z</time></trkpt><trkpt lat="37.8376417" lon="15.119655"><ele>643.0</ele><time>2026-04-18T09:55:19.117Z</time></trkpt><trkpt lat="37.837795" lon="15.1196933"><ele>645.0</ele><time>2026-04-18T09:55:20.117Z</time></trkpt><trkpt lat="37.837935" lon="15.119715"><ele>645.0</ele><time>2026-04-18T09:55:21.117Z</time></trkpt><trkpt lat="37.83807" lon="15.1196933"><ele>645.0</ele><time>2026-04-18T09:55:22.117Z</time></trkpt><trkpt lat="37.8381967" lon="15.11963"><ele>645.0</ele><time>2026-04-18T09:55:23.117Z</time></trkpt><trkpt lat="37.8383117" lon="15.1195233"><ele>645.0</ele><time>2026-04-18T09:55:24.117Z</time></trkpt><trkpt lat="37.8384267" lon="15.1193917"><ele>644.75</ele><time>2026-04-18T09:55:25.117Z</time></trkpt><trkpt lat="37.838535" lon="15.11926"><ele>644.5</ele><time>2026-04-18T09:55:26.117Z</time></trkpt><trkpt lat="37.8386167" lon="15.1191"><ele>644.25</ele><time>2026-04-18T09:55:27.117Z</time></trkpt><trkpt lat="37.8386583" lon="15.1189283"><ele>644.0</ele><time>2026-04-18T09:55:28.117Z</time></trkpt><trkpt lat="37.8386733" lon="15.1187317"><ele>644.0</ele><time>2026-04-18T09:55:29.116Z</time></trkpt><trkpt lat="37.8386783" lon="15.11852"><ele>644.0</ele><time>2026-04-18T09:55:30.117Z</time></trkpt><trkpt lat="37.8386883" lon="15.1182967"><ele>644.0</ele><time>2026-04-18T09:55:31.117Z</time></trkpt><trkpt lat="37.8386983" lon="15.1180683"><ele>646.6666666666666</ele><time>2026-04-18T09:55:32.116Z</time></trkpt><trkpt lat="37.8387" lon="15.1178317"><ele>649.3333333333334</ele><time>2026-04-18T09:55:33.117Z</time></trkpt><trkpt lat="37.8387" lon="15.117615"><ele>652.0</ele><time>2026-04-18T09:55:34.117Z</time></trkpt><trkpt lat="37.838715" lon="15.1174133"><ele>653.0</ele><time>2026-04-18T09:55:35.116Z</time></trkpt><trkpt lat="37.8387217" lon="15.11722"><ele>654.0</ele><time>2026-04-18T09:55:36.117Z</time></trkpt><trkpt lat="37.8387" lon="15.1170417"><ele>655.0</ele><time>2026-04-18T09:55:37.116Z</time></trkpt><trkpt lat="37.8386533" lon="15.1168717"><ele>656.0</ele><time>2026-04-18T09:55:38.117Z</time></trkpt><trkpt lat="37.8385683" lon="15.1167183"><ele>657.6666666666666</ele><time>2026-04-18T09:55:39.117Z</time></trkpt><trkpt lat="37.8384467" lon="15.1165867"><ele>659.3333333333334</ele><time>2026-04-18T09:55:40.117Z</time></trkpt><trkpt lat="37.8383167" lon="15.11647"><ele>661.0</ele><time>2026-04-18T09:55:41.117Z</time></trkpt><trkpt lat="37.8381967" lon="15.116355"><ele>662.0</ele><time>2026-04-18T09:55:42.116Z</time></trkpt><trkpt lat="37.8380833" lon="15.1162333"><ele>663.0</ele><time>2026-04-18T09:55:43.117Z</time></trkpt><trkpt lat="37.837975" lon="15.116105"><ele>664.0</ele><time>2026-04-18T09:55:44.117Z</time></trkpt><trkpt lat="37.8378667" lon="15.1159633"><ele>664.0</ele><time>2026-04-18T09:55:45.117Z</time></trkpt><trkpt lat="37.8377567" lon="15.1157883"><ele>664.0</ele><time>2026-04-18T09:55:46.117Z</time></trkpt><trkpt lat="37.8376333" lon="15.1155933"><ele>664.0</ele><time>2026-04-18T09:55:47.116Z</time></trkpt><trkpt lat="37.8375133" lon="15.1153983"><ele>667.3333333333334</ele><time>2026-04-18T09:55:48.117Z</time></trkpt><trkpt lat="37.8374133" lon="15.11521"><ele>670.6666666666666</ele><time>2026-04-18T09:55:49.117Z</time></trkpt><trkpt lat="37.8373117" lon="15.1150383"><ele>674.0</ele><time>2026-04-18T09:55:50.117Z</time></trkpt><trkpt lat="37.8372183" lon="15.1148717"><ele>674.6666666666666</ele><time>2026-04-18T09:55:51.117Z</time></trkpt><trkpt lat="37.837135" lon="15.1146933"><ele>675.3333333333334</ele><time>2026-04-18T09:55:52.117Z</time></trkpt><trkpt lat="37.8370517" lon="15.1144967"><ele>676.0</ele><time>2026-04-18T09:55:53.117Z</time></trkpt><trkpt lat="37.8369583" lon="15.1142917"><ele>676.0</ele><time>2026-04-18T09:55:54.117Z</time></trkpt><trkpt lat="37.8368633" lon="15.1140717"><ele>676.0</ele><time>2026-04-18T09:55:55.116Z</time></trkpt><trkpt lat="37.8367667" lon="15.113835"><ele>676.0</ele><time>2026-04-18T09:55:56.117Z</time></trkpt><trkpt lat="37.836675" lon="15.113595"><ele>678.6666666666667</ele><time>2026-04-18T09:55:57.117Z</time></trkpt><trkpt lat="37.8365733" lon="15.1133667"><ele>681.3333333333334</ele><time>2026-04-18T09:55:58.116Z</time></trkpt><trkpt lat="37.836495" lon="15.1131667"><ele>684.0</ele><time>2026-04-18T09:55:59.117Z</time></trkpt><trkpt lat="37.8364133" lon="15.1129833"><ele>685.3333333333334</ele><time>2026-04-18T09:56:00.117Z</time></trkpt><trkpt lat="37.8363333" lon="15.1128067"><ele>686.6666666666667</ele><time>2026-04-18T09:56:01.117Z</time></trkpt><trkpt lat="37.8362617" lon="15.11264"><ele>688.0</ele><time>2026-04-18T09:56:02.117Z</time></trkpt><trkpt lat="37.8361883" lon="15.1124683"><ele>688.75</ele><time>2026-04-18T09:56:03.116Z</time></trkpt><trkpt lat="37.8361183" lon="15.11232"><ele>689.5</ele><time>2026-04-18T09:56:04.117Z</time></trkpt><trkpt lat="37.8360467" lon="15.112165"><ele>690.25</ele><time>2026-04-18T09:56:05.117Z</time></trkpt><trkpt lat="37.83597" lon="15.1120117"><ele>691.0</ele><time>2026-04-18T09:56:06.117Z</time></trkpt><trkpt lat="37.8358683" lon="15.111855"><ele>691.6666666666667</ele><time>2026-04-18T09:56:07.117Z</time></trkpt><trkpt lat="37.835755" lon="15.11169"><ele>692.3333333333334</ele><time>2026-04-18T09:56:08.117Z</time></trkpt><trkpt lat="37.8356533" lon="15.111525"><ele>693.0</ele><time>2026-04-18T09:56:09.117Z</time></trkpt><trkpt lat="37.8355583" lon="15.1113617"><ele>693.75</ele><time>2026-04-18T09:56:10.117Z</time></trkpt><trkpt lat="37.835475" lon="15.111225"><ele>694.5</ele><time>2026-04-18T09:56:11.117Z</time></trkpt><trkpt lat="37.8353867" lon="15.1110967"><ele>695.25</ele><time>2026-04-18T09:56:12.117Z</time></trkpt><trkpt lat="37.8352983" lon="15.11099"><ele>696.0</ele><time>2026-04-18T09:56:13.117Z</time></trkpt><trkpt lat="37.8352083" lon="15.11091"><ele>697.0</ele><time>2026-04-18T09:56:14.117Z</time></trkpt><trkpt lat="37.8351133" lon="15.11085"><ele>698.0</ele><time>2026-04-18T09:56:15.117Z</time></trkpt><trkpt lat="37.8350033" lon="15.1107983"><ele>699.0</ele><time>2026-04-18T09:56:16.117Z</time></trkpt><trkpt lat="37.834905" lon="15.1107567"><ele>700.0</ele><time>2026-04-18T09:56:17.117Z</time></trkpt><trkpt lat="37.8348017" lon="15.1107067"><ele>701.0</ele><time>2026-04-18T09:56:18.116Z</time></trkpt><trkpt lat="37.8346967" lon="15.1106517"><ele>702.25</ele><time>2026-04-18T09:56:19.116Z</time></trkpt><trkpt lat="37.8345967" lon="15.11059"><ele>703.5</ele><time>2026-04-18T09:56:20.117Z</time></trkpt><trkpt lat="37.834495" lon="15.1105117"><ele>704.75</ele><time>2026-04-18T09:56:21.116Z</time></trkpt><trkpt lat="37.83439" lon="15.11044"><ele>706.0</ele><time>2026-04-18T09:56:22.117Z</time></trkpt><trkpt lat="37.8342933" lon="15.110365"><ele>706.4</ele><time>2026-04-18T09:56:23.117Z</time></trkpt><trkpt lat="37.8342" lon="15.1102833"><ele>706.8</ele><time>2026-04-18T09:56:24.116Z</time></trkpt><trkpt lat="37.8341067" lon="15.1101933"><ele>707.1999999999999</ele><time>2026-04-18T09:56:25.117Z</time></trkpt><trkpt lat="37.8340333" lon="15.110095"><ele>707.5999999999999</ele><time>2026-04-18T09:56:26.117Z</time></trkpt><trkpt lat="37.8339633" lon="15.1099917"><ele>708.0</ele><time>2026-04-18T09:56:27.117Z</time></trkpt><trkpt lat="37.8338967" lon="15.109885"><ele>708.8</ele><time>2026-04-18T09:56:28.117Z</time></trkpt><trkpt lat="37.8338367" lon="15.1097717"><ele>709.5999999999999</ele><time>2026-04-18T09:56:29.117Z</time></trkpt><trkpt lat="37.8337917" lon="15.1096483"><ele>710.4000000000001</ele><time>2026-04-18T09:56:30.117Z</time></trkpt><trkpt lat="37.8337433" lon="15.1095233"><ele>711.2</ele><time>2026-04-18T09:56:31.116Z</time></trkpt><trkpt lat="37.8336933" lon="15.1094083"><ele>712.0</ele><time>2026-04-18T09:56:32.117Z</time></trkpt><trkpt lat="37.833645" lon="15.1092933"><ele>712.0</ele><time>2026-04-18T09:56:33.117Z</time></trkpt><trkpt lat="37.8336083" lon="15.1091983"><ele>712.0</ele><time>2026-04-18T09:56:34.117Z</time></trkpt><trkpt lat="37.8335467" lon="15.1090983"><ele>712.0</ele><time>2026-04-18T09:56:35.117Z</time></trkpt><trkpt lat="37.8334867" lon="15.10899"><ele>712.0</ele><time>2026-04-18T09:56:36.117Z</time></trkpt><trkpt lat="37.833415" lon="15.1088633"><ele>712.0</ele><time>2026-04-18T09:56:37.117Z</time></trkpt><trkpt lat="37.83332" lon="15.108705"><ele>713.6666666666667</ele><time>2026-04-18T09:56:38.117Z</time></trkpt><trkpt lat="37.8332217" lon="15.1085433"><ele>715.3333333333334</ele><time>2026-04-18T09:56:39.117Z</time></trkpt><trkpt lat="37.8331067" lon="15.1083633"><ele>717.0</ele><time>2026-04-18T09:56:40.117Z</time></trkpt><trkpt lat="37.8330117" lon="15.10819"><ele>720.0</ele><time>2026-04-18T09:56:41.117Z</time></trkpt><trkpt lat="37.83293" lon="15.10806"><ele>723.0</ele><time>2026-04-18T09:56:42.117Z</time></trkpt><trkpt lat="37.83283" lon="15.107965"><ele>726.0</ele><time>2026-04-18T09:56:43.117Z</time></trkpt><trkpt lat="37.8327133" lon="15.1079233"><ele>729.0</ele><time>2026-04-18T09:56:44.117Z</time></trkpt><trkpt lat="37.8326033" lon="15.107945"><ele>728.0</ele><time>2026-04-18T09:56:45.117Z</time></trkpt><trkpt lat="37.8324933" lon="15.10802"><ele>727.0</ele><time>2026-04-18T09:56:46.117Z</time></trkpt><trkpt lat="37.8323783" lon="15.1081217"><ele>726.0</ele><time>2026-04-18T09:56:47.117Z</time></trkpt><trkpt lat="37.83226" lon="15.1082317"><ele>725.0</ele><time>2026-04-18T09:56:48.117Z</time></trkpt><trkpt lat="37.8321217" lon="15.10833"><ele>725.0</ele><time>2026-04-18T09:56:49.117Z</time></trkpt><trkpt lat="37.831985" lon="15.1084067"><ele>725.0</ele><time>2026-04-18T09:56:50.117Z</time></trkpt><trkpt lat="37.83184" lon="15.108435"><ele>725.0</ele><time>2026-04-18T09:56:51.117Z</time></trkpt><trkpt lat="37.83169" lon="15.1084117"><ele>725.0</ele><time>2026-04-18T09:56:52.117Z</time></trkpt><trkpt lat="37.8315367" lon="15.1083467"><ele>729.0</ele><time>2026-04-18T09:56:53.117Z</time></trkpt><trkpt lat="37.83136" lon="15.1082717"><ele>733.0</ele><time>2026-04-18T09:56:54.117Z</time></trkpt><trkpt lat="37.831165" lon="15.10821"><ele>737.0</ele><time>2026-04-18T09:56:55.117Z</time></trkpt><trkpt lat="37.8309583" lon="15.108165"><ele>742.0</ele><time>2026-04-18T09:56:56.117Z</time></trkpt><trkpt lat="37.8307383" lon="15.1081533"><ele>747.0</ele><time>2026-04-18T09:56:57.117Z</time></trkpt><trkpt lat="37.83051" lon="15.1081683"><ele>752.0</ele><time>2026-04-18T09:56:58.117Z</time></trkpt><trkpt lat="37.830295" lon="15.1081933"><ele>751.6666666666666</ele><time>2026-04-18T09:56:59.116Z</time></trkpt><trkpt lat="37.83009" lon="15.108225"><ele>751.3333333333334</ele><time>2026-04-18T09:57:00.117Z</time></trkpt><trkpt lat="37.8298883" lon="15.1082617"><ele>751.0</ele><time>2026-04-18T09:57:01.117Z</time></trkpt><trkpt lat="37.829705" lon="15.108305"><ele>751.0</ele><time>2026-04-18T09:57:02.117Z</time></trkpt><trkpt lat="37.829535" lon="15.1083683"><ele>751.0</ele><time>2026-04-18T09:57:03.117Z</time></trkpt><trkpt lat="37.8293733" lon="15.1084683"><ele>751.0</ele><time>2026-04-18T09:57:04.117Z</time></trkpt><trkpt lat="37.8292167" lon="15.1086083"><ele>751.6666666666667</ele><time>2026-04-18T09:57:05.117Z</time></trkpt><trkpt lat="37.8290767" lon="15.10879"><ele>752.3333333333334</ele><time>2026-04-18T09:57:06.117Z</time></trkpt><trkpt lat="37.8289317" lon="15.1090033"><ele>753.0</ele><time>2026-04-18T09:57:07.117Z</time></trkpt><trkpt lat="37.8287733" lon="15.1092367"><ele>753.0</ele><time>2026-04-18T09:57:08.117Z</time></trkpt><trkpt lat="37.8285933" lon="15.1094733"><ele>753.0</ele><time>2026-04-18T09:57:09.117Z</time></trkpt><trkpt lat="37.8284117" lon="15.10971"><ele>756.0</ele><time>2026-04-18T09:57:10.116Z</time></trkpt><trkpt lat="37.8282133" lon="15.1099283"><ele>759.0</ele><time>2026-04-18T09:57:11.117Z</time></trkpt><trkpt lat="37.8279983" lon="15.1101283"><ele>759.0</ele><time>2026-04-18T09:57:12.117Z</time></trkpt><trkpt lat="37.827765" lon="15.1103367"><ele>759.0</ele><time>2026-04-18T09:57:13.117Z</time></trkpt><trkpt lat="37.8275233" lon="15.11054"><ele>761.0</ele><time>2026-04-18T09:57:14.117Z</time></trkpt><trkpt lat="37.8272967" lon="15.1107317"><ele>763.0</ele><time>2026-04-18T09:57:15.117Z</time></trkpt><trkpt lat="37.827095" lon="15.1109"><ele>763.0</ele><time>2026-04-18T09:57:16.117Z</time></trkpt><trkpt lat="37.82691" lon="15.1110517"><ele>763.0</ele><time>2026-04-18T09:57:17.117Z</time></trkpt><trkpt lat="37.82674" lon="15.1111933"><ele>763.0</ele><time>2026-04-18T09:57:18.117Z</time></trkpt><trkpt lat="37.82659" lon="15.11132"><ele>766.0</ele><time>2026-04-18T09:57:19.117Z</time></trkpt><trkpt lat="37.826445" lon="15.1114483"><ele>769.0</ele><time>2026-04-18T09:57:20.116Z</time></trkpt><trkpt lat="37.8263267" lon="15.111565"><ele>772.0</ele><time>2026-04-18T09:57:21.117Z</time></trkpt><trkpt lat="37.82625" lon="15.1116983"><ele>772.0</ele><time>2026-04-18T09:57:22.117Z</time></trkpt><trkpt lat="37.8262233" lon="15.11185"><ele>772.0</ele><time>2026-04-18T09:57:23.117Z</time></trkpt><trkpt lat="37.8262267" lon="15.1120017"><ele>772.0</ele><time>2026-04-18T09:57:24.117Z</time></trkpt><trkpt lat="37.8262233" lon="15.1121417"><ele>772.0</ele><time>2026-04-18T09:57:25.117Z</time></trkpt><trkpt lat="37.8262" lon="15.11226"><ele>772.0</ele><time>2026-04-18T09:57:26.116Z</time></trkpt><trkpt lat="37.82613" lon="15.11233"><ele>772.0</ele><time>2026-04-18T09:57:27.117Z</time></trkpt><trkpt lat="37.826035" lon="15.112375"><ele>772.0</ele><time>2026-04-18T09:57:28.117Z</time></trkpt><trkpt lat="37.82592" lon="15.1123983"><ele>772.0</ele><time>2026-04-18T09:57:29.117Z</time></trkpt><trkpt lat="37.8258067" lon="15.112415"><ele>772.0</ele><time>2026-04-18T09:57:30.117Z</time></trkpt><trkpt lat="37.82569" lon="15.1124117"><ele>776.4000000000001</ele><time>2026-04-18T09:57:31.117Z</time></trkpt><trkpt lat="37.8255967" lon="15.11237"><ele>780.8000000000001</ele><time>2026-04-18T09:57:32.117Z</time></trkpt><trkpt lat="37.8255367" lon="15.112285"><ele>785.2</ele><time>2026-04-18T09:57:33.117Z</time></trkpt><trkpt lat="37.8255117" lon="15.1121583"><ele>789.6</ele><time>2026-04-18T09:57:34.117Z</time></trkpt><trkpt lat="37.82553" lon="15.1120333"><ele>794.0</ele><time>2026-04-18T09:57:35.116Z</time></trkpt><trkpt lat="37.8255917" lon="15.11192"><ele>794.0</ele><time>2026-04-18T09:57:36.117Z</time></trkpt><trkpt lat="37.825695" lon="15.1118117"><ele>794.0</ele><time>2026-04-18T09:57:37.117Z</time></trkpt><trkpt lat="37.8257933" lon="15.1116967"><ele>794.0</ele><time>2026-04-18T09:57:38.117Z</time></trkpt><trkpt lat="37.82586" lon="15.1115467"><ele>794.0</ele><time>2026-04-18T09:57:39.117Z</time></trkpt><trkpt lat="37.8259167" lon="15.11138"><ele>794.75</ele><time>2026-04-18T09:57:40.117Z</time></trkpt><trkpt lat="37.8259333" lon="15.1112183"><ele>795.5</ele><time>2026-04-18T09:57:41.117Z</time></trkpt><trkpt lat="37.8258917" lon="15.111055"><ele>796.25</ele><time>2026-04-18T09:57:42.117Z</time></trkpt><trkpt lat="37.8258067" lon="15.1108967"><ele>797.0</ele><time>2026-04-18T09:57:43.116Z</time></trkpt><trkpt lat="37.8256917" lon="15.11072"><ele>798.0</ele><time>2026-04-18T09:57:44.117Z</time></trkpt><trkpt lat="37.82556" lon="15.1105217"><ele>799.0</ele><time>2026-04-18T09:57:45.117Z</time></trkpt><trkpt lat="37.8254067" lon="15.11031"><ele>800.0</ele><time>2026-04-18T09:57:46.117Z</time></trkpt><trkpt lat="37.8252633" lon="15.110105"><ele>804.3333333333334</ele><time>2026-04-18T09:57:47.117Z</time></trkpt><trkpt lat="37.8251433" lon="15.1099333"><ele>808.6666666666667</ele><time>2026-04-18T09:57:48.117Z</time></trkpt><trkpt lat="37.8250483" lon="15.10978"><ele>813.0</ele><time>2026-04-18T09:57:49.117Z</time></trkpt><trkpt lat="37.82497" lon="15.1096183"><ele>813.0</ele><time>2026-04-18T09:57:50.117Z</time></trkpt><trkpt lat="37.8249183" lon="15.1094417"><ele>813.0</ele><time>2026-04-18T09:57:51.117Z</time></trkpt><trkpt lat="37.8248917" lon="15.1092417"><ele>813.0</ele><time>2026-04-18T09:57:52.117Z</time></trkpt><trkpt lat="37.8249083" lon="15.109035"><ele>816.0</ele><time>2026-04-18T09:57:53.117Z</time></trkpt><trkpt lat="37.82495" lon="15.1088117"><ele>819.0</ele><time>2026-04-18T09:57:54.117Z</time></trkpt><trkpt lat="37.8249967" lon="15.1085817"><ele>822.0</ele><time>2026-04-18T09:57:55.117Z</time></trkpt><trkpt lat="37.8250533" lon="15.1083633"><ele>823.0</ele><time>2026-04-18T09:57:56.117Z</time></trkpt><trkpt lat="37.8250933" lon="15.1081733"><ele>824.0</ele><time>2026-04-18T09:57:57.117Z</time></trkpt><trkpt lat="37.8251467" lon="15.107995"><ele>825.0</ele><time>2026-04-18T09:57:58.117Z</time></trkpt><trkpt lat="37.82521" lon="15.1078417"><ele>826.0</ele><time>2026-04-18T09:57:59.117Z</time></trkpt><trkpt lat="37.82531" lon="15.1077117"><ele>826.0</ele><time>2026-04-18T09:58:00.116Z</time></trkpt><trkpt lat="37.8254367" lon="15.107605"><ele>826.0</ele><time>2026-04-18T09:58:01.117Z</time></trkpt><trkpt lat="37.8255683" lon="15.10749"><ele>826.0</ele><time>2026-04-18T09:58:02.117Z</time></trkpt><trkpt lat="37.8256917" lon="15.10733"><ele>826.0</ele><time>2026-04-18T09:58:03.117Z</time></trkpt><trkpt lat="37.8258" lon="15.10714"><ele>826.0</ele><time>2026-04-18T09:58:04.117Z</time></trkpt><trkpt lat="37.825905" lon="15.1069517"><ele>826.0</ele><time>2026-04-18T09:58:05.117Z</time></trkpt><trkpt lat="37.8259867" lon="15.1067867"><ele>826.0</ele><time>2026-04-18T09:58:06.117Z</time></trkpt><trkpt lat="37.82605" lon="15.1066317"><ele>826.0</ele><time>2026-04-18T09:58:07.117Z</time></trkpt><trkpt lat="37.826085" lon="15.106475"><ele>826.0</ele><time>2026-04-18T09:58:08.117Z</time></trkpt><trkpt lat="37.8260733" lon="15.1063083"><ele>826.0</ele><time>2026-04-18T09:58:09.117Z</time></trkpt><trkpt lat="37.8260433" lon="15.1061383"><ele>827.5</ele><time>2026-04-18T09:58:10.117Z</time></trkpt><trkpt lat="37.826035" lon="15.1059633"><ele>829.0</ele><time>2026-04-18T09:58:11.117Z</time></trkpt><trkpt lat="37.8260733" lon="15.1058067"><ele>830.5</ele><time>2026-04-18T09:58:12.117Z</time></trkpt><trkpt lat="37.8261617" lon="15.1056783"><ele>832.0</ele><time>2026-04-18T09:58:13.117Z</time></trkpt><trkpt lat="37.8262683" lon="15.105585"><ele>835.0</ele><time>2026-04-18T09:58:14.117Z</time></trkpt><trkpt lat="37.82639" lon="15.1055333"><ele>838.0</ele><time>2026-04-18T09:58:15.117Z</time></trkpt><trkpt lat="37.8265167" lon="15.1054967"><ele>841.0</ele><time>2026-04-18T09:58:16.117Z</time></trkpt><trkpt lat="37.826625" lon="15.1054467"><ele>844.0</ele><time>2026-04-18T09:58:17.117Z</time></trkpt><trkpt lat="37.8267083" lon="15.1053483"><ele>844.0</ele><time>2026-04-18T09:58:18.117Z</time></trkpt><trkpt lat="37.826755" lon="15.1052083"><ele>844.0</ele><time>2026-04-18T09:58:19.117Z</time></trkpt><trkpt lat="37.8267583" lon="15.10506"><ele>844.0</ele><time>2026-04-18T09:58:20.117Z</time></trkpt><trkpt lat="37.8267167" lon="15.1049233"><ele>844.0</ele><time>2026-04-18T09:58:21.117Z</time></trkpt><trkpt lat="37.8266217" lon="15.1048283"><ele>844.0</ele><time>2026-04-18T09:58:22.117Z</time></trkpt><trkpt lat="37.8265133" lon="15.10477"><ele>844.0</ele><time>2026-04-18T09:58:23.117Z</time></trkpt><trkpt lat="37.8263983" lon="15.10478"><ele>844.0</ele><time>2026-04-18T09:58:24.117Z</time></trkpt><trkpt lat="37.8262867" lon="15.1048433"><ele>844.0</ele><time>2026-04-18T09:58:25.117Z</time></trkpt><trkpt lat="37.8261883" lon="15.1049517"><ele>844.0</ele><time>2026-04-18T09:58:26.117Z</time></trkpt><trkpt lat="37.8260983" lon="15.1050833"><ele>844.0</ele><time>2026-04-18T09:58:27.117Z</time></trkpt><trkpt lat="37.8260033" lon="15.1052117"><ele>844.0</ele><time>2026-04-18T09:58:28.117Z</time></trkpt><trkpt lat="37.8259033" lon="15.105345"><ele>844.0</ele><time>2026-04-18T09:58:29.117Z</time></trkpt><trkpt lat="37.8258" lon="15.1054817"><ele>844.5</ele><time>2026-04-18T09:58:30.117Z</time></trkpt><trkpt lat="37.8256883" lon="15.10561"><ele>845.0</ele><time>2026-04-18T09:58:31.117Z</time></trkpt><trkpt lat="37.82557" lon="15.10572"><ele>845.5</ele><time>2026-04-18T09:58:32.117Z</time></trkpt><trkpt lat="37.82545" lon="15.1058033"><ele>846.0</ele><time>2026-04-18T09:58:33.117Z</time></trkpt><trkpt lat="37.8252983" lon="15.105825"><ele>851.0</ele><time>2026-04-18T09:58:34.117Z</time></trkpt><trkpt lat="37.8251383" lon="15.1058117"><ele>856.0</ele><time>2026-04-18T09:58:35.116Z</time></trkpt><trkpt lat="37.8249783" lon="15.10579"><ele>861.0</ele><time>2026-04-18T09:58:36.116Z</time></trkpt><trkpt lat="37.8248083" lon="15.1057967"><ele>861.0</ele><time>2026-04-18T09:58:37.117Z</time></trkpt><trkpt lat="37.8246333" lon="15.105845"><ele>861.0</ele><time>2026-04-18T09:58:38.116Z</time></trkpt><trkpt lat="37.824455" lon="15.1059283"><ele>861.0</ele><time>2026-04-18T09:58:39.117Z</time></trkpt><trkpt lat="37.8242833" lon="15.1060367"><ele>866.6666666666667</ele><time>2026-04-18T09:58:40.117Z</time></trkpt><trkpt lat="37.82414" lon="15.10617"><ele>872.3333333333334</ele><time>2026-04-18T09:58:41.117Z</time></trkpt><trkpt lat="37.82402" lon="15.10631"><ele>878.0</ele><time>2026-04-18T09:58:42.116Z</time></trkpt><trkpt lat="37.8239167" lon="15.1064317"><ele>878.0</ele><time>2026-04-18T09:58:43.117Z</time></trkpt><trkpt lat="37.82381" lon="15.1065"><ele>878.0</ele><time>2026-04-18T09:58:44.117Z</time></trkpt><trkpt lat="37.82368" lon="15.1065"><ele>878.0</ele><time>2026-04-18T09:58:45.117Z</time></trkpt><trkpt lat="37.82353" lon="15.1064417"><ele>878.0</ele><time>2026-04-18T09:58:46.117Z</time></trkpt><trkpt lat="37.8233583" lon="15.1063517"><ele>882.0</ele><time>2026-04-18T09:58:47.117Z</time></trkpt><trkpt lat="37.823175" lon="15.1062817"><ele>886.0</ele><time>2026-04-18T09:58:48.117Z</time></trkpt><trkpt lat="37.823" lon="15.1062033"><ele>890.0</ele><time>2026-04-18T09:58:49.117Z</time></trkpt><trkpt lat="37.8228433" lon="15.106155"><ele>890.0</ele><time>2026-04-18T09:58:50.116Z</time></trkpt><trkpt lat="37.82269" lon="15.1061283"><ele>890.0</ele><time>2026-04-18T09:58:51.117Z</time></trkpt><trkpt lat="37.822535" lon="15.106165"><ele>890.0</ele><time>2026-04-18T09:58:52.117Z</time></trkpt><trkpt lat="37.8223933" lon="15.10625"><ele>887.6666666666667</ele><time>2026-04-18T09:58:53.117Z</time></trkpt><trkpt lat="37.82227" lon="15.1063817"><ele>885.3333333333333</ele><time>2026-04-18T09:58:54.117Z</time></trkpt><trkpt lat="37.82215" lon="15.106555"><ele>883.0</ele><time>2026-04-18T09:58:55.117Z</time></trkpt><trkpt lat="37.822055" lon="15.1067333"><ele>883.0</ele><time>2026-04-18T09:58:56.117Z</time></trkpt><trkpt lat="37.8219783" lon="15.1069033"><ele>883.0</ele><time>2026-04-18T09:58:57.117Z</time></trkpt><trkpt lat="37.821905" lon="15.1070483"><ele>883.0</ele><time>2026-04-18T09:58:58.117Z</time></trkpt><trkpt lat="37.8218" lon="15.10718"><ele>883.0</ele><time>2026-04-18T09:58:59.116Z</time></trkpt><trkpt lat="37.821675" lon="15.1072817"><ele>888.0</ele><time>2026-04-18T09:59:00.117Z</time></trkpt><trkpt lat="37.8215433" lon="15.1073483"><ele>893.0</ele><time>2026-04-18T09:59:01.117Z</time></trkpt><trkpt lat="37.8214067" lon="15.10737"><ele>898.0</ele><time>2026-04-18T09:59:02.117Z</time></trkpt><trkpt lat="37.821275" lon="15.1073583"><ele>903.0</ele><time>2026-04-18T09:59:03.117Z</time></trkpt><trkpt lat="37.8211433" lon="15.1073"><ele>903.0</ele><time>2026-04-18T09:59:04.117Z</time></trkpt><trkpt lat="37.821005" lon="15.1071883"><ele>903.0</ele><time>2026-04-18T09:59:05.117Z</time></trkpt><trkpt lat="37.8208367" lon="15.1070483"><ele>903.0</ele><time>2026-04-18T09:59:06.117Z</time></trkpt><trkpt lat="37.8206533" lon="15.1068833"><ele>908.0</ele><time>2026-04-18T09:59:07.117Z</time></trkpt><trkpt lat="37.8204617" lon="15.1067083"><ele>913.0</ele><time>2026-04-18T09:59:08.117Z</time></trkpt><trkpt lat="37.82028" lon="15.10656"><ele>918.0</ele><time>2026-04-18T09:59:09.117Z</time></trkpt><trkpt lat="37.8201017" lon="15.10641"><ele>923.0</ele><time>2026-04-18T09:59:10.117Z</time></trkpt><trkpt lat="37.8199217" lon="15.10623"><ele>928.0</ele><time>2026-04-18T09:59:11.117Z</time></trkpt><trkpt lat="37.8197767" lon="15.10605"><ele>928.0</ele><time>2026-04-18T09:59:12.117Z</time></trkpt><trkpt lat="37.81965" lon="15.1058833"><ele>928.0</ele><time>2026-04-18T09:59:13.117Z</time></trkpt><trkpt lat="37.8195283" lon="15.1057433"><ele>928.0</ele><time>2026-04-18T09:59:14.117Z</time></trkpt><trkpt lat="37.819405" lon="15.1056433"><ele>926.5</ele><time>2026-04-18T09:59:15.117Z</time></trkpt><trkpt lat="37.8192733" lon="15.105585"><ele>925.0</ele><time>2026-04-18T09:59:16.117Z</time></trkpt><trkpt lat="37.8191333" lon="15.1055767"><ele>923.5</ele><time>2026-04-18T09:59:17.117Z</time></trkpt><trkpt lat="37.8189933" lon="15.1056383"><ele>922.0</ele><time>2026-04-18T09:59:18.117Z</time></trkpt><trkpt lat="37.8188733" lon="15.105755"><ele>922.0</ele><time>2026-04-18T09:59:19.117Z</time></trkpt><trkpt lat="37.818765" lon="15.1058983"><ele>922.0</ele><time>2026-04-18T09:59:20.117Z</time></trkpt><trkpt lat="37.81867" lon="15.1060167"><ele>922.0</ele><time>2026-04-18T09:59:21.117Z</time></trkpt><trkpt lat="37.8185733" lon="15.106125"><ele>922.0</ele><time>2026-04-18T09:59:22.117Z</time></trkpt><trkpt lat="37.8184683" lon="15.106195"><ele>923.8</ele><time>2026-04-18T09:59:23.117Z</time></trkpt><trkpt lat="37.8183667" lon="15.1062083"><ele>925.6</ele><time>2026-04-18T09:59:24.117Z</time></trkpt><trkpt lat="37.8182783" lon="15.10617"><ele>927.3999999999999</ele><time>2026-04-18T09:59:25.117Z</time></trkpt><trkpt lat="37.8182083" lon="15.106075"><ele>929.1999999999999</ele><time>2026-04-18T09:59:26.117Z</time></trkpt><trkpt lat="37.8181717" lon="15.105965"><ele>931.0</ele><time>2026-04-18T09:59:27.116Z</time></trkpt><trkpt lat="37.818185" lon="15.105855"><ele>933.25</ele><time>2026-04-18T09:59:28.117Z</time></trkpt><trkpt lat="37.8182267" lon="15.1057367"><ele>935.5</ele><time>2026-04-18T09:59:29.117Z</time></trkpt><trkpt lat="37.8183033" lon="15.1056217"><ele>937.75</ele><time>2026-04-18T09:59:30.117Z</time></trkpt><trkpt lat="37.8184483" lon="15.105485"><ele>940.0</ele><time>2026-04-18T09:59:31.117Z</time></trkpt><trkpt lat="37.8186" lon="15.10533"><ele>941.0</ele><time>2026-04-18T09:59:32.116Z</time></trkpt><trkpt lat="37.8187283" lon="15.1051933"><ele>942.0</ele><time>2026-04-18T09:59:33.117Z</time></trkpt><trkpt lat="37.8188733" lon="15.1050933"><ele>943.0</ele><time>2026-04-18T09:59:34.117Z</time></trkpt><trkpt lat="37.8190233" lon="15.1050317"><ele>943.0</ele><time>2026-04-18T09:59:35.117Z</time></trkpt><trkpt lat="37.819185" lon="15.10502"><ele>943.0</ele><time>2026-04-18T09:59:36.117Z</time></trkpt><trkpt lat="37.8193533" lon="15.1050533"><ele>943.0</ele><time>2026-04-18T09:59:37.116Z</time></trkpt><trkpt lat="37.8195167" lon="15.1051117"><ele>943.75</ele><time>2026-04-18T09:59:38.117Z</time></trkpt><trkpt lat="37.8196683" lon="15.1051633"><ele>944.5</ele><time>2026-04-18T09:59:39.117Z</time></trkpt><trkpt lat="37.8198133" lon="15.1051733"><ele>945.25</ele><time>2026-04-18T09:59:40.117Z</time></trkpt><trkpt lat="37.8199433" lon="15.10514"><ele>946.0</ele><time>2026-04-18T09:59:41.117Z</time></trkpt><trkpt lat="37.8200583" lon="15.1050533"><ele>946.0</ele><time>2026-04-18T09:59:42.117Z</time></trkpt><trkpt lat="37.8201633" lon="15.1049083"><ele>946.0</ele><time>2026-04-18T09:59:43.117Z</time></trkpt><trkpt lat="37.8202733" lon="15.1047183"><ele>946.0</ele><time>2026-04-18T09:59:44.117Z</time></trkpt><trkpt lat="37.8203817" lon="15.104495"><ele>946.0</ele><time>2026-04-18T09:59:45.117Z</time></trkpt><trkpt lat="37.82048" lon="15.1042667"><ele>946.0</ele><time>2026-04-18T09:59:46.117Z</time></trkpt><trkpt lat="37.8205817" lon="15.104055"><ele>946.0</ele><time>2026-04-18T09:59:47.117Z</time></trkpt><trkpt lat="37.820665" lon="15.10382"><ele>950.3333333333333</ele><time>2026-04-18T09:59:48.117Z</time></trkpt><trkpt lat="37.820725" lon="15.10357"><ele>954.6666666666667</ele><time>2026-04-18T09:59:49.117Z</time></trkpt><trkpt lat="37.8207733" lon="15.1033483"><ele>959.0</ele><time>2026-04-18T09:59:50.117Z</time></trkpt><trkpt lat="37.8208033" lon="15.103155"><ele>959.0</ele><time>2026-04-18T09:59:51.117Z</time></trkpt><trkpt lat="37.8207933" lon="15.1029733"><ele>959.0</ele><time>2026-04-18T09:59:52.117Z</time></trkpt><trkpt lat="37.8207383" lon="15.1028083"><ele>959.0</ele><time>2026-04-18T09:59:53.117Z</time></trkpt><trkpt lat="37.82064" lon="15.102665"><ele>959.0</ele><time>2026-04-18T09:59:54.117Z</time></trkpt><trkpt lat="37.8205067" lon="15.1025633"><ele>959.0</ele><time>2026-04-18T09:59:55.117Z</time></trkpt><trkpt lat="37.82034" lon="15.1024917"><ele>959.0</ele><time>2026-04-18T09:59:56.117Z</time></trkpt><trkpt lat="37.820145" lon="15.1024417"><ele>959.0</ele><time>2026-04-18T09:59:57.117Z</time></trkpt><trkpt lat="37.81995" lon="15.1024017"><ele>962.6666666666667</ele><time>2026-04-18T09:59:58.117Z</time></trkpt><trkpt lat="37.819775" lon="15.1023367"><ele>966.3333333333333</ele><time>2026-04-18T09:59:59.117Z</time></trkpt><trkpt lat="37.81962" lon="15.1022467"><ele>970.0</ele><time>2026-04-18T10:00:00.117Z</time></trkpt><trkpt lat="37.8194983" lon="15.1021217"><ele>970.0</ele><time>2026-04-18T10:00:01.117Z</time></trkpt><trkpt lat="37.8194267" lon="15.1019617"><ele>970.0</ele><time>2026-04-18T10:00:02.117Z</time></trkpt><trkpt lat="37.8194133" lon="15.1017917"><ele>970.0</ele><time>2026-04-18T10:00:03.117Z</time></trkpt><trkpt lat="37.819425" lon="15.1016"><ele>970.0</ele><time>2026-04-18T10:00:04.117Z</time></trkpt><trkpt lat="37.819425" lon="15.1013917"><ele>972.6666666666666</ele><time>2026-04-18T10:00:05.117Z</time></trkpt><trkpt lat="37.81938" lon="15.101185"><ele>975.3333333333333</ele><time>2026-04-18T10:00:06.117Z</time></trkpt><trkpt lat="37.819295" lon="15.1010217"><ele>978.0</ele><time>2026-04-18T10:00:07.117Z</time></trkpt><trkpt lat="37.8191733" lon="15.100895"><ele>979.5</ele><time>2026-04-18T10:00:08.117Z</time></trkpt><trkpt lat="37.8190583" lon="15.100825"><ele>981.0</ele><time>2026-04-18T10:00:09.117Z</time></trkpt><trkpt lat="37.8189283" lon="15.1007867"><ele>982.5</ele><time>2026-04-18T10:00:10.117Z</time></trkpt><trkpt lat="37.8187967" lon="15.1007883"><ele>984.0</ele><time>2026-04-18T10:00:11.117Z</time></trkpt><trkpt lat="37.818675" lon="15.1008467"><ele>984.0</ele><time>2026-04-18T10:00:12.117Z</time></trkpt><trkpt lat="37.81856" lon="15.100955"><ele>984.0</ele><time>2026-04-18T10:00:13.117Z</time></trkpt><trkpt lat="37.81846" lon="15.101085"><ele>984.0</ele><time>2026-04-18T10:00:14.117Z</time></trkpt><trkpt lat="37.81835" lon="15.1012033"><ele>984.0</ele><time>2026-04-18T10:00:15.117Z</time></trkpt><trkpt lat="37.8182167" lon="15.1012933"><ele>986.75</ele><time>2026-04-18T10:00:16.117Z</time></trkpt><trkpt lat="37.8180783" lon="15.101305"><ele>989.5</ele><time>2026-04-18T10:00:17.117Z</time></trkpt><trkpt lat="37.81794" lon="15.1012667"><ele>992.25</ele><time>2026-04-18T10:00:18.117Z</time></trkpt><trkpt lat="37.817805" lon="15.1011517"><ele>995.0</ele><time>2026-04-18T10:00:19.117Z</time></trkpt><trkpt lat="37.817665" lon="15.10101"><ele>997.6666666666667</ele><time>2026-04-18T10:00:20.117Z</time></trkpt><trkpt lat="37.8175117" lon="15.1008933"><ele>1000.3333333333333</ele><time>2026-04-18T10:00:21.117Z</time></trkpt><trkpt lat="37.8173467" lon="15.1008283"><ele>1003.0</ele><time>2026-04-18T10:00:22.117Z</time></trkpt><trkpt lat="37.8171883" lon="15.100815"><ele>1003.0</ele><time>2026-04-18T10:00:23.117Z</time></trkpt><trkpt lat="37.8170433" lon="15.1008617"><ele>1003.0</ele><time>2026-04-18T10:00:24.117Z</time></trkpt><trkpt lat="37.8169267" lon="15.1009617"><ele>1003.0</ele><time>2026-04-18T10:00:25.117Z</time></trkpt><trkpt lat="37.81681" lon="15.101055"><ele>1003.0</ele><time>2026-04-18T10:00:26.117Z</time></trkpt><trkpt lat="37.816695" lon="15.101095"><ele>1005.0</ele><time>2026-04-18T10:00:27.117Z</time></trkpt><trkpt lat="37.8165667" lon="15.1010817"><ele>1007.0</ele><time>2026-04-18T10:00:28.117Z</time></trkpt><trkpt lat="37.816455" lon="15.10102"><ele>1009.0</ele><time>2026-04-18T10:00:29.117Z</time></trkpt><trkpt lat="37.8163617" lon="15.1009167"><ele>1011.0</ele><time>2026-04-18T10:00:30.117Z</time></trkpt><trkpt lat="37.8163167" lon="15.1007617"><ele>1012.75</ele><time>2026-04-18T10:00:31.117Z</time></trkpt><trkpt lat="37.816315" lon="15.1005933"><ele>1014.5</ele><time>2026-04-18T10:00:32.117Z</time></trkpt><trkpt lat="37.8163567" lon="15.1004417"><ele>1016.25</ele><time>2026-04-18T10:00:33.116Z</time></trkpt><trkpt lat="37.8164533" lon="15.1003183"><ele>1018.0</ele><time>2026-04-18T10:00:34.117Z</time></trkpt><trkpt lat="37.8165783" lon="15.1002167"><ele>1018.0</ele><time>2026-04-18T10:00:35.117Z</time></trkpt><trkpt lat="37.816725" lon="15.10015"><ele>1018.0</ele><time>2026-04-18T10:00:36.117Z</time></trkpt><trkpt lat="37.8168467" lon="15.1000883"><ele>1018.0</ele><time>2026-04-18T10:00:37.116Z</time></trkpt><trkpt lat="37.8169383" lon="15.1000017"><ele>1018.0</ele><time>2026-04-18T10:00:38.117Z</time></trkpt><trkpt lat="37.8170067" lon="15.0998533"><ele>1018.25</ele><time>2026-04-18T10:00:39.117Z</time></trkpt><trkpt lat="37.8170317" lon="15.0997033"><ele>1018.5</ele><time>2026-04-18T10:00:40.117Z</time></trkpt><trkpt lat="37.81701" lon="15.0995467"><ele>1018.75</ele><time>2026-04-18T10:00:41.117Z</time></trkpt><trkpt lat="37.8169533" lon="15.0994"><ele>1019.0</ele><time>2026-04-18T10:00:42.117Z</time></trkpt><trkpt lat="37.816855" lon="15.0993017"><ele>1020.25</ele><time>2026-04-18T10:00:43.117Z</time></trkpt><trkpt lat="37.81673" lon="15.0992367"><ele>1021.5</ele><time>2026-04-18T10:00:44.117Z</time></trkpt><trkpt lat="37.8165983" lon="15.0992317"><ele>1022.75</ele><time>2026-04-18T10:00:45.117Z</time></trkpt><trkpt lat="37.8164717" lon="15.0992783"><ele>1024.0</ele><time>2026-04-18T10:00:46.117Z</time></trkpt><trkpt lat="37.816345" lon="15.099345"><ele>1024.0</ele><time>2026-04-18T10:00:47.117Z</time></trkpt><trkpt lat="37.8162317" lon="15.0993667"><ele>1024.0</ele><time>2026-04-18T10:00:48.117Z</time></trkpt><trkpt lat="37.8161033" lon="15.0993267"><ele>1024.0</ele><time>2026-04-18T10:00:49.117Z</time></trkpt><trkpt lat="37.8159617" lon="15.0992467"><ele>1024.0</ele><time>2026-04-18T10:00:50.117Z</time></trkpt><trkpt lat="37.815795" lon="15.0991717"><ele>1026.3333333333333</ele><time>2026-04-18T10:00:51.117Z</time></trkpt><trkpt lat="37.8156133" lon="15.09914"><ele>1028.6666666666667</ele><time>2026-04-18T10:00:52.117Z</time></trkpt><trkpt lat="37.8154383" lon="15.09916"><ele>1031.0</ele><time>2026-04-18T10:00:53.117Z</time></trkpt><trkpt lat="37.8152867" lon="15.0991917"><ele>1031.0</ele><time>2026-04-18T10:00:54.117Z</time></trkpt><trkpt lat="37.8151667" lon="15.0992"><ele>1031.0</ele><time>2026-04-18T10:00:55.117Z</time></trkpt><trkpt lat="37.8150433" lon="15.0991717"><ele>1031.0</ele><time>2026-04-18T10:00:56.117Z</time></trkpt><trkpt lat="37.81494" lon="15.0990867"><ele>1031.0</ele><time>2026-04-18T10:00:57.117Z</time></trkpt><trkpt lat="37.814865" lon="15.0989417"><ele>1034.75</ele><time>2026-04-18T10:00:58.117Z</time></trkpt><trkpt lat="37.814825" lon="15.098795"><ele>1038.5</ele><time>2026-04-18T10:00:59.117Z</time></trkpt><trkpt lat="37.81485" lon="15.0986267"><ele>1042.25</ele><time>2026-04-18T10:01:00.117Z</time></trkpt><trkpt lat="37.81493" lon="15.0984883"><ele>1046.0</ele><time>2026-04-18T10:01:01.117Z</time></trkpt><trkpt lat="37.8150533" lon="15.0983617"><ele>1044.3333333333335</ele><time>2026-04-18T10:01:02.117Z</time></trkpt><trkpt lat="37.8151983" lon="15.0982633"><ele>1042.6666666666667</ele><time>2026-04-18T10:01:03.117Z</time></trkpt><trkpt lat="37.81535" lon="15.09814"><ele>1041.0</ele><time>2026-04-18T10:01:04.117Z</time></trkpt><trkpt lat="37.8155017" lon="15.0979833"><ele>1044.6666666666667</ele><time>2026-04-18T10:01:05.116Z</time></trkpt><trkpt lat="37.8156517" lon="15.0977783"><ele>1048.3333333333335</ele><time>2026-04-18T10:01:06.117Z</time></trkpt><trkpt lat="37.815785" lon="15.0975433"><ele>1052.0</ele><time>2026-04-18T10:01:07.117Z</time></trkpt><trkpt lat="37.8159117" lon="15.0973067"><ele>1051.6666666666667</ele><time>2026-04-18T10:01:08.117Z</time></trkpt><trkpt lat="37.8160333" lon="15.09709"><ele>1051.3333333333333</ele><time>2026-04-18T10:01:09.117Z</time></trkpt><trkpt lat="37.8161217" lon="15.0968983"><ele>1051.0</ele><time>2026-04-18T10:01:10.117Z</time></trkpt><trkpt lat="37.8161867" lon="15.0967267"><ele>1053.6666666666665</ele><time>2026-04-18T10:01:11.117Z</time></trkpt><trkpt lat="37.8162183" lon="15.0965433"><ele>1056.3333333333333</ele><time>2026-04-18T10:01:12.117Z</time></trkpt><trkpt lat="37.8161967" lon="15.0963433"><ele>1059.0</ele><time>2026-04-18T10:01:13.117Z</time></trkpt><trkpt lat="37.8161733" lon="15.0961417"><ele>1059.0</ele><time>2026-04-18T10:01:14.117Z</time></trkpt><trkpt lat="37.8161567" lon="15.0959617"><ele>1059.0</ele><time>2026-04-18T10:01:15.117Z</time></trkpt><trkpt lat="37.81618" lon="15.0957883"><ele>1059.0</ele><time>2026-04-18T10:01:16.117Z</time></trkpt><trkpt lat="37.81624" lon="15.0956233"><ele>1059.0</ele><time>2026-04-18T10:01:17.117Z</time></trkpt><trkpt lat="37.816345" lon="15.0954817"><ele>1061.6666666666667</ele><time>2026-04-18T10:01:18.117Z</time></trkpt><trkpt lat="37.816495" lon="15.0953467"><ele>1064.3333333333335</ele><time>2026-04-18T10:01:19.117Z</time></trkpt><trkpt lat="37.8166317" lon="15.0952317"><ele>1067.0</ele><time>2026-04-18T10:01:20.117Z</time></trkpt><trkpt lat="37.816745" lon="15.09512"><ele>1068.0</ele><time>2026-04-18T10:01:21.117Z</time></trkpt><trkpt lat="37.8168217" lon="15.0949767"><ele>1069.0</ele><time>2026-04-18T10:01:22.117Z</time></trkpt><trkpt lat="37.8168517" lon="15.0948183"><ele>1070.0</ele><time>2026-04-18T10:01:23.117Z</time></trkpt><trkpt lat="37.8168333" lon="15.0946467"><ele>1071.0</ele><time>2026-04-18T10:01:24.117Z</time></trkpt><trkpt lat="37.8167667" lon="15.0945117"><ele>1073.5</ele><time>2026-04-18T10:01:25.116Z</time></trkpt><trkpt lat="37.8166617" lon="15.0944033"><ele>1076.0</ele><time>2026-04-18T10:01:26.117Z</time></trkpt><trkpt lat="37.8165283" lon="15.09435"><ele>1078.5</ele><time>2026-04-18T10:01:27.117Z</time></trkpt><trkpt lat="37.8163867" lon="15.094355"><ele>1081.0</ele><time>2026-04-18T10:01:28.116Z</time></trkpt><trkpt lat="37.8162567" lon="15.0944267"><ele>1081.0</ele><time>2026-04-18T10:01:29.117Z</time></trkpt><trkpt lat="37.81613" lon="15.0945517"><ele>1081.0</ele><time>2026-04-18T10:01:30.117Z</time></trkpt><trkpt lat="37.8159967" lon="15.0947133"><ele>1081.0</ele><time>2026-04-18T10:01:31.117Z</time></trkpt><trkpt lat="37.81588" lon="15.0948617"><ele>1080.25</ele><time>2026-04-18T10:01:32.116Z</time></trkpt><trkpt lat="37.8157617" lon="15.0949883"><ele>1079.5</ele><time>2026-04-18T10:01:33.116Z</time></trkpt><trkpt lat="37.8156283" lon="15.0950733"><ele>1078.75</ele><time>2026-04-18T10:01:34.117Z</time></trkpt><trkpt lat="37.815495" lon="15.095115"><ele>1078.0</ele><time>2026-04-18T10:01:35.117Z</time></trkpt><trkpt lat="37.815355" lon="15.0950917"><ele>1078.0</ele><time>2026-04-18T10:01:36.117Z</time></trkpt><trkpt lat="37.8152267" lon="15.0950267"><ele>1078.0</ele><time>2026-04-18T10:01:37.116Z</time></trkpt><trkpt lat="37.8151067" lon="15.0949617"><ele>1078.0</ele><time>2026-04-18T10:01:38.116Z</time></trkpt><trkpt lat="37.81498" lon="15.0949533"><ele>1078.0</ele><time>2026-04-18T10:01:39.116Z</time></trkpt><trkpt lat="37.81485" lon="15.095025"><ele>1081.6666666666665</ele><time>2026-04-18T10:01:40.116Z</time></trkpt><trkpt lat="37.814725" lon="15.0951117"><ele>1085.3333333333333</ele><time>2026-04-18T10:01:41.116Z</time></trkpt><trkpt lat="37.8145867" lon="15.0952"><ele>1089.0</ele><time>2026-04-18T10:01:42.116Z</time></trkpt><trkpt lat="37.8144283" lon="15.095255"><ele>1094.3333333333333</ele><time>2026-04-18T10:01:43.116Z</time></trkpt><trkpt lat="37.814255" lon="15.095305"><ele>1099.6666666666665</ele><time>2026-04-18T10:01:44.116Z</time></trkpt><trkpt lat="37.8141" lon="15.0953467"><ele>1105.0</ele><time>2026-04-18T10:01:45.116Z</time></trkpt><trkpt lat="37.813945" lon="15.095355"><ele>1105.0</ele><time>2026-04-18T10:01:46.116Z</time></trkpt><trkpt lat="37.8137983" lon="15.095315"><ele>1105.0</ele><time>2026-04-18T10:01:47.116Z</time></trkpt><trkpt lat="37.8136667" lon="15.0952583"><ele>1105.0</ele><time>2026-04-18T10:01:48.116Z</time></trkpt><trkpt lat="37.81354" lon="15.0952483"><ele>1105.0</ele><time>2026-04-18T10:01:49.116Z</time></trkpt><trkpt lat="37.8134017" lon="15.0953117"><ele>1107.25</ele><time>2026-04-18T10:01:50.116Z</time></trkpt><trkpt lat="37.8132833" lon="15.0954167"><ele>1109.5</ele><time>2026-04-18T10:01:51.116Z</time></trkpt><trkpt lat="37.8131667" lon="15.09553"><ele>1111.75</ele><time>2026-04-18T10:01:52.116Z</time></trkpt><trkpt lat="37.8130383" lon="15.095615"><ele>1114.0</ele><time>2026-04-18T10:01:53.115Z</time></trkpt><trkpt lat="37.812895" lon="15.0956267"><ele>1114.0</ele><time>2026-04-18T10:01:54.116Z</time></trkpt><trkpt lat="37.81274" lon="15.0955883"><ele>1114.0</ele><time>2026-04-18T10:01:55.116Z</time></trkpt><trkpt lat="37.8125767" lon="15.0955233"><ele>1114.0</ele><time>2026-04-18T10:01:56.116Z</time></trkpt><trkpt lat="37.8123867" lon="15.0954983"><ele>1117.6666666666665</ele><time>2026-04-18T10:01:57.116Z</time></trkpt><trkpt lat="37.8121933" lon="15.0955083"><ele>1121.3333333333333</ele><time>2026-04-18T10:01:58.116Z</time></trkpt><trkpt lat="37.8120217" lon="15.0955417"><ele>1125.0</ele><time>2026-04-18T10:01:59.116Z</time></trkpt><trkpt lat="37.8118867" lon="15.0955867"><ele>1125.25</ele><time>2026-04-18T10:02:00.116Z</time></trkpt><trkpt lat="37.8117617" lon="15.0956217"><ele>1125.5</ele><time>2026-04-18T10:02:01.116Z</time></trkpt><trkpt lat="37.8116383" lon="15.0956183"><ele>1125.75</ele><time>2026-04-18T10:02:02.116Z</time></trkpt><trkpt lat="37.811535" lon="15.0955517"><ele>1126.0</ele><time>2026-04-18T10:02:03.116Z</time></trkpt><trkpt lat="37.811455" lon="15.095435"><ele>1126.0</ele><time>2026-04-18T10:02:04.116Z</time></trkpt><trkpt lat="37.811405" lon="15.09528"><ele>1126.0</ele><time>2026-04-18T10:02:05.116Z</time></trkpt><trkpt lat="37.8113917" lon="15.09513"><ele>1126.0</ele><time>2026-04-18T10:02:06.116Z</time></trkpt><trkpt lat="37.8114267" lon="15.0949683"><ele>1126.0</ele><time>2026-04-18T10:02:07.116Z</time></trkpt><trkpt lat="37.8115133" lon="15.0948467"><ele>1129.5</ele><time>2026-04-18T10:02:08.116Z</time></trkpt><trkpt lat="37.8116317" lon="15.0947683"><ele>1133.0</ele><time>2026-04-18T10:02:09.116Z</time></trkpt><trkpt lat="37.8117683" lon="15.0947467"><ele>1136.5</ele><time>2026-04-18T10:02:10.116Z</time></trkpt><trkpt lat="37.8119217" lon="15.0947767"><ele>1140.0</ele><time>2026-04-18T10:02:11.114Z</time></trkpt><trkpt lat="37.8120717" lon="15.0947983"><ele>1140.0</ele><time>2026-04-18T10:02:12.116Z</time></trkpt><trkpt lat="37.8122267" lon="15.094765"><ele>1140.0</ele><time>2026-04-18T10:02:13.116Z</time></trkpt><trkpt lat="37.812365" lon="15.0946617"><ele>1140.0</ele><time>2026-04-18T10:02:14.116Z</time></trkpt><trkpt lat="37.812505" lon="15.0944983"><ele>1135.5</ele><time>2026-04-18T10:02:15.116Z</time></trkpt><trkpt lat="37.812675" lon="15.0942983"><ele>1131.0</ele><time>2026-04-18T10:02:16.116Z</time></trkpt><trkpt lat="37.8128583" lon="15.0940883"><ele>1138.5</ele><time>2026-04-18T10:02:17.116Z</time></trkpt><trkpt lat="37.8130617" lon="15.0938567"><ele>1146.0</ele><time>2026-04-18T10:02:18.116Z</time></trkpt><trkpt lat="37.8132567" lon="15.0936433"><ele>1146.0</ele><time>2026-04-18T10:02:19.116Z</time></trkpt><trkpt lat="37.8134283" lon="15.09344"><ele>1146.0</ele><time>2026-04-18T10:02:20.116Z</time></trkpt><trkpt lat="37.813555" lon="15.0932517"><ele>1146.0</ele><time>2026-04-18T10:02:21.116Z</time></trkpt><trkpt lat="37.8136683" lon="15.0930817"><ele>1145.2</ele><time>2026-04-18T10:02:22.116Z</time></trkpt><trkpt lat="37.8137483" lon="15.092935"><ele>1144.3999999999999</ele><time>2026-04-18T10:02:23.115Z</time></trkpt><trkpt lat="37.8138033" lon="15.0928267"><ele>1143.6</ele><time>2026-04-18T10:02:24.115Z</time></trkpt><trkpt lat="37.8138283" lon="15.09274"><ele>1142.8</ele><time>2026-04-18T10:02:25.116Z</time></trkpt><trkpt lat="37.813805" lon="15.0926183"><ele>1142.0</ele><time>2026-04-18T10:02:27.116Z</time></trkpt><trkpt lat="37.813725" lon="15.0925717"><ele>1142.0</ele><time>2026-04-18T10:02:29.116Z</time></trkpt><trkpt lat="37.8136517" lon="15.0925967"><ele>1142.0</ele><time>2026-04-18T10:02:30.116Z</time></trkpt><trkpt lat="37.8135817" lon="15.09268"><ele>1142.0</ele><time>2026-04-18T10:02:31.116Z</time></trkpt><trkpt lat="37.8135133" lon="15.0928033"><ele>1142.0</ele><time>2026-04-18T10:02:32.116Z</time></trkpt><trkpt lat="37.8134367" lon="15.0929267"><ele>1142.0</ele><time>2026-04-18T10:02:33.116Z</time></trkpt><trkpt lat="37.8133367" lon="15.09302"><ele>1148.3333333333335</ele><time>2026-04-18T10:02:34.116Z</time></trkpt><trkpt lat="37.8131883" lon="15.0930683"><ele>1154.6666666666667</ele><time>2026-04-18T10:02:35.116Z</time></trkpt><trkpt lat="37.81301" lon="15.0930883"><ele>1161.0</ele><time>2026-04-18T10:02:36.116Z</time></trkpt><trkpt lat="37.8128183" lon="15.0930983"><ele>1161.0</ele><time>2026-04-18T10:02:37.116Z</time></trkpt><trkpt lat="37.8126583" lon="15.09309"><ele>1161.0</ele><time>2026-04-18T10:02:38.116Z</time></trkpt><trkpt lat="37.81251" lon="15.093075"><ele>1161.0</ele><time>2026-04-18T10:02:39.116Z</time></trkpt><trkpt lat="37.8123783" lon="15.093025"><ele>1161.0</ele><time>2026-04-18T10:02:40.116Z</time></trkpt><trkpt lat="37.8122433" lon="15.09293"><ele>1164.6666666666667</ele><time>2026-04-18T10:02:41.116Z</time></trkpt><trkpt lat="37.8121083" lon="15.0927917"><ele>1168.3333333333335</ele><time>2026-04-18T10:02:42.116Z</time></trkpt><trkpt lat="37.8119767" lon="15.09264"><ele>1172.0</ele><time>2026-04-18T10:02:43.116Z</time></trkpt><trkpt lat="37.811865" lon="15.0924833"><ele>1175.25</ele><time>2026-04-18T10:02:44.116Z</time></trkpt><trkpt lat="37.8117667" lon="15.0923367"><ele>1178.5</ele><time>2026-04-18T10:02:45.115Z</time></trkpt><trkpt lat="37.811655" lon="15.0922417"><ele>1181.75</ele><time>2026-04-18T10:02:46.116Z</time></trkpt><trkpt lat="37.811545" lon="15.092185"><ele>1185.0</ele><time>2026-04-18T10:02:47.116Z</time></trkpt><trkpt lat="37.8114233" lon="15.0921967"><ele>1185.0</ele><time>2026-04-18T10:02:48.116Z</time></trkpt><trkpt lat="37.8112883" lon="15.0922317"><ele>1185.0</ele><time>2026-04-18T10:02:49.116Z</time></trkpt><trkpt lat="37.8111517" lon="15.0922617"><ele>1185.0</ele><time>2026-04-18T10:02:50.116Z</time></trkpt><trkpt lat="37.811035" lon="15.0922433"><ele>1185.0</ele><time>2026-04-18T10:02:51.116Z</time></trkpt><trkpt lat="37.8109383" lon="15.09218"><ele>1185.25</ele><time>2026-04-18T10:02:52.116Z</time></trkpt><trkpt lat="37.81087" lon="15.0920567"><ele>1185.5</ele><time>2026-04-18T10:02:53.115Z</time></trkpt><trkpt lat="37.8108317" lon="15.0919133"><ele>1185.75</ele><time>2026-04-18T10:02:54.116Z</time></trkpt><trkpt lat="37.8108383" lon="15.091755"><ele>1186.0</ele><time>2026-04-18T10:02:55.116Z</time></trkpt><trkpt lat="37.81088" lon="15.0916117"><ele>1188.0</ele><time>2026-04-18T10:02:56.116Z</time></trkpt><trkpt lat="37.8109417" lon="15.091485"><ele>1190.0</ele><time>2026-04-18T10:02:57.116Z</time></trkpt><trkpt lat="37.811035" lon="15.0913867"><ele>1192.0</ele><time>2026-04-18T10:02:58.116Z</time></trkpt><trkpt lat="37.81117" lon="15.0912967"><ele>1194.0</ele><time>2026-04-18T10:02:59.116Z</time></trkpt><trkpt lat="37.8113317" lon="15.091205"><ele>1194.0</ele><time>2026-04-18T10:03:00.116Z</time></trkpt><trkpt lat="37.8115117" lon="15.091065"><ele>1194.0</ele><time>2026-04-18T10:03:01.116Z</time></trkpt><trkpt lat="37.8116817" lon="15.0909117"><ele>1194.0</ele><time>2026-04-18T10:03:02.116Z</time></trkpt><trkpt lat="37.8118283" lon="15.0907783"><ele>1195.5</ele><time>2026-04-18T10:03:03.116Z</time></trkpt><trkpt lat="37.81196" lon="15.0906683"><ele>1197.0</ele><time>2026-04-18T10:03:04.116Z</time></trkpt><trkpt lat="37.8120567" lon="15.0905383"><ele>1198.5</ele><time>2026-04-18T10:03:05.116Z</time></trkpt><trkpt lat="37.81213" lon="15.090395"><ele>1200.0</ele><time>2026-04-18T10:03:06.116Z</time></trkpt><trkpt lat="37.812165" lon="15.0902467"><ele>1200.0</ele><time>2026-04-18T10:03:07.116Z</time></trkpt><trkpt lat="37.8121333" lon="15.0901067"><ele>1200.0</ele><time>2026-04-18T10:03:08.116Z</time></trkpt><trkpt lat="37.81207" lon="15.0899783"><ele>1200.0</ele><time>2026-04-18T10:03:09.116Z</time></trkpt><trkpt lat="37.8119683" lon="15.0899"><ele>1200.0</ele><time>2026-04-18T10:03:10.116Z</time></trkpt><trkpt lat="37.8118633" lon="15.0898333"><ele>1201.0</ele><time>2026-04-18T10:03:11.115Z</time></trkpt><trkpt lat="37.8117317" lon="15.089835"><ele>1202.0</ele><time>2026-04-18T10:03:12.116Z</time></trkpt><trkpt lat="37.8116283" lon="15.0898633"><ele>1203.0</ele><time>2026-04-18T10:03:13.116Z</time></trkpt><trkpt lat="37.8115167" lon="15.0899683"><ele>1204.0</ele><time>2026-04-18T10:03:14.116Z</time></trkpt><trkpt lat="37.8114" lon="15.0901"><ele>1204.0</ele><time>2026-04-18T10:03:15.116Z</time></trkpt><trkpt lat="37.8112833" lon="15.0901733"><ele>1204.0</ele><time>2026-04-18T10:03:16.115Z</time></trkpt><trkpt lat="37.811145" lon="15.09019"><ele>1204.0</ele><time>2026-04-18T10:03:17.116Z</time></trkpt><trkpt lat="37.811" lon="15.0901717"><ele>1204.0</ele><time>2026-04-18T10:03:18.116Z</time></trkpt><trkpt lat="37.8108567" lon="15.09011"><ele>1206.3333333333333</ele><time>2026-04-18T10:03:19.116Z</time></trkpt><trkpt lat="37.8107217" lon="15.0899917"><ele>1208.6666666666667</ele><time>2026-04-18T10:03:20.116Z</time></trkpt><trkpt lat="37.8105933" lon="15.0898517"><ele>1211.0</ele><time>2026-04-18T10:03:21.116Z</time></trkpt><trkpt lat="37.810475" lon="15.0896933"><ele>1216.0</ele><time>2026-04-18T10:03:22.116Z</time></trkpt><trkpt lat="37.81035" lon="15.0895483"><ele>1221.0</ele><time>2026-04-18T10:03:23.116Z</time></trkpt><trkpt lat="37.8102133" lon="15.08947"><ele>1226.0</ele><time>2026-04-18T10:03:24.116Z</time></trkpt><trkpt lat="37.8100517" lon="15.08942"><ele>1227.6666666666667</ele><time>2026-04-18T10:03:25.116Z</time></trkpt><trkpt lat="37.80986" lon="15.0893983"><ele>1229.3333333333333</ele><time>2026-04-18T10:03:26.116Z</time></trkpt><trkpt lat="37.80968" lon="15.08938"><ele>1231.0</ele><time>2026-04-18T10:03:27.116Z</time></trkpt><trkpt lat="37.8095083" lon="15.089365"><ele>1231.0</ele><time>2026-04-18T10:03:28.116Z</time></trkpt><trkpt lat="37.8093267" lon="15.08933"><ele>1231.0</ele><time>2026-04-18T10:03:29.116Z</time></trkpt><trkpt lat="37.8091367" lon="15.08926"><ele>1231.0</ele><time>2026-04-18T10:03:30.116Z</time></trkpt><trkpt lat="37.8089533" lon="15.0891383"><ele>1236.3333333333333</ele><time>2026-04-18T10:03:31.116Z</time></trkpt><trkpt lat="37.8087767" lon="15.0890183"><ele>1241.6666666666667</ele><time>2026-04-18T10:03:32.116Z</time></trkpt><trkpt lat="37.8086183" lon="15.0888983"><ele>1247.0</ele><time>2026-04-18T10:03:33.115Z</time></trkpt><trkpt lat="37.8084783" lon="15.0887883"><ele>1247.0</ele><time>2026-04-18T10:03:34.116Z</time></trkpt><trkpt lat="37.8083617" lon="15.0886783"><ele>1247.0</ele><time>2026-04-18T10:03:35.116Z</time></trkpt><trkpt lat="37.8082633" lon="15.0885567"><ele>1247.0</ele><time>2026-04-18T10:03:36.116Z</time></trkpt><trkpt lat="37.8081983" lon="15.0884233"><ele>1247.0</ele><time>2026-04-18T10:03:37.116Z</time></trkpt><trkpt lat="37.8081833" lon="15.08825"><ele>1248.75</ele><time>2026-04-18T10:03:38.116Z</time></trkpt><trkpt lat="37.8082" lon="15.088085"><ele>1250.5</ele><time>2026-04-18T10:03:39.116Z</time></trkpt><trkpt lat="37.80826" lon="15.08791"><ele>1252.25</ele><time>2026-04-18T10:03:40.116Z</time></trkpt><trkpt lat="37.8083383" lon="15.087755"><ele>1254.0</ele><time>2026-04-18T10:03:41.116Z</time></trkpt><trkpt lat="37.8084583" lon="15.0876267"><ele>1254.0</ele><time>2026-04-18T10:03:42.115Z</time></trkpt><trkpt lat="37.808605" lon="15.0875183"><ele>1254.0</ele><time>2026-04-18T10:03:43.116Z</time></trkpt><trkpt lat="37.80879" lon="15.0873967"><ele>1254.0</ele><time>2026-04-18T10:03:44.116Z</time></trkpt><trkpt lat="37.809" lon="15.08723"><ele>1257.0</ele><time>2026-04-18T10:03:45.116Z</time></trkpt><trkpt lat="37.8092133" lon="15.0870183"><ele>1260.0</ele><time>2026-04-18T10:03:46.116Z</time></trkpt><trkpt lat="37.8094383" lon="15.0867867"><ele>1262.5</ele><time>2026-04-18T10:03:47.116Z</time></trkpt><trkpt lat="37.809665" lon="15.0865517"><ele>1265.0</ele><time>2026-04-18T10:03:48.116Z</time></trkpt><trkpt lat="37.8098617" lon="15.0863467"><ele>1265.0</ele><time>2026-04-18T10:03:49.116Z</time></trkpt><trkpt lat="37.8100283" lon="15.086175"><ele>1265.0</ele><time>2026-04-18T10:03:50.116Z</time></trkpt><trkpt lat="37.810165" lon="15.08602"><ele>1265.0</ele><time>2026-04-18T10:03:51.116Z</time></trkpt><trkpt lat="37.8102833" lon="15.085875"><ele>1266.3333333333335</ele><time>2026-04-18T10:03:52.116Z</time></trkpt><trkpt lat="37.8103767" lon="15.08571"><ele>1267.6666666666667</ele><time>2026-04-18T10:03:53.116Z</time></trkpt><trkpt lat="37.810435" lon="15.08552"><ele>1269.0</ele><time>2026-04-18T10:03:54.116Z</time></trkpt><trkpt lat="37.8104583" lon="15.085325"><ele>1269.0</ele><time>2026-04-18T10:03:55.116Z</time></trkpt><trkpt lat="37.8104267" lon="15.0851383"><ele>1269.0</ele><time>2026-04-18T10:03:56.116Z</time></trkpt><trkpt lat="37.81037" lon="15.0849783"><ele>1269.0</ele><time>2026-04-18T10:03:57.116Z</time></trkpt><trkpt lat="37.8102717" lon="15.0848317"><ele>1269.0</ele><time>2026-04-18T10:03:58.116Z</time></trkpt><trkpt lat="37.810165" lon="15.0846983"><ele>1272.6666666666667</ele><time>2026-04-18T10:03:59.116Z</time></trkpt><trkpt lat="37.8100033" lon="15.0846133"><ele>1276.3333333333335</ele><time>2026-04-18T10:04:00.116Z</time></trkpt><trkpt lat="37.809845" lon="15.084545"><ele>1280.0</ele><time>2026-04-18T10:04:01.116Z</time></trkpt><trkpt lat="37.8096483" lon="15.0845"><ele>1280.0</ele><time>2026-04-18T10:04:02.116Z</time></trkpt><trkpt lat="37.8094083" lon="15.0844967"><ele>1280.0</ele><time>2026-04-18T10:04:03.116Z</time></trkpt><trkpt lat="37.8092133" lon="15.0844983"><ele>1280.0</ele><time>2026-04-18T10:04:04.116Z</time></trkpt><trkpt lat="37.809035" lon="15.0845283"><ele>1281.0</ele><time>2026-04-18T10:04:05.116Z</time></trkpt><trkpt lat="37.8088983" lon="15.0845667"><ele>1282.0</ele><time>2026-04-18T10:04:06.116Z</time></trkpt><trkpt lat="37.8087817" lon="15.0845967"><ele>1283.0</ele><time>2026-04-18T10:04:07.116Z</time></trkpt><trkpt lat="37.8086683" lon="15.084595"><ele>1284.0</ele><time>2026-04-18T10:04:08.116Z</time></trkpt><trkpt lat="37.8085633" lon="15.0845683"><ele>1284.0</ele><time>2026-04-18T10:04:09.116Z</time></trkpt><trkpt lat="37.8085" lon="15.08451"><ele>1284.0</ele><time>2026-04-18T10:04:10.116Z</time></trkpt><trkpt lat="37.8085033" lon="15.084385"><ele>1284.0</ele><time>2026-04-18T10:04:11.116Z</time></trkpt><trkpt lat="37.8085417" lon="15.084255"><ele>1284.0</ele><time>2026-04-18T10:04:12.116Z</time></trkpt><trkpt lat="37.808595" lon="15.0841533"><ele>1284.0</ele><time>2026-04-18T10:04:13.116Z</time></trkpt><trkpt lat="37.8086767" lon="15.084055"><ele>1292.3333333333333</ele><time>2026-04-18T10:04:14.116Z</time></trkpt><trkpt lat="37.8088083" lon="15.08401"><ele>1300.6666666666665</ele><time>2026-04-18T10:04:15.115Z</time></trkpt><trkpt lat="37.808985" lon="15.0839617"><ele>1309.0</ele><time>2026-04-18T10:04:16.116Z</time></trkpt><trkpt lat="37.8092017" lon="15.0839267"><ele>1306.5</ele><time>2026-04-18T10:04:17.116Z</time></trkpt><trkpt lat="37.809465" lon="15.0838733"><ele>1304.0</ele><time>2026-04-18T10:04:18.116Z</time></trkpt><trkpt lat="37.80972" lon="15.083805"><ele>1304.0</ele><time>2026-04-18T10:04:19.116Z</time></trkpt><trkpt lat="37.809935" lon="15.0837017"><ele>1304.0</ele><time>2026-04-18T10:04:20.116Z</time></trkpt><trkpt lat="37.810115" lon="15.083575"><ele>1304.0</ele><time>2026-04-18T10:04:21.116Z</time></trkpt><trkpt lat="37.81028" lon="15.0834333"><ele>1305.25</ele><time>2026-04-18T10:04:22.116Z</time></trkpt><trkpt lat="37.8104217" lon="15.0833017"><ele>1306.5</ele><time>2026-04-18T10:04:23.116Z</time></trkpt><trkpt lat="37.8105233" lon="15.0831833"><ele>1307.75</ele><time>2026-04-18T10:04:24.116Z</time></trkpt><trkpt lat="37.8105883" lon="15.0830367"><ele>1309.0</ele><time>2026-04-18T10:04:25.116Z</time></trkpt><trkpt lat="37.8106383" lon="15.08286"><ele>1309.0</ele><time>2026-04-18T10:04:26.115Z</time></trkpt><trkpt lat="37.8106683" lon="15.0826633"><ele>1309.0</ele><time>2026-04-18T10:04:27.116Z</time></trkpt><trkpt lat="37.8107267" lon="15.08246"><ele>1309.0</ele><time>2026-04-18T10:04:28.115Z</time></trkpt><trkpt lat="37.8108333" lon="15.0822533"><ele>1308.0</ele><time>2026-04-18T10:04:29.116Z</time></trkpt><trkpt lat="37.8109833" lon="15.08205"><ele>1307.0</ele><time>2026-04-18T10:04:30.116Z</time></trkpt><trkpt lat="37.8111467" lon="15.0818617"><ele>1306.0</ele><time>2026-04-18T10:04:31.116Z</time></trkpt><trkpt lat="37.8113017" lon="15.0817"><ele>1307.6666666666665</ele><time>2026-04-18T10:04:32.116Z</time></trkpt><trkpt lat="37.8114567" lon="15.0815817"><ele>1309.3333333333333</ele><time>2026-04-18T10:04:33.116Z</time></trkpt><trkpt lat="37.8116067" lon="15.081495"><ele>1311.0</ele><time>2026-04-18T10:04:34.116Z</time></trkpt><trkpt lat="37.8117083" lon="15.0813833"><ele>1311.0</ele><time>2026-04-18T10:04:35.115Z</time></trkpt><trkpt lat="37.811785" lon="15.081245"><ele>1311.0</ele><time>2026-04-18T10:04:36.116Z</time></trkpt><trkpt lat="37.8118233" lon="15.0810883"><ele>1311.0</ele><time>2026-04-18T10:04:37.116Z</time></trkpt><trkpt lat="37.8118317" lon="15.0809417"><ele>1311.0</ele><time>2026-04-18T10:04:38.116Z</time></trkpt><trkpt lat="37.8117917" lon="15.0807783"><ele>1314.25</ele><time>2026-04-18T10:04:39.116Z</time></trkpt><trkpt lat="37.811715" lon="15.0806483"><ele>1317.5</ele><time>2026-04-18T10:04:40.116Z</time></trkpt><trkpt lat="37.81161" lon="15.0805433"><ele>1320.75</ele><time>2026-04-18T10:04:41.116Z</time></trkpt><trkpt lat="37.8114883" lon="15.08048"><ele>1324.0</ele><time>2026-04-18T10:04:42.116Z</time></trkpt><trkpt lat="37.811365" lon="15.0804517"><ele>1324.0</ele><time>2026-04-18T10:04:43.116Z</time></trkpt><trkpt lat="37.811235" lon="15.080475"><ele>1324.0</ele><time>2026-04-18T10:04:44.116Z</time></trkpt><trkpt lat="37.8111" lon="15.0805433"><ele>1324.0</ele><time>2026-04-18T10:04:45.116Z</time></trkpt><trkpt lat="37.8109717" lon="15.0806517"><ele>1324.0</ele><time>2026-04-18T10:04:46.116Z</time></trkpt><trkpt lat="37.81085" lon="15.08081"><ele>1326.0</ele><time>2026-04-18T10:04:47.116Z</time></trkpt><trkpt lat="37.8107317" lon="15.0809983"><ele>1328.0</ele><time>2026-04-18T10:04:48.116Z</time></trkpt><trkpt lat="37.8106083" lon="15.081185"><ele>1330.0</ele><time>2026-04-18T10:04:49.116Z</time></trkpt><trkpt lat="37.81049" lon="15.081355"><ele>1330.0</ele><time>2026-04-18T10:04:50.116Z</time></trkpt><trkpt lat="37.8103383" lon="15.081495"><ele>1330.0</ele><time>2026-04-18T10:04:51.116Z</time></trkpt><trkpt lat="37.8101583" lon="15.0815883"><ele>1330.0</ele><time>2026-04-18T10:04:52.116Z</time></trkpt><trkpt lat="37.8099733" lon="15.081625"><ele>1330.0</ele><time>2026-04-18T10:04:53.116Z</time></trkpt><trkpt lat="37.809785" lon="15.08165"><ele>1330.0</ele><time>2026-04-18T10:04:54.116Z</time></trkpt><trkpt lat="37.8096067" lon="15.081685"><ele>1330.0</ele><time>2026-04-18T10:04:55.116Z</time></trkpt><trkpt lat="37.8094383" lon="15.081745"><ele>1332.25</ele><time>2026-04-18T10:04:56.116Z</time></trkpt><trkpt lat="37.809295" lon="15.0817933"><ele>1334.5</ele><time>2026-04-18T10:04:57.116Z</time></trkpt><trkpt lat="37.80917" lon="15.081825"><ele>1336.75</ele><time>2026-04-18T10:04:58.115Z</time></trkpt><trkpt lat="37.8090617" lon="15.0818367"><ele>1339.0</ele><time>2026-04-18T10:04:59.116Z</time></trkpt><trkpt lat="37.80899" lon="15.0817867"><ele>1339.0</ele><time>2026-04-18T10:05:00.116Z</time></trkpt><trkpt lat="37.80896" lon="15.0816783"><ele>1339.0</ele><time>2026-04-18T10:05:01.116Z</time></trkpt><trkpt lat="37.8090183" lon="15.08151"><ele>1339.0</ele><time>2026-04-18T10:05:02.116Z</time></trkpt><trkpt lat="37.80909" lon="15.08138"><ele>1339.0</ele><time>2026-04-18T10:05:03.115Z</time></trkpt><trkpt lat="37.8091917" lon="15.0812833"><ele>1340.0</ele><time>2026-04-18T10:05:04.116Z</time></trkpt><trkpt lat="37.8093217" lon="15.0812"><ele>1341.0</ele><time>2026-04-18T10:05:05.116Z</time></trkpt><trkpt lat="37.8094533" lon="15.0811217"><ele>1342.0</ele><time>2026-04-18T10:05:06.116Z</time></trkpt><trkpt lat="37.809565" lon="15.0809983"><ele>1343.0</ele><time>2026-04-18T10:05:07.116Z</time></trkpt><trkpt lat="37.809685" lon="15.0808233"><ele>1346.3333333333335</ele><time>2026-04-18T10:05:08.115Z</time></trkpt><trkpt lat="37.8098083" lon="15.0806317"><ele>1349.6666666666667</ele><time>2026-04-18T10:05:09.116Z</time></trkpt><trkpt lat="37.8099083" lon="15.080475"><ele>1353.0</ele><time>2026-04-18T10:05:10.116Z</time></trkpt><trkpt lat="37.8099917" lon="15.0803133"><ele>1353.0</ele><time>2026-04-18T10:05:11.116Z</time></trkpt><trkpt lat="37.8100617" lon="15.0801733"><ele>1353.0</ele><time>2026-04-18T10:05:12.116Z</time></trkpt><trkpt lat="37.8100917" lon="15.0800333"><ele>1353.0</ele><time>2026-04-18T10:05:13.116Z</time></trkpt><trkpt lat="37.8100983" lon="15.079885"><ele>1353.0</ele><time>2026-04-18T10:05:14.116Z</time></trkpt><trkpt lat="37.81007" lon="15.0797383"><ele>1354.0</ele><time>2026-04-18T10:05:15.116Z</time></trkpt><trkpt lat="37.8100233" lon="15.07961"><ele>1355.0</ele><time>2026-04-18T10:05:16.116Z</time></trkpt><trkpt lat="37.8099433" lon="15.0795217"><ele>1356.0</ele><time>2026-04-18T10:05:17.116Z</time></trkpt><trkpt lat="37.80984" lon="15.0794683"><ele>1357.0</ele><time>2026-04-18T10:05:18.116Z</time></trkpt><trkpt lat="37.80971" lon="15.07949"><ele>1357.0</ele><time>2026-04-18T10:05:19.116Z</time></trkpt><trkpt lat="37.80958" lon="15.07954"><ele>1357.0</ele><time>2026-04-18T10:05:20.116Z</time></trkpt><trkpt lat="37.8094517" lon="15.07962"><ele>1357.0</ele><time>2026-04-18T10:05:21.115Z</time></trkpt><trkpt lat="37.8093067" lon="15.0797117"><ele>1357.0</ele><time>2026-04-18T10:05:22.116Z</time></trkpt><trkpt lat="37.8091767" lon="15.0797733"><ele>1362.3333333333333</ele><time>2026-04-18T10:05:23.116Z</time></trkpt><trkpt lat="37.8090233" lon="15.0798233"><ele>1367.6666666666667</ele><time>2026-04-18T10:05:24.116Z</time></trkpt><trkpt lat="37.8088533" lon="15.0798417"><ele>1373.0</ele><time>2026-04-18T10:05:25.116Z</time></trkpt><trkpt lat="37.8086783" lon="15.079825"><ele>1373.0</ele><time>2026-04-18T10:05:26.116Z</time></trkpt><trkpt lat="37.8085083" lon="15.0797983"><ele>1373.0</ele><time>2026-04-18T10:05:27.116Z</time></trkpt><trkpt lat="37.80833" lon="15.0797933"><ele>1373.0</ele><time>2026-04-18T10:05:28.116Z</time></trkpt><trkpt lat="37.8081617" lon="15.0797933"><ele>1372.3333333333335</ele><time>2026-04-18T10:05:29.116Z</time></trkpt><trkpt lat="37.808" lon="15.0798517"><ele>1371.6666666666667</ele><time>2026-04-18T10:05:30.115Z</time></trkpt><trkpt lat="37.80784" lon="15.0799117"><ele>1371.0</ele><time>2026-04-18T10:05:31.116Z</time></trkpt><trkpt lat="37.8076933" lon="15.0799433"><ele>1374.6666666666667</ele><time>2026-04-18T10:05:32.116Z</time></trkpt><trkpt lat="37.8075367" lon="15.0799367"><ele>1378.3333333333335</ele><time>2026-04-18T10:05:33.116Z</time></trkpt><trkpt lat="37.8073783" lon="15.07992"><ele>1382.0</ele><time>2026-04-18T10:05:34.116Z</time></trkpt><trkpt lat="37.8072317" lon="15.079885"><ele>1383.25</ele><time>2026-04-18T10:05:35.115Z</time></trkpt><trkpt lat="37.8070983" lon="15.0798367"><ele>1384.5</ele><time>2026-04-18T10:05:36.116Z</time></trkpt><trkpt lat="37.806985" lon="15.07977"><ele>1385.75</ele><time>2026-04-18T10:05:37.116Z</time></trkpt><trkpt lat="37.8068733" lon="15.0797117"><ele>1387.0</ele><time>2026-04-18T10:05:38.116Z</time></trkpt><trkpt lat="37.8067883" lon="15.079635"><ele>1387.0</ele><time>2026-04-18T10:05:39.116Z</time></trkpt><trkpt lat="37.8067283" lon="15.0795"><ele>1387.0</ele><time>2026-04-18T10:05:40.116Z</time></trkpt><trkpt lat="37.8066767" lon="15.0793633"><ele>1387.0</ele><time>2026-04-18T10:05:41.116Z</time></trkpt><trkpt lat="37.80664" lon="15.0791983"><ele>1387.0</ele><time>2026-04-18T10:05:42.115Z</time></trkpt><trkpt lat="37.806635" lon="15.0790017"><ele>1386.5</ele><time>2026-04-18T10:05:43.115Z</time></trkpt><trkpt lat="37.8066267" lon="15.0788367"><ele>1386.0</ele><time>2026-04-18T10:05:44.116Z</time></trkpt><trkpt lat="37.8066133" lon="15.0786783"><ele>1385.5</ele><time>2026-04-18T10:05:45.116Z</time></trkpt><trkpt lat="37.8065983" lon="15.0785383"><ele>1385.0</ele><time>2026-04-18T10:05:46.116Z</time></trkpt><trkpt lat="37.8065783" lon="15.078405"><ele>1385.0</ele><time>2026-04-18T10:05:47.116Z</time></trkpt><trkpt lat="37.8065617" lon="15.07828"><ele>1385.0</ele><time>2026-04-18T10:05:48.116Z</time></trkpt><trkpt lat="37.8065583" lon="15.0781583"><ele>1385.0</ele><time>2026-04-18T10:05:49.116Z</time></trkpt><trkpt lat="37.8065933" lon="15.0780433"><ele>1385.0</ele><time>2026-04-18T10:05:50.116Z</time></trkpt><trkpt lat="37.8066267" lon="15.07794"><ele>1385.0</ele><time>2026-04-18T10:05:51.116Z</time></trkpt><trkpt lat="37.8066683" lon="15.0778483"><ele>1386.2</ele><time>2026-04-18T10:05:52.116Z</time></trkpt><trkpt lat="37.80673" lon="15.0778117"><ele>1387.4</ele><time>2026-04-18T10:05:53.115Z</time></trkpt><trkpt lat="37.8068233" lon="15.0778167"><ele>1388.6</ele><time>2026-04-18T10:05:54.116Z</time></trkpt><trkpt lat="37.8069067" lon="15.07788"><ele>1389.8</ele><time>2026-04-18T10:05:55.116Z</time></trkpt><trkpt lat="37.8069967" lon="15.0780083"><ele>1391.0</ele><time>2026-04-18T10:05:56.115Z</time></trkpt><trkpt lat="37.8070567" lon="15.07811"><ele>1393.0</ele><time>2026-04-18T10:05:57.116Z</time></trkpt><trkpt lat="37.807095" lon="15.0782417"><ele>1395.0</ele><time>2026-04-18T10:05:58.116Z</time></trkpt><trkpt lat="37.807125" lon="15.0784267"><ele>1397.0</ele><time>2026-04-18T10:05:59.116Z</time></trkpt><trkpt lat="37.807115" lon="15.078685"><ele>1397.0</ele><time>2026-04-18T10:06:00.116Z</time></trkpt><trkpt lat="37.8071167" lon="15.07891"><ele>1397.0</ele><time>2026-04-18T10:06:01.115Z</time></trkpt><trkpt lat="37.80712" lon="15.0790933"><ele>1397.0</ele><time>2026-04-18T10:06:02.116Z</time></trkpt><trkpt lat="37.8071517" lon="15.079235"><ele>1397.0</ele><time>2026-04-18T10:06:03.116Z</time></trkpt><trkpt lat="37.8072133" lon="15.079335"><ele>1396.0</ele><time>2026-04-18T10:06:04.116Z</time></trkpt><trkpt lat="37.8072933" lon="15.0793867"><ele>1395.0</ele><time>2026-04-18T10:06:05.116Z</time></trkpt><trkpt lat="37.8073833" lon="15.0794117"><ele>1394.0</ele><time>2026-04-18T10:06:06.116Z</time></trkpt><trkpt lat="37.8074733" lon="15.079415"><ele>1393.0</ele><time>2026-04-18T10:06:07.116Z</time></trkpt><trkpt lat="37.8075633" lon="15.0793367"><ele>1392.0</ele><time>2026-04-18T10:06:08.115Z</time></trkpt><trkpt lat="37.8076117" lon="15.0792"><ele>1393.25</ele><time>2026-04-18T10:06:09.115Z</time></trkpt><trkpt lat="37.8076217" lon="15.07906"><ele>1394.5</ele><time>2026-04-18T10:06:10.116Z</time></trkpt><trkpt lat="37.8075917" lon="15.0788867"><ele>1395.75</ele><time>2026-04-18T10:06:11.116Z</time></trkpt><trkpt lat="37.8075533" lon="15.078695"><ele>1397.0</ele><time>2026-04-18T10:06:12.116Z</time></trkpt><trkpt lat="37.807565" lon="15.0785067"><ele>1397.0</ele><time>2026-04-18T10:06:13.116Z</time></trkpt><trkpt lat="37.8076233" lon="15.0782867"><ele>1397.0</ele><time>2026-04-18T10:06:14.116Z</time></trkpt><trkpt lat="37.807685" lon="15.0780817"><ele>1397.0</ele><time>2026-04-18T10:06:15.116Z</time></trkpt><trkpt lat="37.8077883" lon="15.0778517"><ele>1400.0</ele><time>2026-04-18T10:06:16.116Z</time></trkpt><trkpt lat="37.8079067" lon="15.0775983"><ele>1403.0</ele><time>2026-04-18T10:06:17.116Z</time></trkpt><trkpt lat="37.80802" lon="15.0773683"><ele>1406.0</ele><time>2026-04-18T10:06:18.116Z</time></trkpt><trkpt lat="37.8081217" lon="15.0771567"><ele>1409.0</ele><time>2026-04-18T10:06:19.116Z</time></trkpt><trkpt lat="37.80822" lon="15.07696"><ele>1412.0</ele><time>2026-04-18T10:06:20.116Z</time></trkpt><trkpt lat="37.808305" lon="15.076785"><ele>1415.0</ele><time>2026-04-18T10:06:21.116Z</time></trkpt><trkpt lat="37.808395" lon="15.0766317"><ele>1416.25</ele><time>2026-04-18T10:06:22.116Z</time></trkpt><trkpt lat="37.8084717" lon="15.0764767"><ele>1417.5</ele><time>2026-04-18T10:06:23.116Z</time></trkpt><trkpt lat="37.80853" lon="15.0763233"><ele>1418.75</ele><time>2026-04-18T10:06:24.116Z</time></trkpt><trkpt lat="37.8085617" lon="15.0761617"><ele>1420.0</ele><time>2026-04-18T10:06:25.116Z</time></trkpt><trkpt lat="37.8085833" lon="15.0759967"><ele>1419.75</ele><time>2026-04-18T10:06:26.116Z</time></trkpt><trkpt lat="37.8085783" lon="15.0758283"><ele>1419.5</ele><time>2026-04-18T10:06:27.116Z</time></trkpt><trkpt lat="37.8085533" lon="15.0756467"><ele>1419.25</ele><time>2026-04-18T10:06:28.116Z</time></trkpt><trkpt lat="37.8085083" lon="15.075465"><ele>1419.0</ele><time>2026-04-18T10:06:29.116Z</time></trkpt><trkpt lat="37.8084717" lon="15.0752933"><ele>1419.0</ele><time>2026-04-18T10:06:30.116Z</time></trkpt><trkpt lat="37.8084433" lon="15.075115"><ele>1419.0</ele><time>2026-04-18T10:06:31.116Z</time></trkpt><trkpt lat="37.80841" lon="15.074955"><ele>1419.0</ele><time>2026-04-18T10:06:32.116Z</time></trkpt><trkpt lat="37.808385" lon="15.0748183"><ele>1419.0</ele><time>2026-04-18T10:06:33.116Z</time></trkpt><trkpt lat="37.8083567" lon="15.0746917"><ele>1418.8000000000002</ele><time>2026-04-18T10:06:34.116Z</time></trkpt><trkpt lat="37.80834" lon="15.074585"><ele>1418.6000000000001</ele><time>2026-04-18T10:06:35.116Z</time></trkpt><trkpt lat="37.80832" lon="15.0744867"><ele>1418.4</ele><time>2026-04-18T10:06:36.116Z</time></trkpt><trkpt lat="37.8082983" lon="15.07438"><ele>1418.2</ele><time>2026-04-18T10:06:37.116Z</time></trkpt><trkpt lat="37.8082817" lon="15.0742617"><ele>1418.0</ele><time>2026-04-18T10:06:38.116Z</time></trkpt><trkpt lat="37.80825" lon="15.0741367"><ele>1420.0</ele><time>2026-04-18T10:06:39.116Z</time></trkpt><trkpt lat="37.80822" lon="15.0740167"><ele>1422.0</ele><time>2026-04-18T10:06:40.116Z</time></trkpt><trkpt lat="37.8081917" lon="15.0738933"><ele>1424.0</ele><time>2026-04-18T10:06:41.116Z</time></trkpt><trkpt lat="37.80817" lon="15.0737683"><ele>1426.0</ele><time>2026-04-18T10:06:42.116Z</time></trkpt><trkpt lat="37.8081733" lon="15.0736483"><ele>1428.0</ele><time>2026-04-18T10:06:43.116Z</time></trkpt><trkpt lat="37.8082083" lon="15.07354"><ele>1428.0</ele><time>2026-04-18T10:06:44.116Z</time></trkpt><trkpt lat="37.8082633" lon="15.073435"><ele>1428.0</ele><time>2026-04-18T10:06:45.116Z</time></trkpt><trkpt lat="37.8083417" lon="15.0733483"><ele>1428.0</ele><time>2026-04-18T10:06:46.116Z</time></trkpt><trkpt lat="37.8084567" lon="15.0732933"><ele>1428.0</ele><time>2026-04-18T10:06:47.116Z</time></trkpt><trkpt lat="37.8085833" lon="15.073235"><ele>1430.75</ele><time>2026-04-18T10:06:48.116Z</time></trkpt><trkpt lat="37.8087117" lon="15.0731583"><ele>1433.5</ele><time>2026-04-18T10:06:49.116Z</time></trkpt><trkpt lat="37.808805" lon="15.0730483"><ele>1436.25</ele><time>2026-04-18T10:06:50.115Z</time></trkpt><trkpt lat="37.8088617" lon="15.0729117"><ele>1439.0</ele><time>2026-04-18T10:06:51.116Z</time></trkpt><trkpt lat="37.8088817" lon="15.0727483"><ele>1439.0</ele><time>2026-04-18T10:06:52.115Z</time></trkpt><trkpt lat="37.80888" lon="15.0725167"><ele>1439.0</ele><time>2026-04-18T10:06:53.116Z</time></trkpt><trkpt lat="37.80887" lon="15.0722467"><ele>1439.0</ele><time>2026-04-18T10:06:54.116Z</time></trkpt><trkpt lat="37.8088683" lon="15.0719283"><ele>1448.0</ele><time>2026-04-18T10:06:55.116Z</time></trkpt><trkpt lat="37.80887" lon="15.07158"><ele>1457.0</ele><time>2026-04-18T10:06:56.116Z</time></trkpt><trkpt lat="37.8088883" lon="15.07127"><ele>1457.0</ele><time>2026-04-18T10:06:57.116Z</time></trkpt><trkpt lat="37.8088983" lon="15.0709983"><ele>1457.0</ele><time>2026-04-18T10:06:58.116Z</time></trkpt><trkpt lat="37.8089" lon="15.07075"><ele>1457.0</ele><time>2026-04-18T10:06:59.116Z</time></trkpt><trkpt lat="37.8089283" lon="15.0705533"><ele>1458.3333333333335</ele><time>2026-04-18T10:07:00.116Z</time></trkpt><trkpt lat="37.808955" lon="15.0703483"><ele>1459.6666666666667</ele><time>2026-04-18T10:07:01.116Z</time></trkpt><trkpt lat="37.80901" lon="15.0701483"><ele>1461.0</ele><time>2026-04-18T10:07:02.116Z</time></trkpt><trkpt lat="37.80908" lon="15.0699417"><ele>1463.25</ele><time>2026-04-18T10:07:03.116Z</time></trkpt><trkpt lat="37.809145" lon="15.0697517"><ele>1465.5</ele><time>2026-04-18T10:07:04.116Z</time></trkpt><trkpt lat="37.8092083" lon="15.0695817"><ele>1467.75</ele><time>2026-04-18T10:07:05.116Z</time></trkpt><trkpt lat="37.8092733" lon="15.06943"><ele>1470.0</ele><time>2026-04-18T10:07:06.116Z</time></trkpt><trkpt lat="37.8093233" lon="15.069295"><ele>1471.2</ele><time>2026-04-18T10:07:07.116Z</time></trkpt><trkpt lat="37.8093483" lon="15.0691683"><ele>1472.4</ele><time>2026-04-18T10:07:08.116Z</time></trkpt><trkpt lat="37.8093267" lon="15.0690333"><ele>1473.6</ele><time>2026-04-18T10:07:09.116Z</time></trkpt><trkpt lat="37.809275" lon="15.06895"><ele>1474.8</ele><time>2026-04-18T10:07:10.116Z</time></trkpt><trkpt lat="37.80918" lon="15.0688983"><ele>1476.0</ele><time>2026-04-18T10:07:11.116Z</time></trkpt><trkpt lat="37.8090833" lon="15.0688867"><ele>1477.5</ele><time>2026-04-18T10:07:12.116Z</time></trkpt><trkpt lat="37.80899" lon="15.0689217"><ele>1479.0</ele><time>2026-04-18T10:07:13.116Z</time></trkpt><trkpt lat="37.808905" lon="15.0689967"><ele>1480.5</ele><time>2026-04-18T10:07:14.115Z</time></trkpt><trkpt lat="37.80883" lon="15.0691067"><ele>1482.0</ele><time>2026-04-18T10:07:15.116Z</time></trkpt><trkpt lat="37.80873" lon="15.0692717"><ele>1481.25</ele><time>2026-04-18T10:07:16.116Z</time></trkpt><trkpt lat="37.8086517" lon="15.0694233"><ele>1480.5</ele><time>2026-04-18T10:07:17.116Z</time></trkpt><trkpt lat="37.8085833" lon="15.0695417"><ele>1479.75</ele><time>2026-04-18T10:07:18.116Z</time></trkpt><trkpt lat="37.8084967" lon="15.0696217"><ele>1479.0</ele><time>2026-04-18T10:07:19.116Z</time></trkpt><trkpt lat="37.8084" lon="15.0696567"><ele>1479.0</ele><time>2026-04-18T10:07:20.115Z</time></trkpt><trkpt lat="37.8082783" lon="15.06965"><ele>1479.0</ele><time>2026-04-18T10:07:21.116Z</time></trkpt><trkpt lat="37.8081567" lon="15.0696167"><ele>1479.0</ele><time>2026-04-18T10:07:22.116Z</time></trkpt><trkpt lat="37.808035" lon="15.0695583"><ele>1479.0</ele><time>2026-04-18T10:07:23.116Z</time></trkpt><trkpt lat="37.8079067" lon="15.069465"><ele>1479.0</ele><time>2026-04-18T10:07:24.116Z</time></trkpt><trkpt lat="37.807785" lon="15.069355"><ele>1479.0</ele><time>2026-04-18T10:07:25.116Z</time></trkpt><trkpt lat="37.8076767" lon="15.0692367"><ele>1479.0</ele><time>2026-04-18T10:07:26.116Z</time></trkpt><trkpt lat="37.80758" lon="15.069105"><ele>1479.0</ele><time>2026-04-18T10:07:27.116Z</time></trkpt><trkpt lat="37.8075017" lon="15.0689183"><ele>1477.6666666666667</ele><time>2026-04-18T10:07:28.116Z</time></trkpt><trkpt lat="37.8074167" lon="15.06872"><ele>1476.3333333333335</ele><time>2026-04-18T10:07:29.115Z</time></trkpt><trkpt lat="37.8073483" lon="15.06849"><ele>1475.0</ele><time>2026-04-18T10:07:30.116Z</time></trkpt><trkpt lat="37.8072883" lon="15.0682567"><ele>1478.6666666666667</ele><time>2026-04-18T10:07:31.116Z</time></trkpt><trkpt lat="37.807225" lon="15.068035"><ele>1482.3333333333333</ele><time>2026-04-18T10:07:32.116Z</time></trkpt><trkpt lat="37.80716" lon="15.06784"><ele>1486.0</ele><time>2026-04-18T10:07:33.116Z</time></trkpt><trkpt lat="37.8070817" lon="15.06766"><ele>1486.0</ele><time>2026-04-18T10:07:34.116Z</time></trkpt><trkpt lat="37.80696" lon="15.06749"><ele>1486.0</ele><time>2026-04-18T10:07:35.115Z</time></trkpt><trkpt lat="37.8068133" lon="15.067315"><ele>1486.0</ele><time>2026-04-18T10:07:36.116Z</time></trkpt><trkpt lat="37.8066567" lon="15.0671517"><ele>1485.0</ele><time>2026-04-18T10:07:37.116Z</time></trkpt><trkpt lat="37.806495" lon="15.0669833"><ele>1484.0</ele><time>2026-04-18T10:07:38.116Z</time></trkpt><trkpt lat="37.80634" lon="15.0668117"><ele>1483.0</ele><time>2026-04-18T10:07:39.116Z</time></trkpt><trkpt lat="37.806185" lon="15.0666633"><ele>1485.0</ele><time>2026-04-18T10:07:40.116Z</time></trkpt><trkpt lat="37.8060467" lon="15.0665167"><ele>1487.0</ele><time>2026-04-18T10:07:41.115Z</time></trkpt><trkpt lat="37.8059167" lon="15.066385"><ele>1489.0</ele><time>2026-04-18T10:07:42.116Z</time></trkpt><trkpt lat="37.8058" lon="15.0662517"><ele>1489.0</ele><time>2026-04-18T10:07:43.116Z</time></trkpt><trkpt lat="37.8056867" lon="15.0661067"><ele>1489.0</ele><time>2026-04-18T10:07:44.116Z</time></trkpt><trkpt lat="37.8055833" lon="15.06596"><ele>1489.0</ele><time>2026-04-18T10:07:45.116Z</time></trkpt><trkpt lat="37.8055133" lon="15.0658"><ele>1491.0</ele><time>2026-04-18T10:07:46.115Z</time></trkpt><trkpt lat="37.805455" lon="15.0656217"><ele>1493.0</ele><time>2026-04-18T10:07:47.116Z</time></trkpt><trkpt lat="37.8053967" lon="15.0654617"><ele>1495.0</ele><time>2026-04-18T10:07:48.116Z</time></trkpt><trkpt lat="37.8053283" lon="15.0653283"><ele>1497.0</ele><time>2026-04-18T10:07:49.116Z</time></trkpt><trkpt lat="37.8052267" lon="15.0652583"><ele>1496.25</ele><time>2026-04-18T10:07:50.116Z</time></trkpt><trkpt lat="37.805105" lon="15.0652167"><ele>1495.5</ele><time>2026-04-18T10:07:51.116Z</time></trkpt><trkpt lat="37.80498" lon="15.065215"><ele>1494.75</ele><time>2026-04-18T10:07:52.116Z</time></trkpt><trkpt lat="37.8048333" lon="15.0652433"><ele>1494.0</ele><time>2026-04-18T10:07:53.116Z</time></trkpt><trkpt lat="37.8046717" lon="15.0652817"><ele>1494.0</ele><time>2026-04-18T10:07:54.116Z</time></trkpt><trkpt lat="37.8045067" lon="15.0653183"><ele>1494.0</ele><time>2026-04-18T10:07:55.116Z</time></trkpt><trkpt lat="37.8043367" lon="15.06535"><ele>1494.0</ele><time>2026-04-18T10:07:56.116Z</time></trkpt><trkpt lat="37.8041633" lon="15.0653967"><ele>1494.6666666666667</ele><time>2026-04-18T10:07:57.116Z</time></trkpt><trkpt lat="37.80399" lon="15.0654417"><ele>1495.3333333333335</ele><time>2026-04-18T10:07:58.116Z</time></trkpt><trkpt lat="37.803815" lon="15.0654667"><ele>1496.0</ele><time>2026-04-18T10:07:59.115Z</time></trkpt><trkpt lat="37.8036417" lon="15.0654833"><ele>1497.3333333333335</ele><time>2026-04-18T10:08:00.116Z</time></trkpt><trkpt lat="37.8034783" lon="15.0655"><ele>1498.6666666666667</ele><time>2026-04-18T10:08:01.116Z</time></trkpt><trkpt lat="37.8033267" lon="15.065525"><ele>1500.0</ele><time>2026-04-18T10:08:02.116Z</time></trkpt><trkpt lat="37.80318" lon="15.0655467"><ele>1500.0</ele><time>2026-04-18T10:08:03.116Z</time></trkpt><trkpt lat="37.8030417" lon="15.0655617"><ele>1500.0</ele><time>2026-04-18T10:08:04.116Z</time></trkpt><trkpt lat="37.8029017" lon="15.0655667"><ele>1500.0</ele><time>2026-04-18T10:08:05.116Z</time></trkpt><trkpt lat="37.802765" lon="15.06555"><ele>1500.0</ele><time>2026-04-18T10:08:06.116Z</time></trkpt><trkpt lat="37.8026417" lon="15.0655017"><ele>1498.75</ele><time>2026-04-18T10:08:07.116Z</time></trkpt><trkpt lat="37.8025183" lon="15.0654467"><ele>1497.5</ele><time>2026-04-18T10:08:08.116Z</time></trkpt><trkpt lat="37.80239" lon="15.0653783"><ele>1496.25</ele><time>2026-04-18T10:08:09.116Z</time></trkpt><trkpt lat="37.8022633" lon="15.0652767"><ele>1495.0</ele><time>2026-04-18T10:08:10.116Z</time></trkpt><trkpt lat="37.8021283" lon="15.06518"><ele>1495.0</ele><time>2026-04-18T10:08:11.116Z</time></trkpt><trkpt lat="37.8019817" lon="15.0651067"><ele>1495.0</ele><time>2026-04-18T10:08:12.116Z</time></trkpt><trkpt lat="37.80183" lon="15.0650433"><ele>1495.0</ele><time>2026-04-18T10:08:13.116Z</time></trkpt><trkpt lat="37.8016983" lon="15.06498"><ele>1495.0</ele><time>2026-04-18T10:08:14.115Z</time></trkpt><trkpt lat="37.8015817" lon="15.064925"><ele>1495.0</ele><time>2026-04-18T10:08:15.116Z</time></trkpt><trkpt lat="37.801475" lon="15.0649"><ele>1495.0</ele><time>2026-04-18T10:08:16.116Z</time></trkpt><trkpt lat="37.801375" lon="15.0649083"><ele>1495.0</ele><time>2026-04-18T10:08:17.116Z</time></trkpt><trkpt lat="37.8012817" lon="15.0649767"><ele>1495.0</ele><time>2026-04-18T10:08:18.116Z</time></trkpt><trkpt lat="37.8011917" lon="15.06507"><ele>1495.0</ele><time>2026-04-18T10:08:19.116Z</time></trkpt><trkpt lat="37.8010933" lon="15.0651833"><ele>1495.0</ele><time>2026-04-18T10:08:20.116Z</time></trkpt><trkpt lat="37.80099" lon="15.0652867"><ele>1495.0</ele><time>2026-04-18T10:08:21.116Z</time></trkpt><trkpt lat="37.8008867" lon="15.0653667"><ele>1495.0</ele><time>2026-04-18T10:08:22.116Z</time></trkpt><trkpt lat="37.8007583" lon="15.0654133"><ele>1497.6666666666665</ele><time>2026-04-18T10:08:23.116Z</time></trkpt><trkpt lat="37.80062" lon="15.065435"><ele>1500.3333333333333</ele><time>2026-04-18T10:08:24.116Z</time></trkpt><trkpt lat="37.8004533" lon="15.0654317"><ele>1503.0</ele><time>2026-04-18T10:08:25.116Z</time></trkpt><trkpt lat="37.8002733" lon="15.0654133"><ele>1504.0</ele><time>2026-04-18T10:08:26.116Z</time></trkpt><trkpt lat="37.8000983" lon="15.0653733"><ele>1505.0</ele><time>2026-04-18T10:08:27.116Z</time></trkpt><trkpt lat="37.7999133" lon="15.0653233"><ele>1506.0</ele><time>2026-04-18T10:08:28.116Z</time></trkpt><trkpt lat="37.7997283" lon="15.0652683"><ele>1506.0</ele><time>2026-04-18T10:08:29.115Z</time></trkpt><trkpt lat="37.79956" lon="15.0652267"><ele>1506.0</ele><time>2026-04-18T10:08:30.116Z</time></trkpt><trkpt lat="37.7993917" lon="15.0652"><ele>1506.0</ele><time>2026-04-18T10:08:31.116Z</time></trkpt><trkpt lat="37.79922" lon="15.0652"><ele>1505.3333333333333</ele><time>2026-04-18T10:08:32.116Z</time></trkpt><trkpt lat="37.7990567" lon="15.06522"><ele>1504.6666666666665</ele><time>2026-04-18T10:08:33.116Z</time></trkpt><trkpt lat="37.7989033" lon="15.0652583"><ele>1504.0</ele><time>2026-04-18T10:08:34.116Z</time></trkpt><trkpt lat="37.7987533" lon="15.0653"><ele>1504.0</ele><time>2026-04-18T10:08:35.116Z</time></trkpt><trkpt lat="37.7986067" lon="15.0653567"><ele>1504.0</ele><time>2026-04-18T10:08:36.116Z</time></trkpt><trkpt lat="37.7984667" lon="15.0654133"><ele>1504.0</ele><time>2026-04-18T10:08:37.116Z</time></trkpt><trkpt lat="37.798325" lon="15.0654633"><ele>1504.0</ele><time>2026-04-18T10:08:38.116Z</time></trkpt><trkpt lat="37.798185" lon="15.0655033"><ele>1506.25</ele><time>2026-04-18T10:08:39.116Z</time></trkpt><trkpt lat="37.798045" lon="15.0655217"><ele>1508.5</ele><time>2026-04-18T10:08:40.116Z</time></trkpt><trkpt lat="37.7979017" lon="15.0655117"><ele>1510.75</ele><time>2026-04-18T10:08:41.116Z</time></trkpt><trkpt lat="37.7977683" lon="15.065475"><ele>1513.0</ele><time>2026-04-18T10:08:42.116Z</time></trkpt><trkpt lat="37.797645" lon="15.0654067"><ele>1513.75</ele><time>2026-04-18T10:08:43.116Z</time></trkpt><trkpt lat="37.7975383" lon="15.0653217"><ele>1514.5</ele><time>2026-04-18T10:08:44.115Z</time></trkpt><trkpt lat="37.7974483" lon="15.0652067"><ele>1515.25</ele><time>2026-04-18T10:08:45.115Z</time></trkpt><trkpt lat="37.7973767" lon="15.065065"><ele>1516.0</ele><time>2026-04-18T10:08:46.116Z</time></trkpt><trkpt lat="37.7973133" lon="15.0649067"><ele>1517.5</ele><time>2026-04-18T10:08:47.116Z</time></trkpt><trkpt lat="37.7972533" lon="15.0647267"><ele>1519.0</ele><time>2026-04-18T10:08:48.116Z</time></trkpt><trkpt lat="37.797195" lon="15.064555"><ele>1520.5</ele><time>2026-04-18T10:08:49.116Z</time></trkpt><trkpt lat="37.7971383" lon="15.0643917"><ele>1522.0</ele><time>2026-04-18T10:08:50.116Z</time></trkpt><trkpt lat="37.7970883" lon="15.0642183"><ele>1523.0</ele><time>2026-04-18T10:08:51.116Z</time></trkpt><trkpt lat="37.797035" lon="15.0640533"><ele>1524.0</ele><time>2026-04-18T10:08:52.116Z</time></trkpt><trkpt lat="37.79698" lon="15.063895"><ele>1525.0</ele><time>2026-04-18T10:08:53.116Z</time></trkpt><trkpt lat="37.796925" lon="15.063725"><ele>1526.0</ele><time>2026-04-18T10:08:54.116Z</time></trkpt><trkpt lat="37.7968717" lon="15.06356"><ele>1526.1999999999998</ele><time>2026-04-18T10:08:55.116Z</time></trkpt><trkpt lat="37.79683" lon="15.06341"><ele>1526.3999999999999</ele><time>2026-04-18T10:08:56.116Z</time></trkpt><trkpt lat="37.7967917" lon="15.0632717"><ele>1526.6</ele><time>2026-04-18T10:08:57.116Z</time></trkpt><trkpt lat="37.7967583" lon="15.0631467"><ele>1526.8</ele><time>2026-04-18T10:08:58.116Z</time></trkpt><trkpt lat="37.79672" lon="15.0630283"><ele>1527.0</ele><time>2026-04-18T10:08:59.116Z</time></trkpt><trkpt lat="37.79668" lon="15.062925"><ele>1527.3333333333333</ele><time>2026-04-18T10:09:00.116Z</time></trkpt><trkpt lat="37.796655" lon="15.0628467"><ele>1527.6666666666667</ele><time>2026-04-18T10:09:01.116Z</time></trkpt><trkpt lat="37.79664" lon="15.0627517"><ele>1528.0</ele><time>2026-04-18T10:09:03.116Z</time></trkpt><trkpt lat="37.7966" lon="15.062665"><ele>1528.3333333333335</ele><time>2026-04-18T10:09:15.116Z</time></trkpt><trkpt lat="37.7965367" lon="15.0625683"><ele>1528.6666666666667</ele><time>2026-04-18T10:09:17.116Z</time></trkpt><trkpt lat="37.7964983" lon="15.062475"><ele>1529.0</ele><time>2026-04-18T10:09:19.116Z</time></trkpt><trkpt lat="37.79657" lon="15.0624633"><ele>1529.0</ele><time>2026-04-18T10:12:49.116Z</time></trkpt><trkpt lat="37.79652" lon="15.0625467"><ele>1529.0</ele><time>2026-04-18T10:12:52.116Z</time></trkpt><trkpt lat="37.796465" lon="15.062495"><ele>1529.0</ele><time>2026-04-18T10:12:54.115Z</time></trkpt><trkpt lat="37.7964367" lon="15.0624233"><ele>1529.0</ele><time>2026-04-18T10:12:55.116Z</time></trkpt><trkpt lat="37.79639" lon="15.0623417"><ele>1529.0</ele><time>2026-04-18T10:12:56.116Z</time></trkpt><trkpt lat="37.7963283" lon="15.0622567"><ele>1529.0</ele><time>2026-04-18T10:12:57.116Z</time></trkpt><trkpt lat="37.7962667" lon="15.0621733"><ele>1531.1666666666667</ele><time>2026-04-18T10:12:58.116Z</time></trkpt><trkpt lat="37.7961983" lon="15.0621117"><ele>1533.3333333333335</ele><time>2026-04-18T10:12:59.116Z</time></trkpt><trkpt lat="37.796125" lon="15.06206"><ele>1535.5</ele><time>2026-04-18T10:13:00.116Z</time></trkpt><trkpt lat="37.7960567" lon="15.0620183"><ele>1537.6666666666667</ele><time>2026-04-18T10:13:01.116Z</time></trkpt><trkpt lat="37.7959917" lon="15.06199"><ele>1539.8333333333333</ele><time>2026-04-18T10:13:02.115Z</time></trkpt><trkpt lat="37.7959233" lon="15.0619817"><ele>1542.0</ele><time>2026-04-18T10:13:03.116Z</time></trkpt><trkpt lat="37.7958033" lon="15.061985"><ele>1542.3333333333333</ele><time>2026-04-18T10:13:05.115Z</time></trkpt><trkpt lat="37.79569" lon="15.0620067"><ele>1542.6666666666665</ele><time>2026-04-18T10:13:07.116Z</time></trkpt><trkpt lat="37.7956067" lon="15.06203"><ele>1543.0</ele><time>2026-04-18T10:13:09.116Z</time></trkpt><trkpt lat="37.7955467" lon="15.0620783"><ele>1543.3333333333333</ele><time>2026-04-18T10:13:12.116Z</time></trkpt><trkpt lat="37.7955917" lon="15.06216"><ele>1543.6666666666665</ele><time>2026-04-18T10:13:16.116Z</time></trkpt><trkpt lat="37.79564" lon="15.06222"><ele>1544.0</ele><time>2026-04-18T10:13:18.116Z</time></trkpt><trkpt lat="37.795695" lon="15.0622783"><ele>1543.9999999999998</ele><time>2026-04-18T10:13:20.116Z</time></trkpt><trkpt lat="37.79575" lon="15.0623417"><ele>1544.0</ele><time>2026-04-18T10:13:22.116Z</time></trkpt><trkpt lat="37.7958067" lon="15.0624033"><ele>1544.0</ele><time>2026-04-18T10:13:24.116Z</time></trkpt><trkpt lat="37.79586" lon="15.0624733"><ele>1544.0</ele><time>2026-04-18T10:13:27.116Z</time></trkpt><trkpt lat="37.7958533" lon="15.0625533"><ele>1543.9999999999998</ele><time>2026-04-18T10:13:30.116Z</time></trkpt><trkpt lat="37.7957633" lon="15.0626633"><ele>1544.0</ele><time>2026-04-18T10:15:55.116Z</time></trkpt><trkpt lat="37.795735" lon="15.0627833"><ele>1542.9999999999998</ele><time>2026-04-18T10:15:58.116Z</time></trkpt><trkpt lat="37.7957167" lon="15.0628717"><ele>1542.0</ele><time>2026-04-18T10:16:00.116Z</time></trkpt><trkpt lat="37.7956533" lon="15.0629483"><ele>1541.0</ele><time>2026-04-18T10:16:03.115Z</time></trkpt><trkpt lat="37.79559" lon="15.06302"><ele>1540.0</ele><time>2026-04-18T10:16:06.116Z</time></trkpt><trkpt lat="37.7955717" lon="15.0631533"><ele>1538.9999999999998</ele><time>2026-04-18T10:16:26.116Z</time></trkpt><trkpt lat="37.795645" lon="15.0630733"><ele>1538.0</ele><time>2026-04-18T10:16:29.115Z</time></trkpt><trkpt lat="37.7957283" lon="15.06296"><ele>1538.0</ele><time>2026-04-18T10:23:43.116Z</time></trkpt><trkpt lat="37.7956867" lon="15.063065"><ele>1538.0</ele><time>2026-04-18T10:26:17.116Z</time></trkpt><trkpt lat="37.79573" lon="15.062925"><ele>1538.0</ele><time>2026-04-18T10:27:27.116Z</time></trkpt><trkpt lat="37.7957617" lon="15.0628133"><ele>1538.0</ele><time>2026-04-18T10:27:29.116Z</time></trkpt><trkpt lat="37.79582" lon="15.0626917"><ele>1538.0</ele><time>2026-04-18T10:27:31.116Z</time></trkpt><trkpt lat="37.79588" lon="15.0625817"><ele>1538.0</ele><time>2026-04-18T10:27:33.116Z</time></trkpt><trkpt lat="37.7958917" lon="15.0624733"><ele>1538.0</ele><time>2026-04-18T10:27:35.116Z</time></trkpt><trkpt lat="37.7958433" lon="15.0623867"><ele>1538.0</ele><time>2026-04-18T10:27:37.116Z</time></trkpt><trkpt lat="37.7957517" lon="15.0623217"><ele>1538.0</ele><time>2026-04-18T10:27:39.116Z</time></trkpt><trkpt lat="37.7956667" lon="15.062245"><ele>1538.0</ele><time>2026-04-18T10:27:41.116Z</time></trkpt><trkpt lat="37.7956083" lon="15.06218"><ele>1538.8000000000002</ele><time>2026-04-18T10:27:43.116Z</time></trkpt><trkpt lat="37.795645" lon="15.062085"><ele>1539.6</ele><time>2026-04-18T10:27:46.116Z</time></trkpt><trkpt lat="37.79574" lon="15.0620433"><ele>1540.4</ele><time>2026-04-18T10:27:48.116Z</time></trkpt><trkpt lat="37.79587" lon="15.0620483"><ele>1541.1999999999998</ele><time>2026-04-18T10:27:50.116Z</time></trkpt><trkpt lat="37.7959883" lon="15.0620767"><ele>1542.0</ele><time>2026-04-18T10:27:52.116Z</time></trkpt><trkpt lat="37.79605" lon="15.0621033"><ele>1542.0</ele><time>2026-04-18T10:27:53.116Z</time></trkpt><trkpt lat="37.7961083" lon="15.0621383"><ele>1542.0</ele><time>2026-04-18T10:27:54.116Z</time></trkpt><trkpt lat="37.7961767" lon="15.06217"><ele>1542.0</ele><time>2026-04-18T10:27:55.116Z</time></trkpt><trkpt lat="37.7962367" lon="15.062215"><ele>1542.0</ele><time>2026-04-18T10:27:56.116Z</time></trkpt><trkpt lat="37.7963" lon="15.0622583"><ele>1542.0</ele><time>2026-04-18T10:27:57.116Z</time></trkpt><trkpt lat="37.7963617" lon="15.0623283"><ele>1542.0</ele><time>2026-04-18T10:27:58.115Z</time></trkpt><trkpt lat="37.7964167" lon="15.0624017"><ele>1542.0</ele><time>2026-04-18T10:27:59.116Z</time></trkpt><trkpt lat="37.79646" lon="15.0624967"><ele>1539.8333333333333</ele><time>2026-04-18T10:28:00.116Z</time></trkpt><trkpt lat="37.7964967" lon="15.0625883"><ele>1537.6666666666667</ele><time>2026-04-18T10:28:01.116Z</time></trkpt><trkpt lat="37.7965283" lon="15.0626767"><ele>1535.5</ele><time>2026-04-18T10:28:02.116Z</time></trkpt><trkpt lat="37.7965633" lon="15.0627833"><ele>1533.3333333333335</ele><time>2026-04-18T10:28:03.116Z</time></trkpt><trkpt lat="37.7966" lon="15.0628933"><ele>1531.1666666666667</ele><time>2026-04-18T10:28:04.116Z</time></trkpt><trkpt lat="37.7966483" lon="15.0630083"><ele>1529.0</ele><time>2026-04-18T10:28:05.116Z</time></trkpt><trkpt lat="37.7966933" lon="15.0631283"><ele>1529.0</ele><time>2026-04-18T10:28:06.116Z</time></trkpt><trkpt lat="37.79674" lon="15.0632617"><ele>1529.0</ele><time>2026-04-18T10:28:07.116Z</time></trkpt><trkpt lat="37.796785" lon="15.0634"><ele>1529.0</ele><time>2026-04-18T10:28:08.116Z</time></trkpt><trkpt lat="37.796835" lon="15.063535"><ele>1529.0</ele><time>2026-04-18T10:28:09.116Z</time></trkpt><trkpt lat="37.79688" lon="15.06367"><ele>1528.25</ele><time>2026-04-18T10:28:10.116Z</time></trkpt><trkpt lat="37.796925" lon="15.0638133"><ele>1527.5</ele><time>2026-04-18T10:28:11.116Z</time></trkpt><trkpt lat="37.7969767" lon="15.063945"><ele>1526.75</ele><time>2026-04-18T10:28:12.116Z</time></trkpt><trkpt lat="37.797025" lon="15.0640733"><ele>1526.0</ele><time>2026-04-18T10:28:13.116Z</time></trkpt><trkpt lat="37.797065" lon="15.064215"><ele>1525.0</ele><time>2026-04-18T10:28:14.116Z</time></trkpt><trkpt lat="37.7971133" lon="15.0643483"><ele>1524.0</ele><time>2026-04-18T10:28:15.116Z</time></trkpt><trkpt lat="37.7971633" lon="15.0644867"><ele>1523.0</ele><time>2026-04-18T10:28:16.116Z</time></trkpt><trkpt lat="37.7972117" lon="15.06462"><ele>1522.0</ele><time>2026-04-18T10:28:17.116Z</time></trkpt><trkpt lat="37.7972567" lon="15.064755"><ele>1522.0</ele><time>2026-04-18T10:28:18.116Z</time></trkpt><trkpt lat="37.7973067" lon="15.0648833"><ele>1522.0</ele><time>2026-04-18T10:28:19.116Z</time></trkpt><trkpt lat="37.7973583" lon="15.065"><ele>1522.0</ele><time>2026-04-18T10:28:20.116Z</time></trkpt><trkpt lat="37.7974117" lon="15.065125"><ele>1522.0</ele><time>2026-04-18T10:28:21.116Z</time></trkpt><trkpt lat="37.7974733" lon="15.0652367"><ele>1522.0</ele><time>2026-04-18T10:28:22.116Z</time></trkpt><trkpt lat="37.797545" lon="15.0653283"><ele>1520.5</ele><time>2026-04-18T10:28:23.116Z</time></trkpt><trkpt lat="37.7976317" lon="15.0654"><ele>1519.0</ele><time>2026-04-18T10:28:24.116Z</time></trkpt><trkpt lat="37.7977383" lon="15.065455"><ele>1517.5</ele><time>2026-04-18T10:28:25.116Z</time></trkpt><trkpt lat="37.7978533" lon="15.0654933"><ele>1516.0</ele><time>2026-04-18T10:28:26.116Z</time></trkpt><trkpt lat="37.797975" lon="15.0655133"><ele>1515.25</ele><time>2026-04-18T10:28:27.116Z</time></trkpt><trkpt lat="37.7980883" lon="15.0655233"><ele>1514.5</ele><time>2026-04-18T10:28:28.116Z</time></trkpt><trkpt lat="37.7982083" lon="15.0655067"><ele>1513.75</ele><time>2026-04-18T10:28:29.116Z</time></trkpt><trkpt lat="37.7983217" lon="15.06547"><ele>1513.0</ele><time>2026-04-18T10:28:30.115Z</time></trkpt><trkpt lat="37.79843" lon="15.0654217"><ele>1510.75</ele><time>2026-04-18T10:28:31.116Z</time></trkpt><trkpt lat="37.7985383" lon="15.0653717"><ele>1508.5</ele><time>2026-04-18T10:28:32.116Z</time></trkpt><trkpt lat="37.7986533" lon="15.0653233"><ele>1506.25</ele><time>2026-04-18T10:28:33.116Z</time></trkpt><trkpt lat="37.7987683" lon="15.0652817"><ele>1504.0</ele><time>2026-04-18T10:28:34.116Z</time></trkpt><trkpt lat="37.7988833" lon="15.0652483"><ele>1504.0</ele><time>2026-04-18T10:28:35.116Z</time></trkpt><trkpt lat="37.799005" lon="15.0652233"><ele>1504.0</ele><time>2026-04-18T10:28:36.116Z</time></trkpt><trkpt lat="37.7991167" lon="15.0652033"><ele>1504.0</ele><time>2026-04-18T10:28:37.116Z</time></trkpt><trkpt lat="37.7992333" lon="15.0651933"><ele>1504.0</ele><time>2026-04-18T10:28:38.115Z</time></trkpt><trkpt lat="37.7993533" lon="15.0651933"><ele>1504.5</ele><time>2026-04-18T10:28:39.116Z</time></trkpt><trkpt lat="37.7994733" lon="15.06521"><ele>1505.0</ele><time>2026-04-18T10:28:40.116Z</time></trkpt><trkpt lat="37.7995967" lon="15.0652317"><ele>1505.5</ele><time>2026-04-18T10:28:41.116Z</time></trkpt><trkpt lat="37.7997267" lon="15.06526"><ele>1506.0</ele><time>2026-04-18T10:28:42.116Z</time></trkpt><trkpt lat="37.799855" lon="15.065305"><ele>1506.0</ele><time>2026-04-18T10:28:43.115Z</time></trkpt><trkpt lat="37.7999867" lon="15.0653517"><ele>1506.0</ele><time>2026-04-18T10:28:44.116Z</time></trkpt><trkpt lat="37.8001267" lon="15.0653967"><ele>1506.0</ele><time>2026-04-18T10:28:45.116Z</time></trkpt><trkpt lat="37.80026" lon="15.0654333"><ele>1506.0</ele><time>2026-04-18T10:28:46.116Z</time></trkpt><trkpt lat="37.8004" lon="15.065455"><ele>1505.25</ele><time>2026-04-18T10:28:47.116Z</time></trkpt><trkpt lat="37.8005367" lon="15.0654583"><ele>1504.5</ele><time>2026-04-18T10:28:48.116Z</time></trkpt><trkpt lat="37.80067" lon="15.0654467"><ele>1503.75</ele><time>2026-04-18T10:28:49.116Z</time></trkpt><trkpt lat="37.8007967" lon="15.0654217"><ele>1503.0</ele><time>2026-04-18T10:28:50.116Z</time></trkpt><trkpt lat="37.8009133" lon="15.0653933"><ele>1501.0</ele><time>2026-04-18T10:28:51.116Z</time></trkpt><trkpt lat="37.8010233" lon="15.0653167"><ele>1499.0</ele><time>2026-04-18T10:28:52.116Z</time></trkpt><trkpt lat="37.8011267" lon="15.0652233"><ele>1497.0</ele><time>2026-04-18T10:28:53.116Z</time></trkpt><trkpt lat="37.8012133" lon="15.06512"><ele>1495.0</ele><time>2026-04-18T10:28:54.116Z</time></trkpt><trkpt lat="37.8013" lon="15.06502"><ele>1497.0</ele><time>2026-04-18T10:28:55.116Z</time></trkpt><trkpt lat="37.8013783" lon="15.0649317"><ele>1499.0</ele><time>2026-04-18T10:28:56.116Z</time></trkpt><trkpt lat="37.8014633" lon="15.064865"><ele>1501.0</ele><time>2026-04-18T10:28:57.116Z</time></trkpt><trkpt lat="37.8015617" lon="15.0648417"><ele>1503.0</ele><time>2026-04-18T10:28:58.116Z</time></trkpt><trkpt lat="37.8016717" lon="15.0648567"><ele>1505.0</ele><time>2026-04-18T10:28:59.116Z</time></trkpt><trkpt lat="37.8018017" lon="15.064905"><ele>1502.5</ele><time>2026-04-18T10:29:00.115Z</time></trkpt><trkpt lat="37.8019367" lon="15.064965"><ele>1500.0</ele><time>2026-04-18T10:29:01.116Z</time></trkpt><trkpt lat="37.8020767" lon="15.0650317"><ele>1497.5</ele><time>2026-04-18T10:29:02.116Z</time></trkpt><trkpt lat="37.8022217" lon="15.0651067"><ele>1495.0</ele><time>2026-04-18T10:29:03.116Z</time></trkpt><trkpt lat="37.8023667" lon="15.0651833"><ele>1495.0</ele><time>2026-04-18T10:29:04.116Z</time></trkpt><trkpt lat="37.8025" lon="15.06527"><ele>1495.0</ele><time>2026-04-18T10:29:05.116Z</time></trkpt><trkpt lat="37.8026233" lon="15.065355"><ele>1495.0</ele><time>2026-04-18T10:29:06.116Z</time></trkpt><trkpt lat="37.802745" lon="15.0654333"><ele>1495.0</ele><time>2026-04-18T10:29:07.116Z</time></trkpt><trkpt lat="37.8028517" lon="15.0655133"><ele>1496.25</ele><time>2026-04-18T10:29:08.116Z</time></trkpt><trkpt lat="37.8029633" lon="15.0655733"><ele>1497.5</ele><time>2026-04-18T10:29:09.116Z</time></trkpt><trkpt lat="37.8030667" lon="15.065635"><ele>1498.75</ele><time>2026-04-18T10:29:10.116Z</time></trkpt><trkpt lat="37.8031917" lon="15.0656433"><ele>1500.0</ele><time>2026-04-18T10:29:11.116Z</time></trkpt><trkpt lat="37.8033167" lon="15.0656133"><ele>1500.0</ele><time>2026-04-18T10:29:12.116Z</time></trkpt><trkpt lat="37.8034517" lon="15.0655833"><ele>1500.0</ele><time>2026-04-18T10:29:13.116Z</time></trkpt><trkpt lat="37.80361" lon="15.0655467"><ele>1500.0</ele><time>2026-04-18T10:29:14.116Z</time></trkpt><trkpt lat="37.803775" lon="15.0654917"><ele>1498.6666666666667</ele><time>2026-04-18T10:29:15.116Z</time></trkpt><trkpt lat="37.80394" lon="15.0654533"><ele>1497.3333333333335</ele><time>2026-04-18T10:29:16.116Z</time></trkpt><trkpt lat="37.8041033" lon="15.0654067"><ele>1496.0</ele><time>2026-04-18T10:29:17.116Z</time></trkpt><trkpt lat="37.8042667" lon="15.06537"><ele>1495.3333333333335</ele><time>2026-04-18T10:29:18.116Z</time></trkpt><trkpt lat="37.8044317" lon="15.06533"><ele>1494.6666666666667</ele><time>2026-04-18T10:29:19.116Z</time></trkpt><trkpt lat="37.80459" lon="15.0652933"><ele>1494.0</ele><time>2026-04-18T10:29:20.116Z</time></trkpt><trkpt lat="37.8047383" lon="15.0652667"><ele>1494.0</ele><time>2026-04-18T10:29:21.116Z</time></trkpt><trkpt lat="37.8048767" lon="15.0652417"><ele>1494.0</ele><time>2026-04-18T10:29:22.115Z</time></trkpt><trkpt lat="37.8050017" lon="15.065225"><ele>1494.0</ele><time>2026-04-18T10:29:23.116Z</time></trkpt><trkpt lat="37.8051167" lon="15.0652233"><ele>1494.0</ele><time>2026-04-18T10:29:24.115Z</time></trkpt><trkpt lat="37.8052333" lon="15.0652767"><ele>1494.75</ele><time>2026-04-18T10:29:25.115Z</time></trkpt><trkpt lat="37.8053283" lon="15.0653667"><ele>1495.5</ele><time>2026-04-18T10:29:26.116Z</time></trkpt><trkpt lat="37.805405" lon="15.0654767"><ele>1496.25</ele><time>2026-04-18T10:29:27.116Z</time></trkpt><trkpt lat="37.8054683" lon="15.065615"><ele>1497.0</ele><time>2026-04-18T10:29:28.116Z</time></trkpt><trkpt lat="37.8055283" lon="15.0657783"><ele>1495.0</ele><time>2026-04-18T10:29:29.116Z</time></trkpt><trkpt lat="37.8055967" lon="15.06594"><ele>1493.0</ele><time>2026-04-18T10:29:30.116Z</time></trkpt><trkpt lat="37.8056883" lon="15.0660783"><ele>1491.0</ele><time>2026-04-18T10:29:31.116Z</time></trkpt><trkpt lat="37.80579" lon="15.0662083"><ele>1489.0</ele><time>2026-04-18T10:29:32.116Z</time></trkpt><trkpt lat="37.8059" lon="15.066335"><ele>1490.5</ele><time>2026-04-18T10:29:33.116Z</time></trkpt><trkpt lat="37.806015" lon="15.0664567"><ele>1492.0</ele><time>2026-04-18T10:29:34.116Z</time></trkpt><trkpt lat="37.80613" lon="15.0665783"><ele>1493.5</ele><time>2026-04-18T10:29:35.116Z</time></trkpt><trkpt lat="37.8062533" lon="15.066685"><ele>1495.0</ele><time>2026-04-18T10:29:36.116Z</time></trkpt><trkpt lat="37.8063717" lon="15.0668"><ele>1492.0</ele><time>2026-04-18T10:29:37.116Z</time></trkpt><trkpt lat="37.8064833" lon="15.066915"><ele>1489.0</ele><time>2026-04-18T10:29:38.116Z</time></trkpt><trkpt lat="37.8065917" lon="15.0670417"><ele>1486.0</ele><time>2026-04-18T10:29:39.116Z</time></trkpt><trkpt lat="37.806705" lon="15.067145"><ele>1483.0</ele><time>2026-04-18T10:29:40.116Z</time></trkpt><trkpt lat="37.8068083" lon="15.0672417"><ele>1483.75</ele><time>2026-04-18T10:29:41.116Z</time></trkpt><trkpt lat="37.80691" lon="15.0673417"><ele>1484.5</ele><time>2026-04-18T10:29:42.116Z</time></trkpt><trkpt lat="37.8070133" lon="15.0674333"><ele>1485.25</ele><time>2026-04-18T10:29:43.116Z</time></trkpt><trkpt lat="37.807115" lon="15.06754"><ele>1486.0</ele><time>2026-04-18T10:29:44.117Z</time></trkpt><trkpt lat="37.8072033" lon="15.067655"><ele>1486.0</ele><time>2026-04-18T10:29:45.117Z</time></trkpt><trkpt lat="37.8072783" lon="15.0677917"><ele>1486.0</ele><time>2026-04-18T10:29:46.117Z</time></trkpt><trkpt lat="37.8073483" lon="15.0679383"><ele>1486.0</ele><time>2026-04-18T10:29:47.117Z</time></trkpt><trkpt lat="37.8074" lon="15.0681083"><ele>1486.0</ele><time>2026-04-18T10:29:48.116Z</time></trkpt><trkpt lat="37.807445" lon="15.0682833"><ele>1483.25</ele><time>2026-04-18T10:29:49.117Z</time></trkpt><trkpt lat="37.8074917" lon="15.0684533"><ele>1480.5</ele><time>2026-04-18T10:29:50.117Z</time></trkpt><trkpt lat="37.8075433" lon="15.06862"><ele>1477.75</ele><time>2026-04-18T10:29:51.116Z</time></trkpt><trkpt lat="37.807595" lon="15.0687817"><ele>1475.0</ele><time>2026-04-18T10:29:52.117Z</time></trkpt><trkpt lat="37.8076517" lon="15.0689317"><ele>1476.0</ele><time>2026-04-18T10:29:53.117Z</time></trkpt><trkpt lat="37.80772" lon="15.0690783"><ele>1477.0</ele><time>2026-04-18T10:29:54.117Z</time></trkpt><trkpt lat="37.80781" lon="15.06921"><ele>1478.0</ele><time>2026-04-18T10:29:55.117Z</time></trkpt><trkpt lat="37.8079183" lon="15.0693117"><ele>1479.0</ele><time>2026-04-18T10:29:56.117Z</time></trkpt><trkpt lat="37.8080261" lon="15.0694"><ele>1479.0</ele><time>2026-04-18T10:29:57.117Z</time></trkpt><trkpt lat="37.8081276" lon="15.0694843"><ele>1479.0</ele><time>2026-04-18T10:29:58.117Z</time></trkpt><trkpt lat="37.8082233" lon="15.0695654"><ele>1479.0</ele><time>2026-04-18T10:29:59.117Z</time></trkpt><trkpt lat="37.8083179" lon="15.0696328"><ele>1479.0</ele><time>2026-04-18T10:30:00.117Z</time></trkpt><trkpt lat="37.8084164" lon="15.0696648"><ele>1479.0</ele><time>2026-04-18T10:30:01.117Z</time></trkpt><trkpt lat="37.8085159" lon="15.0696469"><ele>1476.75</ele><time>2026-04-18T10:30:02.117Z</time></trkpt><trkpt lat="37.8086104" lon="15.069585"><ele>1474.5</ele><time>2026-04-18T10:30:03.117Z</time></trkpt><trkpt lat="37.808701" lon="15.0694916"><ele>1472.25</ele><time>2026-04-18T10:30:04.116Z</time></trkpt><trkpt lat="37.8087805" lon="15.0693707"><ele>1470.0</ele><time>2026-04-18T10:30:05.117Z</time></trkpt><trkpt lat="37.8088438" lon="15.0692334"><ele>1472.4</ele><time>2026-04-18T10:30:06.117Z</time></trkpt><trkpt lat="37.8089016" lon="15.069103"><ele>1474.8</ele><time>2026-04-18T10:30:07.117Z</time></trkpt><trkpt lat="37.8089577" lon="15.0689902"><ele>1477.1999999999998</ele><time>2026-04-18T10:30:08.117Z</time></trkpt><trkpt lat="37.8090236" lon="15.0689073"><ele>1479.6</ele><time>2026-04-18T10:30:09.117Z</time></trkpt><trkpt lat="37.8090904" lon="15.0688748"><ele>1482.0</ele><time>2026-04-18T10:30:10.117Z</time></trkpt><trkpt lat="37.8091554" lon="15.0688838"><ele>1482.0</ele><time>2026-04-18T10:30:11.117Z</time></trkpt><trkpt lat="37.8092301" lon="15.0689083"><ele>1482.0</ele><time>2026-04-18T10:30:12.117Z</time></trkpt><trkpt lat="37.8092944" lon="15.0689611"><ele>1482.0</ele><time>2026-04-18T10:30:13.117Z</time></trkpt><trkpt lat="37.8093317" lon="15.0690478"><ele>1482.0</ele><time>2026-04-18T10:30:14.117Z</time></trkpt><trkpt lat="37.8093394" lon="15.0691535"><ele>1482.0</ele><time>2026-04-18T10:30:15.117Z</time></trkpt><trkpt lat="37.8093265" lon="15.0692744"><ele>1482.0</ele><time>2026-04-18T10:30:16.117Z</time></trkpt><trkpt lat="37.8092865" lon="15.0694049"><ele>1479.0</ele><time>2026-04-18T10:30:17.117Z</time></trkpt><trkpt lat="37.8092306" lon="15.0695509"><ele>1476.0</ele><time>2026-04-18T10:30:18.117Z</time></trkpt><trkpt lat="37.8091621" lon="15.0697158"><ele>1473.0</ele><time>2026-04-18T10:30:19.117Z</time></trkpt><trkpt lat="37.8090856" lon="15.0699138"><ele>1470.0</ele><time>2026-04-18T10:30:20.117Z</time></trkpt><trkpt lat="37.8090083" lon="15.0701501"><ele>1467.0</ele><time>2026-04-18T10:30:21.117Z</time></trkpt><trkpt lat="37.8089483" lon="15.0703802"><ele>1464.0</ele><time>2026-04-18T10:30:22.116Z</time></trkpt><trkpt lat="37.8089011" lon="15.0706226"><ele>1461.0</ele><time>2026-04-18T10:30:23.117Z</time></trkpt><trkpt lat="37.8088833" lon="15.0708636"><ele>1459.6666666666667</ele><time>2026-04-18T10:30:24.117Z</time></trkpt><trkpt lat="37.8088799" lon="15.0710975"><ele>1458.3333333333335</ele><time>2026-04-18T10:30:25.117Z</time></trkpt><trkpt lat="37.8088826" lon="15.0713211"><ele>1457.0</ele><time>2026-04-18T10:30:26.117Z</time></trkpt><trkpt lat="37.8088849" lon="15.0715312"><ele>1455.0</ele><time>2026-04-18T10:30:27.117Z</time></trkpt><trkpt lat="37.8088847" lon="15.0717328"><ele>1453.0</ele><time>2026-04-18T10:30:28.117Z</time></trkpt><trkpt lat="37.8088842" lon="15.0719332"><ele>1451.0</ele><time>2026-04-18T10:30:29.117Z</time></trkpt><trkpt lat="37.8088887" lon="15.0721193"><ele>1451.0</ele><time>2026-04-18T10:30:30.117Z</time></trkpt><trkpt lat="37.8088791" lon="15.0723067"><ele>1451.0</ele><time>2026-04-18T10:30:31.117Z</time></trkpt><trkpt lat="37.8088684" lon="15.072493"><ele>1451.0</ele><time>2026-04-18T10:30:32.117Z</time></trkpt><trkpt lat="37.8088615" lon="15.0726666"><ele>1451.0</ele><time>2026-04-18T10:30:33.117Z</time></trkpt><trkpt lat="37.8088517" lon="15.0728225"><ele>1448.0</ele><time>2026-04-18T10:30:34.117Z</time></trkpt><trkpt lat="37.8088239" lon="15.0729644"><ele>1445.0</ele><time>2026-04-18T10:30:35.117Z</time></trkpt><trkpt lat="37.8087721" lon="15.0730999"><ele>1442.0</ele><time>2026-04-18T10:30:36.116Z</time></trkpt><trkpt lat="37.8087141" lon="15.0732244"><ele>1439.0</ele><time>2026-04-18T10:30:37.117Z</time></trkpt><trkpt lat="37.8086466" lon="15.0733365"><ele>1437.4</ele><time>2026-04-18T10:30:38.117Z</time></trkpt><trkpt lat="37.8085737" lon="15.0734242"><ele>1435.8000000000002</ele><time>2026-04-18T10:30:39.117Z</time></trkpt><trkpt lat="37.8084611" lon="15.0734465"><ele>1434.1999999999998</ele><time>2026-04-18T10:30:40.117Z</time></trkpt><trkpt lat="37.8083679" lon="15.0735018"><ele>1432.6</ele><time>2026-04-18T10:30:41.117Z</time></trkpt><trkpt lat="37.8082826" lon="15.0735618"><ele>1431.0</ele><time>2026-04-18T10:30:42.117Z</time></trkpt><trkpt lat="37.8082263" lon="15.0736388"><ele>1430.4</ele><time>2026-04-18T10:30:43.117Z</time></trkpt><trkpt lat="37.8081796" lon="15.073724"><ele>1429.8</ele><time>2026-04-18T10:30:44.117Z</time></trkpt><trkpt lat="37.808148" lon="15.073827"><ele>1429.2</ele><time>2026-04-18T10:30:45.117Z</time></trkpt><trkpt lat="37.8081465" lon="15.0739423"><ele>1428.6000000000001</ele><time>2026-04-18T10:30:46.117Z</time></trkpt><trkpt lat="37.8081688" lon="15.0740754"><ele>1428.0</ele><time>2026-04-18T10:30:47.117Z</time></trkpt><trkpt lat="37.8081936" lon="15.0742142"><ele>1426.0</ele><time>2026-04-18T10:30:48.117Z</time></trkpt><trkpt lat="37.8082148" lon="15.074345"><ele>1424.0</ele><time>2026-04-18T10:30:49.117Z</time></trkpt><trkpt lat="37.8082425" lon="15.0744792"><ele>1422.0</ele><time>2026-04-18T10:30:50.117Z</time></trkpt><trkpt lat="37.8082714" lon="15.0746084"><ele>1420.0</ele><time>2026-04-18T10:30:51.117Z</time></trkpt><trkpt lat="37.8083049" lon="15.0747451"><ele>1418.0</ele><time>2026-04-18T10:30:52.117Z</time></trkpt><trkpt lat="37.8083341" lon="15.074882"><ele>1418.2</ele><time>2026-04-18T10:30:53.117Z</time></trkpt><trkpt lat="37.8083573" lon="15.0750206"><ele>1418.4</ele><time>2026-04-18T10:30:54.117Z</time></trkpt><trkpt lat="37.8083702" lon="15.0751583"><ele>1418.6000000000001</ele><time>2026-04-18T10:30:55.117Z</time></trkpt><trkpt lat="37.808385" lon="15.0752903"><ele>1418.8000000000002</ele><time>2026-04-18T10:30:56.117Z</time></trkpt><trkpt lat="37.8084057" lon="15.0754248"><ele>1419.0</ele><time>2026-04-18T10:30:57.116Z</time></trkpt><trkpt lat="37.8084259" lon="15.075566"><ele>1419.0</ele><time>2026-04-18T10:30:58.117Z</time></trkpt><trkpt lat="37.8084454" lon="15.0757209"><ele>1419.0</ele><time>2026-04-18T10:30:59.117Z</time></trkpt><trkpt lat="37.8084671" lon="15.0758749"><ele>1419.0</ele><time>2026-04-18T10:31:00.117Z</time></trkpt><trkpt lat="37.8084815" lon="15.0760246"><ele>1419.0</ele><time>2026-04-18T10:31:01.117Z</time></trkpt><trkpt lat="37.8084806" lon="15.0761628"><ele>1419.2</ele><time>2026-04-18T10:31:02.117Z</time></trkpt><trkpt lat="37.8084663" lon="15.0762945"><ele>1419.4</ele><time>2026-04-18T10:31:03.116Z</time></trkpt><trkpt lat="37.8084365" lon="15.0764328"><ele>1419.6</ele><time>2026-04-18T10:31:04.117Z</time></trkpt><trkpt lat="37.8083915" lon="15.0765584"><ele>1419.8</ele><time>2026-04-18T10:31:05.117Z</time></trkpt><trkpt lat="37.8083326" lon="15.0766776"><ele>1420.0</ele><time>2026-04-18T10:31:06.117Z</time></trkpt><trkpt lat="37.8082653" lon="15.0768052"><ele>1418.75</ele><time>2026-04-18T10:31:07.116Z</time></trkpt><trkpt lat="37.8081906" lon="15.07694"><ele>1417.5</ele><time>2026-04-18T10:31:08.117Z</time></trkpt><trkpt lat="37.8081175" lon="15.0770767"><ele>1416.25</ele><time>2026-04-18T10:31:09.117Z</time></trkpt><trkpt lat="37.8080455" lon="15.0772226"><ele>1415.0</ele><time>2026-04-18T10:31:10.117Z</time></trkpt><trkpt lat="37.8079745" lon="15.0773649"><ele>1412.75</ele><time>2026-04-18T10:31:11.117Z</time></trkpt><trkpt lat="37.8079013" lon="15.0774974"><ele>1410.5</ele><time>2026-04-18T10:31:12.117Z</time></trkpt><trkpt lat="37.8078305" lon="15.0776239"><ele>1408.25</ele><time>2026-04-18T10:31:13.117Z</time></trkpt><trkpt lat="37.8077654" lon="15.0777505"><ele>1406.0</ele><time>2026-04-18T10:31:14.117Z</time></trkpt><trkpt lat="37.8076993" lon="15.0778802"><ele>1407.0</ele><time>2026-04-18T10:31:15.117Z</time></trkpt><trkpt lat="37.80763" lon="15.0780168"><ele>1408.0</ele><time>2026-04-18T10:31:16.117Z</time></trkpt><trkpt lat="37.80756" lon="15.0781561"><ele>1409.0</ele><time>2026-04-18T10:31:17.117Z</time></trkpt><trkpt lat="37.8074942" lon="15.0782954"><ele>1410.0</ele><time>2026-04-18T10:31:18.117Z</time></trkpt><trkpt lat="37.8074434" lon="15.0784395"><ele>1407.4</ele><time>2026-04-18T10:31:19.117Z</time></trkpt><trkpt lat="37.8074198" lon="15.0785844"><ele>1404.8</ele><time>2026-04-18T10:31:20.117Z</time></trkpt><trkpt lat="37.8074252" lon="15.0787254"><ele>1402.1999999999998</ele><time>2026-04-18T10:31:21.116Z</time></trkpt><trkpt lat="37.8074492" lon="15.0788604"><ele>1399.6</ele><time>2026-04-18T10:31:22.117Z</time></trkpt><trkpt lat="37.8074769" lon="15.0789811"><ele>1397.0</ele><time>2026-04-18T10:31:23.117Z</time></trkpt><trkpt lat="37.8074987" lon="15.0790936"><ele>1396.1666666666667</ele><time>2026-04-18T10:31:24.117Z</time></trkpt><trkpt lat="37.8074995" lon="15.0791992"><ele>1395.3333333333335</ele><time>2026-04-18T10:31:25.117Z</time></trkpt><trkpt lat="37.8074698" lon="15.0792856"><ele>1394.5</ele><time>2026-04-18T10:31:26.117Z</time></trkpt><trkpt lat="37.8074157" lon="15.0793412"><ele>1393.6666666666667</ele><time>2026-04-18T10:31:27.117Z</time></trkpt><trkpt lat="37.8073427" lon="15.0793644"><ele>1392.8333333333333</ele><time>2026-04-18T10:31:28.117Z</time></trkpt><trkpt lat="37.8072599" lon="15.0793375"><ele>1392.0</ele><time>2026-04-18T10:31:29.116Z</time></trkpt><trkpt lat="37.8071781" lon="15.0792634"><ele>1392.0</ele><time>2026-04-18T10:31:30.117Z</time></trkpt><trkpt lat="37.807127" lon="15.0791513"><ele>1392.0</ele><time>2026-04-18T10:31:31.117Z</time></trkpt><trkpt lat="37.8071043" lon="15.0790062"><ele>1392.0</ele><time>2026-04-18T10:31:32.117Z</time></trkpt><trkpt lat="37.8070973" lon="15.0788259"><ele>1392.0</ele><time>2026-04-18T10:31:33.117Z</time></trkpt><trkpt lat="37.8070829" lon="15.0786196"><ele>1393.6666666666667</ele><time>2026-04-18T10:31:34.117Z</time></trkpt><trkpt lat="37.8070838" lon="15.0784018"><ele>1395.3333333333335</ele><time>2026-04-18T10:31:35.117Z</time></trkpt><trkpt lat="37.8070847" lon="15.0781903"><ele>1397.0</ele><time>2026-04-18T10:31:36.117Z</time></trkpt><trkpt lat="37.8070659" lon="15.0780174"><ele>1396.0</ele><time>2026-04-18T10:31:37.117Z</time></trkpt><trkpt lat="37.80701" lon="15.077885"><ele>1395.0</ele><time>2026-04-18T10:31:38.117Z</time></trkpt><trkpt lat="37.8069383" lon="15.0778167"><ele>1394.0</ele><time>2026-04-18T10:31:39.117Z</time></trkpt><trkpt lat="37.8068633" lon="15.07778"><ele>1393.0</ele><time>2026-04-18T10:31:40.116Z</time></trkpt><trkpt lat="37.806795" lon="15.0777683"><ele>1392.0</ele><time>2026-04-18T10:31:41.116Z</time></trkpt><trkpt lat="37.80674" lon="15.07781"><ele>1391.0</ele><time>2026-04-18T10:31:42.117Z</time></trkpt><trkpt lat="37.80668" lon="15.0778767"><ele>1391.0</ele><time>2026-04-18T10:31:43.116Z</time></trkpt><trkpt lat="37.80664" lon="15.0779733"><ele>1391.0</ele><time>2026-04-18T10:31:44.117Z</time></trkpt><trkpt lat="37.806635" lon="15.0780717"><ele>1391.0</ele><time>2026-04-18T10:31:45.116Z</time></trkpt><trkpt lat="37.8066483" lon="15.0782233"><ele>1391.0</ele><time>2026-04-18T10:31:46.117Z</time></trkpt><trkpt lat="37.80666" lon="15.0783933"><ele>1391.0</ele><time>2026-04-18T10:31:47.117Z</time></trkpt><trkpt lat="37.80667" lon="15.0786517"><ele>1389.6666666666667</ele><time>2026-04-18T10:31:48.117Z</time></trkpt><trkpt lat="37.806705" lon="15.07891"><ele>1388.3333333333333</ele><time>2026-04-18T10:31:49.117Z</time></trkpt><trkpt lat="37.8067217" lon="15.0791183"><ele>1387.0</ele><time>2026-04-18T10:31:50.116Z</time></trkpt><trkpt lat="37.80676" lon="15.079365"><ele>1387.0</ele><time>2026-04-18T10:31:51.117Z</time></trkpt><trkpt lat="37.80681" lon="15.0795667"><ele>1387.0</ele><time>2026-04-18T10:31:52.117Z</time></trkpt><trkpt lat="37.806885" lon="15.0797067"><ele>1387.0</ele><time>2026-04-18T10:31:53.117Z</time></trkpt><trkpt lat="37.807" lon="15.079775"><ele>1387.0</ele><time>2026-04-18T10:31:54.117Z</time></trkpt><trkpt lat="37.8071267" lon="15.0798283"><ele>1388.25</ele><time>2026-04-18T10:31:55.117Z</time></trkpt><trkpt lat="37.8072533" lon="15.07988"><ele>1389.5</ele><time>2026-04-18T10:31:56.117Z</time></trkpt><trkpt lat="37.8073733" lon="15.07993"><ele>1390.75</ele><time>2026-04-18T10:31:57.117Z</time></trkpt><trkpt lat="37.8074933" lon="15.0799767"><ele>1392.0</ele><time>2026-04-18T10:31:58.117Z</time></trkpt><trkpt lat="37.8076183" lon="15.0800183"><ele>1389.25</ele><time>2026-04-18T10:31:59.117Z</time></trkpt><trkpt lat="37.8077433" lon="15.080035"><ele>1386.5</ele><time>2026-04-18T10:32:00.117Z</time></trkpt><trkpt lat="37.8078733" lon="15.08001"><ele>1383.75</ele><time>2026-04-18T10:32:01.117Z</time></trkpt><trkpt lat="37.808005" lon="15.0799567"><ele>1381.0</ele><time>2026-04-18T10:32:02.116Z</time></trkpt><trkpt lat="37.8081417" lon="15.079905"><ele>1381.0</ele><time>2026-04-18T10:32:03.116Z</time></trkpt><trkpt lat="37.8082733" lon="15.0798783"><ele>1381.0</ele><time>2026-04-18T10:32:04.117Z</time></trkpt><trkpt lat="37.80842" lon="15.07987"><ele>1381.0</ele><time>2026-04-18T10:32:05.117Z</time></trkpt><trkpt lat="37.8085667" lon="15.0798883"><ele>1381.0</ele><time>2026-04-18T10:32:06.117Z</time></trkpt><trkpt lat="37.80871" lon="15.0799167"><ele>1379.0</ele><time>2026-04-18T10:32:07.117Z</time></trkpt><trkpt lat="37.8088383" lon="15.079945"><ele>1377.0</ele><time>2026-04-18T10:32:08.117Z</time></trkpt><trkpt lat="37.808965" lon="15.07997"><ele>1375.0</ele><time>2026-04-18T10:32:09.116Z</time></trkpt><trkpt lat="37.8090867" lon="15.0799767"><ele>1373.0</ele><time>2026-04-18T10:32:10.117Z</time></trkpt><trkpt lat="37.8092183" lon="15.0799233"><ele>1369.0</ele><time>2026-04-18T10:32:11.117Z</time></trkpt><trkpt lat="37.809345" lon="15.0798533"><ele>1365.0</ele><time>2026-04-18T10:32:12.117Z</time></trkpt><trkpt lat="37.809455" lon="15.0797767"><ele>1361.0</ele><time>2026-04-18T10:32:13.117Z</time></trkpt><trkpt lat="37.80957" lon="15.079695"><ele>1357.0</ele><time>2026-04-18T10:32:14.117Z</time></trkpt><trkpt lat="37.8096783" lon="15.0796533"><ele>1357.0</ele><time>2026-04-18T10:32:15.117Z</time></trkpt><trkpt lat="37.8097767" lon="15.0796717"><ele>1357.0</ele><time>2026-04-18T10:32:16.117Z</time></trkpt><trkpt lat="37.80987" lon="15.0797067"><ele>1357.0</ele><time>2026-04-18T10:32:17.117Z</time></trkpt><trkpt lat="37.8099633" lon="15.079795"><ele>1357.0</ele><time>2026-04-18T10:32:18.117Z</time></trkpt><trkpt lat="37.8100083" lon="15.079915"><ele>1357.0</ele><time>2026-04-18T10:32:19.117Z</time></trkpt><trkpt lat="37.8100267" lon="15.0800367"><ele>1356.0</ele><time>2026-04-18T10:32:20.117Z</time></trkpt><trkpt lat="37.810005" lon="15.080185"><ele>1355.0</ele><time>2026-04-18T10:32:21.117Z</time></trkpt><trkpt lat="37.8099517" lon="15.080335"><ele>1354.0</ele><time>2026-04-18T10:32:22.117Z</time></trkpt><trkpt lat="37.8098667" lon="15.080485"><ele>1353.0</ele><time>2026-04-18T10:32:23.116Z</time></trkpt><trkpt lat="37.8097717" lon="15.080635"><ele>1350.5</ele><time>2026-04-18T10:32:24.117Z</time></trkpt><trkpt lat="37.8096667" lon="15.0807767"><ele>1348.0</ele><time>2026-04-18T10:32:25.117Z</time></trkpt><trkpt lat="37.809575" lon="15.08091"><ele>1345.5</ele><time>2026-04-18T10:32:26.117Z</time></trkpt><trkpt lat="37.8094867" lon="15.0810367"><ele>1343.0</ele><time>2026-04-18T10:32:27.117Z</time></trkpt><trkpt lat="37.8093867" lon="15.08113"><ele>1344.8000000000002</ele><time>2026-04-18T10:32:28.117Z</time></trkpt><trkpt lat="37.8092733" lon="15.0812017"><ele>1346.6</ele><time>2026-04-18T10:32:29.117Z</time></trkpt><trkpt lat="37.80918" lon="15.081255"><ele>1348.4</ele><time>2026-04-18T10:32:30.117Z</time></trkpt><trkpt lat="37.8090933" lon="15.0813167"><ele>1350.1999999999998</ele><time>2026-04-18T10:32:31.117Z</time></trkpt><trkpt lat="37.8090167" lon="15.081385"><ele>1352.0</ele><time>2026-04-18T10:32:32.117Z</time></trkpt><trkpt lat="37.80898" lon="15.0814617"><ele>1349.3999999999999</ele><time>2026-04-18T10:32:33.116Z</time></trkpt><trkpt lat="37.8090033" lon="15.081615"><ele>1346.8</ele><time>2026-04-18T10:32:34.117Z</time></trkpt><trkpt lat="37.809025" lon="15.0817233"><ele>1344.2</ele><time>2026-04-18T10:32:35.116Z</time></trkpt><trkpt lat="37.809095" lon="15.0818017"><ele>1341.6</ele><time>2026-04-18T10:32:36.117Z</time></trkpt><trkpt lat="37.8091867" lon="15.0818133"><ele>1339.0</ele><time>2026-04-18T10:32:37.117Z</time></trkpt><trkpt lat="37.8092733" lon="15.08183"><ele>1340.0</ele><time>2026-04-18T10:32:38.116Z</time></trkpt><trkpt lat="37.80939" lon="15.0817967"><ele>1341.0</ele><time>2026-04-18T10:32:39.117Z</time></trkpt><trkpt lat="37.8095183" lon="15.081735"><ele>1342.0</ele><time>2026-04-18T10:32:40.117Z</time></trkpt><trkpt lat="37.809665" lon="15.0816467"><ele>1343.0</ele><time>2026-04-18T10:32:41.117Z</time></trkpt><trkpt lat="37.809805" lon="15.0815783"><ele>1343.0</ele><time>2026-04-18T10:32:42.116Z</time></trkpt><trkpt lat="37.80993" lon="15.0815383"><ele>1343.0</ele><time>2026-04-18T10:32:43.117Z</time></trkpt><trkpt lat="37.8100567" lon="15.0815117"><ele>1343.0</ele><time>2026-04-18T10:32:44.117Z</time></trkpt><trkpt lat="37.8101683" lon="15.0814967"><ele>1343.0</ele><time>2026-04-18T10:32:45.117Z</time></trkpt><trkpt lat="37.8102817" lon="15.0814633"><ele>1339.75</ele><time>2026-04-18T10:32:46.117Z</time></trkpt><trkpt lat="37.8103967" lon="15.0813883"><ele>1336.5</ele><time>2026-04-18T10:32:47.117Z</time></trkpt><trkpt lat="37.8105017" lon="15.0812983"><ele>1333.25</ele><time>2026-04-18T10:32:48.117Z</time></trkpt><trkpt lat="37.8106133" lon="15.0811783"><ele>1330.0</ele><time>2026-04-18T10:32:49.117Z</time></trkpt><trkpt lat="37.8107083" lon="15.0810567"><ele>1330.0</ele><time>2026-04-18T10:32:50.117Z</time></trkpt><trkpt lat="37.8107967" lon="15.0809483"><ele>1330.0</ele><time>2026-04-18T10:32:51.117Z</time></trkpt><trkpt lat="37.8108783" lon="15.0808333"><ele>1330.0</ele><time>2026-04-18T10:32:52.117Z</time></trkpt><trkpt lat="37.8109617" lon="15.0807167"><ele>1330.0</ele><time>2026-04-18T10:32:53.117Z</time></trkpt><trkpt lat="37.811045" lon="15.0805967"><ele>1328.5</ele><time>2026-04-18T10:32:54.117Z</time></trkpt><trkpt lat="37.8111433" lon="15.0805233"><ele>1327.0</ele><time>2026-04-18T10:32:55.117Z</time></trkpt><trkpt lat="37.81124" lon="15.08046"><ele>1325.5</ele><time>2026-04-18T10:32:56.117Z</time></trkpt><trkpt lat="37.8113567" lon="15.0804417"><ele>1324.0</ele><time>2026-04-18T10:32:57.117Z</time></trkpt><trkpt lat="37.8114767" lon="15.08047"><ele>1324.0</ele><time>2026-04-18T10:32:58.117Z</time></trkpt><trkpt lat="37.811585" lon="15.0805633"><ele>1324.0</ele><time>2026-04-18T10:32:59.116Z</time></trkpt><trkpt lat="37.8116833" lon="15.0806683"><ele>1324.0</ele><time>2026-04-18T10:33:00.116Z</time></trkpt><trkpt lat="37.811765" lon="15.0807783"><ele>1324.0</ele><time>2026-04-18T10:33:01.117Z</time></trkpt><trkpt lat="37.811805" lon="15.0809067"><ele>1321.4</ele><time>2026-04-18T10:33:02.117Z</time></trkpt><trkpt lat="37.8118167" lon="15.081045"><ele>1318.8000000000002</ele><time>2026-04-18T10:33:03.117Z</time></trkpt><trkpt lat="37.811795" lon="15.081175"><ele>1316.1999999999998</ele><time>2026-04-18T10:33:04.117Z</time></trkpt><trkpt lat="37.81174" lon="15.0813033"><ele>1313.6</ele><time>2026-04-18T10:33:05.117Z</time></trkpt><trkpt lat="37.811665" lon="15.0814167"><ele>1311.0</ele><time>2026-04-18T10:33:06.117Z</time></trkpt><trkpt lat="37.8115767" lon="15.0815133"><ele>1311.0</ele><time>2026-04-18T10:33:07.116Z</time></trkpt><trkpt lat="37.8114717" lon="15.0815783"><ele>1311.0</ele><time>2026-04-18T10:33:08.117Z</time></trkpt><trkpt lat="37.8113567" lon="15.0816467"><ele>1311.0</ele><time>2026-04-18T10:33:09.117Z</time></trkpt><trkpt lat="37.8112633" lon="15.0817267"><ele>1311.0</ele><time>2026-04-18T10:33:10.117Z</time></trkpt><trkpt lat="37.8111867" lon="15.081825"><ele>1309.75</ele><time>2026-04-18T10:33:11.117Z</time></trkpt><trkpt lat="37.8110983" lon="15.0819283"><ele>1308.5</ele><time>2026-04-18T10:33:12.117Z</time></trkpt><trkpt lat="37.8110117" lon="15.082035"><ele>1307.25</ele><time>2026-04-18T10:33:13.117Z</time></trkpt><trkpt lat="37.8109283" lon="15.08215"><ele>1306.0</ele><time>2026-04-18T10:33:14.117Z</time></trkpt><trkpt lat="37.8108583" lon="15.0822567"><ele>1306.75</ele><time>2026-04-18T10:33:15.116Z</time></trkpt><trkpt lat="37.810785" lon="15.0823667"><ele>1307.5</ele><time>2026-04-18T10:33:16.117Z</time></trkpt><trkpt lat="37.8107133" lon="15.08249"><ele>1308.25</ele><time>2026-04-18T10:33:17.117Z</time></trkpt><trkpt lat="37.8106433" lon="15.082615"><ele>1309.0</ele><time>2026-04-18T10:33:18.117Z</time></trkpt><trkpt lat="37.8105933" lon="15.0827517"><ele>1309.0</ele><time>2026-04-18T10:33:19.117Z</time></trkpt><trkpt lat="37.8105467" lon="15.0828833"><ele>1309.0</ele><time>2026-04-18T10:33:20.117Z</time></trkpt><trkpt lat="37.8105167" lon="15.083015"><ele>1309.0</ele><time>2026-04-18T10:33:21.117Z</time></trkpt><trkpt lat="37.8104567" lon="15.0831433"><ele>1309.0</ele><time>2026-04-18T10:33:22.117Z</time></trkpt><trkpt lat="37.810385" lon="15.0832667"><ele>1307.75</ele><time>2026-04-18T10:33:23.117Z</time></trkpt><trkpt lat="37.8102917" lon="15.0833817"><ele>1306.5</ele><time>2026-04-18T10:33:24.116Z</time></trkpt><trkpt lat="37.8101967" lon="15.0834817"><ele>1305.25</ele><time>2026-04-18T10:33:25.117Z</time></trkpt><trkpt lat="37.8100917" lon="15.08357"><ele>1304.0</ele><time>2026-04-18T10:33:26.117Z</time></trkpt><trkpt lat="37.80999" lon="15.0836617"><ele>1304.0</ele><time>2026-04-18T10:33:27.117Z</time></trkpt><trkpt lat="37.8098733" lon="15.0837483"><ele>1304.0</ele><time>2026-04-18T10:33:28.117Z</time></trkpt><trkpt lat="37.80974" lon="15.0838133"><ele>1304.0</ele><time>2026-04-18T10:33:29.117Z</time></trkpt><trkpt lat="37.8096033" lon="15.0838633"><ele>1304.0</ele><time>2026-04-18T10:33:30.117Z</time></trkpt><trkpt lat="37.8094667" lon="15.08391"><ele>1304.0</ele><time>2026-04-18T10:33:31.117Z</time></trkpt><trkpt lat="37.80933" lon="15.08395"><ele>1304.0</ele><time>2026-04-18T10:33:32.117Z</time></trkpt><trkpt lat="37.8092033" lon="15.083995"><ele>1304.0</ele><time>2026-04-18T10:33:33.117Z</time></trkpt><trkpt lat="37.8090733" lon="15.084045"><ele>1304.0</ele><time>2026-04-18T10:33:34.117Z</time></trkpt><trkpt lat="37.80895" lon="15.0840717"><ele>1305.0</ele><time>2026-04-18T10:33:35.117Z</time></trkpt><trkpt lat="37.8088417" lon="15.0840783"><ele>1306.0</ele><time>2026-04-18T10:33:36.117Z</time></trkpt><trkpt lat="37.8087483" lon="15.0840933"><ele>1307.0</ele><time>2026-04-18T10:33:37.117Z</time></trkpt><trkpt lat="37.8086683" lon="15.0841217"><ele>1308.0</ele><time>2026-04-18T10:33:38.117Z</time></trkpt><trkpt lat="37.80859" lon="15.0841683"><ele>1309.0</ele><time>2026-04-18T10:33:39.117Z</time></trkpt><trkpt lat="37.8085267" lon="15.0842383"><ele>1306.2</ele><time>2026-04-18T10:33:40.117Z</time></trkpt><trkpt lat="37.8084917" lon="15.0843217"><ele>1303.4</ele><time>2026-04-18T10:33:41.117Z</time></trkpt><trkpt lat="37.80852" lon="15.0844283"><ele>1300.6</ele><time>2026-04-18T10:33:42.117Z</time></trkpt><trkpt lat="37.8085767" lon="15.084515"><ele>1297.8</ele><time>2026-04-18T10:33:43.117Z</time></trkpt><trkpt lat="37.8086717" lon="15.0845867"><ele>1295.0</ele><time>2026-04-18T10:33:44.117Z</time></trkpt><trkpt lat="37.80878" lon="15.0846317"><ele>1292.25</ele><time>2026-04-18T10:33:45.117Z</time></trkpt><trkpt lat="37.8088933" lon="15.0846317"><ele>1289.5</ele><time>2026-04-18T10:33:46.117Z</time></trkpt><trkpt lat="37.8090283" lon="15.0845967"><ele>1286.75</ele><time>2026-04-18T10:33:47.117Z</time></trkpt><trkpt lat="37.8091733" lon="15.0845617"><ele>1284.0</ele><time>2026-04-18T10:33:48.117Z</time></trkpt><trkpt lat="37.8093667" lon="15.0845533"><ele>1282.6666666666667</ele><time>2026-04-18T10:33:49.117Z</time></trkpt><trkpt lat="37.809545" lon="15.0845683"><ele>1281.3333333333335</ele><time>2026-04-18T10:33:50.117Z</time></trkpt><trkpt lat="37.8097233" lon="15.0845867"><ele>1280.0</ele><time>2026-04-18T10:33:51.117Z</time></trkpt><trkpt lat="37.80988" lon="15.0846067"><ele>1280.0</ele><time>2026-04-18T10:33:52.116Z</time></trkpt><trkpt lat="37.810025" lon="15.0846433"><ele>1280.0</ele><time>2026-04-18T10:33:53.117Z</time></trkpt><trkpt lat="37.8101717" lon="15.0847083"><ele>1280.0</ele><time>2026-04-18T10:33:54.116Z</time></trkpt><trkpt lat="37.8102983" lon="15.084815"><ele>1277.25</ele><time>2026-04-18T10:33:55.117Z</time></trkpt><trkpt lat="37.8103983" lon="15.0849367"><ele>1274.5</ele><time>2026-04-18T10:33:56.117Z</time></trkpt><trkpt lat="37.81047" lon="15.0850883"><ele>1271.75</ele><time>2026-04-18T10:33:57.117Z</time></trkpt><trkpt lat="37.8105" lon="15.085275"><ele>1269.0</ele><time>2026-04-18T10:33:58.117Z</time></trkpt><trkpt lat="37.8104833" lon="15.0854683"><ele>1269.0</ele><time>2026-04-18T10:33:59.117Z</time></trkpt><trkpt lat="37.8104567" lon="15.0856617"><ele>1269.0</ele><time>2026-04-18T10:34:00.117Z</time></trkpt><trkpt lat="37.8103933" lon="15.085815"><ele>1269.0</ele><time>2026-04-18T10:34:01.117Z</time></trkpt><trkpt lat="37.8103083" lon="15.08599"><ele>1268.0</ele><time>2026-04-18T10:34:02.117Z</time></trkpt><trkpt lat="37.8101683" lon="15.0861517"><ele>1267.0</ele><time>2026-04-18T10:34:03.117Z</time></trkpt><trkpt lat="37.810005" lon="15.0863017"><ele>1266.0</ele><time>2026-04-18T10:34:04.117Z</time></trkpt><trkpt lat="37.809865" lon="15.0864533"><ele>1265.6666666666667</ele><time>2026-04-18T10:34:05.117Z</time></trkpt><trkpt lat="37.8097217" lon="15.0865933"><ele>1265.3333333333335</ele><time>2026-04-18T10:34:06.117Z</time></trkpt><trkpt lat="37.809585" lon="15.08674"><ele>1265.0</ele><time>2026-04-18T10:34:07.117Z</time></trkpt><trkpt lat="37.8094483" lon="15.0868917"><ele>1263.3333333333335</ele><time>2026-04-18T10:34:08.117Z</time></trkpt><trkpt lat="37.8093167" lon="15.0870383"><ele>1261.6666666666667</ele><time>2026-04-18T10:34:09.117Z</time></trkpt><trkpt lat="37.80919" lon="15.0871733"><ele>1260.0</ele><time>2026-04-18T10:34:10.117Z</time></trkpt><trkpt lat="37.8090683" lon="15.0873067"><ele>1260.0</ele><time>2026-04-18T10:34:11.117Z</time></trkpt><trkpt lat="37.8089383" lon="15.087425"><ele>1260.0</ele><time>2026-04-18T10:34:12.117Z</time></trkpt><trkpt lat="37.8088033" lon="15.0875183"><ele>1260.0</ele><time>2026-04-18T10:34:13.117Z</time></trkpt><trkpt lat="37.8086667" lon="15.08759"><ele>1258.5</ele><time>2026-04-18T10:34:14.117Z</time></trkpt><trkpt lat="37.8085317" lon="15.0876683"><ele>1257.0</ele><time>2026-04-18T10:34:15.117Z</time></trkpt><trkpt lat="37.80841" lon="15.0877633"><ele>1255.5</ele><time>2026-04-18T10:34:16.117Z</time></trkpt><trkpt lat="37.8083067" lon="15.08789"><ele>1254.0</ele><time>2026-04-18T10:34:17.117Z</time></trkpt><trkpt lat="37.8082283" lon="15.088035"><ele>1254.0</ele><time>2026-04-18T10:34:18.117Z</time></trkpt><trkpt lat="37.8081967" lon="15.088195"><ele>1254.0</ele><time>2026-04-18T10:34:19.117Z</time></trkpt><trkpt lat="37.80821" lon="15.08836"><ele>1254.0</ele><time>2026-04-18T10:34:20.117Z</time></trkpt><trkpt lat="37.8082567" lon="15.0885267"><ele>1254.0</ele><time>2026-04-18T10:34:21.117Z</time></trkpt><trkpt lat="37.8083333" lon="15.08868"><ele>1252.3333333333333</ele><time>2026-04-18T10:34:22.116Z</time></trkpt><trkpt lat="37.808475" lon="15.0888317"><ele>1250.6666666666665</ele><time>2026-04-18T10:34:23.117Z</time></trkpt><trkpt lat="37.808645" lon="15.0889633"><ele>1249.0</ele><time>2026-04-18T10:34:24.117Z</time></trkpt><trkpt lat="37.808805" lon="15.0890667"><ele>1243.6666666666665</ele><time>2026-04-18T10:34:25.117Z</time></trkpt><trkpt lat="37.8089517" lon="15.0891783"><ele>1238.3333333333333</ele><time>2026-04-18T10:34:26.117Z</time></trkpt><trkpt lat="37.8091117" lon="15.08927"><ele>1233.0</ele><time>2026-04-18T10:34:27.117Z</time></trkpt><trkpt lat="37.809255" lon="15.0893417"><ele>1232.3333333333333</ele><time>2026-04-18T10:34:28.117Z</time></trkpt><trkpt lat="37.80941" lon="15.0893917"><ele>1231.6666666666665</ele><time>2026-04-18T10:34:29.117Z</time></trkpt><trkpt lat="37.8095867" lon="15.089415"><ele>1231.0</ele><time>2026-04-18T10:34:30.117Z</time></trkpt><trkpt lat="37.8097633" lon="15.0894383"><ele>1231.0</ele><time>2026-04-18T10:34:31.117Z</time></trkpt><trkpt lat="37.80993" lon="15.08944"><ele>1231.0</ele><time>2026-04-18T10:34:32.117Z</time></trkpt><trkpt lat="37.810075" lon="15.0894483"><ele>1231.0</ele><time>2026-04-18T10:34:33.117Z</time></trkpt><trkpt lat="37.8102183" lon="15.0894783"><ele>1229.3333333333333</ele><time>2026-04-18T10:34:34.116Z</time></trkpt><trkpt lat="37.8103517" lon="15.0895533"><ele>1227.6666666666667</ele><time>2026-04-18T10:34:35.117Z</time></trkpt><trkpt lat="37.8104783" lon="15.0896533"><ele>1226.0</ele><time>2026-04-18T10:34:36.117Z</time></trkpt><trkpt lat="37.8105933" lon="15.0897883"><ele>1222.25</ele><time>2026-04-18T10:34:37.117Z</time></trkpt><trkpt lat="37.8106967" lon="15.0899283"><ele>1218.5</ele><time>2026-04-18T10:34:38.117Z</time></trkpt><trkpt lat="37.8108" lon="15.0900433"><ele>1214.75</ele><time>2026-04-18T10:34:39.117Z</time></trkpt><trkpt lat="37.8109217" lon="15.0901117"><ele>1211.0</ele><time>2026-04-18T10:34:40.117Z</time></trkpt><trkpt lat="37.8110633" lon="15.090155"><ele>1209.25</ele><time>2026-04-18T10:34:41.117Z</time></trkpt><trkpt lat="37.8112017" lon="15.0901767"><ele>1207.5</ele><time>2026-04-18T10:34:42.117Z</time></trkpt><trkpt lat="37.811325" lon="15.0901733"><ele>1205.75</ele><time>2026-04-18T10:34:43.117Z</time></trkpt><trkpt lat="37.8114233" lon="15.09013"><ele>1204.0</ele><time>2026-04-18T10:34:44.117Z</time></trkpt><trkpt lat="37.8115067" lon="15.09006"><ele>1204.0</ele><time>2026-04-18T10:34:45.116Z</time></trkpt><trkpt lat="37.8115967" lon="15.089985"><ele>1204.0</ele><time>2026-04-18T10:34:46.117Z</time></trkpt><trkpt lat="37.811695" lon="15.0899217"><ele>1204.0</ele><time>2026-04-18T10:34:47.117Z</time></trkpt><trkpt lat="37.8117933" lon="15.0898867"><ele>1204.0</ele><time>2026-04-18T10:34:48.117Z</time></trkpt><trkpt lat="37.81189" lon="15.0898783"><ele>1204.0</ele><time>2026-04-18T10:34:49.116Z</time></trkpt><trkpt lat="37.8119883" lon="15.08991"><ele>1203.2</ele><time>2026-04-18T10:34:50.117Z</time></trkpt><trkpt lat="37.8120867" lon="15.089985"><ele>1202.4</ele><time>2026-04-18T10:34:51.117Z</time></trkpt><trkpt lat="37.8121533" lon="15.0900583"><ele>1201.6</ele><time>2026-04-18T10:34:52.117Z</time></trkpt><trkpt lat="37.8122067" lon="15.09016"><ele>1200.8</ele><time>2026-04-18T10:34:53.117Z</time></trkpt><trkpt lat="37.8122017" lon="15.0903367"><ele>1200.0</ele><time>2026-04-18T10:34:54.117Z</time></trkpt><trkpt lat="37.8122033" lon="15.090445"><ele>1200.0</ele><time>2026-04-18T10:34:55.117Z</time></trkpt><trkpt lat="37.8122183" lon="15.0905417"><ele>1200.0</ele><time>2026-04-18T10:34:56.117Z</time></trkpt><trkpt lat="37.8121233" lon="15.090655"><ele>1200.0</ele><time>2026-04-18T10:34:57.116Z</time></trkpt><trkpt lat="37.8119567" lon="15.0907967"><ele>1200.0</ele><time>2026-04-18T10:34:58.117Z</time></trkpt><trkpt lat="37.8117683" lon="15.0909583"><ele>1198.0</ele><time>2026-04-18T10:34:59.117Z</time></trkpt><trkpt lat="37.8115667" lon="15.0910983"><ele>1196.0</ele><time>2026-04-18T10:35:00.117Z</time></trkpt><trkpt lat="37.8114017" lon="15.0912083"><ele>1194.0</ele><time>2026-04-18T10:35:01.117Z</time></trkpt><trkpt lat="37.81123" lon="15.0913"><ele>1194.0</ele><time>2026-04-18T10:35:02.117Z</time></trkpt><trkpt lat="37.8110567" lon="15.0913933"><ele>1194.0</ele><time>2026-04-18T10:35:03.117Z</time></trkpt><trkpt lat="37.8109483" lon="15.091465"><ele>1194.0</ele><time>2026-04-18T10:35:04.117Z</time></trkpt><trkpt lat="37.8108433" lon="15.09156"><ele>1194.0</ele><time>2026-04-18T10:35:05.117Z</time></trkpt><trkpt lat="37.8107867" lon="15.091675"><ele>1192.0</ele><time>2026-04-18T10:35:06.116Z</time></trkpt><trkpt lat="37.81075" lon="15.09182"><ele>1190.0</ele><time>2026-04-18T10:35:07.117Z</time></trkpt><trkpt lat="37.81075" lon="15.09197"><ele>1188.0</ele><time>2026-04-18T10:35:08.117Z</time></trkpt><trkpt lat="37.8108033" lon="15.0921133"><ele>1186.0</ele><time>2026-04-18T10:35:09.117Z</time></trkpt><trkpt lat="37.8108983" lon="15.0922333"><ele>1185.75</ele><time>2026-04-18T10:35:10.117Z</time></trkpt><trkpt lat="37.8110233" lon="15.09231"><ele>1185.5</ele><time>2026-04-18T10:35:11.117Z</time></trkpt><trkpt lat="37.8111683" lon="15.09235"><ele>1185.25</ele><time>2026-04-18T10:35:12.117Z</time></trkpt><trkpt lat="37.8113033" lon="15.0923333"><ele>1185.0</ele><time>2026-04-18T10:35:13.116Z</time></trkpt><trkpt lat="37.8114283" lon="15.0923067"><ele>1185.0</ele><time>2026-04-18T10:35:14.117Z</time></trkpt><trkpt lat="37.8115433" lon="15.0923017"><ele>1185.0</ele><time>2026-04-18T10:35:15.117Z</time></trkpt><trkpt lat="37.8116683" lon="15.0923267"><ele>1185.0</ele><time>2026-04-18T10:35:16.117Z</time></trkpt><trkpt lat="37.8117867" lon="15.092405"><ele>1185.0</ele><time>2026-04-18T10:35:17.117Z</time></trkpt><trkpt lat="37.8119" lon="15.0925283"><ele>1180.6666666666667</ele><time>2026-04-18T10:35:18.117Z</time></trkpt><trkpt lat="37.812015" lon="15.0926717"><ele>1176.3333333333335</ele><time>2026-04-18T10:35:19.116Z</time></trkpt><trkpt lat="37.812125" lon="15.09281"><ele>1172.0</ele><time>2026-04-18T10:35:20.117Z</time></trkpt><trkpt lat="37.812235" lon="15.092935"><ele>1172.0</ele><time>2026-04-18T10:35:21.117Z</time></trkpt><trkpt lat="37.8123533" lon="15.093055"><ele>1172.0</ele><time>2026-04-18T10:35:22.117Z</time></trkpt><trkpt lat="37.8124867" lon="15.0931217"><ele>1172.0</ele><time>2026-04-18T10:35:23.117Z</time></trkpt><trkpt lat="37.8126233" lon="15.09315"><ele>1172.0</ele><time>2026-04-18T10:35:24.117Z</time></trkpt><trkpt lat="37.81277" lon="15.093145"><ele>1169.25</ele><time>2026-04-18T10:35:25.117Z</time></trkpt><trkpt lat="37.8129217" lon="15.0931217"><ele>1166.5</ele><time>2026-04-18T10:35:26.117Z</time></trkpt><trkpt lat="37.8130717" lon="15.0931033"><ele>1163.75</ele><time>2026-04-18T10:35:27.117Z</time></trkpt><trkpt lat="37.8132067" lon="15.0930867"><ele>1161.0</ele><time>2026-04-18T10:35:28.117Z</time></trkpt><trkpt lat="37.8133333" lon="15.0930683"><ele>1161.0</ele><time>2026-04-18T10:35:29.117Z</time></trkpt><trkpt lat="37.8134517" lon="15.092995"><ele>1161.0</ele><time>2026-04-18T10:35:30.117Z</time></trkpt><trkpt lat="37.8135367" lon="15.09289"><ele>1161.0</ele><time>2026-04-18T10:35:31.117Z</time></trkpt><trkpt lat="37.8135833" lon="15.092765"><ele>1161.0</ele><time>2026-04-18T10:35:32.117Z</time></trkpt><trkpt lat="37.8136233" lon="15.0926683"><ele>1161.0</ele><time>2026-04-18T10:35:33.117Z</time></trkpt><trkpt lat="37.8136867" lon="15.0925983"><ele>1156.25</ele><time>2026-04-18T10:35:34.117Z</time></trkpt><trkpt lat="37.8137983" lon="15.0926067"><ele>1151.5</ele><time>2026-04-18T10:35:36.117Z</time></trkpt><trkpt lat="37.813805" lon="15.0927667"><ele>1146.75</ele><time>2026-04-18T10:35:38.117Z</time></trkpt><trkpt lat="37.8137283" lon="15.0929067"><ele>1142.0</ele><time>2026-04-18T10:35:39.117Z</time></trkpt><trkpt lat="37.8136383" lon="15.0930617"><ele>1142.0</ele><time>2026-04-18T10:35:40.117Z</time></trkpt><trkpt lat="37.8135367" lon="15.093225"><ele>1142.0</ele><time>2026-04-18T10:35:41.117Z</time></trkpt><trkpt lat="37.8134233" lon="15.093395"><ele>1142.0</ele><time>2026-04-18T10:35:42.117Z</time></trkpt><trkpt lat="37.8132933" lon="15.09356"><ele>1143.3333333333335</ele><time>2026-04-18T10:35:43.117Z</time></trkpt><trkpt lat="37.81315" lon="15.0937183"><ele>1144.6666666666667</ele><time>2026-04-18T10:35:44.116Z</time></trkpt><trkpt lat="37.813005" lon="15.09388"><ele>1146.0</ele><time>2026-04-18T10:35:45.117Z</time></trkpt><trkpt lat="37.8128617" lon="15.0940367"><ele>1144.0</ele><time>2026-04-18T10:35:46.117Z</time></trkpt><trkpt lat="37.8127217" lon="15.0942017"><ele>1142.0</ele><time>2026-04-18T10:35:47.117Z</time></trkpt><trkpt lat="37.8125917" lon="15.09436"><ele>1140.0</ele><time>2026-04-18T10:35:48.117Z</time></trkpt><trkpt lat="37.8124683" lon="15.0945017"><ele>1140.0</ele><time>2026-04-18T10:35:49.117Z</time></trkpt><trkpt lat="37.8123583" lon="15.094625"><ele>1140.0</ele><time>2026-04-18T10:35:50.117Z</time></trkpt><trkpt lat="37.8122467" lon="15.0947167"><ele>1140.0</ele><time>2026-04-18T10:35:51.117Z</time></trkpt><trkpt lat="37.8121217" lon="15.0947683"><ele>1140.0</ele><time>2026-04-18T10:35:52.117Z</time></trkpt><trkpt lat="37.8119883" lon="15.0947783"><ele>1140.0</ele><time>2026-04-18T10:35:53.117Z</time></trkpt><trkpt lat="37.811855" lon="15.094745"><ele>1140.0</ele><time>2026-04-18T10:35:54.117Z</time></trkpt><trkpt lat="37.8117283" lon="15.094725"><ele>1140.0</ele><time>2026-04-18T10:35:55.117Z</time></trkpt><trkpt lat="37.8116033" lon="15.0947517"><ele>1140.0</ele><time>2026-04-18T10:35:56.117Z</time></trkpt><trkpt lat="37.8115" lon="15.0948217"><ele>1136.5</ele><time>2026-04-18T10:35:57.117Z</time></trkpt><trkpt lat="37.811425" lon="15.094935"><ele>1133.0</ele><time>2026-04-18T10:35:58.116Z</time></trkpt><trkpt lat="37.81137" lon="15.0950583"><ele>1129.5</ele><time>2026-04-18T10:35:59.117Z</time></trkpt><trkpt lat="37.811345" lon="15.095195"><ele>1126.0</ele><time>2026-04-18T10:36:00.117Z</time></trkpt><trkpt lat="37.8113667" lon="15.095335"><ele>1126.0</ele><time>2026-04-18T10:36:01.117Z</time></trkpt><trkpt lat="37.811425" lon="15.0954667"><ele>1126.0</ele><time>2026-04-18T10:36:02.117Z</time></trkpt><trkpt lat="37.811515" lon="15.0955683"><ele>1126.0</ele><time>2026-04-18T10:36:03.117Z</time></trkpt><trkpt lat="37.81163" lon="15.0956333"><ele>1126.0</ele><time>2026-04-18T10:36:04.117Z</time></trkpt><trkpt lat="37.81176" lon="15.095655"><ele>1125.75</ele><time>2026-04-18T10:36:05.116Z</time></trkpt><trkpt lat="37.8118883" lon="15.0956167"><ele>1125.5</ele><time>2026-04-18T10:36:06.117Z</time></trkpt><trkpt lat="37.8120217" lon="15.0955533"><ele>1125.25</ele><time>2026-04-18T10:36:07.117Z</time></trkpt><trkpt lat="37.8121667" lon="15.0954983"><ele>1125.0</ele><time>2026-04-18T10:36:08.117Z</time></trkpt><trkpt lat="37.812315" lon="15.0954817"><ele>1125.0</ele><time>2026-04-18T10:36:09.117Z</time></trkpt><trkpt lat="37.8124667" lon="15.0955067"><ele>1125.0</ele><time>2026-04-18T10:36:10.117Z</time></trkpt><trkpt lat="37.8126167" lon="15.0955483"><ele>1125.0</ele><time>2026-04-18T10:36:11.117Z</time></trkpt><trkpt lat="37.812755" lon="15.0956117"><ele>1122.25</ele><time>2026-04-18T10:36:12.117Z</time></trkpt><trkpt lat="37.8129" lon="15.0956533"><ele>1119.5</ele><time>2026-04-18T10:36:13.117Z</time></trkpt><trkpt lat="37.8130383" lon="15.0956367"><ele>1116.75</ele><time>2026-04-18T10:36:14.117Z</time></trkpt><trkpt lat="37.8131717" lon="15.0955683"><ele>1114.0</ele><time>2026-04-18T10:36:15.116Z</time></trkpt><trkpt lat="37.813285" lon="15.0954633"><ele>1114.0</ele><time>2026-04-18T10:36:16.117Z</time></trkpt><trkpt lat="37.8133833" lon="15.0953633"><ele>1114.0</ele><time>2026-04-18T10:36:17.117Z</time></trkpt><trkpt lat="37.8134917" lon="15.0952917"><ele>1114.0</ele><time>2026-04-18T10:36:18.117Z</time></trkpt><trkpt lat="37.81362" lon="15.09526"><ele>1114.0</ele><time>2026-04-18T10:36:19.117Z</time></trkpt><trkpt lat="37.81375" lon="15.0952717"><ele>1111.75</ele><time>2026-04-18T10:36:20.117Z</time></trkpt><trkpt lat="37.81387" lon="15.0953283"><ele>1109.5</ele><time>2026-04-18T10:36:21.116Z</time></trkpt><trkpt lat="37.8139933" lon="15.09536"><ele>1107.25</ele><time>2026-04-18T10:36:22.117Z</time></trkpt><trkpt lat="37.814125" lon="15.0953567"><ele>1105.0</ele><time>2026-04-18T10:36:23.117Z</time></trkpt><trkpt lat="37.814265" lon="15.09532"><ele>1101.0</ele><time>2026-04-18T10:36:24.117Z</time></trkpt><trkpt lat="37.8144067" lon="15.0952817"><ele>1097.0</ele><time>2026-04-18T10:36:25.117Z</time></trkpt><trkpt lat="37.8145567" lon="15.0952417"><ele>1093.0</ele><time>2026-04-18T10:36:26.117Z</time></trkpt><trkpt lat="37.8146883" lon="15.09519"><ele>1089.0</ele><time>2026-04-18T10:36:27.117Z</time></trkpt><trkpt lat="37.8148" lon="15.0951"><ele>1089.0</ele><time>2026-04-18T10:36:28.116Z</time></trkpt><trkpt lat="37.8149033" lon="15.095015"><ele>1089.0</ele><time>2026-04-18T10:36:29.117Z</time></trkpt><trkpt lat="37.8150267" lon="15.09497"><ele>1089.0</ele><time>2026-04-18T10:36:30.117Z</time></trkpt><trkpt lat="37.8151467" lon="15.0949733"><ele>1089.0</ele><time>2026-04-18T10:36:31.117Z</time></trkpt><trkpt lat="37.8152683" lon="15.0950167"><ele>1086.25</ele><time>2026-04-18T10:36:32.117Z</time></trkpt><trkpt lat="37.815385" lon="15.095065"><ele>1083.5</ele><time>2026-04-18T10:36:33.116Z</time></trkpt><trkpt lat="37.8155133" lon="15.0950917"><ele>1080.75</ele><time>2026-04-18T10:36:34.117Z</time></trkpt><trkpt lat="37.8156517" lon="15.09507"><ele>1078.0</ele><time>2026-04-18T10:36:35.117Z</time></trkpt><trkpt lat="37.8157783" lon="15.0949917"><ele>1079.0</ele><time>2026-04-18T10:36:36.117Z</time></trkpt><trkpt lat="37.8159" lon="15.094875"><ele>1080.0</ele><time>2026-04-18T10:36:37.117Z</time></trkpt><trkpt lat="37.81602" lon="15.09475"><ele>1081.0</ele><time>2026-04-18T10:36:38.117Z</time></trkpt><trkpt lat="37.816125" lon="15.094625"><ele>1081.0</ele><time>2026-04-18T10:36:39.117Z</time></trkpt><trkpt lat="37.8162233" lon="15.094505"><ele>1081.0</ele><time>2026-04-18T10:36:40.117Z</time></trkpt><trkpt lat="37.8163167" lon="15.0944217"><ele>1081.0</ele><time>2026-04-18T10:36:41.117Z</time></trkpt><trkpt lat="37.8164183" lon="15.09437"><ele>1081.0</ele><time>2026-04-18T10:36:42.117Z</time></trkpt><trkpt lat="37.8165233" lon="15.094365"><ele>1081.0</ele><time>2026-04-18T10:36:43.117Z</time></trkpt><trkpt lat="37.8166383" lon="15.094405"><ele>1081.0</ele><time>2026-04-18T10:36:44.117Z</time></trkpt><trkpt lat="37.8167367" lon="15.094485"><ele>1081.0</ele><time>2026-04-18T10:36:45.117Z</time></trkpt><trkpt lat="37.8167967" lon="15.0946117"><ele>1081.0</ele><time>2026-04-18T10:36:46.117Z</time></trkpt><trkpt lat="37.8168217" lon="15.0947533"><ele>1081.0</ele><time>2026-04-18T10:36:47.117Z</time></trkpt><trkpt lat="37.8168167" lon="15.0949017"><ele>1081.0</ele><time>2026-04-18T10:36:48.117Z</time></trkpt><trkpt lat="37.8167783" lon="15.0950433"><ele>1081.0</ele><time>2026-04-18T10:36:49.117Z</time></trkpt><trkpt lat="37.816695" lon="15.0951567"><ele>1081.0</ele><time>2026-04-18T10:36:50.117Z</time></trkpt><trkpt lat="37.8165867" lon="15.09526"><ele>1077.5</ele><time>2026-04-18T10:36:51.117Z</time></trkpt><trkpt lat="37.8164583" lon="15.0953683"><ele>1074.0</ele><time>2026-04-18T10:36:52.117Z</time></trkpt><trkpt lat="37.8163383" lon="15.09547"><ele>1070.5</ele><time>2026-04-18T10:36:53.116Z</time></trkpt><trkpt lat="37.816235" lon="15.0955883"><ele>1067.0</ele><time>2026-04-18T10:36:54.117Z</time></trkpt><trkpt lat="37.816155" lon="15.0957167"><ele>1064.3333333333335</ele><time>2026-04-18T10:36:55.117Z</time></trkpt><trkpt lat="37.81611" lon="15.0958883"><ele>1061.6666666666667</ele><time>2026-04-18T10:36:56.117Z</time></trkpt><trkpt lat="37.8161017" lon="15.096085"><ele>1059.0</ele><time>2026-04-18T10:36:57.116Z</time></trkpt><trkpt lat="37.8161267" lon="15.096275"><ele>1059.0</ele><time>2026-04-18T10:36:58.117Z</time></trkpt><trkpt lat="37.8161483" lon="15.096435"><ele>1059.0</ele><time>2026-04-18T10:36:59.117Z</time></trkpt><trkpt lat="37.8161683" lon="15.0966117"><ele>1059.0</ele><time>2026-04-18T10:37:00.117Z</time></trkpt><trkpt lat="37.8161467" lon="15.0967833"><ele>1059.0</ele><time>2026-04-18T10:37:01.117Z</time></trkpt><trkpt lat="37.8160817" lon="15.09695"><ele>1059.6666666666667</ele><time>2026-04-18T10:37:02.117Z</time></trkpt><trkpt lat="37.815985" lon="15.0971117"><ele>1060.3333333333335</ele><time>2026-04-18T10:37:03.116Z</time></trkpt><trkpt lat="37.8158833" lon="15.0972817"><ele>1061.0</ele><time>2026-04-18T10:37:04.117Z</time></trkpt><trkpt lat="37.8157817" lon="15.0974483"><ele>1058.0</ele><time>2026-04-18T10:37:05.117Z</time></trkpt><trkpt lat="37.815685" lon="15.09763"><ele>1055.0</ele><time>2026-04-18T10:37:06.117Z</time></trkpt><trkpt lat="37.8155883" lon="15.0978033"><ele>1052.0</ele><time>2026-04-18T10:37:07.117Z</time></trkpt><trkpt lat="37.8154833" lon="15.0979683"><ele>1052.0</ele><time>2026-04-18T10:37:08.117Z</time></trkpt><trkpt lat="37.815365" lon="15.0981117"><ele>1052.0</ele><time>2026-04-18T10:37:09.116Z</time></trkpt><trkpt lat="37.8152383" lon="15.0982267"><ele>1052.0</ele><time>2026-04-18T10:37:10.117Z</time></trkpt><trkpt lat="37.8151033" lon="15.0983183"><ele>1050.5</ele><time>2026-04-18T10:37:11.117Z</time></trkpt><trkpt lat="37.8149867" lon="15.0983967"><ele>1049.0</ele><time>2026-04-18T10:37:12.117Z</time></trkpt><trkpt lat="37.8148967" lon="15.0985033"><ele>1047.5</ele><time>2026-04-18T10:37:13.117Z</time></trkpt><trkpt lat="37.8148433" lon="15.098635"><ele>1046.0</ele><time>2026-04-18T10:37:14.117Z</time></trkpt><trkpt lat="37.8148333" lon="15.0987883"><ele>1046.0</ele><time>2026-04-18T10:37:15.117Z</time></trkpt><trkpt lat="37.814855" lon="15.098945"><ele>1046.0</ele><time>2026-04-18T10:37:16.117Z</time></trkpt><trkpt lat="37.8149133" lon="15.0990833"><ele>1046.0</ele><time>2026-04-18T10:37:17.117Z</time></trkpt><trkpt lat="37.81501" lon="15.0991867"><ele>1046.0</ele><time>2026-04-18T10:37:18.117Z</time></trkpt><trkpt lat="37.8151183" lon="15.09923"><ele>1042.25</ele><time>2026-04-18T10:37:19.117Z</time></trkpt><trkpt lat="37.8152533" lon="15.0992417"><ele>1038.5</ele><time>2026-04-18T10:37:20.117Z</time></trkpt><trkpt lat="37.8153917" lon="15.09921"><ele>1034.75</ele><time>2026-04-18T10:37:21.117Z</time></trkpt><trkpt lat="37.81552" lon="15.0991767"><ele>1031.0</ele><time>2026-04-18T10:37:22.117Z</time></trkpt><trkpt lat="37.8156633" lon="15.0991683"><ele>1031.0</ele><time>2026-04-18T10:37:23.117Z</time></trkpt><trkpt lat="37.81581" lon="15.0992033"><ele>1031.0</ele><time>2026-04-18T10:37:24.117Z</time></trkpt><trkpt lat="37.8159467" lon="15.0992633"><ele>1031.0</ele><time>2026-04-18T10:37:25.117Z</time></trkpt><trkpt lat="37.8160817" lon="15.09934"><ele>1031.0</ele><time>2026-04-18T10:37:26.116Z</time></trkpt><trkpt lat="37.8162017" lon="15.099395"><ele>1029.25</ele><time>2026-04-18T10:37:27.117Z</time></trkpt><trkpt lat="37.8163267" lon="15.0994"><ele>1027.5</ele><time>2026-04-18T10:37:28.117Z</time></trkpt><trkpt lat="37.8164467" lon="15.0993517"><ele>1025.75</ele><time>2026-04-18T10:37:29.116Z</time></trkpt><trkpt lat="37.8165717" lon="15.0992883"><ele>1024.0</ele><time>2026-04-18T10:37:30.117Z</time></trkpt><trkpt lat="37.8166833" lon="15.09926"><ele>1024.0</ele><time>2026-04-18T10:37:31.117Z</time></trkpt><trkpt lat="37.816795" lon="15.0992933"><ele>1024.0</ele><time>2026-04-18T10:37:32.117Z</time></trkpt><trkpt lat="37.8168867" lon="15.0993867"><ele>1024.0</ele><time>2026-04-18T10:37:33.117Z</time></trkpt><trkpt lat="37.8169583" lon="15.0995067"><ele>1024.0</ele><time>2026-04-18T10:37:34.117Z</time></trkpt><trkpt lat="37.8170033" lon="15.09963"><ele>1022.75</ele><time>2026-04-18T10:37:35.117Z</time></trkpt><trkpt lat="37.8169983" lon="15.0997767"><ele>1021.5</ele><time>2026-04-18T10:37:36.117Z</time></trkpt><trkpt lat="37.8169483" lon="15.099925"><ele>1020.25</ele><time>2026-04-18T10:37:37.117Z</time></trkpt><trkpt lat="37.8168717" lon="15.10005"><ele>1019.0</ele><time>2026-04-18T10:37:38.117Z</time></trkpt><trkpt lat="37.816765" lon="15.1001383"><ele>1018.75</ele><time>2026-04-18T10:37:39.117Z</time></trkpt><trkpt lat="37.8166383" lon="15.1002"><ele>1018.5</ele><time>2026-04-18T10:37:40.117Z</time></trkpt><trkpt lat="37.8164933" lon="15.1002583"><ele>1018.25</ele><time>2026-04-18T10:37:41.117Z</time></trkpt><trkpt lat="37.81638" lon="15.1003383"><ele>1018.0</ele><time>2026-04-18T10:37:42.117Z</time></trkpt><trkpt lat="37.8163117" lon="15.10046"><ele>1018.0</ele><time>2026-04-18T10:37:43.117Z</time></trkpt><trkpt lat="37.81628" lon="15.1006033"><ele>1018.0</ele><time>2026-04-18T10:37:44.117Z</time></trkpt><trkpt lat="37.8162867" lon="15.1007617"><ele>1018.0</ele><time>2026-04-18T10:37:45.117Z</time></trkpt><trkpt lat="37.816335" lon="15.1009233"><ele>1018.0</ele><time>2026-04-18T10:37:46.116Z</time></trkpt><trkpt lat="37.8164217" lon="15.1010483"><ele>1016.25</ele><time>2026-04-18T10:37:47.116Z</time></trkpt><trkpt lat="37.8165317" lon="15.10112"><ele>1014.5</ele><time>2026-04-18T10:37:48.117Z</time></trkpt><trkpt lat="37.8166533" lon="15.1011567"><ele>1012.75</ele><time>2026-04-18T10:37:49.117Z</time></trkpt><trkpt lat="37.8167833" lon="15.1011383"><ele>1011.0</ele><time>2026-04-18T10:37:50.117Z</time></trkpt><trkpt lat="37.816905" lon="15.1010667"><ele>1009.0</ele><time>2026-04-18T10:37:51.117Z</time></trkpt><trkpt lat="37.8170183" lon="15.1009617"><ele>1007.0</ele><time>2026-04-18T10:37:52.117Z</time></trkpt><trkpt lat="37.8171217" lon="15.10087"><ele>1005.0</ele><time>2026-04-18T10:37:53.117Z</time></trkpt><trkpt lat="37.81724" lon="15.1008167"><ele>1003.0</ele><time>2026-04-18T10:37:54.117Z</time></trkpt><trkpt lat="37.81736" lon="15.10083"><ele>1003.0</ele><time>2026-04-18T10:37:55.116Z</time></trkpt><trkpt lat="37.81749" lon="15.1008733"><ele>1003.0</ele><time>2026-04-18T10:37:56.117Z</time></trkpt><trkpt lat="37.8176133" lon="15.100955"><ele>1003.0</ele><time>2026-04-18T10:37:57.117Z</time></trkpt><trkpt lat="37.8177283" lon="15.101055"><ele>1003.0</ele><time>2026-04-18T10:37:58.117Z</time></trkpt><trkpt lat="37.8178317" lon="15.1011583"><ele>1001.0</ele><time>2026-04-18T10:37:59.117Z</time></trkpt><trkpt lat="37.81793" lon="15.1012467"><ele>999.0</ele><time>2026-04-18T10:38:00.117Z</time></trkpt><trkpt lat="37.8180467" lon="15.1012967"><ele>997.0</ele><time>2026-04-18T10:38:01.117Z</time></trkpt><trkpt lat="37.8181783" lon="15.1013067"><ele>995.0</ele><time>2026-04-18T10:38:02.117Z</time></trkpt><trkpt lat="37.8183167" lon="15.1012817"><ele>995.0</ele><time>2026-04-18T10:38:03.117Z</time></trkpt><trkpt lat="37.8184317" lon="15.1012"><ele>995.0</ele><time>2026-04-18T10:38:04.117Z</time></trkpt><trkpt lat="37.8185217" lon="15.1010717"><ele>995.0</ele><time>2026-04-18T10:38:05.117Z</time></trkpt><trkpt lat="37.8186033" lon="15.1009467"><ele>995.0</ele><time>2026-04-18T10:38:06.117Z</time></trkpt><trkpt lat="37.8186917" lon="15.1008433"><ele>992.25</ele><time>2026-04-18T10:38:07.117Z</time></trkpt><trkpt lat="37.818795" lon="15.1008133"><ele>989.5</ele><time>2026-04-18T10:38:08.117Z</time></trkpt><trkpt lat="37.8189067" lon="15.1008167"><ele>986.75</ele><time>2026-04-18T10:38:09.117Z</time></trkpt><trkpt lat="37.8190283" lon="15.1008733"><ele>984.0</ele><time>2026-04-18T10:38:10.117Z</time></trkpt><trkpt lat="37.8191433" lon="15.1009633"><ele>984.0</ele><time>2026-04-18T10:38:11.117Z</time></trkpt><trkpt lat="37.8192467" lon="15.1010667"><ele>984.0</ele><time>2026-04-18T10:38:12.117Z</time></trkpt><trkpt lat="37.819335" lon="15.101195"><ele>984.0</ele><time>2026-04-18T10:38:13.117Z</time></trkpt><trkpt lat="37.8193817" lon="15.1013567"><ele>984.0</ele><time>2026-04-18T10:38:14.117Z</time></trkpt><trkpt lat="37.8193967" lon="15.1015283"><ele>980.5</ele><time>2026-04-18T10:38:15.117Z</time></trkpt><trkpt lat="37.8193933" lon="15.1017067"><ele>977.0</ele><time>2026-04-18T10:38:16.117Z</time></trkpt><trkpt lat="37.8194067" lon="15.1018833"><ele>973.5</ele><time>2026-04-18T10:38:17.117Z</time></trkpt><trkpt lat="37.8194567" lon="15.10205"><ele>970.0</ele><time>2026-04-18T10:38:18.117Z</time></trkpt><trkpt lat="37.81954" lon="15.102185"><ele>970.0</ele><time>2026-04-18T10:38:19.117Z</time></trkpt><trkpt lat="37.8196483" lon="15.1022817"><ele>970.0</ele><time>2026-04-18T10:38:20.117Z</time></trkpt><trkpt lat="37.8197783" lon="15.10235"><ele>970.0</ele><time>2026-04-18T10:38:21.117Z</time></trkpt><trkpt lat="37.8199367" lon="15.1023917"><ele>970.0</ele><time>2026-04-18T10:38:22.116Z</time></trkpt><trkpt lat="37.8200933" lon="15.102445"><ele>967.25</ele><time>2026-04-18T10:38:23.116Z</time></trkpt><trkpt lat="37.8202417" lon="15.1024933"><ele>964.5</ele><time>2026-04-18T10:38:24.117Z</time></trkpt><trkpt lat="37.8203817" lon="15.1025333"><ele>961.75</ele><time>2026-04-18T10:38:25.117Z</time></trkpt><trkpt lat="37.8205033" lon="15.102595"><ele>959.0</ele><time>2026-04-18T10:38:26.117Z</time></trkpt><trkpt lat="37.8206167" lon="15.1026833"><ele>959.0</ele><time>2026-04-18T10:38:27.117Z</time></trkpt><trkpt lat="37.8207017" lon="15.1028033"><ele>959.0</ele><time>2026-04-18T10:38:28.117Z</time></trkpt><trkpt lat="37.8207483" lon="15.1029533"><ele>959.0</ele><time>2026-04-18T10:38:29.117Z</time></trkpt><trkpt lat="37.8207633" lon="15.1031233"><ele>959.0</ele><time>2026-04-18T10:38:30.117Z</time></trkpt><trkpt lat="37.820745" lon="15.1033183"><ele>959.6666666666667</ele><time>2026-04-18T10:38:31.117Z</time></trkpt><trkpt lat="37.8207067" lon="15.1035083"><ele>960.3333333333333</ele><time>2026-04-18T10:38:32.117Z</time></trkpt><trkpt lat="37.8206717" lon="15.1036967"><ele>961.0</ele><time>2026-04-18T10:38:33.117Z</time></trkpt><trkpt lat="37.8206033" lon="15.1039017"><ele>961.0</ele><time>2026-04-18T10:38:34.117Z</time></trkpt><trkpt lat="37.8205517" lon="15.1040783"><ele>961.0</ele><time>2026-04-18T10:38:35.117Z</time></trkpt><trkpt lat="37.8204767" lon="15.1042583"><ele>961.0</ele><time>2026-04-18T10:38:36.117Z</time></trkpt><trkpt lat="37.8203867" lon="15.10444"><ele>956.0</ele><time>2026-04-18T10:38:37.117Z</time></trkpt><trkpt lat="37.820295" lon="15.10462"><ele>951.0</ele><time>2026-04-18T10:38:38.117Z</time></trkpt><trkpt lat="37.8202017" lon="15.10479"><ele>946.0</ele><time>2026-04-18T10:38:39.117Z</time></trkpt><trkpt lat="37.82012" lon="15.104945"><ele>946.0</ele><time>2026-04-18T10:38:40.116Z</time></trkpt><trkpt lat="37.8200333" lon="15.1050733"><ele>946.0</ele><time>2026-04-18T10:38:41.117Z</time></trkpt><trkpt lat="37.81992" lon="15.105165"><ele>946.0</ele><time>2026-04-18T10:38:42.117Z</time></trkpt><trkpt lat="37.8197883" lon="15.105195"><ele>946.0</ele><time>2026-04-18T10:38:43.117Z</time></trkpt><trkpt lat="37.8196433" lon="15.105185"><ele>946.0</ele><time>2026-04-18T10:38:44.117Z</time></trkpt><trkpt lat="37.8194883" lon="15.1051333"><ele>946.0</ele><time>2026-04-18T10:38:45.117Z</time></trkpt><trkpt lat="37.819335" lon="15.1050767"><ele>946.0</ele><time>2026-04-18T10:38:46.117Z</time></trkpt><trkpt lat="37.8191833" lon="15.1050367"><ele>945.25</ele><time>2026-04-18T10:38:47.117Z</time></trkpt><trkpt lat="37.8190383" lon="15.10503"><ele>944.5</ele><time>2026-04-18T10:38:48.117Z</time></trkpt><trkpt lat="37.8188967" lon="15.1050767"><ele>943.75</ele><time>2026-04-18T10:38:49.117Z</time></trkpt><trkpt lat="37.818765" lon="15.1051667"><ele>943.0</ele><time>2026-04-18T10:38:50.117Z</time></trkpt><trkpt lat="37.818635" lon="15.1052733"><ele>943.0</ele><time>2026-04-18T10:38:51.117Z</time></trkpt><trkpt lat="37.8185183" lon="15.10541"><ele>943.0</ele><time>2026-04-18T10:38:52.117Z</time></trkpt><trkpt lat="37.818405" lon="15.10554"><ele>943.0</ele><time>2026-04-18T10:38:53.117Z</time></trkpt><trkpt lat="37.8183" lon="15.1056517"><ele>943.0</ele><time>2026-04-18T10:38:54.117Z</time></trkpt><trkpt lat="37.8182267" lon="15.1057617"><ele>940.5999999999999</ele><time>2026-04-18T10:38:55.117Z</time></trkpt><trkpt lat="37.81818" lon="15.105895"><ele>938.1999999999999</ele><time>2026-04-18T10:38:56.117Z</time></trkpt><trkpt lat="37.8181617" lon="15.10603"><ele>935.8</ele><time>2026-04-18T10:38:57.117Z</time></trkpt><trkpt lat="37.818205" lon="15.1061467"><ele>933.4</ele><time>2026-04-18T10:38:58.117Z</time></trkpt><trkpt lat="37.8182833" lon="15.1062133"><ele>931.0</ele><time>2026-04-18T10:38:59.117Z</time></trkpt><trkpt lat="37.8183867" lon="15.1062433"><ele>928.75</ele><time>2026-04-18T10:39:00.117Z</time></trkpt><trkpt lat="37.8184983" lon="15.1062283"><ele>926.5</ele><time>2026-04-18T10:39:01.117Z</time></trkpt><trkpt lat="37.8186017" lon="15.1061483"><ele>924.25</ele><time>2026-04-18T10:39:02.117Z</time></trkpt><trkpt lat="37.8186967" lon="15.1060483"><ele>922.0</ele><time>2026-04-18T10:39:03.117Z</time></trkpt><trkpt lat="37.8187833" lon="15.1059333"><ele>922.0</ele><time>2026-04-18T10:39:04.117Z</time></trkpt><trkpt lat="37.818865" lon="15.10583"><ele>922.0</ele><time>2026-04-18T10:39:05.116Z</time></trkpt><trkpt lat="37.818955" lon="15.105735"><ele>922.0</ele><time>2026-04-18T10:39:06.117Z</time></trkpt><trkpt lat="37.8190533" lon="15.1056583"><ele>922.0</ele><time>2026-04-18T10:39:07.117Z</time></trkpt><trkpt lat="37.8191617" lon="15.1056183"><ele>923.5</ele><time>2026-04-18T10:39:08.117Z</time></trkpt><trkpt lat="37.8192683" lon="15.1056183"><ele>925.0</ele><time>2026-04-18T10:39:09.116Z</time></trkpt><trkpt lat="37.81938" lon="15.1056533"><ele>926.5</ele><time>2026-04-18T10:39:10.117Z</time></trkpt><trkpt lat="37.8194833" lon="15.1057217"><ele>928.0</ele><time>2026-04-18T10:39:11.117Z</time></trkpt><trkpt lat="37.8195817" lon="15.1058167"><ele>928.0</ele><time>2026-04-18T10:39:12.117Z</time></trkpt><trkpt lat="37.8196767" lon="15.10593"><ele>928.0</ele><time>2026-04-18T10:39:13.117Z</time></trkpt><trkpt lat="37.8197733" lon="15.1060483"><ele>928.0</ele><time>2026-04-18T10:39:14.117Z</time></trkpt><trkpt lat="37.8198717" lon="15.1061583"><ele>928.0</ele><time>2026-04-18T10:39:15.117Z</time></trkpt><trkpt lat="37.8199667" lon="15.1062733"><ele>928.0</ele><time>2026-04-18T10:39:16.117Z</time></trkpt><trkpt lat="37.8200767" lon="15.1063933"><ele>928.0</ele><time>2026-04-18T10:39:17.117Z</time></trkpt><trkpt lat="37.8202" lon="15.1065217"><ele>928.0</ele><time>2026-04-18T10:39:18.117Z</time></trkpt><trkpt lat="37.8203767" lon="15.1066467"><ele>923.0</ele><time>2026-04-18T10:39:19.117Z</time></trkpt><trkpt lat="37.8205567" lon="15.10678"><ele>918.0</ele><time>2026-04-18T10:39:20.116Z</time></trkpt><trkpt lat="37.8207217" lon="15.1069133"><ele>913.0</ele><time>2026-04-18T10:39:21.116Z</time></trkpt><trkpt lat="37.8208667" lon="15.107045"><ele>909.6666666666666</ele><time>2026-04-18T10:39:22.117Z</time></trkpt><trkpt lat="37.821" lon="15.107165"><ele>906.3333333333333</ele><time>2026-04-18T10:39:23.117Z</time></trkpt><trkpt lat="37.8211333" lon="15.1072683"><ele>903.0</ele><time>2026-04-18T10:39:24.117Z</time></trkpt><trkpt lat="37.8212667" lon="15.107345"><ele>903.0</ele><time>2026-04-18T10:39:25.117Z</time></trkpt><trkpt lat="37.8214067" lon="15.1073933"><ele>903.0</ele><time>2026-04-18T10:39:26.116Z</time></trkpt><trkpt lat="37.8215483" lon="15.1073933"><ele>903.0</ele><time>2026-04-18T10:39:27.117Z</time></trkpt><trkpt lat="37.8217" lon="15.1073367"><ele>903.0</ele><time>2026-04-18T10:39:28.116Z</time></trkpt><trkpt lat="37.8218267" lon="15.107225"><ele>896.3333333333333</ele><time>2026-04-18T10:39:29.116Z</time></trkpt><trkpt lat="37.8219433" lon="15.1070717"><ele>889.6666666666666</ele><time>2026-04-18T10:39:30.116Z</time></trkpt><trkpt lat="37.822035" lon="15.1068983"><ele>883.0</ele><time>2026-04-18T10:39:31.116Z</time></trkpt><trkpt lat="37.8221217" lon="15.1067067"><ele>888.6666666666666</ele><time>2026-04-18T10:39:32.116Z</time></trkpt><trkpt lat="37.822225" lon="15.106535"><ele>894.3333333333333</ele><time>2026-04-18T10:39:33.116Z</time></trkpt><trkpt lat="37.8223283" lon="15.106385"><ele>900.0</ele><time>2026-04-18T10:39:34.116Z</time></trkpt><trkpt lat="37.8224383" lon="15.10626"><ele>900.0</ele><time>2026-04-18T10:39:35.116Z</time></trkpt><trkpt lat="37.8225483" lon="15.1061883"><ele>900.0</ele><time>2026-04-18T10:39:36.115Z</time></trkpt><trkpt lat="37.822685" lon="15.10615"><ele>900.0</ele><time>2026-04-18T10:39:37.116Z</time></trkpt><trkpt lat="37.8228317" lon="15.10617"><ele>900.0</ele><time>2026-04-18T10:39:38.116Z</time></trkpt><trkpt lat="37.8229983" lon="15.1062417"><ele>896.6666666666667</ele><time>2026-04-18T10:39:39.116Z</time></trkpt><trkpt lat="37.8231667" lon="15.1063183"><ele>893.3333333333334</ele><time>2026-04-18T10:39:40.116Z</time></trkpt><trkpt lat="37.8233283" lon="15.106375"><ele>890.0</ele><time>2026-04-18T10:39:41.115Z</time></trkpt><trkpt lat="37.8234833" lon="15.1064333"><ele>887.0</ele><time>2026-04-18T10:39:42.116Z</time></trkpt><trkpt lat="37.8236233" lon="15.1064783"><ele>884.0</ele><time>2026-04-18T10:39:43.116Z</time></trkpt><trkpt lat="37.8237633" lon="15.1065017"><ele>881.0</ele><time>2026-04-18T10:39:44.116Z</time></trkpt><trkpt lat="37.8238967" lon="15.1064717"><ele>878.0</ele><time>2026-04-18T10:39:45.116Z</time></trkpt><trkpt lat="37.8240133" lon="15.10638"><ele>878.0</ele><time>2026-04-18T10:39:46.116Z</time></trkpt><trkpt lat="37.8241183" lon="15.10625"><ele>878.0</ele><time>2026-04-18T10:39:47.116Z</time></trkpt><trkpt lat="37.8242383" lon="15.1061117"><ele>878.0</ele><time>2026-04-18T10:39:48.116Z</time></trkpt><trkpt lat="37.82438" lon="15.1059917"><ele>872.3333333333334</ele><time>2026-04-18T10:39:49.116Z</time></trkpt><trkpt lat="37.8245333" lon="15.105905"><ele>866.6666666666667</ele><time>2026-04-18T10:39:50.116Z</time></trkpt><trkpt lat="37.8247" lon="15.1058267"><ele>861.0</ele><time>2026-04-18T10:39:51.116Z</time></trkpt><trkpt lat="37.8248617" lon="15.1057867"><ele>861.0</ele><time>2026-04-18T10:39:52.116Z</time></trkpt><trkpt lat="37.82502" lon="15.1057917"><ele>861.0</ele><time>2026-04-18T10:39:53.115Z</time></trkpt><trkpt lat="37.8251783" lon="15.105815"><ele>861.0</ele><time>2026-04-18T10:39:54.116Z</time></trkpt><trkpt lat="37.825325" lon="15.1058267"><ele>860.0</ele><time>2026-04-18T10:39:55.116Z</time></trkpt><trkpt lat="37.82547" lon="15.105805"><ele>859.0</ele><time>2026-04-18T10:39:56.116Z</time></trkpt><trkpt lat="37.8255867" lon="15.1057367"><ele>858.0</ele><time>2026-04-18T10:39:57.116Z</time></trkpt><trkpt lat="37.825695" lon="15.105615"><ele>857.0</ele><time>2026-04-18T10:39:58.115Z</time></trkpt><trkpt lat="37.82581" lon="15.1054717"><ele>857.0</ele><time>2026-04-18T10:39:59.116Z</time></trkpt><trkpt lat="37.8259217" lon="15.1053283"><ele>857.0</ele><time>2026-04-18T10:40:00.116Z</time></trkpt><trkpt lat="37.8260283" lon="15.10519"><ele>857.0</ele><time>2026-04-18T10:40:01.116Z</time></trkpt><trkpt lat="37.8261333" lon="15.1050533"><ele>857.5</ele><time>2026-04-18T10:40:02.116Z</time></trkpt><trkpt lat="37.8262283" lon="15.1049317"><ele>858.0</ele><time>2026-04-18T10:40:03.116Z</time></trkpt><trkpt lat="37.8263133" lon="15.1048383"><ele>858.5</ele><time>2026-04-18T10:40:04.116Z</time></trkpt><trkpt lat="37.8264017" lon="15.1047733"><ele>859.0</ele><time>2026-04-18T10:40:05.116Z</time></trkpt><trkpt lat="37.8265017" lon="15.1047583"><ele>859.0</ele><time>2026-04-18T10:40:06.116Z</time></trkpt><trkpt lat="37.826595" lon="15.10479"><ele>859.0000000000001</ele><time>2026-04-18T10:40:07.116Z</time></trkpt><trkpt lat="37.82667" lon="15.104875"><ele>859.0000000000001</ele><time>2026-04-18T10:40:08.116Z</time></trkpt><trkpt lat="37.8267133" lon="15.1049767"><ele>859.0</ele><time>2026-04-18T10:40:09.116Z</time></trkpt><trkpt lat="37.8267283" lon="15.105095"><ele>859.0</ele><time>2026-04-18T10:40:10.116Z</time></trkpt><trkpt lat="37.8267117" lon="15.1052217"><ele>856.0</ele><time>2026-04-18T10:40:11.116Z</time></trkpt><trkpt lat="37.8266583" lon="15.1053333"><ele>853.0000000000001</ele><time>2026-04-18T10:40:12.116Z</time></trkpt><trkpt lat="37.8265817" lon="15.105425"><ele>850.0</ele><time>2026-04-18T10:40:13.115Z</time></trkpt><trkpt lat="37.8264833" lon="15.105465"><ele>847.0</ele><time>2026-04-18T10:40:14.116Z</time></trkpt><trkpt lat="37.8263817" lon="15.1055"><ele>844.0</ele><time>2026-04-18T10:40:15.116Z</time></trkpt><trkpt lat="37.8262817" lon="15.1055417"><ele>844.0</ele><time>2026-04-18T10:40:16.116Z</time></trkpt><trkpt lat="37.8261967" lon="15.1056"><ele>844.0</ele><time>2026-04-18T10:40:17.115Z</time></trkpt><trkpt lat="37.8261267" lon="15.10567"><ele>844.0</ele><time>2026-04-18T10:40:18.116Z</time></trkpt><trkpt lat="37.8260683" lon="15.1057683"><ele>844.0</ele><time>2026-04-18T10:40:19.116Z</time></trkpt><trkpt lat="37.82603" lon="15.105875"><ele>844.0</ele><time>2026-04-18T10:40:20.116Z</time></trkpt><trkpt lat="37.8260117" lon="15.1059983"><ele>841.9999999999999</ele><time>2026-04-18T10:40:21.116Z</time></trkpt><trkpt lat="37.826015" lon="15.10612"><ele>840.0</ele><time>2026-04-18T10:40:22.116Z</time></trkpt><trkpt lat="37.8260333" lon="15.106235"><ele>838.0</ele><time>2026-04-18T10:40:23.116Z</time></trkpt><trkpt lat="37.8260467" lon="15.1063417"><ele>836.0</ele><time>2026-04-18T10:40:24.116Z</time></trkpt><trkpt lat="37.8260533" lon="15.1064383"><ele>833.9999999999999</ele><time>2026-04-18T10:40:25.116Z</time></trkpt><trkpt lat="37.8260433" lon="15.1065517"><ele>832.0</ele><time>2026-04-18T10:40:26.116Z</time></trkpt><trkpt lat="37.8260133" lon="15.10666"><ele>832.8</ele><time>2026-04-18T10:40:27.116Z</time></trkpt><trkpt lat="37.8259617" lon="15.1067683"><ele>833.6</ele><time>2026-04-18T10:40:28.116Z</time></trkpt><trkpt lat="37.825905" lon="15.1068683"><ele>834.4</ele><time>2026-04-18T10:40:29.116Z</time></trkpt><trkpt lat="37.8258483" lon="15.1069783"><ele>835.1999999999999</ele><time>2026-04-18T10:40:30.116Z</time></trkpt><trkpt lat="37.82579" lon="15.10708"><ele>836.0</ele><time>2026-04-18T10:40:31.116Z</time></trkpt><trkpt lat="37.8257267" lon="15.1071867"><ele>836.0</ele><time>2026-04-18T10:40:32.116Z</time></trkpt><trkpt lat="37.8256617" lon="15.1072933"><ele>836.0</ele><time>2026-04-18T10:40:33.116Z</time></trkpt><trkpt lat="37.82559" lon="15.1074067"><ele>836.0</ele><time>2026-04-18T10:40:34.115Z</time></trkpt><trkpt lat="37.8255083" lon="15.107495"><ele>836.0</ele><time>2026-04-18T10:40:35.116Z</time></trkpt><trkpt lat="37.82542" lon="15.1075733"><ele>836.0</ele><time>2026-04-18T10:40:36.116Z</time></trkpt><trkpt lat="37.8253267" lon="15.1076583"><ele>836.0</ele><time>2026-04-18T10:40:37.116Z</time></trkpt><trkpt lat="37.8252467" lon="15.1077333"><ele>836.0</ele><time>2026-04-18T10:40:38.116Z</time></trkpt><trkpt lat="37.82518" lon="15.1078333"><ele>836.0</ele><time>2026-04-18T10:40:39.116Z</time></trkpt><trkpt lat="37.82513" lon="15.1079567"><ele>836.0</ele><time>2026-04-18T10:40:40.116Z</time></trkpt><trkpt lat="37.8250967" lon="15.1081133"><ele>836.0</ele><time>2026-04-18T10:40:41.116Z</time></trkpt><trkpt lat="37.8250633" lon="15.1082817"><ele>832.5</ele><time>2026-04-18T10:40:42.116Z</time></trkpt><trkpt lat="37.8250267" lon="15.10845"><ele>829.0</ele><time>2026-04-18T10:40:43.116Z</time></trkpt><trkpt lat="37.824985" lon="15.1086117"><ele>825.5</ele><time>2026-04-18T10:40:44.116Z</time></trkpt><trkpt lat="37.824945" lon="15.1087633"><ele>822.0</ele><time>2026-04-18T10:40:45.116Z</time></trkpt><trkpt lat="37.8249083" lon="15.1089167"><ele>822.0</ele><time>2026-04-18T10:40:46.116Z</time></trkpt><trkpt lat="37.8248767" lon="15.1090583"><ele>822.0</ele><time>2026-04-18T10:40:47.116Z</time></trkpt><trkpt lat="37.8248617" lon="15.109195"><ele>822.0</ele><time>2026-04-18T10:40:48.116Z</time></trkpt><trkpt lat="37.824865" lon="15.1093383"><ele>822.0</ele><time>2026-04-18T10:40:49.116Z</time></trkpt><trkpt lat="37.8248933" lon="15.1094783"><ele>819.75</ele><time>2026-04-18T10:40:50.116Z</time></trkpt><trkpt lat="37.8249433" lon="15.1096217"><ele>817.5</ele><time>2026-04-18T10:40:51.116Z</time></trkpt><trkpt lat="37.82501" lon="15.1097517"><ele>815.25</ele><time>2026-04-18T10:40:52.116Z</time></trkpt><trkpt lat="37.8250883" lon="15.10987"><ele>813.0</ele><time>2026-04-18T10:40:53.116Z</time></trkpt><trkpt lat="37.8251667" lon="15.1099783"><ele>809.75</ele><time>2026-04-18T10:40:54.116Z</time></trkpt><trkpt lat="37.8252433" lon="15.1100967"><ele>806.5</ele><time>2026-04-18T10:40:55.115Z</time></trkpt><trkpt lat="37.82532" lon="15.110215"><ele>803.25</ele><time>2026-04-18T10:40:56.116Z</time></trkpt><trkpt lat="37.825395" lon="15.11033"><ele>800.0</ele><time>2026-04-18T10:40:57.116Z</time></trkpt><trkpt lat="37.82547" lon="15.11044"><ele>800.0</ele><time>2026-04-18T10:40:58.116Z</time></trkpt><trkpt lat="37.8255433" lon="15.110545"><ele>800.0</ele><time>2026-04-18T10:40:59.116Z</time></trkpt><trkpt lat="37.8256233" lon="15.1106533"><ele>800.0</ele><time>2026-04-18T10:41:00.116Z</time></trkpt><trkpt lat="37.8257033" lon="15.110765"><ele>800.0</ele><time>2026-04-18T10:41:01.116Z</time></trkpt><trkpt lat="37.8257783" lon="15.1108783"><ele>799.4</ele><time>2026-04-18T10:41:02.116Z</time></trkpt><trkpt lat="37.8258367" lon="15.11099"><ele>798.8</ele><time>2026-04-18T10:41:03.116Z</time></trkpt><trkpt lat="37.8258817" lon="15.111115"><ele>798.2</ele><time>2026-04-18T10:41:04.116Z</time></trkpt><trkpt lat="37.8259" lon="15.1112367"><ele>797.6</ele><time>2026-04-18T10:41:05.116Z</time></trkpt><trkpt lat="37.8258983" lon="15.1113617"><ele>797.0</ele><time>2026-04-18T10:41:06.116Z</time></trkpt><trkpt lat="37.8258733" lon="15.11148"><ele>796.4000000000001</ele><time>2026-04-18T10:41:07.116Z</time></trkpt><trkpt lat="37.8258233" lon="15.111595"><ele>795.8000000000001</ele><time>2026-04-18T10:41:08.115Z</time></trkpt><trkpt lat="37.8257533" lon="15.1117"><ele>795.2</ele><time>2026-04-18T10:41:09.116Z</time></trkpt><trkpt lat="37.82568" lon="15.1117833"><ele>794.6</ele><time>2026-04-18T10:41:10.116Z</time></trkpt><trkpt lat="37.8256033" lon="15.1118667"><ele>794.0</ele><time>2026-04-18T10:41:11.116Z</time></trkpt><trkpt lat="37.8255433" lon="15.1119467"><ele>794.0000000000001</ele><time>2026-04-18T10:41:12.116Z</time></trkpt><trkpt lat="37.8254983" lon="15.1120467"><ele>794.0</ele><time>2026-04-18T10:41:13.116Z</time></trkpt><trkpt lat="37.825485" lon="15.1121533"><ele>794.0</ele><time>2026-04-18T10:41:14.115Z</time></trkpt><trkpt lat="37.8255017" lon="15.1122533"><ele>794.0</ele><time>2026-04-18T10:41:15.116Z</time></trkpt><trkpt lat="37.8255467" lon="15.11234"><ele>794.0000000000001</ele><time>2026-04-18T10:41:16.115Z</time></trkpt><trkpt lat="37.8256133" lon="15.1124017"><ele>794.0</ele><time>2026-04-18T10:41:17.116Z</time></trkpt><trkpt lat="37.8256983" lon="15.1124367"><ele>791.2</ele><time>2026-04-18T10:41:18.116Z</time></trkpt><trkpt lat="37.8257933" lon="15.1124333"><ele>788.4000000000001</ele><time>2026-04-18T10:41:19.116Z</time></trkpt><trkpt lat="37.825895" lon="15.11241"><ele>785.6</ele><time>2026-04-18T10:41:20.116Z</time></trkpt><trkpt lat="37.825995" lon="15.11239"><ele>782.8</ele><time>2026-04-18T10:41:21.116Z</time></trkpt><trkpt lat="37.8260883" lon="15.1123717"><ele>780.0</ele><time>2026-04-18T10:41:22.115Z</time></trkpt><trkpt lat="37.8261733" lon="15.1123383"><ele>778.6666666666666</ele><time>2026-04-18T10:41:23.116Z</time></trkpt><trkpt lat="37.8262333" lon="15.11227"><ele>777.3333333333333</ele><time>2026-04-18T10:41:24.116Z</time></trkpt><trkpt lat="37.8262733" lon="15.11218"><ele>776.0</ele><time>2026-04-18T10:41:25.116Z</time></trkpt><trkpt lat="37.826285" lon="15.1120683"><ele>774.6666666666666</ele><time>2026-04-18T10:41:26.116Z</time></trkpt><trkpt lat="37.8262767" lon="15.1119517"><ele>773.3333333333333</ele><time>2026-04-18T10:41:27.116Z</time></trkpt><trkpt lat="37.826275" lon="15.1118383"><ele>772.0</ele><time>2026-04-18T10:41:28.115Z</time></trkpt><trkpt lat="37.8262867" lon="15.111725"><ele>772.0</ele><time>2026-04-18T10:41:29.115Z</time></trkpt><trkpt lat="37.8263117" lon="15.1116383"><ele>772.0</ele><time>2026-04-18T10:41:30.116Z</time></trkpt><trkpt lat="37.826355" lon="15.11155"><ele>772.0</ele><time>2026-04-18T10:41:31.116Z</time></trkpt><trkpt lat="37.8264167" lon="15.1114767"><ele>772.0</ele><time>2026-04-18T10:41:32.116Z</time></trkpt><trkpt lat="37.8264983" lon="15.1113983"><ele>772.0</ele><time>2026-04-18T10:41:33.116Z</time></trkpt><trkpt lat="37.8265933" lon="15.11131"><ele>775.0</ele><time>2026-04-18T10:41:34.116Z</time></trkpt><trkpt lat="37.8267067" lon="15.111215"><ele>778.0</ele><time>2026-04-18T10:41:35.116Z</time></trkpt><trkpt lat="37.8268417" lon="15.1111017"><ele>781.0</ele><time>2026-04-18T10:41:36.116Z</time></trkpt><trkpt lat="37.8270017" lon="15.1109683"><ele>775.5</ele><time>2026-04-18T10:41:37.116Z</time></trkpt><trkpt lat="37.8271783" lon="15.1108183"><ele>770.0</ele><time>2026-04-18T10:41:38.116Z</time></trkpt><trkpt lat="37.8273833" lon="15.1106417"><ele>770.0</ele><time>2026-04-18T10:41:39.116Z</time></trkpt><trkpt lat="37.8275917" lon="15.1104683"><ele>770.0</ele><time>2026-04-18T10:41:40.116Z</time></trkpt><trkpt lat="37.8278" lon="15.1103167"><ele>767.6666666666667</ele><time>2026-04-18T10:41:41.116Z</time></trkpt><trkpt lat="37.8279883" lon="15.1101633"><ele>765.3333333333334</ele><time>2026-04-18T10:41:42.116Z</time></trkpt><trkpt lat="37.8281683" lon="15.1100017"><ele>763.0</ele><time>2026-04-18T10:41:43.116Z</time></trkpt><trkpt lat="37.8283417" lon="15.1098233"><ele>758.0</ele><time>2026-04-18T10:41:44.116Z</time></trkpt><trkpt lat="37.8285033" lon="15.1096333"><ele>753.0</ele><time>2026-04-18T10:41:45.116Z</time></trkpt><trkpt lat="37.8286667" lon="15.1094267"><ele>753.0</ele><time>2026-04-18T10:41:46.116Z</time></trkpt><trkpt lat="37.82882" lon="15.1092283"><ele>753.0</ele><time>2026-04-18T10:41:47.116Z</time></trkpt><trkpt lat="37.8289567" lon="15.10903"><ele>753.0</ele><time>2026-04-18T10:41:48.116Z</time></trkpt><trkpt lat="37.8290833" lon="15.10884"><ele>752.3333333333334</ele><time>2026-04-18T10:41:49.116Z</time></trkpt><trkpt lat="37.82921" lon="15.108675"><ele>751.6666666666667</ele><time>2026-04-18T10:41:50.116Z</time></trkpt><trkpt lat="37.8293383" lon="15.1085317"><ele>751.0</ele><time>2026-04-18T10:41:51.116Z</time></trkpt><trkpt lat="37.8294817" lon="15.1084183"><ele>751.0</ele><time>2026-04-18T10:41:52.116Z</time></trkpt><trkpt lat="37.8296433" lon="15.1083317"><ele>751.0</ele><time>2026-04-18T10:41:53.116Z</time></trkpt><trkpt lat="37.8298167" lon="15.1082867"><ele>751.0</ele><time>2026-04-18T10:41:54.116Z</time></trkpt><trkpt lat="37.82999" lon="15.1082433"><ele>751.3333333333334</ele><time>2026-04-18T10:41:55.116Z</time></trkpt><trkpt lat="37.830165" lon="15.1082167"><ele>751.6666666666666</ele><time>2026-04-18T10:41:56.116Z</time></trkpt><trkpt lat="37.8303333" lon="15.1081883"><ele>752.0</ele><time>2026-04-18T10:41:57.116Z</time></trkpt><trkpt lat="37.830505" lon="15.1081633"><ele>752.0</ele><time>2026-04-18T10:41:58.116Z</time></trkpt><trkpt lat="37.830675" lon="15.1081483"><ele>752.0</ele><time>2026-04-18T10:41:59.116Z</time></trkpt><trkpt lat="37.830855" lon="15.1081617"><ele>752.0</ele><time>2026-04-18T10:42:00.116Z</time></trkpt><trkpt lat="37.8310333" lon="15.1081917"><ele>750.3333333333333</ele><time>2026-04-18T10:42:01.116Z</time></trkpt><trkpt lat="37.831215" lon="15.1082383"><ele>748.6666666666666</ele><time>2026-04-18T10:42:02.116Z</time></trkpt><trkpt lat="37.8313867" lon="15.1083033"><ele>747.0</ele><time>2026-04-18T10:42:03.116Z</time></trkpt><trkpt lat="37.8315467" lon="15.1083683"><ele>743.6666666666666</ele><time>2026-04-18T10:42:04.116Z</time></trkpt><trkpt lat="37.831695" lon="15.1084233"><ele>740.3333333333333</ele><time>2026-04-18T10:42:05.115Z</time></trkpt><trkpt lat="37.8318517" lon="15.1084567"><ele>737.0</ele><time>2026-04-18T10:42:06.116Z</time></trkpt><trkpt lat="37.832" lon="15.10845"><ele>736.6666666666666</ele><time>2026-04-18T10:42:07.116Z</time></trkpt><trkpt lat="37.832135" lon="15.108385"><ele>736.3333333333334</ele><time>2026-04-18T10:42:08.116Z</time></trkpt><trkpt lat="37.8322617" lon="15.1082683"><ele>736.0</ele><time>2026-04-18T10:42:09.116Z</time></trkpt><trkpt lat="37.8323833" lon="15.1081467"><ele>736.0</ele><time>2026-04-18T10:42:10.116Z</time></trkpt><trkpt lat="37.8324917" lon="15.1080417"><ele>736.0</ele><time>2026-04-18T10:42:11.116Z</time></trkpt><trkpt lat="37.8325983" lon="15.1079683"><ele>736.0</ele><time>2026-04-18T10:42:12.116Z</time></trkpt><trkpt lat="37.832705" lon="15.107935"><ele>736.0</ele><time>2026-04-18T10:42:13.115Z</time></trkpt><trkpt lat="37.83281" lon="15.1079817"><ele>734.25</ele><time>2026-04-18T10:42:14.116Z</time></trkpt><trkpt lat="37.8329067" lon="15.1080717"><ele>732.5</ele><time>2026-04-18T10:42:15.116Z</time></trkpt><trkpt lat="37.8330067" lon="15.1082017"><ele>730.75</ele><time>2026-04-18T10:42:16.116Z</time></trkpt><trkpt lat="37.8330983" lon="15.108355"><ele>729.0</ele><time>2026-04-18T10:42:17.116Z</time></trkpt><trkpt lat="37.833195" lon="15.10852"><ele>725.0</ele><time>2026-04-18T10:42:18.116Z</time></trkpt><trkpt lat="37.8332917" lon="15.1086983"><ele>721.0</ele><time>2026-04-18T10:42:19.116Z</time></trkpt><trkpt lat="37.83339" lon="15.1088733"><ele>717.0</ele><time>2026-04-18T10:42:20.116Z</time></trkpt><trkpt lat="37.8334833" lon="15.1090467"><ele>715.3333333333334</ele><time>2026-04-18T10:42:21.115Z</time></trkpt><trkpt lat="37.8335667" lon="15.10921"><ele>713.6666666666667</ele><time>2026-04-18T10:42:22.116Z</time></trkpt><trkpt lat="37.833645" lon="15.109385"><ele>712.0</ele><time>2026-04-18T10:42:23.116Z</time></trkpt><trkpt lat="37.8337183" lon="15.1095617"><ele>712.0</ele><time>2026-04-18T10:42:24.116Z</time></trkpt><trkpt lat="37.8337917" lon="15.1097283"><ele>712.0</ele><time>2026-04-18T10:42:25.115Z</time></trkpt><trkpt lat="37.833875" lon="15.1098917"><ele>712.0</ele><time>2026-04-18T10:42:26.116Z</time></trkpt><trkpt lat="37.8339667" lon="15.1100417"><ele>710.6666666666667</ele><time>2026-04-18T10:42:27.116Z</time></trkpt><trkpt lat="37.8340767" lon="15.1101817"><ele>709.3333333333334</ele><time>2026-04-18T10:42:28.116Z</time></trkpt><trkpt lat="37.834195" lon="15.1102983"><ele>708.0</ele><time>2026-04-18T10:42:29.116Z</time></trkpt><trkpt lat="37.8343183" lon="15.1104"><ele>707.5</ele><time>2026-04-18T10:42:30.115Z</time></trkpt><trkpt lat="37.834445" lon="15.1104967"><ele>707.0</ele><time>2026-04-18T10:42:31.116Z</time></trkpt><trkpt lat="37.8345767" lon="15.1105917"><ele>706.5</ele><time>2026-04-18T10:42:32.116Z</time></trkpt><trkpt lat="37.83471" lon="15.1106783"><ele>706.0</ele><time>2026-04-18T10:42:33.116Z</time></trkpt><trkpt lat="37.83484" lon="15.1107467"><ele>704.75</ele><time>2026-04-18T10:42:34.116Z</time></trkpt><trkpt lat="37.8349817" lon="15.110805"><ele>703.5</ele><time>2026-04-18T10:42:35.116Z</time></trkpt><trkpt lat="37.835115" lon="15.1108667"><ele>702.25</ele><time>2026-04-18T10:42:36.116Z</time></trkpt><trkpt lat="37.835245" lon="15.1109617"><ele>701.0</ele><time>2026-04-18T10:42:37.116Z</time></trkpt><trkpt lat="37.8353583" lon="15.1110817"><ele>699.75</ele><time>2026-04-18T10:42:38.116Z</time></trkpt><trkpt lat="37.8354567" lon="15.1112283"><ele>698.5</ele><time>2026-04-18T10:42:39.116Z</time></trkpt><trkpt lat="37.8355483" lon="15.1113817"><ele>697.25</ele><time>2026-04-18T10:42:40.116Z</time></trkpt><trkpt lat="37.83564" lon="15.1115217"><ele>696.0</ele><time>2026-04-18T10:42:41.116Z</time></trkpt><trkpt lat="37.8357283" lon="15.1116667"><ele>695.0</ele><time>2026-04-18T10:42:42.116Z</time></trkpt><trkpt lat="37.8358183" lon="15.1118167"><ele>694.0</ele><time>2026-04-18T10:42:43.116Z</time></trkpt><trkpt lat="37.8359117" lon="15.1119717"><ele>693.0</ele><time>2026-04-18T10:42:44.115Z</time></trkpt><trkpt lat="37.8359983" lon="15.11213"><ele>692.3333333333334</ele><time>2026-04-18T10:42:45.116Z</time></trkpt><trkpt lat="37.836085" lon="15.112305"><ele>691.6666666666667</ele><time>2026-04-18T10:42:46.116Z</time></trkpt><trkpt lat="37.83617" lon="15.11249"><ele>691.0</ele><time>2026-04-18T10:42:47.116Z</time></trkpt><trkpt lat="37.836255" lon="15.1126917"><ele>690.0</ele><time>2026-04-18T10:42:48.116Z</time></trkpt><trkpt lat="37.836345" lon="15.1129033"><ele>689.0</ele><time>2026-04-18T10:42:49.116Z</time></trkpt><trkpt lat="37.8364383" lon="15.1131133"><ele>688.0</ele><time>2026-04-18T10:42:50.116Z</time></trkpt><trkpt lat="37.8365317" lon="15.113335"><ele>686.6666666666667</ele><time>2026-04-18T10:42:51.116Z</time></trkpt><trkpt lat="37.8366267" lon="15.1135567"><ele>685.3333333333334</ele><time>2026-04-18T10:42:52.116Z</time></trkpt><trkpt lat="37.8367183" lon="15.113765"><ele>684.0</ele><time>2026-04-18T10:42:53.116Z</time></trkpt><trkpt lat="37.83681" lon="15.1139733"><ele>681.3333333333334</ele><time>2026-04-18T10:42:54.116Z</time></trkpt><trkpt lat="37.8368917" lon="15.1141683"><ele>678.6666666666667</ele><time>2026-04-18T10:42:55.115Z</time></trkpt><trkpt lat="37.83697" lon="15.11436"><ele>676.0</ele><time>2026-04-18T10:42:56.116Z</time></trkpt><trkpt lat="37.8370517" lon="15.1145467"><ele>676.0</ele><time>2026-04-18T10:42:57.116Z</time></trkpt><trkpt lat="37.8371383" lon="15.1147383"><ele>676.0</ele><time>2026-04-18T10:42:58.116Z</time></trkpt><trkpt lat="37.8372333" lon="15.1149217"><ele>676.0</ele><time>2026-04-18T10:42:59.116Z</time></trkpt><trkpt lat="37.8373367" lon="15.115095"><ele>675.3333333333334</ele><time>2026-04-18T10:43:00.116Z</time></trkpt><trkpt lat="37.8374367" lon="15.115265"><ele>674.6666666666666</ele><time>2026-04-18T10:43:01.116Z</time></trkpt><trkpt lat="37.83754" lon="15.1154283"><ele>674.0</ele><time>2026-04-18T10:43:02.116Z</time></trkpt><trkpt lat="37.8376383" lon="15.115595"><ele>670.6666666666666</ele><time>2026-04-18T10:43:03.116Z</time></trkpt><trkpt lat="37.8377383" lon="15.1157633"><ele>667.3333333333334</ele><time>2026-04-18T10:43:04.116Z</time></trkpt><trkpt lat="37.8378417" lon="15.1159283"><ele>664.0</ele><time>2026-04-18T10:43:05.116Z</time></trkpt><trkpt lat="37.837945" lon="15.116085"><ele>664.0</ele><time>2026-04-18T10:43:06.116Z</time></trkpt><trkpt lat="37.8380633" lon="15.1162283"><ele>664.0</ele><time>2026-04-18T10:43:07.116Z</time></trkpt><trkpt lat="37.8381883" lon="15.1163517"><ele>664.0</ele><time>2026-04-18T10:43:08.116Z</time></trkpt><trkpt lat="37.8383083" lon="15.1164683"><ele>663.25</ele><time>2026-04-18T10:43:09.116Z</time></trkpt><trkpt lat="37.8384183" lon="15.116575"><ele>662.5</ele><time>2026-04-18T10:43:10.116Z</time></trkpt><trkpt lat="37.8385167" lon="15.116695"><ele>661.75</ele><time>2026-04-18T10:43:11.116Z</time></trkpt><trkpt lat="37.8385983" lon="15.1168283"><ele>661.0</ele><time>2026-04-18T10:43:12.116Z</time></trkpt><trkpt lat="37.8386583" lon="15.1169867"><ele>659.75</ele><time>2026-04-18T10:43:13.116Z</time></trkpt><trkpt lat="37.8386833" lon="15.1171533"><ele>658.5</ele><time>2026-04-18T10:43:14.116Z</time></trkpt><trkpt lat="37.8386817" lon="15.1173233"><ele>657.25</ele><time>2026-04-18T10:43:15.116Z</time></trkpt><trkpt lat="37.8386733" lon="15.1175217"><ele>656.0</ele><time>2026-04-18T10:43:16.116Z</time></trkpt><trkpt lat="37.83867" lon="15.1177433"><ele>654.6666666666666</ele><time>2026-04-18T10:43:17.116Z</time></trkpt><trkpt lat="37.8386667" lon="15.11797"><ele>653.3333333333334</ele><time>2026-04-18T10:43:18.116Z</time></trkpt><trkpt lat="37.8386567" lon="15.118195"><ele>652.0</ele><time>2026-04-18T10:43:19.116Z</time></trkpt><trkpt lat="37.838645" lon="15.1184133"><ele>649.3333333333334</ele><time>2026-04-18T10:43:20.116Z</time></trkpt><trkpt lat="37.8386417" lon="15.1186167"><ele>646.6666666666666</ele><time>2026-04-18T10:43:21.116Z</time></trkpt><trkpt lat="37.8386383" lon="15.1188033"><ele>644.0</ele><time>2026-04-18T10:43:22.116Z</time></trkpt><trkpt lat="37.8386117" lon="15.118985"><ele>644.25</ele><time>2026-04-18T10:43:23.116Z</time></trkpt><trkpt lat="37.83856" lon="15.119135"><ele>644.5</ele><time>2026-04-18T10:43:24.116Z</time></trkpt><trkpt lat="37.8384783" lon="15.1192683"><ele>644.75</ele><time>2026-04-18T10:43:25.116Z</time></trkpt><trkpt lat="37.83837" lon="15.1193883"><ele>645.0</ele><time>2026-04-18T10:43:26.116Z</time></trkpt><trkpt lat="37.8382733" lon="15.1195033"><ele>645.0</ele><time>2026-04-18T10:43:27.116Z</time></trkpt><trkpt lat="37.8381783" lon="15.1195967"><ele>645.0</ele><time>2026-04-18T10:43:28.115Z</time></trkpt><trkpt lat="37.8380683" lon="15.1196733"><ele>645.0</ele><time>2026-04-18T10:43:29.116Z</time></trkpt><trkpt lat="37.8379483" lon="15.1197067"><ele>645.0</ele><time>2026-04-18T10:43:30.116Z</time></trkpt><trkpt lat="37.8378033" lon="15.1196917"><ele>645.0</ele><time>2026-04-18T10:43:31.115Z</time></trkpt><trkpt lat="37.8376567" lon="15.1196483"><ele>645.0</ele><time>2026-04-18T10:43:32.116Z</time></trkpt><trkpt lat="37.8375133" lon="15.1195917"><ele>645.0</ele><time>2026-04-18T10:43:33.116Z</time></trkpt><trkpt lat="37.8373717" lon="15.1195667"><ele>645.0</ele><time>2026-04-18T10:43:34.116Z</time></trkpt><trkpt lat="37.837225" lon="15.1195867"><ele>643.5</ele><time>2026-04-18T10:43:35.115Z</time></trkpt><trkpt lat="37.8370817" lon="15.11962"><ele>642.0</ele><time>2026-04-18T10:43:36.116Z</time></trkpt><trkpt lat="37.83694" lon="15.119655"><ele>640.5</ele><time>2026-04-18T10:43:37.116Z</time></trkpt><trkpt lat="37.8368" lon="15.1197067"><ele>639.0</ele><time>2026-04-18T10:43:38.116Z</time></trkpt><trkpt lat="37.8366783" lon="15.1197867"><ele>636.75</ele><time>2026-04-18T10:43:39.116Z</time></trkpt><trkpt lat="37.8365867" lon="15.1199083"><ele>634.5</ele><time>2026-04-18T10:43:40.116Z</time></trkpt><trkpt lat="37.836525" lon="15.1200517"><ele>632.25</ele><time>2026-04-18T10:43:41.116Z</time></trkpt><trkpt lat="37.83649" lon="15.1202133"><ele>630.0</ele><time>2026-04-18T10:43:42.116Z</time></trkpt><trkpt lat="37.8364867" lon="15.120395"><ele>630.0</ele><time>2026-04-18T10:43:43.116Z</time></trkpt><trkpt lat="37.8365183" lon="15.1206183"><ele>630.0</ele><time>2026-04-18T10:43:44.116Z</time></trkpt><trkpt lat="37.836555" lon="15.1208417"><ele>630.0</ele><time>2026-04-18T10:43:45.116Z</time></trkpt><trkpt lat="37.8365883" lon="15.12107"><ele>628.0</ele><time>2026-04-18T10:43:46.116Z</time></trkpt><trkpt lat="37.836625" lon="15.1213017"><ele>626.0</ele><time>2026-04-18T10:43:47.116Z</time></trkpt><trkpt lat="37.8366533" lon="15.1215183"><ele>624.0</ele><time>2026-04-18T10:43:48.116Z</time></trkpt><trkpt lat="37.83668" lon="15.1217283"><ele>622.0</ele><time>2026-04-18T10:43:49.116Z</time></trkpt><trkpt lat="37.83672" lon="15.1219067"><ele>620.0</ele><time>2026-04-18T10:43:50.116Z</time></trkpt><trkpt lat="37.8367817" lon="15.1220817"><ele>618.0</ele><time>2026-04-18T10:43:51.116Z</time></trkpt><trkpt lat="37.836875" lon="15.1222417"><ele>616.6666666666666</ele><time>2026-04-18T10:43:52.116Z</time></trkpt><trkpt lat="37.83698" lon="15.1223833"><ele>615.3333333333333</ele><time>2026-04-18T10:43:53.116Z</time></trkpt><trkpt lat="37.8370867" lon="15.1225233"><ele>614.0</ele><time>2026-04-18T10:43:54.116Z</time></trkpt><trkpt lat="37.8371867" lon="15.1226617"><ele>613.25</ele><time>2026-04-18T10:43:55.116Z</time></trkpt><trkpt lat="37.8372833" lon="15.122805"><ele>612.5</ele><time>2026-04-18T10:43:56.116Z</time></trkpt><trkpt lat="37.83738" lon="15.122945"><ele>611.75</ele><time>2026-04-18T10:43:57.116Z</time></trkpt><trkpt lat="37.8374633" lon="15.1230817"><ele>611.0</ele><time>2026-04-18T10:43:58.116Z</time></trkpt><trkpt lat="37.8375333" lon="15.1232283"><ele>610.5</ele><time>2026-04-18T10:43:59.116Z</time></trkpt><trkpt lat="37.83759" lon="15.1233867"><ele>610.0</ele><time>2026-04-18T10:44:00.116Z</time></trkpt><trkpt lat="37.8376383" lon="15.1235617"><ele>609.5</ele><time>2026-04-18T10:44:01.116Z</time></trkpt><trkpt lat="37.837695" lon="15.1237467"><ele>609.0</ele><time>2026-04-18T10:44:02.116Z</time></trkpt><trkpt lat="37.8377517" lon="15.12394"><ele>605.6666666666666</ele><time>2026-04-18T10:44:03.116Z</time></trkpt><trkpt lat="37.837805" lon="15.124145"><ele>602.3333333333333</ele><time>2026-04-18T10:44:04.116Z</time></trkpt><trkpt lat="37.8378583" lon="15.1243433"><ele>599.0</ele><time>2026-04-18T10:44:05.115Z</time></trkpt><trkpt lat="37.83791" lon="15.1245417"><ele>599.0</ele><time>2026-04-18T10:44:06.116Z</time></trkpt><trkpt lat="37.8379617" lon="15.1247417"><ele>599.0</ele><time>2026-04-18T10:44:07.116Z</time></trkpt><trkpt lat="37.8380133" lon="15.1249367"><ele>599.0</ele><time>2026-04-18T10:44:08.116Z</time></trkpt><trkpt lat="37.8380633" lon="15.1251217"><ele>597.3333333333333</ele><time>2026-04-18T10:44:09.116Z</time></trkpt><trkpt lat="37.838115" lon="15.1253067"><ele>595.6666666666666</ele><time>2026-04-18T10:44:10.116Z</time></trkpt><trkpt lat="37.838165" lon="15.1254883"><ele>594.0</ele><time>2026-04-18T10:44:11.116Z</time></trkpt><trkpt lat="37.8382217" lon="15.1256817"><ele>593.0</ele><time>2026-04-18T10:44:12.116Z</time></trkpt><trkpt lat="37.8382817" lon="15.12588"><ele>592.0</ele><time>2026-04-18T10:44:13.116Z</time></trkpt><trkpt lat="37.8383433" lon="15.126085"><ele>591.0</ele><time>2026-04-18T10:44:14.116Z</time></trkpt><trkpt lat="37.8384083" lon="15.1262983"><ele>591.6666666666666</ele><time>2026-04-18T10:44:15.116Z</time></trkpt><trkpt lat="37.8384783" lon="15.1265283"><ele>592.3333333333333</ele><time>2026-04-18T10:44:16.116Z</time></trkpt><trkpt lat="37.83854" lon="15.1267717"><ele>593.0</ele><time>2026-04-18T10:44:17.116Z</time></trkpt><trkpt lat="37.8385983" lon="15.12702"><ele>593.0</ele><time>2026-04-18T10:44:18.116Z</time></trkpt><trkpt lat="37.8386517" lon="15.1272667"><ele>593.0</ele><time>2026-04-18T10:44:19.116Z</time></trkpt><trkpt lat="37.8387167" lon="15.1275167"><ele>593.0</ele><time>2026-04-18T10:44:20.116Z</time></trkpt><trkpt lat="37.8387833" lon="15.1277583"><ele>592.0</ele><time>2026-04-18T10:44:21.115Z</time></trkpt><trkpt lat="37.8388433" lon="15.1279883"><ele>591.0</ele><time>2026-04-18T10:44:22.116Z</time></trkpt><trkpt lat="37.8389017" lon="15.12822"><ele>590.0</ele><time>2026-04-18T10:44:23.116Z</time></trkpt><trkpt lat="37.8389717" lon="15.1284583"><ele>589.3333333333333</ele><time>2026-04-18T10:44:24.116Z</time></trkpt><trkpt lat="37.8390333" lon="15.128685"><ele>588.6666666666666</ele><time>2026-04-18T10:44:25.116Z</time></trkpt><trkpt lat="37.8390967" lon="15.1289117"><ele>588.0</ele><time>2026-04-18T10:44:26.115Z</time></trkpt><trkpt lat="37.83916" lon="15.1291333"><ele>587.3333333333334</ele><time>2026-04-18T10:44:27.116Z</time></trkpt><trkpt lat="37.83922" lon="15.129355"><ele>586.6666666666667</ele><time>2026-04-18T10:44:28.116Z</time></trkpt><trkpt lat="37.8392817" lon="15.1295717"><ele>586.0</ele><time>2026-04-18T10:44:29.116Z</time></trkpt><trkpt lat="37.83934" lon="15.1297883"><ele>585.6666666666667</ele><time>2026-04-18T10:44:30.116Z</time></trkpt><trkpt lat="37.8393983" lon="15.130005"><ele>585.3333333333334</ele><time>2026-04-18T10:44:31.116Z</time></trkpt><trkpt lat="37.8394567" lon="15.130215"><ele>585.0</ele><time>2026-04-18T10:44:32.116Z</time></trkpt><trkpt lat="37.8395133" lon="15.1304233"><ele>585.0</ele><time>2026-04-18T10:44:33.115Z</time></trkpt><trkpt lat="37.8395717" lon="15.1306333"><ele>585.0</ele><time>2026-04-18T10:44:34.116Z</time></trkpt><trkpt lat="37.8396233" lon="15.1308367"><ele>585.0</ele><time>2026-04-18T10:44:35.116Z</time></trkpt><trkpt lat="37.8396783" lon="15.1310383"><ele>583.6666666666666</ele><time>2026-04-18T10:44:36.116Z</time></trkpt><trkpt lat="37.83973" lon="15.1312333"><ele>582.3333333333333</ele><time>2026-04-18T10:44:37.115Z</time></trkpt><trkpt lat="37.839785" lon="15.1314233"><ele>581.0</ele><time>2026-04-18T10:44:38.116Z</time></trkpt><trkpt lat="37.839845" lon="15.1316167"><ele>580.3333333333333</ele><time>2026-04-18T10:44:39.116Z</time></trkpt><trkpt lat="37.839895" lon="15.1318067"><ele>579.6666666666666</ele><time>2026-04-18T10:44:40.116Z</time></trkpt><trkpt lat="37.839945" lon="15.131995"><ele>579.0</ele><time>2026-04-18T10:44:41.116Z</time></trkpt><trkpt lat="37.8399983" lon="15.132195"><ele>578.3333333333334</ele><time>2026-04-18T10:44:42.116Z</time></trkpt><trkpt lat="37.8400483" lon="15.1323917"><ele>577.6666666666667</ele><time>2026-04-18T10:44:43.116Z</time></trkpt><trkpt lat="37.8401067" lon="15.1325867"><ele>577.0</ele><time>2026-04-18T10:44:44.116Z</time></trkpt><trkpt lat="37.8401617" lon="15.1327867"><ele>576.0</ele><time>2026-04-18T10:44:45.116Z</time></trkpt><trkpt lat="37.8402183" lon="15.1329917"><ele>575.0</ele><time>2026-04-18T10:44:46.116Z</time></trkpt><trkpt lat="37.8402733" lon="15.1331983"><ele>574.0</ele><time>2026-04-18T10:44:47.116Z</time></trkpt><trkpt lat="37.84033" lon="15.133405"><ele>574.0</ele><time>2026-04-18T10:44:48.116Z</time></trkpt><trkpt lat="37.840385" lon="15.1336083"><ele>574.0</ele><time>2026-04-18T10:44:49.116Z</time></trkpt><trkpt lat="37.8404417" lon="15.1338233"><ele>574.0</ele><time>2026-04-18T10:44:50.116Z</time></trkpt><trkpt lat="37.8405" lon="15.1340217"><ele>573.3333333333334</ele><time>2026-04-18T10:44:51.116Z</time></trkpt><trkpt lat="37.840565" lon="15.1342267"><ele>572.6666666666666</ele><time>2026-04-18T10:44:52.116Z</time></trkpt><trkpt lat="37.8406183" lon="15.13443"><ele>572.0</ele><time>2026-04-18T10:44:53.116Z</time></trkpt><trkpt lat="37.84067" lon="15.13464"><ele>572.0</ele><time>2026-04-18T10:44:54.115Z</time></trkpt><trkpt lat="37.8407283" lon="15.1348317"><ele>572.0</ele><time>2026-04-18T10:44:55.116Z</time></trkpt><trkpt lat="37.8407833" lon="15.1350467"><ele>572.0</ele><time>2026-04-18T10:44:56.116Z</time></trkpt><trkpt lat="37.8408383" lon="15.13525"><ele>570.3333333333333</ele><time>2026-04-18T10:44:57.116Z</time></trkpt><trkpt lat="37.840895" lon="15.1354583"><ele>568.6666666666666</ele><time>2026-04-18T10:44:58.116Z</time></trkpt><trkpt lat="37.8409483" lon="15.1356617"><ele>567.0</ele><time>2026-04-18T10:44:59.116Z</time></trkpt><trkpt lat="37.8410017" lon="15.1358517"><ele>564.0</ele><time>2026-04-18T10:45:00.116Z</time></trkpt><trkpt lat="37.8410533" lon="15.1360433"><ele>561.0</ele><time>2026-04-18T10:45:01.116Z</time></trkpt><trkpt lat="37.84111" lon="15.13623"><ele>558.0</ele><time>2026-04-18T10:45:02.116Z</time></trkpt><trkpt lat="37.8411533" lon="15.1364083"><ele>558.0</ele><time>2026-04-18T10:45:03.116Z</time></trkpt><trkpt lat="37.8412" lon="15.1365767"><ele>558.0</ele><time>2026-04-18T10:45:04.116Z</time></trkpt><trkpt lat="37.8412417" lon="15.136715"><ele>558.0</ele><time>2026-04-18T10:45:05.116Z</time></trkpt><trkpt lat="37.8412717" lon="15.13684"><ele>558.0</ele><time>2026-04-18T10:45:06.116Z</time></trkpt><trkpt lat="37.841305" lon="15.1369583"><ele>558.0</ele><time>2026-04-18T10:45:07.116Z</time></trkpt><trkpt lat="37.8413383" lon="15.1370733"><ele>558.0</ele><time>2026-04-18T10:45:08.116Z</time></trkpt><trkpt lat="37.8413733" lon="15.1371917"><ele>558.0</ele><time>2026-04-18T10:45:09.116Z</time></trkpt><trkpt lat="37.8414083" lon="15.1373"><ele>558.0</ele><time>2026-04-18T10:45:10.116Z</time></trkpt><trkpt lat="37.841445" lon="15.1374133"><ele>558.0</ele><time>2026-04-18T10:45:11.116Z</time></trkpt><trkpt lat="37.8414833" lon="15.1375233"><ele>558.1999999999999</ele><time>2026-04-18T10:45:12.116Z</time></trkpt><trkpt lat="37.84151" lon="15.1376433"><ele>558.4</ele><time>2026-04-18T10:45:13.115Z</time></trkpt><trkpt lat="37.8415367" lon="15.1377717"><ele>558.5999999999999</ele><time>2026-04-18T10:45:14.116Z</time></trkpt><trkpt lat="37.8415683" lon="15.137895"><ele>558.8</ele><time>2026-04-18T10:45:15.116Z</time></trkpt><trkpt lat="37.8416033" lon="15.138015"><ele>559.0</ele><time>2026-04-18T10:45:16.116Z</time></trkpt><trkpt lat="37.8416367" lon="15.1381367"><ele>558.8</ele><time>2026-04-18T10:45:17.116Z</time></trkpt><trkpt lat="37.8416717" lon="15.13826"><ele>558.5999999999999</ele><time>2026-04-18T10:45:18.115Z</time></trkpt><trkpt lat="37.8417133" lon="15.1383917"><ele>558.4</ele><time>2026-04-18T10:45:19.116Z</time></trkpt><trkpt lat="37.8417417" lon="15.1385117"><ele>558.1999999999999</ele><time>2026-04-18T10:45:20.115Z</time></trkpt><trkpt lat="37.8417733" lon="15.1386233"><ele>558.0</ele><time>2026-04-18T10:45:21.116Z</time></trkpt><trkpt lat="37.8418033" lon="15.13874"><ele>557.1999999999999</ele><time>2026-04-18T10:45:22.116Z</time></trkpt><trkpt lat="37.841835" lon="15.1388533"><ele>556.4</ele><time>2026-04-18T10:45:23.115Z</time></trkpt><trkpt lat="37.84187" lon="15.138965"><ele>555.5999999999999</ele><time>2026-04-18T10:45:24.116Z</time></trkpt><trkpt lat="37.8419117" lon="15.1390867"><ele>554.8</ele><time>2026-04-18T10:45:25.116Z</time></trkpt><trkpt lat="37.8419467" lon="15.1392017"><ele>554.0</ele><time>2026-04-18T10:45:26.115Z</time></trkpt><trkpt lat="37.8419833" lon="15.1393133"><ele>553.8333333333333</ele><time>2026-04-18T10:45:27.116Z</time></trkpt><trkpt lat="37.8420167" lon="15.1394217"><ele>553.6666666666666</ele><time>2026-04-18T10:45:28.116Z</time></trkpt><trkpt lat="37.8420467" lon="15.139535"><ele>553.5</ele><time>2026-04-18T10:45:29.116Z</time></trkpt><trkpt lat="37.842075" lon="15.1396383"><ele>553.3333333333334</ele><time>2026-04-18T10:45:30.116Z</time></trkpt><trkpt lat="37.8421017" lon="15.1397333"><ele>553.1666666666667</ele><time>2026-04-18T10:45:31.116Z</time></trkpt><trkpt lat="37.8421317" lon="15.1398333"><ele>553.0</ele><time>2026-04-18T10:45:32.116Z</time></trkpt><trkpt lat="37.8421533" lon="15.139925"><ele>552.8333333333334</ele><time>2026-04-18T10:45:33.116Z</time></trkpt><trkpt lat="37.8421733" lon="15.140015"><ele>552.6666666666667</ele><time>2026-04-18T10:45:34.116Z</time></trkpt><trkpt lat="37.8421883" lon="15.1400933"><ele>552.5</ele><time>2026-04-18T10:45:35.116Z</time></trkpt><trkpt lat="37.8422233" lon="15.1402367"><ele>552.3333333333334</ele><time>2026-04-18T10:45:37.116Z</time></trkpt><trkpt lat="37.84225" lon="15.140315"><ele>552.1666666666666</ele><time>2026-04-18T10:45:38.116Z</time></trkpt><trkpt lat="37.8422817" lon="15.140405"><ele>552.0</ele><time>2026-04-18T10:45:39.116Z</time></trkpt><trkpt lat="37.8423117" lon="15.14051"><ele>552.0</ele><time>2026-04-18T10:45:40.116Z</time></trkpt><trkpt lat="37.8423467" lon="15.1406267"><ele>552.0</ele><time>2026-04-18T10:45:41.116Z</time></trkpt><trkpt lat="37.8423783" lon="15.1407433"><ele>552.0</ele><time>2026-04-18T10:45:42.115Z</time></trkpt><trkpt lat="37.8424167" lon="15.1408617"><ele>552.0</ele><time>2026-04-18T10:45:43.116Z</time></trkpt><trkpt lat="37.84245" lon="15.140975"><ele>552.0</ele><time>2026-04-18T10:45:44.116Z</time></trkpt><trkpt lat="37.8424867" lon="15.1410867"><ele>551.5</ele><time>2026-04-18T10:45:45.116Z</time></trkpt><trkpt lat="37.8425183" lon="15.1411883"><ele>551.0</ele><time>2026-04-18T10:45:46.116Z</time></trkpt><trkpt lat="37.8425333" lon="15.1412917"><ele>550.5</ele><time>2026-04-18T10:45:47.116Z</time></trkpt><trkpt lat="37.84256" lon="15.14139"><ele>550.0</ele><time>2026-04-18T10:45:48.116Z</time></trkpt><trkpt lat="37.8425817" lon="15.1414783"><ele>549.5</ele><time>2026-04-18T10:45:49.116Z</time></trkpt><trkpt lat="37.8425983" lon="15.1415583"><ele>549.0</ele><time>2026-04-18T10:45:50.116Z</time></trkpt><trkpt lat="37.8426283" lon="15.141675"><ele>548.1666666666666</ele><time>2026-04-18T10:45:52.115Z</time></trkpt><trkpt lat="37.8426483" lon="15.14176"><ele>547.3333333333334</ele><time>2026-04-18T10:45:55.116Z</time></trkpt><trkpt lat="37.84268" lon="15.14185"><ele>546.5</ele><time>2026-04-18T10:45:59.116Z</time></trkpt><trkpt lat="37.8426333" lon="15.141935"><ele>545.6666666666667</ele><time>2026-04-18T10:46:02.116Z</time></trkpt><trkpt lat="37.8425217" lon="15.1420283"><ele>544.8333333333334</ele><time>2026-04-18T10:46:04.116Z</time></trkpt><trkpt lat="37.8424633" lon="15.14209"><ele>544.0</ele><time>2026-04-18T10:46:05.116Z</time></trkpt><trkpt lat="37.8424067" lon="15.1421367"><ele>543.9999999999999</ele><time>2026-04-18T10:46:06.116Z</time></trkpt><trkpt lat="37.8423533" lon="15.1421883"><ele>544.0</ele><time>2026-04-18T10:46:07.116Z</time></trkpt><trkpt lat="37.8423" lon="15.142245"><ele>544.0</ele><time>2026-04-18T10:46:08.116Z</time></trkpt><trkpt lat="37.8422483" lon="15.142305"><ele>544.0</ele><time>2026-04-18T10:46:09.116Z</time></trkpt><trkpt lat="37.8421967" lon="15.1423633"><ele>544.0</ele><time>2026-04-18T10:46:10.116Z</time></trkpt><trkpt lat="37.8421433" lon="15.1424217"><ele>543.9999999999999</ele><time>2026-04-18T10:46:11.116Z</time></trkpt><trkpt lat="37.8420917" lon="15.1424883"><ele>544.0</ele><time>2026-04-18T10:46:12.115Z</time></trkpt><trkpt lat="37.8420367" lon="15.1425517"><ele>543.8333333333334</ele><time>2026-04-18T10:46:13.116Z</time></trkpt><trkpt lat="37.8419783" lon="15.142605"><ele>543.6666666666667</ele><time>2026-04-18T10:46:14.116Z</time></trkpt><trkpt lat="37.84192" lon="15.1426467"><ele>543.5</ele><time>2026-04-18T10:46:15.116Z</time></trkpt><trkpt lat="37.8418617" lon="15.14269"><ele>543.3333333333334</ele><time>2026-04-18T10:46:16.116Z</time></trkpt><trkpt lat="37.8417833" lon="15.14279"><ele>543.1666666666666</ele><time>2026-04-18T10:46:18.116Z</time></trkpt><trkpt lat="37.8417183" lon="15.1428567"><ele>543.0</ele><time>2026-04-18T10:46:20.115Z</time></trkpt><trkpt lat="37.841655" lon="15.1429067"><ele>543.0</ele><time>2026-04-18T10:46:22.116Z</time></trkpt><trkpt lat="37.8416" lon="15.1429567"><ele>543.0</ele><time>2026-04-18T10:46:24.115Z</time></trkpt><trkpt lat="37.8415483" lon="15.14301"><ele>543.0</ele><time>2026-04-18T10:46:26.116Z</time></trkpt><trkpt lat="37.8414883" lon="15.143085"><ele>543.0</ele><time>2026-04-18T10:46:28.116Z</time></trkpt><trkpt lat="37.8414333" lon="15.1431633"><ele>543.0</ele><time>2026-04-18T10:46:30.116Z</time></trkpt><trkpt lat="37.841375" lon="15.1432667"><ele>543.0</ele><time>2026-04-18T10:46:32.116Z</time></trkpt><trkpt lat="37.8413117" lon="15.1433617"><ele>542.5</ele><time>2026-04-18T10:46:34.116Z</time></trkpt><trkpt lat="37.841255" lon="15.14345"><ele>542.0</ele><time>2026-04-18T10:46:36.116Z</time></trkpt><trkpt lat="37.8412033" lon="15.1435267"><ele>541.5</ele><time>2026-04-18T10:46:38.116Z</time></trkpt><trkpt lat="37.8411567" lon="15.1435967"><ele>541.0</ele><time>2026-04-18T10:46:40.116Z</time></trkpt><trkpt lat="37.84111" lon="15.14367"><ele>540.5</ele><time>2026-04-18T10:46:42.116Z</time></trkpt><trkpt lat="37.8410617" lon="15.1437383"><ele>540.0</ele><time>2026-04-18T10:46:44.116Z</time></trkpt><trkpt lat="37.8410183" lon="15.1437967"><ele>540.0</ele><time>2026-04-18T10:46:46.116Z</time></trkpt><trkpt lat="37.8409633" lon="15.14387"><ele>540.0</ele><time>2026-04-18T10:46:59.116Z</time></trkpt><trkpt lat="37.8409067" lon="15.14395"><ele>540.0</ele><time>2026-04-18T10:47:01.116Z</time></trkpt><trkpt lat="37.8408483" lon="15.1440467"><ele>540.0</ele><time>2026-04-18T10:47:03.116Z</time></trkpt><trkpt lat="37.8407983" lon="15.1441333"><ele>540.0</ele><time>2026-04-18T10:47:05.116Z</time></trkpt><trkpt lat="37.8407417" lon="15.1442083"><ele>540.0</ele><time>2026-04-18T10:47:07.116Z</time></trkpt><trkpt lat="37.8406917" lon="15.14428"><ele>539.6666666666666</ele><time>2026-04-18T10:47:09.116Z</time></trkpt><trkpt lat="37.8406383" lon="15.1443333"><ele>539.3333333333334</ele><time>2026-04-18T10:47:11.116Z</time></trkpt><trkpt lat="37.8405667" lon="15.1443717"><ele>539.0</ele><time>2026-04-18T10:47:14.116Z</time></trkpt><trkpt lat="37.8405083" lon="15.144405"><ele>538.6666666666667</ele><time>2026-04-18T10:47:16.116Z</time></trkpt><trkpt lat="37.8404383" lon="15.1444267"><ele>538.3333333333334</ele><time>2026-04-18T10:47:18.116Z</time></trkpt><trkpt lat="37.8403633" lon="15.1444483"><ele>538.0</ele><time>2026-04-18T10:47:20.116Z</time></trkpt><trkpt lat="37.8402467" lon="15.1444817"><ele>538.0</ele><time>2026-04-18T10:47:22.115Z</time></trkpt><trkpt lat="37.840185" lon="15.1444983"><ele>538.0</ele><time>2026-04-18T10:47:23.116Z</time></trkpt><trkpt lat="37.8400767" lon="15.1445283"><ele>538.0</ele><time>2026-04-18T10:47:25.116Z</time></trkpt><trkpt lat="37.839975" lon="15.1445467"><ele>538.0</ele><time>2026-04-18T10:47:27.116Z</time></trkpt><trkpt lat="37.839885" lon="15.14458"><ele>538.0</ele><time>2026-04-18T10:47:29.116Z</time></trkpt><trkpt lat="37.8397567" lon="15.1446167"><ele>537.8333333333334</ele><time>2026-04-18T10:47:31.116Z</time></trkpt><trkpt lat="37.83967" lon="15.144625"><ele>537.6666666666667</ele><time>2026-04-18T10:47:32.116Z</time></trkpt><trkpt lat="37.8395833" lon="15.14463"><ele>537.5</ele><time>2026-04-18T10:47:33.116Z</time></trkpt><trkpt lat="37.839505" lon="15.1446317"><ele>537.3333333333334</ele><time>2026-04-18T10:47:34.116Z</time></trkpt><trkpt lat="37.8394283" lon="15.14463"><ele>537.1666666666666</ele><time>2026-04-18T10:47:35.116Z</time></trkpt><trkpt lat="37.8393583" lon="15.1446417"><ele>537.0</ele><time>2026-04-18T10:47:36.116Z</time></trkpt><trkpt lat="37.8392833" lon="15.1446567"><ele>536.6666666666666</ele><time>2026-04-18T10:47:37.116Z</time></trkpt><trkpt lat="37.8392167" lon="15.1446683"><ele>536.3333333333334</ele><time>2026-04-18T10:47:38.116Z</time></trkpt><trkpt lat="37.8390967" lon="15.144685"><ele>536.0</ele><time>2026-04-18T10:47:40.115Z</time></trkpt><trkpt lat="37.8389717" lon="15.1447017"><ele>535.6666666666667</ele><time>2026-04-18T10:47:42.116Z</time></trkpt><trkpt lat="37.8389067" lon="15.1447083"><ele>535.3333333333334</ele><time>2026-04-18T10:47:43.116Z</time></trkpt><trkpt lat="37.83884" lon="15.14472"><ele>535.0</ele><time>2026-04-18T10:47:44.116Z</time></trkpt><trkpt lat="37.8387633" lon="15.1447333"><ele>535.0</ele><time>2026-04-18T10:47:45.116Z</time></trkpt><trkpt lat="37.8386833" lon="15.1447467"><ele>535.0</ele><time>2026-04-18T10:47:46.116Z</time></trkpt><trkpt lat="37.8386117" lon="15.144755"><ele>535.0</ele><time>2026-04-18T10:47:47.116Z</time></trkpt><trkpt lat="37.83854" lon="15.144755"><ele>535.0</ele><time>2026-04-18T10:47:48.116Z</time></trkpt><trkpt lat="37.838415" lon="15.1447583"><ele>535.0</ele><time>2026-04-18T10:47:50.116Z</time></trkpt><trkpt lat="37.8383017" lon="15.14477"><ele>535.0</ele><time>2026-04-18T10:47:52.116Z</time></trkpt><trkpt lat="37.83823" lon="15.1447767"><ele>535.0</ele><time>2026-04-18T10:47:53.116Z</time></trkpt><trkpt lat="37.8381333" lon="15.1447683"><ele>535.0</ele><time>2026-04-18T10:47:54.116Z</time></trkpt><trkpt lat="37.838" lon="15.1447667"><ele>535.0</ele><time>2026-04-18T10:47:55.116Z</time></trkpt><trkpt lat="37.837845" lon="15.144755"><ele>535.0</ele><time>2026-04-18T10:47:56.116Z</time></trkpt><trkpt lat="37.8376683" lon="15.1447417"><ele>535.0</ele><time>2026-04-18T10:47:57.116Z</time></trkpt><trkpt lat="37.83752" lon="15.1447183"><ele>535.0</ele><time>2026-04-18T10:47:58.116Z</time></trkpt><trkpt lat="37.8373833" lon="15.1446983"><ele>534.5</ele><time>2026-04-18T10:47:59.116Z</time></trkpt><trkpt lat="37.8372683" lon="15.1446667"><ele>534.0</ele><time>2026-04-18T10:48:00.116Z</time></trkpt><trkpt lat="37.8371633" lon="15.1446267"><ele>533.5</ele><time>2026-04-18T10:48:01.116Z</time></trkpt><trkpt lat="37.83705" lon="15.1445883"><ele>533.0</ele><time>2026-04-18T10:48:02.116Z</time></trkpt><trkpt lat="37.8369467" lon="15.1445267"><ele>533.0</ele><time>2026-04-18T10:48:03.116Z</time></trkpt><trkpt lat="37.8368317" lon="15.1444333"><ele>533.0</ele><time>2026-04-18T10:48:04.116Z</time></trkpt><trkpt lat="37.8367267" lon="15.1443533"><ele>533.0</ele><time>2026-04-18T10:48:05.116Z</time></trkpt><trkpt lat="37.8366283" lon="15.14428"><ele>533.0</ele><time>2026-04-18T10:48:06.116Z</time></trkpt><trkpt lat="37.836535" lon="15.1441967"><ele>532.0</ele><time>2026-04-18T10:48:07.116Z</time></trkpt><trkpt lat="37.8364433" lon="15.1441"><ele>531.0</ele><time>2026-04-18T10:48:08.116Z</time></trkpt><trkpt lat="37.8363383" lon="15.14401"><ele>530.0</ele><time>2026-04-18T10:48:09.116Z</time></trkpt><trkpt lat="37.8362317" lon="15.1439183"><ele>529.0</ele><time>2026-04-18T10:48:10.116Z</time></trkpt><trkpt lat="37.8361233" lon="15.143845"><ele>529.0</ele><time>2026-04-18T10:48:11.116Z</time></trkpt><trkpt lat="37.8360083" lon="15.1437733"><ele>529.0</ele><time>2026-04-18T10:48:12.116Z</time></trkpt><trkpt lat="37.8358817" lon="15.1437317"><ele>529.0</ele><time>2026-04-18T10:48:13.116Z</time></trkpt><trkpt lat="37.8357517" lon="15.1437083"><ele>529.0</ele><time>2026-04-18T10:48:14.116Z</time></trkpt><trkpt lat="37.8356233" lon="15.143685"><ele>528.0</ele><time>2026-04-18T10:48:15.116Z</time></trkpt><trkpt lat="37.8354917" lon="15.1436767"><ele>527.0</ele><time>2026-04-18T10:48:16.116Z</time></trkpt><trkpt lat="37.835375" lon="15.143665"><ele>526.0</ele><time>2026-04-18T10:48:17.116Z</time></trkpt><trkpt lat="37.8352583" lon="15.1436583"><ele>525.0</ele><time>2026-04-18T10:48:18.116Z</time></trkpt><trkpt lat="37.8351433" lon="15.1436667"><ele>524.0</ele><time>2026-04-18T10:48:19.116Z</time></trkpt><trkpt lat="37.8350283" lon="15.1436867"><ele>523.0</ele><time>2026-04-18T10:48:20.116Z</time></trkpt><trkpt lat="37.8349167" lon="15.143725"><ele>522.0</ele><time>2026-04-18T10:48:21.116Z</time></trkpt><trkpt lat="37.83481" lon="15.143775"><ele>521.0</ele><time>2026-04-18T10:48:22.116Z</time></trkpt><trkpt lat="37.8347067" lon="15.14384"><ele>521.0</ele><time>2026-04-18T10:48:23.116Z</time></trkpt><trkpt lat="37.8345983" lon="15.143905"><ele>521.0</ele><time>2026-04-18T10:48:24.116Z</time></trkpt><trkpt lat="37.83449" lon="15.1439667"><ele>521.0</ele><time>2026-04-18T10:48:25.116Z</time></trkpt><trkpt lat="37.8343717" lon="15.1440267"><ele>521.0</ele><time>2026-04-18T10:48:26.116Z</time></trkpt><trkpt lat="37.8342633" lon="15.1440833"><ele>520.25</ele><time>2026-04-18T10:48:27.116Z</time></trkpt><trkpt lat="37.8341583" lon="15.14413"><ele>519.5</ele><time>2026-04-18T10:48:28.116Z</time></trkpt><trkpt lat="37.8340483" lon="15.1441633"><ele>518.75</ele><time>2026-04-18T10:48:29.116Z</time></trkpt><trkpt lat="37.8339317" lon="15.1442017"><ele>518.0</ele><time>2026-04-18T10:48:30.116Z</time></trkpt><trkpt lat="37.83381" lon="15.1442333"><ele>518.0</ele><time>2026-04-18T10:48:31.116Z</time></trkpt><trkpt lat="37.8336967" lon="15.14426"><ele>518.0</ele><time>2026-04-18T10:48:32.116Z</time></trkpt><trkpt lat="37.833585" lon="15.144295"><ele>518.0</ele><time>2026-04-18T10:48:33.116Z</time></trkpt><trkpt lat="37.83347" lon="15.1443317"><ele>518.0</ele><time>2026-04-18T10:48:34.116Z</time></trkpt><trkpt lat="37.8333717" lon="15.1443783"><ele>517.0</ele><time>2026-04-18T10:48:35.116Z</time></trkpt><trkpt lat="37.833275" lon="15.144415"><ele>516.0</ele><time>2026-04-18T10:48:36.116Z</time></trkpt><trkpt lat="37.8331817" lon="15.1444467"><ele>515.0</ele><time>2026-04-18T10:48:37.116Z</time></trkpt><trkpt lat="37.8330867" lon="15.144455"><ele>514.0</ele><time>2026-04-18T10:48:38.116Z</time></trkpt><trkpt lat="37.833" lon="15.14443"><ele>513.0</ele><time>2026-04-18T10:48:39.116Z</time></trkpt><trkpt lat="37.832915" lon="15.1444"><ele>513.0</ele><time>2026-04-18T10:48:40.116Z</time></trkpt><trkpt lat="37.8328283" lon="15.1443583"><ele>513.0</ele><time>2026-04-18T10:48:41.116Z</time></trkpt><trkpt lat="37.8327417" lon="15.14433"><ele>513.0</ele><time>2026-04-18T10:48:42.116Z</time></trkpt><trkpt lat="37.8326533" lon="15.14433"><ele>513.0</ele><time>2026-04-18T10:48:43.116Z</time></trkpt><trkpt lat="37.832565" lon="15.1443517"><ele>513.0</ele><time>2026-04-18T10:48:44.116Z</time></trkpt><trkpt lat="37.832475" lon="15.14438"><ele>513.1999999999999</ele><time>2026-04-18T10:48:45.116Z</time></trkpt><trkpt lat="37.8323817" lon="15.14441"><ele>513.4</ele><time>2026-04-18T10:48:46.116Z</time></trkpt><trkpt lat="37.8322817" lon="15.1444383"><ele>513.5999999999999</ele><time>2026-04-18T10:48:47.116Z</time></trkpt><trkpt lat="37.8321783" lon="15.1444783"><ele>513.8</ele><time>2026-04-18T10:48:48.116Z</time></trkpt><trkpt lat="37.8320717" lon="15.144505"><ele>514.0</ele><time>2026-04-18T10:48:49.116Z</time></trkpt><trkpt lat="37.8319717" lon="15.1445467"><ele>514.0</ele><time>2026-04-18T10:48:50.116Z</time></trkpt><trkpt lat="37.8318633" lon="15.1445867"><ele>514.0</ele><time>2026-04-18T10:48:51.116Z</time></trkpt><trkpt lat="37.8317583" lon="15.1446233"><ele>514.0</ele><time>2026-04-18T10:48:52.116Z</time></trkpt><trkpt lat="37.831645" lon="15.1446533"><ele>514.0</ele><time>2026-04-18T10:48:53.116Z</time></trkpt><trkpt lat="37.8315283" lon="15.1446867"><ele>515.25</ele><time>2026-04-18T10:48:54.116Z</time></trkpt><trkpt lat="37.8314117" lon="15.14472"><ele>516.5</ele><time>2026-04-18T10:48:55.116Z</time></trkpt><trkpt lat="37.83129" lon="15.1447567"><ele>517.75</ele><time>2026-04-18T10:48:56.116Z</time></trkpt><trkpt lat="37.83118" lon="15.1447917"><ele>519.0</ele><time>2026-04-18T10:48:57.116Z</time></trkpt><trkpt lat="37.8310683" lon="15.1448183"><ele>518.5</ele><time>2026-04-18T10:48:58.116Z</time></trkpt><trkpt lat="37.8309467" lon="15.14484"><ele>518.0</ele><time>2026-04-18T10:48:59.116Z</time></trkpt><trkpt lat="37.8308217" lon="15.144875"><ele>517.5</ele><time>2026-04-18T10:49:00.116Z</time></trkpt><trkpt lat="37.8306967" lon="15.1449067"><ele>517.0</ele><time>2026-04-18T10:49:01.116Z</time></trkpt><trkpt lat="37.8305783" lon="15.1449367"><ele>516.75</ele><time>2026-04-18T10:49:02.116Z</time></trkpt><trkpt lat="37.8304633" lon="15.1449633"><ele>516.5</ele><time>2026-04-18T10:49:03.116Z</time></trkpt><trkpt lat="37.830345" lon="15.145005"><ele>516.25</ele><time>2026-04-18T10:49:04.115Z</time></trkpt><trkpt lat="37.830225" lon="15.1450417"><ele>516.0</ele><time>2026-04-18T10:49:05.115Z</time></trkpt><trkpt lat="37.8301033" lon="15.145095"><ele>514.75</ele><time>2026-04-18T10:49:06.116Z</time></trkpt><trkpt lat="37.829985" lon="15.1451617"><ele>513.5</ele><time>2026-04-18T10:49:07.116Z</time></trkpt><trkpt lat="37.829865" lon="15.1452367"><ele>512.25</ele><time>2026-04-18T10:49:08.115Z</time></trkpt><trkpt lat="37.8297483" lon="15.145305"><ele>511.0</ele><time>2026-04-18T10:49:09.116Z</time></trkpt><trkpt lat="37.8296317" lon="15.145385"><ele>511.0</ele><time>2026-04-18T10:49:10.115Z</time></trkpt><trkpt lat="37.8294967" lon="15.1454567"><ele>511.0</ele><time>2026-04-18T10:49:11.115Z</time></trkpt><trkpt lat="37.8293567" lon="15.1455283"><ele>511.0</ele><time>2026-04-18T10:49:12.116Z</time></trkpt><trkpt lat="37.8292183" lon="15.1456017"><ele>511.0</ele><time>2026-04-18T10:49:13.116Z</time></trkpt><trkpt lat="37.8290867" lon="15.1456583"><ele>509.25</ele><time>2026-04-18T10:49:14.116Z</time></trkpt><trkpt lat="37.8289533" lon="15.14572"><ele>507.5</ele><time>2026-04-18T10:49:15.116Z</time></trkpt><trkpt lat="37.8288167" lon="15.1457867"><ele>505.75</ele><time>2026-04-18T10:49:16.116Z</time></trkpt><trkpt lat="37.8286817" lon="15.1458667"><ele>504.0</ele><time>2026-04-18T10:49:17.116Z</time></trkpt><trkpt lat="37.8285617" lon="15.14594"><ele>504.25</ele><time>2026-04-18T10:49:18.116Z</time></trkpt><trkpt lat="37.82845" lon="15.14603"><ele>504.5</ele><time>2026-04-18T10:49:19.116Z</time></trkpt><trkpt lat="37.8283383" lon="15.1461283"><ele>504.75</ele><time>2026-04-18T10:49:20.116Z</time></trkpt><trkpt lat="37.8282317" lon="15.1462267"><ele>505.0</ele><time>2026-04-18T10:49:21.116Z</time></trkpt><trkpt lat="37.82812" lon="15.14633"><ele>505.0</ele><time>2026-04-18T10:49:22.116Z</time></trkpt><trkpt lat="37.8280067" lon="15.146415"><ele>505.0</ele><time>2026-04-18T10:49:23.116Z</time></trkpt><trkpt lat="37.82789" lon="15.146495"><ele>505.0</ele><time>2026-04-18T10:49:24.116Z</time></trkpt><trkpt lat="37.8277783" lon="15.1465717"><ele>505.0</ele><time>2026-04-18T10:49:25.116Z</time></trkpt><trkpt lat="37.827675" lon="15.1466317"><ele>504.0</ele><time>2026-04-18T10:49:26.116Z</time></trkpt><trkpt lat="37.82757" lon="15.146685"><ele>503.0</ele><time>2026-04-18T10:49:27.116Z</time></trkpt><trkpt lat="37.8274767" lon="15.146735"><ele>502.0</ele><time>2026-04-18T10:49:28.116Z</time></trkpt><trkpt lat="37.8274033" lon="15.1467883"><ele>501.0</ele><time>2026-04-18T10:49:29.116Z</time></trkpt><trkpt lat="37.8273117" lon="15.1468417"><ele>500.0</ele><time>2026-04-18T10:49:31.116Z</time></trkpt><trkpt lat="37.8272017" lon="15.1469267"><ele>500.0</ele><time>2026-04-18T10:51:17.116Z</time></trkpt><trkpt lat="37.8271283" lon="15.147065"><ele>500.0</ele><time>2026-04-18T10:51:19.116Z</time></trkpt><trkpt lat="37.8270833" lon="15.147145"><ele>500.0</ele><time>2026-04-18T10:51:20.115Z</time></trkpt><trkpt lat="37.8270233" lon="15.1472333"><ele>500.0</ele><time>2026-04-18T10:51:21.116Z</time></trkpt><trkpt lat="37.8269483" lon="15.1473283"><ele>500.0</ele><time>2026-04-18T10:51:22.116Z</time></trkpt><trkpt lat="37.8268717" lon="15.1474333"><ele>499.5</ele><time>2026-04-18T10:51:23.116Z</time></trkpt><trkpt lat="37.8267767" lon="15.1475233"><ele>499.0</ele><time>2026-04-18T10:51:24.116Z</time></trkpt><trkpt lat="37.8266783" lon="15.1476283"><ele>498.5</ele><time>2026-04-18T10:51:25.116Z</time></trkpt><trkpt lat="37.8265717" lon="15.1477383"><ele>498.0</ele><time>2026-04-18T10:51:26.115Z</time></trkpt><trkpt lat="37.8264583" lon="15.14785"><ele>498.0</ele><time>2026-04-18T10:51:27.116Z</time></trkpt><trkpt lat="37.8263417" lon="15.14797"><ele>498.0</ele><time>2026-04-18T10:51:28.116Z</time></trkpt><trkpt lat="37.82623" lon="15.1481083"><ele>498.0</ele><time>2026-04-18T10:51:29.116Z</time></trkpt><trkpt lat="37.82611" lon="15.148245"><ele>498.33333333333337</ele><time>2026-04-18T10:51:30.115Z</time></trkpt><trkpt lat="37.8259767" lon="15.1483717"><ele>498.6666666666667</ele><time>2026-04-18T10:51:31.116Z</time></trkpt><trkpt lat="37.8258417" lon="15.148495"><ele>499.0</ele><time>2026-04-18T10:51:32.116Z</time></trkpt><trkpt lat="37.8257117" lon="15.1486283"><ele>499.0</ele><time>2026-04-18T10:51:33.116Z</time></trkpt><trkpt lat="37.825575" lon="15.1487533"><ele>499.0</ele><time>2026-04-18T10:51:34.116Z</time></trkpt><trkpt lat="37.8254433" lon="15.148875"><ele>499.0</ele><time>2026-04-18T10:51:35.116Z</time></trkpt><trkpt lat="37.8253283" lon="15.1490017"><ele>498.6666666666667</ele><time>2026-04-18T10:51:36.115Z</time></trkpt><trkpt lat="37.8252017" lon="15.1491133"><ele>498.33333333333337</ele><time>2026-04-18T10:51:37.116Z</time></trkpt><trkpt lat="37.8250817" lon="15.14923"><ele>498.0</ele><time>2026-04-18T10:51:38.116Z</time></trkpt><trkpt lat="37.8249733" lon="15.14935"><ele>498.0</ele><time>2026-04-18T10:51:39.116Z</time></trkpt><trkpt lat="37.8248867" lon="15.1495017"><ele>498.0</ele><time>2026-04-18T10:51:40.116Z</time></trkpt><trkpt lat="37.8247883" lon="15.1496767"><ele>498.0</ele><time>2026-04-18T10:51:41.116Z</time></trkpt><trkpt lat="37.82469" lon="15.14985"><ele>497.66666666666663</ele><time>2026-04-18T10:51:42.116Z</time></trkpt><trkpt lat="37.82461" lon="15.15004"><ele>497.3333333333333</ele><time>2026-04-18T10:51:43.116Z</time></trkpt><trkpt lat="37.8245167" lon="15.15022"><ele>497.0</ele><time>2026-04-18T10:51:44.116Z</time></trkpt><trkpt lat="37.8244283" lon="15.1504"><ele>497.0</ele><time>2026-04-18T10:51:45.116Z</time></trkpt><trkpt lat="37.824345" lon="15.1505867"><ele>497.0</ele><time>2026-04-18T10:51:46.116Z</time></trkpt><trkpt lat="37.824255" lon="15.1507617"><ele>497.0</ele><time>2026-04-18T10:51:47.116Z</time></trkpt><trkpt lat="37.8241683" lon="15.1509383"><ele>496.66666666666663</ele><time>2026-04-18T10:51:48.116Z</time></trkpt><trkpt lat="37.82409" lon="15.1511033"><ele>496.33333333333337</ele><time>2026-04-18T10:51:49.116Z</time></trkpt><trkpt lat="37.8240083" lon="15.151265"><ele>496.0</ele><time>2026-04-18T10:51:50.116Z</time></trkpt><trkpt lat="37.823925" lon="15.151435"><ele>495.0</ele><time>2026-04-18T10:51:51.116Z</time></trkpt><trkpt lat="37.8238433" lon="15.15161"><ele>494.0</ele><time>2026-04-18T10:51:52.116Z</time></trkpt><trkpt lat="37.8237517" lon="15.15179"><ele>493.0</ele><time>2026-04-18T10:51:53.116Z</time></trkpt><trkpt lat="37.8236683" lon="15.1519733"><ele>493.0</ele><time>2026-04-18T10:51:54.116Z</time></trkpt><trkpt lat="37.8235733" lon="15.1521617"><ele>493.0</ele><time>2026-04-18T10:51:55.115Z</time></trkpt><trkpt lat="37.8234867" lon="15.152345"><ele>493.0</ele><time>2026-04-18T10:51:56.116Z</time></trkpt><trkpt lat="37.8233967" lon="15.15251"><ele>493.33333333333337</ele><time>2026-04-18T10:51:57.116Z</time></trkpt><trkpt lat="37.8233117" lon="15.15268"><ele>493.66666666666663</ele><time>2026-04-18T10:51:58.116Z</time></trkpt><trkpt lat="37.8232367" lon="15.1528433"><ele>494.0</ele><time>2026-04-18T10:51:59.116Z</time></trkpt><trkpt lat="37.8231833" lon="15.1530183"><ele>494.66666666666663</ele><time>2026-04-18T10:52:00.116Z</time></trkpt><trkpt lat="37.8231467" lon="15.1532167"><ele>495.33333333333337</ele><time>2026-04-18T10:52:01.116Z</time></trkpt><trkpt lat="37.8231167" lon="15.1534283"><ele>496.0</ele><time>2026-04-18T10:52:02.116Z</time></trkpt><trkpt lat="37.8231" lon="15.1536567"><ele>496.0</ele><time>2026-04-18T10:52:03.116Z</time></trkpt><trkpt lat="37.82308" lon="15.15388"><ele>496.0</ele><time>2026-04-18T10:52:04.116Z</time></trkpt><trkpt lat="37.8230583" lon="15.1541083"><ele>496.0</ele><time>2026-04-18T10:52:05.116Z</time></trkpt><trkpt lat="37.8230333" lon="15.1543367"><ele>495.0</ele><time>2026-04-18T10:52:06.116Z</time></trkpt><trkpt lat="37.82301" lon="15.154565"><ele>494.0</ele><time>2026-04-18T10:52:07.116Z</time></trkpt><trkpt lat="37.8229867" lon="15.1547867"><ele>493.0</ele><time>2026-04-18T10:52:08.116Z</time></trkpt><trkpt lat="37.8229633" lon="15.1549967"><ele>491.6666666666667</ele><time>2026-04-18T10:52:09.116Z</time></trkpt><trkpt lat="37.822945" lon="15.1551967"><ele>490.33333333333337</ele><time>2026-04-18T10:52:10.116Z</time></trkpt><trkpt lat="37.8229283" lon="15.1553933"><ele>489.0</ele><time>2026-04-18T10:52:11.115Z</time></trkpt><trkpt lat="37.8229033" lon="15.1555817"><ele>488.75</ele><time>2026-04-18T10:52:12.116Z</time></trkpt><trkpt lat="37.8228783" lon="15.1557567"><ele>488.5</ele><time>2026-04-18T10:52:13.116Z</time></trkpt><trkpt lat="37.8228333" lon="15.1559283"><ele>488.25</ele><time>2026-04-18T10:52:14.116Z</time></trkpt><trkpt lat="37.8227567" lon="15.1560967"><ele>488.0</ele><time>2026-04-18T10:52:15.116Z</time></trkpt><trkpt lat="37.822675" lon="15.1562583"><ele>488.0</ele><time>2026-04-18T10:52:16.116Z</time></trkpt><trkpt lat="37.8225767" lon="15.15642"><ele>488.0</ele><time>2026-04-18T10:52:17.116Z</time></trkpt><trkpt lat="37.8224817" lon="15.156585"><ele>488.0</ele><time>2026-04-18T10:52:18.116Z</time></trkpt><trkpt lat="37.8223933" lon="15.156755"><ele>487.0</ele><time>2026-04-18T10:52:19.116Z</time></trkpt><trkpt lat="37.8223083" lon="15.1569083"><ele>486.0</ele><time>2026-04-18T10:52:20.116Z</time></trkpt><trkpt lat="37.8222167" lon="15.1570667"><ele>485.0</ele><time>2026-04-18T10:52:21.116Z</time></trkpt><trkpt lat="37.8221017" lon="15.1571917"><ele>485.0</ele><time>2026-04-18T10:52:22.116Z</time></trkpt><trkpt lat="37.8219783" lon="15.1573"><ele>485.0</ele><time>2026-04-18T10:52:23.116Z</time></trkpt><trkpt lat="37.8218367" lon="15.1573883"><ele>485.0</ele><time>2026-04-18T10:52:24.115Z</time></trkpt><trkpt lat="37.8216783" lon="15.1574767"><ele>482.66666666666663</ele><time>2026-04-18T10:52:25.116Z</time></trkpt><trkpt lat="37.8215317" lon="15.1575717"><ele>480.33333333333337</ele><time>2026-04-18T10:52:26.116Z</time></trkpt><trkpt lat="37.8213883" lon="15.1576733"><ele>478.0</ele><time>2026-04-18T10:52:27.116Z</time></trkpt><trkpt lat="37.821245" lon="15.15778"><ele>478.0</ele><time>2026-04-18T10:52:28.115Z</time></trkpt><trkpt lat="37.821095" lon="15.157875"><ele>478.0</ele><time>2026-04-18T10:52:29.116Z</time></trkpt><trkpt lat="37.820965" lon="15.157975"><ele>478.0</ele><time>2026-04-18T10:52:30.116Z</time></trkpt><trkpt lat="37.8208283" lon="15.1580767"><ele>477.0</ele><time>2026-04-18T10:52:31.116Z</time></trkpt><trkpt lat="37.8207067" lon="15.1581817"><ele>476.0</ele><time>2026-04-18T10:52:32.116Z</time></trkpt><trkpt lat="37.82058" lon="15.15827"><ele>475.0</ele><time>2026-04-18T10:52:33.116Z</time></trkpt><trkpt lat="37.8204667" lon="15.1583567"><ele>474.0</ele><time>2026-04-18T10:52:34.116Z</time></trkpt><trkpt lat="37.8203417" lon="15.1584383"><ele>473.5</ele><time>2026-04-18T10:52:35.116Z</time></trkpt><trkpt lat="37.8202267" lon="15.158525"><ele>473.0</ele><time>2026-04-18T10:52:36.116Z</time></trkpt><trkpt lat="37.82011" lon="15.1586"><ele>472.5</ele><time>2026-04-18T10:52:37.115Z</time></trkpt><trkpt lat="37.8199783" lon="15.158685"><ele>472.0</ele><time>2026-04-18T10:52:38.116Z</time></trkpt><trkpt lat="37.819835" lon="15.1587417"><ele>471.25</ele><time>2026-04-18T10:52:39.116Z</time></trkpt><trkpt lat="37.8196883" lon="15.1587967"><ele>470.5</ele><time>2026-04-18T10:52:40.115Z</time></trkpt><trkpt lat="37.819545" lon="15.1588333"><ele>469.75</ele><time>2026-04-18T10:52:41.116Z</time></trkpt><trkpt lat="37.8194" lon="15.15888"><ele>469.0</ele><time>2026-04-18T10:52:42.116Z</time></trkpt><trkpt lat="37.8192633" lon="15.1589317"><ele>467.0</ele><time>2026-04-18T10:52:43.116Z</time></trkpt><trkpt lat="37.81913" lon="15.1589767"><ele>465.0</ele><time>2026-04-18T10:52:44.116Z</time></trkpt><trkpt lat="37.8189917" lon="15.1590217"><ele>463.0</ele><time>2026-04-18T10:52:45.116Z</time></trkpt><trkpt lat="37.8188533" lon="15.1590467"><ele>461.0</ele><time>2026-04-18T10:52:46.116Z</time></trkpt><trkpt lat="37.8187133" lon="15.1590717"><ele>461.0</ele><time>2026-04-18T10:52:47.116Z</time></trkpt><trkpt lat="37.8185767" lon="15.1591"><ele>461.0</ele><time>2026-04-18T10:52:48.116Z</time></trkpt><trkpt lat="37.8184467" lon="15.1591417"><ele>461.0</ele><time>2026-04-18T10:52:49.116Z</time></trkpt><trkpt lat="37.818315" lon="15.1592017"><ele>461.0</ele><time>2026-04-18T10:52:50.116Z</time></trkpt><trkpt lat="37.8181983" lon="15.1592917"><ele>460.75</ele><time>2026-04-18T10:52:51.116Z</time></trkpt><trkpt lat="37.818095" lon="15.15941"><ele>460.5</ele><time>2026-04-18T10:52:52.115Z</time></trkpt><trkpt lat="37.8179983" lon="15.1595433"><ele>460.25</ele><time>2026-04-18T10:52:53.115Z</time></trkpt><trkpt lat="37.8179183" lon="15.159685"><ele>460.0</ele><time>2026-04-18T10:52:54.115Z</time></trkpt><trkpt lat="37.817835" lon="15.1598333"><ele>459.75</ele><time>2026-04-18T10:52:55.115Z</time></trkpt><trkpt lat="37.81775" lon="15.1599867"><ele>459.5</ele><time>2026-04-18T10:52:56.115Z</time></trkpt><trkpt lat="37.8176633" lon="15.160125"><ele>459.25</ele><time>2026-04-18T10:52:57.115Z</time></trkpt><trkpt lat="37.8175733" lon="15.1602733"><ele>459.0</ele><time>2026-04-18T10:52:58.115Z</time></trkpt><trkpt lat="37.817495" lon="15.1604233"><ele>458.0</ele><time>2026-04-18T10:52:59.115Z</time></trkpt><trkpt lat="37.817415" lon="15.160575"><ele>457.0</ele><time>2026-04-18T10:53:00.115Z</time></trkpt><trkpt lat="37.8173317" lon="15.1607267"><ele>456.0</ele><time>2026-04-18T10:53:01.115Z</time></trkpt><trkpt lat="37.8172633" lon="15.160885"><ele>455.0</ele><time>2026-04-18T10:53:02.115Z</time></trkpt><trkpt lat="37.8172" lon="15.1610417"><ele>453.5</ele><time>2026-04-18T10:53:03.115Z</time></trkpt><trkpt lat="37.8171417" lon="15.1611867"><ele>452.0</ele><time>2026-04-18T10:53:04.115Z</time></trkpt><trkpt lat="37.81709" lon="15.16132"><ele>450.5</ele><time>2026-04-18T10:53:05.115Z</time></trkpt><trkpt lat="37.81703" lon="15.1614383"><ele>449.0</ele><time>2026-04-18T10:53:06.115Z</time></trkpt><trkpt lat="37.8169517" lon="15.161535"><ele>448.0</ele><time>2026-04-18T10:53:07.114Z</time></trkpt><trkpt lat="37.8168733" lon="15.1616033"><ele>447.0</ele><time>2026-04-18T10:53:08.114Z</time></trkpt><trkpt lat="37.816775" lon="15.1616467"><ele>446.0</ele><time>2026-04-18T10:53:09.115Z</time></trkpt><trkpt lat="37.8166683" lon="15.1616867"><ele>445.0</ele><time>2026-04-18T10:53:10.115Z</time></trkpt><trkpt lat="37.816555" lon="15.161715"><ele>444.0</ele><time>2026-04-18T10:53:11.115Z</time></trkpt><trkpt lat="37.8164383" lon="15.1617417"><ele>444.0</ele><time>2026-04-18T10:53:12.115Z</time></trkpt><trkpt lat="37.81632" lon="15.16177"><ele>444.0</ele><time>2026-04-18T10:53:13.115Z</time></trkpt><trkpt lat="37.8162033" lon="15.1617883"><ele>444.0</ele><time>2026-04-18T10:53:14.115Z</time></trkpt><trkpt lat="37.816085" lon="15.1617917"><ele>444.0</ele><time>2026-04-18T10:53:15.115Z</time></trkpt><trkpt lat="37.815975" lon="15.1617683"><ele>443.25</ele><time>2026-04-18T10:53:16.115Z</time></trkpt><trkpt lat="37.81586" lon="15.1617133"><ele>442.5</ele><time>2026-04-18T10:53:17.115Z</time></trkpt><trkpt lat="37.8157483" lon="15.1616517"><ele>441.75</ele><time>2026-04-18T10:53:18.114Z</time></trkpt><trkpt lat="37.8156383" lon="15.161595"><ele>441.0</ele><time>2026-04-18T10:53:19.115Z</time></trkpt><trkpt lat="37.81553" lon="15.1615467"><ele>441.0</ele><time>2026-04-18T10:53:20.115Z</time></trkpt><trkpt lat="37.8154167" lon="15.161535"><ele>441.0</ele><time>2026-04-18T10:53:21.115Z</time></trkpt><trkpt lat="37.81531" lon="15.1615517"><ele>441.0</ele><time>2026-04-18T10:53:22.115Z</time></trkpt><trkpt lat="37.815195" lon="15.16159"><ele>441.0</ele><time>2026-04-18T10:53:23.115Z</time></trkpt><trkpt lat="37.815075" lon="15.1616383"><ele>439.5</ele><time>2026-04-18T10:53:24.115Z</time></trkpt><trkpt lat="37.8149517" lon="15.1616783"><ele>438.0</ele><time>2026-04-18T10:53:25.115Z</time></trkpt><trkpt lat="37.81483" lon="15.1617333"><ele>436.5</ele><time>2026-04-18T10:53:26.115Z</time></trkpt><trkpt lat="37.8147167" lon="15.1618017"><ele>435.0</ele><time>2026-04-18T10:53:27.115Z</time></trkpt><trkpt lat="37.8146033" lon="15.1618883"><ele>435.0</ele><time>2026-04-18T10:53:28.115Z</time></trkpt><trkpt lat="37.8145" lon="15.16197"><ele>435.0</ele><time>2026-04-18T10:53:29.115Z</time></trkpt><trkpt lat="37.8143967" lon="15.162055"><ele>435.0</ele><time>2026-04-18T10:53:30.115Z</time></trkpt><trkpt lat="37.81429" lon="15.1621433"><ele>435.0</ele><time>2026-04-18T10:53:31.115Z</time></trkpt><trkpt lat="37.8142067" lon="15.1622467"><ele>431.5</ele><time>2026-04-18T10:53:32.115Z</time></trkpt><trkpt lat="37.8141417" lon="15.1623817"><ele>428.0</ele><time>2026-04-18T10:53:33.114Z</time></trkpt><trkpt lat="37.8141" lon="15.1625483"><ele>424.5</ele><time>2026-04-18T10:53:34.114Z</time></trkpt><trkpt lat="37.8140583" lon="15.1627283"><ele>421.0</ele><time>2026-04-18T10:53:35.115Z</time></trkpt><trkpt lat="37.81402" lon="15.1629067"><ele>421.0</ele><time>2026-04-18T10:53:36.115Z</time></trkpt><trkpt lat="37.8139767" lon="15.16307"><ele>421.0</ele><time>2026-04-18T10:53:37.115Z</time></trkpt><trkpt lat="37.8139267" lon="15.163225"><ele>421.0</ele><time>2026-04-18T10:53:38.115Z</time></trkpt><trkpt lat="37.8138733" lon="15.16338"><ele>421.0</ele><time>2026-04-18T10:53:39.115Z</time></trkpt><trkpt lat="37.8138117" lon="15.1635333"><ele>420.5</ele><time>2026-04-18T10:53:40.115Z</time></trkpt><trkpt lat="37.8137517" lon="15.1636917"><ele>420.0</ele><time>2026-04-18T10:53:41.115Z</time></trkpt><trkpt lat="37.8136983" lon="15.16385"><ele>419.5</ele><time>2026-04-18T10:53:42.113Z</time></trkpt><trkpt lat="37.81365" lon="15.1639967"><ele>419.0</ele><time>2026-04-18T10:53:43.115Z</time></trkpt><trkpt lat="37.8136133" lon="15.164135"><ele>418.75</ele><time>2026-04-18T10:53:44.115Z</time></trkpt><trkpt lat="37.8135933" lon="15.1642817"><ele>418.5</ele><time>2026-04-18T10:53:45.115Z</time></trkpt><trkpt lat="37.8135867" lon="15.16444"><ele>418.25</ele><time>2026-04-18T10:53:46.114Z</time></trkpt><trkpt lat="37.813585" lon="15.1646117"><ele>418.0</ele><time>2026-04-18T10:53:47.114Z</time></trkpt><trkpt lat="37.81358" lon="15.1647833"><ele>416.75</ele><time>2026-04-18T10:53:48.115Z</time></trkpt><trkpt lat="37.8135683" lon="15.1649467"><ele>415.5</ele><time>2026-04-18T10:53:49.115Z</time></trkpt><trkpt lat="37.8135567" lon="15.1650983"><ele>414.25</ele><time>2026-04-18T10:53:50.115Z</time></trkpt><trkpt lat="37.8135483" lon="15.165245"><ele>413.0</ele><time>2026-04-18T10:53:51.115Z</time></trkpt><trkpt lat="37.8135333" lon="15.16541"><ele>413.0</ele><time>2026-04-18T10:53:52.115Z</time></trkpt><trkpt lat="37.8135167" lon="15.165575"><ele>413.0</ele><time>2026-04-18T10:53:53.114Z</time></trkpt><trkpt lat="37.8135083" lon="15.16574"><ele>413.0</ele><time>2026-04-18T10:53:54.115Z</time></trkpt><trkpt lat="37.8134967" lon="15.1658883"><ele>413.0</ele><time>2026-04-18T10:53:55.114Z</time></trkpt><trkpt lat="37.81348" lon="15.166035"><ele>411.25</ele><time>2026-04-18T10:53:56.115Z</time></trkpt><trkpt lat="37.8134783" lon="15.1661883"><ele>409.5</ele><time>2026-04-18T10:53:57.115Z</time></trkpt><trkpt lat="37.8134733" lon="15.1663333"><ele>407.75</ele><time>2026-04-18T10:53:58.115Z</time></trkpt><trkpt lat="37.81347" lon="15.1664783"><ele>406.0</ele><time>2026-04-18T10:53:59.115Z</time></trkpt><trkpt lat="37.8134667" lon="15.1666183"><ele>405.33333333333337</ele><time>2026-04-18T10:54:00.115Z</time></trkpt><trkpt lat="37.8134617" lon="15.1667433"><ele>404.6666666666667</ele><time>2026-04-18T10:54:01.115Z</time></trkpt><trkpt lat="37.8134583" lon="15.1668633"><ele>404.0</ele><time>2026-04-18T10:54:02.115Z</time></trkpt><trkpt lat="37.8134583" lon="15.1669783"><ele>403.33333333333337</ele><time>2026-04-18T10:54:03.115Z</time></trkpt><trkpt lat="37.8134533" lon="15.1670783"><ele>402.6666666666667</ele><time>2026-04-18T10:54:04.115Z</time></trkpt><trkpt lat="37.8134383" lon="15.1671633"><ele>402.0</ele><time>2026-04-18T10:54:05.115Z</time></trkpt><trkpt lat="37.8134233" lon="15.1672417"><ele>402.0</ele><time>2026-04-18T10:54:06.115Z</time></trkpt><trkpt lat="37.8133467" lon="15.1673583"><ele>402.0</ele><time>2026-04-18T10:54:08.115Z</time></trkpt><trkpt lat="37.81322" lon="15.1674"><ele>402.0</ele><time>2026-04-18T10:54:10.115Z</time></trkpt><trkpt lat="37.8131383" lon="15.16741"><ele>402.0</ele><time>2026-04-18T10:54:11.115Z</time></trkpt><trkpt lat="37.81305" lon="15.167425"><ele>402.0</ele><time>2026-04-18T10:54:12.115Z</time></trkpt><trkpt lat="37.8129717" lon="15.1674667"><ele>401.40000000000003</ele><time>2026-04-18T10:54:13.115Z</time></trkpt><trkpt lat="37.812905" lon="15.1675417"><ele>400.8</ele><time>2026-04-18T10:54:14.115Z</time></trkpt><trkpt lat="37.8128483" lon="15.1676567"><ele>400.2</ele><time>2026-04-18T10:54:15.115Z</time></trkpt><trkpt lat="37.81281" lon="15.16779"><ele>399.6</ele><time>2026-04-18T10:54:16.115Z</time></trkpt><trkpt lat="37.8128" lon="15.1679383"><ele>399.0</ele><time>2026-04-18T10:54:17.115Z</time></trkpt><trkpt lat="37.8128" lon="15.1680767"><ele>398.0</ele><time>2026-04-18T10:54:18.115Z</time></trkpt><trkpt lat="37.8127967" lon="15.1682167"><ele>397.0</ele><time>2026-04-18T10:54:19.114Z</time></trkpt><trkpt lat="37.81279" lon="15.1683667"><ele>396.0</ele><time>2026-04-18T10:54:20.115Z</time></trkpt><trkpt lat="37.8127717" lon="15.168515"><ele>395.0</ele><time>2026-04-18T10:54:21.115Z</time></trkpt><trkpt lat="37.8127533" lon="15.16866"><ele>395.0</ele><time>2026-04-18T10:54:22.115Z</time></trkpt><trkpt lat="37.8127333" lon="15.1688"><ele>395.0</ele><time>2026-04-18T10:54:23.115Z</time></trkpt><trkpt lat="37.812715" lon="15.1689433"><ele>395.0</ele><time>2026-04-18T10:54:24.115Z</time></trkpt><trkpt lat="37.8126933" lon="15.1690867"><ele>395.0</ele><time>2026-04-18T10:54:25.115Z</time></trkpt><trkpt lat="37.8126633" lon="15.169225"><ele>394.4</ele><time>2026-04-18T10:54:26.115Z</time></trkpt><trkpt lat="37.8126333" lon="15.1693517"><ele>393.8</ele><time>2026-04-18T10:54:27.115Z</time></trkpt><trkpt lat="37.812595" lon="15.1694867"><ele>393.20000000000005</ele><time>2026-04-18T10:54:28.115Z</time></trkpt><trkpt lat="37.8125483" lon="15.1696067"><ele>392.6</ele><time>2026-04-18T10:54:29.115Z</time></trkpt><trkpt lat="37.8124967" lon="15.1697433"><ele>392.0</ele><time>2026-04-18T10:54:30.115Z</time></trkpt><trkpt lat="37.8124333" lon="15.16987"><ele>390.5</ele><time>2026-04-18T10:54:31.115Z</time></trkpt><trkpt lat="37.8123667" lon="15.1699883"><ele>389.0</ele><time>2026-04-18T10:54:32.114Z</time></trkpt><trkpt lat="37.8123" lon="15.1701083"><ele>387.5</ele><time>2026-04-18T10:54:33.115Z</time></trkpt><trkpt lat="37.8122433" lon="15.170235"><ele>386.0</ele><time>2026-04-18T10:54:34.115Z</time></trkpt><trkpt lat="37.8121983" lon="15.170365"><ele>386.0</ele><time>2026-04-18T10:54:35.115Z</time></trkpt><trkpt lat="37.8121617" lon="15.1705067"><ele>386.0</ele><time>2026-04-18T10:54:36.115Z</time></trkpt><trkpt lat="37.8121333" lon="15.1706467"><ele>386.0</ele><time>2026-04-18T10:54:37.115Z</time></trkpt><trkpt lat="37.812115" lon="15.1708033"><ele>386.0</ele><time>2026-04-18T10:54:38.115Z</time></trkpt><trkpt lat="37.812105" lon="15.170955"><ele>385.4</ele><time>2026-04-18T10:54:39.115Z</time></trkpt><trkpt lat="37.812095" lon="15.171095"><ele>384.8</ele><time>2026-04-18T10:54:40.115Z</time></trkpt><trkpt lat="37.812085" lon="15.1712267"><ele>384.2</ele><time>2026-04-18T10:54:41.115Z</time></trkpt><trkpt lat="37.8120717" lon="15.171365"><ele>383.59999999999997</ele><time>2026-04-18T10:54:42.115Z</time></trkpt><trkpt lat="37.8120417" lon="15.1714917"><ele>383.0</ele><time>2026-04-18T10:54:43.115Z</time></trkpt><trkpt lat="37.8119917" lon="15.171625"><ele>382.5</ele><time>2026-04-18T10:54:44.115Z</time></trkpt><trkpt lat="37.811925" lon="15.1717683"><ele>382.0</ele><time>2026-04-18T10:54:45.115Z</time></trkpt><trkpt lat="37.8118617" lon="15.17193"><ele>381.5</ele><time>2026-04-18T10:54:46.115Z</time></trkpt><trkpt lat="37.811805" lon="15.1720883"><ele>381.0</ele><time>2026-04-18T10:54:47.115Z</time></trkpt><trkpt lat="37.8117483" lon="15.1722433"><ele>379.75</ele><time>2026-04-18T10:54:48.115Z</time></trkpt><trkpt lat="37.8116833" lon="15.1723967"><ele>378.5</ele><time>2026-04-18T10:54:49.115Z</time></trkpt><trkpt lat="37.8116067" lon="15.1725433"><ele>377.25</ele><time>2026-04-18T10:54:50.115Z</time></trkpt><trkpt lat="37.8115367" lon="15.172665"><ele>376.0</ele><time>2026-04-18T10:54:51.115Z</time></trkpt><trkpt lat="37.811475" lon="15.17279"><ele>376.0</ele><time>2026-04-18T10:54:52.115Z</time></trkpt><trkpt lat="37.81141" lon="15.1729017"><ele>376.0</ele><time>2026-04-18T10:54:53.114Z</time></trkpt><trkpt lat="37.811355" lon="15.1730033"><ele>376.0</ele><time>2026-04-18T10:54:54.115Z</time></trkpt><trkpt lat="37.8113017" lon="15.173095"><ele>376.0</ele><time>2026-04-18T10:54:55.115Z</time></trkpt><trkpt lat="37.81126" lon="15.1731817"><ele>376.0</ele><time>2026-04-18T10:54:56.115Z</time></trkpt><trkpt lat="37.8112167" lon="15.17327"><ele>375.2857142857143</ele><time>2026-04-18T10:54:57.115Z</time></trkpt><trkpt lat="37.8111767" lon="15.1733583"><ele>374.57142857142856</ele><time>2026-04-18T10:54:58.114Z</time></trkpt><trkpt lat="37.8111333" lon="15.1734383"><ele>373.8571428571429</ele><time>2026-04-18T10:54:59.115Z</time></trkpt><trkpt lat="37.8110967" lon="15.1735217"><ele>373.1428571428571</ele><time>2026-04-18T10:55:00.115Z</time></trkpt><trkpt lat="37.81107" lon="15.1735967"><ele>372.42857142857144</ele><time>2026-04-18T10:55:01.115Z</time></trkpt><trkpt lat="37.8110317" lon="15.173675"><ele>371.7142857142857</ele><time>2026-04-18T10:55:02.115Z</time></trkpt><trkpt lat="37.8109933" lon="15.173745"><ele>371.0</ele><time>2026-04-18T10:55:03.115Z</time></trkpt><trkpt lat="37.810955" lon="15.173825"><ele>371.0</ele><time>2026-04-18T10:55:04.115Z</time></trkpt><trkpt lat="37.8109167" lon="15.1739083"><ele>371.0</ele><time>2026-04-18T10:55:05.115Z</time></trkpt><trkpt lat="37.810875" lon="15.1739883"><ele>371.0</ele><time>2026-04-18T10:55:06.115Z</time></trkpt><trkpt lat="37.8108283" lon="15.174065"><ele>371.0</ele><time>2026-04-18T10:55:07.115Z</time></trkpt><trkpt lat="37.8107783" lon="15.1741417"><ele>371.0</ele><time>2026-04-18T10:55:08.115Z</time></trkpt><trkpt lat="37.81072" lon="15.1741933"><ele>371.0</ele><time>2026-04-18T10:55:09.115Z</time></trkpt><trkpt lat="37.8106583" lon="15.17423"><ele>371.0</ele><time>2026-04-18T10:55:10.115Z</time></trkpt><trkpt lat="37.8105717" lon="15.174255"><ele>370.0</ele><time>2026-04-18T10:55:11.114Z</time></trkpt><trkpt lat="37.8104767" lon="15.174275"><ele>369.0</ele><time>2026-04-18T10:55:12.115Z</time></trkpt><trkpt lat="37.81037" lon="15.17429"><ele>368.0</ele><time>2026-04-18T10:55:13.115Z</time></trkpt><trkpt lat="37.81026" lon="15.1743317"><ele>367.0</ele><time>2026-04-18T10:55:14.115Z</time></trkpt><trkpt lat="37.81015" lon="15.174365"><ele>366.0</ele><time>2026-04-18T10:55:15.115Z</time></trkpt><trkpt lat="37.8100283" lon="15.1743983"><ele>365.75</ele><time>2026-04-18T10:55:16.115Z</time></trkpt><trkpt lat="37.8099017" lon="15.17443"><ele>365.5</ele><time>2026-04-18T10:55:17.115Z</time></trkpt><trkpt lat="37.8097717" lon="15.174465"><ele>365.25</ele><time>2026-04-18T10:55:18.115Z</time></trkpt><trkpt lat="37.8096267" lon="15.17448"><ele>365.0</ele><time>2026-04-18T10:55:19.115Z</time></trkpt><trkpt lat="37.809495" lon="15.1745067"><ele>365.0</ele><time>2026-04-18T10:55:20.115Z</time></trkpt><trkpt lat="37.809375" lon="15.17455"><ele>365.0</ele><time>2026-04-18T10:55:21.115Z</time></trkpt><trkpt lat="37.809265" lon="15.17458"><ele>365.0</ele><time>2026-04-18T10:55:22.115Z</time></trkpt><trkpt lat="37.80915" lon="15.1746117"><ele>365.0</ele><time>2026-04-18T10:55:23.115Z</time></trkpt><trkpt lat="37.8090467" lon="15.1746267"><ele>364.75</ele><time>2026-04-18T10:55:24.115Z</time></trkpt><trkpt lat="37.8089283" lon="15.1746617"><ele>364.5</ele><time>2026-04-18T10:55:25.115Z</time></trkpt><trkpt lat="37.80882" lon="15.1747033"><ele>364.25</ele><time>2026-04-18T10:55:26.115Z</time></trkpt><trkpt lat="37.8086983" lon="15.17474"><ele>364.0</ele><time>2026-04-18T10:55:27.114Z</time></trkpt><trkpt lat="37.8085833" lon="15.17477"><ele>363.79999999999995</ele><time>2026-04-18T10:55:28.115Z</time></trkpt><trkpt lat="37.8084733" lon="15.1747883"><ele>363.59999999999997</ele><time>2026-04-18T10:55:29.115Z</time></trkpt><trkpt lat="37.80837" lon="15.1748083"><ele>363.4</ele><time>2026-04-18T10:55:30.115Z</time></trkpt><trkpt lat="37.8082717" lon="15.1748283"><ele>363.2</ele><time>2026-04-18T10:55:31.115Z</time></trkpt><trkpt lat="37.8081767" lon="15.1748583"><ele>363.0</ele><time>2026-04-18T10:55:32.115Z</time></trkpt><trkpt lat="37.8080767" lon="15.1748717"><ele>362.3333333333333</ele><time>2026-04-18T10:55:33.115Z</time></trkpt><trkpt lat="37.8079783" lon="15.1749"><ele>361.6666666666667</ele><time>2026-04-18T10:55:34.115Z</time></trkpt><trkpt lat="37.8078883" lon="15.17493"><ele>361.0</ele><time>2026-04-18T10:55:35.115Z</time></trkpt><trkpt lat="37.8078067" lon="15.1749483"><ele>360.33333333333337</ele><time>2026-04-18T10:55:36.115Z</time></trkpt><trkpt lat="37.8077283" lon="15.1749733"><ele>359.6666666666667</ele><time>2026-04-18T10:55:37.115Z</time></trkpt><trkpt lat="37.8076467" lon="15.1749983"><ele>359.0</ele><time>2026-04-18T10:55:38.115Z</time></trkpt><trkpt lat="37.80756" lon="15.1750317"><ele>358.83333333333337</ele><time>2026-04-18T10:55:39.114Z</time></trkpt><trkpt lat="37.8074783" lon="15.175065"><ele>358.6666666666667</ele><time>2026-04-18T10:55:40.115Z</time></trkpt><trkpt lat="37.8073983" lon="15.175095"><ele>358.5</ele><time>2026-04-18T10:55:41.115Z</time></trkpt><trkpt lat="37.8073233" lon="15.1751183"><ele>358.3333333333333</ele><time>2026-04-18T10:55:42.115Z</time></trkpt><trkpt lat="37.8072467" lon="15.175135"><ele>358.16666666666663</ele><time>2026-04-18T10:55:43.115Z</time></trkpt><trkpt lat="37.8071617" lon="15.1751517"><ele>358.0</ele><time>2026-04-18T10:55:44.114Z</time></trkpt><trkpt lat="37.8070717" lon="15.1751683"><ele>358.0</ele><time>2026-04-18T10:55:45.114Z</time></trkpt><trkpt lat="37.806975" lon="15.1751817"><ele>358.0</ele><time>2026-04-18T10:55:46.115Z</time></trkpt><trkpt lat="37.80688" lon="15.1752017"><ele>358.0</ele><time>2026-04-18T10:55:47.115Z</time></trkpt><trkpt lat="37.8067883" lon="15.175225"><ele>358.0</ele><time>2026-04-18T10:55:48.115Z</time></trkpt><trkpt lat="37.8066933" lon="15.1752383"><ele>358.0</ele><time>2026-04-18T10:55:49.115Z</time></trkpt><trkpt lat="37.8066033" lon="15.1752617"><ele>357.0</ele><time>2026-04-18T10:55:50.114Z</time></trkpt><trkpt lat="37.8065133" lon="15.175285"><ele>356.0</ele><time>2026-04-18T10:55:51.115Z</time></trkpt><trkpt lat="37.8064217" lon="15.175305"><ele>355.0</ele><time>2026-04-18T10:55:52.115Z</time></trkpt><trkpt lat="37.80633" lon="15.1753233"><ele>354.0</ele><time>2026-04-18T10:55:53.115Z</time></trkpt><trkpt lat="37.806235" lon="15.1753533"><ele>353.0</ele><time>2026-04-18T10:55:54.115Z</time></trkpt><trkpt lat="37.80614" lon="15.1753767"><ele>353.0</ele><time>2026-04-18T10:55:55.115Z</time></trkpt><trkpt lat="37.8060517" lon="15.1754"><ele>353.0</ele><time>2026-04-18T10:55:56.115Z</time></trkpt><trkpt lat="37.8059633" lon="15.1754167"><ele>353.0</ele><time>2026-04-18T10:55:57.115Z</time></trkpt><trkpt lat="37.8058717" lon="15.1754333"><ele>353.0</ele><time>2026-04-18T10:55:58.115Z</time></trkpt><trkpt lat="37.8057783" lon="15.1754483"><ele>353.0</ele><time>2026-04-18T10:55:59.114Z</time></trkpt><trkpt lat="37.8056867" lon="15.1754667"><ele>351.6666666666667</ele><time>2026-04-18T10:56:00.114Z</time></trkpt><trkpt lat="37.8056033" lon="15.1754817"><ele>350.33333333333337</ele><time>2026-04-18T10:56:01.115Z</time></trkpt><trkpt lat="37.805525" lon="15.1754917"><ele>349.0</ele><time>2026-04-18T10:56:02.115Z</time></trkpt><trkpt lat="37.805445" lon="15.1755117"><ele>347.6666666666667</ele><time>2026-04-18T10:56:03.115Z</time></trkpt><trkpt lat="37.805365" lon="15.1755233"><ele>346.3333333333333</ele><time>2026-04-18T10:56:04.114Z</time></trkpt><trkpt lat="37.8052817" lon="15.1755383"><ele>345.0</ele><time>2026-04-18T10:56:05.115Z</time></trkpt><trkpt lat="37.8051917" lon="15.1755533"><ele>344.4</ele><time>2026-04-18T10:56:06.115Z</time></trkpt><trkpt lat="37.8050967" lon="15.17558"><ele>343.8</ele><time>2026-04-18T10:56:07.115Z</time></trkpt><trkpt lat="37.804995" lon="15.1756017"><ele>343.20000000000005</ele><time>2026-04-18T10:56:08.115Z</time></trkpt><trkpt lat="37.8048917" lon="15.1756317"><ele>342.6</ele><time>2026-04-18T10:56:09.115Z</time></trkpt><trkpt lat="37.8047783" lon="15.175655"><ele>342.0</ele><time>2026-04-18T10:56:10.115Z</time></trkpt><trkpt lat="37.8046433" lon="15.175695"><ele>342.0</ele><time>2026-04-18T10:56:11.115Z</time></trkpt><trkpt lat="37.8044933" lon="15.175745"><ele>342.0</ele><time>2026-04-18T10:56:12.115Z</time></trkpt><trkpt lat="37.8043233" lon="15.1757717"><ele>342.0</ele><time>2026-04-18T10:56:13.115Z</time></trkpt><trkpt lat="37.8041567" lon="15.1757933"><ele>340.0</ele><time>2026-04-18T10:56:14.115Z</time></trkpt><trkpt lat="37.803985" lon="15.1758183"><ele>338.0</ele><time>2026-04-18T10:56:15.115Z</time></trkpt><trkpt lat="37.8038183" lon="15.175845"><ele>336.0</ele><time>2026-04-18T10:56:16.115Z</time></trkpt><trkpt lat="37.8036567" lon="15.1758783"><ele>336.0</ele><time>2026-04-18T10:56:17.115Z</time></trkpt><trkpt lat="37.8035" lon="15.1759033"><ele>336.0</ele><time>2026-04-18T10:56:18.115Z</time></trkpt><trkpt lat="37.80335" lon="15.1759333"><ele>336.0</ele><time>2026-04-18T10:56:19.115Z</time></trkpt><trkpt lat="37.8031933" lon="15.17597"><ele>335.25</ele><time>2026-04-18T10:56:20.115Z</time></trkpt><trkpt lat="37.8030467" lon="15.176005"><ele>334.5</ele><time>2026-04-18T10:56:21.115Z</time></trkpt><trkpt lat="37.802905" lon="15.1760367"><ele>333.75</ele><time>2026-04-18T10:56:22.115Z</time></trkpt><trkpt lat="37.80277" lon="15.1760683"><ele>333.0</ele><time>2026-04-18T10:56:23.115Z</time></trkpt><trkpt lat="37.8026467" lon="15.176095"><ele>332.75</ele><time>2026-04-18T10:56:24.115Z</time></trkpt><trkpt lat="37.802525" lon="15.1761183"><ele>332.5</ele><time>2026-04-18T10:56:25.115Z</time></trkpt><trkpt lat="37.802405" lon="15.176125"><ele>332.25</ele><time>2026-04-18T10:56:26.115Z</time></trkpt><trkpt lat="37.80229" lon="15.1760967"><ele>332.0</ele><time>2026-04-18T10:56:27.115Z</time></trkpt><trkpt lat="37.80218" lon="15.176045"><ele>332.0</ele><time>2026-04-18T10:56:28.115Z</time></trkpt><trkpt lat="37.80207" lon="15.1759717"><ele>332.0</ele><time>2026-04-18T10:56:29.115Z</time></trkpt><trkpt lat="37.801965" lon="15.1759033"><ele>332.0</ele><time>2026-04-18T10:56:30.115Z</time></trkpt><trkpt lat="37.8018583" lon="15.17585"><ele>332.0</ele><time>2026-04-18T10:56:31.115Z</time></trkpt><trkpt lat="37.8017417" lon="15.1758167"><ele>332.5</ele><time>2026-04-18T10:56:32.115Z</time></trkpt><trkpt lat="37.8016183" lon="15.1758067"><ele>333.0</ele><time>2026-04-18T10:56:33.114Z</time></trkpt><trkpt lat="37.8014783" lon="15.1757967"><ele>333.5</ele><time>2026-04-18T10:56:34.115Z</time></trkpt><trkpt lat="37.8013383" lon="15.1757767"><ele>334.0</ele><time>2026-04-18T10:56:35.115Z</time></trkpt><trkpt lat="37.8012033" lon="15.175735"><ele>335.0</ele><time>2026-04-18T10:56:36.114Z</time></trkpt><trkpt lat="37.8010667" lon="15.17568"><ele>336.0</ele><time>2026-04-18T10:56:37.115Z</time></trkpt><trkpt lat="37.8009333" lon="15.1756317"><ele>337.0</ele><time>2026-04-18T10:56:38.115Z</time></trkpt><trkpt lat="37.8008" lon="15.1756067"><ele>338.0</ele><time>2026-04-18T10:56:39.115Z</time></trkpt><trkpt lat="37.80066" lon="15.1756217"><ele>338.0</ele><time>2026-04-18T10:56:40.115Z</time></trkpt><trkpt lat="37.8005283" lon="15.175675"><ele>338.0</ele><time>2026-04-18T10:56:41.115Z</time></trkpt><trkpt lat="37.8003983" lon="15.1757233"><ele>338.0</ele><time>2026-04-18T10:56:42.115Z</time></trkpt><trkpt lat="37.80027" lon="15.1757767"><ele>338.0</ele><time>2026-04-18T10:56:43.115Z</time></trkpt><trkpt lat="37.80015" lon="15.1758183"><ele>335.25</ele><time>2026-04-18T10:56:44.114Z</time></trkpt><trkpt lat="37.80003" lon="15.17586"><ele>332.5</ele><time>2026-04-18T10:56:45.115Z</time></trkpt><trkpt lat="37.7999" lon="15.1759067"><ele>329.75</ele><time>2026-04-18T10:56:46.115Z</time></trkpt><trkpt lat="37.799775" lon="15.17595"><ele>327.0</ele><time>2026-04-18T10:56:47.115Z</time></trkpt><trkpt lat="37.7996467" lon="15.1759933"><ele>327.0</ele><time>2026-04-18T10:56:48.114Z</time></trkpt><trkpt lat="37.7995283" lon="15.1760367"><ele>327.0</ele><time>2026-04-18T10:56:49.115Z</time></trkpt><trkpt lat="37.799405" lon="15.176075"><ele>327.0</ele><time>2026-04-18T10:56:50.115Z</time></trkpt><trkpt lat="37.7992883" lon="15.17613"><ele>327.0</ele><time>2026-04-18T10:56:51.114Z</time></trkpt><trkpt lat="37.7991933" lon="15.1762133"><ele>325.75</ele><time>2026-04-18T10:56:52.115Z</time></trkpt><trkpt lat="37.7991083" lon="15.1763133"><ele>324.5</ele><time>2026-04-18T10:56:53.115Z</time></trkpt><trkpt lat="37.7990167" lon="15.1764017"><ele>323.25</ele><time>2026-04-18T10:56:54.115Z</time></trkpt><trkpt lat="37.7989167" lon="15.1764633"><ele>322.0</ele><time>2026-04-18T10:56:55.115Z</time></trkpt><trkpt lat="37.7988" lon="15.1764933"><ele>319.0</ele><time>2026-04-18T10:56:56.114Z</time></trkpt><trkpt lat="37.79867" lon="15.1765383"><ele>316.0</ele><time>2026-04-18T10:56:57.115Z</time></trkpt><trkpt lat="37.7985483" lon="15.1766067"><ele>313.0</ele><time>2026-04-18T10:56:58.115Z</time></trkpt><trkpt lat="37.79842" lon="15.1766883"><ele>310.0</ele><time>2026-04-18T10:56:59.115Z</time></trkpt><trkpt lat="37.79829" lon="15.1767633"><ele>308.25</ele><time>2026-04-18T10:57:00.115Z</time></trkpt><trkpt lat="37.798165" lon="15.1768317"><ele>306.5</ele><time>2026-04-18T10:57:01.115Z</time></trkpt><trkpt lat="37.79804" lon="15.1769"><ele>304.75</ele><time>2026-04-18T10:57:02.115Z</time></trkpt><trkpt lat="37.7979217" lon="15.1769683"><ele>303.0</ele><time>2026-04-18T10:57:03.115Z</time></trkpt><trkpt lat="37.79781" lon="15.1770433"><ele>303.0</ele><time>2026-04-18T10:57:04.115Z</time></trkpt><trkpt lat="37.7977033" lon="15.1771"><ele>303.0</ele><time>2026-04-18T10:57:05.115Z</time></trkpt><trkpt lat="37.7976033" lon="15.1771467"><ele>303.0</ele><time>2026-04-18T10:57:06.115Z</time></trkpt><trkpt lat="37.797505" lon="15.1771683"><ele>303.0</ele><time>2026-04-18T10:57:07.115Z</time></trkpt><trkpt lat="37.797415" lon="15.177145"><ele>303.0</ele><time>2026-04-18T10:57:08.115Z</time></trkpt><trkpt lat="37.7973417" lon="15.1770567"><ele>303.25</ele><time>2026-04-18T10:57:09.115Z</time></trkpt><trkpt lat="37.7972783" lon="15.1769333"><ele>303.5</ele><time>2026-04-18T10:57:10.115Z</time></trkpt><trkpt lat="37.79722" lon="15.1767917"><ele>303.75</ele><time>2026-04-18T10:57:11.114Z</time></trkpt><trkpt lat="37.797155" lon="15.17664"><ele>304.0</ele><time>2026-04-18T10:57:12.115Z</time></trkpt><trkpt lat="37.7970867" lon="15.1764933"><ele>304.0</ele><time>2026-04-18T10:57:13.115Z</time></trkpt><trkpt lat="37.7970217" lon="15.176355"><ele>304.0</ele><time>2026-04-18T10:57:14.115Z</time></trkpt><trkpt lat="37.7969583" lon="15.1762317"><ele>304.0</ele><time>2026-04-18T10:57:15.115Z</time></trkpt><trkpt lat="37.7969083" lon="15.1761183"><ele>304.0</ele><time>2026-04-18T10:57:16.115Z</time></trkpt><trkpt lat="37.7968617" lon="15.17601"><ele>304.0</ele><time>2026-04-18T10:57:17.114Z</time></trkpt><trkpt lat="37.7968183" lon="15.1759233"><ele>301.0</ele><time>2026-04-18T10:57:18.115Z</time></trkpt><trkpt lat="37.7967617" lon="15.1758667"><ele>298.0</ele><time>2026-04-18T10:57:19.115Z</time></trkpt><trkpt lat="37.7966967" lon="15.1758583"><ele>295.0</ele><time>2026-04-18T10:57:20.115Z</time></trkpt><trkpt lat="37.7965833" lon="15.17595"><ele>292.0</ele><time>2026-04-18T10:57:22.115Z</time></trkpt><trkpt lat="37.7965217" lon="15.1760733"><ele>289.0</ele><time>2026-04-18T10:57:23.114Z</time></trkpt><trkpt lat="37.79645" lon="15.1762283"><ele>289.0</ele><time>2026-04-18T10:57:24.115Z</time></trkpt><trkpt lat="37.7963717" lon="15.1764033"><ele>289.0</ele><time>2026-04-18T10:57:25.114Z</time></trkpt><trkpt lat="37.7962817" lon="15.1765883"><ele>289.0</ele><time>2026-04-18T10:57:26.115Z</time></trkpt><trkpt lat="37.7962017" lon="15.1767517"><ele>288.75</ele><time>2026-04-18T10:57:27.115Z</time></trkpt><trkpt lat="37.7961267" lon="15.1769"><ele>288.5</ele><time>2026-04-18T10:57:28.115Z</time></trkpt><trkpt lat="37.7960533" lon="15.17704"><ele>288.25</ele><time>2026-04-18T10:57:29.115Z</time></trkpt><trkpt lat="37.7959883" lon="15.1771767"><ele>288.0</ele><time>2026-04-18T10:57:30.115Z</time></trkpt><trkpt lat="37.7959233" lon="15.1773033"><ele>285.0</ele><time>2026-04-18T10:57:31.115Z</time></trkpt><trkpt lat="37.7958367" lon="15.1774017"><ele>282.0</ele><time>2026-04-18T10:57:32.115Z</time></trkpt><trkpt lat="37.7957333" lon="15.177475"><ele>279.0</ele><time>2026-04-18T10:57:33.115Z</time></trkpt><trkpt lat="37.7956067" lon="15.1775067"><ele>276.0</ele><time>2026-04-18T10:57:34.115Z</time></trkpt><trkpt lat="37.7954667" lon="15.1775217"><ele>276.0</ele><time>2026-04-18T10:57:35.114Z</time></trkpt><trkpt lat="37.7953367" lon="15.1775317"><ele>276.0</ele><time>2026-04-18T10:57:36.115Z</time></trkpt><trkpt lat="37.79521" lon="15.17754"><ele>276.0</ele><time>2026-04-18T10:57:37.115Z</time></trkpt><trkpt lat="37.79509" lon="15.1775417"><ele>276.0</ele><time>2026-04-18T10:57:38.115Z</time></trkpt><trkpt lat="37.7949667" lon="15.177515"><ele>274.5</ele><time>2026-04-18T10:57:39.115Z</time></trkpt><trkpt lat="37.7948467" lon="15.1774567"><ele>273.0</ele><time>2026-04-18T10:57:40.115Z</time></trkpt><trkpt lat="37.7947283" lon="15.17737"><ele>271.5</ele><time>2026-04-18T10:57:41.115Z</time></trkpt><trkpt lat="37.79461" lon="15.1773"><ele>270.0</ele><time>2026-04-18T10:57:42.115Z</time></trkpt><trkpt lat="37.7944867" lon="15.1772317"><ele>270.0</ele><time>2026-04-18T10:57:43.115Z</time></trkpt><trkpt lat="37.7943667" lon="15.177165"><ele>270.0</ele><time>2026-04-18T10:57:44.115Z</time></trkpt><trkpt lat="37.7942483" lon="15.177105"><ele>270.0</ele><time>2026-04-18T10:57:45.115Z</time></trkpt><trkpt lat="37.7941333" lon="15.177035"><ele>270.0</ele><time>2026-04-18T10:57:46.114Z</time></trkpt><trkpt lat="37.7940167" lon="15.1769783"><ele>267.5</ele><time>2026-04-18T10:57:47.115Z</time></trkpt><trkpt lat="37.7939067" lon="15.1769083"><ele>265.0</ele><time>2026-04-18T10:57:48.115Z</time></trkpt><trkpt lat="37.7937967" lon="15.1768567"><ele>262.5</ele><time>2026-04-18T10:57:49.115Z</time></trkpt><trkpt lat="37.7936833" lon="15.1768283"><ele>260.0</ele><time>2026-04-18T10:57:50.115Z</time></trkpt><trkpt lat="37.7935683" lon="15.1768167"><ele>258.25</ele><time>2026-04-18T10:57:51.114Z</time></trkpt><trkpt lat="37.793465" lon="15.1768167"><ele>256.5</ele><time>2026-04-18T10:57:52.115Z</time></trkpt><trkpt lat="37.7933517" lon="15.1768367"><ele>254.75</ele><time>2026-04-18T10:57:53.115Z</time></trkpt><trkpt lat="37.79323" lon="15.1768817"><ele>253.0</ele><time>2026-04-18T10:57:54.115Z</time></trkpt><trkpt lat="37.7931017" lon="15.1769433"><ele>253.0</ele><time>2026-04-18T10:57:55.115Z</time></trkpt><trkpt lat="37.7929717" lon="15.17702"><ele>253.0</ele><time>2026-04-18T10:57:56.115Z</time></trkpt><trkpt lat="37.7928383" lon="15.1770867"><ele>253.0</ele><time>2026-04-18T10:57:57.115Z</time></trkpt><trkpt lat="37.7926967" lon="15.1771317"><ele>253.0</ele><time>2026-04-18T10:57:58.115Z</time></trkpt><trkpt lat="37.7925583" lon="15.1771767"><ele>252.5</ele><time>2026-04-18T10:57:59.115Z</time></trkpt><trkpt lat="37.7924217" lon="15.1772233"><ele>252.0</ele><time>2026-04-18T10:58:00.115Z</time></trkpt><trkpt lat="37.79228" lon="15.1772717"><ele>251.5</ele><time>2026-04-18T10:58:01.115Z</time></trkpt><trkpt lat="37.7921467" lon="15.1773217"><ele>251.0</ele><time>2026-04-18T10:58:02.115Z</time></trkpt><trkpt lat="37.792015" lon="15.1773633"><ele>250.25</ele><time>2026-04-18T10:58:03.115Z</time></trkpt><trkpt lat="37.7918983" lon="15.1773967"><ele>249.5</ele><time>2026-04-18T10:58:04.115Z</time></trkpt><trkpt lat="37.7917767" lon="15.17744"><ele>248.75</ele><time>2026-04-18T10:58:05.115Z</time></trkpt><trkpt lat="37.7916583" lon="15.1774917"><ele>248.0</ele><time>2026-04-18T10:58:06.115Z</time></trkpt><trkpt lat="37.7915483" lon="15.177565"><ele>247.0</ele><time>2026-04-18T10:58:07.115Z</time></trkpt><trkpt lat="37.7914433" lon="15.1776367"><ele>246.0</ele><time>2026-04-18T10:58:08.115Z</time></trkpt><trkpt lat="37.7913483" lon="15.177695"><ele>245.0</ele><time>2026-04-18T10:58:09.115Z</time></trkpt><trkpt lat="37.7912617" lon="15.1777517"><ele>244.0</ele><time>2026-04-18T10:58:10.115Z</time></trkpt><trkpt lat="37.7911733" lon="15.1777883"><ele>243.0</ele><time>2026-04-18T10:58:11.115Z</time></trkpt><trkpt lat="37.791095" lon="15.17779"><ele>243.0</ele><time>2026-04-18T10:58:12.115Z</time></trkpt><trkpt lat="37.79101" lon="15.177735"><ele>243.0</ele><time>2026-04-18T10:58:13.115Z</time></trkpt><trkpt lat="37.7909217" lon="15.1776367"><ele>243.0</ele><time>2026-04-18T10:58:14.115Z</time></trkpt><trkpt lat="37.79083" lon="15.17754"><ele>243.0</ele><time>2026-04-18T10:58:15.114Z</time></trkpt><trkpt lat="37.7907417" lon="15.177445"><ele>243.0</ele><time>2026-04-18T10:58:16.115Z</time></trkpt><trkpt lat="37.7906717" lon="15.1773533"><ele>239.8</ele><time>2026-04-18T10:58:17.114Z</time></trkpt><trkpt lat="37.7906217" lon="15.1772317"><ele>236.60000000000002</ele><time>2026-04-18T10:58:18.115Z</time></trkpt><trkpt lat="37.79059" lon="15.177105"><ele>233.39999999999998</ele><time>2026-04-18T10:58:19.115Z</time></trkpt><trkpt lat="37.790565" lon="15.1769867"><ele>230.2</ele><time>2026-04-18T10:58:20.115Z</time></trkpt><trkpt lat="37.7905583" lon="15.1768733"><ele>227.0</ele><time>2026-04-18T10:58:21.114Z</time></trkpt><trkpt lat="37.79058" lon="15.1767617"><ele>227.0</ele><time>2026-04-18T10:58:22.115Z</time></trkpt><trkpt lat="37.79065" lon="15.1766717"><ele>227.0</ele><time>2026-04-18T10:58:23.115Z</time></trkpt><trkpt lat="37.7907317" lon="15.1765917"><ele>227.0</ele><time>2026-04-18T10:58:24.115Z</time></trkpt><trkpt lat="37.79077" lon="15.1764933"><ele>227.0</ele><time>2026-04-18T10:58:25.115Z</time></trkpt><trkpt lat="37.790775" lon="15.1763817"><ele>227.0</ele><time>2026-04-18T10:58:26.115Z</time></trkpt><trkpt lat="37.7907433" lon="15.1762483"><ele>229.75</ele><time>2026-04-18T10:58:27.115Z</time></trkpt><trkpt lat="37.79068" lon="15.1760833"><ele>232.5</ele><time>2026-04-18T10:58:28.114Z</time></trkpt><trkpt lat="37.7906033" lon="15.1759183"><ele>235.25</ele><time>2026-04-18T10:58:29.115Z</time></trkpt><trkpt lat="37.7905267" lon="15.175755"><ele>238.0</ele><time>2026-04-18T10:58:30.114Z</time></trkpt><trkpt lat="37.7904333" lon="15.1755883"><ele>238.66666666666666</ele><time>2026-04-18T10:58:31.115Z</time></trkpt><trkpt lat="37.7903317" lon="15.17545"><ele>239.33333333333331</ele><time>2026-04-18T10:58:32.115Z</time></trkpt><trkpt lat="37.7902" lon="15.175335"><ele>240.0</ele><time>2026-04-18T10:58:33.115Z</time></trkpt><trkpt lat="37.7900533" lon="15.17523"><ele>240.0</ele><time>2026-04-18T10:58:34.115Z</time></trkpt><trkpt lat="37.7898967" lon="15.17514"><ele>240.0</ele><time>2026-04-18T10:58:35.115Z</time></trkpt><trkpt lat="37.7897333" lon="15.1750617"><ele>240.0</ele><time>2026-04-18T10:58:36.115Z</time></trkpt><trkpt lat="37.7895883" lon="15.1749917"><ele>240.0</ele><time>2026-04-18T10:58:37.115Z</time></trkpt><trkpt lat="37.7894517" lon="15.1749483"><ele>240.0</ele><time>2026-04-18T10:58:38.115Z</time></trkpt><trkpt lat="37.7893267" lon="15.1749133"><ele>240.0</ele><time>2026-04-18T10:58:39.115Z</time></trkpt><trkpt lat="37.78921" lon="15.1748733"><ele>240.0</ele><time>2026-04-18T10:58:40.115Z</time></trkpt><trkpt lat="37.7891033" lon="15.1747883"><ele>240.5</ele><time>2026-04-18T10:58:41.115Z</time></trkpt><trkpt lat="37.789005" lon="15.1746733"><ele>241.0</ele><time>2026-04-18T10:58:42.115Z</time></trkpt><trkpt lat="37.78892" lon="15.174535"><ele>241.5</ele><time>2026-04-18T10:58:43.115Z</time></trkpt><trkpt lat="37.7888417" lon="15.1743783"><ele>242.0</ele><time>2026-04-18T10:58:44.115Z</time></trkpt><trkpt lat="37.7887733" lon="15.1742067"><ele>242.0</ele><time>2026-04-18T10:58:45.115Z</time></trkpt><trkpt lat="37.788685" lon="15.1740467"><ele>242.0</ele><time>2026-04-18T10:58:46.115Z</time></trkpt><trkpt lat="37.788575" lon="15.1739117"><ele>242.0</ele><time>2026-04-18T10:58:47.115Z</time></trkpt><trkpt lat="37.7884433" lon="15.1737833"><ele>242.33333333333334</ele><time>2026-04-18T10:58:48.115Z</time></trkpt><trkpt lat="37.7882983" lon="15.17367"><ele>242.66666666666669</ele><time>2026-04-18T10:58:49.115Z</time></trkpt><trkpt lat="37.7881417" lon="15.173585"><ele>243.0</ele><time>2026-04-18T10:58:50.115Z</time></trkpt><trkpt lat="37.78796" lon="15.1735167"><ele>243.0</ele><time>2026-04-18T10:58:51.115Z</time></trkpt><trkpt lat="37.78776" lon="15.1734483"><ele>243.0</ele><time>2026-04-18T10:58:52.115Z</time></trkpt><trkpt lat="37.7875717" lon="15.17339"><ele>243.0</ele><time>2026-04-18T10:58:53.115Z</time></trkpt><trkpt lat="37.7873833" lon="15.1733267"><ele>241.0</ele><time>2026-04-18T10:58:54.115Z</time></trkpt><trkpt lat="37.7872" lon="15.17327"><ele>239.0</ele><time>2026-04-18T10:58:55.115Z</time></trkpt><trkpt lat="37.78701" lon="15.1732267"><ele>237.0</ele><time>2026-04-18T10:58:56.114Z</time></trkpt><trkpt lat="37.7868267" lon="15.1731883"><ele>241.0</ele><time>2026-04-18T10:58:57.115Z</time></trkpt><trkpt lat="37.7866433" lon="15.173155"><ele>245.0</ele><time>2026-04-18T10:58:58.114Z</time></trkpt><trkpt lat="37.7864683" lon="15.1731283"><ele>249.0</ele><time>2026-04-18T10:58:59.115Z</time></trkpt><trkpt lat="37.786305" lon="15.1731117"><ele>249.0</ele><time>2026-04-18T10:59:00.115Z</time></trkpt><trkpt lat="37.7861517" lon="15.1730983"><ele>249.0</ele><time>2026-04-18T10:59:01.115Z</time></trkpt><trkpt lat="37.7860083" lon="15.1730717"><ele>249.0</ele><time>2026-04-18T10:59:02.115Z</time></trkpt><trkpt lat="37.7858667" lon="15.17303"><ele>249.0</ele><time>2026-04-18T10:59:03.115Z</time></trkpt><trkpt lat="37.78573" lon="15.17297"><ele>249.25</ele><time>2026-04-18T10:59:04.115Z</time></trkpt><trkpt lat="37.7856" lon="15.172905"><ele>249.5</ele><time>2026-04-18T10:59:05.115Z</time></trkpt><trkpt lat="37.7854917" lon="15.1728567"><ele>249.75</ele><time>2026-04-18T10:59:06.115Z</time></trkpt><trkpt lat="37.785375" lon="15.1728467"><ele>250.0</ele><time>2026-04-18T10:59:07.115Z</time></trkpt><trkpt lat="37.7852633" lon="15.1728817"><ele>248.8</ele><time>2026-04-18T10:59:08.115Z</time></trkpt><trkpt lat="37.7851633" lon="15.1729533"><ele>247.6</ele><time>2026-04-18T10:59:09.115Z</time></trkpt><trkpt lat="37.7850633" lon="15.173025"><ele>246.39999999999998</ele><time>2026-04-18T10:59:10.115Z</time></trkpt><trkpt lat="37.7849617" lon="15.1730783"><ele>245.2</ele><time>2026-04-18T10:59:11.114Z</time></trkpt><trkpt lat="37.7848733" lon="15.17311"><ele>244.0</ele><time>2026-04-18T10:59:12.115Z</time></trkpt><trkpt lat="37.7847767" lon="15.173105"><ele>244.0</ele><time>2026-04-18T10:59:13.115Z</time></trkpt><trkpt lat="37.7846883" lon="15.1730433"><ele>243.99999999999997</ele><time>2026-04-18T10:59:14.115Z</time></trkpt><trkpt lat="37.7846" lon="15.172975"><ele>243.99999999999997</ele><time>2026-04-18T10:59:15.115Z</time></trkpt><trkpt lat="37.7844967" lon="15.1729283"><ele>244.0</ele><time>2026-04-18T10:59:16.115Z</time></trkpt><trkpt lat="37.784395" lon="15.172925"><ele>244.0</ele><time>2026-04-18T10:59:17.115Z</time></trkpt><trkpt lat="37.7843033" lon="15.1729333"><ele>241.25</ele><time>2026-04-18T10:59:18.115Z</time></trkpt><trkpt lat="37.7842117" lon="15.1729083"><ele>238.5</ele><time>2026-04-18T10:59:19.115Z</time></trkpt><trkpt lat="37.7841317" lon="15.1728317"><ele>235.75</ele><time>2026-04-18T10:59:20.115Z</time></trkpt><trkpt lat="37.7840417" lon="15.17273"><ele>233.0</ele><time>2026-04-18T10:59:21.115Z</time></trkpt><trkpt lat="37.7839383" lon="15.1726117"><ele>233.0</ele><time>2026-04-18T10:59:22.115Z</time></trkpt><trkpt lat="37.7838283" lon="15.1724783"><ele>233.0</ele><time>2026-04-18T10:59:23.115Z</time></trkpt><trkpt lat="37.783715" lon="15.1723317"><ele>233.0</ele><time>2026-04-18T10:59:24.115Z</time></trkpt><trkpt lat="37.7835867" lon="15.172175"><ele>232.66666666666669</ele><time>2026-04-18T10:59:25.115Z</time></trkpt><trkpt lat="37.783465" lon="15.17203"><ele>232.33333333333331</ele><time>2026-04-18T10:59:26.115Z</time></trkpt><trkpt lat="37.7833433" lon="15.1718967"><ele>232.0</ele><time>2026-04-18T10:59:27.115Z</time></trkpt><trkpt lat="37.7832117" lon="15.1717767"><ele>232.0</ele><time>2026-04-18T10:59:28.115Z</time></trkpt><trkpt lat="37.7830717" lon="15.17167"><ele>232.0</ele><time>2026-04-18T10:59:29.114Z</time></trkpt><trkpt lat="37.7829317" lon="15.1715733"><ele>232.0</ele><time>2026-04-18T10:59:30.115Z</time></trkpt><trkpt lat="37.7828033" lon="15.1714733"><ele>234.5</ele><time>2026-04-18T10:59:31.115Z</time></trkpt><trkpt lat="37.7826717" lon="15.1713833"><ele>237.0</ele><time>2026-04-18T10:59:32.115Z</time></trkpt><trkpt lat="37.78255" lon="15.171295"><ele>239.5</ele><time>2026-04-18T10:59:33.115Z</time></trkpt><trkpt lat="37.782445" lon="15.171245"><ele>242.0</ele><time>2026-04-18T10:59:34.114Z</time></trkpt><trkpt lat="37.7823267" lon="15.1712317"><ele>242.0</ele><time>2026-04-18T10:59:35.114Z</time></trkpt><trkpt lat="37.7822083" lon="15.17128"><ele>242.0</ele><time>2026-04-18T10:59:36.115Z</time></trkpt><trkpt lat="37.782105" lon="15.1713533"><ele>242.0</ele><time>2026-04-18T10:59:37.115Z</time></trkpt><trkpt lat="37.7819833" lon="15.171435"><ele>242.0</ele><time>2026-04-18T10:59:38.115Z</time></trkpt><trkpt lat="37.781865" lon="15.1714917"><ele>242.75</ele><time>2026-04-18T10:59:39.115Z</time></trkpt><trkpt lat="37.7817433" lon="15.1715"><ele>243.5</ele><time>2026-04-18T10:59:40.115Z</time></trkpt><trkpt lat="37.7816083" lon="15.17148"><ele>244.25</ele><time>2026-04-18T10:59:41.115Z</time></trkpt><trkpt lat="37.78147" lon="15.1714483"><ele>245.0</ele><time>2026-04-18T10:59:42.115Z</time></trkpt><trkpt lat="37.7813383" lon="15.1714367"><ele>245.0</ele><time>2026-04-18T10:59:43.115Z</time></trkpt><trkpt lat="37.7812067" lon="15.17146"><ele>245.0</ele><time>2026-04-18T10:59:44.115Z</time></trkpt><trkpt lat="37.7810783" lon="15.171515"><ele>245.0</ele><time>2026-04-18T10:59:45.115Z</time></trkpt><trkpt lat="37.78096" lon="15.1716"><ele>245.0</ele><time>2026-04-18T10:59:46.115Z</time></trkpt><trkpt lat="37.7808483" lon="15.1716917"><ele>241.8</ele><time>2026-04-18T10:59:47.115Z</time></trkpt><trkpt lat="37.7807517" lon="15.1717833"><ele>238.6</ele><time>2026-04-18T10:59:48.115Z</time></trkpt><trkpt lat="37.780675" lon="15.1718983"><ele>235.39999999999998</ele><time>2026-04-18T10:59:49.115Z</time></trkpt><trkpt lat="37.7806183" lon="15.17202"><ele>232.2</ele><time>2026-04-18T10:59:50.115Z</time></trkpt><trkpt lat="37.7805767" lon="15.1721217"><ele>229.0</ele><time>2026-04-18T10:59:51.114Z</time></trkpt><trkpt lat="37.780525" lon="15.1722033"><ele>229.0</ele><time>2026-04-18T10:59:52.115Z</time></trkpt><trkpt lat="37.78045" lon="15.172255"><ele>228.99999999999997</ele><time>2026-04-18T10:59:53.115Z</time></trkpt><trkpt lat="37.7803483" lon="15.1722717"><ele>228.99999999999997</ele><time>2026-04-18T10:59:54.115Z</time></trkpt><trkpt lat="37.7802367" lon="15.172275"><ele>229.0</ele><time>2026-04-18T10:59:55.115Z</time></trkpt><trkpt lat="37.780135" lon="15.172275"><ele>229.0</ele><time>2026-04-18T10:59:56.114Z</time></trkpt><trkpt lat="37.7800283" lon="15.1722867"><ele>229.39999999999998</ele><time>2026-04-18T10:59:57.115Z</time></trkpt><trkpt lat="37.779925" lon="15.1722967"><ele>229.79999999999998</ele><time>2026-04-18T10:59:58.115Z</time></trkpt><trkpt lat="37.779825" lon="15.1723067"><ele>230.20000000000002</ele><time>2026-04-18T10:59:59.115Z</time></trkpt><trkpt lat="37.7797183" lon="15.1723233"><ele>230.60000000000002</ele><time>2026-04-18T11:00:00.115Z</time></trkpt><trkpt lat="37.77962" lon="15.172335"><ele>231.0</ele><time>2026-04-18T11:00:01.115Z</time></trkpt><trkpt lat="37.7795217" lon="15.1723483"><ele>231.0</ele><time>2026-04-18T11:00:02.115Z</time></trkpt><trkpt lat="37.7794233" lon="15.172355"><ele>231.00000000000003</ele><time>2026-04-18T11:00:03.115Z</time></trkpt><trkpt lat="37.7793333" lon="15.1723633"><ele>231.00000000000003</ele><time>2026-04-18T11:00:04.115Z</time></trkpt><trkpt lat="37.7792417" lon="15.1723767"><ele>231.0</ele><time>2026-04-18T11:00:05.115Z</time></trkpt><trkpt lat="37.77915" lon="15.172385"><ele>231.0</ele><time>2026-04-18T11:00:06.115Z</time></trkpt><trkpt lat="37.7790717" lon="15.1723967"><ele>228.33333333333334</ele><time>2026-04-18T11:00:07.115Z</time></trkpt><trkpt lat="37.7789917" lon="15.172405"><ele>225.66666666666669</ele><time>2026-04-18T11:00:08.115Z</time></trkpt><trkpt lat="37.77891" lon="15.172405"><ele>223.0</ele><time>2026-04-18T11:00:09.115Z</time></trkpt><trkpt lat="37.7788283" lon="15.1724133"><ele>220.33333333333334</ele><time>2026-04-18T11:00:10.115Z</time></trkpt><trkpt lat="37.77875" lon="15.172425"><ele>217.66666666666669</ele><time>2026-04-18T11:00:11.115Z</time></trkpt><trkpt lat="37.77867" lon="15.1724367"><ele>215.0</ele><time>2026-04-18T11:00:12.115Z</time></trkpt><trkpt lat="37.7785933" lon="15.1724467"><ele>215.00000000000003</ele><time>2026-04-18T11:00:13.115Z</time></trkpt><trkpt lat="37.77852" lon="15.172455"><ele>215.0</ele><time>2026-04-18T11:00:14.115Z</time></trkpt><trkpt lat="37.7784433" lon="15.1724533"><ele>215.0</ele><time>2026-04-18T11:00:15.115Z</time></trkpt><trkpt lat="37.77837" lon="15.1724567"><ele>215.0</ele><time>2026-04-18T11:00:16.115Z</time></trkpt><trkpt lat="37.7782933" lon="15.17246"><ele>215.00000000000003</ele><time>2026-04-18T11:00:17.114Z</time></trkpt><trkpt lat="37.778215" lon="15.17247"><ele>215.0</ele><time>2026-04-18T11:00:18.115Z</time></trkpt><trkpt lat="37.77814" lon="15.1724767"><ele>215.28571428571428</ele><time>2026-04-18T11:00:19.115Z</time></trkpt><trkpt lat="37.778065" lon="15.1724833"><ele>215.57142857142858</ele><time>2026-04-18T11:00:20.115Z</time></trkpt><trkpt lat="37.777995" lon="15.1724917"><ele>215.85714285714286</ele><time>2026-04-18T11:00:21.115Z</time></trkpt><trkpt lat="37.7779267" lon="15.1725017"><ele>216.14285714285714</ele><time>2026-04-18T11:00:22.115Z</time></trkpt><trkpt lat="37.7778617" lon="15.1725167"><ele>216.42857142857144</ele><time>2026-04-18T11:00:23.115Z</time></trkpt><trkpt lat="37.7777933" lon="15.1725333"><ele>216.71428571428572</ele><time>2026-04-18T11:00:24.115Z</time></trkpt><trkpt lat="37.777725" lon="15.1725433"><ele>217.0</ele><time>2026-04-18T11:00:25.115Z</time></trkpt><trkpt lat="37.7776533" lon="15.1725517"><ele>217.0</ele><time>2026-04-18T11:00:26.115Z</time></trkpt><trkpt lat="37.7775783" lon="15.1725683"><ele>217.0</ele><time>2026-04-18T11:00:27.115Z</time></trkpt><trkpt lat="37.7775067" lon="15.17258"><ele>217.0</ele><time>2026-04-18T11:00:28.115Z</time></trkpt><trkpt lat="37.7774417" lon="15.1725967"><ele>217.0</ele><time>2026-04-18T11:00:29.115Z</time></trkpt><trkpt lat="37.7773683" lon="15.1726233"><ele>217.0</ele><time>2026-04-18T11:00:30.115Z</time></trkpt><trkpt lat="37.77729" lon="15.1726467"><ele>217.0</ele><time>2026-04-18T11:00:31.115Z</time></trkpt><trkpt lat="37.7772183" lon="15.17267"><ele>217.0</ele><time>2026-04-18T11:00:32.115Z</time></trkpt><trkpt lat="37.77715" lon="15.172725"><ele>216.99999999999997</ele><time>2026-04-18T11:00:33.115Z</time></trkpt><trkpt lat="37.777085" lon="15.1727933"><ele>217.0</ele><time>2026-04-18T11:00:34.115Z</time></trkpt><trkpt lat="37.7770333" lon="15.1728433"><ele>217.0</ele><time>2026-04-18T11:00:35.115Z</time></trkpt><trkpt lat="37.7769683" lon="15.1729"><ele>217.0</ele><time>2026-04-18T11:00:36.115Z</time></trkpt><trkpt lat="37.7768983" lon="15.17297"><ele>216.99999999999997</ele><time>2026-04-18T11:00:37.115Z</time></trkpt><trkpt lat="37.7768283" lon="15.17303"><ele>217.0</ele><time>2026-04-18T11:00:38.115Z</time></trkpt><trkpt lat="37.77675" lon="15.1730867"><ele>217.6</ele><time>2026-04-18T11:00:39.115Z</time></trkpt><trkpt lat="37.7766767" lon="15.1731433"><ele>218.2</ele><time>2026-04-18T11:00:40.115Z</time></trkpt><trkpt lat="37.7766033" lon="15.1732033"><ele>218.8</ele><time>2026-04-18T11:00:41.115Z</time></trkpt><trkpt lat="37.7765283" lon="15.17327"><ele>219.4</ele><time>2026-04-18T11:00:42.115Z</time></trkpt><trkpt lat="37.7764467" lon="15.173335"><ele>220.0</ele><time>2026-04-18T11:00:43.115Z</time></trkpt><trkpt lat="37.7763583" lon="15.1733817"><ele>217.6</ele><time>2026-04-18T11:00:44.115Z</time></trkpt><trkpt lat="37.776265" lon="15.1733933"><ele>215.2</ele><time>2026-04-18T11:00:45.115Z</time></trkpt><trkpt lat="37.776165" lon="15.17337"><ele>212.8</ele><time>2026-04-18T11:00:46.115Z</time></trkpt><trkpt lat="37.7760533" lon="15.17333"><ele>210.4</ele><time>2026-04-18T11:00:47.115Z</time></trkpt><trkpt lat="37.7759317" lon="15.173285"><ele>208.0</ele><time>2026-04-18T11:00:48.115Z</time></trkpt><trkpt lat="37.7758117" lon="15.1732517"><ele>207.0</ele><time>2026-04-18T11:00:49.115Z</time></trkpt><trkpt lat="37.7756917" lon="15.17321"><ele>206.0</ele><time>2026-04-18T11:00:50.114Z</time></trkpt><trkpt lat="37.775575" lon="15.173165"><ele>205.0</ele><time>2026-04-18T11:00:51.114Z</time></trkpt><trkpt lat="37.7754567" lon="15.1731333"><ele>204.0</ele><time>2026-04-18T11:00:52.115Z</time></trkpt><trkpt lat="37.77535" lon="15.1730983"><ele>205.39999999999998</ele><time>2026-04-18T11:00:53.115Z</time></trkpt><trkpt lat="37.7752483" lon="15.173065"><ele>206.8</ele><time>2026-04-18T11:00:54.115Z</time></trkpt><trkpt lat="37.775145" lon="15.17304"><ele>208.2</ele><time>2026-04-18T11:00:55.115Z</time></trkpt><trkpt lat="37.7750517" lon="15.1730117"><ele>209.60000000000002</ele><time>2026-04-18T11:00:56.115Z</time></trkpt><trkpt lat="37.7749583" lon="15.1729783"><ele>211.0</ele><time>2026-04-18T11:00:57.115Z</time></trkpt><trkpt lat="37.774865" lon="15.1729517"><ele>211.0</ele><time>2026-04-18T11:00:58.115Z</time></trkpt><trkpt lat="37.7747733" lon="15.1729283"><ele>211.0</ele><time>2026-04-18T11:00:59.114Z</time></trkpt><trkpt lat="37.77468" lon="15.1728967"><ele>211.0</ele><time>2026-04-18T11:01:00.115Z</time></trkpt><trkpt lat="37.7745833" lon="15.17286"><ele>211.0</ele><time>2026-04-18T11:01:01.115Z</time></trkpt><trkpt lat="37.7744917" lon="15.1728233"><ele>211.0</ele><time>2026-04-18T11:01:02.115Z</time></trkpt><trkpt lat="37.7743983" lon="15.17279"><ele>210.66666666666666</ele><time>2026-04-18T11:01:03.115Z</time></trkpt><trkpt lat="37.7743117" lon="15.1727667"><ele>210.33333333333331</ele><time>2026-04-18T11:01:04.115Z</time></trkpt><trkpt lat="37.77422" lon="15.1727633"><ele>210.0</ele><time>2026-04-18T11:01:05.115Z</time></trkpt><trkpt lat="37.77413" lon="15.17279"><ele>209.66666666666669</ele><time>2026-04-18T11:01:06.115Z</time></trkpt><trkpt lat="37.7740517" lon="15.1728483"><ele>209.33333333333334</ele><time>2026-04-18T11:01:07.115Z</time></trkpt><trkpt lat="37.77399" lon="15.172905"><ele>209.0</ele><time>2026-04-18T11:01:08.115Z</time></trkpt><trkpt lat="37.7739383" lon="15.1729833"><ele>209.0</ele><time>2026-04-18T11:01:09.115Z</time></trkpt><trkpt lat="37.7739" lon="15.1730683"><ele>209.0</ele><time>2026-04-18T11:01:10.115Z</time></trkpt><trkpt lat="37.7738733" lon="15.1731533"><ele>209.0</ele><time>2026-04-18T11:01:11.115Z</time></trkpt><trkpt lat="37.7738467" lon="15.1732317"><ele>209.0</ele><time>2026-04-18T11:01:12.115Z</time></trkpt><trkpt lat="37.77382" lon="15.17331"><ele>209.0</ele><time>2026-04-18T11:01:13.115Z</time></trkpt><trkpt lat="37.773795" lon="15.1733933"><ele>209.0</ele><time>2026-04-18T11:01:14.115Z</time></trkpt><trkpt lat="37.77377" lon="15.1734783"><ele>209.0</ele><time>2026-04-18T11:01:15.115Z</time></trkpt><trkpt lat="37.7737417" lon="15.173555"><ele>208.83333333333334</ele><time>2026-04-18T11:01:16.115Z</time></trkpt><trkpt lat="37.7737" lon="15.17363"><ele>208.66666666666669</ele><time>2026-04-18T11:01:17.115Z</time></trkpt><trkpt lat="37.7736417" lon="15.173705"><ele>208.5</ele><time>2026-04-18T11:01:18.115Z</time></trkpt><trkpt lat="37.77358" lon="15.1737817"><ele>208.33333333333331</ele><time>2026-04-18T11:01:19.115Z</time></trkpt><trkpt lat="37.7735133" lon="15.173855"><ele>208.16666666666666</ele><time>2026-04-18T11:01:20.115Z</time></trkpt><trkpt lat="37.7734433" lon="15.173915"><ele>208.0</ele><time>2026-04-18T11:01:21.115Z</time></trkpt><trkpt lat="37.7733733" lon="15.1739767"><ele>206.49999999999997</ele><time>2026-04-18T11:01:22.115Z</time></trkpt><trkpt lat="37.77331" lon="15.1740383"><ele>205.0</ele><time>2026-04-18T11:01:23.115Z</time></trkpt><trkpt lat="37.7732533" lon="15.1740933"><ele>203.5</ele><time>2026-04-18T11:01:24.115Z</time></trkpt><trkpt lat="37.7731917" lon="15.1741417"><ele>202.0</ele><time>2026-04-18T11:01:25.115Z</time></trkpt><trkpt lat="37.7731267" lon="15.1741867"><ele>200.49999999999997</ele><time>2026-04-18T11:01:26.115Z</time></trkpt><trkpt lat="37.7730583" lon="15.1742317"><ele>199.0</ele><time>2026-04-18T11:01:27.115Z</time></trkpt><trkpt lat="37.7729917" lon="15.1742767"><ele>198.99999999999997</ele><time>2026-04-18T11:01:28.115Z</time></trkpt><trkpt lat="37.7729167" lon="15.1743117"><ele>199.0</ele><time>2026-04-18T11:01:29.115Z</time></trkpt><trkpt lat="37.772835" lon="15.1743317"><ele>199.0</ele><time>2026-04-18T11:01:30.115Z</time></trkpt><trkpt lat="37.7727583" lon="15.17434"><ele>199.0</ele><time>2026-04-18T11:01:31.115Z</time></trkpt><trkpt lat="37.772675" lon="15.174325"><ele>198.99999999999997</ele><time>2026-04-18T11:01:32.115Z</time></trkpt><trkpt lat="37.7725883" lon="15.1742767"><ele>199.0</ele><time>2026-04-18T11:01:33.115Z</time></trkpt><trkpt lat="37.772505" lon="15.17423"><ele>198.6</ele><time>2026-04-18T11:01:34.115Z</time></trkpt><trkpt lat="37.772415" lon="15.1741983"><ele>198.2</ele><time>2026-04-18T11:01:35.115Z</time></trkpt><trkpt lat="37.772325" lon="15.1741683"><ele>197.79999999999998</ele><time>2026-04-18T11:01:36.114Z</time></trkpt><trkpt lat="37.7722233" lon="15.1741417"><ele>197.39999999999998</ele><time>2026-04-18T11:01:37.114Z</time></trkpt><trkpt lat="37.7721267" lon="15.174135"><ele>197.0</ele><time>2026-04-18T11:01:38.114Z</time></trkpt><trkpt lat="37.77203" lon="15.17413"><ele>197.0</ele><time>2026-04-18T11:01:39.114Z</time></trkpt><trkpt lat="37.7719317" lon="15.1741417"><ele>197.0</ele><time>2026-04-18T11:01:40.114Z</time></trkpt><trkpt lat="37.7718383" lon="15.17415"><ele>197.0</ele><time>2026-04-18T11:01:41.114Z</time></trkpt><trkpt lat="37.771745" lon="15.1741583"><ele>197.0</ele><time>2026-04-18T11:01:42.114Z</time></trkpt><trkpt lat="37.771655" lon="15.1741717"><ele>197.0</ele><time>2026-04-18T11:01:43.114Z</time></trkpt><trkpt lat="37.77157" lon="15.17419"><ele>196.50000000000003</ele><time>2026-04-18T11:01:44.114Z</time></trkpt><trkpt lat="37.7714833" lon="15.1742017"><ele>196.0</ele><time>2026-04-18T11:01:45.114Z</time></trkpt><trkpt lat="37.7713967" lon="15.1742133"><ele>195.5</ele><time>2026-04-18T11:01:46.114Z</time></trkpt><trkpt lat="37.771315" lon="15.1742267"><ele>195.0</ele><time>2026-04-18T11:01:47.113Z</time></trkpt><trkpt lat="37.77123" lon="15.1742467"><ele>194.50000000000003</ele><time>2026-04-18T11:01:48.114Z</time></trkpt><trkpt lat="37.7711517" lon="15.17429"><ele>194.0</ele><time>2026-04-18T11:01:49.114Z</time></trkpt><trkpt lat="37.7710967" lon="15.1743467"><ele>194.00000000000003</ele><time>2026-04-18T11:01:50.114Z</time></trkpt><trkpt lat="37.77105" lon="15.174425"><ele>194.0</ele><time>2026-04-18T11:01:51.114Z</time></trkpt><trkpt lat="37.77101" lon="15.1745183"><ele>194.0</ele><time>2026-04-18T11:01:52.114Z</time></trkpt><trkpt lat="37.770965" lon="15.174615"><ele>194.0</ele><time>2026-04-18T11:01:53.114Z</time></trkpt><trkpt lat="37.7709233" lon="15.1747067"><ele>194.00000000000003</ele><time>2026-04-18T11:01:54.114Z</time></trkpt><trkpt lat="37.7708817" lon="15.1747933"><ele>194.0</ele><time>2026-04-18T11:01:55.114Z</time></trkpt><trkpt lat="37.7708367" lon="15.1748767"><ele>193.33333333333334</ele><time>2026-04-18T11:01:56.114Z</time></trkpt><trkpt lat="37.770785" lon="15.17496"><ele>192.66666666666669</ele><time>2026-04-18T11:01:57.114Z</time></trkpt><trkpt lat="37.7707167" lon="15.17501"><ele>192.0</ele><time>2026-04-18T11:01:58.114Z</time></trkpt><trkpt lat="37.77064" lon="15.175045"><ele>191.33333333333334</ele><time>2026-04-18T11:01:59.114Z</time></trkpt><trkpt lat="37.7705533" lon="15.1750533"><ele>190.66666666666669</ele><time>2026-04-18T11:02:00.114Z</time></trkpt><trkpt lat="37.7704683" lon="15.1750517"><ele>190.0</ele><time>2026-04-18T11:02:01.114Z</time></trkpt><trkpt lat="37.7703883" lon="15.175055"><ele>190.0</ele><time>2026-04-18T11:02:02.114Z</time></trkpt><trkpt lat="37.770305" lon="15.1750533"><ele>190.0</ele><time>2026-04-18T11:02:03.114Z</time></trkpt><trkpt lat="37.770225" lon="15.1750533"><ele>190.0</ele><time>2026-04-18T11:02:04.114Z</time></trkpt><trkpt lat="37.7701467" lon="15.17506"><ele>190.0</ele><time>2026-04-18T11:02:05.114Z</time></trkpt><trkpt lat="37.770055" lon="15.17506"><ele>190.0</ele><time>2026-04-18T11:02:06.114Z</time></trkpt><trkpt lat="37.7699583" lon="15.1750633"><ele>190.0</ele><time>2026-04-18T11:02:07.114Z</time></trkpt><trkpt lat="37.769855" lon="15.17507"><ele>190.0</ele><time>2026-04-18T11:02:08.114Z</time></trkpt><trkpt lat="37.7697617" lon="15.1750683"><ele>190.0</ele><time>2026-04-18T11:02:09.114Z</time></trkpt><trkpt lat="37.76967" lon="15.175075"><ele>190.0</ele><time>2026-04-18T11:02:10.114Z</time></trkpt><trkpt lat="37.7695767" lon="15.1750817"><ele>190.0</ele><time>2026-04-18T11:02:11.114Z</time></trkpt><trkpt lat="37.7694733" lon="15.175085"><ele>190.0</ele><time>2026-04-18T11:02:12.114Z</time></trkpt><trkpt lat="37.7693767" lon="15.17509"><ele>190.2</ele><time>2026-04-18T11:02:13.114Z</time></trkpt><trkpt lat="37.7692767" lon="15.175095"><ele>190.4</ele><time>2026-04-18T11:02:14.114Z</time></trkpt><trkpt lat="37.76917" lon="15.1750917"><ele>190.60000000000002</ele><time>2026-04-18T11:02:15.114Z</time></trkpt><trkpt lat="37.7690717" lon="15.17509"><ele>190.8</ele><time>2026-04-18T11:02:16.113Z</time></trkpt><trkpt lat="37.7689717" lon="15.1751"><ele>191.0</ele><time>2026-04-18T11:02:17.114Z</time></trkpt><trkpt lat="37.768875" lon="15.1751117"><ele>191.0</ele><time>2026-04-18T11:02:18.114Z</time></trkpt><trkpt lat="37.768785" lon="15.1751117"><ele>191.0</ele><time>2026-04-18T11:02:19.114Z</time></trkpt><trkpt lat="37.7686933" lon="15.17511"><ele>191.0</ele><time>2026-04-18T11:02:20.114Z</time></trkpt><trkpt lat="37.7686083" lon="15.175115"><ele>191.0</ele><time>2026-04-18T11:02:21.114Z</time></trkpt><trkpt lat="37.7685267" lon="15.17512"><ele>191.0</ele><time>2026-04-18T11:02:22.114Z</time></trkpt><trkpt lat="37.76844" lon="15.175125"><ele>191.0</ele><time>2026-04-18T11:02:23.113Z</time></trkpt><trkpt lat="37.768355" lon="15.175135"><ele>190.0</ele><time>2026-04-18T11:02:24.114Z</time></trkpt><trkpt lat="37.7682667" lon="15.1751433"><ele>189.0</ele><time>2026-04-18T11:02:25.114Z</time></trkpt><trkpt lat="37.76817" lon="15.175165"><ele>188.0</ele><time>2026-04-18T11:02:26.114Z</time></trkpt><trkpt lat="37.7680767" lon="15.1751933"><ele>187.0</ele><time>2026-04-18T11:02:27.114Z</time></trkpt><trkpt lat="37.7679933" lon="15.1752083"><ele>186.0</ele><time>2026-04-18T11:02:28.114Z</time></trkpt><trkpt lat="37.767915" lon="15.1752283"><ele>185.0</ele><time>2026-04-18T11:02:29.113Z</time></trkpt><trkpt lat="37.7678383" lon="15.175235"><ele>185.0</ele><time>2026-04-18T11:02:30.113Z</time></trkpt><trkpt lat="37.76777" lon="15.1752433"><ele>185.0</ele><time>2026-04-18T11:02:31.114Z</time></trkpt><trkpt lat="37.7676717" lon="15.1752617"><ele>185.0</ele><time>2026-04-18T11:02:33.114Z</time></trkpt><trkpt lat="37.7676083" lon="15.1752767"><ele>185.0</ele><time>2026-04-18T11:02:35.114Z</time></trkpt><trkpt lat="37.7675383" lon="15.1752917"><ele>185.0</ele><time>2026-04-18T11:02:37.114Z</time></trkpt><trkpt lat="37.76746" lon="15.1753083"><ele>185.0</ele><time>2026-04-18T11:02:39.113Z</time></trkpt><trkpt lat="37.76735" lon="15.175335"><ele>184.57142857142856</ele><time>2026-04-18T11:02:41.114Z</time></trkpt><trkpt lat="37.7672833" lon="15.1753583"><ele>184.14285714285714</ele><time>2026-04-18T11:02:42.114Z</time></trkpt><trkpt lat="37.76722" lon="15.17539"><ele>183.71428571428572</ele><time>2026-04-18T11:02:43.114Z</time></trkpt><trkpt lat="37.7671617" lon="15.1754367"><ele>183.28571428571428</ele><time>2026-04-18T11:02:44.114Z</time></trkpt><trkpt lat="37.7671117" lon="15.17549"><ele>182.85714285714286</ele><time>2026-04-18T11:02:45.114Z</time></trkpt><trkpt lat="37.7670533" lon="15.175545"><ele>182.42857142857142</ele><time>2026-04-18T11:02:46.114Z</time></trkpt><trkpt lat="37.7669933" lon="15.1755983"><ele>182.0</ele><time>2026-04-18T11:02:47.114Z</time></trkpt><trkpt lat="37.76693" lon="15.1756467"><ele>179.83333333333331</ele><time>2026-04-18T11:02:48.114Z</time></trkpt><trkpt lat="37.766865" lon="15.1756967"><ele>177.66666666666666</ele><time>2026-04-18T11:02:49.113Z</time></trkpt><trkpt lat="37.766795" lon="15.1757483"><ele>175.5</ele><time>2026-04-18T11:02:50.114Z</time></trkpt><trkpt lat="37.7667217" lon="15.1757767"><ele>173.33333333333334</ele><time>2026-04-18T11:02:51.114Z</time></trkpt><trkpt lat="37.766645" lon="15.1758"><ele>171.16666666666669</ele><time>2026-04-18T11:02:52.113Z</time></trkpt><trkpt lat="37.766565" lon="15.1758233"><ele>169.0</ele><time>2026-04-18T11:02:53.114Z</time></trkpt><trkpt lat="37.7664867" lon="15.17584"><ele>169.0</ele><time>2026-04-18T11:02:54.114Z</time></trkpt><trkpt lat="37.76641" lon="15.175855"><ele>169.0</ele><time>2026-04-18T11:02:55.114Z</time></trkpt><trkpt lat="37.7663283" lon="15.175875"><ele>169.0</ele><time>2026-04-18T11:02:56.114Z</time></trkpt><trkpt lat="37.766245" lon="15.175895"><ele>169.0</ele><time>2026-04-18T11:02:57.114Z</time></trkpt><trkpt lat="37.7661617" lon="15.1759167"><ele>169.0</ele><time>2026-04-18T11:02:58.114Z</time></trkpt><trkpt lat="37.7660667" lon="15.1759467"><ele>169.0</ele><time>2026-04-18T11:02:59.114Z</time></trkpt><trkpt lat="37.7659633" lon="15.1759917"><ele>170.0</ele><time>2026-04-18T11:03:00.114Z</time></trkpt><trkpt lat="37.7658517" lon="15.176045"><ele>171.0</ele><time>2026-04-18T11:03:01.114Z</time></trkpt><trkpt lat="37.7657333" lon="15.17611"><ele>172.0</ele><time>2026-04-18T11:03:02.114Z</time></trkpt><trkpt lat="37.7656183" lon="15.1761733"><ele>173.0</ele><time>2026-04-18T11:03:03.114Z</time></trkpt><trkpt lat="37.76551" lon="15.1762383"><ele>173.0</ele><time>2026-04-18T11:03:04.114Z</time></trkpt><trkpt lat="37.7654017" lon="15.1762967"><ele>173.0</ele><time>2026-04-18T11:03:05.114Z</time></trkpt><trkpt lat="37.7652917" lon="15.1763617"><ele>173.0</ele><time>2026-04-18T11:03:06.114Z</time></trkpt><trkpt lat="37.76519" lon="15.1764167"><ele>173.0</ele><time>2026-04-18T11:03:07.114Z</time></trkpt><trkpt lat="37.7650933" lon="15.1764717"><ele>171.2</ele><time>2026-04-18T11:03:08.114Z</time></trkpt><trkpt lat="37.765" lon="15.1765267"><ele>169.4</ele><time>2026-04-18T11:03:09.114Z</time></trkpt><trkpt lat="37.7649033" lon="15.1765717"><ele>167.6</ele><time>2026-04-18T11:03:10.114Z</time></trkpt><trkpt lat="37.764815" lon="15.1766117"><ele>165.79999999999998</ele><time>2026-04-18T11:03:11.114Z</time></trkpt><trkpt lat="37.7647217" lon="15.176625"><ele>164.0</ele><time>2026-04-18T11:03:12.113Z</time></trkpt><trkpt lat="37.76464" lon="15.1765983"><ele>164.0</ele><time>2026-04-18T11:03:13.114Z</time></trkpt><trkpt lat="37.76456" lon="15.1765367"><ele>164.0</ele><time>2026-04-18T11:03:14.114Z</time></trkpt><trkpt lat="37.7644817" lon="15.1764533"><ele>164.0</ele><time>2026-04-18T11:03:15.114Z</time></trkpt><trkpt lat="37.7644017" lon="15.176375"><ele>164.0</ele><time>2026-04-18T11:03:16.114Z</time></trkpt><trkpt lat="37.7643317" lon="15.1763017"><ele>164.0</ele><time>2026-04-18T11:03:17.114Z</time></trkpt><trkpt lat="37.76428" lon="15.1762483"><ele>165.79999999999998</ele><time>2026-04-18T11:03:18.114Z</time></trkpt><trkpt lat="37.7642317" lon="15.1761933"><ele>167.6</ele><time>2026-04-18T11:03:20.113Z</time></trkpt><trkpt lat="37.76412" lon="15.176155"><ele>169.4</ele><time>2026-04-18T11:04:59.114Z</time></trkpt><trkpt lat="37.7640417" lon="15.1761167"><ele>171.2</ele><time>2026-04-18T11:05:00.114Z</time></trkpt><trkpt lat="37.763945" lon="15.1760583"><ele>173.0</ele><time>2026-04-18T11:05:01.113Z</time></trkpt><trkpt lat="37.7638217" lon="15.17597"><ele>173.0</ele><time>2026-04-18T11:05:02.113Z</time></trkpt><trkpt lat="37.763715" lon="15.17586"><ele>173.0</ele><time>2026-04-18T11:05:03.114Z</time></trkpt><trkpt lat="37.7636133" lon="15.1757583"><ele>173.0</ele><time>2026-04-18T11:05:04.114Z</time></trkpt><trkpt lat="37.763515" lon="15.175655"><ele>173.0</ele><time>2026-04-18T11:05:05.114Z</time></trkpt><trkpt lat="37.7634183" lon="15.1755567"><ele>172.25</ele><time>2026-04-18T11:05:06.114Z</time></trkpt><trkpt lat="37.7633017" lon="15.1754767"><ele>171.5</ele><time>2026-04-18T11:05:07.114Z</time></trkpt><trkpt lat="37.7631683" lon="15.1754083"><ele>170.75</ele><time>2026-04-18T11:05:08.114Z</time></trkpt><trkpt lat="37.7630267" lon="15.1753567"><ele>170.0</ele><time>2026-04-18T11:05:09.114Z</time></trkpt><trkpt lat="37.7628767" lon="15.1753133"><ele>170.0</ele><time>2026-04-18T11:05:10.113Z</time></trkpt><trkpt lat="37.7627283" lon="15.1753017"><ele>170.0</ele><time>2026-04-18T11:05:11.114Z</time></trkpt><trkpt lat="37.7625833" lon="15.175295"><ele>170.0</ele><time>2026-04-18T11:05:12.114Z</time></trkpt><trkpt lat="37.76245" lon="15.17527"><ele>170.0</ele><time>2026-04-18T11:05:13.114Z</time></trkpt><trkpt lat="37.76232" lon="15.175215"><ele>170.75</ele><time>2026-04-18T11:05:14.114Z</time></trkpt><trkpt lat="37.762195" lon="15.17513"><ele>171.5</ele><time>2026-04-18T11:05:15.114Z</time></trkpt><trkpt lat="37.762085" lon="15.1750083"><ele>172.25</ele><time>2026-04-18T11:05:16.114Z</time></trkpt><trkpt lat="37.7619817" lon="15.1748683"><ele>173.0</ele><time>2026-04-18T11:05:17.114Z</time></trkpt><trkpt lat="37.76187" lon="15.1747317"><ele>171.0</ele><time>2026-04-18T11:05:18.114Z</time></trkpt><trkpt lat="37.7617567" lon="15.1745967"><ele>169.0</ele><time>2026-04-18T11:05:19.114Z</time></trkpt><trkpt lat="37.76164" lon="15.174455"><ele>167.0</ele><time>2026-04-18T11:05:20.114Z</time></trkpt><trkpt lat="37.7615267" lon="15.1743083"><ele>167.0</ele><time>2026-04-18T11:05:21.114Z</time></trkpt><trkpt lat="37.76141" lon="15.1741683"><ele>167.0</ele><time>2026-04-18T11:05:22.114Z</time></trkpt><trkpt lat="37.7612967" lon="15.1740267"><ele>167.0</ele><time>2026-04-18T11:05:23.113Z</time></trkpt><trkpt lat="37.7611967" lon="15.1738967"><ele>168.0</ele><time>2026-04-18T11:05:24.114Z</time></trkpt><trkpt lat="37.761085" lon="15.173775"><ele>169.0</ele><time>2026-04-18T11:05:25.113Z</time></trkpt><trkpt lat="37.760975" lon="15.1736517"><ele>170.0</ele><time>2026-04-18T11:05:26.114Z</time></trkpt><trkpt lat="37.7608633" lon="15.17353"><ele>171.0</ele><time>2026-04-18T11:05:27.114Z</time></trkpt><trkpt lat="37.760765" lon="15.1734067"><ele>171.5</ele><time>2026-04-18T11:05:28.114Z</time></trkpt><trkpt lat="37.7606617" lon="15.1732933"><ele>172.0</ele><time>2026-04-18T11:05:29.114Z</time></trkpt><trkpt lat="37.7605633" lon="15.1731683"><ele>172.5</ele><time>2026-04-18T11:05:30.114Z</time></trkpt><trkpt lat="37.760475" lon="15.1730667"><ele>173.0</ele><time>2026-04-18T11:05:31.114Z</time></trkpt><trkpt lat="37.7603967" lon="15.1729567"><ele>174.4</ele><time>2026-04-18T11:05:32.114Z</time></trkpt><trkpt lat="37.76033" lon="15.172875"><ele>175.8</ele><time>2026-04-18T11:05:33.114Z</time></trkpt><trkpt lat="37.76024" lon="15.1727917"><ele>177.2</ele><time>2026-04-18T11:05:35.114Z</time></trkpt><trkpt lat="37.7601483" lon="15.172825"><ele>178.6</ele><time>2026-04-18T11:05:37.114Z</time></trkpt><trkpt lat="37.76011" lon="15.1729117"><ele>180.0</ele><time>2026-04-18T11:05:38.114Z</time></trkpt><trkpt lat="37.7600717" lon="15.1730083"><ele>180.0</ele><time>2026-04-18T11:05:39.114Z</time></trkpt><trkpt lat="37.7600717" lon="15.173135"><ele>180.0</ele><time>2026-04-18T11:05:40.114Z</time></trkpt><trkpt lat="37.7600867" lon="15.17329"><ele>180.0</ele><time>2026-04-18T11:05:41.114Z</time></trkpt><trkpt lat="37.760085" lon="15.17342"><ele>180.0</ele><time>2026-04-18T11:05:42.114Z</time></trkpt><trkpt lat="37.7600717" lon="15.1735567"><ele>180.0</ele><time>2026-04-18T11:05:43.114Z</time></trkpt><trkpt lat="37.76005" lon="15.1737"><ele>178.8</ele><time>2026-04-18T11:05:44.114Z</time></trkpt><trkpt lat="37.7600217" lon="15.173835"><ele>177.6</ele><time>2026-04-18T11:05:45.114Z</time></trkpt><trkpt lat="37.7599883" lon="15.1739617"><ele>176.39999999999998</ele><time>2026-04-18T11:05:46.114Z</time></trkpt><trkpt lat="37.759955" lon="15.17408"><ele>175.2</ele><time>2026-04-18T11:05:47.114Z</time></trkpt><trkpt lat="37.75993" lon="15.1741833"><ele>174.0</ele><time>2026-04-18T11:05:48.114Z</time></trkpt><trkpt lat="37.7599083" lon="15.174265"><ele>173.39999999999998</ele><time>2026-04-18T11:05:49.113Z</time></trkpt><trkpt lat="37.75985" lon="15.174375"><ele>172.8</ele><time>2026-04-18T11:05:51.113Z</time></trkpt><trkpt lat="37.7597617" lon="15.1743917"><ele>172.2</ele><time>2026-04-18T11:05:53.114Z</time></trkpt><trkpt lat="37.7596883" lon="15.1743567"><ele>171.60000000000002</ele><time>2026-04-18T11:05:54.114Z</time></trkpt><trkpt lat="37.7595767" lon="15.1743217"><ele>171.0</ele><time>2026-04-18T11:05:55.114Z</time></trkpt><trkpt lat="37.759445" lon="15.1743033"><ele>170.5</ele><time>2026-04-18T11:05:56.114Z</time></trkpt><trkpt lat="37.7593083" lon="15.174295"><ele>170.0</ele><time>2026-04-18T11:05:57.114Z</time></trkpt><trkpt lat="37.7591733" lon="15.1743217"><ele>169.5</ele><time>2026-04-18T11:05:58.114Z</time></trkpt><trkpt lat="37.7590367" lon="15.1743867"><ele>169.0</ele><time>2026-04-18T11:05:59.114Z</time></trkpt><trkpt lat="37.758905" lon="15.1744783"><ele>169.0</ele><time>2026-04-18T11:06:00.114Z</time></trkpt><trkpt lat="37.75878" lon="15.1745667"><ele>169.0</ele><time>2026-04-18T11:06:01.114Z</time></trkpt><trkpt lat="37.7586617" lon="15.1746567"><ele>169.0</ele><time>2026-04-18T11:06:02.113Z</time></trkpt><trkpt lat="37.7585517" lon="15.17475"><ele>169.0</ele><time>2026-04-18T11:06:03.114Z</time></trkpt><trkpt lat="37.758455" lon="15.1748533"><ele>166.0</ele><time>2026-04-18T11:06:04.114Z</time></trkpt><trkpt lat="37.7583683" lon="15.1749667"><ele>163.0</ele><time>2026-04-18T11:06:05.114Z</time></trkpt><trkpt lat="37.7582783" lon="15.1750767"><ele>160.0</ele><time>2026-04-18T11:06:06.114Z</time></trkpt><trkpt lat="37.7582033" lon="15.17518"><ele>157.0</ele><time>2026-04-18T11:06:07.114Z</time></trkpt><trkpt lat="37.7581117" lon="15.1752717"><ele>157.0</ele><time>2026-04-18T11:06:08.114Z</time></trkpt><trkpt lat="37.75802" lon="15.1753717"><ele>157.0</ele><time>2026-04-18T11:06:09.114Z</time></trkpt><trkpt lat="37.757925" lon="15.1754767"><ele>157.0</ele><time>2026-04-18T11:06:10.114Z</time></trkpt><trkpt lat="37.7578317" lon="15.1756017"><ele>157.0</ele><time>2026-04-18T11:06:11.114Z</time></trkpt><trkpt lat="37.7577433" lon="15.175735"><ele>156.0</ele><time>2026-04-18T11:06:12.114Z</time></trkpt><trkpt lat="37.75766" lon="15.1758567"><ele>155.0</ele><time>2026-04-18T11:06:13.114Z</time></trkpt><trkpt lat="37.7575733" lon="15.1759683"><ele>154.0</ele><time>2026-04-18T11:06:14.114Z</time></trkpt><trkpt lat="37.757485" lon="15.1760717"><ele>153.0</ele><time>2026-04-18T11:06:15.114Z</time></trkpt><trkpt lat="37.7574" lon="15.17618"><ele>153.0</ele><time>2026-04-18T11:06:16.114Z</time></trkpt><trkpt lat="37.757325" lon="15.1762917"><ele>153.0</ele><time>2026-04-18T11:06:17.114Z</time></trkpt><trkpt lat="37.7572583" lon="15.176415"><ele>153.0</ele><time>2026-04-18T11:06:18.114Z</time></trkpt><trkpt lat="37.757215" lon="15.1765417"><ele>153.0</ele><time>2026-04-18T11:06:19.114Z</time></trkpt><trkpt lat="37.7571767" lon="15.1766633"><ele>153.0</ele><time>2026-04-18T11:06:20.113Z</time></trkpt><trkpt lat="37.75718" lon="15.17677"><ele>151.25</ele><time>2026-04-18T11:06:21.114Z</time></trkpt><trkpt lat="37.7572117" lon="15.1768633"><ele>149.5</ele><time>2026-04-18T11:06:22.114Z</time></trkpt><trkpt lat="37.757285" lon="15.176955"><ele>147.75</ele><time>2026-04-18T11:06:23.114Z</time></trkpt><trkpt lat="37.757395" lon="15.1770533"><ele>146.0</ele><time>2026-04-18T11:06:24.114Z</time></trkpt><trkpt lat="37.757515" lon="15.17715"><ele>146.0</ele><time>2026-04-18T11:06:25.114Z</time></trkpt><trkpt lat="37.7576283" lon="15.1772433"><ele>146.0</ele><time>2026-04-18T11:06:26.113Z</time></trkpt><trkpt lat="37.757735" lon="15.1773383"><ele>146.0</ele><time>2026-04-18T11:06:27.114Z</time></trkpt><trkpt lat="37.7578383" lon="15.1774417"><ele>146.0</ele><time>2026-04-18T11:06:28.114Z</time></trkpt><trkpt lat="37.7579283" lon="15.17754"><ele>144.8</ele><time>2026-04-18T11:06:29.114Z</time></trkpt><trkpt lat="37.75799" lon="15.1776433"><ele>143.6</ele><time>2026-04-18T11:06:30.114Z</time></trkpt><trkpt lat="37.7580133" lon="15.177765"><ele>142.4</ele><time>2026-04-18T11:06:31.114Z</time></trkpt><trkpt lat="37.75799" lon="15.17789"><ele>141.2</ele><time>2026-04-18T11:06:32.114Z</time></trkpt><trkpt lat="37.7579267" lon="15.178015"><ele>140.0</ele><time>2026-04-18T11:06:33.114Z</time></trkpt><trkpt lat="37.7578583" lon="15.1781417"><ele>139.25</ele><time>2026-04-18T11:06:34.113Z</time></trkpt><trkpt lat="37.75778" lon="15.1782667"><ele>138.5</ele><time>2026-04-18T11:06:35.114Z</time></trkpt><trkpt lat="37.7576983" lon="15.1784083"><ele>137.75</ele><time>2026-04-18T11:06:36.114Z</time></trkpt><trkpt lat="37.7576133" lon="15.1785167"><ele>137.0</ele><time>2026-04-18T11:06:37.114Z</time></trkpt><trkpt lat="37.7575067" lon="15.1785833"><ele>135.75</ele><time>2026-04-18T11:06:38.114Z</time></trkpt><trkpt lat="37.757395" lon="15.1786217"><ele>134.5</ele><time>2026-04-18T11:06:39.114Z</time></trkpt><trkpt lat="37.7572867" lon="15.1786317"><ele>133.25</ele><time>2026-04-18T11:06:40.114Z</time></trkpt><trkpt lat="37.7571683" lon="15.1786083"><ele>132.0</ele><time>2026-04-18T11:06:41.114Z</time></trkpt><trkpt lat="37.7570383" lon="15.1785683"><ele>132.0</ele><time>2026-04-18T11:06:42.113Z</time></trkpt><trkpt lat="37.7568933" lon="15.1785267"><ele>132.0</ele><time>2026-04-18T11:06:43.114Z</time></trkpt><trkpt lat="37.75674" lon="15.1784833"><ele>132.0</ele><time>2026-04-18T11:06:44.114Z</time></trkpt><trkpt lat="37.756595" lon="15.1784417"><ele>132.0</ele><time>2026-04-18T11:06:45.114Z</time></trkpt><trkpt lat="37.7564567" lon="15.1784067"><ele>132.0</ele><time>2026-04-18T11:06:46.113Z</time></trkpt><trkpt lat="37.7563283" lon="15.1783917"><ele>132.0</ele><time>2026-04-18T11:06:47.114Z</time></trkpt><trkpt lat="37.7562" lon="15.178405"><ele>132.0</ele><time>2026-04-18T11:06:48.114Z</time></trkpt><trkpt lat="37.75607" lon="15.17846"><ele>130.5</ele><time>2026-04-18T11:06:49.114Z</time></trkpt><trkpt lat="37.75594" lon="15.178545"><ele>129.0</ele><time>2026-04-18T11:06:50.113Z</time></trkpt><trkpt lat="37.75582" lon="15.17865"><ele>127.5</ele><time>2026-04-18T11:06:51.114Z</time></trkpt><trkpt lat="37.7557183" lon="15.1787517"><ele>126.0</ele><time>2026-04-18T11:06:52.114Z</time></trkpt><trkpt lat="37.75561" lon="15.1788567"><ele>126.0</ele><time>2026-04-18T11:06:53.113Z</time></trkpt><trkpt lat="37.7555083" lon="15.1789567"><ele>126.0</ele><time>2026-04-18T11:06:54.113Z</time></trkpt><trkpt lat="37.7554033" lon="15.1790533"><ele>126.0</ele><time>2026-04-18T11:06:55.114Z</time></trkpt><trkpt lat="37.755315" lon="15.1791417"><ele>126.0</ele><time>2026-04-18T11:06:56.114Z</time></trkpt><trkpt lat="37.755235" lon="15.1792233"><ele>122.5</ele><time>2026-04-18T11:06:57.114Z</time></trkpt><trkpt lat="37.75516" lon="15.1793133"><ele>119.0</ele><time>2026-04-18T11:06:58.114Z</time></trkpt><trkpt lat="37.7550867" lon="15.1794267"><ele>115.5</ele><time>2026-04-18T11:06:59.114Z</time></trkpt><trkpt lat="37.75501" lon="15.1795583"><ele>112.0</ele><time>2026-04-18T11:07:00.114Z</time></trkpt><trkpt lat="37.75494" lon="15.1796817"><ele>112.0</ele><time>2026-04-18T11:07:01.114Z</time></trkpt><trkpt lat="37.7548717" lon="15.1797983"><ele>112.0</ele><time>2026-04-18T11:07:02.114Z</time></trkpt><trkpt lat="37.7547967" lon="15.1799133"><ele>112.0</ele><time>2026-04-18T11:07:03.114Z</time></trkpt><trkpt lat="37.7547233" lon="15.1800367"><ele>112.0</ele><time>2026-04-18T11:07:04.114Z</time></trkpt><trkpt lat="37.754655" lon="15.1801467"><ele>110.25</ele><time>2026-04-18T11:07:05.114Z</time></trkpt><trkpt lat="37.7545833" lon="15.1802667"><ele>108.5</ele><time>2026-04-18T11:07:06.114Z</time></trkpt><trkpt lat="37.7545117" lon="15.1803817"><ele>106.75</ele><time>2026-04-18T11:07:07.114Z</time></trkpt><trkpt lat="37.7544433" lon="15.1805033"><ele>105.0</ele><time>2026-04-18T11:07:08.114Z</time></trkpt><trkpt lat="37.7543783" lon="15.1806117"><ele>102.4</ele><time>2026-04-18T11:07:09.114Z</time></trkpt><trkpt lat="37.7543167" lon="15.1807267"><ele>99.8</ele><time>2026-04-18T11:07:10.114Z</time></trkpt><trkpt lat="37.7542767" lon="15.1808533"><ele>97.19999999999999</ele><time>2026-04-18T11:07:11.113Z</time></trkpt><trkpt lat="37.7542567" lon="15.18098"><ele>94.6</ele><time>2026-04-18T11:07:12.113Z</time></trkpt><trkpt lat="37.7542667" lon="15.1811033"><ele>92.0</ele><time>2026-04-18T11:07:13.114Z</time></trkpt><trkpt lat="37.75429" lon="15.18122"><ele>92.0</ele><time>2026-04-18T11:07:14.114Z</time></trkpt><trkpt lat="37.754305" lon="15.1813367"><ele>92.0</ele><time>2026-04-18T11:07:15.114Z</time></trkpt><trkpt lat="37.754305" lon="15.18145"><ele>92.0</ele><time>2026-04-18T11:07:16.114Z</time></trkpt><trkpt lat="37.7542833" lon="15.1815533"><ele>92.0</ele><time>2026-04-18T11:07:17.114Z</time></trkpt><trkpt lat="37.754245" lon="15.1816533"><ele>92.0</ele><time>2026-04-18T11:07:18.113Z</time></trkpt><trkpt lat="37.7541917" lon="15.1817417"><ele>92.0</ele><time>2026-04-18T11:07:19.114Z</time></trkpt><trkpt lat="37.7541183" lon="15.1818167"><ele>90.8</ele><time>2026-04-18T11:07:20.114Z</time></trkpt><trkpt lat="37.7540267" lon="15.18188"><ele>89.6</ele><time>2026-04-18T11:07:21.114Z</time></trkpt><trkpt lat="37.75393" lon="15.18194"><ele>88.39999999999999</ele><time>2026-04-18T11:07:22.114Z</time></trkpt><trkpt lat="37.75383" lon="15.1819983"><ele>87.19999999999999</ele><time>2026-04-18T11:07:23.114Z</time></trkpt><trkpt lat="37.75373" lon="15.1820517"><ele>86.0</ele><time>2026-04-18T11:07:24.114Z</time></trkpt><trkpt lat="37.7536317" lon="15.1820983"><ele>86.0</ele><time>2026-04-18T11:07:25.113Z</time></trkpt><trkpt lat="37.75354" lon="15.18214"><ele>86.0</ele><time>2026-04-18T11:07:26.114Z</time></trkpt><trkpt lat="37.7534667" lon="15.1821767"><ele>86.0</ele><time>2026-04-18T11:07:27.114Z</time></trkpt><trkpt lat="37.7534033" lon="15.1822033"><ele>86.0</ele><time>2026-04-18T11:07:28.114Z</time></trkpt><trkpt lat="37.7533417" lon="15.1822333"><ele>86.0</ele><time>2026-04-18T11:07:29.113Z</time></trkpt><trkpt lat="37.75327" lon="15.1822817"><ele>86.0</ele><time>2026-04-18T11:07:30.114Z</time></trkpt><trkpt lat="37.7531983" lon="15.1823533"><ele>84.0</ele><time>2026-04-18T11:07:31.113Z</time></trkpt><trkpt lat="37.7531067" lon="15.1824583"><ele>82.0</ele><time>2026-04-18T11:07:32.113Z</time></trkpt><trkpt lat="37.7530033" lon="15.182585"><ele>80.0</ele><time>2026-04-18T11:07:33.114Z</time></trkpt><trkpt lat="37.7528883" lon="15.1827233"><ele>78.0</ele><time>2026-04-18T11:07:34.114Z</time></trkpt><trkpt lat="37.7527567" lon="15.1828817"><ele>77.0</ele><time>2026-04-18T11:07:35.114Z</time></trkpt><trkpt lat="37.7526217" lon="15.183055"><ele>76.0</ele><time>2026-04-18T11:07:36.114Z</time></trkpt><trkpt lat="37.752485" lon="15.1832317"><ele>75.0</ele><time>2026-04-18T11:07:37.114Z</time></trkpt><trkpt lat="37.752355" lon="15.1833967"><ele>75.0</ele><time>2026-04-18T11:07:38.114Z</time></trkpt><trkpt lat="37.7522283" lon="15.1835533"><ele>75.0</ele><time>2026-04-18T11:07:39.114Z</time></trkpt><trkpt lat="37.7521083" lon="15.1837117"><ele>75.0</ele><time>2026-04-18T11:07:40.114Z</time></trkpt><trkpt lat="37.751985" lon="15.1838617"><ele>73.33333333333333</ele><time>2026-04-18T11:07:41.114Z</time></trkpt><trkpt lat="37.7518633" lon="15.1840083"><ele>71.66666666666666</ele><time>2026-04-18T11:07:42.114Z</time></trkpt><trkpt lat="37.7517467" lon="15.1841517"><ele>70.0</ele><time>2026-04-18T11:07:43.114Z</time></trkpt><trkpt lat="37.75163" lon="15.1842917"><ele>70.0</ele><time>2026-04-18T11:07:44.114Z</time></trkpt><trkpt lat="37.7515133" lon="15.18443"><ele>70.0</ele><time>2026-04-18T11:07:45.114Z</time></trkpt><trkpt lat="37.751395" lon="15.1845517"><ele>70.0</ele><time>2026-04-18T11:07:46.114Z</time></trkpt><trkpt lat="37.7512633" lon="15.184665"><ele>70.0</ele><time>2026-04-18T11:07:47.114Z</time></trkpt><trkpt lat="37.7511283" lon="15.184775"><ele>70.0</ele><time>2026-04-18T11:07:48.114Z</time></trkpt><trkpt lat="37.7509983" lon="15.184885"><ele>70.0</ele><time>2026-04-18T11:07:49.114Z</time></trkpt><trkpt lat="37.7508733" lon="15.1849983"><ele>67.66666666666666</ele><time>2026-04-18T11:07:50.114Z</time></trkpt><trkpt lat="37.7507517" lon="15.1851183"><ele>65.33333333333333</ele><time>2026-04-18T11:07:51.114Z</time></trkpt><trkpt lat="37.7506283" lon="15.1852483"><ele>63.0</ele><time>2026-04-18T11:07:52.114Z</time></trkpt><trkpt lat="37.750485" lon="15.18538"><ele>63.0</ele><time>2026-04-18T11:07:53.114Z</time></trkpt><trkpt lat="37.75034" lon="15.1855067"><ele>63.0</ele><time>2026-04-18T11:07:54.114Z</time></trkpt><trkpt lat="37.7501933" lon="15.18562"><ele>63.0</ele><time>2026-04-18T11:07:55.114Z</time></trkpt><trkpt lat="37.7500617" lon="15.1857317"><ele>61.66666666666667</ele><time>2026-04-18T11:07:56.114Z</time></trkpt><trkpt lat="37.749925" lon="15.1858317"><ele>60.333333333333336</ele><time>2026-04-18T11:07:57.114Z</time></trkpt><trkpt lat="37.7497917" lon="15.1859167"><ele>59.0</ele><time>2026-04-18T11:07:58.114Z</time></trkpt><trkpt lat="37.749655" lon="15.1859783"><ele>59.0</ele><time>2026-04-18T11:07:59.114Z</time></trkpt><trkpt lat="37.7495033" lon="15.1860017"><ele>59.0</ele><time>2026-04-18T11:08:00.114Z</time></trkpt><trkpt lat="37.7493433" lon="15.186025"><ele>59.0</ele><time>2026-04-18T11:08:01.114Z</time></trkpt><trkpt lat="37.7491783" lon="15.1860367"><ele>58.0</ele><time>2026-04-18T11:08:02.114Z</time></trkpt><trkpt lat="37.7490133" lon="15.1860533"><ele>57.0</ele><time>2026-04-18T11:08:03.114Z</time></trkpt><trkpt lat="37.7488483" lon="15.1860617"><ele>56.0</ele><time>2026-04-18T11:08:04.114Z</time></trkpt><trkpt lat="37.7486933" lon="15.18608"><ele>54.0</ele><time>2026-04-18T11:08:05.113Z</time></trkpt><trkpt lat="37.748535" lon="15.186105"><ele>52.0</ele><time>2026-04-18T11:08:06.114Z</time></trkpt><trkpt lat="37.74838" lon="15.1861283"><ele>50.0</ele><time>2026-04-18T11:08:07.114Z</time></trkpt><trkpt lat="37.7482183" lon="15.1861467"><ele>50.0</ele><time>2026-04-18T11:08:08.114Z</time></trkpt><trkpt lat="37.748065" lon="15.1861683"><ele>50.0</ele><time>2026-04-18T11:08:09.114Z</time></trkpt><trkpt lat="37.747915" lon="15.186185"><ele>50.0</ele><time>2026-04-18T11:08:10.114Z</time></trkpt><trkpt lat="37.7477733" lon="15.1861933"><ele>50.0</ele><time>2026-04-18T11:08:11.114Z</time></trkpt><trkpt lat="37.7476383" lon="15.1862117"><ele>48.5</ele><time>2026-04-18T11:08:12.113Z</time></trkpt><trkpt lat="37.7475217" lon="15.18625"><ele>47.0</ele><time>2026-04-18T11:08:13.114Z</time></trkpt><trkpt lat="37.7474167" lon="15.1863233"><ele>45.5</ele><time>2026-04-18T11:08:14.114Z</time></trkpt><trkpt lat="37.7473217" lon="15.1864217"><ele>44.0</ele><time>2026-04-18T11:08:15.114Z</time></trkpt><trkpt lat="37.747235" lon="15.1865233"><ele>44.0</ele><time>2026-04-18T11:08:16.114Z</time></trkpt><trkpt lat="37.7471617" lon="15.1866383"><ele>44.0</ele><time>2026-04-18T11:08:17.114Z</time></trkpt><trkpt lat="37.7471133" lon="15.1867633"><ele>44.0</ele><time>2026-04-18T11:08:18.113Z</time></trkpt><trkpt lat="37.74709" lon="15.1869017"><ele>44.0</ele><time>2026-04-18T11:08:19.114Z</time></trkpt><trkpt lat="37.7470867" lon="15.18704"><ele>44.0</ele><time>2026-04-18T11:08:20.114Z</time></trkpt><trkpt lat="37.7470783" lon="15.1871633"><ele>44.0</ele><time>2026-04-18T11:08:21.113Z</time></trkpt><trkpt lat="37.7470433" lon="15.18728"><ele>44.0</ele><time>2026-04-18T11:08:22.114Z</time></trkpt><trkpt lat="37.7469733" lon="15.1873617"><ele>44.0</ele><time>2026-04-18T11:08:23.114Z</time></trkpt><trkpt lat="37.7468717" lon="15.1873967"><ele>44.0</ele><time>2026-04-18T11:08:24.114Z</time></trkpt><trkpt lat="37.7467617" lon="15.1874067"><ele>44.0</ele><time>2026-04-18T11:08:25.114Z</time></trkpt><trkpt lat="37.7466583" lon="15.1873967"><ele>42.2</ele><time>2026-04-18T11:08:26.114Z</time></trkpt><trkpt lat="37.7465583" lon="15.1873867"><ele>40.400000000000006</ele><time>2026-04-18T11:08:27.113Z</time></trkpt><trkpt lat="37.7464683" lon="15.1873833"><ele>38.6</ele><time>2026-04-18T11:08:28.114Z</time></trkpt><trkpt lat="37.7463717" lon="15.1873767"><ele>36.8</ele><time>2026-04-18T11:08:29.114Z</time></trkpt><trkpt lat="37.74627" lon="15.1873717"><ele>35.0</ele><time>2026-04-18T11:08:30.114Z</time></trkpt><trkpt lat="37.746165" lon="15.18736"><ele>35.0</ele><time>2026-04-18T11:08:31.113Z</time></trkpt><trkpt lat="37.7460633" lon="15.1873583"><ele>35.0</ele><time>2026-04-18T11:08:32.114Z</time></trkpt><trkpt lat="37.7459517" lon="15.18734"><ele>35.0</ele><time>2026-04-18T11:08:33.114Z</time></trkpt><trkpt lat="37.74584" lon="15.1873283"><ele>35.0</ele><time>2026-04-18T11:08:34.114Z</time></trkpt><trkpt lat="37.74573" lon="15.18732"><ele>35.0</ele><time>2026-04-18T11:08:35.114Z</time></trkpt><trkpt lat="37.7456183" lon="15.1873"><ele>34.0</ele><time>2026-04-18T11:08:36.114Z</time></trkpt><trkpt lat="37.745505" lon="15.1872917"><ele>34.0</ele><time>2026-04-18T11:08:37.113Z</time></trkpt></trkseg></trk></gpx>